<?xml version="1.0" encoding="UTF-8" standalone="no" ?>
<gpx xmlns="http://www.topografix.com/GPX/1/1" xmlns:xsi="http://www.w3.org/2001/XMLSchema-instance" xsi:schemaLocation="http://www.topografix.com/GPX/1/1 http://www.topografix.com/GPX/1/1/gpx.xsd" version="1.1" creator="VisuGPX - https://www.visugpx.com">
  <metadata>
    <name>pic de massayre boucle depart Riete 13/06/2021</name>
    <desc><![CDATA[Trace AlpineQuest 13/06/2021 9:09:40 AM]]></desc>
  </metadata>
  <trk>
    <name><![CDATA[pic de massayre boucle depart Riete 13/06/2021_1]]></name>
    <trkseg>
      <trkpt lat="42.71028" lon="1.66473">
        <ele>1149.114</ele>
        <time>2021-06-13T07:09:40Z</time>
      </trkpt>
      <trkpt lat="42.71029" lon="1.66487">
        <ele>1107.819</ele>
        <time>2021-06-13T07:09:42Z</time>
      </trkpt>
      <trkpt lat="42.7103" lon="1.66488">
        <ele>1104.266</ele>
        <time>2021-06-13T07:09:44Z</time>
      </trkpt>
      <trkpt lat="42.7103" lon="1.66489">
        <ele>1095.775</ele>
        <time>2021-06-13T07:09:46Z</time>
      </trkpt>
      <trkpt lat="42.71029" lon="1.6649">
        <ele>1092.535</ele>
        <time>2021-06-13T07:09:48Z</time>
      </trkpt>
      <trkpt lat="42.71029" lon="1.66491">
        <ele>1092.35</ele>
        <time>2021-06-13T07:09:50Z</time>
      </trkpt>
      <trkpt lat="42.7103" lon="1.66492">
        <ele>1089.447</ele>
        <time>2021-06-13T07:09:52Z</time>
      </trkpt>
      <trkpt lat="42.7103" lon="1.66492">
        <ele>1089.582</ele>
        <time>2021-06-13T07:09:54Z</time>
      </trkpt>
      <trkpt lat="42.7103" lon="1.66492">
        <ele>1090.112</ele>
        <time>2021-06-13T07:09:56Z</time>
      </trkpt>
      <trkpt lat="42.71029" lon="1.66493">
        <ele>1089.64</ele>
        <time>2021-06-13T07:09:58Z</time>
      </trkpt>
      <trkpt lat="42.7103" lon="1.66493">
        <ele>1087.826</ele>
        <time>2021-06-13T07:10:00Z</time>
      </trkpt>
      <trkpt lat="42.71029" lon="1.66493">
        <ele>1088.015</ele>
        <time>2021-06-13T07:10:02Z</time>
      </trkpt>
      <trkpt lat="42.71028" lon="1.66494">
        <ele>1087.959</ele>
        <time>2021-06-13T07:10:04Z</time>
      </trkpt>
      <trkpt lat="42.71027" lon="1.66494">
        <ele>1087.904</ele>
        <time>2021-06-13T07:10:06Z</time>
      </trkpt>
      <trkpt lat="42.71027" lon="1.66494">
        <ele>1087.785</ele>
        <time>2021-06-13T07:10:08Z</time>
      </trkpt>
      <trkpt lat="42.71027" lon="1.66494">
        <ele>1088.027</ele>
        <time>2021-06-13T07:10:10Z</time>
      </trkpt>
      <trkpt lat="42.71027" lon="1.66494">
        <ele>1088.087</ele>
        <time>2021-06-13T07:10:12Z</time>
      </trkpt>
      <trkpt lat="42.71027" lon="1.66494">
        <ele>1088.079</ele>
        <time>2021-06-13T07:10:14Z</time>
      </trkpt>
      <trkpt lat="42.71027" lon="1.66494">
        <ele>1088.082</ele>
        <time>2021-06-13T07:10:16Z</time>
      </trkpt>
      <trkpt lat="42.71027" lon="1.66494">
        <ele>1088.11</ele>
        <time>2021-06-13T07:10:18Z</time>
      </trkpt>
      <trkpt lat="42.71027" lon="1.66494">
        <ele>1088.121</ele>
        <time>2021-06-13T07:10:20Z</time>
      </trkpt>
      <trkpt lat="42.71027" lon="1.66494">
        <ele>1088.138</ele>
        <time>2021-06-13T07:10:22Z</time>
      </trkpt>
      <trkpt lat="42.71027" lon="1.66494">
        <ele>1088.148</ele>
        <time>2021-06-13T07:10:24Z</time>
      </trkpt>
      <trkpt lat="42.71026" lon="1.66493">
        <ele>1089.104</ele>
        <time>2021-06-13T07:10:26Z</time>
      </trkpt>
      <trkpt lat="42.71027" lon="1.66493">
        <ele>1088.612</ele>
        <time>2021-06-13T07:10:28Z</time>
      </trkpt>
      <trkpt lat="42.71026" lon="1.66493">
        <ele>1088.341</ele>
        <time>2021-06-13T07:10:30Z</time>
      </trkpt>
      <trkpt lat="42.71026" lon="1.66493">
        <ele>1088.191</ele>
        <time>2021-06-13T07:10:32Z</time>
      </trkpt>
      <trkpt lat="42.71026" lon="1.66493">
        <ele>1090.069</ele>
        <time>2021-06-13T07:10:34Z</time>
      </trkpt>
      <trkpt lat="42.71026" lon="1.66493">
        <ele>1089.865</ele>
        <time>2021-06-13T07:10:36Z</time>
      </trkpt>
      <trkpt lat="42.71026" lon="1.66493">
        <ele>1090.238</ele>
        <time>2021-06-13T07:10:38Z</time>
      </trkpt>
      <trkpt lat="42.71026" lon="1.66493">
        <ele>1091.25</ele>
        <time>2021-06-13T07:10:40Z</time>
      </trkpt>
      <trkpt lat="42.71026" lon="1.66493">
        <ele>1090.693</ele>
        <time>2021-06-13T07:10:42Z</time>
      </trkpt>
      <trkpt lat="42.71027" lon="1.66493">
        <ele>1091.606</ele>
        <time>2021-06-13T07:10:44Z</time>
      </trkpt>
      <trkpt lat="42.71027" lon="1.66493">
        <ele>1091.615</ele>
        <time>2021-06-13T07:10:46Z</time>
      </trkpt>
      <trkpt lat="42.71027" lon="1.66493">
        <ele>1091.631</ele>
        <time>2021-06-13T07:10:48Z</time>
      </trkpt>
      <trkpt lat="42.71027" lon="1.66493">
        <ele>1092.044</ele>
        <time>2021-06-13T07:10:50Z</time>
      </trkpt>
      <trkpt lat="42.71026" lon="1.66493">
        <ele>1091.777</ele>
        <time>2021-06-13T07:10:52Z</time>
      </trkpt>
      <trkpt lat="42.71027" lon="1.66492">
        <ele>1091.959</ele>
        <time>2021-06-13T07:10:53Z</time>
      </trkpt>
      <trkpt lat="42.71027" lon="1.66492">
        <ele>1092.886</ele>
        <time>2021-06-13T07:10:59Z</time>
      </trkpt>
      <trkpt lat="42.71027" lon="1.66492">
        <ele>1092.827</ele>
        <time>2021-06-13T07:11:01Z</time>
      </trkpt>
      <trkpt lat="42.71027" lon="1.66492">
        <ele>1092.792</ele>
        <time>2021-06-13T07:11:03Z</time>
      </trkpt>
      <trkpt lat="42.71027" lon="1.66492">
        <ele>1092.798</ele>
        <time>2021-06-13T07:11:05Z</time>
      </trkpt>
      <trkpt lat="42.71027" lon="1.66492">
        <ele>1092.815</ele>
        <time>2021-06-13T07:11:07Z</time>
      </trkpt>
      <trkpt lat="42.71027" lon="1.66492">
        <ele>1092.814</ele>
        <time>2021-06-13T07:11:09Z</time>
      </trkpt>
      <trkpt lat="42.71027" lon="1.66493">
        <ele>1092.22</ele>
        <time>2021-06-13T07:11:11Z</time>
      </trkpt>
      <trkpt lat="42.71028" lon="1.66493">
        <ele>1092.545</ele>
        <time>2021-06-13T07:11:13Z</time>
      </trkpt>
      <trkpt lat="42.71027" lon="1.66493">
        <ele>1093.179</ele>
        <time>2021-06-13T07:11:15Z</time>
      </trkpt>
      <trkpt lat="42.71027" lon="1.66493">
        <ele>1093.098</ele>
        <time>2021-06-13T07:11:17Z</time>
      </trkpt>
      <trkpt lat="42.71027" lon="1.66493">
        <ele>1093.247</ele>
        <time>2021-06-13T07:11:19Z</time>
      </trkpt>
      <trkpt lat="42.71027" lon="1.66493">
        <ele>1092.847</ele>
        <time>2021-06-13T07:11:21Z</time>
      </trkpt>
      <trkpt lat="42.71028" lon="1.66494">
        <ele>1093.505</ele>
        <time>2021-06-13T07:11:23Z</time>
      </trkpt>
      <trkpt lat="42.71028" lon="1.66494">
        <ele>1093.797</ele>
        <time>2021-06-13T07:11:25Z</time>
      </trkpt>
      <trkpt lat="42.71027" lon="1.66494">
        <ele>1092.876</ele>
        <time>2021-06-13T07:11:27Z</time>
      </trkpt>
      <trkpt lat="42.71025" lon="1.66495">
        <ele>1093.022</ele>
        <time>2021-06-13T07:11:29Z</time>
      </trkpt>
      <trkpt lat="42.71025" lon="1.66497">
        <ele>1092.669</ele>
        <time>2021-06-13T07:11:31Z</time>
      </trkpt>
      <trkpt lat="42.71026" lon="1.66497">
        <ele>1092.892</ele>
        <time>2021-06-13T07:11:33Z</time>
      </trkpt>
      <trkpt lat="42.71025" lon="1.66495">
        <ele>1092.676</ele>
        <time>2021-06-13T07:11:35Z</time>
      </trkpt>
      <trkpt lat="42.71026" lon="1.66494">
        <ele>1092.524</ele>
        <time>2021-06-13T07:11:37Z</time>
      </trkpt>
      <trkpt lat="42.71028" lon="1.66494">
        <ele>1092.48</ele>
        <time>2021-06-13T07:11:39Z</time>
      </trkpt>
      <trkpt lat="42.71028" lon="1.66493">
        <ele>1091.296</ele>
        <time>2021-06-13T07:11:41Z</time>
      </trkpt>
      <trkpt lat="42.71028" lon="1.66493">
        <ele>1091.545</ele>
        <time>2021-06-13T07:11:43Z</time>
      </trkpt>
      <trkpt lat="42.71028" lon="1.66493">
        <ele>1091.518</ele>
        <time>2021-06-13T07:11:45Z</time>
      </trkpt>
      <trkpt lat="42.71028" lon="1.66493">
        <ele>1091.376</ele>
        <time>2021-06-13T07:11:47Z</time>
      </trkpt>
      <trkpt lat="42.71028" lon="1.66493">
        <ele>1091.208</ele>
        <time>2021-06-13T07:11:49Z</time>
      </trkpt>
      <trkpt lat="42.71028" lon="1.66494">
        <ele>1091.185</ele>
        <time>2021-06-13T07:11:51Z</time>
      </trkpt>
      <trkpt lat="42.71028" lon="1.66495">
        <ele>1090.502</ele>
        <time>2021-06-13T07:11:53Z</time>
      </trkpt>
      <trkpt lat="42.71028" lon="1.66495">
        <ele>1090.769</ele>
        <time>2021-06-13T07:11:55Z</time>
      </trkpt>
      <trkpt lat="42.71028" lon="1.66495">
        <ele>1090.902</ele>
        <time>2021-06-13T07:11:57Z</time>
      </trkpt>
      <trkpt lat="42.71028" lon="1.66495">
        <ele>1090.648</ele>
        <time>2021-06-13T07:11:59Z</time>
      </trkpt>
      <trkpt lat="42.71028" lon="1.66494">
        <ele>1090.676</ele>
        <time>2021-06-13T07:12:01Z</time>
      </trkpt>
      <trkpt lat="42.71028" lon="1.66494">
        <ele>1090.634</ele>
        <time>2021-06-13T07:12:03Z</time>
      </trkpt>
      <trkpt lat="42.71028" lon="1.66494">
        <ele>1090.632</ele>
        <time>2021-06-13T07:12:05Z</time>
      </trkpt>
      <trkpt lat="42.71028" lon="1.66494">
        <ele>1090.635</ele>
        <time>2021-06-13T07:12:07Z</time>
      </trkpt>
      <trkpt lat="42.71028" lon="1.66494">
        <ele>1090.292</ele>
        <time>2021-06-13T07:12:09Z</time>
      </trkpt>
      <trkpt lat="42.71029" lon="1.66494">
        <ele>1091.383</ele>
        <time>2021-06-13T07:12:11Z</time>
      </trkpt>
      <trkpt lat="42.7103" lon="1.66495">
        <ele>1091.629</ele>
        <time>2021-06-13T07:12:13Z</time>
      </trkpt>
      <trkpt lat="42.71029" lon="1.66497">
        <ele>1091.694</ele>
        <time>2021-06-13T07:12:15Z</time>
      </trkpt>
      <trkpt lat="42.71028" lon="1.66498">
        <ele>1091.17</ele>
        <time>2021-06-13T07:12:17Z</time>
      </trkpt>
      <trkpt lat="42.71028" lon="1.66498">
        <ele>1091.176</ele>
        <time>2021-06-13T07:12:19Z</time>
      </trkpt>
      <trkpt lat="42.71029" lon="1.66498">
        <ele>1091.511</ele>
        <time>2021-06-13T07:12:21Z</time>
      </trkpt>
      <trkpt lat="42.71029" lon="1.66497">
        <ele>1091.493</ele>
        <time>2021-06-13T07:12:23Z</time>
      </trkpt>
      <trkpt lat="42.71029" lon="1.66497">
        <ele>1091.446</ele>
        <time>2021-06-13T07:12:25Z</time>
      </trkpt>
      <trkpt lat="42.71029" lon="1.66497">
        <ele>1091.067</ele>
        <time>2021-06-13T07:12:27Z</time>
      </trkpt>
      <trkpt lat="42.71029" lon="1.66497">
        <ele>1091.067</ele>
        <time>2021-06-13T07:12:29Z</time>
      </trkpt>
      <trkpt lat="42.71029" lon="1.66497">
        <ele>1091.073</ele>
        <time>2021-06-13T07:12:31Z</time>
      </trkpt>
      <trkpt lat="42.71029" lon="1.66497">
        <ele>1091.087</ele>
        <time>2021-06-13T07:12:33Z</time>
      </trkpt>
      <trkpt lat="42.71029" lon="1.66497">
        <ele>1091.099</ele>
        <time>2021-06-13T07:12:35Z</time>
      </trkpt>
      <trkpt lat="42.71029" lon="1.66497">
        <ele>1091.104</ele>
        <time>2021-06-13T07:12:37Z</time>
      </trkpt>
      <trkpt lat="42.71029" lon="1.66497">
        <ele>1091.109</ele>
        <time>2021-06-13T07:12:39Z</time>
      </trkpt>
      <trkpt lat="42.71029" lon="1.66497">
        <ele>1090.77</ele>
        <time>2021-06-13T07:12:41Z</time>
      </trkpt>
      <trkpt lat="42.71029" lon="1.66497">
        <ele>1090.327</ele>
        <time>2021-06-13T07:12:43Z</time>
      </trkpt>
      <trkpt lat="42.71029" lon="1.66497">
        <ele>1090.32</ele>
        <time>2021-06-13T07:12:45Z</time>
      </trkpt>
      <trkpt lat="42.71029" lon="1.66497">
        <ele>1090.317</ele>
        <time>2021-06-13T07:12:47Z</time>
      </trkpt>
      <trkpt lat="42.71029" lon="1.66497">
        <ele>1090.32</ele>
        <time>2021-06-13T07:12:49Z</time>
      </trkpt>
      <trkpt lat="42.71029" lon="1.66497">
        <ele>1090.323</ele>
        <time>2021-06-13T07:12:51Z</time>
      </trkpt>
      <trkpt lat="42.71029" lon="1.66497">
        <ele>1090.327</ele>
        <time>2021-06-13T07:12:53Z</time>
      </trkpt>
      <trkpt lat="42.71029" lon="1.66497">
        <ele>1090.33</ele>
        <time>2021-06-13T07:12:55Z</time>
      </trkpt>
      <trkpt lat="42.71029" lon="1.66497">
        <ele>1090.33</ele>
        <time>2021-06-13T07:12:57Z</time>
      </trkpt>
      <trkpt lat="42.71029" lon="1.66497">
        <ele>1090.332</ele>
        <time>2021-06-13T07:12:59Z</time>
      </trkpt>
      <trkpt lat="42.71029" lon="1.66497">
        <ele>1090.507</ele>
        <time>2021-06-13T07:13:01Z</time>
      </trkpt>
      <trkpt lat="42.7103" lon="1.66497">
        <ele>1090.095</ele>
        <time>2021-06-13T07:13:03Z</time>
      </trkpt>
      <trkpt lat="42.7103" lon="1.66496">
        <ele>1090.271</ele>
        <time>2021-06-13T07:13:05Z</time>
      </trkpt>
      <trkpt lat="42.7103" lon="1.66496">
        <ele>1090.504</ele>
        <time>2021-06-13T07:13:07Z</time>
      </trkpt>
      <trkpt lat="42.7103" lon="1.66497">
        <ele>1090.365</ele>
        <time>2021-06-13T07:13:09Z</time>
      </trkpt>
      <trkpt lat="42.71029" lon="1.66497">
        <ele>1090.386</ele>
        <time>2021-06-13T07:13:11Z</time>
      </trkpt>
      <trkpt lat="42.71029" lon="1.66497">
        <ele>1090.389</ele>
        <time>2021-06-13T07:13:13Z</time>
      </trkpt>
      <trkpt lat="42.71029" lon="1.66497">
        <ele>1090.398</ele>
        <time>2021-06-13T07:13:15Z</time>
      </trkpt>
      <trkpt lat="42.71029" lon="1.66497">
        <ele>1090.4</ele>
        <time>2021-06-13T07:13:17Z</time>
      </trkpt>
      <trkpt lat="42.71029" lon="1.66497">
        <ele>1090.395</ele>
        <time>2021-06-13T07:13:19Z</time>
      </trkpt>
      <trkpt lat="42.71029" lon="1.66497">
        <ele>1090.415</ele>
        <time>2021-06-13T07:13:21Z</time>
      </trkpt>
      <trkpt lat="42.7103" lon="1.66496">
        <ele>1090.485</ele>
        <time>2021-06-13T07:13:23Z</time>
      </trkpt>
      <trkpt lat="42.7103" lon="1.66496">
        <ele>1090.385</ele>
        <time>2021-06-13T07:13:25Z</time>
      </trkpt>
      <trkpt lat="42.7103" lon="1.66496">
        <ele>1090.386</ele>
        <time>2021-06-13T07:13:27Z</time>
      </trkpt>
      <trkpt lat="42.7103" lon="1.66496">
        <ele>1090.377</ele>
        <time>2021-06-13T07:13:29Z</time>
      </trkpt>
      <trkpt lat="42.7103" lon="1.66496">
        <ele>1090.392</ele>
        <time>2021-06-13T07:13:32Z</time>
      </trkpt>
      <trkpt lat="42.7103" lon="1.66496">
        <ele>1090.403</ele>
        <time>2021-06-13T07:13:34Z</time>
      </trkpt>
      <trkpt lat="42.71029" lon="1.66496">
        <ele>1090.445</ele>
        <time>2021-06-13T07:13:36Z</time>
      </trkpt>
      <trkpt lat="42.71029" lon="1.66495">
        <ele>1090.367</ele>
        <time>2021-06-13T07:13:38Z</time>
      </trkpt>
      <trkpt lat="42.71029" lon="1.66495">
        <ele>1090.208</ele>
        <time>2021-06-13T07:13:39Z</time>
      </trkpt>
      <trkpt lat="42.71029" lon="1.66495">
        <ele>1090.204</ele>
        <time>2021-06-13T07:13:42Z</time>
      </trkpt>
      <trkpt lat="42.71029" lon="1.66495">
        <ele>1090.207</ele>
        <time>2021-06-13T07:13:44Z</time>
      </trkpt>
      <trkpt lat="42.71029" lon="1.66495">
        <ele>1090.204</ele>
        <time>2021-06-13T07:13:46Z</time>
      </trkpt>
      <trkpt lat="42.71029" lon="1.66495">
        <ele>1090.2</ele>
        <time>2021-06-13T07:13:48Z</time>
      </trkpt>
      <trkpt lat="42.71029" lon="1.66495">
        <ele>1090.198</ele>
        <time>2021-06-13T07:13:49Z</time>
      </trkpt>
      <trkpt lat="42.71029" lon="1.66495">
        <ele>1090.194</ele>
        <time>2021-06-13T07:13:52Z</time>
      </trkpt>
      <trkpt lat="42.71029" lon="1.66495">
        <ele>1090.194</ele>
        <time>2021-06-13T07:13:54Z</time>
      </trkpt>
      <trkpt lat="42.71029" lon="1.66495">
        <ele>1090.199</ele>
        <time>2021-06-13T07:13:56Z</time>
      </trkpt>
      <trkpt lat="42.71029" lon="1.66495">
        <ele>1090.202</ele>
        <time>2021-06-13T07:13:58Z</time>
      </trkpt>
      <trkpt lat="42.71029" lon="1.66495">
        <ele>1090.196</ele>
        <time>2021-06-13T07:14:00Z</time>
      </trkpt>
      <trkpt lat="42.71029" lon="1.66495">
        <ele>1090.196</ele>
        <time>2021-06-13T07:14:02Z</time>
      </trkpt>
      <trkpt lat="42.71029" lon="1.66495">
        <ele>1090.199</ele>
        <time>2021-06-13T07:14:04Z</time>
      </trkpt>
      <trkpt lat="42.71029" lon="1.66495">
        <ele>1090.339</ele>
        <time>2021-06-13T07:14:06Z</time>
      </trkpt>
      <trkpt lat="42.71029" lon="1.66495">
        <ele>1090.104</ele>
        <time>2021-06-13T07:14:08Z</time>
      </trkpt>
      <trkpt lat="42.71029" lon="1.66495">
        <ele>1090.221</ele>
        <time>2021-06-13T07:14:09Z</time>
      </trkpt>
      <trkpt lat="42.71029" lon="1.66495">
        <ele>1090.201</ele>
        <time>2021-06-13T07:14:12Z</time>
      </trkpt>
      <trkpt lat="42.71029" lon="1.66495">
        <ele>1090.202</ele>
        <time>2021-06-13T07:14:14Z</time>
      </trkpt>
      <trkpt lat="42.71029" lon="1.66495">
        <ele>1090.204</ele>
        <time>2021-06-13T07:14:16Z</time>
      </trkpt>
      <trkpt lat="42.71029" lon="1.66495">
        <ele>1090.686</ele>
        <time>2021-06-13T07:14:18Z</time>
      </trkpt>
      <trkpt lat="42.71029" lon="1.66494">
        <ele>1090.929</ele>
        <time>2021-06-13T07:14:19Z</time>
      </trkpt>
      <trkpt lat="42.7103" lon="1.66494">
        <ele>1091.286</ele>
        <time>2021-06-13T07:14:22Z</time>
      </trkpt>
      <trkpt lat="42.71032" lon="1.66494">
        <ele>1093.133</ele>
        <time>2021-06-13T07:14:24Z</time>
      </trkpt>
      <trkpt lat="42.71034" lon="1.66496">
        <ele>1092.989</ele>
        <time>2021-06-13T07:14:26Z</time>
      </trkpt>
      <trkpt lat="42.71036" lon="1.66497">
        <ele>1093.421</ele>
        <time>2021-06-13T07:14:28Z</time>
      </trkpt>
      <trkpt lat="42.71038" lon="1.66497">
        <ele>1093.765</ele>
        <time>2021-06-13T07:14:29Z</time>
      </trkpt>
      <trkpt lat="42.71041" lon="1.66499">
        <ele>1093.949</ele>
        <time>2021-06-13T07:14:32Z</time>
      </trkpt>
      <trkpt lat="42.71043" lon="1.66501">
        <ele>1093.032</ele>
        <time>2021-06-13T07:14:34Z</time>
      </trkpt>
      <trkpt lat="42.71045" lon="1.66502">
        <ele>1093.366</ele>
        <time>2021-06-13T07:14:36Z</time>
      </trkpt>
      <trkpt lat="42.71046" lon="1.66504">
        <ele>1092.879</ele>
        <time>2021-06-13T07:14:38Z</time>
      </trkpt>
      <trkpt lat="42.71049" lon="1.66505">
        <ele>1092.963</ele>
        <time>2021-06-13T07:14:40Z</time>
      </trkpt>
      <trkpt lat="42.71051" lon="1.66506">
        <ele>1093.891</ele>
        <time>2021-06-13T07:14:42Z</time>
      </trkpt>
      <trkpt lat="42.71054" lon="1.66508">
        <ele>1093.664</ele>
        <time>2021-06-13T07:14:44Z</time>
      </trkpt>
      <trkpt lat="42.71055" lon="1.6651">
        <ele>1093.36</ele>
        <time>2021-06-13T07:14:46Z</time>
      </trkpt>
      <trkpt lat="42.71056" lon="1.66511">
        <ele>1093.705</ele>
        <time>2021-06-13T07:14:48Z</time>
      </trkpt>
      <trkpt lat="42.71058" lon="1.66513">
        <ele>1093.879</ele>
        <time>2021-06-13T07:14:50Z</time>
      </trkpt>
      <trkpt lat="42.71061" lon="1.66515">
        <ele>1094.752</ele>
        <time>2021-06-13T07:14:52Z</time>
      </trkpt>
      <trkpt lat="42.71063" lon="1.66517">
        <ele>1094.769</ele>
        <time>2021-06-13T07:14:54Z</time>
      </trkpt>
      <trkpt lat="42.71064" lon="1.66519">
        <ele>1094.934</ele>
        <time>2021-06-13T07:14:56Z</time>
      </trkpt>
      <trkpt lat="42.71065" lon="1.66521">
        <ele>1094.712</ele>
        <time>2021-06-13T07:14:58Z</time>
      </trkpt>
      <trkpt lat="42.71066" lon="1.66522">
        <ele>1094.02</ele>
        <time>2021-06-13T07:15:00Z</time>
      </trkpt>
      <trkpt lat="42.71067" lon="1.66524">
        <ele>1093.648</ele>
        <time>2021-06-13T07:15:02Z</time>
      </trkpt>
      <trkpt lat="42.71069" lon="1.66527">
        <ele>1093.468</ele>
        <time>2021-06-13T07:15:04Z</time>
      </trkpt>
      <trkpt lat="42.71071" lon="1.66529">
        <ele>1093.62</ele>
        <time>2021-06-13T07:15:06Z</time>
      </trkpt>
      <trkpt lat="42.71072" lon="1.66531">
        <ele>1093.182</ele>
        <time>2021-06-13T07:15:08Z</time>
      </trkpt>
      <trkpt lat="42.71074" lon="1.66532">
        <ele>1092.271</ele>
        <time>2021-06-13T07:15:10Z</time>
      </trkpt>
      <trkpt lat="42.71075" lon="1.66534">
        <ele>1092.03</ele>
        <time>2021-06-13T07:15:12Z</time>
      </trkpt>
      <trkpt lat="42.71077" lon="1.66536">
        <ele>1091.468</ele>
        <time>2021-06-13T07:15:14Z</time>
      </trkpt>
      <trkpt lat="42.71078" lon="1.66539">
        <ele>1091.078</ele>
        <time>2021-06-13T07:15:16Z</time>
      </trkpt>
      <trkpt lat="42.71079" lon="1.66541">
        <ele>1090.843</ele>
        <time>2021-06-13T07:15:18Z</time>
      </trkpt>
      <trkpt lat="42.7108" lon="1.66544">
        <ele>1090.986</ele>
        <time>2021-06-13T07:15:20Z</time>
      </trkpt>
      <trkpt lat="42.71082" lon="1.66546">
        <ele>1091.95</ele>
        <time>2021-06-13T07:15:22Z</time>
      </trkpt>
      <trkpt lat="42.71084" lon="1.6655">
        <ele>1092.046</ele>
        <time>2021-06-13T07:15:26Z</time>
      </trkpt>
      <trkpt lat="42.71085" lon="1.66553">
        <ele>1092.311</ele>
        <time>2021-06-13T07:15:28Z</time>
      </trkpt>
      <trkpt lat="42.71087" lon="1.66555">
        <ele>1093.466</ele>
        <time>2021-06-13T07:15:30Z</time>
      </trkpt>
      <trkpt lat="42.71089" lon="1.66557">
        <ele>1094.035</ele>
        <time>2021-06-13T07:15:32Z</time>
      </trkpt>
      <trkpt lat="42.71091" lon="1.66559">
        <ele>1092.628</ele>
        <time>2021-06-13T07:15:34Z</time>
      </trkpt>
      <trkpt lat="42.71093" lon="1.66561">
        <ele>1091.964</ele>
        <time>2021-06-13T07:15:36Z</time>
      </trkpt>
      <trkpt lat="42.71096" lon="1.66562">
        <ele>1092.811</ele>
        <time>2021-06-13T07:15:38Z</time>
      </trkpt>
      <trkpt lat="42.71097" lon="1.66564">
        <ele>1091.722</ele>
        <time>2021-06-13T07:15:40Z</time>
      </trkpt>
      <trkpt lat="42.711" lon="1.66563">
        <ele>1092.312</ele>
        <time>2021-06-13T07:15:42Z</time>
      </trkpt>
      <trkpt lat="42.71102" lon="1.66564">
        <ele>1092.289</ele>
        <time>2021-06-13T07:15:44Z</time>
      </trkpt>
      <trkpt lat="42.71104" lon="1.66566">
        <ele>1093.677</ele>
        <time>2021-06-13T07:15:46Z</time>
      </trkpt>
      <trkpt lat="42.71106" lon="1.66567">
        <ele>1094.857</ele>
        <time>2021-06-13T07:15:48Z</time>
      </trkpt>
      <trkpt lat="42.71107" lon="1.66568">
        <ele>1095.355</ele>
        <time>2021-06-13T07:15:50Z</time>
      </trkpt>
      <trkpt lat="42.71108" lon="1.6657">
        <ele>1092.109</ele>
        <time>2021-06-13T07:15:52Z</time>
      </trkpt>
      <trkpt lat="42.7111" lon="1.66571">
        <ele>1092.615</ele>
        <time>2021-06-13T07:15:54Z</time>
      </trkpt>
      <trkpt lat="42.71112" lon="1.66571">
        <ele>1093.174</ele>
        <time>2021-06-13T07:15:56Z</time>
      </trkpt>
      <trkpt lat="42.71115" lon="1.66571">
        <ele>1094.549</ele>
        <time>2021-06-13T07:15:58Z</time>
      </trkpt>
      <trkpt lat="42.71118" lon="1.66572">
        <ele>1091.336</ele>
        <time>2021-06-13T07:16:00Z</time>
      </trkpt>
      <trkpt lat="42.7112" lon="1.66573">
        <ele>1090.239</ele>
        <time>2021-06-13T07:16:02Z</time>
      </trkpt>
      <trkpt lat="42.71122" lon="1.66574">
        <ele>1090.064</ele>
        <time>2021-06-13T07:16:04Z</time>
      </trkpt>
      <trkpt lat="42.71124" lon="1.66575">
        <ele>1089.997</ele>
        <time>2021-06-13T07:16:06Z</time>
      </trkpt>
      <trkpt lat="42.71127" lon="1.66575">
        <ele>1091.454</ele>
        <time>2021-06-13T07:16:08Z</time>
      </trkpt>
      <trkpt lat="42.71128" lon="1.66576">
        <ele>1093.128</ele>
        <time>2021-06-13T07:16:09Z</time>
      </trkpt>
      <trkpt lat="42.71131" lon="1.66575">
        <ele>1095.96</ele>
        <time>2021-06-13T07:16:12Z</time>
      </trkpt>
      <trkpt lat="42.71134" lon="1.66574">
        <ele>1095.936</ele>
        <time>2021-06-13T07:16:14Z</time>
      </trkpt>
      <trkpt lat="42.71137" lon="1.66575">
        <ele>1094.643</ele>
        <time>2021-06-13T07:16:16Z</time>
      </trkpt>
      <trkpt lat="42.7114" lon="1.66575">
        <ele>1092.557</ele>
        <time>2021-06-13T07:16:18Z</time>
      </trkpt>
      <trkpt lat="42.71142" lon="1.66575">
        <ele>1092.002</ele>
        <time>2021-06-13T07:16:19Z</time>
      </trkpt>
      <trkpt lat="42.71144" lon="1.66576">
        <ele>1088.032</ele>
        <time>2021-06-13T07:16:22Z</time>
      </trkpt>
      <trkpt lat="42.71147" lon="1.66576">
        <ele>1089.265</ele>
        <time>2021-06-13T07:16:24Z</time>
      </trkpt>
      <trkpt lat="42.71149" lon="1.66575">
        <ele>1087.084</ele>
        <time>2021-06-13T07:16:26Z</time>
      </trkpt>
      <trkpt lat="42.7115" lon="1.66573">
        <ele>1085.194</ele>
        <time>2021-06-13T07:16:28Z</time>
      </trkpt>
      <trkpt lat="42.71152" lon="1.6657">
        <ele>1083.056</ele>
        <time>2021-06-13T07:16:30Z</time>
      </trkpt>
      <trkpt lat="42.71154" lon="1.66567">
        <ele>1081.577</ele>
        <time>2021-06-13T07:16:32Z</time>
      </trkpt>
      <trkpt lat="42.71155" lon="1.66563">
        <ele>1080.518</ele>
        <time>2021-06-13T07:16:34Z</time>
      </trkpt>
      <trkpt lat="42.71155" lon="1.66561">
        <ele>1081.568</ele>
        <time>2021-06-13T07:16:36Z</time>
      </trkpt>
      <trkpt lat="42.71155" lon="1.66558">
        <ele>1081.549</ele>
        <time>2021-06-13T07:16:38Z</time>
      </trkpt>
      <trkpt lat="42.71155" lon="1.66555">
        <ele>1081.145</ele>
        <time>2021-06-13T07:16:40Z</time>
      </trkpt>
      <trkpt lat="42.71154" lon="1.66554">
        <ele>1078.056</ele>
        <time>2021-06-13T07:16:42Z</time>
      </trkpt>
      <trkpt lat="42.71153" lon="1.66552">
        <ele>1077.058</ele>
        <time>2021-06-13T07:16:44Z</time>
      </trkpt>
      <trkpt lat="42.71151" lon="1.6655">
        <ele>1076.757</ele>
        <time>2021-06-13T07:16:46Z</time>
      </trkpt>
      <trkpt lat="42.7115" lon="1.66549">
        <ele>1075.307</ele>
        <time>2021-06-13T07:16:48Z</time>
      </trkpt>
      <trkpt lat="42.71149" lon="1.66548">
        <ele>1074.49</ele>
        <time>2021-06-13T07:16:49Z</time>
      </trkpt>
      <trkpt lat="42.71145" lon="1.66547">
        <ele>1071.967</ele>
        <time>2021-06-13T07:16:52Z</time>
      </trkpt>
      <trkpt lat="42.71144" lon="1.66546">
        <ele>1071.056</ele>
        <time>2021-06-13T07:16:54Z</time>
      </trkpt>
      <trkpt lat="42.71142" lon="1.66545">
        <ele>1068.133</ele>
        <time>2021-06-13T07:16:56Z</time>
      </trkpt>
      <trkpt lat="42.7114" lon="1.66543">
        <ele>1066.619</ele>
        <time>2021-06-13T07:16:58Z</time>
      </trkpt>
      <trkpt lat="42.71139" lon="1.66543">
        <ele>1065.948</ele>
        <time>2021-06-13T07:16:59Z</time>
      </trkpt>
      <trkpt lat="42.71136" lon="1.66542">
        <ele>1064.886</ele>
        <time>2021-06-13T07:17:02Z</time>
      </trkpt>
      <trkpt lat="42.71134" lon="1.66541">
        <ele>1064.507</ele>
        <time>2021-06-13T07:17:04Z</time>
      </trkpt>
      <trkpt lat="42.71131" lon="1.6654">
        <ele>1064.417</ele>
        <time>2021-06-13T07:17:06Z</time>
      </trkpt>
      <trkpt lat="42.71129" lon="1.66538">
        <ele>1063.151</ele>
        <time>2021-06-13T07:17:08Z</time>
      </trkpt>
      <trkpt lat="42.71128" lon="1.66536">
        <ele>1062.042</ele>
        <time>2021-06-13T07:17:10Z</time>
      </trkpt>
      <trkpt lat="42.71126" lon="1.66535">
        <ele>1060.663</ele>
        <time>2021-06-13T07:17:12Z</time>
      </trkpt>
      <trkpt lat="42.71124" lon="1.66533">
        <ele>1059.663</ele>
        <time>2021-06-13T07:17:14Z</time>
      </trkpt>
      <trkpt lat="42.71122" lon="1.66531">
        <ele>1058.388</ele>
        <time>2021-06-13T07:17:16Z</time>
      </trkpt>
      <trkpt lat="42.7112" lon="1.66528">
        <ele>1057.492</ele>
        <time>2021-06-13T07:17:18Z</time>
      </trkpt>
      <trkpt lat="42.7112" lon="1.66527">
        <ele>1057.218</ele>
        <time>2021-06-13T07:17:19Z</time>
      </trkpt>
      <trkpt lat="42.71117" lon="1.66523">
        <ele>1055.114</ele>
        <time>2021-06-13T07:17:22Z</time>
      </trkpt>
      <trkpt lat="42.71116" lon="1.66519">
        <ele>1054.146</ele>
        <time>2021-06-13T07:17:24Z</time>
      </trkpt>
      <trkpt lat="42.71115" lon="1.66516">
        <ele>1055.392</ele>
        <time>2021-06-13T07:17:26Z</time>
      </trkpt>
      <trkpt lat="42.71114" lon="1.66513">
        <ele>1056.297</ele>
        <time>2021-06-13T07:17:28Z</time>
      </trkpt>
      <trkpt lat="42.71113" lon="1.66511">
        <ele>1056.512</ele>
        <time>2021-06-13T07:17:29Z</time>
      </trkpt>
      <trkpt lat="42.71112" lon="1.66507">
        <ele>1057.202</ele>
        <time>2021-06-13T07:17:32Z</time>
      </trkpt>
      <trkpt lat="42.71112" lon="1.66503">
        <ele>1057.505</ele>
        <time>2021-06-13T07:17:34Z</time>
      </trkpt>
      <trkpt lat="42.71111" lon="1.66498">
        <ele>1058.932</ele>
        <time>2021-06-13T07:17:36Z</time>
      </trkpt>
      <trkpt lat="42.71111" lon="1.66493">
        <ele>1060.991</ele>
        <time>2021-06-13T07:17:38Z</time>
      </trkpt>
      <trkpt lat="42.71111" lon="1.66488">
        <ele>1062.085</ele>
        <time>2021-06-13T07:17:40Z</time>
      </trkpt>
      <trkpt lat="42.71111" lon="1.66482">
        <ele>1063.588</ele>
        <time>2021-06-13T07:17:42Z</time>
      </trkpt>
      <trkpt lat="42.71113" lon="1.66477">
        <ele>1066.5</ele>
        <time>2021-06-13T07:17:44Z</time>
      </trkpt>
      <trkpt lat="42.71115" lon="1.66472">
        <ele>1069.136</ele>
        <time>2021-06-13T07:17:46Z</time>
      </trkpt>
      <trkpt lat="42.71116" lon="1.6647">
        <ele>1071.494</ele>
        <time>2021-06-13T07:17:48Z</time>
      </trkpt>
      <trkpt lat="42.71116" lon="1.66468">
        <ele>1072.512</ele>
        <time>2021-06-13T07:17:49Z</time>
      </trkpt>
      <trkpt lat="42.71118" lon="1.66465">
        <ele>1073.608</ele>
        <time>2021-06-13T07:17:52Z</time>
      </trkpt>
      <trkpt lat="42.71118" lon="1.66465">
        <ele>1073.319</ele>
        <time>2021-06-13T07:17:54Z</time>
      </trkpt>
      <trkpt lat="42.71118" lon="1.66465">
        <ele>1073.329</ele>
        <time>2021-06-13T07:17:56Z</time>
      </trkpt>
      <trkpt lat="42.71118" lon="1.66465">
        <ele>1073.334</ele>
        <time>2021-06-13T07:17:58Z</time>
      </trkpt>
      <trkpt lat="42.71118" lon="1.66465">
        <ele>1073.334</ele>
        <time>2021-06-13T07:17:59Z</time>
      </trkpt>
      <trkpt lat="42.71118" lon="1.66465">
        <ele>1073.337</ele>
        <time>2021-06-13T07:18:02Z</time>
      </trkpt>
      <trkpt lat="42.71118" lon="1.66465">
        <ele>1073.135</ele>
        <time>2021-06-13T07:18:04Z</time>
      </trkpt>
      <trkpt lat="42.71117" lon="1.66465">
        <ele>1073.019</ele>
        <time>2021-06-13T07:18:06Z</time>
      </trkpt>
      <trkpt lat="42.71117" lon="1.66465">
        <ele>1073.039</ele>
        <time>2021-06-13T07:18:08Z</time>
      </trkpt>
      <trkpt lat="42.71117" lon="1.66465">
        <ele>1073.047</ele>
        <time>2021-06-13T07:18:09Z</time>
      </trkpt>
      <trkpt lat="42.71117" lon="1.66465">
        <ele>1073.074</ele>
        <time>2021-06-13T07:18:12Z</time>
      </trkpt>
      <trkpt lat="42.71117" lon="1.66465">
        <ele>1073.102</ele>
        <time>2021-06-13T07:18:14Z</time>
      </trkpt>
      <trkpt lat="42.71117" lon="1.66465">
        <ele>1073.127</ele>
        <time>2021-06-13T07:18:16Z</time>
      </trkpt>
      <trkpt lat="42.71117" lon="1.66465">
        <ele>1073.149</ele>
        <time>2021-06-13T07:18:18Z</time>
      </trkpt>
      <trkpt lat="42.71117" lon="1.66465">
        <ele>1073.17</ele>
        <time>2021-06-13T07:18:20Z</time>
      </trkpt>
      <trkpt lat="42.71117" lon="1.66465">
        <ele>1073.193</ele>
        <time>2021-06-13T07:18:22Z</time>
      </trkpt>
      <trkpt lat="42.71117" lon="1.66465">
        <ele>1072.932</ele>
        <time>2021-06-13T07:18:24Z</time>
      </trkpt>
      <trkpt lat="42.71118" lon="1.66466">
        <ele>1072.722</ele>
        <time>2021-06-13T07:18:26Z</time>
      </trkpt>
      <trkpt lat="42.71119" lon="1.66467">
        <ele>1072.422</ele>
        <time>2021-06-13T07:18:28Z</time>
      </trkpt>
      <trkpt lat="42.7112" lon="1.66469">
        <ele>1072.002</ele>
        <time>2021-06-13T07:18:30Z</time>
      </trkpt>
      <trkpt lat="42.71122" lon="1.6647">
        <ele>1070.27</ele>
        <time>2021-06-13T07:18:32Z</time>
      </trkpt>
      <trkpt lat="42.71124" lon="1.6647">
        <ele>1069.18</ele>
        <time>2021-06-13T07:18:34Z</time>
      </trkpt>
      <trkpt lat="42.71126" lon="1.6647">
        <ele>1068.464</ele>
        <time>2021-06-13T07:18:36Z</time>
      </trkpt>
      <trkpt lat="42.71128" lon="1.6647">
        <ele>1068.028</ele>
        <time>2021-06-13T07:18:38Z</time>
      </trkpt>
      <trkpt lat="42.7113" lon="1.6647">
        <ele>1069.127</ele>
        <time>2021-06-13T07:18:40Z</time>
      </trkpt>
      <trkpt lat="42.71132" lon="1.6647">
        <ele>1069.819</ele>
        <time>2021-06-13T07:18:42Z</time>
      </trkpt>
      <trkpt lat="42.71134" lon="1.66471">
        <ele>1070.466</ele>
        <time>2021-06-13T07:18:44Z</time>
      </trkpt>
      <trkpt lat="42.71137" lon="1.66472">
        <ele>1070.616</ele>
        <time>2021-06-13T07:18:46Z</time>
      </trkpt>
      <trkpt lat="42.71139" lon="1.66472">
        <ele>1071.259</ele>
        <time>2021-06-13T07:18:48Z</time>
      </trkpt>
      <trkpt lat="42.7114" lon="1.66472">
        <ele>1071.142</ele>
        <time>2021-06-13T07:18:49Z</time>
      </trkpt>
      <trkpt lat="42.71144" lon="1.66474">
        <ele>1072.534</ele>
        <time>2021-06-13T07:18:52Z</time>
      </trkpt>
      <trkpt lat="42.71147" lon="1.66475">
        <ele>1072.127</ele>
        <time>2021-06-13T07:18:54Z</time>
      </trkpt>
      <trkpt lat="42.71149" lon="1.66476">
        <ele>1070.653</ele>
        <time>2021-06-13T07:18:56Z</time>
      </trkpt>
      <trkpt lat="42.71152" lon="1.66478">
        <ele>1072.038</ele>
        <time>2021-06-13T07:18:58Z</time>
      </trkpt>
      <trkpt lat="42.71155" lon="1.6648">
        <ele>1073.711</ele>
        <time>2021-06-13T07:19:00Z</time>
      </trkpt>
      <trkpt lat="42.71157" lon="1.66482">
        <ele>1072.573</ele>
        <time>2021-06-13T07:19:02Z</time>
      </trkpt>
      <trkpt lat="42.71159" lon="1.66483">
        <ele>1072.033</ele>
        <time>2021-06-13T07:19:04Z</time>
      </trkpt>
      <trkpt lat="42.71161" lon="1.66484">
        <ele>1071.429</ele>
        <time>2021-06-13T07:19:06Z</time>
      </trkpt>
      <trkpt lat="42.71163" lon="1.66485">
        <ele>1071.375</ele>
        <time>2021-06-13T07:19:08Z</time>
      </trkpt>
      <trkpt lat="42.71165" lon="1.66487">
        <ele>1070.272</ele>
        <time>2021-06-13T07:19:10Z</time>
      </trkpt>
      <trkpt lat="42.71167" lon="1.66488">
        <ele>1069.837</ele>
        <time>2021-06-13T07:19:12Z</time>
      </trkpt>
      <trkpt lat="42.7117" lon="1.66489">
        <ele>1071.031</ele>
        <time>2021-06-13T07:19:14Z</time>
      </trkpt>
      <trkpt lat="42.71172" lon="1.6649">
        <ele>1071.281</ele>
        <time>2021-06-13T07:19:16Z</time>
      </trkpt>
      <trkpt lat="42.71175" lon="1.6649">
        <ele>1070.709</ele>
        <time>2021-06-13T07:19:18Z</time>
      </trkpt>
      <trkpt lat="42.71178" lon="1.66492">
        <ele>1070.107</ele>
        <time>2021-06-13T07:19:20Z</time>
      </trkpt>
      <trkpt lat="42.7118" lon="1.66493">
        <ele>1069.668</ele>
        <time>2021-06-13T07:19:22Z</time>
      </trkpt>
      <trkpt lat="42.71182" lon="1.66494">
        <ele>1069.044</ele>
        <time>2021-06-13T07:19:24Z</time>
      </trkpt>
      <trkpt lat="42.71184" lon="1.66494">
        <ele>1071.239</ele>
        <time>2021-06-13T07:19:26Z</time>
      </trkpt>
      <trkpt lat="42.71187" lon="1.66494">
        <ele>1071.563</ele>
        <time>2021-06-13T07:19:28Z</time>
      </trkpt>
      <trkpt lat="42.71189" lon="1.66495">
        <ele>1072.583</ele>
        <time>2021-06-13T07:19:30Z</time>
      </trkpt>
      <trkpt lat="42.71191" lon="1.66495">
        <ele>1071.878</ele>
        <time>2021-06-13T07:19:32Z</time>
      </trkpt>
      <trkpt lat="42.71194" lon="1.66497">
        <ele>1072.132</ele>
        <time>2021-06-13T07:19:34Z</time>
      </trkpt>
      <trkpt lat="42.71196" lon="1.66497">
        <ele>1073.256</ele>
        <time>2021-06-13T07:19:36Z</time>
      </trkpt>
      <trkpt lat="42.71199" lon="1.66497">
        <ele>1072.611</ele>
        <time>2021-06-13T07:19:38Z</time>
      </trkpt>
      <trkpt lat="42.71201" lon="1.66497">
        <ele>1072.401</ele>
        <time>2021-06-13T07:19:40Z</time>
      </trkpt>
      <trkpt lat="42.71203" lon="1.66498">
        <ele>1072.391</ele>
        <time>2021-06-13T07:19:42Z</time>
      </trkpt>
      <trkpt lat="42.71205" lon="1.66498">
        <ele>1072.804</ele>
        <time>2021-06-13T07:19:44Z</time>
      </trkpt>
      <trkpt lat="42.71208" lon="1.66498">
        <ele>1072.624</ele>
        <time>2021-06-13T07:19:46Z</time>
      </trkpt>
      <trkpt lat="42.7121" lon="1.66499">
        <ele>1071.096</ele>
        <time>2021-06-13T07:19:48Z</time>
      </trkpt>
      <trkpt lat="42.71212" lon="1.66499">
        <ele>1070.798</ele>
        <time>2021-06-13T07:19:50Z</time>
      </trkpt>
      <trkpt lat="42.71215" lon="1.66501">
        <ele>1070.184</ele>
        <time>2021-06-13T07:19:52Z</time>
      </trkpt>
      <trkpt lat="42.71217" lon="1.66501">
        <ele>1069.205</ele>
        <time>2021-06-13T07:19:54Z</time>
      </trkpt>
      <trkpt lat="42.71219" lon="1.66502">
        <ele>1069.002</ele>
        <time>2021-06-13T07:19:56Z</time>
      </trkpt>
      <trkpt lat="42.71221" lon="1.66503">
        <ele>1068.989</ele>
        <time>2021-06-13T07:19:58Z</time>
      </trkpt>
      <trkpt lat="42.71224" lon="1.66504">
        <ele>1068.264</ele>
        <time>2021-06-13T07:20:00Z</time>
      </trkpt>
      <trkpt lat="42.71226" lon="1.66506">
        <ele>1067.475</ele>
        <time>2021-06-13T07:20:02Z</time>
      </trkpt>
      <trkpt lat="42.71228" lon="1.66507">
        <ele>1067.69</ele>
        <time>2021-06-13T07:20:04Z</time>
      </trkpt>
      <trkpt lat="42.7123" lon="1.66508">
        <ele>1066.804</ele>
        <time>2021-06-13T07:20:06Z</time>
      </trkpt>
      <trkpt lat="42.71232" lon="1.66509">
        <ele>1066.867</ele>
        <time>2021-06-13T07:20:08Z</time>
      </trkpt>
      <trkpt lat="42.71234" lon="1.66511">
        <ele>1067.028</ele>
        <time>2021-06-13T07:20:10Z</time>
      </trkpt>
      <trkpt lat="42.71236" lon="1.66512">
        <ele>1066.861</ele>
        <time>2021-06-13T07:20:12Z</time>
      </trkpt>
      <trkpt lat="42.71238" lon="1.66514">
        <ele>1066.932</ele>
        <time>2021-06-13T07:20:14Z</time>
      </trkpt>
      <trkpt lat="42.7124" lon="1.66516">
        <ele>1065.675</ele>
        <time>2021-06-13T07:20:16Z</time>
      </trkpt>
      <trkpt lat="42.71242" lon="1.66518">
        <ele>1065.468</ele>
        <time>2021-06-13T07:20:18Z</time>
      </trkpt>
      <trkpt lat="42.71244" lon="1.6652">
        <ele>1064.446</ele>
        <time>2021-06-13T07:20:20Z</time>
      </trkpt>
      <trkpt lat="42.71246" lon="1.66521">
        <ele>1063.503</ele>
        <time>2021-06-13T07:20:22Z</time>
      </trkpt>
      <trkpt lat="42.71248" lon="1.66523">
        <ele>1063.69</ele>
        <time>2021-06-13T07:20:24Z</time>
      </trkpt>
      <trkpt lat="42.71251" lon="1.66524">
        <ele>1063.353</ele>
        <time>2021-06-13T07:20:26Z</time>
      </trkpt>
      <trkpt lat="42.71253" lon="1.66526">
        <ele>1063.235</ele>
        <time>2021-06-13T07:20:28Z</time>
      </trkpt>
      <trkpt lat="42.71256" lon="1.66527">
        <ele>1062.871</ele>
        <time>2021-06-13T07:20:30Z</time>
      </trkpt>
      <trkpt lat="42.71258" lon="1.66527">
        <ele>1062.664</ele>
        <time>2021-06-13T07:20:32Z</time>
      </trkpt>
      <trkpt lat="42.71261" lon="1.66527">
        <ele>1062.236</ele>
        <time>2021-06-13T07:20:34Z</time>
      </trkpt>
      <trkpt lat="42.71263" lon="1.66527">
        <ele>1062.01</ele>
        <time>2021-06-13T07:20:36Z</time>
      </trkpt>
      <trkpt lat="42.71266" lon="1.66527">
        <ele>1061.977</ele>
        <time>2021-06-13T07:20:38Z</time>
      </trkpt>
      <trkpt lat="42.71268" lon="1.66527">
        <ele>1061.453</ele>
        <time>2021-06-13T07:20:40Z</time>
      </trkpt>
      <trkpt lat="42.7127" lon="1.66526">
        <ele>1060.551</ele>
        <time>2021-06-13T07:20:42Z</time>
      </trkpt>
      <trkpt lat="42.71273" lon="1.66525">
        <ele>1060.187</ele>
        <time>2021-06-13T07:20:44Z</time>
      </trkpt>
      <trkpt lat="42.71275" lon="1.66524">
        <ele>1059.732</ele>
        <time>2021-06-13T07:20:46Z</time>
      </trkpt>
      <trkpt lat="42.71277" lon="1.66524">
        <ele>1059.48</ele>
        <time>2021-06-13T07:20:48Z</time>
      </trkpt>
      <trkpt lat="42.7128" lon="1.66524">
        <ele>1059.412</ele>
        <time>2021-06-13T07:20:50Z</time>
      </trkpt>
      <trkpt lat="42.71282" lon="1.66523">
        <ele>1059.33</ele>
        <time>2021-06-13T07:20:52Z</time>
      </trkpt>
      <trkpt lat="42.71285" lon="1.66523">
        <ele>1059.213</ele>
        <time>2021-06-13T07:20:54Z</time>
      </trkpt>
      <trkpt lat="42.71287" lon="1.66523">
        <ele>1059.057</ele>
        <time>2021-06-13T07:20:56Z</time>
      </trkpt>
      <trkpt lat="42.7129" lon="1.66523">
        <ele>1060.878</ele>
        <time>2021-06-13T07:20:58Z</time>
      </trkpt>
      <trkpt lat="42.7129" lon="1.66523">
        <ele>1060.314</ele>
        <time>2021-06-13T07:21:00Z</time>
      </trkpt>
      <trkpt lat="42.7129" lon="1.66523">
        <ele>1060.314</ele>
        <time>2021-06-13T07:21:02Z</time>
      </trkpt>
      <trkpt lat="42.7129" lon="1.66523">
        <ele>1060.326</ele>
        <time>2021-06-13T07:21:04Z</time>
      </trkpt>
      <trkpt lat="42.7129" lon="1.66523">
        <ele>1060.334</ele>
        <time>2021-06-13T07:21:06Z</time>
      </trkpt>
      <trkpt lat="42.7129" lon="1.66523">
        <ele>1060.34</ele>
        <time>2021-06-13T07:21:08Z</time>
      </trkpt>
      <trkpt lat="42.7129" lon="1.66523">
        <ele>1060.34</ele>
        <time>2021-06-13T07:21:10Z</time>
      </trkpt>
      <trkpt lat="42.7129" lon="1.66523">
        <ele>1060.323</ele>
        <time>2021-06-13T07:21:12Z</time>
      </trkpt>
      <trkpt lat="42.71291" lon="1.66523">
        <ele>1060.293</ele>
        <time>2021-06-13T07:21:14Z</time>
      </trkpt>
      <trkpt lat="42.71292" lon="1.66523">
        <ele>1059.888</ele>
        <time>2021-06-13T07:21:16Z</time>
      </trkpt>
      <trkpt lat="42.71292" lon="1.66523">
        <ele>1059.9</ele>
        <time>2021-06-13T07:21:18Z</time>
      </trkpt>
      <trkpt lat="42.71292" lon="1.66523">
        <ele>1059.908</ele>
        <time>2021-06-13T07:21:20Z</time>
      </trkpt>
      <trkpt lat="42.71293" lon="1.66523">
        <ele>1060.156</ele>
        <time>2021-06-13T07:21:22Z</time>
      </trkpt>
      <trkpt lat="42.71294" lon="1.66523">
        <ele>1059.619</ele>
        <time>2021-06-13T07:21:24Z</time>
      </trkpt>
      <trkpt lat="42.71296" lon="1.66523">
        <ele>1059.471</ele>
        <time>2021-06-13T07:21:26Z</time>
      </trkpt>
      <trkpt lat="42.71298" lon="1.66522">
        <ele>1059.474</ele>
        <time>2021-06-13T07:21:28Z</time>
      </trkpt>
      <trkpt lat="42.713" lon="1.66523">
        <ele>1059.283</ele>
        <time>2021-06-13T07:21:30Z</time>
      </trkpt>
      <trkpt lat="42.71301" lon="1.66525">
        <ele>1058.635</ele>
        <time>2021-06-13T07:21:32Z</time>
      </trkpt>
      <trkpt lat="42.71303" lon="1.66526">
        <ele>1058.939</ele>
        <time>2021-06-13T07:21:34Z</time>
      </trkpt>
      <trkpt lat="42.71305" lon="1.66527">
        <ele>1058.785</ele>
        <time>2021-06-13T07:21:36Z</time>
      </trkpt>
      <trkpt lat="42.71307" lon="1.66529">
        <ele>1058.746</ele>
        <time>2021-06-13T07:21:38Z</time>
      </trkpt>
      <trkpt lat="42.71309" lon="1.6653">
        <ele>1058.844</ele>
        <time>2021-06-13T07:21:40Z</time>
      </trkpt>
      <trkpt lat="42.7131" lon="1.66532">
        <ele>1058.528</ele>
        <time>2021-06-13T07:21:42Z</time>
      </trkpt>
      <trkpt lat="42.71312" lon="1.66534">
        <ele>1057.847</ele>
        <time>2021-06-13T07:21:44Z</time>
      </trkpt>
      <trkpt lat="42.71313" lon="1.66535">
        <ele>1057.629</ele>
        <time>2021-06-13T07:21:46Z</time>
      </trkpt>
      <trkpt lat="42.71314" lon="1.66537">
        <ele>1057.699</ele>
        <time>2021-06-13T07:21:48Z</time>
      </trkpt>
      <trkpt lat="42.71315" lon="1.6654">
        <ele>1057.216</ele>
        <time>2021-06-13T07:21:50Z</time>
      </trkpt>
      <trkpt lat="42.71316" lon="1.66542">
        <ele>1057.048</ele>
        <time>2021-06-13T07:21:52Z</time>
      </trkpt>
      <trkpt lat="42.71317" lon="1.66545">
        <ele>1056.228</ele>
        <time>2021-06-13T07:21:54Z</time>
      </trkpt>
      <trkpt lat="42.71318" lon="1.66547">
        <ele>1055.74</ele>
        <time>2021-06-13T07:21:56Z</time>
      </trkpt>
      <trkpt lat="42.7132" lon="1.66549">
        <ele>1055.19</ele>
        <time>2021-06-13T07:21:58Z</time>
      </trkpt>
      <trkpt lat="42.71322" lon="1.66551">
        <ele>1054.329</ele>
        <time>2021-06-13T07:22:00Z</time>
      </trkpt>
      <trkpt lat="42.71324" lon="1.66553">
        <ele>1053.186</ele>
        <time>2021-06-13T07:22:02Z</time>
      </trkpt>
      <trkpt lat="42.71325" lon="1.66555">
        <ele>1051.953</ele>
        <time>2021-06-13T07:22:04Z</time>
      </trkpt>
      <trkpt lat="42.71328" lon="1.66557">
        <ele>1051.534</ele>
        <time>2021-06-13T07:22:06Z</time>
      </trkpt>
      <trkpt lat="42.71329" lon="1.66558">
        <ele>1052.122</ele>
        <time>2021-06-13T07:22:08Z</time>
      </trkpt>
      <trkpt lat="42.71329" lon="1.66558">
        <ele>1052.464</ele>
        <time>2021-06-13T07:22:10Z</time>
      </trkpt>
      <trkpt lat="42.71329" lon="1.66558">
        <ele>1052.463</ele>
        <time>2021-06-13T07:22:12Z</time>
      </trkpt>
      <trkpt lat="42.71329" lon="1.66558">
        <ele>1052.471</ele>
        <time>2021-06-13T07:22:14Z</time>
      </trkpt>
      <trkpt lat="42.71329" lon="1.66558">
        <ele>1052.476</ele>
        <time>2021-06-13T07:22:16Z</time>
      </trkpt>
      <trkpt lat="42.71329" lon="1.66558">
        <ele>1052.477</ele>
        <time>2021-06-13T07:22:18Z</time>
      </trkpt>
      <trkpt lat="42.71329" lon="1.66558">
        <ele>1052.483</ele>
        <time>2021-06-13T07:22:20Z</time>
      </trkpt>
      <trkpt lat="42.71329" lon="1.66558">
        <ele>1052.481</ele>
        <time>2021-06-13T07:22:22Z</time>
      </trkpt>
      <trkpt lat="42.71329" lon="1.66558">
        <ele>1052.358</ele>
        <time>2021-06-13T07:22:24Z</time>
      </trkpt>
      <trkpt lat="42.71329" lon="1.66558">
        <ele>1052.361</ele>
        <time>2021-06-13T07:22:26Z</time>
      </trkpt>
      <trkpt lat="42.71329" lon="1.66558">
        <ele>1052.361</ele>
        <time>2021-06-13T07:22:28Z</time>
      </trkpt>
      <trkpt lat="42.71329" lon="1.66558">
        <ele>1052.365</ele>
        <time>2021-06-13T07:22:30Z</time>
      </trkpt>
      <trkpt lat="42.71329" lon="1.66558">
        <ele>1052.37</ele>
        <time>2021-06-13T07:22:32Z</time>
      </trkpt>
      <trkpt lat="42.71329" lon="1.66558">
        <ele>1052.382</ele>
        <time>2021-06-13T07:22:34Z</time>
      </trkpt>
      <trkpt lat="42.71329" lon="1.66558">
        <ele>1052.378</ele>
        <time>2021-06-13T07:22:36Z</time>
      </trkpt>
      <trkpt lat="42.71329" lon="1.66558">
        <ele>1052.388</ele>
        <time>2021-06-13T07:22:38Z</time>
      </trkpt>
      <trkpt lat="42.7133" lon="1.66558">
        <ele>1053.075</ele>
        <time>2021-06-13T07:22:40Z</time>
      </trkpt>
      <trkpt lat="42.71332" lon="1.66558">
        <ele>1052.997</ele>
        <time>2021-06-13T07:22:42Z</time>
      </trkpt>
      <trkpt lat="42.71334" lon="1.66558">
        <ele>1051.774</ele>
        <time>2021-06-13T07:22:44Z</time>
      </trkpt>
      <trkpt lat="42.71335" lon="1.6656">
        <ele>1051.916</ele>
        <time>2021-06-13T07:22:46Z</time>
      </trkpt>
      <trkpt lat="42.71337" lon="1.66562">
        <ele>1051.003</ele>
        <time>2021-06-13T07:22:48Z</time>
      </trkpt>
      <trkpt lat="42.71339" lon="1.66563">
        <ele>1050.68</ele>
        <time>2021-06-13T07:22:50Z</time>
      </trkpt>
      <trkpt lat="42.71342" lon="1.66565">
        <ele>1051.277</ele>
        <time>2021-06-13T07:22:52Z</time>
      </trkpt>
      <trkpt lat="42.71344" lon="1.66566">
        <ele>1051.512</ele>
        <time>2021-06-13T07:22:54Z</time>
      </trkpt>
      <trkpt lat="42.71346" lon="1.66567">
        <ele>1050.813</ele>
        <time>2021-06-13T07:22:56Z</time>
      </trkpt>
      <trkpt lat="42.71348" lon="1.66568">
        <ele>1050.857</ele>
        <time>2021-06-13T07:22:58Z</time>
      </trkpt>
      <trkpt lat="42.71351" lon="1.66568">
        <ele>1051.926</ele>
        <time>2021-06-13T07:23:00Z</time>
      </trkpt>
      <trkpt lat="42.71353" lon="1.66569">
        <ele>1050.867</ele>
        <time>2021-06-13T07:23:02Z</time>
      </trkpt>
      <trkpt lat="42.71355" lon="1.6657">
        <ele>1049.784</ele>
        <time>2021-06-13T07:23:04Z</time>
      </trkpt>
      <trkpt lat="42.71357" lon="1.6657">
        <ele>1049.539</ele>
        <time>2021-06-13T07:23:06Z</time>
      </trkpt>
      <trkpt lat="42.71359" lon="1.66571">
        <ele>1048.995</ele>
        <time>2021-06-13T07:23:08Z</time>
      </trkpt>
      <trkpt lat="42.71361" lon="1.66572">
        <ele>1048.661</ele>
        <time>2021-06-13T07:23:10Z</time>
      </trkpt>
      <trkpt lat="42.71363" lon="1.66573">
        <ele>1049.677</ele>
        <time>2021-06-13T07:23:12Z</time>
      </trkpt>
      <trkpt lat="42.71365" lon="1.66574">
        <ele>1049.185</ele>
        <time>2021-06-13T07:23:14Z</time>
      </trkpt>
      <trkpt lat="42.71368" lon="1.66576">
        <ele>1048.27</ele>
        <time>2021-06-13T07:23:16Z</time>
      </trkpt>
      <trkpt lat="42.71369" lon="1.66577">
        <ele>1049.007</ele>
        <time>2021-06-13T07:23:18Z</time>
      </trkpt>
      <trkpt lat="42.71372" lon="1.66578">
        <ele>1049.202</ele>
        <time>2021-06-13T07:23:20Z</time>
      </trkpt>
      <trkpt lat="42.71374" lon="1.66579">
        <ele>1048.419</ele>
        <time>2021-06-13T07:23:22Z</time>
      </trkpt>
      <trkpt lat="42.71376" lon="1.66581">
        <ele>1048.031</ele>
        <time>2021-06-13T07:23:24Z</time>
      </trkpt>
      <trkpt lat="42.71377" lon="1.66583">
        <ele>1047.101</ele>
        <time>2021-06-13T07:23:26Z</time>
      </trkpt>
      <trkpt lat="42.71379" lon="1.66585">
        <ele>1046.961</ele>
        <time>2021-06-13T07:23:28Z</time>
      </trkpt>
      <trkpt lat="42.71381" lon="1.66586">
        <ele>1046.432</ele>
        <time>2021-06-13T07:23:30Z</time>
      </trkpt>
      <trkpt lat="42.71382" lon="1.66587">
        <ele>1043.817</ele>
        <time>2021-06-13T07:23:32Z</time>
      </trkpt>
      <trkpt lat="42.71384" lon="1.66588">
        <ele>1043.894</ele>
        <time>2021-06-13T07:23:34Z</time>
      </trkpt>
      <trkpt lat="42.71386" lon="1.66588">
        <ele>1043.781</ele>
        <time>2021-06-13T07:23:36Z</time>
      </trkpt>
      <trkpt lat="42.71388" lon="1.66588">
        <ele>1043.324</ele>
        <time>2021-06-13T07:23:38Z</time>
      </trkpt>
      <trkpt lat="42.7139" lon="1.66589">
        <ele>1041.5</ele>
        <time>2021-06-13T07:23:40Z</time>
      </trkpt>
      <trkpt lat="42.71392" lon="1.66589">
        <ele>1042.246</ele>
        <time>2021-06-13T07:23:42Z</time>
      </trkpt>
      <trkpt lat="42.71395" lon="1.66589">
        <ele>1043.611</ele>
        <time>2021-06-13T07:23:44Z</time>
      </trkpt>
      <trkpt lat="42.71397" lon="1.6659">
        <ele>1042.221</ele>
        <time>2021-06-13T07:23:46Z</time>
      </trkpt>
      <trkpt lat="42.71399" lon="1.66591">
        <ele>1041.183</ele>
        <time>2021-06-13T07:23:48Z</time>
      </trkpt>
      <trkpt lat="42.71402" lon="1.66591">
        <ele>1041.286</ele>
        <time>2021-06-13T07:23:50Z</time>
      </trkpt>
      <trkpt lat="42.71405" lon="1.66591">
        <ele>1040.952</ele>
        <time>2021-06-13T07:23:52Z</time>
      </trkpt>
      <trkpt lat="42.71408" lon="1.66591">
        <ele>1041.162</ele>
        <time>2021-06-13T07:23:54Z</time>
      </trkpt>
      <trkpt lat="42.7141" lon="1.66591">
        <ele>1040.287</ele>
        <time>2021-06-13T07:23:56Z</time>
      </trkpt>
      <trkpt lat="42.71412" lon="1.66591">
        <ele>1039.295</ele>
        <time>2021-06-13T07:23:58Z</time>
      </trkpt>
      <trkpt lat="42.71414" lon="1.66591">
        <ele>1038.288</ele>
        <time>2021-06-13T07:24:00Z</time>
      </trkpt>
      <trkpt lat="42.71415" lon="1.66591">
        <ele>1038.705</ele>
        <time>2021-06-13T07:24:02Z</time>
      </trkpt>
      <trkpt lat="42.71417" lon="1.66591">
        <ele>1040.316</ele>
        <time>2021-06-13T07:24:04Z</time>
      </trkpt>
      <trkpt lat="42.71419" lon="1.66592">
        <ele>1041.437</ele>
        <time>2021-06-13T07:24:06Z</time>
      </trkpt>
      <trkpt lat="42.71421" lon="1.66592">
        <ele>1041.691</ele>
        <time>2021-06-13T07:24:08Z</time>
      </trkpt>
      <trkpt lat="42.71422" lon="1.66591">
        <ele>1042.706</ele>
        <time>2021-06-13T07:24:10Z</time>
      </trkpt>
      <trkpt lat="42.71424" lon="1.66591">
        <ele>1042.211</ele>
        <time>2021-06-13T07:24:12Z</time>
      </trkpt>
      <trkpt lat="42.71419" lon="1.6659">
        <ele>1040.572</ele>
        <time>2021-06-13T07:24:14Z</time>
      </trkpt>
      <trkpt lat="42.71422" lon="1.66584">
        <ele>1041.845</ele>
        <time>2021-06-13T07:24:16Z</time>
      </trkpt>
      <trkpt lat="42.71425" lon="1.66583">
        <ele>1042.623</ele>
        <time>2021-06-13T07:24:18Z</time>
      </trkpt>
      <trkpt lat="42.71426" lon="1.66582">
        <ele>1040.637</ele>
        <time>2021-06-13T07:24:20Z</time>
      </trkpt>
      <trkpt lat="42.71428" lon="1.6658">
        <ele>1041.46</ele>
        <time>2021-06-13T07:24:22Z</time>
      </trkpt>
      <trkpt lat="42.7143" lon="1.66578">
        <ele>1039.81</ele>
        <time>2021-06-13T07:24:24Z</time>
      </trkpt>
      <trkpt lat="42.71432" lon="1.66577">
        <ele>1040.787</ele>
        <time>2021-06-13T07:24:26Z</time>
      </trkpt>
      <trkpt lat="42.71434" lon="1.66575">
        <ele>1041.411</ele>
        <time>2021-06-13T07:24:28Z</time>
      </trkpt>
      <trkpt lat="42.71436" lon="1.66574">
        <ele>1038.597</ele>
        <time>2021-06-13T07:24:30Z</time>
      </trkpt>
      <trkpt lat="42.71438" lon="1.66572">
        <ele>1038.287</ele>
        <time>2021-06-13T07:24:32Z</time>
      </trkpt>
      <trkpt lat="42.7144" lon="1.6657">
        <ele>1036.441</ele>
        <time>2021-06-13T07:24:34Z</time>
      </trkpt>
      <trkpt lat="42.71442" lon="1.66569">
        <ele>1035.17</ele>
        <time>2021-06-13T07:24:36Z</time>
      </trkpt>
      <trkpt lat="42.71444" lon="1.66567">
        <ele>1034.538</ele>
        <time>2021-06-13T07:24:38Z</time>
      </trkpt>
      <trkpt lat="42.71447" lon="1.66564">
        <ele>1034.933</ele>
        <time>2021-06-13T07:24:40Z</time>
      </trkpt>
      <trkpt lat="42.71449" lon="1.66562">
        <ele>1035.21</ele>
        <time>2021-06-13T07:24:42Z</time>
      </trkpt>
      <trkpt lat="42.71451" lon="1.66559">
        <ele>1036.561</ele>
        <time>2021-06-13T07:24:44Z</time>
      </trkpt>
      <trkpt lat="42.71453" lon="1.66557">
        <ele>1036.863</ele>
        <time>2021-06-13T07:24:46Z</time>
      </trkpt>
      <trkpt lat="42.71453" lon="1.66554">
        <ele>1036.424</ele>
        <time>2021-06-13T07:24:48Z</time>
      </trkpt>
      <trkpt lat="42.71454" lon="1.6655">
        <ele>1036.439</ele>
        <time>2021-06-13T07:24:50Z</time>
      </trkpt>
      <trkpt lat="42.71454" lon="1.66547">
        <ele>1037.206</ele>
        <time>2021-06-13T07:24:52Z</time>
      </trkpt>
      <trkpt lat="42.71453" lon="1.66544">
        <ele>1036.408</ele>
        <time>2021-06-13T07:24:54Z</time>
      </trkpt>
      <trkpt lat="42.71452" lon="1.66542">
        <ele>1037.587</ele>
        <time>2021-06-13T07:24:56Z</time>
      </trkpt>
      <trkpt lat="42.7145" lon="1.6654">
        <ele>1036.711</ele>
        <time>2021-06-13T07:24:58Z</time>
      </trkpt>
      <trkpt lat="42.7145" lon="1.66539">
        <ele>1037.056</ele>
        <time>2021-06-13T07:24:59Z</time>
      </trkpt>
      <trkpt lat="42.71447" lon="1.66535">
        <ele>1036.904</ele>
        <time>2021-06-13T07:25:02Z</time>
      </trkpt>
      <trkpt lat="42.71446" lon="1.66534">
        <ele>1037.103</ele>
        <time>2021-06-13T07:25:03Z</time>
      </trkpt>
      <trkpt lat="42.71442" lon="1.66525">
        <ele>1041.269</ele>
        <time>2021-06-13T07:25:09Z</time>
      </trkpt>
      <trkpt lat="42.71441" lon="1.66522">
        <ele>1041.088</ele>
        <time>2021-06-13T07:25:11Z</time>
      </trkpt>
      <trkpt lat="42.7144" lon="1.6652">
        <ele>1041.958</ele>
        <time>2021-06-13T07:25:13Z</time>
      </trkpt>
      <trkpt lat="42.71438" lon="1.66519">
        <ele>1041.761</ele>
        <time>2021-06-13T07:25:15Z</time>
      </trkpt>
      <trkpt lat="42.71437" lon="1.66517">
        <ele>1042.684</ele>
        <time>2021-06-13T07:25:17Z</time>
      </trkpt>
      <trkpt lat="42.71435" lon="1.66513">
        <ele>1044.377</ele>
        <time>2021-06-13T07:25:20Z</time>
      </trkpt>
      <trkpt lat="42.71433" lon="1.66513">
        <ele>1043.122</ele>
        <time>2021-06-13T07:25:22Z</time>
      </trkpt>
      <trkpt lat="42.71432" lon="1.66512">
        <ele>1042.605</ele>
        <time>2021-06-13T07:25:24Z</time>
      </trkpt>
      <trkpt lat="42.7143" lon="1.6651">
        <ele>1042.748</ele>
        <time>2021-06-13T07:25:26Z</time>
      </trkpt>
      <trkpt lat="42.71428" lon="1.66507">
        <ele>1043.137</ele>
        <time>2021-06-13T07:25:28Z</time>
      </trkpt>
      <trkpt lat="42.71428" lon="1.66506">
        <ele>1043.244</ele>
        <time>2021-06-13T07:25:29Z</time>
      </trkpt>
      <trkpt lat="42.71425" lon="1.66504">
        <ele>1041.93</ele>
        <time>2021-06-13T07:25:32Z</time>
      </trkpt>
      <trkpt lat="42.71425" lon="1.66501">
        <ele>1042.437</ele>
        <time>2021-06-13T07:25:34Z</time>
      </trkpt>
      <trkpt lat="42.71424" lon="1.66499">
        <ele>1042.806</ele>
        <time>2021-06-13T07:25:36Z</time>
      </trkpt>
      <trkpt lat="42.71423" lon="1.66496">
        <ele>1042.77</ele>
        <time>2021-06-13T07:25:38Z</time>
      </trkpt>
      <trkpt lat="42.71423" lon="1.66493">
        <ele>1043.846</ele>
        <time>2021-06-13T07:25:40Z</time>
      </trkpt>
      <trkpt lat="42.71424" lon="1.6649">
        <ele>1043.297</ele>
        <time>2021-06-13T07:25:42Z</time>
      </trkpt>
      <trkpt lat="42.71424" lon="1.66487">
        <ele>1043.228</ele>
        <time>2021-06-13T07:25:44Z</time>
      </trkpt>
      <trkpt lat="42.71424" lon="1.66485">
        <ele>1043.413</ele>
        <time>2021-06-13T07:25:46Z</time>
      </trkpt>
      <trkpt lat="42.71423" lon="1.66481">
        <ele>1044.52</ele>
        <time>2021-06-13T07:25:48Z</time>
      </trkpt>
      <trkpt lat="42.71423" lon="1.66478">
        <ele>1045.483</ele>
        <time>2021-06-13T07:25:50Z</time>
      </trkpt>
      <trkpt lat="42.71422" lon="1.66475">
        <ele>1045.325</ele>
        <time>2021-06-13T07:25:52Z</time>
      </trkpt>
      <trkpt lat="42.71423" lon="1.66472">
        <ele>1044.787</ele>
        <time>2021-06-13T07:25:54Z</time>
      </trkpt>
      <trkpt lat="42.71422" lon="1.66469">
        <ele>1044.546</ele>
        <time>2021-06-13T07:25:56Z</time>
      </trkpt>
      <trkpt lat="42.71422" lon="1.66467">
        <ele>1045.467</ele>
        <time>2021-06-13T07:25:58Z</time>
      </trkpt>
      <trkpt lat="42.71422" lon="1.66464">
        <ele>1046.127</ele>
        <time>2021-06-13T07:26:00Z</time>
      </trkpt>
      <trkpt lat="42.71421" lon="1.66462">
        <ele>1044.866</ele>
        <time>2021-06-13T07:26:02Z</time>
      </trkpt>
      <trkpt lat="42.71421" lon="1.66459">
        <ele>1044.318</ele>
        <time>2021-06-13T07:26:04Z</time>
      </trkpt>
      <trkpt lat="42.71421" lon="1.66457">
        <ele>1045.782</ele>
        <time>2021-06-13T07:26:06Z</time>
      </trkpt>
      <trkpt lat="42.71421" lon="1.66454">
        <ele>1046.968</ele>
        <time>2021-06-13T07:26:08Z</time>
      </trkpt>
      <trkpt lat="42.7142" lon="1.66451">
        <ele>1049.295</ele>
        <time>2021-06-13T07:26:10Z</time>
      </trkpt>
      <trkpt lat="42.7142" lon="1.66448">
        <ele>1051.046</ele>
        <time>2021-06-13T07:26:12Z</time>
      </trkpt>
      <trkpt lat="42.7142" lon="1.66445">
        <ele>1049.956</ele>
        <time>2021-06-13T07:26:14Z</time>
      </trkpt>
      <trkpt lat="42.71421" lon="1.66442">
        <ele>1052.718</ele>
        <time>2021-06-13T07:26:16Z</time>
      </trkpt>
      <trkpt lat="42.71421" lon="1.66439">
        <ele>1052.494</ele>
        <time>2021-06-13T07:26:18Z</time>
      </trkpt>
      <trkpt lat="42.71421" lon="1.66436">
        <ele>1052.287</ele>
        <time>2021-06-13T07:26:20Z</time>
      </trkpt>
      <trkpt lat="42.71421" lon="1.66434">
        <ele>1053.996</ele>
        <time>2021-06-13T07:26:22Z</time>
      </trkpt>
      <trkpt lat="42.71422" lon="1.66431">
        <ele>1054.203</ele>
        <time>2021-06-13T07:26:24Z</time>
      </trkpt>
      <trkpt lat="42.71422" lon="1.66429">
        <ele>1054.993</ele>
        <time>2021-06-13T07:26:26Z</time>
      </trkpt>
      <trkpt lat="42.71422" lon="1.66426">
        <ele>1055.372</ele>
        <time>2021-06-13T07:26:28Z</time>
      </trkpt>
      <trkpt lat="42.71422" lon="1.66423">
        <ele>1056.572</ele>
        <time>2021-06-13T07:26:30Z</time>
      </trkpt>
      <trkpt lat="42.71422" lon="1.6642">
        <ele>1056.184</ele>
        <time>2021-06-13T07:26:32Z</time>
      </trkpt>
      <trkpt lat="42.71421" lon="1.66418">
        <ele>1054.473</ele>
        <time>2021-06-13T07:26:34Z</time>
      </trkpt>
      <trkpt lat="42.7142" lon="1.66417">
        <ele>1054.467</ele>
        <time>2021-06-13T07:26:36Z</time>
      </trkpt>
      <trkpt lat="42.71418" lon="1.66415">
        <ele>1054.191</ele>
        <time>2021-06-13T07:26:38Z</time>
      </trkpt>
      <trkpt lat="42.71416" lon="1.66415">
        <ele>1053.594</ele>
        <time>2021-06-13T07:26:40Z</time>
      </trkpt>
      <trkpt lat="42.71414" lon="1.66413">
        <ele>1052.643</ele>
        <time>2021-06-13T07:26:42Z</time>
      </trkpt>
      <trkpt lat="42.71412" lon="1.66413">
        <ele>1053.41</ele>
        <time>2021-06-13T07:26:44Z</time>
      </trkpt>
      <trkpt lat="42.7141" lon="1.66413">
        <ele>1055.872</ele>
        <time>2021-06-13T07:26:46Z</time>
      </trkpt>
      <trkpt lat="42.71408" lon="1.66412">
        <ele>1054.94</ele>
        <time>2021-06-13T07:26:48Z</time>
      </trkpt>
      <trkpt lat="42.71407" lon="1.66412">
        <ele>1054.658</ele>
        <time>2021-06-13T07:26:49Z</time>
      </trkpt>
      <trkpt lat="42.71403" lon="1.66411">
        <ele>1054.177</ele>
        <time>2021-06-13T07:26:52Z</time>
      </trkpt>
      <trkpt lat="42.71401" lon="1.66411">
        <ele>1054.666</ele>
        <time>2021-06-13T07:26:54Z</time>
      </trkpt>
      <trkpt lat="42.714" lon="1.6641">
        <ele>1053.371</ele>
        <time>2021-06-13T07:26:56Z</time>
      </trkpt>
      <trkpt lat="42.71398" lon="1.6641">
        <ele>1054.462</ele>
        <time>2021-06-13T07:26:58Z</time>
      </trkpt>
      <trkpt lat="42.71397" lon="1.6641">
        <ele>1053.192</ele>
        <time>2021-06-13T07:26:59Z</time>
      </trkpt>
      <trkpt lat="42.71395" lon="1.66409">
        <ele>1053.549</ele>
        <time>2021-06-13T07:27:02Z</time>
      </trkpt>
      <trkpt lat="42.71394" lon="1.66408">
        <ele>1054.77</ele>
        <time>2021-06-13T07:27:04Z</time>
      </trkpt>
      <trkpt lat="42.71392" lon="1.66408">
        <ele>1056.518</ele>
        <time>2021-06-13T07:27:06Z</time>
      </trkpt>
      <trkpt lat="42.7139" lon="1.66407">
        <ele>1055.337</ele>
        <time>2021-06-13T07:27:08Z</time>
      </trkpt>
      <trkpt lat="42.71388" lon="1.66405">
        <ele>1055.091</ele>
        <time>2021-06-13T07:27:10Z</time>
      </trkpt>
      <trkpt lat="42.71386" lon="1.66404">
        <ele>1056.629</ele>
        <time>2021-06-13T07:27:12Z</time>
      </trkpt>
      <trkpt lat="42.71385" lon="1.66402">
        <ele>1056.05</ele>
        <time>2021-06-13T07:27:14Z</time>
      </trkpt>
      <trkpt lat="42.71383" lon="1.66401">
        <ele>1056.708</ele>
        <time>2021-06-13T07:27:16Z</time>
      </trkpt>
      <trkpt lat="42.71381" lon="1.66399">
        <ele>1055.963</ele>
        <time>2021-06-13T07:27:18Z</time>
      </trkpt>
      <trkpt lat="42.71379" lon="1.66397">
        <ele>1056.672</ele>
        <time>2021-06-13T07:27:20Z</time>
      </trkpt>
      <trkpt lat="42.71377" lon="1.66396">
        <ele>1058.761</ele>
        <time>2021-06-13T07:27:22Z</time>
      </trkpt>
      <trkpt lat="42.71376" lon="1.66394">
        <ele>1059.719</ele>
        <time>2021-06-13T07:27:24Z</time>
      </trkpt>
      <trkpt lat="42.71374" lon="1.66394">
        <ele>1060.023</ele>
        <time>2021-06-13T07:27:26Z</time>
      </trkpt>
      <trkpt lat="42.71372" lon="1.66393">
        <ele>1061.392</ele>
        <time>2021-06-13T07:27:28Z</time>
      </trkpt>
      <trkpt lat="42.7137" lon="1.66392">
        <ele>1062.892</ele>
        <time>2021-06-13T07:27:30Z</time>
      </trkpt>
      <trkpt lat="42.71369" lon="1.6639">
        <ele>1063.247</ele>
        <time>2021-06-13T07:27:32Z</time>
      </trkpt>
      <trkpt lat="42.71367" lon="1.66388">
        <ele>1062.774</ele>
        <time>2021-06-13T07:27:34Z</time>
      </trkpt>
      <trkpt lat="42.71365" lon="1.66388">
        <ele>1062.021</ele>
        <time>2021-06-13T07:27:36Z</time>
      </trkpt>
      <trkpt lat="42.71363" lon="1.66388">
        <ele>1063.055</ele>
        <time>2021-06-13T07:27:38Z</time>
      </trkpt>
      <trkpt lat="42.71361" lon="1.66387">
        <ele>1062.337</ele>
        <time>2021-06-13T07:27:40Z</time>
      </trkpt>
      <trkpt lat="42.7136" lon="1.66386">
        <ele>1062.804</ele>
        <time>2021-06-13T07:27:42Z</time>
      </trkpt>
      <trkpt lat="42.71358" lon="1.66384">
        <ele>1063.46</ele>
        <time>2021-06-13T07:27:44Z</time>
      </trkpt>
      <trkpt lat="42.71357" lon="1.66382">
        <ele>1064.212</ele>
        <time>2021-06-13T07:27:46Z</time>
      </trkpt>
      <trkpt lat="42.71356" lon="1.6638">
        <ele>1064.088</ele>
        <time>2021-06-13T07:27:48Z</time>
      </trkpt>
      <trkpt lat="42.71354" lon="1.66379">
        <ele>1065.552</ele>
        <time>2021-06-13T07:27:50Z</time>
      </trkpt>
      <trkpt lat="42.71352" lon="1.66378">
        <ele>1065.626</ele>
        <time>2021-06-13T07:27:52Z</time>
      </trkpt>
      <trkpt lat="42.7135" lon="1.66378">
        <ele>1065.527</ele>
        <time>2021-06-13T07:27:54Z</time>
      </trkpt>
      <trkpt lat="42.71348" lon="1.66377">
        <ele>1066.173</ele>
        <time>2021-06-13T07:27:56Z</time>
      </trkpt>
      <trkpt lat="42.71347" lon="1.66375">
        <ele>1068.917</ele>
        <time>2021-06-13T07:27:58Z</time>
      </trkpt>
      <trkpt lat="42.71346" lon="1.66373">
        <ele>1068.217</ele>
        <time>2021-06-13T07:28:00Z</time>
      </trkpt>
      <trkpt lat="42.71345" lon="1.66371">
        <ele>1068.685</ele>
        <time>2021-06-13T07:28:02Z</time>
      </trkpt>
      <trkpt lat="42.71344" lon="1.66371">
        <ele>1068.624</ele>
        <time>2021-06-13T07:28:04Z</time>
      </trkpt>
      <trkpt lat="42.71343" lon="1.6637">
        <ele>1069.375</ele>
        <time>2021-06-13T07:28:06Z</time>
      </trkpt>
      <trkpt lat="42.71341" lon="1.66369">
        <ele>1069.415</ele>
        <time>2021-06-13T07:28:08Z</time>
      </trkpt>
      <trkpt lat="42.7134" lon="1.66369">
        <ele>1070.648</ele>
        <time>2021-06-13T07:28:10Z</time>
      </trkpt>
      <trkpt lat="42.71339" lon="1.6637">
        <ele>1071.019</ele>
        <time>2021-06-13T07:28:12Z</time>
      </trkpt>
      <trkpt lat="42.71338" lon="1.6637">
        <ele>1070.342</ele>
        <time>2021-06-13T07:28:14Z</time>
      </trkpt>
      <trkpt lat="42.71337" lon="1.66369">
        <ele>1069.504</ele>
        <time>2021-06-13T07:28:16Z</time>
      </trkpt>
      <trkpt lat="42.71336" lon="1.66369">
        <ele>1068.55</ele>
        <time>2021-06-13T07:28:18Z</time>
      </trkpt>
      <trkpt lat="42.71335" lon="1.66369">
        <ele>1068.761</ele>
        <time>2021-06-13T07:28:19Z</time>
      </trkpt>
      <trkpt lat="42.71333" lon="1.6637">
        <ele>1070.337</ele>
        <time>2021-06-13T07:28:22Z</time>
      </trkpt>
      <trkpt lat="42.71331" lon="1.6637">
        <ele>1069.301</ele>
        <time>2021-06-13T07:28:24Z</time>
      </trkpt>
      <trkpt lat="42.7133" lon="1.6637">
        <ele>1070.38</ele>
        <time>2021-06-13T07:28:26Z</time>
      </trkpt>
      <trkpt lat="42.7133" lon="1.6637">
        <ele>1070.805</ele>
        <time>2021-06-13T07:28:28Z</time>
      </trkpt>
      <trkpt lat="42.7133" lon="1.6637">
        <ele>1073.379</ele>
        <time>2021-06-13T07:28:30Z</time>
      </trkpt>
      <trkpt lat="42.71328" lon="1.66369">
        <ele>1072.968</ele>
        <time>2021-06-13T07:28:32Z</time>
      </trkpt>
      <trkpt lat="42.71327" lon="1.66369">
        <ele>1073.474</ele>
        <time>2021-06-13T07:28:34Z</time>
      </trkpt>
      <trkpt lat="42.71326" lon="1.66369">
        <ele>1074.024</ele>
        <time>2021-06-13T07:28:36Z</time>
      </trkpt>
      <trkpt lat="42.71326" lon="1.66372">
        <ele>1075.709</ele>
        <time>2021-06-13T07:28:38Z</time>
      </trkpt>
      <trkpt lat="42.71326" lon="1.66373">
        <ele>1079.538</ele>
        <time>2021-06-13T07:28:40Z</time>
      </trkpt>
      <trkpt lat="42.71326" lon="1.66374">
        <ele>1082.006</ele>
        <time>2021-06-13T07:28:42Z</time>
      </trkpt>
      <trkpt lat="42.71326" lon="1.66375">
        <ele>1084.638</ele>
        <time>2021-06-13T07:28:44Z</time>
      </trkpt>
      <trkpt lat="42.71325" lon="1.66377">
        <ele>1086.075</ele>
        <time>2021-06-13T07:28:46Z</time>
      </trkpt>
      <trkpt lat="42.71323" lon="1.66378">
        <ele>1087.021</ele>
        <time>2021-06-13T07:28:48Z</time>
      </trkpt>
      <trkpt lat="42.71323" lon="1.66378">
        <ele>1087.85</ele>
        <time>2021-06-13T07:28:50Z</time>
      </trkpt>
      <trkpt lat="42.71322" lon="1.66377">
        <ele>1088.721</ele>
        <time>2021-06-13T07:28:52Z</time>
      </trkpt>
      <trkpt lat="42.71321" lon="1.66379">
        <ele>1090.232</ele>
        <time>2021-06-13T07:28:54Z</time>
      </trkpt>
      <trkpt lat="42.7132" lon="1.6638">
        <ele>1092.712</ele>
        <time>2021-06-13T07:28:56Z</time>
      </trkpt>
      <trkpt lat="42.71319" lon="1.66381">
        <ele>1092.474</ele>
        <time>2021-06-13T07:28:58Z</time>
      </trkpt>
      <trkpt lat="42.71318" lon="1.66382">
        <ele>1092.487</ele>
        <time>2021-06-13T07:28:59Z</time>
      </trkpt>
      <trkpt lat="42.71317" lon="1.66384">
        <ele>1094.753</ele>
        <time>2021-06-13T07:29:02Z</time>
      </trkpt>
      <trkpt lat="42.71315" lon="1.66385">
        <ele>1095.308</ele>
        <time>2021-06-13T07:29:04Z</time>
      </trkpt>
      <trkpt lat="42.71314" lon="1.66385">
        <ele>1097.063</ele>
        <time>2021-06-13T07:29:06Z</time>
      </trkpt>
      <trkpt lat="42.71313" lon="1.66386">
        <ele>1098.756</ele>
        <time>2021-06-13T07:29:08Z</time>
      </trkpt>
      <trkpt lat="42.71313" lon="1.66387">
        <ele>1099.431</ele>
        <time>2021-06-13T07:29:09Z</time>
      </trkpt>
      <trkpt lat="42.7131" lon="1.66386">
        <ele>1096.613</ele>
        <time>2021-06-13T07:29:12Z</time>
      </trkpt>
      <trkpt lat="42.71308" lon="1.66387">
        <ele>1096.274</ele>
        <time>2021-06-13T07:29:14Z</time>
      </trkpt>
      <trkpt lat="42.71306" lon="1.66387">
        <ele>1096.398</ele>
        <time>2021-06-13T07:29:16Z</time>
      </trkpt>
      <trkpt lat="42.71305" lon="1.66388">
        <ele>1100.299</ele>
        <time>2021-06-13T07:29:18Z</time>
      </trkpt>
      <trkpt lat="42.71305" lon="1.66389">
        <ele>1099.875</ele>
        <time>2021-06-13T07:29:19Z</time>
      </trkpt>
      <trkpt lat="42.71302" lon="1.6639">
        <ele>1100.183</ele>
        <time>2021-06-13T07:29:22Z</time>
      </trkpt>
      <trkpt lat="42.713" lon="1.66391">
        <ele>1100.115</ele>
        <time>2021-06-13T07:29:24Z</time>
      </trkpt>
      <trkpt lat="42.71299" lon="1.66391">
        <ele>1099.692</ele>
        <time>2021-06-13T07:29:26Z</time>
      </trkpt>
      <trkpt lat="42.71298" lon="1.6639">
        <ele>1100.792</ele>
        <time>2021-06-13T07:29:28Z</time>
      </trkpt>
      <trkpt lat="42.71298" lon="1.6639">
        <ele>1100.568</ele>
        <time>2021-06-13T07:29:29Z</time>
      </trkpt>
      <trkpt lat="42.71295" lon="1.6639">
        <ele>1099.987</ele>
        <time>2021-06-13T07:29:32Z</time>
      </trkpt>
      <trkpt lat="42.71293" lon="1.66391">
        <ele>1102.059</ele>
        <time>2021-06-13T07:29:34Z</time>
      </trkpt>
      <trkpt lat="42.71292" lon="1.66391">
        <ele>1103.107</ele>
        <time>2021-06-13T07:29:36Z</time>
      </trkpt>
      <trkpt lat="42.7129" lon="1.66391">
        <ele>1101.465</ele>
        <time>2021-06-13T07:29:38Z</time>
      </trkpt>
      <trkpt lat="42.7129" lon="1.66391">
        <ele>1101.727</ele>
        <time>2021-06-13T07:29:39Z</time>
      </trkpt>
      <trkpt lat="42.71291" lon="1.66388">
        <ele>1102.011</ele>
        <time>2021-06-13T07:29:42Z</time>
      </trkpt>
      <trkpt lat="42.71292" lon="1.66386">
        <ele>1101.359</ele>
        <time>2021-06-13T07:29:44Z</time>
      </trkpt>
      <trkpt lat="42.71292" lon="1.66384">
        <ele>1101.927</ele>
        <time>2021-06-13T07:29:46Z</time>
      </trkpt>
      <trkpt lat="42.71291" lon="1.66383">
        <ele>1100.521</ele>
        <time>2021-06-13T07:29:48Z</time>
      </trkpt>
      <trkpt lat="42.7129" lon="1.66382">
        <ele>1098.329</ele>
        <time>2021-06-13T07:29:50Z</time>
      </trkpt>
      <trkpt lat="42.71289" lon="1.6638">
        <ele>1097.581</ele>
        <time>2021-06-13T07:29:52Z</time>
      </trkpt>
      <trkpt lat="42.71289" lon="1.66379">
        <ele>1096.428</ele>
        <time>2021-06-13T07:29:54Z</time>
      </trkpt>
      <trkpt lat="42.71289" lon="1.66378">
        <ele>1096.256</ele>
        <time>2021-06-13T07:29:56Z</time>
      </trkpt>
      <trkpt lat="42.71288" lon="1.66377">
        <ele>1094.978</ele>
        <time>2021-06-13T07:29:58Z</time>
      </trkpt>
      <trkpt lat="42.71286" lon="1.66376">
        <ele>1094.91</ele>
        <time>2021-06-13T07:30:00Z</time>
      </trkpt>
      <trkpt lat="42.71285" lon="1.66376">
        <ele>1095.236</ele>
        <time>2021-06-13T07:30:02Z</time>
      </trkpt>
      <trkpt lat="42.71284" lon="1.66375">
        <ele>1096.447</ele>
        <time>2021-06-13T07:30:04Z</time>
      </trkpt>
      <trkpt lat="42.71283" lon="1.66375">
        <ele>1096.63</ele>
        <time>2021-06-13T07:30:06Z</time>
      </trkpt>
      <trkpt lat="42.71281" lon="1.66374">
        <ele>1094.906</ele>
        <time>2021-06-13T07:30:08Z</time>
      </trkpt>
      <trkpt lat="42.71281" lon="1.66374">
        <ele>1094.56</ele>
        <time>2021-06-13T07:30:09Z</time>
      </trkpt>
      <trkpt lat="42.71281" lon="1.66373">
        <ele>1094.822</ele>
        <time>2021-06-13T07:30:12Z</time>
      </trkpt>
      <trkpt lat="42.71282" lon="1.66372">
        <ele>1095.078</ele>
        <time>2021-06-13T07:30:14Z</time>
      </trkpt>
      <trkpt lat="42.71283" lon="1.6637">
        <ele>1096.252</ele>
        <time>2021-06-13T07:30:16Z</time>
      </trkpt>
      <trkpt lat="42.71285" lon="1.6637">
        <ele>1096.422</ele>
        <time>2021-06-13T07:30:18Z</time>
      </trkpt>
      <trkpt lat="42.71286" lon="1.6637">
        <ele>1096.367</ele>
        <time>2021-06-13T07:30:19Z</time>
      </trkpt>
      <trkpt lat="42.71287" lon="1.66368">
        <ele>1097.491</ele>
        <time>2021-06-13T07:30:22Z</time>
      </trkpt>
      <trkpt lat="42.71287" lon="1.66365">
        <ele>1095.442</ele>
        <time>2021-06-13T07:30:24Z</time>
      </trkpt>
      <trkpt lat="42.71287" lon="1.66364">
        <ele>1093.627</ele>
        <time>2021-06-13T07:30:26Z</time>
      </trkpt>
      <trkpt lat="42.71288" lon="1.66362">
        <ele>1093.299</ele>
        <time>2021-06-13T07:30:28Z</time>
      </trkpt>
      <trkpt lat="42.71288" lon="1.6636">
        <ele>1092.689</ele>
        <time>2021-06-13T07:30:30Z</time>
      </trkpt>
      <trkpt lat="42.71287" lon="1.6636">
        <ele>1092.525</ele>
        <time>2021-06-13T07:30:31Z</time>
      </trkpt>
      <trkpt lat="42.71286" lon="1.66358">
        <ele>1092.647</ele>
        <time>2021-06-13T07:30:34Z</time>
      </trkpt>
      <trkpt lat="42.71285" lon="1.66357">
        <ele>1092.248</ele>
        <time>2021-06-13T07:30:36Z</time>
      </trkpt>
      <trkpt lat="42.71287" lon="1.66356">
        <ele>1094.241</ele>
        <time>2021-06-13T07:30:38Z</time>
      </trkpt>
      <trkpt lat="42.71289" lon="1.66355">
        <ele>1095.899</ele>
        <time>2021-06-13T07:30:40Z</time>
      </trkpt>
      <trkpt lat="42.7129" lon="1.66354">
        <ele>1095.437</ele>
        <time>2021-06-13T07:30:42Z</time>
      </trkpt>
      <trkpt lat="42.7129" lon="1.66353">
        <ele>1095.676</ele>
        <time>2021-06-13T07:30:44Z</time>
      </trkpt>
      <trkpt lat="42.7129" lon="1.66351">
        <ele>1095.319</ele>
        <time>2021-06-13T07:30:46Z</time>
      </trkpt>
      <trkpt lat="42.71289" lon="1.6635">
        <ele>1095.679</ele>
        <time>2021-06-13T07:30:48Z</time>
      </trkpt>
      <trkpt lat="42.71289" lon="1.66349">
        <ele>1095.893</ele>
        <time>2021-06-13T07:30:49Z</time>
      </trkpt>
      <trkpt lat="42.71288" lon="1.66348">
        <ele>1095.394</ele>
        <time>2021-06-13T07:30:52Z</time>
      </trkpt>
      <trkpt lat="42.71289" lon="1.66346">
        <ele>1096.988</ele>
        <time>2021-06-13T07:30:54Z</time>
      </trkpt>
      <trkpt lat="42.71289" lon="1.66344">
        <ele>1097.741</ele>
        <time>2021-06-13T07:30:56Z</time>
      </trkpt>
      <trkpt lat="42.71288" lon="1.66342">
        <ele>1096.729</ele>
        <time>2021-06-13T07:30:58Z</time>
      </trkpt>
      <trkpt lat="42.71288" lon="1.66341">
        <ele>1098.252</ele>
        <time>2021-06-13T07:31:00Z</time>
      </trkpt>
      <trkpt lat="42.71288" lon="1.66339">
        <ele>1097.56</ele>
        <time>2021-06-13T07:31:02Z</time>
      </trkpt>
      <trkpt lat="42.71286" lon="1.66338">
        <ele>1097.007</ele>
        <time>2021-06-13T07:31:04Z</time>
      </trkpt>
      <trkpt lat="42.71284" lon="1.66339">
        <ele>1096.805</ele>
        <time>2021-06-13T07:31:06Z</time>
      </trkpt>
      <trkpt lat="42.71283" lon="1.66339">
        <ele>1096.91</ele>
        <time>2021-06-13T07:31:08Z</time>
      </trkpt>
      <trkpt lat="42.71283" lon="1.6634">
        <ele>1098.204</ele>
        <time>2021-06-13T07:31:10Z</time>
      </trkpt>
      <trkpt lat="42.71281" lon="1.6634">
        <ele>1097.912</ele>
        <time>2021-06-13T07:31:12Z</time>
      </trkpt>
      <trkpt lat="42.7128" lon="1.66341">
        <ele>1099.472</ele>
        <time>2021-06-13T07:31:14Z</time>
      </trkpt>
      <trkpt lat="42.71279" lon="1.66341">
        <ele>1099.825</ele>
        <time>2021-06-13T07:31:16Z</time>
      </trkpt>
      <trkpt lat="42.71278" lon="1.66343">
        <ele>1100.912</ele>
        <time>2021-06-13T07:31:18Z</time>
      </trkpt>
      <trkpt lat="42.71277" lon="1.66342">
        <ele>1101.017</ele>
        <time>2021-06-13T07:31:19Z</time>
      </trkpt>
      <trkpt lat="42.71275" lon="1.66341">
        <ele>1100.004</ele>
        <time>2021-06-13T07:31:22Z</time>
      </trkpt>
      <trkpt lat="42.71275" lon="1.66342">
        <ele>1101.912</ele>
        <time>2021-06-13T07:31:24Z</time>
      </trkpt>
      <trkpt lat="42.71274" lon="1.66344">
        <ele>1102.655</ele>
        <time>2021-06-13T07:31:26Z</time>
      </trkpt>
      <trkpt lat="42.71273" lon="1.66345">
        <ele>1105.382</ele>
        <time>2021-06-13T07:31:28Z</time>
      </trkpt>
      <trkpt lat="42.71272" lon="1.66347">
        <ele>1105.433</ele>
        <time>2021-06-13T07:31:30Z</time>
      </trkpt>
      <trkpt lat="42.71272" lon="1.66348">
        <ele>1106.233</ele>
        <time>2021-06-13T07:31:32Z</time>
      </trkpt>
      <trkpt lat="42.71272" lon="1.66348">
        <ele>1107.123</ele>
        <time>2021-06-13T07:31:34Z</time>
      </trkpt>
      <trkpt lat="42.71272" lon="1.6635">
        <ele>1106.398</ele>
        <time>2021-06-13T07:31:36Z</time>
      </trkpt>
      <trkpt lat="42.71271" lon="1.66351">
        <ele>1106.788</ele>
        <time>2021-06-13T07:31:38Z</time>
      </trkpt>
      <trkpt lat="42.7127" lon="1.66351">
        <ele>1107.462</ele>
        <time>2021-06-13T07:31:39Z</time>
      </trkpt>
      <trkpt lat="42.71268" lon="1.6635">
        <ele>1107.788</ele>
        <time>2021-06-13T07:31:42Z</time>
      </trkpt>
      <trkpt lat="42.71268" lon="1.6635">
        <ele>1108.276</ele>
        <time>2021-06-13T07:31:44Z</time>
      </trkpt>
      <trkpt lat="42.71266" lon="1.66349">
        <ele>1105.5</ele>
        <time>2021-06-13T07:31:46Z</time>
      </trkpt>
      <trkpt lat="42.71266" lon="1.66347">
        <ele>1106.836</ele>
        <time>2021-06-13T07:31:48Z</time>
      </trkpt>
      <trkpt lat="42.71266" lon="1.66346">
        <ele>1106.904</ele>
        <time>2021-06-13T07:31:49Z</time>
      </trkpt>
      <trkpt lat="42.71267" lon="1.66344">
        <ele>1105.583</ele>
        <time>2021-06-13T07:31:52Z</time>
      </trkpt>
      <trkpt lat="42.71266" lon="1.66342">
        <ele>1106.02</ele>
        <time>2021-06-13T07:31:54Z</time>
      </trkpt>
      <trkpt lat="42.71266" lon="1.6634">
        <ele>1105.762</ele>
        <time>2021-06-13T07:31:56Z</time>
      </trkpt>
      <trkpt lat="42.71265" lon="1.66338">
        <ele>1105.353</ele>
        <time>2021-06-13T07:31:58Z</time>
      </trkpt>
      <trkpt lat="42.71265" lon="1.66337">
        <ele>1104.775</ele>
        <time>2021-06-13T07:31:59Z</time>
      </trkpt>
      <trkpt lat="42.71267" lon="1.66334">
        <ele>1107.429</ele>
        <time>2021-06-13T07:32:02Z</time>
      </trkpt>
      <trkpt lat="42.71268" lon="1.66332">
        <ele>1107.554</ele>
        <time>2021-06-13T07:32:04Z</time>
      </trkpt>
      <trkpt lat="42.71268" lon="1.66331">
        <ele>1108.753</ele>
        <time>2021-06-13T07:32:06Z</time>
      </trkpt>
      <trkpt lat="42.71269" lon="1.66329">
        <ele>1108.011</ele>
        <time>2021-06-13T07:32:08Z</time>
      </trkpt>
      <trkpt lat="42.71268" lon="1.66328">
        <ele>1109.407</ele>
        <time>2021-06-13T07:32:10Z</time>
      </trkpt>
      <trkpt lat="42.71267" lon="1.66328">
        <ele>1110.171</ele>
        <time>2021-06-13T07:32:12Z</time>
      </trkpt>
      <trkpt lat="42.71267" lon="1.66327">
        <ele>1111.394</ele>
        <time>2021-06-13T07:32:14Z</time>
      </trkpt>
      <trkpt lat="42.71267" lon="1.66326">
        <ele>1111.101</ele>
        <time>2021-06-13T07:32:16Z</time>
      </trkpt>
      <trkpt lat="42.71268" lon="1.66324">
        <ele>1111.924</ele>
        <time>2021-06-13T07:32:18Z</time>
      </trkpt>
      <trkpt lat="42.71268" lon="1.66324">
        <ele>1110.88</ele>
        <time>2021-06-13T07:32:19Z</time>
      </trkpt>
      <trkpt lat="42.71267" lon="1.66322">
        <ele>1109.248</ele>
        <time>2021-06-13T07:32:22Z</time>
      </trkpt>
      <trkpt lat="42.71268" lon="1.6632">
        <ele>1110.125</ele>
        <time>2021-06-13T07:32:24Z</time>
      </trkpt>
      <trkpt lat="42.71267" lon="1.66318">
        <ele>1109.135</ele>
        <time>2021-06-13T07:32:26Z</time>
      </trkpt>
      <trkpt lat="42.71267" lon="1.66317">
        <ele>1110.196</ele>
        <time>2021-06-13T07:32:28Z</time>
      </trkpt>
      <trkpt lat="42.71267" lon="1.66316">
        <ele>1109.939</ele>
        <time>2021-06-13T07:32:29Z</time>
      </trkpt>
      <trkpt lat="42.71266" lon="1.66313">
        <ele>1109.398</ele>
        <time>2021-06-13T07:32:32Z</time>
      </trkpt>
      <trkpt lat="42.71266" lon="1.66311">
        <ele>1110.11</ele>
        <time>2021-06-13T07:32:34Z</time>
      </trkpt>
      <trkpt lat="42.71266" lon="1.66309">
        <ele>1110.625</ele>
        <time>2021-06-13T07:32:36Z</time>
      </trkpt>
      <trkpt lat="42.71267" lon="1.66308">
        <ele>1112.307</ele>
        <time>2021-06-13T07:32:38Z</time>
      </trkpt>
      <trkpt lat="42.71267" lon="1.66306">
        <ele>1112.512</ele>
        <time>2021-06-13T07:32:40Z</time>
      </trkpt>
      <trkpt lat="42.71268" lon="1.66305">
        <ele>1111.882</ele>
        <time>2021-06-13T07:32:42Z</time>
      </trkpt>
      <trkpt lat="42.71269" lon="1.66304">
        <ele>1112.764</ele>
        <time>2021-06-13T07:32:44Z</time>
      </trkpt>
      <trkpt lat="42.71269" lon="1.66302">
        <ele>1113.668</ele>
        <time>2021-06-13T07:32:46Z</time>
      </trkpt>
      <trkpt lat="42.71269" lon="1.66299">
        <ele>1114.334</ele>
        <time>2021-06-13T07:32:48Z</time>
      </trkpt>
      <trkpt lat="42.71269" lon="1.66298">
        <ele>1113.516</ele>
        <time>2021-06-13T07:32:49Z</time>
      </trkpt>
      <trkpt lat="42.71269" lon="1.66295">
        <ele>1114.1</ele>
        <time>2021-06-13T07:32:52Z</time>
      </trkpt>
      <trkpt lat="42.71268" lon="1.66293">
        <ele>1113.682</ele>
        <time>2021-06-13T07:32:54Z</time>
      </trkpt>
      <trkpt lat="42.71268" lon="1.6629">
        <ele>1112.759</ele>
        <time>2021-06-13T07:32:56Z</time>
      </trkpt>
      <trkpt lat="42.71267" lon="1.66289">
        <ele>1111.259</ele>
        <time>2021-06-13T07:32:58Z</time>
      </trkpt>
      <trkpt lat="42.71266" lon="1.66288">
        <ele>1110.755</ele>
        <time>2021-06-13T07:32:59Z</time>
      </trkpt>
      <trkpt lat="42.71264" lon="1.66284">
        <ele>1110.096</ele>
        <time>2021-06-13T07:33:02Z</time>
      </trkpt>
      <trkpt lat="42.71263" lon="1.66282">
        <ele>1108.604</ele>
        <time>2021-06-13T07:33:04Z</time>
      </trkpt>
      <trkpt lat="42.71262" lon="1.6628">
        <ele>1108.237</ele>
        <time>2021-06-13T07:33:06Z</time>
      </trkpt>
      <trkpt lat="42.71262" lon="1.66278">
        <ele>1107.72</ele>
        <time>2021-06-13T07:33:08Z</time>
      </trkpt>
      <trkpt lat="42.71262" lon="1.66276">
        <ele>1108.854</ele>
        <time>2021-06-13T07:33:10Z</time>
      </trkpt>
      <trkpt lat="42.71262" lon="1.66275">
        <ele>1107.881</ele>
        <time>2021-06-13T07:33:12Z</time>
      </trkpt>
      <trkpt lat="42.71261" lon="1.66273">
        <ele>1106.923</ele>
        <time>2021-06-13T07:33:14Z</time>
      </trkpt>
      <trkpt lat="42.71259" lon="1.6627">
        <ele>1107.603</ele>
        <time>2021-06-13T07:33:17Z</time>
      </trkpt>
      <trkpt lat="42.7126" lon="1.66268">
        <ele>1107.8</ele>
        <time>2021-06-13T07:33:19Z</time>
      </trkpt>
      <trkpt lat="42.7126" lon="1.66265">
        <ele>1108.875</ele>
        <time>2021-06-13T07:33:22Z</time>
      </trkpt>
      <trkpt lat="42.7126" lon="1.66263">
        <ele>1109.21</ele>
        <time>2021-06-13T07:33:24Z</time>
      </trkpt>
      <trkpt lat="42.71259" lon="1.66262">
        <ele>1108.394</ele>
        <time>2021-06-13T07:33:26Z</time>
      </trkpt>
      <trkpt lat="42.71259" lon="1.66261">
        <ele>1109.378</ele>
        <time>2021-06-13T07:33:28Z</time>
      </trkpt>
      <trkpt lat="42.71259" lon="1.66261">
        <ele>1109.996</ele>
        <time>2021-06-13T07:33:30Z</time>
      </trkpt>
      <trkpt lat="42.71258" lon="1.66261">
        <ele>1110.869</ele>
        <time>2021-06-13T07:33:32Z</time>
      </trkpt>
      <trkpt lat="42.71258" lon="1.66261">
        <ele>1112.218</ele>
        <time>2021-06-13T07:33:34Z</time>
      </trkpt>
      <trkpt lat="42.71257" lon="1.66263">
        <ele>1114.22</ele>
        <time>2021-06-13T07:33:36Z</time>
      </trkpt>
      <trkpt lat="42.71256" lon="1.66263">
        <ele>1115.998</ele>
        <time>2021-06-13T07:33:38Z</time>
      </trkpt>
      <trkpt lat="42.71255" lon="1.66263">
        <ele>1116.346</ele>
        <time>2021-06-13T07:33:40Z</time>
      </trkpt>
      <trkpt lat="42.71254" lon="1.66263">
        <ele>1116.854</ele>
        <time>2021-06-13T07:33:42Z</time>
      </trkpt>
      <trkpt lat="42.71254" lon="1.66264">
        <ele>1117.384</ele>
        <time>2021-06-13T07:33:44Z</time>
      </trkpt>
      <trkpt lat="42.71253" lon="1.66263">
        <ele>1116.318</ele>
        <time>2021-06-13T07:33:46Z</time>
      </trkpt>
      <trkpt lat="42.71253" lon="1.66262">
        <ele>1117.06</ele>
        <time>2021-06-13T07:33:48Z</time>
      </trkpt>
      <trkpt lat="42.71251" lon="1.6626">
        <ele>1115.465</ele>
        <time>2021-06-13T07:33:50Z</time>
      </trkpt>
      <trkpt lat="42.7125" lon="1.66257">
        <ele>1115.644</ele>
        <time>2021-06-13T07:33:52Z</time>
      </trkpt>
      <trkpt lat="42.71249" lon="1.66255">
        <ele>1116.144</ele>
        <time>2021-06-13T07:33:54Z</time>
      </trkpt>
      <trkpt lat="42.71248" lon="1.66252">
        <ele>1115.169</ele>
        <time>2021-06-13T07:33:56Z</time>
      </trkpt>
      <trkpt lat="42.71247" lon="1.6625">
        <ele>1114.764</ele>
        <time>2021-06-13T07:33:58Z</time>
      </trkpt>
      <trkpt lat="42.71246" lon="1.66248">
        <ele>1114.123</ele>
        <time>2021-06-13T07:34:00Z</time>
      </trkpt>
      <trkpt lat="42.71245" lon="1.66246">
        <ele>1114.2</ele>
        <time>2021-06-13T07:34:02Z</time>
      </trkpt>
      <trkpt lat="42.71244" lon="1.66245">
        <ele>1113.791</ele>
        <time>2021-06-13T07:34:04Z</time>
      </trkpt>
      <trkpt lat="42.71244" lon="1.66243">
        <ele>1113.947</ele>
        <time>2021-06-13T07:34:06Z</time>
      </trkpt>
      <trkpt lat="42.71243" lon="1.66241">
        <ele>1115.171</ele>
        <time>2021-06-13T07:34:08Z</time>
      </trkpt>
      <trkpt lat="42.71242" lon="1.66239">
        <ele>1115.641</ele>
        <time>2021-06-13T07:34:10Z</time>
      </trkpt>
      <trkpt lat="42.71241" lon="1.66236">
        <ele>1114.489</ele>
        <time>2021-06-13T07:34:12Z</time>
      </trkpt>
      <trkpt lat="42.7124" lon="1.66233">
        <ele>1113.661</ele>
        <time>2021-06-13T07:34:14Z</time>
      </trkpt>
      <trkpt lat="42.71241" lon="1.66231">
        <ele>1116.873</ele>
        <time>2021-06-13T07:34:16Z</time>
      </trkpt>
      <trkpt lat="42.71242" lon="1.66229">
        <ele>1118.889</ele>
        <time>2021-06-13T07:34:18Z</time>
      </trkpt>
      <trkpt lat="42.71243" lon="1.66227">
        <ele>1118.402</ele>
        <time>2021-06-13T07:34:20Z</time>
      </trkpt>
      <trkpt lat="42.71241" lon="1.66226">
        <ele>1118.292</ele>
        <time>2021-06-13T07:34:22Z</time>
      </trkpt>
      <trkpt lat="42.71241" lon="1.66225">
        <ele>1119.136</ele>
        <time>2021-06-13T07:34:24Z</time>
      </trkpt>
      <trkpt lat="42.7124" lon="1.66223">
        <ele>1119.913</ele>
        <time>2021-06-13T07:34:26Z</time>
      </trkpt>
      <trkpt lat="42.7124" lon="1.66221">
        <ele>1120.511</ele>
        <time>2021-06-13T07:34:28Z</time>
      </trkpt>
      <trkpt lat="42.71239" lon="1.66219">
        <ele>1120.633</ele>
        <time>2021-06-13T07:34:30Z</time>
      </trkpt>
      <trkpt lat="42.71238" lon="1.66217">
        <ele>1119.302</ele>
        <time>2021-06-13T07:34:32Z</time>
      </trkpt>
      <trkpt lat="42.71237" lon="1.66215">
        <ele>1118.768</ele>
        <time>2021-06-13T07:34:34Z</time>
      </trkpt>
      <trkpt lat="42.71237" lon="1.66214">
        <ele>1118.488</ele>
        <time>2021-06-13T07:34:36Z</time>
      </trkpt>
      <trkpt lat="42.71237" lon="1.66213">
        <ele>1118.729</ele>
        <time>2021-06-13T07:34:38Z</time>
      </trkpt>
      <trkpt lat="42.71235" lon="1.66213">
        <ele>1119.455</ele>
        <time>2021-06-13T07:34:40Z</time>
      </trkpt>
      <trkpt lat="42.71234" lon="1.66212">
        <ele>1119.296</ele>
        <time>2021-06-13T07:34:42Z</time>
      </trkpt>
      <trkpt lat="42.71234" lon="1.66209">
        <ele>1117.619</ele>
        <time>2021-06-13T07:34:44Z</time>
      </trkpt>
      <trkpt lat="42.71233" lon="1.66208">
        <ele>1117.09</ele>
        <time>2021-06-13T07:34:46Z</time>
      </trkpt>
      <trkpt lat="42.71232" lon="1.66207">
        <ele>1117.213</ele>
        <time>2021-06-13T07:34:48Z</time>
      </trkpt>
      <trkpt lat="42.71231" lon="1.66206">
        <ele>1117.62</ele>
        <time>2021-06-13T07:34:49Z</time>
      </trkpt>
      <trkpt lat="42.71231" lon="1.66203">
        <ele>1116.933</ele>
        <time>2021-06-13T07:34:52Z</time>
      </trkpt>
      <trkpt lat="42.7123" lon="1.66201">
        <ele>1119.776</ele>
        <time>2021-06-13T07:34:54Z</time>
      </trkpt>
      <trkpt lat="42.71229" lon="1.66198">
        <ele>1120.076</ele>
        <time>2021-06-13T07:34:56Z</time>
      </trkpt>
      <trkpt lat="42.71228" lon="1.66196">
        <ele>1119.73</ele>
        <time>2021-06-13T07:34:58Z</time>
      </trkpt>
      <trkpt lat="42.71228" lon="1.66194">
        <ele>1120.717</ele>
        <time>2021-06-13T07:35:00Z</time>
      </trkpt>
      <trkpt lat="42.71228" lon="1.66192">
        <ele>1123.262</ele>
        <time>2021-06-13T07:35:02Z</time>
      </trkpt>
      <trkpt lat="42.71228" lon="1.6619">
        <ele>1122.888</ele>
        <time>2021-06-13T07:35:04Z</time>
      </trkpt>
      <trkpt lat="42.71228" lon="1.66187">
        <ele>1124.272</ele>
        <time>2021-06-13T07:35:06Z</time>
      </trkpt>
      <trkpt lat="42.71229" lon="1.66185">
        <ele>1123.83</ele>
        <time>2021-06-13T07:35:08Z</time>
      </trkpt>
      <trkpt lat="42.71229" lon="1.66184">
        <ele>1124.134</ele>
        <time>2021-06-13T07:35:09Z</time>
      </trkpt>
      <trkpt lat="42.71229" lon="1.66181">
        <ele>1125.368</ele>
        <time>2021-06-13T07:35:12Z</time>
      </trkpt>
      <trkpt lat="42.71227" lon="1.6618">
        <ele>1125.037</ele>
        <time>2021-06-13T07:35:14Z</time>
      </trkpt>
      <trkpt lat="42.71226" lon="1.66182">
        <ele>1125.789</ele>
        <time>2021-06-13T07:35:16Z</time>
      </trkpt>
      <trkpt lat="42.71225" lon="1.66183">
        <ele>1127.361</ele>
        <time>2021-06-13T07:35:18Z</time>
      </trkpt>
      <trkpt lat="42.71225" lon="1.66181">
        <ele>1129.179</ele>
        <time>2021-06-13T07:35:20Z</time>
      </trkpt>
      <trkpt lat="42.71225" lon="1.66181">
        <ele>1128.317</ele>
        <time>2021-06-13T07:35:22Z</time>
      </trkpt>
      <trkpt lat="42.71225" lon="1.66179">
        <ele>1126.955</ele>
        <time>2021-06-13T07:35:24Z</time>
      </trkpt>
      <trkpt lat="42.71224" lon="1.66177">
        <ele>1125.907</ele>
        <time>2021-06-13T07:35:26Z</time>
      </trkpt>
      <trkpt lat="42.71223" lon="1.66176">
        <ele>1125.839</ele>
        <time>2021-06-13T07:35:28Z</time>
      </trkpt>
      <trkpt lat="42.71223" lon="1.66174">
        <ele>1127.458</ele>
        <time>2021-06-13T07:35:30Z</time>
      </trkpt>
      <trkpt lat="42.71223" lon="1.66172">
        <ele>1127.17</ele>
        <time>2021-06-13T07:35:32Z</time>
      </trkpt>
      <trkpt lat="42.71223" lon="1.66172">
        <ele>1128.183</ele>
        <time>2021-06-13T07:35:34Z</time>
      </trkpt>
      <trkpt lat="42.71222" lon="1.6617">
        <ele>1127.622</ele>
        <time>2021-06-13T07:35:36Z</time>
      </trkpt>
      <trkpt lat="42.71222" lon="1.66169">
        <ele>1128.503</ele>
        <time>2021-06-13T07:35:38Z</time>
      </trkpt>
      <trkpt lat="42.71221" lon="1.66169">
        <ele>1128.897</ele>
        <time>2021-06-13T07:35:39Z</time>
      </trkpt>
      <trkpt lat="42.71221" lon="1.6617">
        <ele>1130.652</ele>
        <time>2021-06-13T07:35:42Z</time>
      </trkpt>
      <trkpt lat="42.71221" lon="1.6617">
        <ele>1131.856</ele>
        <time>2021-06-13T07:35:44Z</time>
      </trkpt>
      <trkpt lat="42.7122" lon="1.6617">
        <ele>1132.082</ele>
        <time>2021-06-13T07:35:46Z</time>
      </trkpt>
      <trkpt lat="42.7122" lon="1.6617">
        <ele>1133.376</ele>
        <time>2021-06-13T07:35:48Z</time>
      </trkpt>
      <trkpt lat="42.7122" lon="1.66171">
        <ele>1135.8</ele>
        <time>2021-06-13T07:35:50Z</time>
      </trkpt>
      <trkpt lat="42.71219" lon="1.66172">
        <ele>1135.793</ele>
        <time>2021-06-13T07:35:52Z</time>
      </trkpt>
      <trkpt lat="42.71219" lon="1.66172">
        <ele>1136.521</ele>
        <time>2021-06-13T07:35:54Z</time>
      </trkpt>
      <trkpt lat="42.71218" lon="1.66172">
        <ele>1135.852</ele>
        <time>2021-06-13T07:35:56Z</time>
      </trkpt>
      <trkpt lat="42.71217" lon="1.6617">
        <ele>1138.261</ele>
        <time>2021-06-13T07:35:58Z</time>
      </trkpt>
      <trkpt lat="42.71217" lon="1.66168">
        <ele>1139.846</ele>
        <time>2021-06-13T07:36:00Z</time>
      </trkpt>
      <trkpt lat="42.71218" lon="1.66167">
        <ele>1140.485</ele>
        <time>2021-06-13T07:36:02Z</time>
      </trkpt>
      <trkpt lat="42.71216" lon="1.66165">
        <ele>1140.102</ele>
        <time>2021-06-13T07:36:04Z</time>
      </trkpt>
      <trkpt lat="42.71215" lon="1.66164">
        <ele>1139.216</ele>
        <time>2021-06-13T07:36:06Z</time>
      </trkpt>
      <trkpt lat="42.71216" lon="1.66162">
        <ele>1140.13</ele>
        <time>2021-06-13T07:36:08Z</time>
      </trkpt>
      <trkpt lat="42.71216" lon="1.66161">
        <ele>1140.412</ele>
        <time>2021-06-13T07:36:10Z</time>
      </trkpt>
      <trkpt lat="42.71216" lon="1.66159">
        <ele>1140.476</ele>
        <time>2021-06-13T07:36:12Z</time>
      </trkpt>
      <trkpt lat="42.71216" lon="1.66157">
        <ele>1139.947</ele>
        <time>2021-06-13T07:36:14Z</time>
      </trkpt>
      <trkpt lat="42.71215" lon="1.66156">
        <ele>1140.78</ele>
        <time>2021-06-13T07:36:16Z</time>
      </trkpt>
      <trkpt lat="42.71215" lon="1.66154">
        <ele>1142.313</ele>
        <time>2021-06-13T07:36:18Z</time>
      </trkpt>
      <trkpt lat="42.71214" lon="1.66153">
        <ele>1142.729</ele>
        <time>2021-06-13T07:36:20Z</time>
      </trkpt>
      <trkpt lat="42.71214" lon="1.66152">
        <ele>1143.432</ele>
        <time>2021-06-13T07:36:22Z</time>
      </trkpt>
      <trkpt lat="42.71213" lon="1.66151">
        <ele>1143.627</ele>
        <time>2021-06-13T07:36:24Z</time>
      </trkpt>
      <trkpt lat="42.71213" lon="1.6615">
        <ele>1144.813</ele>
        <time>2021-06-13T07:36:26Z</time>
      </trkpt>
      <trkpt lat="42.71212" lon="1.6615">
        <ele>1146.526</ele>
        <time>2021-06-13T07:36:28Z</time>
      </trkpt>
      <trkpt lat="42.71211" lon="1.66148">
        <ele>1149.438</ele>
        <time>2021-06-13T07:36:30Z</time>
      </trkpt>
      <trkpt lat="42.7121" lon="1.66147">
        <ele>1149.007</ele>
        <time>2021-06-13T07:36:32Z</time>
      </trkpt>
      <trkpt lat="42.7121" lon="1.66148">
        <ele>1148.234</ele>
        <time>2021-06-13T07:36:34Z</time>
      </trkpt>
      <trkpt lat="42.71209" lon="1.66147">
        <ele>1148.358</ele>
        <time>2021-06-13T07:36:36Z</time>
      </trkpt>
      <trkpt lat="42.71208" lon="1.66147">
        <ele>1149.006</ele>
        <time>2021-06-13T07:36:38Z</time>
      </trkpt>
      <trkpt lat="42.71206" lon="1.66147">
        <ele>1149.191</ele>
        <time>2021-06-13T07:36:40Z</time>
      </trkpt>
      <trkpt lat="42.71205" lon="1.66147">
        <ele>1150.007</ele>
        <time>2021-06-13T07:36:42Z</time>
      </trkpt>
      <trkpt lat="42.71204" lon="1.66146">
        <ele>1151.653</ele>
        <time>2021-06-13T07:36:44Z</time>
      </trkpt>
      <trkpt lat="42.71204" lon="1.66145">
        <ele>1151.11</ele>
        <time>2021-06-13T07:36:46Z</time>
      </trkpt>
      <trkpt lat="42.71203" lon="1.66143">
        <ele>1151.698</ele>
        <time>2021-06-13T07:36:48Z</time>
      </trkpt>
      <trkpt lat="42.71204" lon="1.66141">
        <ele>1151.832</ele>
        <time>2021-06-13T07:36:50Z</time>
      </trkpt>
      <trkpt lat="42.71205" lon="1.66139">
        <ele>1151.061</ele>
        <time>2021-06-13T07:36:52Z</time>
      </trkpt>
      <trkpt lat="42.71204" lon="1.66137">
        <ele>1151.107</ele>
        <time>2021-06-13T07:36:54Z</time>
      </trkpt>
      <trkpt lat="42.71204" lon="1.66135">
        <ele>1151.215</ele>
        <time>2021-06-13T07:36:56Z</time>
      </trkpt>
      <trkpt lat="42.71204" lon="1.66133">
        <ele>1150.135</ele>
        <time>2021-06-13T07:36:58Z</time>
      </trkpt>
      <trkpt lat="42.71204" lon="1.66131">
        <ele>1150.896</ele>
        <time>2021-06-13T07:37:00Z</time>
      </trkpt>
      <trkpt lat="42.71205" lon="1.6613">
        <ele>1151.565</ele>
        <time>2021-06-13T07:37:02Z</time>
      </trkpt>
      <trkpt lat="42.71206" lon="1.66129">
        <ele>1153.549</ele>
        <time>2021-06-13T07:37:04Z</time>
      </trkpt>
      <trkpt lat="42.71205" lon="1.66127">
        <ele>1152.352</ele>
        <time>2021-06-13T07:37:06Z</time>
      </trkpt>
      <trkpt lat="42.71206" lon="1.66126">
        <ele>1154.31</ele>
        <time>2021-06-13T07:37:08Z</time>
      </trkpt>
      <trkpt lat="42.71205" lon="1.66124">
        <ele>1153.395</ele>
        <time>2021-06-13T07:37:10Z</time>
      </trkpt>
      <trkpt lat="42.71204" lon="1.66124">
        <ele>1154.742</ele>
        <time>2021-06-13T07:37:12Z</time>
      </trkpt>
      <trkpt lat="42.71204" lon="1.66123">
        <ele>1153.699</ele>
        <time>2021-06-13T07:37:14Z</time>
      </trkpt>
      <trkpt lat="42.71203" lon="1.66122">
        <ele>1153.592</ele>
        <time>2021-06-13T07:37:16Z</time>
      </trkpt>
      <trkpt lat="42.71202" lon="1.66122">
        <ele>1154.029</ele>
        <time>2021-06-13T07:37:18Z</time>
      </trkpt>
      <trkpt lat="42.71201" lon="1.66122">
        <ele>1153.926</ele>
        <time>2021-06-13T07:37:20Z</time>
      </trkpt>
      <trkpt lat="42.712" lon="1.66121">
        <ele>1153.173</ele>
        <time>2021-06-13T07:37:22Z</time>
      </trkpt>
      <trkpt lat="42.712" lon="1.6612">
        <ele>1153.386</ele>
        <time>2021-06-13T07:37:24Z</time>
      </trkpt>
      <trkpt lat="42.71199" lon="1.6612">
        <ele>1153.205</ele>
        <time>2021-06-13T07:37:26Z</time>
      </trkpt>
      <trkpt lat="42.71198" lon="1.66119">
        <ele>1152.958</ele>
        <time>2021-06-13T07:37:28Z</time>
      </trkpt>
      <trkpt lat="42.71198" lon="1.66118">
        <ele>1157.509</ele>
        <time>2021-06-13T07:37:30Z</time>
      </trkpt>
      <trkpt lat="42.71198" lon="1.66117">
        <ele>1158.57</ele>
        <time>2021-06-13T07:37:32Z</time>
      </trkpt>
      <trkpt lat="42.71197" lon="1.66117">
        <ele>1158.087</ele>
        <time>2021-06-13T07:37:34Z</time>
      </trkpt>
      <trkpt lat="42.71195" lon="1.66117">
        <ele>1157.774</ele>
        <time>2021-06-13T07:37:36Z</time>
      </trkpt>
      <trkpt lat="42.71195" lon="1.66116">
        <ele>1158.791</ele>
        <time>2021-06-13T07:37:38Z</time>
      </trkpt>
      <trkpt lat="42.71195" lon="1.66114">
        <ele>1159.282</ele>
        <time>2021-06-13T07:37:40Z</time>
      </trkpt>
      <trkpt lat="42.71196" lon="1.66111">
        <ele>1160.313</ele>
        <time>2021-06-13T07:37:42Z</time>
      </trkpt>
      <trkpt lat="42.71195" lon="1.6611">
        <ele>1160.27</ele>
        <time>2021-06-13T07:37:44Z</time>
      </trkpt>
      <trkpt lat="42.71195" lon="1.6611">
        <ele>1160.044</ele>
        <time>2021-06-13T07:37:46Z</time>
      </trkpt>
      <trkpt lat="42.71194" lon="1.66109">
        <ele>1161.32</ele>
        <time>2021-06-13T07:37:48Z</time>
      </trkpt>
      <trkpt lat="42.71194" lon="1.66107">
        <ele>1162.965</ele>
        <time>2021-06-13T07:37:50Z</time>
      </trkpt>
      <trkpt lat="42.71194" lon="1.66105">
        <ele>1162.732</ele>
        <time>2021-06-13T07:37:52Z</time>
      </trkpt>
      <trkpt lat="42.71194" lon="1.66103">
        <ele>1161.068</ele>
        <time>2021-06-13T07:37:54Z</time>
      </trkpt>
      <trkpt lat="42.71194" lon="1.66101">
        <ele>1160.523</ele>
        <time>2021-06-13T07:37:56Z</time>
      </trkpt>
      <trkpt lat="42.71195" lon="1.66099">
        <ele>1163.513</ele>
        <time>2021-06-13T07:37:58Z</time>
      </trkpt>
      <trkpt lat="42.71197" lon="1.66099">
        <ele>1163.998</ele>
        <time>2021-06-13T07:38:00Z</time>
      </trkpt>
      <trkpt lat="42.71197" lon="1.66098">
        <ele>1162.895</ele>
        <time>2021-06-13T07:38:02Z</time>
      </trkpt>
      <trkpt lat="42.71196" lon="1.66097">
        <ele>1162.757</ele>
        <time>2021-06-13T07:38:04Z</time>
      </trkpt>
      <trkpt lat="42.71198" lon="1.66096">
        <ele>1164.256</ele>
        <time>2021-06-13T07:38:06Z</time>
      </trkpt>
      <trkpt lat="42.71199" lon="1.66095">
        <ele>1163.817</ele>
        <time>2021-06-13T07:38:08Z</time>
      </trkpt>
      <trkpt lat="42.71199" lon="1.66093">
        <ele>1163.158</ele>
        <time>2021-06-13T07:38:10Z</time>
      </trkpt>
      <trkpt lat="42.71199" lon="1.66092">
        <ele>1163.739</ele>
        <time>2021-06-13T07:38:12Z</time>
      </trkpt>
      <trkpt lat="42.71198" lon="1.66092">
        <ele>1164.612</ele>
        <time>2021-06-13T07:38:14Z</time>
      </trkpt>
      <trkpt lat="42.71197" lon="1.66091">
        <ele>1164.157</ele>
        <time>2021-06-13T07:38:16Z</time>
      </trkpt>
      <trkpt lat="42.71196" lon="1.66092">
        <ele>1164.033</ele>
        <time>2021-06-13T07:38:18Z</time>
      </trkpt>
      <trkpt lat="42.71196" lon="1.66093">
        <ele>1167.729</ele>
        <time>2021-06-13T07:38:20Z</time>
      </trkpt>
      <trkpt lat="42.71196" lon="1.66094">
        <ele>1169.921</ele>
        <time>2021-06-13T07:38:22Z</time>
      </trkpt>
      <trkpt lat="42.71196" lon="1.66093">
        <ele>1169.412</ele>
        <time>2021-06-13T07:38:24Z</time>
      </trkpt>
      <trkpt lat="42.71196" lon="1.66093">
        <ele>1169.948</ele>
        <time>2021-06-13T07:38:26Z</time>
      </trkpt>
      <trkpt lat="42.71195" lon="1.66093">
        <ele>1170.555</ele>
        <time>2021-06-13T07:38:28Z</time>
      </trkpt>
      <trkpt lat="42.71194" lon="1.66093">
        <ele>1171.111</ele>
        <time>2021-06-13T07:38:30Z</time>
      </trkpt>
      <trkpt lat="42.71193" lon="1.66093">
        <ele>1172.522</ele>
        <time>2021-06-13T07:38:32Z</time>
      </trkpt>
      <trkpt lat="42.71193" lon="1.66093">
        <ele>1173.378</ele>
        <time>2021-06-13T07:38:34Z</time>
      </trkpt>
      <trkpt lat="42.71192" lon="1.66093">
        <ele>1175.595</ele>
        <time>2021-06-13T07:38:36Z</time>
      </trkpt>
      <trkpt lat="42.71191" lon="1.66092">
        <ele>1176.807</ele>
        <time>2021-06-13T07:38:38Z</time>
      </trkpt>
      <trkpt lat="42.71191" lon="1.66091">
        <ele>1176.587</ele>
        <time>2021-06-13T07:38:40Z</time>
      </trkpt>
      <trkpt lat="42.7119" lon="1.6609">
        <ele>1177.217</ele>
        <time>2021-06-13T07:38:42Z</time>
      </trkpt>
      <trkpt lat="42.71189" lon="1.66089">
        <ele>1178.399</ele>
        <time>2021-06-13T07:38:44Z</time>
      </trkpt>
      <trkpt lat="42.71188" lon="1.66087">
        <ele>1178.077</ele>
        <time>2021-06-13T07:38:46Z</time>
      </trkpt>
      <trkpt lat="42.71189" lon="1.66086">
        <ele>1180.726</ele>
        <time>2021-06-13T07:38:48Z</time>
      </trkpt>
      <trkpt lat="42.71189" lon="1.66084">
        <ele>1180.421</ele>
        <time>2021-06-13T07:38:50Z</time>
      </trkpt>
      <trkpt lat="42.7119" lon="1.66083">
        <ele>1180.017</ele>
        <time>2021-06-13T07:38:52Z</time>
      </trkpt>
      <trkpt lat="42.71192" lon="1.66082">
        <ele>1180.974</ele>
        <time>2021-06-13T07:38:54Z</time>
      </trkpt>
      <trkpt lat="42.71192" lon="1.66081">
        <ele>1180.348</ele>
        <time>2021-06-13T07:38:56Z</time>
      </trkpt>
      <trkpt lat="42.71192" lon="1.66079">
        <ele>1181.174</ele>
        <time>2021-06-13T07:38:58Z</time>
      </trkpt>
      <trkpt lat="42.71192" lon="1.66077">
        <ele>1180.987</ele>
        <time>2021-06-13T07:39:00Z</time>
      </trkpt>
      <trkpt lat="42.71191" lon="1.66076">
        <ele>1180.61</ele>
        <time>2021-06-13T07:39:02Z</time>
      </trkpt>
      <trkpt lat="42.71192" lon="1.66074">
        <ele>1180.968</ele>
        <time>2021-06-13T07:39:04Z</time>
      </trkpt>
      <trkpt lat="42.71193" lon="1.66073">
        <ele>1181.963</ele>
        <time>2021-06-13T07:39:06Z</time>
      </trkpt>
      <trkpt lat="42.71194" lon="1.66072">
        <ele>1184.062</ele>
        <time>2021-06-13T07:39:08Z</time>
      </trkpt>
      <trkpt lat="42.71195" lon="1.66071">
        <ele>1184.837</ele>
        <time>2021-06-13T07:39:10Z</time>
      </trkpt>
      <trkpt lat="42.71196" lon="1.6607">
        <ele>1184.304</ele>
        <time>2021-06-13T07:39:12Z</time>
      </trkpt>
      <trkpt lat="42.71197" lon="1.66069">
        <ele>1186.248</ele>
        <time>2021-06-13T07:39:14Z</time>
      </trkpt>
      <trkpt lat="42.71196" lon="1.66067">
        <ele>1186.421</ele>
        <time>2021-06-13T07:39:16Z</time>
      </trkpt>
      <trkpt lat="42.71196" lon="1.66066">
        <ele>1185.544</ele>
        <time>2021-06-13T07:39:18Z</time>
      </trkpt>
      <trkpt lat="42.71197" lon="1.66064">
        <ele>1186.116</ele>
        <time>2021-06-13T07:39:20Z</time>
      </trkpt>
      <trkpt lat="42.71196" lon="1.66063">
        <ele>1186.698</ele>
        <time>2021-06-13T07:39:22Z</time>
      </trkpt>
      <trkpt lat="42.71195" lon="1.66062">
        <ele>1187.6</ele>
        <time>2021-06-13T07:39:24Z</time>
      </trkpt>
      <trkpt lat="42.71195" lon="1.66062">
        <ele>1188.037</ele>
        <time>2021-06-13T07:39:26Z</time>
      </trkpt>
      <trkpt lat="42.71194" lon="1.66063">
        <ele>1188.868</ele>
        <time>2021-06-13T07:39:28Z</time>
      </trkpt>
      <trkpt lat="42.71193" lon="1.66063">
        <ele>1188.792</ele>
        <time>2021-06-13T07:39:30Z</time>
      </trkpt>
      <trkpt lat="42.71192" lon="1.66063">
        <ele>1189.9</ele>
        <time>2021-06-13T07:39:32Z</time>
      </trkpt>
      <trkpt lat="42.71191" lon="1.66062">
        <ele>1189.518</ele>
        <time>2021-06-13T07:39:34Z</time>
      </trkpt>
      <trkpt lat="42.7119" lon="1.66062">
        <ele>1189.19</ele>
        <time>2021-06-13T07:39:36Z</time>
      </trkpt>
      <trkpt lat="42.71188" lon="1.66062">
        <ele>1191.739</ele>
        <time>2021-06-13T07:39:38Z</time>
      </trkpt>
      <trkpt lat="42.71188" lon="1.66062">
        <ele>1191.526</ele>
        <time>2021-06-13T07:39:40Z</time>
      </trkpt>
      <trkpt lat="42.71188" lon="1.66061">
        <ele>1190.942</ele>
        <time>2021-06-13T07:39:42Z</time>
      </trkpt>
      <trkpt lat="42.71187" lon="1.66059">
        <ele>1192.006</ele>
        <time>2021-06-13T07:39:44Z</time>
      </trkpt>
      <trkpt lat="42.71186" lon="1.66059">
        <ele>1192.725</ele>
        <time>2021-06-13T07:39:46Z</time>
      </trkpt>
      <trkpt lat="42.71185" lon="1.66058">
        <ele>1192.161</ele>
        <time>2021-06-13T07:39:48Z</time>
      </trkpt>
      <trkpt lat="42.71185" lon="1.66058">
        <ele>1194.204</ele>
        <time>2021-06-13T07:39:50Z</time>
      </trkpt>
      <trkpt lat="42.71184" lon="1.66057">
        <ele>1196.531</ele>
        <time>2021-06-13T07:39:52Z</time>
      </trkpt>
      <trkpt lat="42.71184" lon="1.66056">
        <ele>1197.092</ele>
        <time>2021-06-13T07:39:54Z</time>
      </trkpt>
      <trkpt lat="42.71185" lon="1.66054">
        <ele>1196.912</ele>
        <time>2021-06-13T07:39:56Z</time>
      </trkpt>
      <trkpt lat="42.71186" lon="1.66052">
        <ele>1196.784</ele>
        <time>2021-06-13T07:39:58Z</time>
      </trkpt>
      <trkpt lat="42.71187" lon="1.66051">
        <ele>1196.626</ele>
        <time>2021-06-13T07:40:00Z</time>
      </trkpt>
      <trkpt lat="42.71188" lon="1.6605">
        <ele>1197.361</ele>
        <time>2021-06-13T07:40:02Z</time>
      </trkpt>
      <trkpt lat="42.71189" lon="1.6605">
        <ele>1197.372</ele>
        <time>2021-06-13T07:40:04Z</time>
      </trkpt>
      <trkpt lat="42.7119" lon="1.66049">
        <ele>1198.719</ele>
        <time>2021-06-13T07:40:06Z</time>
      </trkpt>
      <trkpt lat="42.71191" lon="1.66048">
        <ele>1199.098</ele>
        <time>2021-06-13T07:40:08Z</time>
      </trkpt>
      <trkpt lat="42.71192" lon="1.66046">
        <ele>1197.844</ele>
        <time>2021-06-13T07:40:10Z</time>
      </trkpt>
      <trkpt lat="42.71191" lon="1.66044">
        <ele>1199.455</ele>
        <time>2021-06-13T07:40:12Z</time>
      </trkpt>
      <trkpt lat="42.71192" lon="1.66042">
        <ele>1200.069</ele>
        <time>2021-06-13T07:40:14Z</time>
      </trkpt>
      <trkpt lat="42.71191" lon="1.66043">
        <ele>1199.546</ele>
        <time>2021-06-13T07:40:16Z</time>
      </trkpt>
      <trkpt lat="42.71189" lon="1.66043">
        <ele>1198.879</ele>
        <time>2021-06-13T07:40:18Z</time>
      </trkpt>
      <trkpt lat="42.71188" lon="1.66042">
        <ele>1198.272</ele>
        <time>2021-06-13T07:40:20Z</time>
      </trkpt>
      <trkpt lat="42.71186" lon="1.66042">
        <ele>1198.661</ele>
        <time>2021-06-13T07:40:22Z</time>
      </trkpt>
      <trkpt lat="42.71185" lon="1.66042">
        <ele>1200.583</ele>
        <time>2021-06-13T07:40:24Z</time>
      </trkpt>
      <trkpt lat="42.71184" lon="1.66042">
        <ele>1200.806</ele>
        <time>2021-06-13T07:40:26Z</time>
      </trkpt>
      <trkpt lat="42.71183" lon="1.66043">
        <ele>1202.175</ele>
        <time>2021-06-13T07:40:28Z</time>
      </trkpt>
      <trkpt lat="42.71182" lon="1.66043">
        <ele>1203.581</ele>
        <time>2021-06-13T07:40:30Z</time>
      </trkpt>
      <trkpt lat="42.71182" lon="1.66042">
        <ele>1204.7</ele>
        <time>2021-06-13T07:40:32Z</time>
      </trkpt>
      <trkpt lat="42.71181" lon="1.6604">
        <ele>1204.481</ele>
        <time>2021-06-13T07:40:34Z</time>
      </trkpt>
      <trkpt lat="42.71182" lon="1.66039">
        <ele>1204.605</ele>
        <time>2021-06-13T07:40:36Z</time>
      </trkpt>
      <trkpt lat="42.71182" lon="1.66039">
        <ele>1204.625</ele>
        <time>2021-06-13T07:40:38Z</time>
      </trkpt>
      <trkpt lat="42.71182" lon="1.66039">
        <ele>1204.617</ele>
        <time>2021-06-13T07:40:40Z</time>
      </trkpt>
      <trkpt lat="42.71182" lon="1.66039">
        <ele>1204.629</ele>
        <time>2021-06-13T07:40:42Z</time>
      </trkpt>
      <trkpt lat="42.71182" lon="1.66038">
        <ele>1204.302</ele>
        <time>2021-06-13T07:40:44Z</time>
      </trkpt>
      <trkpt lat="42.71182" lon="1.66038">
        <ele>1204.312</ele>
        <time>2021-06-13T07:40:46Z</time>
      </trkpt>
      <trkpt lat="42.71182" lon="1.66038">
        <ele>1204.302</ele>
        <time>2021-06-13T07:40:48Z</time>
      </trkpt>
      <trkpt lat="42.71182" lon="1.66038">
        <ele>1204.292</ele>
        <time>2021-06-13T07:40:50Z</time>
      </trkpt>
      <trkpt lat="42.71182" lon="1.66038">
        <ele>1204.242</ele>
        <time>2021-06-13T07:40:52Z</time>
      </trkpt>
      <trkpt lat="42.71182" lon="1.66038">
        <ele>1204.273</ele>
        <time>2021-06-13T07:40:54Z</time>
      </trkpt>
      <trkpt lat="42.71182" lon="1.66038">
        <ele>1204.249</ele>
        <time>2021-06-13T07:40:56Z</time>
      </trkpt>
      <trkpt lat="42.71182" lon="1.66038">
        <ele>1204.183</ele>
        <time>2021-06-13T07:40:58Z</time>
      </trkpt>
      <trkpt lat="42.71182" lon="1.66037">
        <ele>1204.426</ele>
        <time>2021-06-13T07:41:00Z</time>
      </trkpt>
      <trkpt lat="42.71184" lon="1.66035">
        <ele>1205.81</ele>
        <time>2021-06-13T07:41:02Z</time>
      </trkpt>
      <trkpt lat="42.71184" lon="1.66032">
        <ele>1205.842</ele>
        <time>2021-06-13T07:41:04Z</time>
      </trkpt>
      <trkpt lat="42.71184" lon="1.66031">
        <ele>1205.912</ele>
        <time>2021-06-13T07:41:06Z</time>
      </trkpt>
      <trkpt lat="42.71184" lon="1.6603">
        <ele>1205.293</ele>
        <time>2021-06-13T07:41:08Z</time>
      </trkpt>
      <trkpt lat="42.71184" lon="1.66029">
        <ele>1205.284</ele>
        <time>2021-06-13T07:41:10Z</time>
      </trkpt>
      <trkpt lat="42.71184" lon="1.66027">
        <ele>1206.728</ele>
        <time>2021-06-13T07:41:12Z</time>
      </trkpt>
      <trkpt lat="42.71184" lon="1.66026">
        <ele>1206.498</ele>
        <time>2021-06-13T07:41:14Z</time>
      </trkpt>
      <trkpt lat="42.71183" lon="1.66026">
        <ele>1206.122</ele>
        <time>2021-06-13T07:41:16Z</time>
      </trkpt>
      <trkpt lat="42.71181" lon="1.66026">
        <ele>1204.3</ele>
        <time>2021-06-13T07:41:18Z</time>
      </trkpt>
      <trkpt lat="42.71179" lon="1.66025">
        <ele>1203.212</ele>
        <time>2021-06-13T07:41:20Z</time>
      </trkpt>
      <trkpt lat="42.71179" lon="1.66024">
        <ele>1204.05</ele>
        <time>2021-06-13T07:41:22Z</time>
      </trkpt>
      <trkpt lat="42.71179" lon="1.66023">
        <ele>1204.535</ele>
        <time>2021-06-13T07:41:24Z</time>
      </trkpt>
      <trkpt lat="42.71179" lon="1.66022">
        <ele>1205.797</ele>
        <time>2021-06-13T07:41:26Z</time>
      </trkpt>
      <trkpt lat="42.71179" lon="1.6602">
        <ele>1206.455</ele>
        <time>2021-06-13T07:41:28Z</time>
      </trkpt>
      <trkpt lat="42.7118" lon="1.66019">
        <ele>1208.064</ele>
        <time>2021-06-13T07:41:30Z</time>
      </trkpt>
      <trkpt lat="42.71182" lon="1.66018">
        <ele>1209.478</ele>
        <time>2021-06-13T07:41:32Z</time>
      </trkpt>
      <trkpt lat="42.71183" lon="1.66017">
        <ele>1210.308</ele>
        <time>2021-06-13T07:41:34Z</time>
      </trkpt>
      <trkpt lat="42.71185" lon="1.66016">
        <ele>1211.948</ele>
        <time>2021-06-13T07:41:36Z</time>
      </trkpt>
      <trkpt lat="42.71186" lon="1.66016">
        <ele>1214.381</ele>
        <time>2021-06-13T07:41:38Z</time>
      </trkpt>
      <trkpt lat="42.71188" lon="1.66015">
        <ele>1215.354</ele>
        <time>2021-06-13T07:41:40Z</time>
      </trkpt>
      <trkpt lat="42.71188" lon="1.66014">
        <ele>1215.992</ele>
        <time>2021-06-13T07:41:42Z</time>
      </trkpt>
      <trkpt lat="42.71189" lon="1.66013">
        <ele>1214.263</ele>
        <time>2021-06-13T07:41:44Z</time>
      </trkpt>
      <trkpt lat="42.71189" lon="1.66011">
        <ele>1213.984</ele>
        <time>2021-06-13T07:41:46Z</time>
      </trkpt>
      <trkpt lat="42.7119" lon="1.6601">
        <ele>1214.169</ele>
        <time>2021-06-13T07:41:48Z</time>
      </trkpt>
      <trkpt lat="42.7119" lon="1.66008">
        <ele>1213.526</ele>
        <time>2021-06-13T07:41:50Z</time>
      </trkpt>
      <trkpt lat="42.71192" lon="1.66007">
        <ele>1217.903</ele>
        <time>2021-06-13T07:41:52Z</time>
      </trkpt>
      <trkpt lat="42.71192" lon="1.66006">
        <ele>1218.438</ele>
        <time>2021-06-13T07:41:54Z</time>
      </trkpt>
      <trkpt lat="42.71194" lon="1.66006">
        <ele>1218.718</ele>
        <time>2021-06-13T07:41:56Z</time>
      </trkpt>
      <trkpt lat="42.71196" lon="1.66006">
        <ele>1219.456</ele>
        <time>2021-06-13T07:41:58Z</time>
      </trkpt>
      <trkpt lat="42.71197" lon="1.66006">
        <ele>1221.051</ele>
        <time>2021-06-13T07:42:00Z</time>
      </trkpt>
      <trkpt lat="42.71197" lon="1.66006">
        <ele>1221.059</ele>
        <time>2021-06-13T07:42:02Z</time>
      </trkpt>
      <trkpt lat="42.71197" lon="1.66005">
        <ele>1220.506</ele>
        <time>2021-06-13T07:42:04Z</time>
      </trkpt>
      <trkpt lat="42.71199" lon="1.66005">
        <ele>1221.316</ele>
        <time>2021-06-13T07:42:06Z</time>
      </trkpt>
      <trkpt lat="42.71201" lon="1.66004">
        <ele>1222.138</ele>
        <time>2021-06-13T07:42:08Z</time>
      </trkpt>
      <trkpt lat="42.71201" lon="1.66003">
        <ele>1223.466</ele>
        <time>2021-06-13T07:42:10Z</time>
      </trkpt>
      <trkpt lat="42.71203" lon="1.66001">
        <ele>1224.675</ele>
        <time>2021-06-13T07:42:12Z</time>
      </trkpt>
      <trkpt lat="42.71203" lon="1.66">
        <ele>1223.528</ele>
        <time>2021-06-13T07:42:14Z</time>
      </trkpt>
      <trkpt lat="42.71204" lon="1.65999">
        <ele>1224.579</ele>
        <time>2021-06-13T07:42:16Z</time>
      </trkpt>
      <trkpt lat="42.71206" lon="1.65999">
        <ele>1225.908</ele>
        <time>2021-06-13T07:42:18Z</time>
      </trkpt>
      <trkpt lat="42.71206" lon="1.66">
        <ele>1226.142</ele>
        <time>2021-06-13T07:42:20Z</time>
      </trkpt>
      <trkpt lat="42.71207" lon="1.66">
        <ele>1226.251</ele>
        <time>2021-06-13T07:42:22Z</time>
      </trkpt>
      <trkpt lat="42.71208" lon="1.65999">
        <ele>1226.284</ele>
        <time>2021-06-13T07:42:24Z</time>
      </trkpt>
      <trkpt lat="42.71209" lon="1.65998">
        <ele>1227.385</ele>
        <time>2021-06-13T07:42:26Z</time>
      </trkpt>
      <trkpt lat="42.7121" lon="1.65996">
        <ele>1227.677</ele>
        <time>2021-06-13T07:42:28Z</time>
      </trkpt>
      <trkpt lat="42.71212" lon="1.65995">
        <ele>1228.657</ele>
        <time>2021-06-13T07:42:30Z</time>
      </trkpt>
      <trkpt lat="42.71212" lon="1.65994">
        <ele>1228.945</ele>
        <time>2021-06-13T07:42:32Z</time>
      </trkpt>
      <trkpt lat="42.71214" lon="1.65994">
        <ele>1229.946</ele>
        <time>2021-06-13T07:42:34Z</time>
      </trkpt>
      <trkpt lat="42.71216" lon="1.65993">
        <ele>1229.846</ele>
        <time>2021-06-13T07:42:36Z</time>
      </trkpt>
      <trkpt lat="42.71218" lon="1.65991">
        <ele>1229.72</ele>
        <time>2021-06-13T07:42:38Z</time>
      </trkpt>
      <trkpt lat="42.71218" lon="1.6599">
        <ele>1228.325</ele>
        <time>2021-06-13T07:42:40Z</time>
      </trkpt>
      <trkpt lat="42.71217" lon="1.65989">
        <ele>1228.839</ele>
        <time>2021-06-13T07:42:42Z</time>
      </trkpt>
      <trkpt lat="42.71216" lon="1.65988">
        <ele>1228.438</ele>
        <time>2021-06-13T07:42:44Z</time>
      </trkpt>
      <trkpt lat="42.71215" lon="1.65987">
        <ele>1227.768</ele>
        <time>2021-06-13T07:42:46Z</time>
      </trkpt>
      <trkpt lat="42.71214" lon="1.65986">
        <ele>1226.902</ele>
        <time>2021-06-13T07:42:48Z</time>
      </trkpt>
      <trkpt lat="42.71213" lon="1.65985">
        <ele>1227.723</ele>
        <time>2021-06-13T07:42:50Z</time>
      </trkpt>
      <trkpt lat="42.71212" lon="1.65984">
        <ele>1226.495</ele>
        <time>2021-06-13T07:42:52Z</time>
      </trkpt>
      <trkpt lat="42.71211" lon="1.65984">
        <ele>1225.945</ele>
        <time>2021-06-13T07:42:54Z</time>
      </trkpt>
      <trkpt lat="42.71209" lon="1.65983">
        <ele>1225.989</ele>
        <time>2021-06-13T07:42:56Z</time>
      </trkpt>
      <trkpt lat="42.71208" lon="1.65982">
        <ele>1226.174</ele>
        <time>2021-06-13T07:42:58Z</time>
      </trkpt>
      <trkpt lat="42.71207" lon="1.65982">
        <ele>1226.439</ele>
        <time>2021-06-13T07:43:00Z</time>
      </trkpt>
      <trkpt lat="42.71206" lon="1.65981">
        <ele>1226.551</ele>
        <time>2021-06-13T07:43:02Z</time>
      </trkpt>
      <trkpt lat="42.71206" lon="1.6598">
        <ele>1225.843</ele>
        <time>2021-06-13T07:43:04Z</time>
      </trkpt>
      <trkpt lat="42.71205" lon="1.65979">
        <ele>1226.453</ele>
        <time>2021-06-13T07:43:06Z</time>
      </trkpt>
      <trkpt lat="42.71204" lon="1.65978">
        <ele>1226.16</ele>
        <time>2021-06-13T07:43:08Z</time>
      </trkpt>
      <trkpt lat="42.71203" lon="1.65978">
        <ele>1226.81</ele>
        <time>2021-06-13T07:43:10Z</time>
      </trkpt>
      <trkpt lat="42.71202" lon="1.65978">
        <ele>1227.492</ele>
        <time>2021-06-13T07:43:12Z</time>
      </trkpt>
      <trkpt lat="42.712" lon="1.65979">
        <ele>1227.952</ele>
        <time>2021-06-13T07:43:14Z</time>
      </trkpt>
      <trkpt lat="42.71199" lon="1.65979">
        <ele>1228.047</ele>
        <time>2021-06-13T07:43:16Z</time>
      </trkpt>
      <trkpt lat="42.71198" lon="1.65979">
        <ele>1228.505</ele>
        <time>2021-06-13T07:43:18Z</time>
      </trkpt>
      <trkpt lat="42.71197" lon="1.65979">
        <ele>1229.653</ele>
        <time>2021-06-13T07:43:20Z</time>
      </trkpt>
      <trkpt lat="42.71195" lon="1.65979">
        <ele>1231.111</ele>
        <time>2021-06-13T07:43:22Z</time>
      </trkpt>
      <trkpt lat="42.71194" lon="1.6598">
        <ele>1231.018</ele>
        <time>2021-06-13T07:43:24Z</time>
      </trkpt>
      <trkpt lat="42.71192" lon="1.65981">
        <ele>1230.376</ele>
        <time>2021-06-13T07:43:26Z</time>
      </trkpt>
      <trkpt lat="42.71191" lon="1.65981">
        <ele>1230.75</ele>
        <time>2021-06-13T07:43:28Z</time>
      </trkpt>
      <trkpt lat="42.71189" lon="1.6598">
        <ele>1231.632</ele>
        <time>2021-06-13T07:43:30Z</time>
      </trkpt>
      <trkpt lat="42.71187" lon="1.65979">
        <ele>1232.107</ele>
        <time>2021-06-13T07:43:32Z</time>
      </trkpt>
      <trkpt lat="42.71186" lon="1.65978">
        <ele>1231.555</ele>
        <time>2021-06-13T07:43:34Z</time>
      </trkpt>
      <trkpt lat="42.71184" lon="1.65977">
        <ele>1232.863</ele>
        <time>2021-06-13T07:43:36Z</time>
      </trkpt>
      <trkpt lat="42.71184" lon="1.65976">
        <ele>1233.326</ele>
        <time>2021-06-13T07:43:38Z</time>
      </trkpt>
      <trkpt lat="42.71182" lon="1.65975">
        <ele>1233.85</ele>
        <time>2021-06-13T07:43:40Z</time>
      </trkpt>
      <trkpt lat="42.71182" lon="1.65975">
        <ele>1234.959</ele>
        <time>2021-06-13T07:43:42Z</time>
      </trkpt>
      <trkpt lat="42.7118" lon="1.65975">
        <ele>1234.825</ele>
        <time>2021-06-13T07:43:44Z</time>
      </trkpt>
      <trkpt lat="42.71179" lon="1.65976">
        <ele>1235.793</ele>
        <time>2021-06-13T07:43:46Z</time>
      </trkpt>
      <trkpt lat="42.71178" lon="1.65977">
        <ele>1236.401</ele>
        <time>2021-06-13T07:43:48Z</time>
      </trkpt>
      <trkpt lat="42.71177" lon="1.65978">
        <ele>1238.609</ele>
        <time>2021-06-13T07:43:50Z</time>
      </trkpt>
      <trkpt lat="42.71176" lon="1.65979">
        <ele>1240.116</ele>
        <time>2021-06-13T07:43:52Z</time>
      </trkpt>
      <trkpt lat="42.71175" lon="1.65979">
        <ele>1240.13</ele>
        <time>2021-06-13T07:43:54Z</time>
      </trkpt>
      <trkpt lat="42.71173" lon="1.65978">
        <ele>1240.7</ele>
        <time>2021-06-13T07:43:56Z</time>
      </trkpt>
      <trkpt lat="42.71171" lon="1.65979">
        <ele>1241.693</ele>
        <time>2021-06-13T07:43:58Z</time>
      </trkpt>
      <trkpt lat="42.71169" lon="1.65978">
        <ele>1243.265</ele>
        <time>2021-06-13T07:44:00Z</time>
      </trkpt>
      <trkpt lat="42.71167" lon="1.65977">
        <ele>1243.004</ele>
        <time>2021-06-13T07:44:02Z</time>
      </trkpt>
      <trkpt lat="42.71166" lon="1.65977">
        <ele>1242.715</ele>
        <time>2021-06-13T07:44:04Z</time>
      </trkpt>
      <trkpt lat="42.71165" lon="1.65976">
        <ele>1242.301</ele>
        <time>2021-06-13T07:44:06Z</time>
      </trkpt>
      <trkpt lat="42.71163" lon="1.65975">
        <ele>1241.443</ele>
        <time>2021-06-13T07:44:08Z</time>
      </trkpt>
      <trkpt lat="42.71162" lon="1.65974">
        <ele>1241.251</ele>
        <time>2021-06-13T07:44:10Z</time>
      </trkpt>
      <trkpt lat="42.7116" lon="1.65974">
        <ele>1241.471</ele>
        <time>2021-06-13T07:44:12Z</time>
      </trkpt>
      <trkpt lat="42.71159" lon="1.65974">
        <ele>1242.42</ele>
        <time>2021-06-13T07:44:14Z</time>
      </trkpt>
      <trkpt lat="42.71158" lon="1.65974">
        <ele>1243.293</ele>
        <time>2021-06-13T07:44:16Z</time>
      </trkpt>
      <trkpt lat="42.71157" lon="1.65974">
        <ele>1244.832</ele>
        <time>2021-06-13T07:44:18Z</time>
      </trkpt>
      <trkpt lat="42.71156" lon="1.65974">
        <ele>1245.021</ele>
        <time>2021-06-13T07:44:20Z</time>
      </trkpt>
      <trkpt lat="42.71155" lon="1.65975">
        <ele>1246.495</ele>
        <time>2021-06-13T07:44:22Z</time>
      </trkpt>
      <trkpt lat="42.71153" lon="1.65974">
        <ele>1246.501</ele>
        <time>2021-06-13T07:44:24Z</time>
      </trkpt>
      <trkpt lat="42.71152" lon="1.65974">
        <ele>1248.775</ele>
        <time>2021-06-13T07:44:26Z</time>
      </trkpt>
      <trkpt lat="42.71151" lon="1.65974">
        <ele>1249.653</ele>
        <time>2021-06-13T07:44:28Z</time>
      </trkpt>
      <trkpt lat="42.7115" lon="1.65973">
        <ele>1251.477</ele>
        <time>2021-06-13T07:44:30Z</time>
      </trkpt>
      <trkpt lat="42.71149" lon="1.65971">
        <ele>1253.405</ele>
        <time>2021-06-13T07:44:32Z</time>
      </trkpt>
      <trkpt lat="42.71149" lon="1.6597">
        <ele>1253.639</ele>
        <time>2021-06-13T07:44:34Z</time>
      </trkpt>
      <trkpt lat="42.71149" lon="1.65969">
        <ele>1251.428</ele>
        <time>2021-06-13T07:44:36Z</time>
      </trkpt>
      <trkpt lat="42.71149" lon="1.65967">
        <ele>1251.878</ele>
        <time>2021-06-13T07:44:38Z</time>
      </trkpt>
      <trkpt lat="42.7115" lon="1.65966">
        <ele>1253.688</ele>
        <time>2021-06-13T07:44:40Z</time>
      </trkpt>
      <trkpt lat="42.7115" lon="1.65964">
        <ele>1253.006</ele>
        <time>2021-06-13T07:44:42Z</time>
      </trkpt>
      <trkpt lat="42.71148" lon="1.65963">
        <ele>1252.45</ele>
        <time>2021-06-13T07:44:44Z</time>
      </trkpt>
      <trkpt lat="42.71148" lon="1.65961">
        <ele>1251.886</ele>
        <time>2021-06-13T07:44:46Z</time>
      </trkpt>
      <trkpt lat="42.71147" lon="1.65959">
        <ele>1251.119</ele>
        <time>2021-06-13T07:44:48Z</time>
      </trkpt>
      <trkpt lat="42.71147" lon="1.65958">
        <ele>1251.703</ele>
        <time>2021-06-13T07:44:50Z</time>
      </trkpt>
      <trkpt lat="42.71148" lon="1.65958">
        <ele>1252.417</ele>
        <time>2021-06-13T07:44:52Z</time>
      </trkpt>
      <trkpt lat="42.71148" lon="1.65957">
        <ele>1252.498</ele>
        <time>2021-06-13T07:44:54Z</time>
      </trkpt>
      <trkpt lat="42.71147" lon="1.65956">
        <ele>1251.849</ele>
        <time>2021-06-13T07:44:56Z</time>
      </trkpt>
      <trkpt lat="42.71147" lon="1.65955">
        <ele>1253.318</ele>
        <time>2021-06-13T07:44:58Z</time>
      </trkpt>
      <trkpt lat="42.71148" lon="1.65954">
        <ele>1256.569</ele>
        <time>2021-06-13T07:45:00Z</time>
      </trkpt>
      <trkpt lat="42.71149" lon="1.65953">
        <ele>1257.978</ele>
        <time>2021-06-13T07:45:02Z</time>
      </trkpt>
      <trkpt lat="42.7115" lon="1.65952">
        <ele>1259.07</ele>
        <time>2021-06-13T07:45:04Z</time>
      </trkpt>
      <trkpt lat="42.7115" lon="1.65951">
        <ele>1258.303</ele>
        <time>2021-06-13T07:45:06Z</time>
      </trkpt>
      <trkpt lat="42.7115" lon="1.6595">
        <ele>1259.214</ele>
        <time>2021-06-13T07:45:08Z</time>
      </trkpt>
      <trkpt lat="42.7115" lon="1.65948">
        <ele>1259.609</ele>
        <time>2021-06-13T07:45:10Z</time>
      </trkpt>
      <trkpt lat="42.71149" lon="1.65949">
        <ele>1260.144</ele>
        <time>2021-06-13T07:45:12Z</time>
      </trkpt>
      <trkpt lat="42.71148" lon="1.65949">
        <ele>1261.567</ele>
        <time>2021-06-13T07:45:14Z</time>
      </trkpt>
      <trkpt lat="42.71147" lon="1.6595">
        <ele>1264.104</ele>
        <time>2021-06-13T07:45:16Z</time>
      </trkpt>
      <trkpt lat="42.71146" lon="1.6595">
        <ele>1264.244</ele>
        <time>2021-06-13T07:45:18Z</time>
      </trkpt>
      <trkpt lat="42.71145" lon="1.65951">
        <ele>1264.546</ele>
        <time>2021-06-13T07:45:20Z</time>
      </trkpt>
      <trkpt lat="42.71144" lon="1.65951">
        <ele>1264.343</ele>
        <time>2021-06-13T07:45:22Z</time>
      </trkpt>
      <trkpt lat="42.71142" lon="1.65952">
        <ele>1264.226</ele>
        <time>2021-06-13T07:45:24Z</time>
      </trkpt>
      <trkpt lat="42.71141" lon="1.65951">
        <ele>1263.831</ele>
        <time>2021-06-13T07:45:26Z</time>
      </trkpt>
      <trkpt lat="42.71139" lon="1.65952">
        <ele>1263.604</ele>
        <time>2021-06-13T07:45:28Z</time>
      </trkpt>
      <trkpt lat="42.71138" lon="1.65952">
        <ele>1264.833</ele>
        <time>2021-06-13T07:45:30Z</time>
      </trkpt>
      <trkpt lat="42.71137" lon="1.65952">
        <ele>1265.597</ele>
        <time>2021-06-13T07:45:31Z</time>
      </trkpt>
      <trkpt lat="42.71135" lon="1.65953">
        <ele>1268.34</ele>
        <time>2021-06-13T07:45:34Z</time>
      </trkpt>
      <trkpt lat="42.71134" lon="1.65954">
        <ele>1268.809</ele>
        <time>2021-06-13T07:45:36Z</time>
      </trkpt>
      <trkpt lat="42.71132" lon="1.65954">
        <ele>1269.707</ele>
        <time>2021-06-13T07:45:38Z</time>
      </trkpt>
      <trkpt lat="42.71131" lon="1.65954">
        <ele>1270.388</ele>
        <time>2021-06-13T07:45:40Z</time>
      </trkpt>
      <trkpt lat="42.71134" lon="1.65952">
        <ele>1272.04</ele>
        <time>2021-06-13T07:45:42Z</time>
      </trkpt>
      <trkpt lat="42.71134" lon="1.65949">
        <ele>1270.825</ele>
        <time>2021-06-13T07:45:44Z</time>
      </trkpt>
      <trkpt lat="42.71135" lon="1.65948">
        <ele>1269.624</ele>
        <time>2021-06-13T07:45:46Z</time>
      </trkpt>
      <trkpt lat="42.71136" lon="1.65946">
        <ele>1268.464</ele>
        <time>2021-06-13T07:45:48Z</time>
      </trkpt>
      <trkpt lat="42.71137" lon="1.65944">
        <ele>1268.314</ele>
        <time>2021-06-13T07:45:50Z</time>
      </trkpt>
      <trkpt lat="42.71138" lon="1.65942">
        <ele>1269.657</ele>
        <time>2021-06-13T07:45:52Z</time>
      </trkpt>
      <trkpt lat="42.71139" lon="1.65941">
        <ele>1271.713</ele>
        <time>2021-06-13T07:45:54Z</time>
      </trkpt>
      <trkpt lat="42.71138" lon="1.65939">
        <ele>1271.833</ele>
        <time>2021-06-13T07:45:56Z</time>
      </trkpt>
      <trkpt lat="42.71136" lon="1.65938">
        <ele>1271.219</ele>
        <time>2021-06-13T07:45:58Z</time>
      </trkpt>
      <trkpt lat="42.71135" lon="1.65938">
        <ele>1270.758</ele>
        <time>2021-06-13T07:46:00Z</time>
      </trkpt>
      <trkpt lat="42.71134" lon="1.65938">
        <ele>1270.237</ele>
        <time>2021-06-13T07:46:02Z</time>
      </trkpt>
      <trkpt lat="42.71132" lon="1.65938">
        <ele>1270.323</ele>
        <time>2021-06-13T07:46:04Z</time>
      </trkpt>
      <trkpt lat="42.7113" lon="1.65938">
        <ele>1270.041</ele>
        <time>2021-06-13T07:46:06Z</time>
      </trkpt>
      <trkpt lat="42.71128" lon="1.6594">
        <ele>1270.623</ele>
        <time>2021-06-13T07:46:08Z</time>
      </trkpt>
      <trkpt lat="42.71127" lon="1.6594">
        <ele>1270.058</ele>
        <time>2021-06-13T07:46:10Z</time>
      </trkpt>
      <trkpt lat="42.71125" lon="1.6594">
        <ele>1270.929</ele>
        <time>2021-06-13T07:46:12Z</time>
      </trkpt>
      <trkpt lat="42.71124" lon="1.6594">
        <ele>1273.034</ele>
        <time>2021-06-13T07:46:14Z</time>
      </trkpt>
      <trkpt lat="42.71123" lon="1.65941">
        <ele>1273.714</ele>
        <time>2021-06-13T07:46:16Z</time>
      </trkpt>
      <trkpt lat="42.71122" lon="1.6594">
        <ele>1276.221</ele>
        <time>2021-06-13T07:46:18Z</time>
      </trkpt>
      <trkpt lat="42.71121" lon="1.65939">
        <ele>1275.883</ele>
        <time>2021-06-13T07:46:20Z</time>
      </trkpt>
      <trkpt lat="42.71122" lon="1.65937">
        <ele>1274.582</ele>
        <time>2021-06-13T07:46:22Z</time>
      </trkpt>
      <trkpt lat="42.71123" lon="1.65936">
        <ele>1274.132</ele>
        <time>2021-06-13T07:46:24Z</time>
      </trkpt>
      <trkpt lat="42.71124" lon="1.65934">
        <ele>1274.112</ele>
        <time>2021-06-13T07:46:26Z</time>
      </trkpt>
      <trkpt lat="42.71124" lon="1.65931">
        <ele>1273.062</ele>
        <time>2021-06-13T07:46:28Z</time>
      </trkpt>
      <trkpt lat="42.71125" lon="1.65929">
        <ele>1273.32</ele>
        <time>2021-06-13T07:46:30Z</time>
      </trkpt>
      <trkpt lat="42.71125" lon="1.65928">
        <ele>1272.616</ele>
        <time>2021-06-13T07:46:32Z</time>
      </trkpt>
      <trkpt lat="42.71126" lon="1.65927">
        <ele>1272.756</ele>
        <time>2021-06-13T07:46:34Z</time>
      </trkpt>
      <trkpt lat="42.71127" lon="1.65926">
        <ele>1273.806</ele>
        <time>2021-06-13T07:46:36Z</time>
      </trkpt>
      <trkpt lat="42.71126" lon="1.65924">
        <ele>1274.82</ele>
        <time>2021-06-13T07:46:38Z</time>
      </trkpt>
      <trkpt lat="42.71125" lon="1.65924">
        <ele>1274.497</ele>
        <time>2021-06-13T07:46:40Z</time>
      </trkpt>
      <trkpt lat="42.71124" lon="1.65924">
        <ele>1274.471</ele>
        <time>2021-06-13T07:46:42Z</time>
      </trkpt>
      <trkpt lat="42.71122" lon="1.65925">
        <ele>1275.2</ele>
        <time>2021-06-13T07:46:44Z</time>
      </trkpt>
      <trkpt lat="42.71121" lon="1.65926">
        <ele>1276.299</ele>
        <time>2021-06-13T07:46:46Z</time>
      </trkpt>
      <trkpt lat="42.7112" lon="1.65926">
        <ele>1275.999</ele>
        <time>2021-06-13T07:46:48Z</time>
      </trkpt>
      <trkpt lat="42.71119" lon="1.65927">
        <ele>1277.055</ele>
        <time>2021-06-13T07:46:50Z</time>
      </trkpt>
      <trkpt lat="42.71118" lon="1.65927">
        <ele>1278.236</ele>
        <time>2021-06-13T07:46:52Z</time>
      </trkpt>
      <trkpt lat="42.71117" lon="1.65927">
        <ele>1280.808</ele>
        <time>2021-06-13T07:46:54Z</time>
      </trkpt>
      <trkpt lat="42.71116" lon="1.65927">
        <ele>1280.482</ele>
        <time>2021-06-13T07:46:56Z</time>
      </trkpt>
      <trkpt lat="42.71115" lon="1.65927">
        <ele>1280.345</ele>
        <time>2021-06-13T07:46:58Z</time>
      </trkpt>
      <trkpt lat="42.71114" lon="1.65925">
        <ele>1281.088</ele>
        <time>2021-06-13T07:47:00Z</time>
      </trkpt>
      <trkpt lat="42.71113" lon="1.65924">
        <ele>1280.731</ele>
        <time>2021-06-13T07:47:02Z</time>
      </trkpt>
      <trkpt lat="42.71111" lon="1.65923">
        <ele>1281.521</ele>
        <time>2021-06-13T07:47:04Z</time>
      </trkpt>
      <trkpt lat="42.7111" lon="1.65923">
        <ele>1283.304</ele>
        <time>2021-06-13T07:47:06Z</time>
      </trkpt>
      <trkpt lat="42.7111" lon="1.65924">
        <ele>1284.16</ele>
        <time>2021-06-13T07:47:08Z</time>
      </trkpt>
      <trkpt lat="42.71108" lon="1.65923">
        <ele>1284.545</ele>
        <time>2021-06-13T07:47:10Z</time>
      </trkpt>
      <trkpt lat="42.71107" lon="1.65922">
        <ele>1284.296</ele>
        <time>2021-06-13T07:47:12Z</time>
      </trkpt>
      <trkpt lat="42.71107" lon="1.6592">
        <ele>1282.017</ele>
        <time>2021-06-13T07:47:14Z</time>
      </trkpt>
      <trkpt lat="42.71109" lon="1.6592">
        <ele>1283.556</ele>
        <time>2021-06-13T07:47:16Z</time>
      </trkpt>
      <trkpt lat="42.71108" lon="1.65918">
        <ele>1282.988</ele>
        <time>2021-06-13T07:47:18Z</time>
      </trkpt>
      <trkpt lat="42.71109" lon="1.65918">
        <ele>1284.542</ele>
        <time>2021-06-13T07:47:20Z</time>
      </trkpt>
      <trkpt lat="42.71108" lon="1.65917">
        <ele>1285.018</ele>
        <time>2021-06-13T07:47:22Z</time>
      </trkpt>
      <trkpt lat="42.71107" lon="1.65916">
        <ele>1284.289</ele>
        <time>2021-06-13T07:47:24Z</time>
      </trkpt>
      <trkpt lat="42.71106" lon="1.65916">
        <ele>1284.596</ele>
        <time>2021-06-13T07:47:26Z</time>
      </trkpt>
      <trkpt lat="42.71105" lon="1.65915">
        <ele>1285.927</ele>
        <time>2021-06-13T07:47:28Z</time>
      </trkpt>
      <trkpt lat="42.71104" lon="1.65915">
        <ele>1285.347</ele>
        <time>2021-06-13T07:47:30Z</time>
      </trkpt>
      <trkpt lat="42.71103" lon="1.65914">
        <ele>1286.16</ele>
        <time>2021-06-13T07:47:32Z</time>
      </trkpt>
      <trkpt lat="42.71102" lon="1.65914">
        <ele>1288.143</ele>
        <time>2021-06-13T07:47:34Z</time>
      </trkpt>
      <trkpt lat="42.71103" lon="1.65914">
        <ele>1290.189</ele>
        <time>2021-06-13T07:47:36Z</time>
      </trkpt>
      <trkpt lat="42.71103" lon="1.65913">
        <ele>1288.863</ele>
        <time>2021-06-13T07:47:38Z</time>
      </trkpt>
      <trkpt lat="42.71103" lon="1.65912">
        <ele>1288.842</ele>
        <time>2021-06-13T07:47:40Z</time>
      </trkpt>
      <trkpt lat="42.71104" lon="1.65913">
        <ele>1291.165</ele>
        <time>2021-06-13T07:47:42Z</time>
      </trkpt>
      <trkpt lat="42.71103" lon="1.65912">
        <ele>1290.507</ele>
        <time>2021-06-13T07:47:44Z</time>
      </trkpt>
      <trkpt lat="42.71102" lon="1.65911">
        <ele>1290.955</ele>
        <time>2021-06-13T07:47:46Z</time>
      </trkpt>
      <trkpt lat="42.71102" lon="1.65911">
        <ele>1292.03</ele>
        <time>2021-06-13T07:47:48Z</time>
      </trkpt>
      <trkpt lat="42.71101" lon="1.6591">
        <ele>1292.49</ele>
        <time>2021-06-13T07:47:50Z</time>
      </trkpt>
      <trkpt lat="42.711" lon="1.6591">
        <ele>1292.686</ele>
        <time>2021-06-13T07:47:52Z</time>
      </trkpt>
      <trkpt lat="42.71099" lon="1.65909">
        <ele>1291.702</ele>
        <time>2021-06-13T07:47:54Z</time>
      </trkpt>
      <trkpt lat="42.71099" lon="1.65908">
        <ele>1291.104</ele>
        <time>2021-06-13T07:47:56Z</time>
      </trkpt>
      <trkpt lat="42.71099" lon="1.65907">
        <ele>1288.604</ele>
        <time>2021-06-13T07:47:58Z</time>
      </trkpt>
      <trkpt lat="42.71099" lon="1.65906">
        <ele>1287.184</ele>
        <time>2021-06-13T07:48:00Z</time>
      </trkpt>
      <trkpt lat="42.71098" lon="1.65905">
        <ele>1286.083</ele>
        <time>2021-06-13T07:48:02Z</time>
      </trkpt>
      <trkpt lat="42.71097" lon="1.65904">
        <ele>1285.763</ele>
        <time>2021-06-13T07:48:04Z</time>
      </trkpt>
      <trkpt lat="42.71096" lon="1.65903">
        <ele>1286.432</ele>
        <time>2021-06-13T07:48:06Z</time>
      </trkpt>
      <trkpt lat="42.71095" lon="1.65901">
        <ele>1286.995</ele>
        <time>2021-06-13T07:48:08Z</time>
      </trkpt>
      <trkpt lat="42.71096" lon="1.659">
        <ele>1288.574</ele>
        <time>2021-06-13T07:48:10Z</time>
      </trkpt>
      <trkpt lat="42.71096" lon="1.65899">
        <ele>1288.798</ele>
        <time>2021-06-13T07:48:12Z</time>
      </trkpt>
      <trkpt lat="42.71096" lon="1.65898">
        <ele>1288.861</ele>
        <time>2021-06-13T07:48:14Z</time>
      </trkpt>
      <trkpt lat="42.71096" lon="1.65897">
        <ele>1290.615</ele>
        <time>2021-06-13T07:48:16Z</time>
      </trkpt>
      <trkpt lat="42.71096" lon="1.65896">
        <ele>1292.969</ele>
        <time>2021-06-13T07:48:18Z</time>
      </trkpt>
      <trkpt lat="42.71095" lon="1.65897">
        <ele>1294.196</ele>
        <time>2021-06-13T07:48:20Z</time>
      </trkpt>
      <trkpt lat="42.71094" lon="1.65897">
        <ele>1295.765</ele>
        <time>2021-06-13T07:48:22Z</time>
      </trkpt>
      <trkpt lat="42.71094" lon="1.65897">
        <ele>1296.879</ele>
        <time>2021-06-13T07:48:24Z</time>
      </trkpt>
      <trkpt lat="42.71095" lon="1.65897">
        <ele>1297.244</ele>
        <time>2021-06-13T07:48:26Z</time>
      </trkpt>
      <trkpt lat="42.71094" lon="1.65897">
        <ele>1297.799</ele>
        <time>2021-06-13T07:48:28Z</time>
      </trkpt>
      <trkpt lat="42.71095" lon="1.65896">
        <ele>1298.781</ele>
        <time>2021-06-13T07:48:30Z</time>
      </trkpt>
      <trkpt lat="42.71095" lon="1.65895">
        <ele>1298.793</ele>
        <time>2021-06-13T07:48:32Z</time>
      </trkpt>
      <trkpt lat="42.71096" lon="1.65895">
        <ele>1298.8</ele>
        <time>2021-06-13T07:48:34Z</time>
      </trkpt>
      <trkpt lat="42.71097" lon="1.65894">
        <ele>1299.976</ele>
        <time>2021-06-13T07:48:36Z</time>
      </trkpt>
      <trkpt lat="42.71098" lon="1.65893">
        <ele>1299.01</ele>
        <time>2021-06-13T07:48:38Z</time>
      </trkpt>
      <trkpt lat="42.71097" lon="1.65893">
        <ele>1299.135</ele>
        <time>2021-06-13T07:48:40Z</time>
      </trkpt>
      <trkpt lat="42.71097" lon="1.65892">
        <ele>1299.446</ele>
        <time>2021-06-13T07:48:42Z</time>
      </trkpt>
      <trkpt lat="42.71099" lon="1.65891">
        <ele>1297.856</ele>
        <time>2021-06-13T07:48:44Z</time>
      </trkpt>
      <trkpt lat="42.711" lon="1.65891">
        <ele>1296.95</ele>
        <time>2021-06-13T07:48:46Z</time>
      </trkpt>
      <trkpt lat="42.711" lon="1.65891">
        <ele>1297.856</ele>
        <time>2021-06-13T07:48:48Z</time>
      </trkpt>
      <trkpt lat="42.71101" lon="1.65891">
        <ele>1297.468</ele>
        <time>2021-06-13T07:48:50Z</time>
      </trkpt>
      <trkpt lat="42.71102" lon="1.6589">
        <ele>1297.615</ele>
        <time>2021-06-13T07:48:52Z</time>
      </trkpt>
      <trkpt lat="42.71103" lon="1.6589">
        <ele>1298.477</ele>
        <time>2021-06-13T07:48:54Z</time>
      </trkpt>
      <trkpt lat="42.71104" lon="1.6589">
        <ele>1298.629</ele>
        <time>2021-06-13T07:48:56Z</time>
      </trkpt>
      <trkpt lat="42.71105" lon="1.65889">
        <ele>1298.809</ele>
        <time>2021-06-13T07:48:58Z</time>
      </trkpt>
      <trkpt lat="42.71105" lon="1.65887">
        <ele>1298.67</ele>
        <time>2021-06-13T07:49:00Z</time>
      </trkpt>
      <trkpt lat="42.71105" lon="1.65887">
        <ele>1298.184</ele>
        <time>2021-06-13T07:49:02Z</time>
      </trkpt>
      <trkpt lat="42.71106" lon="1.65887">
        <ele>1297.923</ele>
        <time>2021-06-13T07:49:04Z</time>
      </trkpt>
      <trkpt lat="42.71107" lon="1.65886">
        <ele>1298.49</ele>
        <time>2021-06-13T07:49:06Z</time>
      </trkpt>
      <trkpt lat="42.71108" lon="1.65886">
        <ele>1298.004</ele>
        <time>2021-06-13T07:49:08Z</time>
      </trkpt>
      <trkpt lat="42.71109" lon="1.65886">
        <ele>1298.5</ele>
        <time>2021-06-13T07:49:10Z</time>
      </trkpt>
      <trkpt lat="42.7111" lon="1.65886">
        <ele>1299.768</ele>
        <time>2021-06-13T07:49:12Z</time>
      </trkpt>
      <trkpt lat="42.71111" lon="1.65886">
        <ele>1299.917</ele>
        <time>2021-06-13T07:49:14Z</time>
      </trkpt>
      <trkpt lat="42.71112" lon="1.65887">
        <ele>1299.731</ele>
        <time>2021-06-13T07:49:16Z</time>
      </trkpt>
      <trkpt lat="42.71112" lon="1.65886">
        <ele>1300.196</ele>
        <time>2021-06-13T07:49:18Z</time>
      </trkpt>
      <trkpt lat="42.71112" lon="1.65885">
        <ele>1298.148</ele>
        <time>2021-06-13T07:49:20Z</time>
      </trkpt>
      <trkpt lat="42.71111" lon="1.65884">
        <ele>1297.568</ele>
        <time>2021-06-13T07:49:22Z</time>
      </trkpt>
      <trkpt lat="42.71111" lon="1.65884">
        <ele>1297.594</ele>
        <time>2021-06-13T07:49:24Z</time>
      </trkpt>
      <trkpt lat="42.71111" lon="1.65884">
        <ele>1297.378</ele>
        <time>2021-06-13T07:49:26Z</time>
      </trkpt>
      <trkpt lat="42.7111" lon="1.65883">
        <ele>1296.19</ele>
        <time>2021-06-13T07:49:28Z</time>
      </trkpt>
      <trkpt lat="42.7111" lon="1.65881">
        <ele>1296.335</ele>
        <time>2021-06-13T07:49:30Z</time>
      </trkpt>
      <trkpt lat="42.7111" lon="1.6588">
        <ele>1296.151</ele>
        <time>2021-06-13T07:49:32Z</time>
      </trkpt>
      <trkpt lat="42.7111" lon="1.6588">
        <ele>1295.808</ele>
        <time>2021-06-13T07:49:34Z</time>
      </trkpt>
      <trkpt lat="42.7111" lon="1.65879">
        <ele>1295.92</ele>
        <time>2021-06-13T07:49:36Z</time>
      </trkpt>
      <trkpt lat="42.7111" lon="1.65879">
        <ele>1295.917</ele>
        <time>2021-06-13T07:49:38Z</time>
      </trkpt>
      <trkpt lat="42.7111" lon="1.65879">
        <ele>1295.919</ele>
        <time>2021-06-13T07:49:40Z</time>
      </trkpt>
      <trkpt lat="42.7111" lon="1.65879">
        <ele>1297.07</ele>
        <time>2021-06-13T07:49:42Z</time>
      </trkpt>
      <trkpt lat="42.7111" lon="1.65879">
        <ele>1296.991</ele>
        <time>2021-06-13T07:49:44Z</time>
      </trkpt>
      <trkpt lat="42.7111" lon="1.65879">
        <ele>1296.973</ele>
        <time>2021-06-13T07:49:46Z</time>
      </trkpt>
      <trkpt lat="42.7111" lon="1.65879">
        <ele>1296.951</ele>
        <time>2021-06-13T07:49:48Z</time>
      </trkpt>
      <trkpt lat="42.7111" lon="1.65879">
        <ele>1296.967</ele>
        <time>2021-06-13T07:49:50Z</time>
      </trkpt>
      <trkpt lat="42.71109" lon="1.65879">
        <ele>1297.683</ele>
        <time>2021-06-13T07:49:52Z</time>
      </trkpt>
      <trkpt lat="42.71109" lon="1.65879">
        <ele>1297.776</ele>
        <time>2021-06-13T07:49:54Z</time>
      </trkpt>
      <trkpt lat="42.71109" lon="1.65879">
        <ele>1297.799</ele>
        <time>2021-06-13T07:49:56Z</time>
      </trkpt>
      <trkpt lat="42.71109" lon="1.65879">
        <ele>1297.801</ele>
        <time>2021-06-13T07:49:58Z</time>
      </trkpt>
      <trkpt lat="42.71109" lon="1.65879">
        <ele>1297.799</ele>
        <time>2021-06-13T07:50:00Z</time>
      </trkpt>
      <trkpt lat="42.71108" lon="1.65879">
        <ele>1298.381</ele>
        <time>2021-06-13T07:50:02Z</time>
      </trkpt>
      <trkpt lat="42.71108" lon="1.65879">
        <ele>1298.458</ele>
        <time>2021-06-13T07:50:04Z</time>
      </trkpt>
      <trkpt lat="42.71108" lon="1.65879">
        <ele>1297.619</ele>
        <time>2021-06-13T07:50:10Z</time>
      </trkpt>
      <trkpt lat="42.71108" lon="1.65879">
        <ele>1297.635</ele>
        <time>2021-06-13T07:50:12Z</time>
      </trkpt>
      <trkpt lat="42.71108" lon="1.6588">
        <ele>1297.599</ele>
        <time>2021-06-13T07:50:14Z</time>
      </trkpt>
      <trkpt lat="42.71108" lon="1.6588">
        <ele>1297.593</ele>
        <time>2021-06-13T07:50:16Z</time>
      </trkpt>
      <trkpt lat="42.71109" lon="1.6588">
        <ele>1297.244</ele>
        <time>2021-06-13T07:50:22Z</time>
      </trkpt>
      <trkpt lat="42.71109" lon="1.6588">
        <ele>1297.251</ele>
        <time>2021-06-13T07:50:24Z</time>
      </trkpt>
      <trkpt lat="42.71109" lon="1.6588">
        <ele>1297.246</ele>
        <time>2021-06-13T07:50:26Z</time>
      </trkpt>
      <trkpt lat="42.71109" lon="1.6588">
        <ele>1297.234</ele>
        <time>2021-06-13T07:50:28Z</time>
      </trkpt>
      <trkpt lat="42.71109" lon="1.6588">
        <ele>1297.221</ele>
        <time>2021-06-13T07:50:30Z</time>
      </trkpt>
      <trkpt lat="42.71109" lon="1.6588">
        <ele>1297.236</ele>
        <time>2021-06-13T07:50:32Z</time>
      </trkpt>
      <trkpt lat="42.71109" lon="1.6588">
        <ele>1297.021</ele>
        <time>2021-06-13T07:50:34Z</time>
      </trkpt>
      <trkpt lat="42.71109" lon="1.6588">
        <ele>1297.039</ele>
        <time>2021-06-13T07:50:36Z</time>
      </trkpt>
      <trkpt lat="42.71108" lon="1.6588">
        <ele>1297.138</ele>
        <time>2021-06-13T07:50:38Z</time>
      </trkpt>
      <trkpt lat="42.71108" lon="1.6588">
        <ele>1297.292</ele>
        <time>2021-06-13T07:50:40Z</time>
      </trkpt>
      <trkpt lat="42.71108" lon="1.65881">
        <ele>1297.105</ele>
        <time>2021-06-13T07:50:42Z</time>
      </trkpt>
      <trkpt lat="42.71108" lon="1.65881">
        <ele>1297.147</ele>
        <time>2021-06-13T07:50:44Z</time>
      </trkpt>
      <trkpt lat="42.71108" lon="1.65881">
        <ele>1297.165</ele>
        <time>2021-06-13T07:50:46Z</time>
      </trkpt>
      <trkpt lat="42.71108" lon="1.65881">
        <ele>1297.171</ele>
        <time>2021-06-13T07:50:48Z</time>
      </trkpt>
      <trkpt lat="42.71108" lon="1.65881">
        <ele>1297.192</ele>
        <time>2021-06-13T07:50:50Z</time>
      </trkpt>
      <trkpt lat="42.71108" lon="1.65881">
        <ele>1297.216</ele>
        <time>2021-06-13T07:50:52Z</time>
      </trkpt>
      <trkpt lat="42.71108" lon="1.65881">
        <ele>1297.563</ele>
        <time>2021-06-13T07:50:54Z</time>
      </trkpt>
      <trkpt lat="42.71108" lon="1.65881">
        <ele>1297.707</ele>
        <time>2021-06-13T07:50:56Z</time>
      </trkpt>
      <trkpt lat="42.71108" lon="1.65881">
        <ele>1297.224</ele>
        <time>2021-06-13T07:50:58Z</time>
      </trkpt>
      <trkpt lat="42.71108" lon="1.65881">
        <ele>1297.312</ele>
        <time>2021-06-13T07:51:00Z</time>
      </trkpt>
      <trkpt lat="42.71108" lon="1.6588">
        <ele>1297.854</ele>
        <time>2021-06-13T07:51:02Z</time>
      </trkpt>
      <trkpt lat="42.71108" lon="1.65881">
        <ele>1297.97</ele>
        <time>2021-06-13T07:51:04Z</time>
      </trkpt>
      <trkpt lat="42.71108" lon="1.65881">
        <ele>1297.943</ele>
        <time>2021-06-13T07:51:06Z</time>
      </trkpt>
      <trkpt lat="42.71108" lon="1.65881">
        <ele>1297.948</ele>
        <time>2021-06-13T07:51:08Z</time>
      </trkpt>
      <trkpt lat="42.71108" lon="1.65881">
        <ele>1297.969</ele>
        <time>2021-06-13T07:51:10Z</time>
      </trkpt>
      <trkpt lat="42.71108" lon="1.65881">
        <ele>1297.993</ele>
        <time>2021-06-13T07:51:12Z</time>
      </trkpt>
      <trkpt lat="42.71108" lon="1.65881">
        <ele>1298.002</ele>
        <time>2021-06-13T07:51:14Z</time>
      </trkpt>
      <trkpt lat="42.71108" lon="1.65881">
        <ele>1297.723</ele>
        <time>2021-06-13T07:51:16Z</time>
      </trkpt>
      <trkpt lat="42.71108" lon="1.65881">
        <ele>1297.38</ele>
        <time>2021-06-13T07:51:18Z</time>
      </trkpt>
      <trkpt lat="42.71108" lon="1.65881">
        <ele>1297.38</ele>
        <time>2021-06-13T07:51:20Z</time>
      </trkpt>
      <trkpt lat="42.71108" lon="1.65881">
        <ele>1297.379</ele>
        <time>2021-06-13T07:51:22Z</time>
      </trkpt>
      <trkpt lat="42.71108" lon="1.65881">
        <ele>1297.384</ele>
        <time>2021-06-13T07:51:24Z</time>
      </trkpt>
      <trkpt lat="42.71108" lon="1.65881">
        <ele>1297.406</ele>
        <time>2021-06-13T07:51:26Z</time>
      </trkpt>
      <trkpt lat="42.71108" lon="1.65881">
        <ele>1297.426</ele>
        <time>2021-06-13T07:51:28Z</time>
      </trkpt>
      <trkpt lat="42.71108" lon="1.65881">
        <ele>1298.291</ele>
        <time>2021-06-13T07:51:30Z</time>
      </trkpt>
      <trkpt lat="42.71109" lon="1.65882">
        <ele>1299.252</ele>
        <time>2021-06-13T07:51:32Z</time>
      </trkpt>
      <trkpt lat="42.71108" lon="1.65882">
        <ele>1298.937</ele>
        <time>2021-06-13T07:51:34Z</time>
      </trkpt>
      <trkpt lat="42.71108" lon="1.65882">
        <ele>1298.923</ele>
        <time>2021-06-13T07:51:36Z</time>
      </trkpt>
      <trkpt lat="42.71108" lon="1.65882">
        <ele>1298.932</ele>
        <time>2021-06-13T07:51:38Z</time>
      </trkpt>
      <trkpt lat="42.71108" lon="1.65882">
        <ele>1298.945</ele>
        <time>2021-06-13T07:51:40Z</time>
      </trkpt>
      <trkpt lat="42.71108" lon="1.65882">
        <ele>1298.97</ele>
        <time>2021-06-13T07:51:42Z</time>
      </trkpt>
      <trkpt lat="42.71108" lon="1.65882">
        <ele>1299.073</ele>
        <time>2021-06-13T07:51:44Z</time>
      </trkpt>
      <trkpt lat="42.71108" lon="1.65883">
        <ele>1299.827</ele>
        <time>2021-06-13T07:51:46Z</time>
      </trkpt>
      <trkpt lat="42.71109" lon="1.65883">
        <ele>1300.599</ele>
        <time>2021-06-13T07:51:48Z</time>
      </trkpt>
      <trkpt lat="42.7111" lon="1.65884">
        <ele>1302.515</ele>
        <time>2021-06-13T07:51:50Z</time>
      </trkpt>
      <trkpt lat="42.7111" lon="1.65883">
        <ele>1302.345</ele>
        <time>2021-06-13T07:51:52Z</time>
      </trkpt>
      <trkpt lat="42.71109" lon="1.65882">
        <ele>1301.87</ele>
        <time>2021-06-13T07:51:54Z</time>
      </trkpt>
      <trkpt lat="42.71109" lon="1.65881">
        <ele>1302.058</ele>
        <time>2021-06-13T07:51:56Z</time>
      </trkpt>
      <trkpt lat="42.71109" lon="1.65881">
        <ele>1302.063</ele>
        <time>2021-06-13T07:51:58Z</time>
      </trkpt>
      <trkpt lat="42.71109" lon="1.6588">
        <ele>1302.54</ele>
        <time>2021-06-13T07:52:00Z</time>
      </trkpt>
      <trkpt lat="42.71109" lon="1.6588">
        <ele>1302.617</ele>
        <time>2021-06-13T07:52:02Z</time>
      </trkpt>
      <trkpt lat="42.71109" lon="1.6588">
        <ele>1302.618</ele>
        <time>2021-06-13T07:52:04Z</time>
      </trkpt>
      <trkpt lat="42.71109" lon="1.6588">
        <ele>1302.649</ele>
        <time>2021-06-13T07:52:06Z</time>
      </trkpt>
      <trkpt lat="42.71109" lon="1.6588">
        <ele>1302.645</ele>
        <time>2021-06-13T07:52:08Z</time>
      </trkpt>
      <trkpt lat="42.7111" lon="1.65881">
        <ele>1302.516</ele>
        <time>2021-06-13T07:52:10Z</time>
      </trkpt>
      <trkpt lat="42.7111" lon="1.65881">
        <ele>1302.562</ele>
        <time>2021-06-13T07:52:12Z</time>
      </trkpt>
      <trkpt lat="42.7111" lon="1.65881">
        <ele>1302.565</ele>
        <time>2021-06-13T07:52:14Z</time>
      </trkpt>
      <trkpt lat="42.7111" lon="1.65881">
        <ele>1302.563</ele>
        <time>2021-06-13T07:52:16Z</time>
      </trkpt>
      <trkpt lat="42.7111" lon="1.65881">
        <ele>1302.561</ele>
        <time>2021-06-13T07:52:18Z</time>
      </trkpt>
      <trkpt lat="42.7111" lon="1.65881">
        <ele>1302.561</ele>
        <time>2021-06-13T07:52:20Z</time>
      </trkpt>
      <trkpt lat="42.7111" lon="1.65881">
        <ele>1302.555</ele>
        <time>2021-06-13T07:52:22Z</time>
      </trkpt>
      <trkpt lat="42.7111" lon="1.65881">
        <ele>1303.026</ele>
        <time>2021-06-13T07:52:24Z</time>
      </trkpt>
      <trkpt lat="42.71111" lon="1.6588">
        <ele>1302.573</ele>
        <time>2021-06-13T07:52:26Z</time>
      </trkpt>
      <trkpt lat="42.7111" lon="1.65879">
        <ele>1302.443</ele>
        <time>2021-06-13T07:52:28Z</time>
      </trkpt>
      <trkpt lat="42.71108" lon="1.65877">
        <ele>1299.525</ele>
        <time>2021-06-13T07:52:30Z</time>
      </trkpt>
      <trkpt lat="42.71107" lon="1.65875">
        <ele>1299.593</ele>
        <time>2021-06-13T07:52:32Z</time>
      </trkpt>
      <trkpt lat="42.71107" lon="1.65873">
        <ele>1299.981</ele>
        <time>2021-06-13T07:52:34Z</time>
      </trkpt>
      <trkpt lat="42.71104" lon="1.65871">
        <ele>1298.049</ele>
        <time>2021-06-13T07:52:36Z</time>
      </trkpt>
      <trkpt lat="42.71102" lon="1.6587">
        <ele>1299.149</ele>
        <time>2021-06-13T07:52:38Z</time>
      </trkpt>
      <trkpt lat="42.711" lon="1.6587">
        <ele>1299.594</ele>
        <time>2021-06-13T07:52:40Z</time>
      </trkpt>
      <trkpt lat="42.71098" lon="1.65868">
        <ele>1297.857</ele>
        <time>2021-06-13T07:52:42Z</time>
      </trkpt>
      <trkpt lat="42.71097" lon="1.65866">
        <ele>1298.358</ele>
        <time>2021-06-13T07:52:44Z</time>
      </trkpt>
      <trkpt lat="42.71095" lon="1.65865">
        <ele>1297.543</ele>
        <time>2021-06-13T07:52:46Z</time>
      </trkpt>
      <trkpt lat="42.71093" lon="1.65864">
        <ele>1297.703</ele>
        <time>2021-06-13T07:52:48Z</time>
      </trkpt>
      <trkpt lat="42.71091" lon="1.65863">
        <ele>1299.051</ele>
        <time>2021-06-13T07:52:50Z</time>
      </trkpt>
      <trkpt lat="42.71089" lon="1.65864">
        <ele>1300.495</ele>
        <time>2021-06-13T07:52:52Z</time>
      </trkpt>
      <trkpt lat="42.71087" lon="1.65864">
        <ele>1303.738</ele>
        <time>2021-06-13T07:52:54Z</time>
      </trkpt>
      <trkpt lat="42.71086" lon="1.65863">
        <ele>1303.578</ele>
        <time>2021-06-13T07:52:56Z</time>
      </trkpt>
      <trkpt lat="42.71085" lon="1.65862">
        <ele>1305.277</ele>
        <time>2021-06-13T07:52:58Z</time>
      </trkpt>
      <trkpt lat="42.71085" lon="1.65861">
        <ele>1306.045</ele>
        <time>2021-06-13T07:53:00Z</time>
      </trkpt>
      <trkpt lat="42.71084" lon="1.6586">
        <ele>1306.888</ele>
        <time>2021-06-13T07:53:02Z</time>
      </trkpt>
      <trkpt lat="42.71083" lon="1.65859">
        <ele>1307.984</ele>
        <time>2021-06-13T07:53:04Z</time>
      </trkpt>
      <trkpt lat="42.71082" lon="1.65859">
        <ele>1306.953</ele>
        <time>2021-06-13T07:53:06Z</time>
      </trkpt>
      <trkpt lat="42.71081" lon="1.65859">
        <ele>1307.732</ele>
        <time>2021-06-13T07:53:08Z</time>
      </trkpt>
      <trkpt lat="42.71079" lon="1.6586">
        <ele>1307.644</ele>
        <time>2021-06-13T07:53:10Z</time>
      </trkpt>
      <trkpt lat="42.71078" lon="1.65859">
        <ele>1306.724</ele>
        <time>2021-06-13T07:53:12Z</time>
      </trkpt>
      <trkpt lat="42.71077" lon="1.65858">
        <ele>1306.165</ele>
        <time>2021-06-13T07:53:14Z</time>
      </trkpt>
      <trkpt lat="42.71077" lon="1.65856">
        <ele>1307.313</ele>
        <time>2021-06-13T07:53:16Z</time>
      </trkpt>
      <trkpt lat="42.71077" lon="1.65855">
        <ele>1305.608</ele>
        <time>2021-06-13T07:53:17Z</time>
      </trkpt>
      <trkpt lat="42.71077" lon="1.65852">
        <ele>1305.882</ele>
        <time>2021-06-13T07:53:20Z</time>
      </trkpt>
      <trkpt lat="42.71077" lon="1.6585">
        <ele>1305.047</ele>
        <time>2021-06-13T07:53:22Z</time>
      </trkpt>
      <trkpt lat="42.71075" lon="1.65849">
        <ele>1305.851</ele>
        <time>2021-06-13T07:53:24Z</time>
      </trkpt>
      <trkpt lat="42.71074" lon="1.65849">
        <ele>1305.23</ele>
        <time>2021-06-13T07:53:26Z</time>
      </trkpt>
      <trkpt lat="42.71073" lon="1.65848">
        <ele>1306.054</ele>
        <time>2021-06-13T07:53:27Z</time>
      </trkpt>
      <trkpt lat="42.7107" lon="1.65847">
        <ele>1307.366</ele>
        <time>2021-06-13T07:53:30Z</time>
      </trkpt>
      <trkpt lat="42.71069" lon="1.65846">
        <ele>1306.933</ele>
        <time>2021-06-13T07:53:32Z</time>
      </trkpt>
      <trkpt lat="42.71068" lon="1.65846">
        <ele>1306.41</ele>
        <time>2021-06-13T07:53:34Z</time>
      </trkpt>
      <trkpt lat="42.71067" lon="1.65845">
        <ele>1307.338</ele>
        <time>2021-06-13T07:53:36Z</time>
      </trkpt>
      <trkpt lat="42.7107" lon="1.65846">
        <ele>1311.393</ele>
        <time>2021-06-13T07:53:37Z</time>
      </trkpt>
      <trkpt lat="42.71068" lon="1.65845">
        <ele>1311.808</ele>
        <time>2021-06-13T07:53:40Z</time>
      </trkpt>
      <trkpt lat="42.71067" lon="1.65844">
        <ele>1310.767</ele>
        <time>2021-06-13T07:53:42Z</time>
      </trkpt>
      <trkpt lat="42.71066" lon="1.65841">
        <ele>1310.994</ele>
        <time>2021-06-13T07:53:44Z</time>
      </trkpt>
      <trkpt lat="42.71065" lon="1.65839">
        <ele>1309.713</ele>
        <time>2021-06-13T07:53:46Z</time>
      </trkpt>
      <trkpt lat="42.71064" lon="1.65838">
        <ele>1310.209</ele>
        <time>2021-06-13T07:53:48Z</time>
      </trkpt>
      <trkpt lat="42.71064" lon="1.65836">
        <ele>1311.282</ele>
        <time>2021-06-13T07:53:50Z</time>
      </trkpt>
      <trkpt lat="42.71064" lon="1.65834">
        <ele>1309.8</ele>
        <time>2021-06-13T07:53:52Z</time>
      </trkpt>
      <trkpt lat="42.71067" lon="1.65834">
        <ele>1311.328</ele>
        <time>2021-06-13T07:53:54Z</time>
      </trkpt>
      <trkpt lat="42.71068" lon="1.65834">
        <ele>1311.926</ele>
        <time>2021-06-13T07:53:56Z</time>
      </trkpt>
      <trkpt lat="42.71069" lon="1.65834">
        <ele>1312.133</ele>
        <time>2021-06-13T07:53:57Z</time>
      </trkpt>
      <trkpt lat="42.71071" lon="1.65833">
        <ele>1315.282</ele>
        <time>2021-06-13T07:54:00Z</time>
      </trkpt>
      <trkpt lat="42.71073" lon="1.65832">
        <ele>1316.542</ele>
        <time>2021-06-13T07:54:02Z</time>
      </trkpt>
      <trkpt lat="42.71074" lon="1.65832">
        <ele>1317.252</ele>
        <time>2021-06-13T07:54:04Z</time>
      </trkpt>
      <trkpt lat="42.71076" lon="1.65832">
        <ele>1317.746</ele>
        <time>2021-06-13T07:54:06Z</time>
      </trkpt>
      <trkpt lat="42.71076" lon="1.65832">
        <ele>1318.167</ele>
        <time>2021-06-13T07:54:07Z</time>
      </trkpt>
      <trkpt lat="42.71078" lon="1.65831">
        <ele>1317.753</ele>
        <time>2021-06-13T07:54:10Z</time>
      </trkpt>
      <trkpt lat="42.71079" lon="1.65832">
        <ele>1320.082</ele>
        <time>2021-06-13T07:54:12Z</time>
      </trkpt>
      <trkpt lat="42.7108" lon="1.65831">
        <ele>1320.955</ele>
        <time>2021-06-13T07:54:14Z</time>
      </trkpt>
      <trkpt lat="42.71081" lon="1.6583">
        <ele>1320.718</ele>
        <time>2021-06-13T07:54:16Z</time>
      </trkpt>
      <trkpt lat="42.7108" lon="1.6583">
        <ele>1320.651</ele>
        <time>2021-06-13T07:54:17Z</time>
      </trkpt>
      <trkpt lat="42.71082" lon="1.6583">
        <ele>1320.402</ele>
        <time>2021-06-13T07:54:20Z</time>
      </trkpt>
      <trkpt lat="42.71083" lon="1.65831">
        <ele>1321.275</ele>
        <time>2021-06-13T07:54:22Z</time>
      </trkpt>
      <trkpt lat="42.71085" lon="1.65831">
        <ele>1323.55</ele>
        <time>2021-06-13T07:54:24Z</time>
      </trkpt>
      <trkpt lat="42.71086" lon="1.6583">
        <ele>1322.869</ele>
        <time>2021-06-13T07:54:26Z</time>
      </trkpt>
      <trkpt lat="42.71086" lon="1.6583">
        <ele>1322.953</ele>
        <time>2021-06-13T07:54:27Z</time>
      </trkpt>
      <trkpt lat="42.71087" lon="1.6583">
        <ele>1324.251</ele>
        <time>2021-06-13T07:54:30Z</time>
      </trkpt>
      <trkpt lat="42.71089" lon="1.6583">
        <ele>1323.784</ele>
        <time>2021-06-13T07:54:32Z</time>
      </trkpt>
      <trkpt lat="42.7109" lon="1.6583">
        <ele>1324.334</ele>
        <time>2021-06-13T07:54:34Z</time>
      </trkpt>
      <trkpt lat="42.71091" lon="1.65829">
        <ele>1325.89</ele>
        <time>2021-06-13T07:54:36Z</time>
      </trkpt>
      <trkpt lat="42.71091" lon="1.65828">
        <ele>1326.38</ele>
        <time>2021-06-13T07:54:37Z</time>
      </trkpt>
      <trkpt lat="42.71093" lon="1.65826">
        <ele>1327.41</ele>
        <time>2021-06-13T07:54:40Z</time>
      </trkpt>
      <trkpt lat="42.71094" lon="1.65825">
        <ele>1327.595</ele>
        <time>2021-06-13T07:54:42Z</time>
      </trkpt>
      <trkpt lat="42.71095" lon="1.65823">
        <ele>1328.485</ele>
        <time>2021-06-13T07:54:44Z</time>
      </trkpt>
      <trkpt lat="42.71094" lon="1.65821">
        <ele>1325.283</ele>
        <time>2021-06-13T07:54:46Z</time>
      </trkpt>
      <trkpt lat="42.71094" lon="1.6582">
        <ele>1328.932</ele>
        <time>2021-06-13T07:54:47Z</time>
      </trkpt>
      <trkpt lat="42.71095" lon="1.65818">
        <ele>1330.359</ele>
        <time>2021-06-13T07:54:50Z</time>
      </trkpt>
      <trkpt lat="42.71096" lon="1.65817">
        <ele>1331.116</ele>
        <time>2021-06-13T07:54:52Z</time>
      </trkpt>
      <trkpt lat="42.71095" lon="1.65815">
        <ele>1330.6</ele>
        <time>2021-06-13T07:54:54Z</time>
      </trkpt>
      <trkpt lat="42.71094" lon="1.65813">
        <ele>1331.233</ele>
        <time>2021-06-13T07:54:56Z</time>
      </trkpt>
      <trkpt lat="42.71094" lon="1.65812">
        <ele>1332.17</ele>
        <time>2021-06-13T07:54:58Z</time>
      </trkpt>
      <trkpt lat="42.71093" lon="1.65809">
        <ele>1331.222</ele>
        <time>2021-06-13T07:55:00Z</time>
      </trkpt>
      <trkpt lat="42.71092" lon="1.65802">
        <ele>1330.307</ele>
        <time>2021-06-13T07:55:02Z</time>
      </trkpt>
      <trkpt lat="42.71093" lon="1.65801">
        <ele>1330.603</ele>
        <time>2021-06-13T07:55:04Z</time>
      </trkpt>
      <trkpt lat="42.71095" lon="1.65806">
        <ele>1332.477</ele>
        <time>2021-06-13T07:55:06Z</time>
      </trkpt>
      <trkpt lat="42.71095" lon="1.65807">
        <ele>1332.45</ele>
        <time>2021-06-13T07:55:08Z</time>
      </trkpt>
      <trkpt lat="42.71095" lon="1.65807">
        <ele>1332.453</ele>
        <time>2021-06-13T07:55:10Z</time>
      </trkpt>
      <trkpt lat="42.71095" lon="1.65806">
        <ele>1334.095</ele>
        <time>2021-06-13T07:55:12Z</time>
      </trkpt>
      <trkpt lat="42.71103" lon="1.65806">
        <ele>1336.042</ele>
        <time>2021-06-13T07:55:14Z</time>
      </trkpt>
      <trkpt lat="42.71105" lon="1.65805">
        <ele>1336.818</ele>
        <time>2021-06-13T07:55:16Z</time>
      </trkpt>
      <trkpt lat="42.71104" lon="1.65802">
        <ele>1336.907</ele>
        <time>2021-06-13T07:55:18Z</time>
      </trkpt>
      <trkpt lat="42.71105" lon="1.65799">
        <ele>1338.412</ele>
        <time>2021-06-13T07:55:20Z</time>
      </trkpt>
      <trkpt lat="42.71106" lon="1.65796">
        <ele>1340.484</ele>
        <time>2021-06-13T07:55:22Z</time>
      </trkpt>
      <trkpt lat="42.71107" lon="1.65793">
        <ele>1340.597</ele>
        <time>2021-06-13T07:55:24Z</time>
      </trkpt>
      <trkpt lat="42.71107" lon="1.65791">
        <ele>1341.434</ele>
        <time>2021-06-13T07:55:26Z</time>
      </trkpt>
      <trkpt lat="42.71107" lon="1.65788">
        <ele>1341.378</ele>
        <time>2021-06-13T07:55:28Z</time>
      </trkpt>
      <trkpt lat="42.71106" lon="1.65785">
        <ele>1341.691</ele>
        <time>2021-06-13T07:55:30Z</time>
      </trkpt>
      <trkpt lat="42.71104" lon="1.65782">
        <ele>1340.704</ele>
        <time>2021-06-13T07:55:32Z</time>
      </trkpt>
      <trkpt lat="42.71103" lon="1.65778">
        <ele>1338.782</ele>
        <time>2021-06-13T07:55:34Z</time>
      </trkpt>
      <trkpt lat="42.71102" lon="1.65776">
        <ele>1338.266</ele>
        <time>2021-06-13T07:55:36Z</time>
      </trkpt>
      <trkpt lat="42.711" lon="1.65774">
        <ele>1337.954</ele>
        <time>2021-06-13T07:55:38Z</time>
      </trkpt>
      <trkpt lat="42.71098" lon="1.65772">
        <ele>1337.61</ele>
        <time>2021-06-13T07:55:40Z</time>
      </trkpt>
      <trkpt lat="42.71096" lon="1.65771">
        <ele>1337.741</ele>
        <time>2021-06-13T07:55:42Z</time>
      </trkpt>
      <trkpt lat="42.71094" lon="1.65769">
        <ele>1336.674</ele>
        <time>2021-06-13T07:55:44Z</time>
      </trkpt>
      <trkpt lat="42.71092" lon="1.65767">
        <ele>1337.068</ele>
        <time>2021-06-13T07:55:46Z</time>
      </trkpt>
      <trkpt lat="42.71091" lon="1.65765">
        <ele>1334.344</ele>
        <time>2021-06-13T07:55:48Z</time>
      </trkpt>
      <trkpt lat="42.7109" lon="1.65763">
        <ele>1333.351</ele>
        <time>2021-06-13T07:55:50Z</time>
      </trkpt>
      <trkpt lat="42.71089" lon="1.65761">
        <ele>1331.159</ele>
        <time>2021-06-13T07:55:52Z</time>
      </trkpt>
      <trkpt lat="42.71089" lon="1.65759">
        <ele>1330.695</ele>
        <time>2021-06-13T07:55:54Z</time>
      </trkpt>
      <trkpt lat="42.71089" lon="1.65757">
        <ele>1331.174</ele>
        <time>2021-06-13T07:55:56Z</time>
      </trkpt>
      <trkpt lat="42.71089" lon="1.65756">
        <ele>1330.935</ele>
        <time>2021-06-13T07:55:57Z</time>
      </trkpt>
      <trkpt lat="42.71089" lon="1.65753">
        <ele>1329.313</ele>
        <time>2021-06-13T07:56:00Z</time>
      </trkpt>
      <trkpt lat="42.71088" lon="1.65751">
        <ele>1328.165</ele>
        <time>2021-06-13T07:56:02Z</time>
      </trkpt>
      <trkpt lat="42.71088" lon="1.6575">
        <ele>1329.876</ele>
        <time>2021-06-13T07:56:04Z</time>
      </trkpt>
      <trkpt lat="42.71087" lon="1.65749">
        <ele>1331.194</ele>
        <time>2021-06-13T07:56:06Z</time>
      </trkpt>
      <trkpt lat="42.71086" lon="1.65746">
        <ele>1332.01</ele>
        <time>2021-06-13T07:56:08Z</time>
      </trkpt>
      <trkpt lat="42.71084" lon="1.65745">
        <ele>1332.042</ele>
        <time>2021-06-13T07:56:10Z</time>
      </trkpt>
      <trkpt lat="42.71083" lon="1.65744">
        <ele>1332.429</ele>
        <time>2021-06-13T07:56:12Z</time>
      </trkpt>
      <trkpt lat="42.71081" lon="1.65742">
        <ele>1332.41</ele>
        <time>2021-06-13T07:56:14Z</time>
      </trkpt>
      <trkpt lat="42.7108" lon="1.65741">
        <ele>1331.729</ele>
        <time>2021-06-13T07:56:16Z</time>
      </trkpt>
      <trkpt lat="42.71079" lon="1.6574">
        <ele>1331.565</ele>
        <time>2021-06-13T07:56:17Z</time>
      </trkpt>
      <trkpt lat="42.71078" lon="1.65737">
        <ele>1329.944</ele>
        <time>2021-06-13T07:56:20Z</time>
      </trkpt>
      <trkpt lat="42.71078" lon="1.65735">
        <ele>1329.829</ele>
        <time>2021-06-13T07:56:22Z</time>
      </trkpt>
      <trkpt lat="42.71078" lon="1.65732">
        <ele>1330.006</ele>
        <time>2021-06-13T07:56:24Z</time>
      </trkpt>
      <trkpt lat="42.71078" lon="1.6573">
        <ele>1328.298</ele>
        <time>2021-06-13T07:56:26Z</time>
      </trkpt>
      <trkpt lat="42.71078" lon="1.65729">
        <ele>1328.136</ele>
        <time>2021-06-13T07:56:27Z</time>
      </trkpt>
      <trkpt lat="42.71077" lon="1.65726">
        <ele>1326.97</ele>
        <time>2021-06-13T07:56:30Z</time>
      </trkpt>
      <trkpt lat="42.71077" lon="1.65725">
        <ele>1326.923</ele>
        <time>2021-06-13T07:56:32Z</time>
      </trkpt>
      <trkpt lat="42.71078" lon="1.65723">
        <ele>1326.392</ele>
        <time>2021-06-13T07:56:34Z</time>
      </trkpt>
      <trkpt lat="42.71078" lon="1.65722">
        <ele>1325.889</ele>
        <time>2021-06-13T07:56:36Z</time>
      </trkpt>
      <trkpt lat="42.71077" lon="1.6572">
        <ele>1326.863</ele>
        <time>2021-06-13T07:56:38Z</time>
      </trkpt>
      <trkpt lat="42.71077" lon="1.65718">
        <ele>1328.522</ele>
        <time>2021-06-13T07:56:40Z</time>
      </trkpt>
      <trkpt lat="42.71077" lon="1.65717">
        <ele>1329.935</ele>
        <time>2021-06-13T07:56:42Z</time>
      </trkpt>
      <trkpt lat="42.71077" lon="1.65714">
        <ele>1330.697</ele>
        <time>2021-06-13T07:56:44Z</time>
      </trkpt>
      <trkpt lat="42.71077" lon="1.65712">
        <ele>1331.029</ele>
        <time>2021-06-13T07:56:46Z</time>
      </trkpt>
      <trkpt lat="42.71076" lon="1.65712">
        <ele>1330.398</ele>
        <time>2021-06-13T07:56:47Z</time>
      </trkpt>
      <trkpt lat="42.71077" lon="1.65708">
        <ele>1331.222</ele>
        <time>2021-06-13T07:56:50Z</time>
      </trkpt>
      <trkpt lat="42.71076" lon="1.65707">
        <ele>1330.096</ele>
        <time>2021-06-13T07:56:52Z</time>
      </trkpt>
      <trkpt lat="42.71075" lon="1.65705">
        <ele>1329.537</ele>
        <time>2021-06-13T07:56:54Z</time>
      </trkpt>
      <trkpt lat="42.71075" lon="1.65705">
        <ele>1330.019</ele>
        <time>2021-06-13T07:56:56Z</time>
      </trkpt>
      <trkpt lat="42.71075" lon="1.65704">
        <ele>1331.336</ele>
        <time>2021-06-13T07:56:58Z</time>
      </trkpt>
      <trkpt lat="42.71074" lon="1.65703">
        <ele>1332.873</ele>
        <time>2021-06-13T07:57:00Z</time>
      </trkpt>
      <trkpt lat="42.71075" lon="1.65702">
        <ele>1333.012</ele>
        <time>2021-06-13T07:57:02Z</time>
      </trkpt>
      <trkpt lat="42.71074" lon="1.657">
        <ele>1332.11</ele>
        <time>2021-06-13T07:57:04Z</time>
      </trkpt>
      <trkpt lat="42.71074" lon="1.65699">
        <ele>1332.592</ele>
        <time>2021-06-13T07:57:06Z</time>
      </trkpt>
      <trkpt lat="42.71074" lon="1.65699">
        <ele>1333.371</ele>
        <time>2021-06-13T07:57:07Z</time>
      </trkpt>
      <trkpt lat="42.71074" lon="1.65696">
        <ele>1333.71</ele>
        <time>2021-06-13T07:57:10Z</time>
      </trkpt>
      <trkpt lat="42.71074" lon="1.65694">
        <ele>1334.72</ele>
        <time>2021-06-13T07:57:12Z</time>
      </trkpt>
      <trkpt lat="42.71075" lon="1.65692">
        <ele>1334.43</ele>
        <time>2021-06-13T07:57:14Z</time>
      </trkpt>
      <trkpt lat="42.71076" lon="1.6569">
        <ele>1334.699</ele>
        <time>2021-06-13T07:57:16Z</time>
      </trkpt>
      <trkpt lat="42.71076" lon="1.65689">
        <ele>1334.654</ele>
        <time>2021-06-13T07:57:17Z</time>
      </trkpt>
      <trkpt lat="42.71076" lon="1.65686">
        <ele>1334.232</ele>
        <time>2021-06-13T07:57:20Z</time>
      </trkpt>
      <trkpt lat="42.71076" lon="1.65685">
        <ele>1333.945</ele>
        <time>2021-06-13T07:57:22Z</time>
      </trkpt>
      <trkpt lat="42.71077" lon="1.65683">
        <ele>1334.112</ele>
        <time>2021-06-13T07:57:24Z</time>
      </trkpt>
      <trkpt lat="42.71078" lon="1.65682">
        <ele>1335.652</ele>
        <time>2021-06-13T07:57:26Z</time>
      </trkpt>
      <trkpt lat="42.71077" lon="1.6568">
        <ele>1334.871</ele>
        <time>2021-06-13T07:57:28Z</time>
      </trkpt>
      <trkpt lat="42.71076" lon="1.65679">
        <ele>1335.639</ele>
        <time>2021-06-13T07:57:30Z</time>
      </trkpt>
      <trkpt lat="42.71076" lon="1.65678">
        <ele>1335.646</ele>
        <time>2021-06-13T07:57:32Z</time>
      </trkpt>
      <trkpt lat="42.71075" lon="1.65677">
        <ele>1337.572</ele>
        <time>2021-06-13T07:57:34Z</time>
      </trkpt>
      <trkpt lat="42.71074" lon="1.65676">
        <ele>1338.76</ele>
        <time>2021-06-13T07:57:36Z</time>
      </trkpt>
      <trkpt lat="42.71073" lon="1.65675">
        <ele>1338.523</ele>
        <time>2021-06-13T07:57:38Z</time>
      </trkpt>
      <trkpt lat="42.71073" lon="1.65673">
        <ele>1338.983</ele>
        <time>2021-06-13T07:57:40Z</time>
      </trkpt>
      <trkpt lat="42.71072" lon="1.65672">
        <ele>1338.743</ele>
        <time>2021-06-13T07:57:42Z</time>
      </trkpt>
      <trkpt lat="42.71072" lon="1.6567">
        <ele>1340.261</ele>
        <time>2021-06-13T07:57:44Z</time>
      </trkpt>
      <trkpt lat="42.71073" lon="1.65668">
        <ele>1338.949</ele>
        <time>2021-06-13T07:57:46Z</time>
      </trkpt>
      <trkpt lat="42.71073" lon="1.65668">
        <ele>1337.941</ele>
        <time>2021-06-13T07:57:47Z</time>
      </trkpt>
      <trkpt lat="42.71075" lon="1.65665">
        <ele>1338.379</ele>
        <time>2021-06-13T07:57:50Z</time>
      </trkpt>
      <trkpt lat="42.71076" lon="1.65664">
        <ele>1339.316</ele>
        <time>2021-06-13T07:57:52Z</time>
      </trkpt>
      <trkpt lat="42.71076" lon="1.65663">
        <ele>1338.37</ele>
        <time>2021-06-13T07:57:54Z</time>
      </trkpt>
      <trkpt lat="42.71077" lon="1.65662">
        <ele>1338.234</ele>
        <time>2021-06-13T07:57:56Z</time>
      </trkpt>
      <trkpt lat="42.71077" lon="1.65662">
        <ele>1338.781</ele>
        <time>2021-06-13T07:57:57Z</time>
      </trkpt>
      <trkpt lat="42.71077" lon="1.6566">
        <ele>1338.721</ele>
        <time>2021-06-13T07:58:00Z</time>
      </trkpt>
      <trkpt lat="42.71077" lon="1.65658">
        <ele>1338.08</ele>
        <time>2021-06-13T07:58:02Z</time>
      </trkpt>
      <trkpt lat="42.71076" lon="1.65658">
        <ele>1337.239</ele>
        <time>2021-06-13T07:58:04Z</time>
      </trkpt>
      <trkpt lat="42.71075" lon="1.65657">
        <ele>1337.458</ele>
        <time>2021-06-13T07:58:06Z</time>
      </trkpt>
      <trkpt lat="42.71075" lon="1.65656">
        <ele>1338.435</ele>
        <time>2021-06-13T07:58:07Z</time>
      </trkpt>
      <trkpt lat="42.71075" lon="1.65655">
        <ele>1338.701</ele>
        <time>2021-06-13T07:58:10Z</time>
      </trkpt>
      <trkpt lat="42.71074" lon="1.65654">
        <ele>1338.829</ele>
        <time>2021-06-13T07:58:12Z</time>
      </trkpt>
      <trkpt lat="42.71073" lon="1.65653">
        <ele>1338.913</ele>
        <time>2021-06-13T07:58:14Z</time>
      </trkpt>
      <trkpt lat="42.71073" lon="1.65652">
        <ele>1339.659</ele>
        <time>2021-06-13T07:58:16Z</time>
      </trkpt>
      <trkpt lat="42.71073" lon="1.65651">
        <ele>1339.545</ele>
        <time>2021-06-13T07:58:18Z</time>
      </trkpt>
      <trkpt lat="42.71073" lon="1.65649">
        <ele>1339.483</ele>
        <time>2021-06-13T07:58:20Z</time>
      </trkpt>
      <trkpt lat="42.71074" lon="1.65647">
        <ele>1339.06</ele>
        <time>2021-06-13T07:58:22Z</time>
      </trkpt>
      <trkpt lat="42.71074" lon="1.65646">
        <ele>1339.38</ele>
        <time>2021-06-13T07:58:24Z</time>
      </trkpt>
      <trkpt lat="42.71075" lon="1.65645">
        <ele>1339.032</ele>
        <time>2021-06-13T07:58:26Z</time>
      </trkpt>
      <trkpt lat="42.71075" lon="1.65644">
        <ele>1339.579</ele>
        <time>2021-06-13T07:58:27Z</time>
      </trkpt>
      <trkpt lat="42.71077" lon="1.65643">
        <ele>1342.626</ele>
        <time>2021-06-13T07:58:30Z</time>
      </trkpt>
      <trkpt lat="42.71078" lon="1.65642">
        <ele>1343.848</ele>
        <time>2021-06-13T07:58:32Z</time>
      </trkpt>
      <trkpt lat="42.71079" lon="1.65642">
        <ele>1344.759</ele>
        <time>2021-06-13T07:58:34Z</time>
      </trkpt>
      <trkpt lat="42.71081" lon="1.65642">
        <ele>1346.587</ele>
        <time>2021-06-13T07:58:36Z</time>
      </trkpt>
      <trkpt lat="42.71081" lon="1.65642">
        <ele>1347.575</ele>
        <time>2021-06-13T07:58:37Z</time>
      </trkpt>
      <trkpt lat="42.71083" lon="1.65642">
        <ele>1348.708</ele>
        <time>2021-06-13T07:58:40Z</time>
      </trkpt>
      <trkpt lat="42.71084" lon="1.65641">
        <ele>1347.858</ele>
        <time>2021-06-13T07:58:42Z</time>
      </trkpt>
      <trkpt lat="42.71085" lon="1.6564">
        <ele>1348.722</ele>
        <time>2021-06-13T07:58:44Z</time>
      </trkpt>
      <trkpt lat="42.71086" lon="1.65638">
        <ele>1347.742</ele>
        <time>2021-06-13T07:58:46Z</time>
      </trkpt>
      <trkpt lat="42.71086" lon="1.65637">
        <ele>1346.899</ele>
        <time>2021-06-13T07:58:47Z</time>
      </trkpt>
      <trkpt lat="42.71086" lon="1.65635">
        <ele>1346.014</ele>
        <time>2021-06-13T07:58:50Z</time>
      </trkpt>
      <trkpt lat="42.71086" lon="1.65634">
        <ele>1346.228</ele>
        <time>2021-06-13T07:58:52Z</time>
      </trkpt>
      <trkpt lat="42.71086" lon="1.65632">
        <ele>1346.04</ele>
        <time>2021-06-13T07:58:54Z</time>
      </trkpt>
      <trkpt lat="42.71087" lon="1.65631">
        <ele>1347.373</ele>
        <time>2021-06-13T07:58:56Z</time>
      </trkpt>
      <trkpt lat="42.71088" lon="1.6563">
        <ele>1347.628</ele>
        <time>2021-06-13T07:58:58Z</time>
      </trkpt>
      <trkpt lat="42.71089" lon="1.65629">
        <ele>1347.459</ele>
        <time>2021-06-13T07:59:00Z</time>
      </trkpt>
      <trkpt lat="42.7109" lon="1.65627">
        <ele>1347.464</ele>
        <time>2021-06-13T07:59:02Z</time>
      </trkpt>
      <trkpt lat="42.71092" lon="1.65626">
        <ele>1347.665</ele>
        <time>2021-06-13T07:59:04Z</time>
      </trkpt>
      <trkpt lat="42.71093" lon="1.65625">
        <ele>1346.682</ele>
        <time>2021-06-13T07:59:06Z</time>
      </trkpt>
      <trkpt lat="42.71093" lon="1.65623">
        <ele>1347.334</ele>
        <time>2021-06-13T07:59:08Z</time>
      </trkpt>
      <trkpt lat="42.71094" lon="1.65622">
        <ele>1349.11</ele>
        <time>2021-06-13T07:59:10Z</time>
      </trkpt>
      <trkpt lat="42.71094" lon="1.6562">
        <ele>1347.928</ele>
        <time>2021-06-13T07:59:12Z</time>
      </trkpt>
      <trkpt lat="42.71096" lon="1.65618">
        <ele>1347.7</ele>
        <time>2021-06-13T07:59:14Z</time>
      </trkpt>
      <trkpt lat="42.71097" lon="1.65617">
        <ele>1348.204</ele>
        <time>2021-06-13T07:59:16Z</time>
      </trkpt>
      <trkpt lat="42.71098" lon="1.65616">
        <ele>1347.391</ele>
        <time>2021-06-13T07:59:18Z</time>
      </trkpt>
      <trkpt lat="42.71098" lon="1.65615">
        <ele>1348.545</ele>
        <time>2021-06-13T07:59:20Z</time>
      </trkpt>
      <trkpt lat="42.711" lon="1.65614">
        <ele>1350.148</ele>
        <time>2021-06-13T07:59:22Z</time>
      </trkpt>
      <trkpt lat="42.71101" lon="1.65614">
        <ele>1352.233</ele>
        <time>2021-06-13T07:59:24Z</time>
      </trkpt>
      <trkpt lat="42.71101" lon="1.65613">
        <ele>1351.962</ele>
        <time>2021-06-13T07:59:26Z</time>
      </trkpt>
      <trkpt lat="42.71102" lon="1.65612">
        <ele>1351.929</ele>
        <time>2021-06-13T07:59:28Z</time>
      </trkpt>
      <trkpt lat="42.71103" lon="1.6561">
        <ele>1353.107</ele>
        <time>2021-06-13T07:59:30Z</time>
      </trkpt>
      <trkpt lat="42.71103" lon="1.65607">
        <ele>1353.303</ele>
        <time>2021-06-13T07:59:32Z</time>
      </trkpt>
      <trkpt lat="42.71103" lon="1.65606">
        <ele>1351.957</ele>
        <time>2021-06-13T07:59:34Z</time>
      </trkpt>
      <trkpt lat="42.71103" lon="1.65605">
        <ele>1352.359</ele>
        <time>2021-06-13T07:59:36Z</time>
      </trkpt>
      <trkpt lat="42.71102" lon="1.65603">
        <ele>1352.203</ele>
        <time>2021-06-13T07:59:38Z</time>
      </trkpt>
      <trkpt lat="42.71101" lon="1.65602">
        <ele>1352.259</ele>
        <time>2021-06-13T07:59:40Z</time>
      </trkpt>
      <trkpt lat="42.71101" lon="1.65601">
        <ele>1352.58</ele>
        <time>2021-06-13T07:59:42Z</time>
      </trkpt>
      <trkpt lat="42.71101" lon="1.65599">
        <ele>1353.679</ele>
        <time>2021-06-13T07:59:44Z</time>
      </trkpt>
      <trkpt lat="42.711" lon="1.65598">
        <ele>1354.697</ele>
        <time>2021-06-13T07:59:46Z</time>
      </trkpt>
      <trkpt lat="42.711" lon="1.65597">
        <ele>1354.72</ele>
        <time>2021-06-13T07:59:48Z</time>
      </trkpt>
      <trkpt lat="42.71099" lon="1.65596">
        <ele>1356.81</ele>
        <time>2021-06-13T07:59:50Z</time>
      </trkpt>
      <trkpt lat="42.71099" lon="1.65597">
        <ele>1358.201</ele>
        <time>2021-06-13T07:59:52Z</time>
      </trkpt>
      <trkpt lat="42.71098" lon="1.65597">
        <ele>1358.378</ele>
        <time>2021-06-13T07:59:54Z</time>
      </trkpt>
      <trkpt lat="42.71098" lon="1.65598">
        <ele>1360.352</ele>
        <time>2021-06-13T07:59:56Z</time>
      </trkpt>
      <trkpt lat="42.71097" lon="1.65598">
        <ele>1359.653</ele>
        <time>2021-06-13T07:59:58Z</time>
      </trkpt>
      <trkpt lat="42.71096" lon="1.65598">
        <ele>1361.211</ele>
        <time>2021-06-13T08:00:00Z</time>
      </trkpt>
      <trkpt lat="42.71095" lon="1.65598">
        <ele>1362.572</ele>
        <time>2021-06-13T08:00:02Z</time>
      </trkpt>
      <trkpt lat="42.71095" lon="1.65598">
        <ele>1364.017</ele>
        <time>2021-06-13T08:00:04Z</time>
      </trkpt>
      <trkpt lat="42.71094" lon="1.65599">
        <ele>1365.036</ele>
        <time>2021-06-13T08:00:06Z</time>
      </trkpt>
      <trkpt lat="42.71093" lon="1.656">
        <ele>1366.932</ele>
        <time>2021-06-13T08:00:08Z</time>
      </trkpt>
      <trkpt lat="42.71092" lon="1.656">
        <ele>1368.327</ele>
        <time>2021-06-13T08:00:10Z</time>
      </trkpt>
      <trkpt lat="42.71091" lon="1.65599">
        <ele>1368.914</ele>
        <time>2021-06-13T08:00:12Z</time>
      </trkpt>
      <trkpt lat="42.71091" lon="1.65599">
        <ele>1368.795</ele>
        <time>2021-06-13T08:00:14Z</time>
      </trkpt>
      <trkpt lat="42.71089" lon="1.65599">
        <ele>1369.576</ele>
        <time>2021-06-13T08:00:16Z</time>
      </trkpt>
      <trkpt lat="42.71088" lon="1.65599">
        <ele>1368.452</ele>
        <time>2021-06-13T08:00:18Z</time>
      </trkpt>
      <trkpt lat="42.71088" lon="1.65599">
        <ele>1367.976</ele>
        <time>2021-06-13T08:00:20Z</time>
      </trkpt>
      <trkpt lat="42.71088" lon="1.65599">
        <ele>1367.354</ele>
        <time>2021-06-13T08:00:22Z</time>
      </trkpt>
      <trkpt lat="42.71088" lon="1.65598">
        <ele>1366.796</ele>
        <time>2021-06-13T08:00:24Z</time>
      </trkpt>
      <trkpt lat="42.71086" lon="1.65597">
        <ele>1365.053</ele>
        <time>2021-06-13T08:00:26Z</time>
      </trkpt>
      <trkpt lat="42.71086" lon="1.65596">
        <ele>1365.491</ele>
        <time>2021-06-13T08:00:28Z</time>
      </trkpt>
      <trkpt lat="42.71085" lon="1.65594">
        <ele>1365.371</ele>
        <time>2021-06-13T08:00:30Z</time>
      </trkpt>
      <trkpt lat="42.71085" lon="1.65593">
        <ele>1366.132</ele>
        <time>2021-06-13T08:00:31Z</time>
      </trkpt>
      <trkpt lat="42.71084" lon="1.65592">
        <ele>1365.935</ele>
        <time>2021-06-13T08:00:34Z</time>
      </trkpt>
      <trkpt lat="42.71083" lon="1.65591">
        <ele>1365.614</ele>
        <time>2021-06-13T08:00:36Z</time>
      </trkpt>
      <trkpt lat="42.71083" lon="1.6559">
        <ele>1367.207</ele>
        <time>2021-06-13T08:00:38Z</time>
      </trkpt>
      <trkpt lat="42.71086" lon="1.65589">
        <ele>1368.603</ele>
        <time>2021-06-13T08:00:40Z</time>
      </trkpt>
      <trkpt lat="42.71088" lon="1.65589">
        <ele>1368.395</ele>
        <time>2021-06-13T08:00:42Z</time>
      </trkpt>
      <trkpt lat="42.71089" lon="1.65588">
        <ele>1368.945</ele>
        <time>2021-06-13T08:00:44Z</time>
      </trkpt>
      <trkpt lat="42.7109" lon="1.65587">
        <ele>1369.594</ele>
        <time>2021-06-13T08:00:46Z</time>
      </trkpt>
      <trkpt lat="42.71091" lon="1.65585">
        <ele>1371.205</ele>
        <time>2021-06-13T08:00:48Z</time>
      </trkpt>
      <trkpt lat="42.71091" lon="1.65584">
        <ele>1371.111</ele>
        <time>2021-06-13T08:00:50Z</time>
      </trkpt>
      <trkpt lat="42.71092" lon="1.65584">
        <ele>1371.042</ele>
        <time>2021-06-13T08:00:52Z</time>
      </trkpt>
      <trkpt lat="42.71093" lon="1.65583">
        <ele>1370.589</ele>
        <time>2021-06-13T08:00:54Z</time>
      </trkpt>
      <trkpt lat="42.71093" lon="1.65583">
        <ele>1371.48</ele>
        <time>2021-06-13T08:00:56Z</time>
      </trkpt>
      <trkpt lat="42.71094" lon="1.65582">
        <ele>1372.619</ele>
        <time>2021-06-13T08:00:58Z</time>
      </trkpt>
      <trkpt lat="42.71093" lon="1.6558">
        <ele>1371.646</ele>
        <time>2021-06-13T08:01:00Z</time>
      </trkpt>
      <trkpt lat="42.71093" lon="1.65579">
        <ele>1371.211</ele>
        <time>2021-06-13T08:01:02Z</time>
      </trkpt>
      <trkpt lat="42.71092" lon="1.65577">
        <ele>1371.28</ele>
        <time>2021-06-13T08:01:04Z</time>
      </trkpt>
      <trkpt lat="42.71093" lon="1.65576">
        <ele>1373.084</ele>
        <time>2021-06-13T08:01:06Z</time>
      </trkpt>
      <trkpt lat="42.71093" lon="1.65575">
        <ele>1372.883</ele>
        <time>2021-06-13T08:01:08Z</time>
      </trkpt>
      <trkpt lat="42.71093" lon="1.65575">
        <ele>1374.887</ele>
        <time>2021-06-13T08:01:10Z</time>
      </trkpt>
      <trkpt lat="42.71093" lon="1.65574">
        <ele>1374.367</ele>
        <time>2021-06-13T08:01:12Z</time>
      </trkpt>
      <trkpt lat="42.71092" lon="1.65572">
        <ele>1375.788</ele>
        <time>2021-06-13T08:01:14Z</time>
      </trkpt>
      <trkpt lat="42.71093" lon="1.65572">
        <ele>1376.843</ele>
        <time>2021-06-13T08:01:16Z</time>
      </trkpt>
      <trkpt lat="42.71092" lon="1.65571">
        <ele>1378.63</ele>
        <time>2021-06-13T08:01:18Z</time>
      </trkpt>
      <trkpt lat="42.71091" lon="1.6557">
        <ele>1378.715</ele>
        <time>2021-06-13T08:01:20Z</time>
      </trkpt>
      <trkpt lat="42.7109" lon="1.6557">
        <ele>1379.285</ele>
        <time>2021-06-13T08:01:22Z</time>
      </trkpt>
      <trkpt lat="42.71088" lon="1.65569">
        <ele>1379.23</ele>
        <time>2021-06-13T08:01:24Z</time>
      </trkpt>
      <trkpt lat="42.71087" lon="1.65568">
        <ele>1381.789</ele>
        <time>2021-06-13T08:01:26Z</time>
      </trkpt>
      <trkpt lat="42.71087" lon="1.65567">
        <ele>1382.69</ele>
        <time>2021-06-13T08:01:28Z</time>
      </trkpt>
      <trkpt lat="42.71086" lon="1.65565">
        <ele>1383.367</ele>
        <time>2021-06-13T08:01:30Z</time>
      </trkpt>
      <trkpt lat="42.71087" lon="1.65564">
        <ele>1384.447</ele>
        <time>2021-06-13T08:01:32Z</time>
      </trkpt>
      <trkpt lat="42.71086" lon="1.65562">
        <ele>1385.321</ele>
        <time>2021-06-13T08:01:34Z</time>
      </trkpt>
      <trkpt lat="42.71086" lon="1.65562">
        <ele>1385.675</ele>
        <time>2021-06-13T08:01:36Z</time>
      </trkpt>
      <trkpt lat="42.71086" lon="1.65561">
        <ele>1385.691</ele>
        <time>2021-06-13T08:01:38Z</time>
      </trkpt>
      <trkpt lat="42.71086" lon="1.65561">
        <ele>1385.879</ele>
        <time>2021-06-13T08:01:40Z</time>
      </trkpt>
      <trkpt lat="42.71087" lon="1.65559">
        <ele>1385.337</ele>
        <time>2021-06-13T08:01:42Z</time>
      </trkpt>
      <trkpt lat="42.71087" lon="1.65558">
        <ele>1385.495</ele>
        <time>2021-06-13T08:01:44Z</time>
      </trkpt>
      <trkpt lat="42.71087" lon="1.65557">
        <ele>1386.489</ele>
        <time>2021-06-13T08:01:46Z</time>
      </trkpt>
      <trkpt lat="42.71089" lon="1.65556">
        <ele>1386.508</ele>
        <time>2021-06-13T08:01:48Z</time>
      </trkpt>
      <trkpt lat="42.71089" lon="1.65554">
        <ele>1386.27</ele>
        <time>2021-06-13T08:01:50Z</time>
      </trkpt>
      <trkpt lat="42.71089" lon="1.65553">
        <ele>1385.003</ele>
        <time>2021-06-13T08:01:52Z</time>
      </trkpt>
      <trkpt lat="42.71089" lon="1.65552">
        <ele>1385.014</ele>
        <time>2021-06-13T08:01:54Z</time>
      </trkpt>
      <trkpt lat="42.71089" lon="1.6555">
        <ele>1384.828</ele>
        <time>2021-06-13T08:01:56Z</time>
      </trkpt>
      <trkpt lat="42.71089" lon="1.65548">
        <ele>1384.344</ele>
        <time>2021-06-13T08:01:58Z</time>
      </trkpt>
      <trkpt lat="42.71088" lon="1.65547">
        <ele>1385.272</ele>
        <time>2021-06-13T08:02:00Z</time>
      </trkpt>
      <trkpt lat="42.71088" lon="1.65545">
        <ele>1386.02</ele>
        <time>2021-06-13T08:02:02Z</time>
      </trkpt>
      <trkpt lat="42.71088" lon="1.65544">
        <ele>1386.888</ele>
        <time>2021-06-13T08:02:04Z</time>
      </trkpt>
      <trkpt lat="42.71088" lon="1.65542">
        <ele>1387.452</ele>
        <time>2021-06-13T08:02:06Z</time>
      </trkpt>
      <trkpt lat="42.71089" lon="1.65541">
        <ele>1387.194</ele>
        <time>2021-06-13T08:02:08Z</time>
      </trkpt>
      <trkpt lat="42.71089" lon="1.6554">
        <ele>1389.512</ele>
        <time>2021-06-13T08:02:10Z</time>
      </trkpt>
      <trkpt lat="42.71089" lon="1.65539">
        <ele>1390.804</ele>
        <time>2021-06-13T08:02:12Z</time>
      </trkpt>
      <trkpt lat="42.71088" lon="1.65537">
        <ele>1389.61</ele>
        <time>2021-06-13T08:02:14Z</time>
      </trkpt>
      <trkpt lat="42.71088" lon="1.65535">
        <ele>1388.121</ele>
        <time>2021-06-13T08:02:16Z</time>
      </trkpt>
      <trkpt lat="42.71088" lon="1.65533">
        <ele>1387.507</ele>
        <time>2021-06-13T08:02:18Z</time>
      </trkpt>
      <trkpt lat="42.71088" lon="1.65532">
        <ele>1387.771</ele>
        <time>2021-06-13T08:02:20Z</time>
      </trkpt>
      <trkpt lat="42.71088" lon="1.65531">
        <ele>1388.22</ele>
        <time>2021-06-13T08:02:22Z</time>
      </trkpt>
      <trkpt lat="42.71089" lon="1.65529">
        <ele>1390.164</ele>
        <time>2021-06-13T08:02:24Z</time>
      </trkpt>
      <trkpt lat="42.71091" lon="1.65527">
        <ele>1391.054</ele>
        <time>2021-06-13T08:02:26Z</time>
      </trkpt>
      <trkpt lat="42.71091" lon="1.65526">
        <ele>1391.141</ele>
        <time>2021-06-13T08:02:28Z</time>
      </trkpt>
      <trkpt lat="42.71092" lon="1.65526">
        <ele>1390.873</ele>
        <time>2021-06-13T08:02:30Z</time>
      </trkpt>
      <trkpt lat="42.71092" lon="1.65527">
        <ele>1392.803</ele>
        <time>2021-06-13T08:02:32Z</time>
      </trkpt>
      <trkpt lat="42.71093" lon="1.65528">
        <ele>1393.899</ele>
        <time>2021-06-13T08:02:34Z</time>
      </trkpt>
      <trkpt lat="42.71094" lon="1.65528">
        <ele>1394.976</ele>
        <time>2021-06-13T08:02:36Z</time>
      </trkpt>
      <trkpt lat="42.71095" lon="1.65528">
        <ele>1394.744</ele>
        <time>2021-06-13T08:02:38Z</time>
      </trkpt>
      <trkpt lat="42.71095" lon="1.65527">
        <ele>1395.103</ele>
        <time>2021-06-13T08:02:40Z</time>
      </trkpt>
      <trkpt lat="42.71096" lon="1.65525">
        <ele>1393.784</ele>
        <time>2021-06-13T08:02:42Z</time>
      </trkpt>
      <trkpt lat="42.71096" lon="1.65524">
        <ele>1394.266</ele>
        <time>2021-06-13T08:02:44Z</time>
      </trkpt>
      <trkpt lat="42.71097" lon="1.65522">
        <ele>1394.646</ele>
        <time>2021-06-13T08:02:46Z</time>
      </trkpt>
      <trkpt lat="42.71098" lon="1.65521">
        <ele>1395.472</ele>
        <time>2021-06-13T08:02:48Z</time>
      </trkpt>
      <trkpt lat="42.71099" lon="1.6552">
        <ele>1394.452</ele>
        <time>2021-06-13T08:02:50Z</time>
      </trkpt>
      <trkpt lat="42.711" lon="1.65519">
        <ele>1395.376</ele>
        <time>2021-06-13T08:02:52Z</time>
      </trkpt>
      <trkpt lat="42.711" lon="1.6552">
        <ele>1396.317</ele>
        <time>2021-06-13T08:02:54Z</time>
      </trkpt>
      <trkpt lat="42.71101" lon="1.65519">
        <ele>1397.179</ele>
        <time>2021-06-13T08:02:56Z</time>
      </trkpt>
      <trkpt lat="42.71102" lon="1.65518">
        <ele>1397.37</ele>
        <time>2021-06-13T08:02:58Z</time>
      </trkpt>
      <trkpt lat="42.71103" lon="1.65517">
        <ele>1399.069</ele>
        <time>2021-06-13T08:03:00Z</time>
      </trkpt>
      <trkpt lat="42.71104" lon="1.65517">
        <ele>1399.338</ele>
        <time>2021-06-13T08:03:02Z</time>
      </trkpt>
      <trkpt lat="42.71106" lon="1.65516">
        <ele>1399.816</ele>
        <time>2021-06-13T08:03:04Z</time>
      </trkpt>
      <trkpt lat="42.71107" lon="1.65515">
        <ele>1399.975</ele>
        <time>2021-06-13T08:03:06Z</time>
      </trkpt>
      <trkpt lat="42.71107" lon="1.65513">
        <ele>1400.296</ele>
        <time>2021-06-13T08:03:08Z</time>
      </trkpt>
      <trkpt lat="42.71109" lon="1.65512">
        <ele>1400.374</ele>
        <time>2021-06-13T08:03:10Z</time>
      </trkpt>
      <trkpt lat="42.71109" lon="1.6551">
        <ele>1400.425</ele>
        <time>2021-06-13T08:03:12Z</time>
      </trkpt>
      <trkpt lat="42.7111" lon="1.65509">
        <ele>1401.26</ele>
        <time>2021-06-13T08:03:14Z</time>
      </trkpt>
      <trkpt lat="42.71111" lon="1.65508">
        <ele>1402.23</ele>
        <time>2021-06-13T08:03:16Z</time>
      </trkpt>
      <trkpt lat="42.71112" lon="1.65507">
        <ele>1401.869</ele>
        <time>2021-06-13T08:03:18Z</time>
      </trkpt>
      <trkpt lat="42.71113" lon="1.65506">
        <ele>1402.076</ele>
        <time>2021-06-13T08:03:20Z</time>
      </trkpt>
      <trkpt lat="42.71114" lon="1.65506">
        <ele>1402.055</ele>
        <time>2021-06-13T08:03:22Z</time>
      </trkpt>
      <trkpt lat="42.71114" lon="1.65504">
        <ele>1402.647</ele>
        <time>2021-06-13T08:03:24Z</time>
      </trkpt>
      <trkpt lat="42.71115" lon="1.65502">
        <ele>1401.336</ele>
        <time>2021-06-13T08:03:26Z</time>
      </trkpt>
      <trkpt lat="42.71115" lon="1.655">
        <ele>1400.923</ele>
        <time>2021-06-13T08:03:28Z</time>
      </trkpt>
      <trkpt lat="42.71116" lon="1.65498">
        <ele>1400.592</ele>
        <time>2021-06-13T08:03:30Z</time>
      </trkpt>
      <trkpt lat="42.71117" lon="1.65497">
        <ele>1400.337</ele>
        <time>2021-06-13T08:03:32Z</time>
      </trkpt>
      <trkpt lat="42.71117" lon="1.65495">
        <ele>1401.571</ele>
        <time>2021-06-13T08:03:34Z</time>
      </trkpt>
      <trkpt lat="42.71118" lon="1.65493">
        <ele>1401.389</ele>
        <time>2021-06-13T08:03:36Z</time>
      </trkpt>
      <trkpt lat="42.71117" lon="1.6549">
        <ele>1402.963</ele>
        <time>2021-06-13T08:03:38Z</time>
      </trkpt>
      <trkpt lat="42.71116" lon="1.65488">
        <ele>1403.342</ele>
        <time>2021-06-13T08:03:40Z</time>
      </trkpt>
      <trkpt lat="42.71116" lon="1.65486">
        <ele>1405.33</ele>
        <time>2021-06-13T08:03:42Z</time>
      </trkpt>
      <trkpt lat="42.71116" lon="1.65484">
        <ele>1405.933</ele>
        <time>2021-06-13T08:03:44Z</time>
      </trkpt>
      <trkpt lat="42.71116" lon="1.65483">
        <ele>1406.376</ele>
        <time>2021-06-13T08:03:46Z</time>
      </trkpt>
      <trkpt lat="42.71117" lon="1.65481">
        <ele>1405.574</ele>
        <time>2021-06-13T08:03:48Z</time>
      </trkpt>
      <trkpt lat="42.71118" lon="1.65479">
        <ele>1405.93</ele>
        <time>2021-06-13T08:03:51Z</time>
      </trkpt>
      <trkpt lat="42.71119" lon="1.65478">
        <ele>1404.986</ele>
        <time>2021-06-13T08:03:53Z</time>
      </trkpt>
      <trkpt lat="42.7112" lon="1.65475">
        <ele>1404.531</ele>
        <time>2021-06-13T08:03:55Z</time>
      </trkpt>
      <trkpt lat="42.7112" lon="1.65474">
        <ele>1404.813</ele>
        <time>2021-06-13T08:03:57Z</time>
      </trkpt>
      <trkpt lat="42.71121" lon="1.65472">
        <ele>1405.905</ele>
        <time>2021-06-13T08:03:59Z</time>
      </trkpt>
      <trkpt lat="42.71122" lon="1.6547">
        <ele>1406.688</ele>
        <time>2021-06-13T08:04:01Z</time>
      </trkpt>
      <trkpt lat="42.71123" lon="1.65469">
        <ele>1406.314</ele>
        <time>2021-06-13T08:04:03Z</time>
      </trkpt>
      <trkpt lat="42.71124" lon="1.65468">
        <ele>1406.69</ele>
        <time>2021-06-13T08:04:05Z</time>
      </trkpt>
      <trkpt lat="42.71124" lon="1.65466">
        <ele>1406.6</ele>
        <time>2021-06-13T08:04:07Z</time>
      </trkpt>
      <trkpt lat="42.71125" lon="1.65464">
        <ele>1407.567</ele>
        <time>2021-06-13T08:04:09Z</time>
      </trkpt>
      <trkpt lat="42.71126" lon="1.65463">
        <ele>1408.904</ele>
        <time>2021-06-13T08:04:11Z</time>
      </trkpt>
      <trkpt lat="42.71126" lon="1.6546">
        <ele>1408.931</ele>
        <time>2021-06-13T08:04:13Z</time>
      </trkpt>
      <trkpt lat="42.71127" lon="1.65458">
        <ele>1408.781</ele>
        <time>2021-06-13T08:04:15Z</time>
      </trkpt>
      <trkpt lat="42.71128" lon="1.65456">
        <ele>1411.197</ele>
        <time>2021-06-13T08:04:17Z</time>
      </trkpt>
      <trkpt lat="42.71128" lon="1.65454">
        <ele>1411.487</ele>
        <time>2021-06-13T08:04:19Z</time>
      </trkpt>
      <trkpt lat="42.71129" lon="1.65453">
        <ele>1411.446</ele>
        <time>2021-06-13T08:04:21Z</time>
      </trkpt>
      <trkpt lat="42.7113" lon="1.65451">
        <ele>1412.307</ele>
        <time>2021-06-13T08:04:23Z</time>
      </trkpt>
      <trkpt lat="42.71129" lon="1.65449">
        <ele>1411.647</ele>
        <time>2021-06-13T08:04:25Z</time>
      </trkpt>
      <trkpt lat="42.71128" lon="1.65447">
        <ele>1410.955</ele>
        <time>2021-06-13T08:04:27Z</time>
      </trkpt>
      <trkpt lat="42.71128" lon="1.65445">
        <ele>1411.638</ele>
        <time>2021-06-13T08:04:29Z</time>
      </trkpt>
      <trkpt lat="42.71128" lon="1.65443">
        <ele>1411.898</ele>
        <time>2021-06-13T08:04:31Z</time>
      </trkpt>
      <trkpt lat="42.71129" lon="1.65442">
        <ele>1413.493</ele>
        <time>2021-06-13T08:04:33Z</time>
      </trkpt>
      <trkpt lat="42.7113" lon="1.6544">
        <ele>1413.501</ele>
        <time>2021-06-13T08:04:35Z</time>
      </trkpt>
      <trkpt lat="42.7113" lon="1.65438">
        <ele>1414.716</ele>
        <time>2021-06-13T08:04:37Z</time>
      </trkpt>
      <trkpt lat="42.7113" lon="1.65437">
        <ele>1414.499</ele>
        <time>2021-06-13T08:04:39Z</time>
      </trkpt>
      <trkpt lat="42.71129" lon="1.65435">
        <ele>1414.997</ele>
        <time>2021-06-13T08:04:41Z</time>
      </trkpt>
      <trkpt lat="42.71128" lon="1.65433">
        <ele>1415.319</ele>
        <time>2021-06-13T08:04:43Z</time>
      </trkpt>
      <trkpt lat="42.71127" lon="1.65432">
        <ele>1415.093</ele>
        <time>2021-06-13T08:04:45Z</time>
      </trkpt>
      <trkpt lat="42.71126" lon="1.65429">
        <ele>1414.47</ele>
        <time>2021-06-13T08:04:47Z</time>
      </trkpt>
      <trkpt lat="42.71126" lon="1.65427">
        <ele>1414.183</ele>
        <time>2021-06-13T08:04:49Z</time>
      </trkpt>
      <trkpt lat="42.71126" lon="1.65425">
        <ele>1413.545</ele>
        <time>2021-06-13T08:04:51Z</time>
      </trkpt>
      <trkpt lat="42.71126" lon="1.65424">
        <ele>1413.705</ele>
        <time>2021-06-13T08:04:52Z</time>
      </trkpt>
      <trkpt lat="42.71126" lon="1.65421">
        <ele>1412.036</ele>
        <time>2021-06-13T08:04:55Z</time>
      </trkpt>
      <trkpt lat="42.71126" lon="1.65419">
        <ele>1410.677</ele>
        <time>2021-06-13T08:04:57Z</time>
      </trkpt>
      <trkpt lat="42.71126" lon="1.65417">
        <ele>1411.965</ele>
        <time>2021-06-13T08:04:59Z</time>
      </trkpt>
      <trkpt lat="42.71125" lon="1.65415">
        <ele>1411.666</ele>
        <time>2021-06-13T08:05:01Z</time>
      </trkpt>
      <trkpt lat="42.71124" lon="1.65412">
        <ele>1409.831</ele>
        <time>2021-06-13T08:05:03Z</time>
      </trkpt>
      <trkpt lat="42.71124" lon="1.6541">
        <ele>1408.178</ele>
        <time>2021-06-13T08:05:05Z</time>
      </trkpt>
      <trkpt lat="42.71123" lon="1.65407">
        <ele>1407.572</ele>
        <time>2021-06-13T08:05:07Z</time>
      </trkpt>
      <trkpt lat="42.71122" lon="1.65404">
        <ele>1407.121</ele>
        <time>2021-06-13T08:05:09Z</time>
      </trkpt>
      <trkpt lat="42.71121" lon="1.65402">
        <ele>1406.412</ele>
        <time>2021-06-13T08:05:11Z</time>
      </trkpt>
      <trkpt lat="42.7112" lon="1.654">
        <ele>1405.819</ele>
        <time>2021-06-13T08:05:13Z</time>
      </trkpt>
      <trkpt lat="42.7112" lon="1.65397">
        <ele>1405.374</ele>
        <time>2021-06-13T08:05:15Z</time>
      </trkpt>
      <trkpt lat="42.71119" lon="1.65395">
        <ele>1405.86</ele>
        <time>2021-06-13T08:05:17Z</time>
      </trkpt>
      <trkpt lat="42.71118" lon="1.65393">
        <ele>1406.591</ele>
        <time>2021-06-13T08:05:19Z</time>
      </trkpt>
      <trkpt lat="42.71118" lon="1.65391">
        <ele>1406.023</ele>
        <time>2021-06-13T08:05:21Z</time>
      </trkpt>
      <trkpt lat="42.71117" lon="1.65389">
        <ele>1405.837</ele>
        <time>2021-06-13T08:05:23Z</time>
      </trkpt>
      <trkpt lat="42.71117" lon="1.65386">
        <ele>1404.404</ele>
        <time>2021-06-13T08:05:25Z</time>
      </trkpt>
      <trkpt lat="42.71116" lon="1.65384">
        <ele>1403.859</ele>
        <time>2021-06-13T08:05:27Z</time>
      </trkpt>
      <trkpt lat="42.71118" lon="1.65381">
        <ele>1403.754</ele>
        <time>2021-06-13T08:05:29Z</time>
      </trkpt>
      <trkpt lat="42.7112" lon="1.6538">
        <ele>1406.578</ele>
        <time>2021-06-13T08:05:31Z</time>
      </trkpt>
      <trkpt lat="42.71121" lon="1.65378">
        <ele>1406.898</ele>
        <time>2021-06-13T08:05:33Z</time>
      </trkpt>
      <trkpt lat="42.71121" lon="1.65376">
        <ele>1407.133</ele>
        <time>2021-06-13T08:05:35Z</time>
      </trkpt>
      <trkpt lat="42.71122" lon="1.65374">
        <ele>1407.072</ele>
        <time>2021-06-13T08:05:37Z</time>
      </trkpt>
      <trkpt lat="42.71122" lon="1.65372">
        <ele>1406.85</ele>
        <time>2021-06-13T08:05:39Z</time>
      </trkpt>
      <trkpt lat="42.71123" lon="1.65371">
        <ele>1406.634</ele>
        <time>2021-06-13T08:05:41Z</time>
      </trkpt>
      <trkpt lat="42.71125" lon="1.6537">
        <ele>1407.971</ele>
        <time>2021-06-13T08:05:43Z</time>
      </trkpt>
      <trkpt lat="42.71125" lon="1.65368">
        <ele>1407.927</ele>
        <time>2021-06-13T08:05:45Z</time>
      </trkpt>
      <trkpt lat="42.71125" lon="1.65366">
        <ele>1408.098</ele>
        <time>2021-06-13T08:05:47Z</time>
      </trkpt>
      <trkpt lat="42.71125" lon="1.65364">
        <ele>1408.331</ele>
        <time>2021-06-13T08:05:49Z</time>
      </trkpt>
      <trkpt lat="42.71124" lon="1.65363">
        <ele>1407.86</ele>
        <time>2021-06-13T08:05:51Z</time>
      </trkpt>
      <trkpt lat="42.71124" lon="1.65361">
        <ele>1407.981</ele>
        <time>2021-06-13T08:05:53Z</time>
      </trkpt>
      <trkpt lat="42.71124" lon="1.65359">
        <ele>1406.567</ele>
        <time>2021-06-13T08:05:55Z</time>
      </trkpt>
      <trkpt lat="42.71123" lon="1.65358">
        <ele>1407.078</ele>
        <time>2021-06-13T08:05:57Z</time>
      </trkpt>
      <trkpt lat="42.71124" lon="1.65355">
        <ele>1407.761</ele>
        <time>2021-06-13T08:05:59Z</time>
      </trkpt>
      <trkpt lat="42.71123" lon="1.65354">
        <ele>1407</ele>
        <time>2021-06-13T08:06:01Z</time>
      </trkpt>
      <trkpt lat="42.71122" lon="1.65352">
        <ele>1406.108</ele>
        <time>2021-06-13T08:06:03Z</time>
      </trkpt>
      <trkpt lat="42.71121" lon="1.6535">
        <ele>1405.687</ele>
        <time>2021-06-13T08:06:05Z</time>
      </trkpt>
      <trkpt lat="42.7112" lon="1.6535">
        <ele>1405.754</ele>
        <time>2021-06-13T08:06:07Z</time>
      </trkpt>
      <trkpt lat="42.71119" lon="1.65349">
        <ele>1405.62</ele>
        <time>2021-06-13T08:06:09Z</time>
      </trkpt>
      <trkpt lat="42.71118" lon="1.65348">
        <ele>1405.322</ele>
        <time>2021-06-13T08:06:11Z</time>
      </trkpt>
      <trkpt lat="42.71117" lon="1.65346">
        <ele>1406.914</ele>
        <time>2021-06-13T08:06:13Z</time>
      </trkpt>
      <trkpt lat="42.71116" lon="1.65344">
        <ele>1407.703</ele>
        <time>2021-06-13T08:06:15Z</time>
      </trkpt>
      <trkpt lat="42.71115" lon="1.65342">
        <ele>1408.025</ele>
        <time>2021-06-13T08:06:17Z</time>
      </trkpt>
      <trkpt lat="42.71115" lon="1.6534">
        <ele>1408.201</ele>
        <time>2021-06-13T08:06:19Z</time>
      </trkpt>
      <trkpt lat="42.71114" lon="1.65339">
        <ele>1408.921</ele>
        <time>2021-06-13T08:06:21Z</time>
      </trkpt>
      <trkpt lat="42.71113" lon="1.65336">
        <ele>1409.714</ele>
        <time>2021-06-13T08:06:23Z</time>
      </trkpt>
      <trkpt lat="42.71112" lon="1.65334">
        <ele>1409.668</ele>
        <time>2021-06-13T08:06:25Z</time>
      </trkpt>
      <trkpt lat="42.71111" lon="1.65332">
        <ele>1408.771</ele>
        <time>2021-06-13T08:06:27Z</time>
      </trkpt>
      <trkpt lat="42.7111" lon="1.6533">
        <ele>1410.187</ele>
        <time>2021-06-13T08:06:29Z</time>
      </trkpt>
      <trkpt lat="42.71109" lon="1.65328">
        <ele>1409.281</ele>
        <time>2021-06-13T08:06:31Z</time>
      </trkpt>
      <trkpt lat="42.71108" lon="1.65325">
        <ele>1410.219</ele>
        <time>2021-06-13T08:06:33Z</time>
      </trkpt>
      <trkpt lat="42.71107" lon="1.65322">
        <ele>1411.491</ele>
        <time>2021-06-13T08:06:35Z</time>
      </trkpt>
      <trkpt lat="42.71107" lon="1.6532">
        <ele>1411.305</ele>
        <time>2021-06-13T08:06:37Z</time>
      </trkpt>
      <trkpt lat="42.71107" lon="1.65318">
        <ele>1410.926</ele>
        <time>2021-06-13T08:06:39Z</time>
      </trkpt>
      <trkpt lat="42.71107" lon="1.65315">
        <ele>1410.811</ele>
        <time>2021-06-13T08:06:41Z</time>
      </trkpt>
      <trkpt lat="42.71107" lon="1.65312">
        <ele>1409.421</ele>
        <time>2021-06-13T08:06:43Z</time>
      </trkpt>
      <trkpt lat="42.71107" lon="1.65309">
        <ele>1409.625</ele>
        <time>2021-06-13T08:06:45Z</time>
      </trkpt>
      <trkpt lat="42.71106" lon="1.65307">
        <ele>1408.032</ele>
        <time>2021-06-13T08:06:47Z</time>
      </trkpt>
      <trkpt lat="42.71105" lon="1.65305">
        <ele>1406.325</ele>
        <time>2021-06-13T08:06:49Z</time>
      </trkpt>
      <trkpt lat="42.71104" lon="1.65303">
        <ele>1404.843</ele>
        <time>2021-06-13T08:06:51Z</time>
      </trkpt>
      <trkpt lat="42.71104" lon="1.65301">
        <ele>1403.602</ele>
        <time>2021-06-13T08:06:53Z</time>
      </trkpt>
      <trkpt lat="42.71103" lon="1.65299">
        <ele>1402.772</ele>
        <time>2021-06-13T08:06:55Z</time>
      </trkpt>
      <trkpt lat="42.71103" lon="1.65298">
        <ele>1403.331</ele>
        <time>2021-06-13T08:06:57Z</time>
      </trkpt>
      <trkpt lat="42.71102" lon="1.65297">
        <ele>1404.678</ele>
        <time>2021-06-13T08:06:59Z</time>
      </trkpt>
      <trkpt lat="42.71101" lon="1.65294">
        <ele>1403.563</ele>
        <time>2021-06-13T08:07:01Z</time>
      </trkpt>
      <trkpt lat="42.71099" lon="1.65291">
        <ele>1403.389</ele>
        <time>2021-06-13T08:07:03Z</time>
      </trkpt>
      <trkpt lat="42.71099" lon="1.65288">
        <ele>1402.02</ele>
        <time>2021-06-13T08:07:05Z</time>
      </trkpt>
      <trkpt lat="42.71098" lon="1.65285">
        <ele>1401.504</ele>
        <time>2021-06-13T08:07:07Z</time>
      </trkpt>
      <trkpt lat="42.71096" lon="1.65283">
        <ele>1399.025</ele>
        <time>2021-06-13T08:07:09Z</time>
      </trkpt>
      <trkpt lat="42.71095" lon="1.6528">
        <ele>1397.957</ele>
        <time>2021-06-13T08:07:11Z</time>
      </trkpt>
      <trkpt lat="42.71094" lon="1.65277">
        <ele>1397.852</ele>
        <time>2021-06-13T08:07:13Z</time>
      </trkpt>
      <trkpt lat="42.71093" lon="1.65275">
        <ele>1396.443</ele>
        <time>2021-06-13T08:07:15Z</time>
      </trkpt>
      <trkpt lat="42.71092" lon="1.65272">
        <ele>1395.759</ele>
        <time>2021-06-13T08:07:17Z</time>
      </trkpt>
      <trkpt lat="42.71093" lon="1.65269">
        <ele>1396.846</ele>
        <time>2021-06-13T08:07:19Z</time>
      </trkpt>
      <trkpt lat="42.71095" lon="1.65266">
        <ele>1398.735</ele>
        <time>2021-06-13T08:07:21Z</time>
      </trkpt>
      <trkpt lat="42.71097" lon="1.65264">
        <ele>1399.322</ele>
        <time>2021-06-13T08:07:23Z</time>
      </trkpt>
      <trkpt lat="42.71098" lon="1.65261">
        <ele>1400.249</ele>
        <time>2021-06-13T08:07:25Z</time>
      </trkpt>
      <trkpt lat="42.711" lon="1.65257">
        <ele>1398.849</ele>
        <time>2021-06-13T08:07:28Z</time>
      </trkpt>
      <trkpt lat="42.71101" lon="1.65254">
        <ele>1398.238</ele>
        <time>2021-06-13T08:07:30Z</time>
      </trkpt>
      <trkpt lat="42.71102" lon="1.65252">
        <ele>1398.198</ele>
        <time>2021-06-13T08:07:32Z</time>
      </trkpt>
      <trkpt lat="42.71105" lon="1.6525">
        <ele>1398.537</ele>
        <time>2021-06-13T08:07:34Z</time>
      </trkpt>
      <trkpt lat="42.71106" lon="1.65249">
        <ele>1399.438</ele>
        <time>2021-06-13T08:07:35Z</time>
      </trkpt>
      <trkpt lat="42.7111" lon="1.65249">
        <ele>1401.906</ele>
        <time>2021-06-13T08:07:38Z</time>
      </trkpt>
      <trkpt lat="42.71111" lon="1.65248">
        <ele>1401.972</ele>
        <time>2021-06-13T08:07:40Z</time>
      </trkpt>
      <trkpt lat="42.71112" lon="1.65247">
        <ele>1401.719</ele>
        <time>2021-06-13T08:07:42Z</time>
      </trkpt>
      <trkpt lat="42.71114" lon="1.65245">
        <ele>1402.833</ele>
        <time>2021-06-13T08:07:44Z</time>
      </trkpt>
      <trkpt lat="42.71115" lon="1.65244">
        <ele>1403.407</ele>
        <time>2021-06-13T08:07:45Z</time>
      </trkpt>
      <trkpt lat="42.71118" lon="1.65244">
        <ele>1407.288</ele>
        <time>2021-06-13T08:07:48Z</time>
      </trkpt>
      <trkpt lat="42.7112" lon="1.65243">
        <ele>1406.469</ele>
        <time>2021-06-13T08:07:50Z</time>
      </trkpt>
      <trkpt lat="42.71123" lon="1.65242">
        <ele>1407.985</ele>
        <time>2021-06-13T08:07:52Z</time>
      </trkpt>
      <trkpt lat="42.71124" lon="1.6524">
        <ele>1406.943</ele>
        <time>2021-06-13T08:07:54Z</time>
      </trkpt>
      <trkpt lat="42.71125" lon="1.65239">
        <ele>1408.203</ele>
        <time>2021-06-13T08:07:55Z</time>
      </trkpt>
      <trkpt lat="42.71126" lon="1.65236">
        <ele>1409.309</ele>
        <time>2021-06-13T08:07:58Z</time>
      </trkpt>
      <trkpt lat="42.71128" lon="1.65235">
        <ele>1410.072</ele>
        <time>2021-06-13T08:08:00Z</time>
      </trkpt>
      <trkpt lat="42.71128" lon="1.65232">
        <ele>1411.237</ele>
        <time>2021-06-13T08:08:02Z</time>
      </trkpt>
      <trkpt lat="42.71129" lon="1.65231">
        <ele>1411.476</ele>
        <time>2021-06-13T08:08:04Z</time>
      </trkpt>
      <trkpt lat="42.71129" lon="1.6523">
        <ele>1410.712</ele>
        <time>2021-06-13T08:08:05Z</time>
      </trkpt>
      <trkpt lat="42.71132" lon="1.65227">
        <ele>1413.71</ele>
        <time>2021-06-13T08:08:08Z</time>
      </trkpt>
      <trkpt lat="42.71133" lon="1.65225">
        <ele>1413.363</ele>
        <time>2021-06-13T08:08:10Z</time>
      </trkpt>
      <trkpt lat="42.71133" lon="1.65223">
        <ele>1412.543</ele>
        <time>2021-06-13T08:08:12Z</time>
      </trkpt>
      <trkpt lat="42.71134" lon="1.65221">
        <ele>1412.996</ele>
        <time>2021-06-13T08:08:14Z</time>
      </trkpt>
      <trkpt lat="42.71135" lon="1.65219">
        <ele>1413.271</ele>
        <time>2021-06-13T08:08:16Z</time>
      </trkpt>
      <trkpt lat="42.71135" lon="1.65217">
        <ele>1413.506</ele>
        <time>2021-06-13T08:08:18Z</time>
      </trkpt>
      <trkpt lat="42.71135" lon="1.65215">
        <ele>1413.642</ele>
        <time>2021-06-13T08:08:20Z</time>
      </trkpt>
      <trkpt lat="42.71136" lon="1.65212">
        <ele>1412.721</ele>
        <time>2021-06-13T08:08:22Z</time>
      </trkpt>
      <trkpt lat="42.71138" lon="1.6521">
        <ele>1412.605</ele>
        <time>2021-06-13T08:08:24Z</time>
      </trkpt>
      <trkpt lat="42.7114" lon="1.6521">
        <ele>1417.123</ele>
        <time>2021-06-13T08:08:26Z</time>
      </trkpt>
      <trkpt lat="42.71143" lon="1.65211">
        <ele>1418.481</ele>
        <time>2021-06-13T08:08:28Z</time>
      </trkpt>
      <trkpt lat="42.71145" lon="1.65212">
        <ele>1419.943</ele>
        <time>2021-06-13T08:08:30Z</time>
      </trkpt>
      <trkpt lat="42.71147" lon="1.65213">
        <ele>1419.805</ele>
        <time>2021-06-13T08:08:32Z</time>
      </trkpt>
      <trkpt lat="42.7115" lon="1.65214">
        <ele>1422.103</ele>
        <time>2021-06-13T08:08:34Z</time>
      </trkpt>
      <trkpt lat="42.71152" lon="1.65214">
        <ele>1423.392</ele>
        <time>2021-06-13T08:08:36Z</time>
      </trkpt>
      <trkpt lat="42.71154" lon="1.65213">
        <ele>1424.277</ele>
        <time>2021-06-13T08:08:38Z</time>
      </trkpt>
      <trkpt lat="42.71155" lon="1.65212">
        <ele>1425.717</ele>
        <time>2021-06-13T08:08:40Z</time>
      </trkpt>
      <trkpt lat="42.71157" lon="1.65212">
        <ele>1425.528</ele>
        <time>2021-06-13T08:08:42Z</time>
      </trkpt>
      <trkpt lat="42.71159" lon="1.65212">
        <ele>1424.353</ele>
        <time>2021-06-13T08:08:45Z</time>
      </trkpt>
      <trkpt lat="42.7116" lon="1.65212">
        <ele>1423.773</ele>
        <time>2021-06-13T08:08:47Z</time>
      </trkpt>
      <trkpt lat="42.71162" lon="1.65212">
        <ele>1423.521</ele>
        <time>2021-06-13T08:08:49Z</time>
      </trkpt>
      <trkpt lat="42.71164" lon="1.65212">
        <ele>1424.985</ele>
        <time>2021-06-13T08:08:51Z</time>
      </trkpt>
      <trkpt lat="42.71167" lon="1.65212">
        <ele>1426.705</ele>
        <time>2021-06-13T08:08:53Z</time>
      </trkpt>
      <trkpt lat="42.71169" lon="1.65213">
        <ele>1427.652</ele>
        <time>2021-06-13T08:08:55Z</time>
      </trkpt>
      <trkpt lat="42.71172" lon="1.65212">
        <ele>1427.941</ele>
        <time>2021-06-13T08:08:57Z</time>
      </trkpt>
      <trkpt lat="42.71173" lon="1.65211">
        <ele>1428.216</ele>
        <time>2021-06-13T08:08:59Z</time>
      </trkpt>
      <trkpt lat="42.71175" lon="1.6521">
        <ele>1428.028</ele>
        <time>2021-06-13T08:09:01Z</time>
      </trkpt>
      <trkpt lat="42.71176" lon="1.65209">
        <ele>1426.746</ele>
        <time>2021-06-13T08:09:03Z</time>
      </trkpt>
      <trkpt lat="42.71178" lon="1.65207">
        <ele>1426.853</ele>
        <time>2021-06-13T08:09:05Z</time>
      </trkpt>
      <trkpt lat="42.71179" lon="1.65206">
        <ele>1425.908</ele>
        <time>2021-06-13T08:09:07Z</time>
      </trkpt>
      <trkpt lat="42.7118" lon="1.65204">
        <ele>1424.99</ele>
        <time>2021-06-13T08:09:09Z</time>
      </trkpt>
      <trkpt lat="42.71181" lon="1.65202">
        <ele>1424.84</ele>
        <time>2021-06-13T08:09:11Z</time>
      </trkpt>
      <trkpt lat="42.71182" lon="1.65201">
        <ele>1424.109</ele>
        <time>2021-06-13T08:09:13Z</time>
      </trkpt>
      <trkpt lat="42.71184" lon="1.65199">
        <ele>1423.921</ele>
        <time>2021-06-13T08:09:15Z</time>
      </trkpt>
      <trkpt lat="42.71185" lon="1.65198">
        <ele>1425.157</ele>
        <time>2021-06-13T08:09:17Z</time>
      </trkpt>
      <trkpt lat="42.71186" lon="1.65196">
        <ele>1425.894</ele>
        <time>2021-06-13T08:09:19Z</time>
      </trkpt>
      <trkpt lat="42.71188" lon="1.65195">
        <ele>1428.047</ele>
        <time>2021-06-13T08:09:21Z</time>
      </trkpt>
      <trkpt lat="42.71188" lon="1.65194">
        <ele>1427.702</ele>
        <time>2021-06-13T08:09:23Z</time>
      </trkpt>
      <trkpt lat="42.71192" lon="1.6519">
        <ele>1427.885</ele>
        <time>2021-06-13T08:09:25Z</time>
      </trkpt>
      <trkpt lat="42.71191" lon="1.65194">
        <ele>1430.349</ele>
        <time>2021-06-13T08:09:27Z</time>
      </trkpt>
      <trkpt lat="42.71191" lon="1.65196">
        <ele>1431.544</ele>
        <time>2021-06-13T08:09:29Z</time>
      </trkpt>
      <trkpt lat="42.71192" lon="1.65196">
        <ele>1431.568</ele>
        <time>2021-06-13T08:09:31Z</time>
      </trkpt>
      <trkpt lat="42.71193" lon="1.65196">
        <ele>1431.854</ele>
        <time>2021-06-13T08:09:33Z</time>
      </trkpt>
      <trkpt lat="42.71194" lon="1.65196">
        <ele>1432.414</ele>
        <time>2021-06-13T08:09:35Z</time>
      </trkpt>
      <trkpt lat="42.71196" lon="1.65195">
        <ele>1432.261</ele>
        <time>2021-06-13T08:09:37Z</time>
      </trkpt>
      <trkpt lat="42.71197" lon="1.65195">
        <ele>1431.612</ele>
        <time>2021-06-13T08:09:39Z</time>
      </trkpt>
      <trkpt lat="42.71197" lon="1.65194">
        <ele>1431.597</ele>
        <time>2021-06-13T08:09:42Z</time>
      </trkpt>
      <trkpt lat="42.71197" lon="1.65194">
        <ele>1431.604</ele>
        <time>2021-06-13T08:09:44Z</time>
      </trkpt>
      <trkpt lat="42.71197" lon="1.65194">
        <ele>1431.025</ele>
        <time>2021-06-13T08:09:46Z</time>
      </trkpt>
      <trkpt lat="42.71197" lon="1.65194">
        <ele>1431.044</ele>
        <time>2021-06-13T08:09:48Z</time>
      </trkpt>
      <trkpt lat="42.71197" lon="1.65194">
        <ele>1431.071</ele>
        <time>2021-06-13T08:09:50Z</time>
      </trkpt>
      <trkpt lat="42.71197" lon="1.65194">
        <ele>1431.077</ele>
        <time>2021-06-13T08:09:52Z</time>
      </trkpt>
      <trkpt lat="42.71197" lon="1.65194">
        <ele>1431.082</ele>
        <time>2021-06-13T08:09:54Z</time>
      </trkpt>
      <trkpt lat="42.71197" lon="1.65194">
        <ele>1431.08</ele>
        <time>2021-06-13T08:09:56Z</time>
      </trkpt>
      <trkpt lat="42.71197" lon="1.65194">
        <ele>1431.078</ele>
        <time>2021-06-13T08:09:58Z</time>
      </trkpt>
      <trkpt lat="42.71197" lon="1.65194">
        <ele>1431.073</ele>
        <time>2021-06-13T08:10:00Z</time>
      </trkpt>
      <trkpt lat="42.71197" lon="1.65194">
        <ele>1431.069</ele>
        <time>2021-06-13T08:10:02Z</time>
      </trkpt>
      <trkpt lat="42.71197" lon="1.65194">
        <ele>1431.069</ele>
        <time>2021-06-13T08:10:04Z</time>
      </trkpt>
      <trkpt lat="42.71197" lon="1.65194">
        <ele>1431.064</ele>
        <time>2021-06-13T08:10:06Z</time>
      </trkpt>
      <trkpt lat="42.71197" lon="1.65194">
        <ele>1431.066</ele>
        <time>2021-06-13T08:10:08Z</time>
      </trkpt>
      <trkpt lat="42.71197" lon="1.65194">
        <ele>1431.066</ele>
        <time>2021-06-13T08:10:10Z</time>
      </trkpt>
      <trkpt lat="42.71197" lon="1.65194">
        <ele>1431.063</ele>
        <time>2021-06-13T08:10:12Z</time>
      </trkpt>
      <trkpt lat="42.71197" lon="1.65194">
        <ele>1431.057</ele>
        <time>2021-06-13T08:10:14Z</time>
      </trkpt>
      <trkpt lat="42.71197" lon="1.65194">
        <ele>1431.048</ele>
        <time>2021-06-13T08:10:16Z</time>
      </trkpt>
      <trkpt lat="42.71197" lon="1.65194">
        <ele>1431.037</ele>
        <time>2021-06-13T08:10:18Z</time>
      </trkpt>
      <trkpt lat="42.71197" lon="1.65194">
        <ele>1431.041</ele>
        <time>2021-06-13T08:10:20Z</time>
      </trkpt>
      <trkpt lat="42.71197" lon="1.65194">
        <ele>1431.05</ele>
        <time>2021-06-13T08:10:22Z</time>
      </trkpt>
      <trkpt lat="42.71197" lon="1.65194">
        <ele>1431.069</ele>
        <time>2021-06-13T08:10:24Z</time>
      </trkpt>
      <trkpt lat="42.71197" lon="1.65194">
        <ele>1431.065</ele>
        <time>2021-06-13T08:10:26Z</time>
      </trkpt>
      <trkpt lat="42.71197" lon="1.65194">
        <ele>1430.85</ele>
        <time>2021-06-13T08:10:28Z</time>
      </trkpt>
      <trkpt lat="42.71197" lon="1.65194">
        <ele>1430.858</ele>
        <time>2021-06-13T08:10:30Z</time>
      </trkpt>
      <trkpt lat="42.71197" lon="1.65194">
        <ele>1430.856</ele>
        <time>2021-06-13T08:10:32Z</time>
      </trkpt>
      <trkpt lat="42.71197" lon="1.65194">
        <ele>1430.863</ele>
        <time>2021-06-13T08:10:34Z</time>
      </trkpt>
      <trkpt lat="42.71197" lon="1.65194">
        <ele>1430.868</ele>
        <time>2021-06-13T08:10:36Z</time>
      </trkpt>
      <trkpt lat="42.71197" lon="1.65194">
        <ele>1430.874</ele>
        <time>2021-06-13T08:10:38Z</time>
      </trkpt>
      <trkpt lat="42.71197" lon="1.65194">
        <ele>1430.871</ele>
        <time>2021-06-13T08:10:40Z</time>
      </trkpt>
      <trkpt lat="42.71197" lon="1.65194">
        <ele>1430.876</ele>
        <time>2021-06-13T08:10:42Z</time>
      </trkpt>
      <trkpt lat="42.71198" lon="1.65194">
        <ele>1429.929</ele>
        <time>2021-06-13T08:10:44Z</time>
      </trkpt>
      <trkpt lat="42.71198" lon="1.65194">
        <ele>1429.906</ele>
        <time>2021-06-13T08:10:46Z</time>
      </trkpt>
      <trkpt lat="42.71198" lon="1.65194">
        <ele>1429.907</ele>
        <time>2021-06-13T08:10:48Z</time>
      </trkpt>
      <trkpt lat="42.71198" lon="1.65194">
        <ele>1429.896</ele>
        <time>2021-06-13T08:10:50Z</time>
      </trkpt>
      <trkpt lat="42.71198" lon="1.65194">
        <ele>1429.879</ele>
        <time>2021-06-13T08:10:52Z</time>
      </trkpt>
      <trkpt lat="42.71198" lon="1.65194">
        <ele>1429.878</ele>
        <time>2021-06-13T08:10:54Z</time>
      </trkpt>
      <trkpt lat="42.71198" lon="1.65194">
        <ele>1429.768</ele>
        <time>2021-06-13T08:10:56Z</time>
      </trkpt>
      <trkpt lat="42.71199" lon="1.65194">
        <ele>1429.294</ele>
        <time>2021-06-13T08:10:58Z</time>
      </trkpt>
      <trkpt lat="42.712" lon="1.65195">
        <ele>1428.169</ele>
        <time>2021-06-13T08:11:00Z</time>
      </trkpt>
      <trkpt lat="42.71201" lon="1.65196">
        <ele>1429.294</ele>
        <time>2021-06-13T08:11:02Z</time>
      </trkpt>
      <trkpt lat="42.71203" lon="1.65197">
        <ele>1430.994</ele>
        <time>2021-06-13T08:11:04Z</time>
      </trkpt>
      <trkpt lat="42.71204" lon="1.65197">
        <ele>1432.994</ele>
        <time>2021-06-13T08:11:06Z</time>
      </trkpt>
      <trkpt lat="42.71206" lon="1.65199">
        <ele>1434.663</ele>
        <time>2021-06-13T08:11:08Z</time>
      </trkpt>
      <trkpt lat="42.71206" lon="1.65199">
        <ele>1434.676</ele>
        <time>2021-06-13T08:11:10Z</time>
      </trkpt>
      <trkpt lat="42.71206" lon="1.65199">
        <ele>1435.132</ele>
        <time>2021-06-13T08:11:12Z</time>
      </trkpt>
      <trkpt lat="42.71206" lon="1.65199">
        <ele>1435.811</ele>
        <time>2021-06-13T08:11:14Z</time>
      </trkpt>
      <trkpt lat="42.71206" lon="1.65199">
        <ele>1436.137</ele>
        <time>2021-06-13T08:11:16Z</time>
      </trkpt>
      <trkpt lat="42.71206" lon="1.65199">
        <ele>1436.141</ele>
        <time>2021-06-13T08:11:18Z</time>
      </trkpt>
      <trkpt lat="42.71206" lon="1.652">
        <ele>1436.72</ele>
        <time>2021-06-13T08:11:20Z</time>
      </trkpt>
      <trkpt lat="42.71206" lon="1.652">
        <ele>1436.778</ele>
        <time>2021-06-13T08:11:22Z</time>
      </trkpt>
      <trkpt lat="42.71206" lon="1.652">
        <ele>1437.937</ele>
        <time>2021-06-13T08:11:24Z</time>
      </trkpt>
      <trkpt lat="42.71206" lon="1.65201">
        <ele>1436.994</ele>
        <time>2021-06-13T08:11:26Z</time>
      </trkpt>
      <trkpt lat="42.71205" lon="1.65201">
        <ele>1437.069</ele>
        <time>2021-06-13T08:11:28Z</time>
      </trkpt>
      <trkpt lat="42.71205" lon="1.65201">
        <ele>1437.07</ele>
        <time>2021-06-13T08:11:30Z</time>
      </trkpt>
      <trkpt lat="42.71204" lon="1.65201">
        <ele>1436.443</ele>
        <time>2021-06-13T08:11:32Z</time>
      </trkpt>
      <trkpt lat="42.71204" lon="1.65201">
        <ele>1436.387</ele>
        <time>2021-06-13T08:11:34Z</time>
      </trkpt>
      <trkpt lat="42.71205" lon="1.65201">
        <ele>1436.362</ele>
        <time>2021-06-13T08:11:36Z</time>
      </trkpt>
      <trkpt lat="42.71204" lon="1.65201">
        <ele>1436.481</ele>
        <time>2021-06-13T08:11:38Z</time>
      </trkpt>
      <trkpt lat="42.71205" lon="1.652">
        <ele>1436.954</ele>
        <time>2021-06-13T08:11:40Z</time>
      </trkpt>
      <trkpt lat="42.71204" lon="1.65199">
        <ele>1437.249</ele>
        <time>2021-06-13T08:11:42Z</time>
      </trkpt>
      <trkpt lat="42.71204" lon="1.65198">
        <ele>1437.623</ele>
        <time>2021-06-13T08:11:44Z</time>
      </trkpt>
      <trkpt lat="42.71204" lon="1.65198">
        <ele>1437.47</ele>
        <time>2021-06-13T08:11:46Z</time>
      </trkpt>
      <trkpt lat="42.71204" lon="1.65198">
        <ele>1437.507</ele>
        <time>2021-06-13T08:11:48Z</time>
      </trkpt>
      <trkpt lat="42.71204" lon="1.65198">
        <ele>1437.516</ele>
        <time>2021-06-13T08:11:50Z</time>
      </trkpt>
      <trkpt lat="42.71204" lon="1.65198">
        <ele>1438.287</ele>
        <time>2021-06-13T08:11:52Z</time>
      </trkpt>
      <trkpt lat="42.71204" lon="1.65197">
        <ele>1438.203</ele>
        <time>2021-06-13T08:11:54Z</time>
      </trkpt>
      <trkpt lat="42.71204" lon="1.65197">
        <ele>1438.112</ele>
        <time>2021-06-13T08:11:56Z</time>
      </trkpt>
      <trkpt lat="42.71204" lon="1.65197">
        <ele>1438.13</ele>
        <time>2021-06-13T08:11:58Z</time>
      </trkpt>
      <trkpt lat="42.71204" lon="1.65197">
        <ele>1438.142</ele>
        <time>2021-06-13T08:12:00Z</time>
      </trkpt>
      <trkpt lat="42.71204" lon="1.65197">
        <ele>1438.145</ele>
        <time>2021-06-13T08:12:02Z</time>
      </trkpt>
      <trkpt lat="42.71204" lon="1.65197">
        <ele>1438.155</ele>
        <time>2021-06-13T08:12:04Z</time>
      </trkpt>
      <trkpt lat="42.71204" lon="1.65197">
        <ele>1438.164</ele>
        <time>2021-06-13T08:12:06Z</time>
      </trkpt>
      <trkpt lat="42.71204" lon="1.65197">
        <ele>1438.163</ele>
        <time>2021-06-13T08:12:08Z</time>
      </trkpt>
      <trkpt lat="42.71204" lon="1.65197">
        <ele>1438.178</ele>
        <time>2021-06-13T08:12:10Z</time>
      </trkpt>
      <trkpt lat="42.71204" lon="1.65197">
        <ele>1438.185</ele>
        <time>2021-06-13T08:12:12Z</time>
      </trkpt>
      <trkpt lat="42.71204" lon="1.65197">
        <ele>1438.187</ele>
        <time>2021-06-13T08:12:14Z</time>
      </trkpt>
      <trkpt lat="42.71204" lon="1.65197">
        <ele>1438.345</ele>
        <time>2021-06-13T08:12:16Z</time>
      </trkpt>
      <trkpt lat="42.71205" lon="1.65198">
        <ele>1438.416</ele>
        <time>2021-06-13T08:12:18Z</time>
      </trkpt>
      <trkpt lat="42.71205" lon="1.65198">
        <ele>1439.227</ele>
        <time>2021-06-13T08:12:20Z</time>
      </trkpt>
      <trkpt lat="42.71205" lon="1.65198">
        <ele>1440.634</ele>
        <time>2021-06-13T08:12:22Z</time>
      </trkpt>
      <trkpt lat="42.71205" lon="1.652">
        <ele>1442.008</ele>
        <time>2021-06-13T08:12:24Z</time>
      </trkpt>
      <trkpt lat="42.71206" lon="1.65202">
        <ele>1443.26</ele>
        <time>2021-06-13T08:12:26Z</time>
      </trkpt>
      <trkpt lat="42.71205" lon="1.652">
        <ele>1444.247</ele>
        <time>2021-06-13T08:12:28Z</time>
      </trkpt>
      <trkpt lat="42.71203" lon="1.65197">
        <ele>1443.313</ele>
        <time>2021-06-13T08:12:30Z</time>
      </trkpt>
      <trkpt lat="42.71203" lon="1.65196">
        <ele>1442.346</ele>
        <time>2021-06-13T08:12:32Z</time>
      </trkpt>
      <trkpt lat="42.71202" lon="1.65196">
        <ele>1442.763</ele>
        <time>2021-06-13T08:12:34Z</time>
      </trkpt>
      <trkpt lat="42.71201" lon="1.65195">
        <ele>1440.587</ele>
        <time>2021-06-13T08:12:36Z</time>
      </trkpt>
      <trkpt lat="42.71201" lon="1.65194">
        <ele>1440.915</ele>
        <time>2021-06-13T08:12:38Z</time>
      </trkpt>
      <trkpt lat="42.712" lon="1.6519">
        <ele>1440.147</ele>
        <time>2021-06-13T08:12:40Z</time>
      </trkpt>
      <trkpt lat="42.71201" lon="1.65186">
        <ele>1440.948</ele>
        <time>2021-06-13T08:12:42Z</time>
      </trkpt>
      <trkpt lat="42.71201" lon="1.65183">
        <ele>1440.322</ele>
        <time>2021-06-13T08:12:44Z</time>
      </trkpt>
      <trkpt lat="42.71203" lon="1.65181">
        <ele>1439.862</ele>
        <time>2021-06-13T08:12:46Z</time>
      </trkpt>
      <trkpt lat="42.71205" lon="1.6518">
        <ele>1440.904</ele>
        <time>2021-06-13T08:12:48Z</time>
      </trkpt>
      <trkpt lat="42.71206" lon="1.65179">
        <ele>1441.227</ele>
        <time>2021-06-13T08:12:50Z</time>
      </trkpt>
      <trkpt lat="42.71207" lon="1.65177">
        <ele>1443.763</ele>
        <time>2021-06-13T08:12:52Z</time>
      </trkpt>
      <trkpt lat="42.71208" lon="1.65176">
        <ele>1442.594</ele>
        <time>2021-06-13T08:12:54Z</time>
      </trkpt>
      <trkpt lat="42.7121" lon="1.65175">
        <ele>1445.017</ele>
        <time>2021-06-13T08:12:56Z</time>
      </trkpt>
      <trkpt lat="42.71211" lon="1.65174">
        <ele>1445.828</ele>
        <time>2021-06-13T08:12:58Z</time>
      </trkpt>
      <trkpt lat="42.71211" lon="1.65173">
        <ele>1446.545</ele>
        <time>2021-06-13T08:13:00Z</time>
      </trkpt>
      <trkpt lat="42.71212" lon="1.65172">
        <ele>1445.024</ele>
        <time>2021-06-13T08:13:02Z</time>
      </trkpt>
      <trkpt lat="42.71212" lon="1.6517">
        <ele>1442.894</ele>
        <time>2021-06-13T08:13:04Z</time>
      </trkpt>
      <trkpt lat="42.71211" lon="1.65169">
        <ele>1443.015</ele>
        <time>2021-06-13T08:13:06Z</time>
      </trkpt>
      <trkpt lat="42.71211" lon="1.65168">
        <ele>1442.413</ele>
        <time>2021-06-13T08:13:08Z</time>
      </trkpt>
      <trkpt lat="42.7121" lon="1.65167">
        <ele>1441.919</ele>
        <time>2021-06-13T08:13:10Z</time>
      </trkpt>
      <trkpt lat="42.7121" lon="1.65165">
        <ele>1440.568</ele>
        <time>2021-06-13T08:13:12Z</time>
      </trkpt>
      <trkpt lat="42.71211" lon="1.65163">
        <ele>1438.816</ele>
        <time>2021-06-13T08:13:14Z</time>
      </trkpt>
      <trkpt lat="42.71212" lon="1.65162">
        <ele>1439.087</ele>
        <time>2021-06-13T08:13:16Z</time>
      </trkpt>
      <trkpt lat="42.71213" lon="1.65162">
        <ele>1439.915</ele>
        <time>2021-06-13T08:13:18Z</time>
      </trkpt>
      <trkpt lat="42.71214" lon="1.65161">
        <ele>1439.574</ele>
        <time>2021-06-13T08:13:20Z</time>
      </trkpt>
      <trkpt lat="42.71214" lon="1.65159">
        <ele>1440.359</ele>
        <time>2021-06-13T08:13:22Z</time>
      </trkpt>
      <trkpt lat="42.71215" lon="1.65158">
        <ele>1440.753</ele>
        <time>2021-06-13T08:13:24Z</time>
      </trkpt>
      <trkpt lat="42.71217" lon="1.65157">
        <ele>1442.166</ele>
        <time>2021-06-13T08:13:26Z</time>
      </trkpt>
      <trkpt lat="42.71218" lon="1.65156">
        <ele>1443.162</ele>
        <time>2021-06-13T08:13:28Z</time>
      </trkpt>
      <trkpt lat="42.7122" lon="1.65154">
        <ele>1443.498</ele>
        <time>2021-06-13T08:13:30Z</time>
      </trkpt>
      <trkpt lat="42.71221" lon="1.65152">
        <ele>1443.181</ele>
        <time>2021-06-13T08:13:32Z</time>
      </trkpt>
      <trkpt lat="42.71222" lon="1.6515">
        <ele>1441.625</ele>
        <time>2021-06-13T08:13:34Z</time>
      </trkpt>
      <trkpt lat="42.71221" lon="1.65148">
        <ele>1441.764</ele>
        <time>2021-06-13T08:13:36Z</time>
      </trkpt>
      <trkpt lat="42.71221" lon="1.65146">
        <ele>1441.447</ele>
        <time>2021-06-13T08:13:38Z</time>
      </trkpt>
      <trkpt lat="42.71221" lon="1.65144">
        <ele>1440.768</ele>
        <time>2021-06-13T08:13:40Z</time>
      </trkpt>
      <trkpt lat="42.71223" lon="1.65142">
        <ele>1441.154</ele>
        <time>2021-06-13T08:13:42Z</time>
      </trkpt>
      <trkpt lat="42.71223" lon="1.65139">
        <ele>1441.096</ele>
        <time>2021-06-13T08:13:44Z</time>
      </trkpt>
      <trkpt lat="42.71224" lon="1.65136">
        <ele>1442.53</ele>
        <time>2021-06-13T08:13:46Z</time>
      </trkpt>
      <trkpt lat="42.71226" lon="1.65134">
        <ele>1442.819</ele>
        <time>2021-06-13T08:13:48Z</time>
      </trkpt>
      <trkpt lat="42.71228" lon="1.65132">
        <ele>1442.699</ele>
        <time>2021-06-13T08:13:50Z</time>
      </trkpt>
      <trkpt lat="42.71229" lon="1.65131">
        <ele>1442.812</ele>
        <time>2021-06-13T08:13:52Z</time>
      </trkpt>
      <trkpt lat="42.7123" lon="1.6513">
        <ele>1443.703</ele>
        <time>2021-06-13T08:13:54Z</time>
      </trkpt>
      <trkpt lat="42.71231" lon="1.65128">
        <ele>1444.577</ele>
        <time>2021-06-13T08:13:56Z</time>
      </trkpt>
      <trkpt lat="42.71232" lon="1.65129">
        <ele>1445.984</ele>
        <time>2021-06-13T08:13:58Z</time>
      </trkpt>
      <trkpt lat="42.71232" lon="1.65129">
        <ele>1445.99</ele>
        <time>2021-06-13T08:14:00Z</time>
      </trkpt>
      <trkpt lat="42.71232" lon="1.65128">
        <ele>1445.503</ele>
        <time>2021-06-13T08:14:02Z</time>
      </trkpt>
      <trkpt lat="42.71231" lon="1.65126">
        <ele>1446.074</ele>
        <time>2021-06-13T08:14:04Z</time>
      </trkpt>
      <trkpt lat="42.71233" lon="1.65123">
        <ele>1445.67</ele>
        <time>2021-06-13T08:14:06Z</time>
      </trkpt>
      <trkpt lat="42.71234" lon="1.6512">
        <ele>1445.369</ele>
        <time>2021-06-13T08:14:08Z</time>
      </trkpt>
      <trkpt lat="42.71235" lon="1.65118">
        <ele>1445.082</ele>
        <time>2021-06-13T08:14:10Z</time>
      </trkpt>
      <trkpt lat="42.71236" lon="1.65116">
        <ele>1444.858</ele>
        <time>2021-06-13T08:14:12Z</time>
      </trkpt>
      <trkpt lat="42.71236" lon="1.65115">
        <ele>1445.236</ele>
        <time>2021-06-13T08:14:14Z</time>
      </trkpt>
      <trkpt lat="42.71237" lon="1.65112">
        <ele>1446.661</ele>
        <time>2021-06-13T08:14:16Z</time>
      </trkpt>
      <trkpt lat="42.71237" lon="1.65111">
        <ele>1446.841</ele>
        <time>2021-06-13T08:14:18Z</time>
      </trkpt>
      <trkpt lat="42.71239" lon="1.6511">
        <ele>1447.048</ele>
        <time>2021-06-13T08:14:20Z</time>
      </trkpt>
      <trkpt lat="42.71241" lon="1.65109">
        <ele>1448.462</ele>
        <time>2021-06-13T08:14:22Z</time>
      </trkpt>
      <trkpt lat="42.71242" lon="1.65108">
        <ele>1448.599</ele>
        <time>2021-06-13T08:14:24Z</time>
      </trkpt>
      <trkpt lat="42.71243" lon="1.65106">
        <ele>1449.559</ele>
        <time>2021-06-13T08:14:26Z</time>
      </trkpt>
      <trkpt lat="42.71243" lon="1.65104">
        <ele>1450.159</ele>
        <time>2021-06-13T08:14:28Z</time>
      </trkpt>
      <trkpt lat="42.71244" lon="1.65101">
        <ele>1450.667</ele>
        <time>2021-06-13T08:14:30Z</time>
      </trkpt>
      <trkpt lat="42.71244" lon="1.65099">
        <ele>1450.412</ele>
        <time>2021-06-13T08:14:32Z</time>
      </trkpt>
      <trkpt lat="42.71244" lon="1.65097">
        <ele>1449.553</ele>
        <time>2021-06-13T08:14:34Z</time>
      </trkpt>
      <trkpt lat="42.71244" lon="1.65094">
        <ele>1451.857</ele>
        <time>2021-06-13T08:14:36Z</time>
      </trkpt>
      <trkpt lat="42.71244" lon="1.65091">
        <ele>1450.939</ele>
        <time>2021-06-13T08:14:38Z</time>
      </trkpt>
      <trkpt lat="42.71244" lon="1.65089">
        <ele>1450.864</ele>
        <time>2021-06-13T08:14:40Z</time>
      </trkpt>
      <trkpt lat="42.71245" lon="1.65087">
        <ele>1450.605</ele>
        <time>2021-06-13T08:14:42Z</time>
      </trkpt>
      <trkpt lat="42.71246" lon="1.65084">
        <ele>1450.969</ele>
        <time>2021-06-13T08:14:44Z</time>
      </trkpt>
      <trkpt lat="42.71248" lon="1.65083">
        <ele>1451.341</ele>
        <time>2021-06-13T08:14:46Z</time>
      </trkpt>
      <trkpt lat="42.71248" lon="1.65081">
        <ele>1450.916</ele>
        <time>2021-06-13T08:14:48Z</time>
      </trkpt>
      <trkpt lat="42.71248" lon="1.65079">
        <ele>1451.086</ele>
        <time>2021-06-13T08:14:50Z</time>
      </trkpt>
      <trkpt lat="42.71247" lon="1.65078">
        <ele>1450.511</ele>
        <time>2021-06-13T08:14:52Z</time>
      </trkpt>
      <trkpt lat="42.71247" lon="1.65075">
        <ele>1451.194</ele>
        <time>2021-06-13T08:14:54Z</time>
      </trkpt>
      <trkpt lat="42.71248" lon="1.65073">
        <ele>1451.594</ele>
        <time>2021-06-13T08:14:56Z</time>
      </trkpt>
      <trkpt lat="42.71249" lon="1.65071">
        <ele>1451.757</ele>
        <time>2021-06-13T08:14:58Z</time>
      </trkpt>
      <trkpt lat="42.71248" lon="1.65069">
        <ele>1451.688</ele>
        <time>2021-06-13T08:15:00Z</time>
      </trkpt>
      <trkpt lat="42.71248" lon="1.65067">
        <ele>1452.563</ele>
        <time>2021-06-13T08:15:02Z</time>
      </trkpt>
      <trkpt lat="42.71247" lon="1.65065">
        <ele>1452.267</ele>
        <time>2021-06-13T08:15:04Z</time>
      </trkpt>
      <trkpt lat="42.71246" lon="1.65064">
        <ele>1453.072</ele>
        <time>2021-06-13T08:15:06Z</time>
      </trkpt>
      <trkpt lat="42.71245" lon="1.65063">
        <ele>1453.043</ele>
        <time>2021-06-13T08:15:08Z</time>
      </trkpt>
      <trkpt lat="42.71245" lon="1.65063">
        <ele>1452.798</ele>
        <time>2021-06-13T08:15:10Z</time>
      </trkpt>
      <trkpt lat="42.71244" lon="1.65061">
        <ele>1452.601</ele>
        <time>2021-06-13T08:15:12Z</time>
      </trkpt>
      <trkpt lat="42.71243" lon="1.65059">
        <ele>1452.584</ele>
        <time>2021-06-13T08:15:14Z</time>
      </trkpt>
      <trkpt lat="42.71243" lon="1.65058">
        <ele>1452.587</ele>
        <time>2021-06-13T08:15:16Z</time>
      </trkpt>
      <trkpt lat="42.71243" lon="1.65056">
        <ele>1454.041</ele>
        <time>2021-06-13T08:15:18Z</time>
      </trkpt>
      <trkpt lat="42.71242" lon="1.65055">
        <ele>1456.093</ele>
        <time>2021-06-13T08:15:20Z</time>
      </trkpt>
      <trkpt lat="42.71241" lon="1.65053">
        <ele>1457.885</ele>
        <time>2021-06-13T08:15:22Z</time>
      </trkpt>
      <trkpt lat="42.71241" lon="1.65052">
        <ele>1458.435</ele>
        <time>2021-06-13T08:15:24Z</time>
      </trkpt>
      <trkpt lat="42.7124" lon="1.6505">
        <ele>1457.009</ele>
        <time>2021-06-13T08:15:26Z</time>
      </trkpt>
      <trkpt lat="42.7124" lon="1.65048">
        <ele>1456.531</ele>
        <time>2021-06-13T08:15:28Z</time>
      </trkpt>
      <trkpt lat="42.7124" lon="1.65046">
        <ele>1456.836</ele>
        <time>2021-06-13T08:15:30Z</time>
      </trkpt>
      <trkpt lat="42.7124" lon="1.65045">
        <ele>1456.145</ele>
        <time>2021-06-13T08:15:32Z</time>
      </trkpt>
      <trkpt lat="42.7124" lon="1.65043">
        <ele>1457.148</ele>
        <time>2021-06-13T08:15:34Z</time>
      </trkpt>
      <trkpt lat="42.71239" lon="1.65043">
        <ele>1456.533</ele>
        <time>2021-06-13T08:15:36Z</time>
      </trkpt>
      <trkpt lat="42.71238" lon="1.65041">
        <ele>1456.745</ele>
        <time>2021-06-13T08:15:38Z</time>
      </trkpt>
      <trkpt lat="42.71237" lon="1.65039">
        <ele>1456.124</ele>
        <time>2021-06-13T08:15:40Z</time>
      </trkpt>
      <trkpt lat="42.71237" lon="1.65037">
        <ele>1458.04</ele>
        <time>2021-06-13T08:15:42Z</time>
      </trkpt>
      <trkpt lat="42.71237" lon="1.65035">
        <ele>1459.103</ele>
        <time>2021-06-13T08:15:44Z</time>
      </trkpt>
      <trkpt lat="42.71236" lon="1.65033">
        <ele>1460.368</ele>
        <time>2021-06-13T08:15:46Z</time>
      </trkpt>
      <trkpt lat="42.71236" lon="1.65031">
        <ele>1460.096</ele>
        <time>2021-06-13T08:15:48Z</time>
      </trkpt>
      <trkpt lat="42.71236" lon="1.65029">
        <ele>1460.668</ele>
        <time>2021-06-13T08:15:50Z</time>
      </trkpt>
      <trkpt lat="42.71235" lon="1.65027">
        <ele>1461.685</ele>
        <time>2021-06-13T08:15:52Z</time>
      </trkpt>
      <trkpt lat="42.71235" lon="1.65025">
        <ele>1462.517</ele>
        <time>2021-06-13T08:15:54Z</time>
      </trkpt>
      <trkpt lat="42.71234" lon="1.65023">
        <ele>1463.934</ele>
        <time>2021-06-13T08:15:56Z</time>
      </trkpt>
      <trkpt lat="42.71234" lon="1.65021">
        <ele>1464.704</ele>
        <time>2021-06-13T08:15:58Z</time>
      </trkpt>
      <trkpt lat="42.71233" lon="1.65019">
        <ele>1464.691</ele>
        <time>2021-06-13T08:16:00Z</time>
      </trkpt>
      <trkpt lat="42.71233" lon="1.65017">
        <ele>1464.492</ele>
        <time>2021-06-13T08:16:02Z</time>
      </trkpt>
      <trkpt lat="42.71232" lon="1.65014">
        <ele>1464.916</ele>
        <time>2021-06-13T08:16:04Z</time>
      </trkpt>
      <trkpt lat="42.71231" lon="1.65011">
        <ele>1464.63</ele>
        <time>2021-06-13T08:16:06Z</time>
      </trkpt>
      <trkpt lat="42.7123" lon="1.6501">
        <ele>1464.033</ele>
        <time>2021-06-13T08:16:08Z</time>
      </trkpt>
      <trkpt lat="42.71229" lon="1.65008">
        <ele>1464.862</ele>
        <time>2021-06-13T08:16:10Z</time>
      </trkpt>
      <trkpt lat="42.71227" lon="1.65006">
        <ele>1464.548</ele>
        <time>2021-06-13T08:16:12Z</time>
      </trkpt>
      <trkpt lat="42.71226" lon="1.65004">
        <ele>1464.621</ele>
        <time>2021-06-13T08:16:14Z</time>
      </trkpt>
      <trkpt lat="42.71226" lon="1.65002">
        <ele>1462.932</ele>
        <time>2021-06-13T08:16:16Z</time>
      </trkpt>
      <trkpt lat="42.71227" lon="1.65002">
        <ele>1464.977</ele>
        <time>2021-06-13T08:16:18Z</time>
      </trkpt>
      <trkpt lat="42.71226" lon="1.65001">
        <ele>1465.147</ele>
        <time>2021-06-13T08:16:20Z</time>
      </trkpt>
      <trkpt lat="42.71226" lon="1.65001">
        <ele>1465.137</ele>
        <time>2021-06-13T08:16:22Z</time>
      </trkpt>
      <trkpt lat="42.71226" lon="1.65001">
        <ele>1465.085</ele>
        <time>2021-06-13T08:16:24Z</time>
      </trkpt>
      <trkpt lat="42.71226" lon="1.64998">
        <ele>1463.757</ele>
        <time>2021-06-13T08:16:26Z</time>
      </trkpt>
      <trkpt lat="42.71226" lon="1.64995">
        <ele>1463.272</ele>
        <time>2021-06-13T08:16:28Z</time>
      </trkpt>
      <trkpt lat="42.71225" lon="1.64992">
        <ele>1462.929</ele>
        <time>2021-06-13T08:16:30Z</time>
      </trkpt>
      <trkpt lat="42.71224" lon="1.6499">
        <ele>1462.304</ele>
        <time>2021-06-13T08:16:32Z</time>
      </trkpt>
      <trkpt lat="42.71224" lon="1.64988">
        <ele>1460.204</ele>
        <time>2021-06-13T08:16:34Z</time>
      </trkpt>
      <trkpt lat="42.71225" lon="1.64985">
        <ele>1457.509</ele>
        <time>2021-06-13T08:16:36Z</time>
      </trkpt>
      <trkpt lat="42.71226" lon="1.64985">
        <ele>1458.901</ele>
        <time>2021-06-13T08:16:38Z</time>
      </trkpt>
      <trkpt lat="42.71227" lon="1.64983">
        <ele>1457.954</ele>
        <time>2021-06-13T08:16:40Z</time>
      </trkpt>
      <trkpt lat="42.71228" lon="1.64981">
        <ele>1458.063</ele>
        <time>2021-06-13T08:16:42Z</time>
      </trkpt>
      <trkpt lat="42.71229" lon="1.64978">
        <ele>1457.642</ele>
        <time>2021-06-13T08:16:44Z</time>
      </trkpt>
      <trkpt lat="42.71229" lon="1.64977">
        <ele>1456.761</ele>
        <time>2021-06-13T08:16:46Z</time>
      </trkpt>
      <trkpt lat="42.71232" lon="1.64978">
        <ele>1458.584</ele>
        <time>2021-06-13T08:16:48Z</time>
      </trkpt>
      <trkpt lat="42.71233" lon="1.64978">
        <ele>1459.686</ele>
        <time>2021-06-13T08:16:50Z</time>
      </trkpt>
      <trkpt lat="42.71237" lon="1.64975">
        <ele>1460.303</ele>
        <time>2021-06-13T08:16:52Z</time>
      </trkpt>
      <trkpt lat="42.71238" lon="1.64973">
        <ele>1460.982</ele>
        <time>2021-06-13T08:16:54Z</time>
      </trkpt>
      <trkpt lat="42.71239" lon="1.64972">
        <ele>1461.836</ele>
        <time>2021-06-13T08:16:56Z</time>
      </trkpt>
      <trkpt lat="42.7124" lon="1.64972">
        <ele>1462.198</ele>
        <time>2021-06-13T08:16:58Z</time>
      </trkpt>
      <trkpt lat="42.7124" lon="1.64971">
        <ele>1460.973</ele>
        <time>2021-06-13T08:17:00Z</time>
      </trkpt>
      <trkpt lat="42.71241" lon="1.64969">
        <ele>1461.302</ele>
        <time>2021-06-13T08:17:02Z</time>
      </trkpt>
      <trkpt lat="42.7124" lon="1.64968">
        <ele>1459.39</ele>
        <time>2021-06-13T08:17:04Z</time>
      </trkpt>
      <trkpt lat="42.7124" lon="1.64967">
        <ele>1460.139</ele>
        <time>2021-06-13T08:17:06Z</time>
      </trkpt>
      <trkpt lat="42.7124" lon="1.64967">
        <ele>1460.096</ele>
        <time>2021-06-13T08:17:08Z</time>
      </trkpt>
      <trkpt lat="42.7124" lon="1.64967">
        <ele>1460.129</ele>
        <time>2021-06-13T08:17:10Z</time>
      </trkpt>
      <trkpt lat="42.71239" lon="1.64968">
        <ele>1460.924</ele>
        <time>2021-06-13T08:17:12Z</time>
      </trkpt>
      <trkpt lat="42.71238" lon="1.64969">
        <ele>1462.064</ele>
        <time>2021-06-13T08:17:14Z</time>
      </trkpt>
      <trkpt lat="42.71238" lon="1.64969">
        <ele>1462.278</ele>
        <time>2021-06-13T08:17:16Z</time>
      </trkpt>
      <trkpt lat="42.71237" lon="1.6497">
        <ele>1462.338</ele>
        <time>2021-06-13T08:17:18Z</time>
      </trkpt>
      <trkpt lat="42.71237" lon="1.64969">
        <ele>1461.831</ele>
        <time>2021-06-13T08:17:20Z</time>
      </trkpt>
      <trkpt lat="42.71238" lon="1.64969">
        <ele>1461.641</ele>
        <time>2021-06-13T08:17:22Z</time>
      </trkpt>
      <trkpt lat="42.71238" lon="1.64969">
        <ele>1461.647</ele>
        <time>2021-06-13T08:17:24Z</time>
      </trkpt>
      <trkpt lat="42.71238" lon="1.64969">
        <ele>1462.88</ele>
        <time>2021-06-13T08:17:26Z</time>
      </trkpt>
      <trkpt lat="42.71239" lon="1.6497">
        <ele>1464.782</ele>
        <time>2021-06-13T08:17:28Z</time>
      </trkpt>
      <trkpt lat="42.7124" lon="1.64971">
        <ele>1465.347</ele>
        <time>2021-06-13T08:17:30Z</time>
      </trkpt>
      <trkpt lat="42.7124" lon="1.64971">
        <ele>1464.893</ele>
        <time>2021-06-13T08:17:32Z</time>
      </trkpt>
      <trkpt lat="42.7124" lon="1.64972">
        <ele>1465.028</ele>
        <time>2021-06-13T08:17:34Z</time>
      </trkpt>
      <trkpt lat="42.7124" lon="1.64971">
        <ele>1464.075</ele>
        <time>2021-06-13T08:17:36Z</time>
      </trkpt>
      <trkpt lat="42.7124" lon="1.64971">
        <ele>1464.074</ele>
        <time>2021-06-13T08:17:38Z</time>
      </trkpt>
      <trkpt lat="42.7124" lon="1.64971">
        <ele>1464.092</ele>
        <time>2021-06-13T08:17:40Z</time>
      </trkpt>
      <trkpt lat="42.7124" lon="1.64971">
        <ele>1464.108</ele>
        <time>2021-06-13T08:17:42Z</time>
      </trkpt>
      <trkpt lat="42.7124" lon="1.64971">
        <ele>1464.123</ele>
        <time>2021-06-13T08:17:44Z</time>
      </trkpt>
      <trkpt lat="42.7124" lon="1.64971">
        <ele>1464.15</ele>
        <time>2021-06-13T08:17:46Z</time>
      </trkpt>
      <trkpt lat="42.7124" lon="1.64971">
        <ele>1464.172</ele>
        <time>2021-06-13T08:17:48Z</time>
      </trkpt>
      <trkpt lat="42.7124" lon="1.64971">
        <ele>1464.19</ele>
        <time>2021-06-13T08:17:50Z</time>
      </trkpt>
      <trkpt lat="42.7124" lon="1.64971">
        <ele>1464.203</ele>
        <time>2021-06-13T08:17:52Z</time>
      </trkpt>
      <trkpt lat="42.7124" lon="1.64971">
        <ele>1464.216</ele>
        <time>2021-06-13T08:17:54Z</time>
      </trkpt>
      <trkpt lat="42.7124" lon="1.64971">
        <ele>1464.231</ele>
        <time>2021-06-13T08:17:56Z</time>
      </trkpt>
      <trkpt lat="42.7124" lon="1.64971">
        <ele>1464.243</ele>
        <time>2021-06-13T08:17:58Z</time>
      </trkpt>
      <trkpt lat="42.7124" lon="1.64971">
        <ele>1464.77</ele>
        <time>2021-06-13T08:18:00Z</time>
      </trkpt>
      <trkpt lat="42.7124" lon="1.64971">
        <ele>1464.769</ele>
        <time>2021-06-13T08:18:02Z</time>
      </trkpt>
      <trkpt lat="42.7124" lon="1.64971">
        <ele>1464.773</ele>
        <time>2021-06-13T08:18:04Z</time>
      </trkpt>
      <trkpt lat="42.7124" lon="1.64971">
        <ele>1464.781</ele>
        <time>2021-06-13T08:18:06Z</time>
      </trkpt>
      <trkpt lat="42.7124" lon="1.64971">
        <ele>1464.919</ele>
        <time>2021-06-13T08:18:08Z</time>
      </trkpt>
      <trkpt lat="42.7124" lon="1.64971">
        <ele>1465.018</ele>
        <time>2021-06-13T08:18:10Z</time>
      </trkpt>
      <trkpt lat="42.7124" lon="1.64971">
        <ele>1465.019</ele>
        <time>2021-06-13T08:18:12Z</time>
      </trkpt>
      <trkpt lat="42.7124" lon="1.64971">
        <ele>1465.027</ele>
        <time>2021-06-13T08:18:14Z</time>
      </trkpt>
      <trkpt lat="42.7124" lon="1.64971">
        <ele>1465.031</ele>
        <time>2021-06-13T08:18:16Z</time>
      </trkpt>
      <trkpt lat="42.7124" lon="1.64971">
        <ele>1465.038</ele>
        <time>2021-06-13T08:18:18Z</time>
      </trkpt>
      <trkpt lat="42.7124" lon="1.64971">
        <ele>1465.039</ele>
        <time>2021-06-13T08:18:20Z</time>
      </trkpt>
      <trkpt lat="42.7124" lon="1.64971">
        <ele>1465.041</ele>
        <time>2021-06-13T08:18:22Z</time>
      </trkpt>
      <trkpt lat="42.7124" lon="1.64972">
        <ele>1465.222</ele>
        <time>2021-06-13T08:18:24Z</time>
      </trkpt>
      <trkpt lat="42.7124" lon="1.64972">
        <ele>1465.227</ele>
        <time>2021-06-13T08:18:26Z</time>
      </trkpt>
      <trkpt lat="42.7124" lon="1.64972">
        <ele>1465.228</ele>
        <time>2021-06-13T08:18:28Z</time>
      </trkpt>
      <trkpt lat="42.7124" lon="1.64972">
        <ele>1465.225</ele>
        <time>2021-06-13T08:18:30Z</time>
      </trkpt>
      <trkpt lat="42.71239" lon="1.64972">
        <ele>1465.323</ele>
        <time>2021-06-13T08:18:32Z</time>
      </trkpt>
      <trkpt lat="42.71239" lon="1.64972">
        <ele>1465.351</ele>
        <time>2021-06-13T08:18:34Z</time>
      </trkpt>
      <trkpt lat="42.71239" lon="1.64972">
        <ele>1465.348</ele>
        <time>2021-06-13T08:18:36Z</time>
      </trkpt>
      <trkpt lat="42.71239" lon="1.64972">
        <ele>1465.354</ele>
        <time>2021-06-13T08:18:38Z</time>
      </trkpt>
      <trkpt lat="42.71239" lon="1.64972">
        <ele>1465.358</ele>
        <time>2021-06-13T08:18:40Z</time>
      </trkpt>
      <trkpt lat="42.71239" lon="1.64972">
        <ele>1465.36</ele>
        <time>2021-06-13T08:18:42Z</time>
      </trkpt>
      <trkpt lat="42.71239" lon="1.64972">
        <ele>1465.362</ele>
        <time>2021-06-13T08:18:44Z</time>
      </trkpt>
      <trkpt lat="42.71239" lon="1.64972">
        <ele>1465.367</ele>
        <time>2021-06-13T08:18:46Z</time>
      </trkpt>
      <trkpt lat="42.71239" lon="1.64972">
        <ele>1465.375</ele>
        <time>2021-06-13T08:18:48Z</time>
      </trkpt>
      <trkpt lat="42.71239" lon="1.64972">
        <ele>1465.379</ele>
        <time>2021-06-13T08:18:50Z</time>
      </trkpt>
      <trkpt lat="42.71239" lon="1.64972">
        <ele>1465.38</ele>
        <time>2021-06-13T08:18:52Z</time>
      </trkpt>
      <trkpt lat="42.71239" lon="1.64972">
        <ele>1465.384</ele>
        <time>2021-06-13T08:18:54Z</time>
      </trkpt>
      <trkpt lat="42.71239" lon="1.64972">
        <ele>1465.384</ele>
        <time>2021-06-13T08:18:56Z</time>
      </trkpt>
      <trkpt lat="42.71239" lon="1.64972">
        <ele>1465.378</ele>
        <time>2021-06-13T08:18:58Z</time>
      </trkpt>
      <trkpt lat="42.71239" lon="1.64972">
        <ele>1465.39</ele>
        <time>2021-06-13T08:19:00Z</time>
      </trkpt>
      <trkpt lat="42.71239" lon="1.64972">
        <ele>1465.394</ele>
        <time>2021-06-13T08:19:02Z</time>
      </trkpt>
      <trkpt lat="42.71239" lon="1.64972">
        <ele>1465.401</ele>
        <time>2021-06-13T08:19:04Z</time>
      </trkpt>
      <trkpt lat="42.71239" lon="1.64972">
        <ele>1465.421</ele>
        <time>2021-06-13T08:19:06Z</time>
      </trkpt>
      <trkpt lat="42.71239" lon="1.64972">
        <ele>1465.435</ele>
        <time>2021-06-13T08:19:08Z</time>
      </trkpt>
      <trkpt lat="42.71239" lon="1.64972">
        <ele>1465.446</ele>
        <time>2021-06-13T08:19:10Z</time>
      </trkpt>
      <trkpt lat="42.71239" lon="1.64971">
        <ele>1465.459</ele>
        <time>2021-06-13T08:19:12Z</time>
      </trkpt>
      <trkpt lat="42.71239" lon="1.64971">
        <ele>1465.475</ele>
        <time>2021-06-13T08:19:14Z</time>
      </trkpt>
      <trkpt lat="42.71239" lon="1.64972">
        <ele>1465.482</ele>
        <time>2021-06-13T08:19:16Z</time>
      </trkpt>
      <trkpt lat="42.71239" lon="1.64972">
        <ele>1465.497</ele>
        <time>2021-06-13T08:19:18Z</time>
      </trkpt>
      <trkpt lat="42.71239" lon="1.64972">
        <ele>1465.502</ele>
        <time>2021-06-13T08:19:20Z</time>
      </trkpt>
      <trkpt lat="42.71239" lon="1.64972">
        <ele>1465.511</ele>
        <time>2021-06-13T08:19:22Z</time>
      </trkpt>
      <trkpt lat="42.71239" lon="1.64972">
        <ele>1465.526</ele>
        <time>2021-06-13T08:19:24Z</time>
      </trkpt>
      <trkpt lat="42.71239" lon="1.64971">
        <ele>1465.402</ele>
        <time>2021-06-13T08:19:26Z</time>
      </trkpt>
      <trkpt lat="42.71239" lon="1.6497">
        <ele>1465.34</ele>
        <time>2021-06-13T08:19:28Z</time>
      </trkpt>
      <trkpt lat="42.7124" lon="1.64969">
        <ele>1465.323</ele>
        <time>2021-06-13T08:19:30Z</time>
      </trkpt>
      <trkpt lat="42.71241" lon="1.64968">
        <ele>1464.497</ele>
        <time>2021-06-13T08:19:32Z</time>
      </trkpt>
      <trkpt lat="42.71242" lon="1.64968">
        <ele>1464.51</ele>
        <time>2021-06-13T08:19:34Z</time>
      </trkpt>
      <trkpt lat="42.71242" lon="1.64968">
        <ele>1464.516</ele>
        <time>2021-06-13T08:19:36Z</time>
      </trkpt>
      <trkpt lat="42.71242" lon="1.64968">
        <ele>1464.523</ele>
        <time>2021-06-13T08:19:38Z</time>
      </trkpt>
      <trkpt lat="42.71242" lon="1.64968">
        <ele>1464.636</ele>
        <time>2021-06-13T08:19:40Z</time>
      </trkpt>
      <trkpt lat="42.71242" lon="1.64969">
        <ele>1464.639</ele>
        <time>2021-06-13T08:19:42Z</time>
      </trkpt>
      <trkpt lat="42.71242" lon="1.64969">
        <ele>1464.642</ele>
        <time>2021-06-13T08:19:44Z</time>
      </trkpt>
      <trkpt lat="42.71242" lon="1.64969">
        <ele>1464.644</ele>
        <time>2021-06-13T08:19:46Z</time>
      </trkpt>
      <trkpt lat="42.71242" lon="1.64969">
        <ele>1464.651</ele>
        <time>2021-06-13T08:19:48Z</time>
      </trkpt>
      <trkpt lat="42.71242" lon="1.64969">
        <ele>1464.657</ele>
        <time>2021-06-13T08:19:50Z</time>
      </trkpt>
      <trkpt lat="42.71242" lon="1.64969">
        <ele>1464.659</ele>
        <time>2021-06-13T08:19:52Z</time>
      </trkpt>
      <trkpt lat="42.71242" lon="1.64969">
        <ele>1464.666</ele>
        <time>2021-06-13T08:19:54Z</time>
      </trkpt>
      <trkpt lat="42.71242" lon="1.64969">
        <ele>1464.666</ele>
        <time>2021-06-13T08:19:56Z</time>
      </trkpt>
      <trkpt lat="42.71242" lon="1.64969">
        <ele>1464.663</ele>
        <time>2021-06-13T08:19:58Z</time>
      </trkpt>
      <trkpt lat="42.71242" lon="1.64969">
        <ele>1464.666</ele>
        <time>2021-06-13T08:20:00Z</time>
      </trkpt>
      <trkpt lat="42.71242" lon="1.64969">
        <ele>1464.668</ele>
        <time>2021-06-13T08:20:02Z</time>
      </trkpt>
      <trkpt lat="42.71242" lon="1.64969">
        <ele>1464.67</ele>
        <time>2021-06-13T08:20:04Z</time>
      </trkpt>
      <trkpt lat="42.71242" lon="1.64969">
        <ele>1464.667</ele>
        <time>2021-06-13T08:20:06Z</time>
      </trkpt>
      <trkpt lat="42.71242" lon="1.64969">
        <ele>1466.17</ele>
        <time>2021-06-13T08:20:08Z</time>
      </trkpt>
      <trkpt lat="42.71242" lon="1.64968">
        <ele>1467.5</ele>
        <time>2021-06-13T08:20:10Z</time>
      </trkpt>
      <trkpt lat="42.71242" lon="1.64966">
        <ele>1467.937</ele>
        <time>2021-06-13T08:20:12Z</time>
      </trkpt>
      <trkpt lat="42.71242" lon="1.64964">
        <ele>1467.702</ele>
        <time>2021-06-13T08:20:14Z</time>
      </trkpt>
      <trkpt lat="42.71242" lon="1.64962">
        <ele>1467.499</ele>
        <time>2021-06-13T08:20:16Z</time>
      </trkpt>
      <trkpt lat="42.71243" lon="1.6496">
        <ele>1467.423</ele>
        <time>2021-06-13T08:20:18Z</time>
      </trkpt>
      <trkpt lat="42.71242" lon="1.64958">
        <ele>1468.432</ele>
        <time>2021-06-13T08:20:20Z</time>
      </trkpt>
      <trkpt lat="42.71242" lon="1.64956">
        <ele>1469.565</ele>
        <time>2021-06-13T08:20:22Z</time>
      </trkpt>
      <trkpt lat="42.71242" lon="1.64954">
        <ele>1469.497</ele>
        <time>2021-06-13T08:20:24Z</time>
      </trkpt>
      <trkpt lat="42.71242" lon="1.64951">
        <ele>1470.03</ele>
        <time>2021-06-13T08:20:26Z</time>
      </trkpt>
      <trkpt lat="42.71241" lon="1.64948">
        <ele>1471.424</ele>
        <time>2021-06-13T08:20:28Z</time>
      </trkpt>
      <trkpt lat="42.71241" lon="1.64946">
        <ele>1470.945</ele>
        <time>2021-06-13T08:20:30Z</time>
      </trkpt>
      <trkpt lat="42.71241" lon="1.64944">
        <ele>1472.302</ele>
        <time>2021-06-13T08:20:32Z</time>
      </trkpt>
      <trkpt lat="42.71242" lon="1.64941">
        <ele>1472.361</ele>
        <time>2021-06-13T08:20:34Z</time>
      </trkpt>
      <trkpt lat="42.71243" lon="1.6494">
        <ele>1472.298</ele>
        <time>2021-06-13T08:20:36Z</time>
      </trkpt>
      <trkpt lat="42.71243" lon="1.64937">
        <ele>1472.781</ele>
        <time>2021-06-13T08:20:38Z</time>
      </trkpt>
      <trkpt lat="42.71243" lon="1.64935">
        <ele>1473.375</ele>
        <time>2021-06-13T08:20:40Z</time>
      </trkpt>
      <trkpt lat="42.71244" lon="1.64933">
        <ele>1473.795</ele>
        <time>2021-06-13T08:20:42Z</time>
      </trkpt>
      <trkpt lat="42.71245" lon="1.64931">
        <ele>1475.774</ele>
        <time>2021-06-13T08:20:44Z</time>
      </trkpt>
      <trkpt lat="42.71246" lon="1.6493">
        <ele>1476.055</ele>
        <time>2021-06-13T08:20:46Z</time>
      </trkpt>
      <trkpt lat="42.71247" lon="1.64928">
        <ele>1476.169</ele>
        <time>2021-06-13T08:20:48Z</time>
      </trkpt>
      <trkpt lat="42.71247" lon="1.64926">
        <ele>1476.998</ele>
        <time>2021-06-13T08:20:50Z</time>
      </trkpt>
      <trkpt lat="42.71248" lon="1.64924">
        <ele>1477.092</ele>
        <time>2021-06-13T08:20:52Z</time>
      </trkpt>
      <trkpt lat="42.71248" lon="1.64923">
        <ele>1476.432</ele>
        <time>2021-06-13T08:20:54Z</time>
      </trkpt>
      <trkpt lat="42.71249" lon="1.64921">
        <ele>1478.189</ele>
        <time>2021-06-13T08:20:56Z</time>
      </trkpt>
      <trkpt lat="42.7125" lon="1.64919">
        <ele>1479.255</ele>
        <time>2021-06-13T08:20:58Z</time>
      </trkpt>
      <trkpt lat="42.71251" lon="1.64917">
        <ele>1479.615</ele>
        <time>2021-06-13T08:21:00Z</time>
      </trkpt>
      <trkpt lat="42.71253" lon="1.64916">
        <ele>1479.633</ele>
        <time>2021-06-13T08:21:02Z</time>
      </trkpt>
      <trkpt lat="42.71253" lon="1.64916">
        <ele>1479.894</ele>
        <time>2021-06-13T08:21:04Z</time>
      </trkpt>
      <trkpt lat="42.71254" lon="1.64914">
        <ele>1479.336</ele>
        <time>2021-06-13T08:21:06Z</time>
      </trkpt>
      <trkpt lat="42.71255" lon="1.64912">
        <ele>1478.822</ele>
        <time>2021-06-13T08:21:08Z</time>
      </trkpt>
      <trkpt lat="42.71255" lon="1.6491">
        <ele>1479.35</ele>
        <time>2021-06-13T08:21:10Z</time>
      </trkpt>
      <trkpt lat="42.71255" lon="1.64908">
        <ele>1479.171</ele>
        <time>2021-06-13T08:21:12Z</time>
      </trkpt>
      <trkpt lat="42.71256" lon="1.64907">
        <ele>1479.624</ele>
        <time>2021-06-13T08:21:14Z</time>
      </trkpt>
      <trkpt lat="42.71258" lon="1.64907">
        <ele>1480.538</ele>
        <time>2021-06-13T08:21:16Z</time>
      </trkpt>
      <trkpt lat="42.7126" lon="1.64907">
        <ele>1480.903</ele>
        <time>2021-06-13T08:21:18Z</time>
      </trkpt>
      <trkpt lat="42.71261" lon="1.64907">
        <ele>1481.67</ele>
        <time>2021-06-13T08:21:20Z</time>
      </trkpt>
      <trkpt lat="42.71263" lon="1.64906">
        <ele>1481.013</ele>
        <time>2021-06-13T08:21:22Z</time>
      </trkpt>
      <trkpt lat="42.71264" lon="1.64905">
        <ele>1480.855</ele>
        <time>2021-06-13T08:21:24Z</time>
      </trkpt>
      <trkpt lat="42.71264" lon="1.64903">
        <ele>1480.293</ele>
        <time>2021-06-13T08:21:26Z</time>
      </trkpt>
      <trkpt lat="42.71264" lon="1.64901">
        <ele>1479.104</ele>
        <time>2021-06-13T08:21:28Z</time>
      </trkpt>
      <trkpt lat="42.71264" lon="1.649">
        <ele>1480.018</ele>
        <time>2021-06-13T08:21:30Z</time>
      </trkpt>
      <trkpt lat="42.71264" lon="1.64898">
        <ele>1480.32</ele>
        <time>2021-06-13T08:21:32Z</time>
      </trkpt>
      <trkpt lat="42.71265" lon="1.64897">
        <ele>1480.045</ele>
        <time>2021-06-13T08:21:34Z</time>
      </trkpt>
      <trkpt lat="42.71266" lon="1.64895">
        <ele>1479.483</ele>
        <time>2021-06-13T08:21:36Z</time>
      </trkpt>
      <trkpt lat="42.71267" lon="1.64893">
        <ele>1479.522</ele>
        <time>2021-06-13T08:21:38Z</time>
      </trkpt>
      <trkpt lat="42.71267" lon="1.64892">
        <ele>1479.017</ele>
        <time>2021-06-13T08:21:40Z</time>
      </trkpt>
      <trkpt lat="42.71267" lon="1.6489">
        <ele>1478.69</ele>
        <time>2021-06-13T08:21:42Z</time>
      </trkpt>
      <trkpt lat="42.71267" lon="1.64888">
        <ele>1478.927</ele>
        <time>2021-06-13T08:21:44Z</time>
      </trkpt>
      <trkpt lat="42.71267" lon="1.64886">
        <ele>1478.778</ele>
        <time>2021-06-13T08:21:46Z</time>
      </trkpt>
      <trkpt lat="42.71268" lon="1.64885">
        <ele>1479.096</ele>
        <time>2021-06-13T08:21:48Z</time>
      </trkpt>
      <trkpt lat="42.71268" lon="1.64883">
        <ele>1480.442</ele>
        <time>2021-06-13T08:21:50Z</time>
      </trkpt>
      <trkpt lat="42.71268" lon="1.64882">
        <ele>1480.548</ele>
        <time>2021-06-13T08:21:52Z</time>
      </trkpt>
      <trkpt lat="42.71268" lon="1.64881">
        <ele>1480.55</ele>
        <time>2021-06-13T08:21:54Z</time>
      </trkpt>
      <trkpt lat="42.7127" lon="1.6488">
        <ele>1480.829</ele>
        <time>2021-06-13T08:21:56Z</time>
      </trkpt>
      <trkpt lat="42.71271" lon="1.6488">
        <ele>1481.178</ele>
        <time>2021-06-13T08:21:58Z</time>
      </trkpt>
      <trkpt lat="42.71271" lon="1.64879">
        <ele>1482.179</ele>
        <time>2021-06-13T08:22:00Z</time>
      </trkpt>
      <trkpt lat="42.71272" lon="1.64879">
        <ele>1483.892</ele>
        <time>2021-06-13T08:22:02Z</time>
      </trkpt>
      <trkpt lat="42.71273" lon="1.64877">
        <ele>1484.367</ele>
        <time>2021-06-13T08:22:04Z</time>
      </trkpt>
      <trkpt lat="42.71275" lon="1.64876">
        <ele>1486.044</ele>
        <time>2021-06-13T08:22:06Z</time>
      </trkpt>
      <trkpt lat="42.71274" lon="1.64874">
        <ele>1488.2</ele>
        <time>2021-06-13T08:22:08Z</time>
      </trkpt>
      <trkpt lat="42.71273" lon="1.64872">
        <ele>1488.709</ele>
        <time>2021-06-13T08:22:10Z</time>
      </trkpt>
      <trkpt lat="42.71273" lon="1.64871">
        <ele>1489.779</ele>
        <time>2021-06-13T08:22:12Z</time>
      </trkpt>
      <trkpt lat="42.71273" lon="1.6487">
        <ele>1492.643</ele>
        <time>2021-06-13T08:22:14Z</time>
      </trkpt>
      <trkpt lat="42.71272" lon="1.6487">
        <ele>1493.277</ele>
        <time>2021-06-13T08:22:16Z</time>
      </trkpt>
      <trkpt lat="42.71271" lon="1.64869">
        <ele>1493.157</ele>
        <time>2021-06-13T08:22:18Z</time>
      </trkpt>
      <trkpt lat="42.7127" lon="1.6487">
        <ele>1493.312</ele>
        <time>2021-06-13T08:22:20Z</time>
      </trkpt>
      <trkpt lat="42.7127" lon="1.64869">
        <ele>1494.386</ele>
        <time>2021-06-13T08:22:22Z</time>
      </trkpt>
      <trkpt lat="42.71269" lon="1.64868">
        <ele>1492.984</ele>
        <time>2021-06-13T08:22:24Z</time>
      </trkpt>
      <trkpt lat="42.7127" lon="1.64866">
        <ele>1491.16</ele>
        <time>2021-06-13T08:22:26Z</time>
      </trkpt>
      <trkpt lat="42.71269" lon="1.64864">
        <ele>1492.131</ele>
        <time>2021-06-13T08:22:28Z</time>
      </trkpt>
      <trkpt lat="42.71269" lon="1.64862">
        <ele>1491.822</ele>
        <time>2021-06-13T08:22:30Z</time>
      </trkpt>
      <trkpt lat="42.71269" lon="1.64862">
        <ele>1493.101</ele>
        <time>2021-06-13T08:22:32Z</time>
      </trkpt>
      <trkpt lat="42.71268" lon="1.64861">
        <ele>1493.219</ele>
        <time>2021-06-13T08:22:34Z</time>
      </trkpt>
      <trkpt lat="42.71267" lon="1.6486">
        <ele>1494.603</ele>
        <time>2021-06-13T08:22:36Z</time>
      </trkpt>
      <trkpt lat="42.71267" lon="1.64859">
        <ele>1494.629</ele>
        <time>2021-06-13T08:22:38Z</time>
      </trkpt>
      <trkpt lat="42.71269" lon="1.64857">
        <ele>1493.894</ele>
        <time>2021-06-13T08:22:40Z</time>
      </trkpt>
      <trkpt lat="42.71269" lon="1.64856">
        <ele>1494.486</ele>
        <time>2021-06-13T08:22:42Z</time>
      </trkpt>
      <trkpt lat="42.71269" lon="1.64854">
        <ele>1494.958</ele>
        <time>2021-06-13T08:22:44Z</time>
      </trkpt>
      <trkpt lat="42.71268" lon="1.64853">
        <ele>1495.687</ele>
        <time>2021-06-13T08:22:46Z</time>
      </trkpt>
      <trkpt lat="42.71269" lon="1.64852">
        <ele>1494.956</ele>
        <time>2021-06-13T08:22:48Z</time>
      </trkpt>
      <trkpt lat="42.71269" lon="1.64851">
        <ele>1495.031</ele>
        <time>2021-06-13T08:22:50Z</time>
      </trkpt>
      <trkpt lat="42.71269" lon="1.6485">
        <ele>1495.691</ele>
        <time>2021-06-13T08:22:52Z</time>
      </trkpt>
      <trkpt lat="42.71269" lon="1.6485">
        <ele>1495.676</ele>
        <time>2021-06-13T08:22:54Z</time>
      </trkpt>
      <trkpt lat="42.71269" lon="1.64849">
        <ele>1496.563</ele>
        <time>2021-06-13T08:22:56Z</time>
      </trkpt>
      <trkpt lat="42.71268" lon="1.6485">
        <ele>1497.593</ele>
        <time>2021-06-13T08:22:58Z</time>
      </trkpt>
      <trkpt lat="42.71267" lon="1.64849">
        <ele>1498.219</ele>
        <time>2021-06-13T08:23:00Z</time>
      </trkpt>
      <trkpt lat="42.71267" lon="1.64848">
        <ele>1498.861</ele>
        <time>2021-06-13T08:23:02Z</time>
      </trkpt>
      <trkpt lat="42.71266" lon="1.64848">
        <ele>1501.232</ele>
        <time>2021-06-13T08:23:04Z</time>
      </trkpt>
      <trkpt lat="42.71264" lon="1.64847">
        <ele>1502.982</ele>
        <time>2021-06-13T08:23:06Z</time>
      </trkpt>
      <trkpt lat="42.71264" lon="1.64845">
        <ele>1499.75</ele>
        <time>2021-06-13T08:23:08Z</time>
      </trkpt>
      <trkpt lat="42.71265" lon="1.64843">
        <ele>1500.157</ele>
        <time>2021-06-13T08:23:10Z</time>
      </trkpt>
      <trkpt lat="42.71265" lon="1.64843">
        <ele>1500.944</ele>
        <time>2021-06-13T08:23:12Z</time>
      </trkpt>
      <trkpt lat="42.71266" lon="1.64843">
        <ele>1501.589</ele>
        <time>2021-06-13T08:23:14Z</time>
      </trkpt>
      <trkpt lat="42.71267" lon="1.64842">
        <ele>1501.642</ele>
        <time>2021-06-13T08:23:16Z</time>
      </trkpt>
      <trkpt lat="42.71268" lon="1.64842">
        <ele>1502.336</ele>
        <time>2021-06-13T08:23:18Z</time>
      </trkpt>
      <trkpt lat="42.71269" lon="1.64842">
        <ele>1505.555</ele>
        <time>2021-06-13T08:23:20Z</time>
      </trkpt>
      <trkpt lat="42.71269" lon="1.64841">
        <ele>1506.298</ele>
        <time>2021-06-13T08:23:22Z</time>
      </trkpt>
      <trkpt lat="42.71268" lon="1.6484">
        <ele>1506.202</ele>
        <time>2021-06-13T08:23:24Z</time>
      </trkpt>
      <trkpt lat="42.71267" lon="1.64839">
        <ele>1505.485</ele>
        <time>2021-06-13T08:23:26Z</time>
      </trkpt>
      <trkpt lat="42.71266" lon="1.64838">
        <ele>1504.7</ele>
        <time>2021-06-13T08:23:28Z</time>
      </trkpt>
      <trkpt lat="42.71265" lon="1.64836">
        <ele>1505.228</ele>
        <time>2021-06-13T08:23:30Z</time>
      </trkpt>
      <trkpt lat="42.71265" lon="1.64834">
        <ele>1505.83</ele>
        <time>2021-06-13T08:23:32Z</time>
      </trkpt>
      <trkpt lat="42.71265" lon="1.64833">
        <ele>1504.953</ele>
        <time>2021-06-13T08:23:34Z</time>
      </trkpt>
      <trkpt lat="42.71266" lon="1.64832">
        <ele>1505.098</ele>
        <time>2021-06-13T08:23:36Z</time>
      </trkpt>
      <trkpt lat="42.71266" lon="1.6483">
        <ele>1505.75</ele>
        <time>2021-06-13T08:23:38Z</time>
      </trkpt>
      <trkpt lat="42.71267" lon="1.64828">
        <ele>1503.975</ele>
        <time>2021-06-13T08:23:40Z</time>
      </trkpt>
      <trkpt lat="42.71268" lon="1.64827">
        <ele>1503.789</ele>
        <time>2021-06-13T08:23:42Z</time>
      </trkpt>
      <trkpt lat="42.71268" lon="1.64826">
        <ele>1504.92</ele>
        <time>2021-06-13T08:23:44Z</time>
      </trkpt>
      <trkpt lat="42.71268" lon="1.64825">
        <ele>1504.442</ele>
        <time>2021-06-13T08:23:46Z</time>
      </trkpt>
      <trkpt lat="42.71268" lon="1.64823">
        <ele>1504.683</ele>
        <time>2021-06-13T08:23:48Z</time>
      </trkpt>
      <trkpt lat="42.71269" lon="1.64821">
        <ele>1505.179</ele>
        <time>2021-06-13T08:23:50Z</time>
      </trkpt>
      <trkpt lat="42.7127" lon="1.64819">
        <ele>1503.142</ele>
        <time>2021-06-13T08:23:52Z</time>
      </trkpt>
      <trkpt lat="42.71271" lon="1.64818">
        <ele>1504.008</ele>
        <time>2021-06-13T08:23:54Z</time>
      </trkpt>
      <trkpt lat="42.71271" lon="1.64816">
        <ele>1504.12</ele>
        <time>2021-06-13T08:23:56Z</time>
      </trkpt>
      <trkpt lat="42.71272" lon="1.64815">
        <ele>1506.17</ele>
        <time>2021-06-13T08:23:58Z</time>
      </trkpt>
      <trkpt lat="42.71271" lon="1.64813">
        <ele>1507.584</ele>
        <time>2021-06-13T08:24:00Z</time>
      </trkpt>
      <trkpt lat="42.71271" lon="1.64812">
        <ele>1508.878</ele>
        <time>2021-06-13T08:24:02Z</time>
      </trkpt>
      <trkpt lat="42.71272" lon="1.64811">
        <ele>1509.321</ele>
        <time>2021-06-13T08:24:04Z</time>
      </trkpt>
      <trkpt lat="42.71273" lon="1.64809">
        <ele>1510.071</ele>
        <time>2021-06-13T08:24:06Z</time>
      </trkpt>
      <trkpt lat="42.71273" lon="1.64808">
        <ele>1512.392</ele>
        <time>2021-06-13T08:24:08Z</time>
      </trkpt>
      <trkpt lat="42.71272" lon="1.64807">
        <ele>1514.311</ele>
        <time>2021-06-13T08:24:10Z</time>
      </trkpt>
      <trkpt lat="42.71271" lon="1.64807">
        <ele>1515.386</ele>
        <time>2021-06-13T08:24:12Z</time>
      </trkpt>
      <trkpt lat="42.71271" lon="1.64805">
        <ele>1516.283</ele>
        <time>2021-06-13T08:24:14Z</time>
      </trkpt>
      <trkpt lat="42.71271" lon="1.64805">
        <ele>1517.289</ele>
        <time>2021-06-13T08:24:16Z</time>
      </trkpt>
      <trkpt lat="42.71272" lon="1.64804">
        <ele>1517.752</ele>
        <time>2021-06-13T08:24:18Z</time>
      </trkpt>
      <trkpt lat="42.71273" lon="1.64803">
        <ele>1519.521</ele>
        <time>2021-06-13T08:24:20Z</time>
      </trkpt>
      <trkpt lat="42.71273" lon="1.64802">
        <ele>1520.349</ele>
        <time>2021-06-13T08:24:22Z</time>
      </trkpt>
      <trkpt lat="42.71273" lon="1.64801">
        <ele>1520.165</ele>
        <time>2021-06-13T08:24:24Z</time>
      </trkpt>
      <trkpt lat="42.71273" lon="1.648">
        <ele>1519.969</ele>
        <time>2021-06-13T08:24:26Z</time>
      </trkpt>
      <trkpt lat="42.71274" lon="1.648">
        <ele>1520.905</ele>
        <time>2021-06-13T08:24:28Z</time>
      </trkpt>
      <trkpt lat="42.71274" lon="1.64799">
        <ele>1521.339</ele>
        <time>2021-06-13T08:24:30Z</time>
      </trkpt>
      <trkpt lat="42.71274" lon="1.64798">
        <ele>1520.978</ele>
        <time>2021-06-13T08:24:32Z</time>
      </trkpt>
      <trkpt lat="42.71274" lon="1.64797">
        <ele>1520.93</ele>
        <time>2021-06-13T08:24:34Z</time>
      </trkpt>
      <trkpt lat="42.71273" lon="1.64796">
        <ele>1521.355</ele>
        <time>2021-06-13T08:24:36Z</time>
      </trkpt>
      <trkpt lat="42.71274" lon="1.64795">
        <ele>1520.973</ele>
        <time>2021-06-13T08:24:38Z</time>
      </trkpt>
      <trkpt lat="42.71274" lon="1.64794">
        <ele>1521.931</ele>
        <time>2021-06-13T08:24:40Z</time>
      </trkpt>
      <trkpt lat="42.71274" lon="1.64793">
        <ele>1522.672</ele>
        <time>2021-06-13T08:24:42Z</time>
      </trkpt>
      <trkpt lat="42.71274" lon="1.64793">
        <ele>1523.267</ele>
        <time>2021-06-13T08:24:44Z</time>
      </trkpt>
      <trkpt lat="42.71274" lon="1.64792">
        <ele>1523.106</ele>
        <time>2021-06-13T08:24:46Z</time>
      </trkpt>
      <trkpt lat="42.71274" lon="1.64792">
        <ele>1522.968</ele>
        <time>2021-06-13T08:24:48Z</time>
      </trkpt>
      <trkpt lat="42.71275" lon="1.6479">
        <ele>1522.315</ele>
        <time>2021-06-13T08:24:50Z</time>
      </trkpt>
      <trkpt lat="42.71276" lon="1.64789">
        <ele>1521.346</ele>
        <time>2021-06-13T08:24:52Z</time>
      </trkpt>
      <trkpt lat="42.71277" lon="1.64788">
        <ele>1523.153</ele>
        <time>2021-06-13T08:24:54Z</time>
      </trkpt>
      <trkpt lat="42.71277" lon="1.64786">
        <ele>1524.119</ele>
        <time>2021-06-13T08:24:56Z</time>
      </trkpt>
      <trkpt lat="42.71277" lon="1.64785">
        <ele>1523.256</ele>
        <time>2021-06-13T08:24:58Z</time>
      </trkpt>
      <trkpt lat="42.71277" lon="1.64783">
        <ele>1523.082</ele>
        <time>2021-06-13T08:25:00Z</time>
      </trkpt>
      <trkpt lat="42.71277" lon="1.64782">
        <ele>1521.833</ele>
        <time>2021-06-13T08:25:02Z</time>
      </trkpt>
      <trkpt lat="42.71277" lon="1.64781">
        <ele>1521.192</ele>
        <time>2021-06-13T08:25:04Z</time>
      </trkpt>
      <trkpt lat="42.71277" lon="1.6478">
        <ele>1520.639</ele>
        <time>2021-06-13T08:25:06Z</time>
      </trkpt>
      <trkpt lat="42.71278" lon="1.6478">
        <ele>1521.611</ele>
        <time>2021-06-13T08:25:08Z</time>
      </trkpt>
      <trkpt lat="42.71278" lon="1.64779">
        <ele>1521.447</ele>
        <time>2021-06-13T08:25:10Z</time>
      </trkpt>
      <trkpt lat="42.71278" lon="1.64779">
        <ele>1521.537</ele>
        <time>2021-06-13T08:25:12Z</time>
      </trkpt>
      <trkpt lat="42.71278" lon="1.64778">
        <ele>1521.329</ele>
        <time>2021-06-13T08:25:14Z</time>
      </trkpt>
      <trkpt lat="42.71279" lon="1.64778">
        <ele>1521.342</ele>
        <time>2021-06-13T08:25:16Z</time>
      </trkpt>
      <trkpt lat="42.71279" lon="1.64777">
        <ele>1522.105</ele>
        <time>2021-06-13T08:25:18Z</time>
      </trkpt>
      <trkpt lat="42.71279" lon="1.64776">
        <ele>1521.866</ele>
        <time>2021-06-13T08:25:20Z</time>
      </trkpt>
      <trkpt lat="42.71279" lon="1.64776">
        <ele>1523.087</ele>
        <time>2021-06-13T08:25:22Z</time>
      </trkpt>
      <trkpt lat="42.7128" lon="1.64776">
        <ele>1523.111</ele>
        <time>2021-06-13T08:25:24Z</time>
      </trkpt>
      <trkpt lat="42.7128" lon="1.64775">
        <ele>1522.989</ele>
        <time>2021-06-13T08:25:26Z</time>
      </trkpt>
      <trkpt lat="42.7128" lon="1.64774">
        <ele>1524.074</ele>
        <time>2021-06-13T08:25:28Z</time>
      </trkpt>
      <trkpt lat="42.7128" lon="1.64773">
        <ele>1527.06</ele>
        <time>2021-06-13T08:25:30Z</time>
      </trkpt>
      <trkpt lat="42.7128" lon="1.64771">
        <ele>1526.118</ele>
        <time>2021-06-13T08:25:32Z</time>
      </trkpt>
      <trkpt lat="42.71279" lon="1.6477">
        <ele>1527.686</ele>
        <time>2021-06-13T08:25:34Z</time>
      </trkpt>
      <trkpt lat="42.71279" lon="1.64769">
        <ele>1529.026</ele>
        <time>2021-06-13T08:25:36Z</time>
      </trkpt>
      <trkpt lat="42.71279" lon="1.64768">
        <ele>1529.8</ele>
        <time>2021-06-13T08:25:38Z</time>
      </trkpt>
      <trkpt lat="42.71279" lon="1.64767">
        <ele>1529.752</ele>
        <time>2021-06-13T08:25:40Z</time>
      </trkpt>
      <trkpt lat="42.71278" lon="1.64766">
        <ele>1529.042</ele>
        <time>2021-06-13T08:25:42Z</time>
      </trkpt>
      <trkpt lat="42.71277" lon="1.64764">
        <ele>1531.447</ele>
        <time>2021-06-13T08:25:44Z</time>
      </trkpt>
      <trkpt lat="42.71277" lon="1.64763">
        <ele>1532.566</ele>
        <time>2021-06-13T08:25:46Z</time>
      </trkpt>
      <trkpt lat="42.71277" lon="1.64763">
        <ele>1532.21</ele>
        <time>2021-06-13T08:25:48Z</time>
      </trkpt>
      <trkpt lat="42.71276" lon="1.64761">
        <ele>1532.292</ele>
        <time>2021-06-13T08:25:50Z</time>
      </trkpt>
      <trkpt lat="42.71277" lon="1.6476">
        <ele>1531.832</ele>
        <time>2021-06-13T08:25:52Z</time>
      </trkpt>
      <trkpt lat="42.71277" lon="1.6476">
        <ele>1533.123</ele>
        <time>2021-06-13T08:25:54Z</time>
      </trkpt>
      <trkpt lat="42.71276" lon="1.64759">
        <ele>1533.274</ele>
        <time>2021-06-13T08:25:56Z</time>
      </trkpt>
      <trkpt lat="42.71276" lon="1.64758">
        <ele>1533.815</ele>
        <time>2021-06-13T08:25:58Z</time>
      </trkpt>
      <trkpt lat="42.71275" lon="1.64757">
        <ele>1534.694</ele>
        <time>2021-06-13T08:26:00Z</time>
      </trkpt>
      <trkpt lat="42.71274" lon="1.64756">
        <ele>1536.062</ele>
        <time>2021-06-13T08:26:02Z</time>
      </trkpt>
      <trkpt lat="42.71273" lon="1.64753">
        <ele>1537.326</ele>
        <time>2021-06-13T08:26:04Z</time>
      </trkpt>
      <trkpt lat="42.71272" lon="1.64752">
        <ele>1537.809</ele>
        <time>2021-06-13T08:26:06Z</time>
      </trkpt>
      <trkpt lat="42.71273" lon="1.64751">
        <ele>1537.708</ele>
        <time>2021-06-13T08:26:08Z</time>
      </trkpt>
      <trkpt lat="42.71273" lon="1.64749">
        <ele>1537.33</ele>
        <time>2021-06-13T08:26:10Z</time>
      </trkpt>
      <trkpt lat="42.71273" lon="1.64748">
        <ele>1536.01</ele>
        <time>2021-06-13T08:26:12Z</time>
      </trkpt>
      <trkpt lat="42.71273" lon="1.64748">
        <ele>1537.005</ele>
        <time>2021-06-13T08:26:14Z</time>
      </trkpt>
      <trkpt lat="42.71273" lon="1.64749">
        <ele>1537.021</ele>
        <time>2021-06-13T08:26:16Z</time>
      </trkpt>
      <trkpt lat="42.71273" lon="1.6475">
        <ele>1536.332</ele>
        <time>2021-06-13T08:26:18Z</time>
      </trkpt>
      <trkpt lat="42.71274" lon="1.6475">
        <ele>1536.353</ele>
        <time>2021-06-13T08:26:20Z</time>
      </trkpt>
      <trkpt lat="42.71275" lon="1.64751">
        <ele>1535.635</ele>
        <time>2021-06-13T08:26:22Z</time>
      </trkpt>
      <trkpt lat="42.71276" lon="1.64751">
        <ele>1535.798</ele>
        <time>2021-06-13T08:26:24Z</time>
      </trkpt>
      <trkpt lat="42.71276" lon="1.64751">
        <ele>1536.43</ele>
        <time>2021-06-13T08:26:26Z</time>
      </trkpt>
      <trkpt lat="42.71276" lon="1.64752">
        <ele>1536.456</ele>
        <time>2021-06-13T08:26:28Z</time>
      </trkpt>
      <trkpt lat="42.71277" lon="1.64752">
        <ele>1537.1</ele>
        <time>2021-06-13T08:26:30Z</time>
      </trkpt>
      <trkpt lat="42.71278" lon="1.64752">
        <ele>1538.364</ele>
        <time>2021-06-13T08:26:32Z</time>
      </trkpt>
      <trkpt lat="42.71278" lon="1.64752">
        <ele>1537.546</ele>
        <time>2021-06-13T08:26:34Z</time>
      </trkpt>
      <trkpt lat="42.71279" lon="1.6475">
        <ele>1536.734</ele>
        <time>2021-06-13T08:26:36Z</time>
      </trkpt>
      <trkpt lat="42.7128" lon="1.64749">
        <ele>1536.97</ele>
        <time>2021-06-13T08:26:38Z</time>
      </trkpt>
      <trkpt lat="42.71279" lon="1.64749">
        <ele>1538.53</ele>
        <time>2021-06-13T08:26:40Z</time>
      </trkpt>
      <trkpt lat="42.71279" lon="1.64748">
        <ele>1538.022</ele>
        <time>2021-06-13T08:26:42Z</time>
      </trkpt>
      <trkpt lat="42.71279" lon="1.64746">
        <ele>1539.243</ele>
        <time>2021-06-13T08:26:44Z</time>
      </trkpt>
      <trkpt lat="42.7128" lon="1.64745">
        <ele>1540.881</ele>
        <time>2021-06-13T08:26:46Z</time>
      </trkpt>
      <trkpt lat="42.71281" lon="1.64744">
        <ele>1542.47</ele>
        <time>2021-06-13T08:26:48Z</time>
      </trkpt>
      <trkpt lat="42.71282" lon="1.64743">
        <ele>1541.285</ele>
        <time>2021-06-13T08:26:50Z</time>
      </trkpt>
      <trkpt lat="42.71282" lon="1.64743">
        <ele>1540.984</ele>
        <time>2021-06-13T08:26:52Z</time>
      </trkpt>
      <trkpt lat="42.71281" lon="1.64744">
        <ele>1542.245</ele>
        <time>2021-06-13T08:26:54Z</time>
      </trkpt>
      <trkpt lat="42.71281" lon="1.64743">
        <ele>1541.68</ele>
        <time>2021-06-13T08:26:56Z</time>
      </trkpt>
      <trkpt lat="42.71281" lon="1.64743">
        <ele>1541.692</ele>
        <time>2021-06-13T08:26:58Z</time>
      </trkpt>
      <trkpt lat="42.71282" lon="1.64741">
        <ele>1541.298</ele>
        <time>2021-06-13T08:27:00Z</time>
      </trkpt>
      <trkpt lat="42.71283" lon="1.6474">
        <ele>1539.262</ele>
        <time>2021-06-13T08:27:02Z</time>
      </trkpt>
      <trkpt lat="42.71285" lon="1.64738">
        <ele>1539.092</ele>
        <time>2021-06-13T08:27:04Z</time>
      </trkpt>
      <trkpt lat="42.71285" lon="1.64737">
        <ele>1538.735</ele>
        <time>2021-06-13T08:27:06Z</time>
      </trkpt>
      <trkpt lat="42.71285" lon="1.64736">
        <ele>1539.688</ele>
        <time>2021-06-13T08:27:08Z</time>
      </trkpt>
      <trkpt lat="42.71286" lon="1.64736">
        <ele>1540.401</ele>
        <time>2021-06-13T08:27:10Z</time>
      </trkpt>
      <trkpt lat="42.71287" lon="1.64735">
        <ele>1539.793</ele>
        <time>2021-06-13T08:27:12Z</time>
      </trkpt>
      <trkpt lat="42.71288" lon="1.64734">
        <ele>1541.106</ele>
        <time>2021-06-13T08:27:14Z</time>
      </trkpt>
      <trkpt lat="42.71289" lon="1.64733">
        <ele>1542.17</ele>
        <time>2021-06-13T08:27:16Z</time>
      </trkpt>
      <trkpt lat="42.71289" lon="1.64732">
        <ele>1542.817</ele>
        <time>2021-06-13T08:27:18Z</time>
      </trkpt>
      <trkpt lat="42.71289" lon="1.64732">
        <ele>1543.487</ele>
        <time>2021-06-13T08:27:20Z</time>
      </trkpt>
      <trkpt lat="42.71289" lon="1.64731">
        <ele>1543.82</ele>
        <time>2021-06-13T08:27:22Z</time>
      </trkpt>
      <trkpt lat="42.7129" lon="1.6473">
        <ele>1542.952</ele>
        <time>2021-06-13T08:27:24Z</time>
      </trkpt>
      <trkpt lat="42.71291" lon="1.64729">
        <ele>1541.702</ele>
        <time>2021-06-13T08:27:26Z</time>
      </trkpt>
      <trkpt lat="42.71291" lon="1.64729">
        <ele>1542.18</ele>
        <time>2021-06-13T08:27:28Z</time>
      </trkpt>
      <trkpt lat="42.71293" lon="1.64729">
        <ele>1541.789</ele>
        <time>2021-06-13T08:27:30Z</time>
      </trkpt>
      <trkpt lat="42.71294" lon="1.64729">
        <ele>1542.842</ele>
        <time>2021-06-13T08:27:32Z</time>
      </trkpt>
      <trkpt lat="42.71295" lon="1.64729">
        <ele>1543.399</ele>
        <time>2021-06-13T08:27:34Z</time>
      </trkpt>
      <trkpt lat="42.71296" lon="1.6473">
        <ele>1545.38</ele>
        <time>2021-06-13T08:27:36Z</time>
      </trkpt>
      <trkpt lat="42.71297" lon="1.64731">
        <ele>1545.555</ele>
        <time>2021-06-13T08:27:38Z</time>
      </trkpt>
      <trkpt lat="42.71297" lon="1.64731">
        <ele>1543.976</ele>
        <time>2021-06-13T08:27:40Z</time>
      </trkpt>
      <trkpt lat="42.71298" lon="1.64731">
        <ele>1544.35</ele>
        <time>2021-06-13T08:27:42Z</time>
      </trkpt>
      <trkpt lat="42.71299" lon="1.64731">
        <ele>1545.186</ele>
        <time>2021-06-13T08:27:44Z</time>
      </trkpt>
      <trkpt lat="42.713" lon="1.64731">
        <ele>1544.442</ele>
        <time>2021-06-13T08:27:46Z</time>
      </trkpt>
      <trkpt lat="42.71301" lon="1.6473">
        <ele>1544.932</ele>
        <time>2021-06-13T08:27:48Z</time>
      </trkpt>
      <trkpt lat="42.71301" lon="1.6473">
        <ele>1545.689</ele>
        <time>2021-06-13T08:27:50Z</time>
      </trkpt>
      <trkpt lat="42.71302" lon="1.6473">
        <ele>1546.557</ele>
        <time>2021-06-13T08:27:52Z</time>
      </trkpt>
      <trkpt lat="42.71302" lon="1.64728">
        <ele>1546.154</ele>
        <time>2021-06-13T08:27:54Z</time>
      </trkpt>
      <trkpt lat="42.71303" lon="1.64727">
        <ele>1546.958</ele>
        <time>2021-06-13T08:27:56Z</time>
      </trkpt>
      <trkpt lat="42.71303" lon="1.64726">
        <ele>1547.416</ele>
        <time>2021-06-13T08:27:58Z</time>
      </trkpt>
      <trkpt lat="42.71304" lon="1.64726">
        <ele>1548.244</ele>
        <time>2021-06-13T08:28:00Z</time>
      </trkpt>
      <trkpt lat="42.71305" lon="1.64726">
        <ele>1548.135</ele>
        <time>2021-06-13T08:28:02Z</time>
      </trkpt>
      <trkpt lat="42.71306" lon="1.64725">
        <ele>1547.591</ele>
        <time>2021-06-13T08:28:04Z</time>
      </trkpt>
      <trkpt lat="42.71307" lon="1.64724">
        <ele>1546.914</ele>
        <time>2021-06-13T08:28:06Z</time>
      </trkpt>
      <trkpt lat="42.71307" lon="1.64724">
        <ele>1547.341</ele>
        <time>2021-06-13T08:28:08Z</time>
      </trkpt>
      <trkpt lat="42.71308" lon="1.64724">
        <ele>1549.633</ele>
        <time>2021-06-13T08:28:10Z</time>
      </trkpt>
      <trkpt lat="42.71309" lon="1.64724">
        <ele>1550.458</ele>
        <time>2021-06-13T08:28:12Z</time>
      </trkpt>
      <trkpt lat="42.7131" lon="1.64724">
        <ele>1551.658</ele>
        <time>2021-06-13T08:28:14Z</time>
      </trkpt>
      <trkpt lat="42.7131" lon="1.64723">
        <ele>1551.995</ele>
        <time>2021-06-13T08:28:16Z</time>
      </trkpt>
      <trkpt lat="42.7131" lon="1.64722">
        <ele>1551.966</ele>
        <time>2021-06-13T08:28:18Z</time>
      </trkpt>
      <trkpt lat="42.7131" lon="1.64722">
        <ele>1551.579</ele>
        <time>2021-06-13T08:28:20Z</time>
      </trkpt>
      <trkpt lat="42.7131" lon="1.64722">
        <ele>1552.94</ele>
        <time>2021-06-13T08:28:22Z</time>
      </trkpt>
      <trkpt lat="42.71309" lon="1.64721">
        <ele>1554.934</ele>
        <time>2021-06-13T08:28:24Z</time>
      </trkpt>
      <trkpt lat="42.71309" lon="1.6472">
        <ele>1555.613</ele>
        <time>2021-06-13T08:28:26Z</time>
      </trkpt>
      <trkpt lat="42.7131" lon="1.64718">
        <ele>1556.767</ele>
        <time>2021-06-13T08:28:28Z</time>
      </trkpt>
      <trkpt lat="42.7131" lon="1.64717">
        <ele>1557.176</ele>
        <time>2021-06-13T08:28:30Z</time>
      </trkpt>
      <trkpt lat="42.71311" lon="1.64716">
        <ele>1557.281</ele>
        <time>2021-06-13T08:28:32Z</time>
      </trkpt>
      <trkpt lat="42.71311" lon="1.64715">
        <ele>1557.544</ele>
        <time>2021-06-13T08:28:34Z</time>
      </trkpt>
      <trkpt lat="42.71313" lon="1.64715">
        <ele>1558.031</ele>
        <time>2021-06-13T08:28:36Z</time>
      </trkpt>
      <trkpt lat="42.71314" lon="1.64715">
        <ele>1558.356</ele>
        <time>2021-06-13T08:28:38Z</time>
      </trkpt>
      <trkpt lat="42.71315" lon="1.64715">
        <ele>1557.93</ele>
        <time>2021-06-13T08:28:40Z</time>
      </trkpt>
      <trkpt lat="42.71316" lon="1.64716">
        <ele>1559.77</ele>
        <time>2021-06-13T08:28:42Z</time>
      </trkpt>
      <trkpt lat="42.71317" lon="1.64718">
        <ele>1560.899</ele>
        <time>2021-06-13T08:28:44Z</time>
      </trkpt>
      <trkpt lat="42.71318" lon="1.64718">
        <ele>1560.872</ele>
        <time>2021-06-13T08:28:46Z</time>
      </trkpt>
      <trkpt lat="42.71319" lon="1.64718">
        <ele>1561.237</ele>
        <time>2021-06-13T08:28:48Z</time>
      </trkpt>
      <trkpt lat="42.7132" lon="1.64717">
        <ele>1561.497</ele>
        <time>2021-06-13T08:28:50Z</time>
      </trkpt>
      <trkpt lat="42.7132" lon="1.64717">
        <ele>1562.68</ele>
        <time>2021-06-13T08:28:52Z</time>
      </trkpt>
      <trkpt lat="42.71322" lon="1.64717">
        <ele>1562.68</ele>
        <time>2021-06-13T08:28:54Z</time>
      </trkpt>
      <trkpt lat="42.71323" lon="1.64718">
        <ele>1563.978</ele>
        <time>2021-06-13T08:28:56Z</time>
      </trkpt>
      <trkpt lat="42.71323" lon="1.64719">
        <ele>1564.141</ele>
        <time>2021-06-13T08:28:58Z</time>
      </trkpt>
      <trkpt lat="42.71324" lon="1.64718">
        <ele>1563.314</ele>
        <time>2021-06-13T08:29:00Z</time>
      </trkpt>
      <trkpt lat="42.71325" lon="1.64716">
        <ele>1564.013</ele>
        <time>2021-06-13T08:29:02Z</time>
      </trkpt>
      <trkpt lat="42.71325" lon="1.64715">
        <ele>1564.647</ele>
        <time>2021-06-13T08:29:04Z</time>
      </trkpt>
      <trkpt lat="42.71326" lon="1.64714">
        <ele>1564.894</ele>
        <time>2021-06-13T08:29:06Z</time>
      </trkpt>
      <trkpt lat="42.71326" lon="1.64713">
        <ele>1564.924</ele>
        <time>2021-06-13T08:29:08Z</time>
      </trkpt>
      <trkpt lat="42.71327" lon="1.64713">
        <ele>1565.757</ele>
        <time>2021-06-13T08:29:10Z</time>
      </trkpt>
      <trkpt lat="42.71327" lon="1.64711">
        <ele>1565.119</ele>
        <time>2021-06-13T08:29:12Z</time>
      </trkpt>
      <trkpt lat="42.71326" lon="1.64711">
        <ele>1565.003</ele>
        <time>2021-06-13T08:29:14Z</time>
      </trkpt>
      <trkpt lat="42.71326" lon="1.6471">
        <ele>1564.538</ele>
        <time>2021-06-13T08:29:16Z</time>
      </trkpt>
      <trkpt lat="42.71326" lon="1.64709">
        <ele>1563.919</ele>
        <time>2021-06-13T08:29:18Z</time>
      </trkpt>
      <trkpt lat="42.71325" lon="1.64708">
        <ele>1565.44</ele>
        <time>2021-06-13T08:29:20Z</time>
      </trkpt>
      <trkpt lat="42.71325" lon="1.64707">
        <ele>1564.795</ele>
        <time>2021-06-13T08:29:22Z</time>
      </trkpt>
      <trkpt lat="42.71324" lon="1.64706">
        <ele>1564.353</ele>
        <time>2021-06-13T08:29:24Z</time>
      </trkpt>
      <trkpt lat="42.71324" lon="1.64706">
        <ele>1565.148</ele>
        <time>2021-06-13T08:29:26Z</time>
      </trkpt>
      <trkpt lat="42.71324" lon="1.64705">
        <ele>1566.274</ele>
        <time>2021-06-13T08:29:28Z</time>
      </trkpt>
      <trkpt lat="42.71325" lon="1.64705">
        <ele>1566.684</ele>
        <time>2021-06-13T08:29:30Z</time>
      </trkpt>
      <trkpt lat="42.71325" lon="1.64705">
        <ele>1567.361</ele>
        <time>2021-06-13T08:29:32Z</time>
      </trkpt>
      <trkpt lat="42.71325" lon="1.64704">
        <ele>1566.874</ele>
        <time>2021-06-13T08:29:34Z</time>
      </trkpt>
      <trkpt lat="42.71325" lon="1.64703">
        <ele>1566.55</ele>
        <time>2021-06-13T08:29:36Z</time>
      </trkpt>
      <trkpt lat="42.71326" lon="1.64702">
        <ele>1566.399</ele>
        <time>2021-06-13T08:29:38Z</time>
      </trkpt>
      <trkpt lat="42.71326" lon="1.64701">
        <ele>1567.162</ele>
        <time>2021-06-13T08:29:40Z</time>
      </trkpt>
      <trkpt lat="42.71325" lon="1.647">
        <ele>1567.605</ele>
        <time>2021-06-13T08:29:42Z</time>
      </trkpt>
      <trkpt lat="42.71326" lon="1.64698">
        <ele>1567.892</ele>
        <time>2021-06-13T08:29:44Z</time>
      </trkpt>
      <trkpt lat="42.71326" lon="1.64697">
        <ele>1569.388</ele>
        <time>2021-06-13T08:29:46Z</time>
      </trkpt>
      <trkpt lat="42.71326" lon="1.64696">
        <ele>1569.187</ele>
        <time>2021-06-13T08:29:48Z</time>
      </trkpt>
      <trkpt lat="42.71325" lon="1.64695">
        <ele>1570.483</ele>
        <time>2021-06-13T08:29:50Z</time>
      </trkpt>
      <trkpt lat="42.71324" lon="1.64693">
        <ele>1570.776</ele>
        <time>2021-06-13T08:29:52Z</time>
      </trkpt>
      <trkpt lat="42.71324" lon="1.64691">
        <ele>1573.075</ele>
        <time>2021-06-13T08:29:54Z</time>
      </trkpt>
      <trkpt lat="42.71323" lon="1.64689">
        <ele>1575.402</ele>
        <time>2021-06-13T08:29:56Z</time>
      </trkpt>
      <trkpt lat="42.71322" lon="1.64687">
        <ele>1577.405</ele>
        <time>2021-06-13T08:29:58Z</time>
      </trkpt>
      <trkpt lat="42.71322" lon="1.64686">
        <ele>1577.091</ele>
        <time>2021-06-13T08:30:00Z</time>
      </trkpt>
      <trkpt lat="42.71323" lon="1.64685">
        <ele>1576.845</ele>
        <time>2021-06-13T08:30:02Z</time>
      </trkpt>
      <trkpt lat="42.71324" lon="1.64685">
        <ele>1576.546</ele>
        <time>2021-06-13T08:30:04Z</time>
      </trkpt>
      <trkpt lat="42.71325" lon="1.64684">
        <ele>1576.804</ele>
        <time>2021-06-13T08:30:06Z</time>
      </trkpt>
      <trkpt lat="42.71325" lon="1.64684">
        <ele>1576.565</ele>
        <time>2021-06-13T08:30:08Z</time>
      </trkpt>
      <trkpt lat="42.71325" lon="1.64684">
        <ele>1576.382</ele>
        <time>2021-06-13T08:30:10Z</time>
      </trkpt>
      <trkpt lat="42.71326" lon="1.64683">
        <ele>1576.905</ele>
        <time>2021-06-13T08:30:12Z</time>
      </trkpt>
      <trkpt lat="42.71326" lon="1.64682">
        <ele>1577.679</ele>
        <time>2021-06-13T08:30:14Z</time>
      </trkpt>
      <trkpt lat="42.71326" lon="1.64682">
        <ele>1578.818</ele>
        <time>2021-06-13T08:30:16Z</time>
      </trkpt>
      <trkpt lat="42.71327" lon="1.64681">
        <ele>1578.723</ele>
        <time>2021-06-13T08:30:18Z</time>
      </trkpt>
      <trkpt lat="42.71326" lon="1.6468">
        <ele>1577.576</ele>
        <time>2021-06-13T08:30:20Z</time>
      </trkpt>
      <trkpt lat="42.71326" lon="1.64679">
        <ele>1577.981</ele>
        <time>2021-06-13T08:30:22Z</time>
      </trkpt>
      <trkpt lat="42.71326" lon="1.64677">
        <ele>1577.396</ele>
        <time>2021-06-13T08:30:24Z</time>
      </trkpt>
      <trkpt lat="42.71327" lon="1.64676">
        <ele>1578.383</ele>
        <time>2021-06-13T08:30:26Z</time>
      </trkpt>
      <trkpt lat="42.71327" lon="1.64675">
        <ele>1580.313</ele>
        <time>2021-06-13T08:30:28Z</time>
      </trkpt>
      <trkpt lat="42.71327" lon="1.64674">
        <ele>1579.875</ele>
        <time>2021-06-13T08:30:30Z</time>
      </trkpt>
      <trkpt lat="42.71327" lon="1.64673">
        <ele>1580.471</ele>
        <time>2021-06-13T08:30:32Z</time>
      </trkpt>
      <trkpt lat="42.71327" lon="1.64672">
        <ele>1581.795</ele>
        <time>2021-06-13T08:30:34Z</time>
      </trkpt>
      <trkpt lat="42.71328" lon="1.64671">
        <ele>1581.192</ele>
        <time>2021-06-13T08:30:36Z</time>
      </trkpt>
      <trkpt lat="42.71328" lon="1.6467">
        <ele>1579.843</ele>
        <time>2021-06-13T08:30:38Z</time>
      </trkpt>
      <trkpt lat="42.71328" lon="1.6467">
        <ele>1580.18</ele>
        <time>2021-06-13T08:30:40Z</time>
      </trkpt>
      <trkpt lat="42.71329" lon="1.64669">
        <ele>1580.956</ele>
        <time>2021-06-13T08:30:42Z</time>
      </trkpt>
      <trkpt lat="42.7133" lon="1.64668">
        <ele>1582.316</ele>
        <time>2021-06-13T08:30:44Z</time>
      </trkpt>
      <trkpt lat="42.71331" lon="1.64667">
        <ele>1583.19</ele>
        <time>2021-06-13T08:30:46Z</time>
      </trkpt>
      <trkpt lat="42.71331" lon="1.64666">
        <ele>1583.942</ele>
        <time>2021-06-13T08:30:48Z</time>
      </trkpt>
      <trkpt lat="42.71331" lon="1.64665">
        <ele>1585.11</ele>
        <time>2021-06-13T08:30:50Z</time>
      </trkpt>
      <trkpt lat="42.71331" lon="1.64664">
        <ele>1585.058</ele>
        <time>2021-06-13T08:30:52Z</time>
      </trkpt>
      <trkpt lat="42.71332" lon="1.64664">
        <ele>1586.072</ele>
        <time>2021-06-13T08:30:54Z</time>
      </trkpt>
      <trkpt lat="42.71332" lon="1.64663">
        <ele>1587.054</ele>
        <time>2021-06-13T08:30:56Z</time>
      </trkpt>
      <trkpt lat="42.71332" lon="1.64661">
        <ele>1585.989</ele>
        <time>2021-06-13T08:30:58Z</time>
      </trkpt>
      <trkpt lat="42.71332" lon="1.6466">
        <ele>1586.54</ele>
        <time>2021-06-13T08:31:00Z</time>
      </trkpt>
      <trkpt lat="42.71332" lon="1.64659">
        <ele>1585.357</ele>
        <time>2021-06-13T08:31:02Z</time>
      </trkpt>
      <trkpt lat="42.71332" lon="1.64658">
        <ele>1586.521</ele>
        <time>2021-06-13T08:31:04Z</time>
      </trkpt>
      <trkpt lat="42.71332" lon="1.64656">
        <ele>1585.738</ele>
        <time>2021-06-13T08:31:06Z</time>
      </trkpt>
      <trkpt lat="42.71333" lon="1.64655">
        <ele>1587.021</ele>
        <time>2021-06-13T08:31:08Z</time>
      </trkpt>
      <trkpt lat="42.71333" lon="1.64653">
        <ele>1587.306</ele>
        <time>2021-06-13T08:31:10Z</time>
      </trkpt>
      <trkpt lat="42.71332" lon="1.64651">
        <ele>1588.359</ele>
        <time>2021-06-13T08:31:12Z</time>
      </trkpt>
      <trkpt lat="42.7133" lon="1.64649">
        <ele>1587.973</ele>
        <time>2021-06-13T08:31:14Z</time>
      </trkpt>
      <trkpt lat="42.7133" lon="1.64649">
        <ele>1589.875</ele>
        <time>2021-06-13T08:31:16Z</time>
      </trkpt>
      <trkpt lat="42.71329" lon="1.64648">
        <ele>1591.271</ele>
        <time>2021-06-13T08:31:18Z</time>
      </trkpt>
      <trkpt lat="42.71328" lon="1.64646">
        <ele>1589.84</ele>
        <time>2021-06-13T08:31:20Z</time>
      </trkpt>
      <trkpt lat="42.71327" lon="1.64645">
        <ele>1590.323</ele>
        <time>2021-06-13T08:31:22Z</time>
      </trkpt>
      <trkpt lat="42.71327" lon="1.64643">
        <ele>1591.087</ele>
        <time>2021-06-13T08:31:24Z</time>
      </trkpt>
      <trkpt lat="42.71327" lon="1.64642">
        <ele>1592.444</ele>
        <time>2021-06-13T08:31:26Z</time>
      </trkpt>
      <trkpt lat="42.71327" lon="1.6464">
        <ele>1593.311</ele>
        <time>2021-06-13T08:31:28Z</time>
      </trkpt>
      <trkpt lat="42.71327" lon="1.6464">
        <ele>1593.337</ele>
        <time>2021-06-13T08:31:30Z</time>
      </trkpt>
      <trkpt lat="42.71327" lon="1.64639">
        <ele>1594.111</ele>
        <time>2021-06-13T08:31:32Z</time>
      </trkpt>
      <trkpt lat="42.71327" lon="1.64638">
        <ele>1594.038</ele>
        <time>2021-06-13T08:31:34Z</time>
      </trkpt>
      <trkpt lat="42.71328" lon="1.64637">
        <ele>1594.659</ele>
        <time>2021-06-13T08:31:36Z</time>
      </trkpt>
      <trkpt lat="42.71329" lon="1.64637">
        <ele>1595.202</ele>
        <time>2021-06-13T08:31:38Z</time>
      </trkpt>
      <trkpt lat="42.71329" lon="1.64637">
        <ele>1595.822</ele>
        <time>2021-06-13T08:31:40Z</time>
      </trkpt>
      <trkpt lat="42.71328" lon="1.64636">
        <ele>1595.66</ele>
        <time>2021-06-13T08:31:42Z</time>
      </trkpt>
      <trkpt lat="42.71328" lon="1.64634">
        <ele>1596.954</ele>
        <time>2021-06-13T08:31:44Z</time>
      </trkpt>
      <trkpt lat="42.71328" lon="1.64633">
        <ele>1596.6</ele>
        <time>2021-06-13T08:31:46Z</time>
      </trkpt>
      <trkpt lat="42.71328" lon="1.64631">
        <ele>1596.664</ele>
        <time>2021-06-13T08:31:48Z</time>
      </trkpt>
      <trkpt lat="42.71326" lon="1.6463">
        <ele>1595.345</ele>
        <time>2021-06-13T08:31:50Z</time>
      </trkpt>
      <trkpt lat="42.71325" lon="1.64629">
        <ele>1596.519</ele>
        <time>2021-06-13T08:31:52Z</time>
      </trkpt>
      <trkpt lat="42.71325" lon="1.64628">
        <ele>1596.627</ele>
        <time>2021-06-13T08:31:54Z</time>
      </trkpt>
      <trkpt lat="42.71326" lon="1.64626">
        <ele>1597.614</ele>
        <time>2021-06-13T08:31:56Z</time>
      </trkpt>
      <trkpt lat="42.71326" lon="1.64625">
        <ele>1597.193</ele>
        <time>2021-06-13T08:31:58Z</time>
      </trkpt>
      <trkpt lat="42.71325" lon="1.64624">
        <ele>1597.209</ele>
        <time>2021-06-13T08:32:00Z</time>
      </trkpt>
      <trkpt lat="42.71324" lon="1.64624">
        <ele>1597.079</ele>
        <time>2021-06-13T08:32:02Z</time>
      </trkpt>
      <trkpt lat="42.71324" lon="1.64623">
        <ele>1597.212</ele>
        <time>2021-06-13T08:32:04Z</time>
      </trkpt>
      <trkpt lat="42.71323" lon="1.64621">
        <ele>1598.517</ele>
        <time>2021-06-13T08:32:06Z</time>
      </trkpt>
      <trkpt lat="42.71323" lon="1.6462">
        <ele>1598.925</ele>
        <time>2021-06-13T08:32:08Z</time>
      </trkpt>
      <trkpt lat="42.71323" lon="1.64619">
        <ele>1600.047</ele>
        <time>2021-06-13T08:32:10Z</time>
      </trkpt>
      <trkpt lat="42.71322" lon="1.64617">
        <ele>1599.774</ele>
        <time>2021-06-13T08:32:12Z</time>
      </trkpt>
      <trkpt lat="42.71322" lon="1.64616">
        <ele>1599.717</ele>
        <time>2021-06-13T08:32:14Z</time>
      </trkpt>
      <trkpt lat="42.71322" lon="1.64614">
        <ele>1599.221</ele>
        <time>2021-06-13T08:32:16Z</time>
      </trkpt>
      <trkpt lat="42.71323" lon="1.64613">
        <ele>1599.678</ele>
        <time>2021-06-13T08:32:18Z</time>
      </trkpt>
      <trkpt lat="42.71323" lon="1.64611">
        <ele>1599.839</ele>
        <time>2021-06-13T08:32:20Z</time>
      </trkpt>
      <trkpt lat="42.71323" lon="1.6461">
        <ele>1599.865</ele>
        <time>2021-06-13T08:32:22Z</time>
      </trkpt>
      <trkpt lat="42.71324" lon="1.64609">
        <ele>1600.381</ele>
        <time>2021-06-13T08:32:24Z</time>
      </trkpt>
      <trkpt lat="42.71325" lon="1.64608">
        <ele>1599.95</ele>
        <time>2021-06-13T08:32:26Z</time>
      </trkpt>
      <trkpt lat="42.71326" lon="1.64608">
        <ele>1599.519</ele>
        <time>2021-06-13T08:32:28Z</time>
      </trkpt>
      <trkpt lat="42.71327" lon="1.64606">
        <ele>1599.643</ele>
        <time>2021-06-13T08:32:30Z</time>
      </trkpt>
      <trkpt lat="42.71327" lon="1.64605">
        <ele>1599.547</ele>
        <time>2021-06-13T08:32:32Z</time>
      </trkpt>
      <trkpt lat="42.71327" lon="1.64603">
        <ele>1599.99</ele>
        <time>2021-06-13T08:32:34Z</time>
      </trkpt>
      <trkpt lat="42.71328" lon="1.64602">
        <ele>1598.267</ele>
        <time>2021-06-13T08:32:36Z</time>
      </trkpt>
      <trkpt lat="42.71328" lon="1.646">
        <ele>1599.438</ele>
        <time>2021-06-13T08:32:38Z</time>
      </trkpt>
      <trkpt lat="42.71329" lon="1.64599">
        <ele>1600.287</ele>
        <time>2021-06-13T08:32:40Z</time>
      </trkpt>
      <trkpt lat="42.7133" lon="1.64597">
        <ele>1600.19</ele>
        <time>2021-06-13T08:32:42Z</time>
      </trkpt>
      <trkpt lat="42.71331" lon="1.64595">
        <ele>1599.496</ele>
        <time>2021-06-13T08:32:44Z</time>
      </trkpt>
      <trkpt lat="42.71331" lon="1.64593">
        <ele>1600.208</ele>
        <time>2021-06-13T08:32:46Z</time>
      </trkpt>
      <trkpt lat="42.7133" lon="1.64591">
        <ele>1599.718</ele>
        <time>2021-06-13T08:32:48Z</time>
      </trkpt>
      <trkpt lat="42.71329" lon="1.64589">
        <ele>1598.779</ele>
        <time>2021-06-13T08:32:50Z</time>
      </trkpt>
      <trkpt lat="42.71328" lon="1.64587">
        <ele>1598.636</ele>
        <time>2021-06-13T08:32:52Z</time>
      </trkpt>
      <trkpt lat="42.71328" lon="1.64585">
        <ele>1598.375</ele>
        <time>2021-06-13T08:32:54Z</time>
      </trkpt>
      <trkpt lat="42.71328" lon="1.64584">
        <ele>1598.018</ele>
        <time>2021-06-13T08:32:56Z</time>
      </trkpt>
      <trkpt lat="42.71328" lon="1.64584">
        <ele>1597.254</ele>
        <time>2021-06-13T08:32:58Z</time>
      </trkpt>
      <trkpt lat="42.71328" lon="1.64583">
        <ele>1596.235</ele>
        <time>2021-06-13T08:33:00Z</time>
      </trkpt>
      <trkpt lat="42.71328" lon="1.64583">
        <ele>1597.184</ele>
        <time>2021-06-13T08:33:02Z</time>
      </trkpt>
      <trkpt lat="42.71329" lon="1.64582">
        <ele>1597.188</ele>
        <time>2021-06-13T08:33:04Z</time>
      </trkpt>
      <trkpt lat="42.71329" lon="1.64582">
        <ele>1597.217</ele>
        <time>2021-06-13T08:33:06Z</time>
      </trkpt>
      <trkpt lat="42.71329" lon="1.64582">
        <ele>1597.221</ele>
        <time>2021-06-13T08:33:08Z</time>
      </trkpt>
      <trkpt lat="42.71329" lon="1.64582">
        <ele>1597.235</ele>
        <time>2021-06-13T08:33:10Z</time>
      </trkpt>
      <trkpt lat="42.71329" lon="1.64582">
        <ele>1597.235</ele>
        <time>2021-06-13T08:33:12Z</time>
      </trkpt>
      <trkpt lat="42.71329" lon="1.64582">
        <ele>1597.302</ele>
        <time>2021-06-13T08:33:14Z</time>
      </trkpt>
      <trkpt lat="42.71329" lon="1.64582">
        <ele>1597.683</ele>
        <time>2021-06-13T08:33:16Z</time>
      </trkpt>
      <trkpt lat="42.71329" lon="1.64583">
        <ele>1598.801</ele>
        <time>2021-06-13T08:33:18Z</time>
      </trkpt>
      <trkpt lat="42.7133" lon="1.64583">
        <ele>1598.795</ele>
        <time>2021-06-13T08:33:20Z</time>
      </trkpt>
      <trkpt lat="42.7133" lon="1.64583">
        <ele>1598.786</ele>
        <time>2021-06-13T08:33:22Z</time>
      </trkpt>
      <trkpt lat="42.7133" lon="1.64583">
        <ele>1598.779</ele>
        <time>2021-06-13T08:33:24Z</time>
      </trkpt>
      <trkpt lat="42.7133" lon="1.64583">
        <ele>1598.762</ele>
        <time>2021-06-13T08:33:26Z</time>
      </trkpt>
      <trkpt lat="42.7133" lon="1.64584">
        <ele>1599.462</ele>
        <time>2021-06-13T08:33:28Z</time>
      </trkpt>
      <trkpt lat="42.7133" lon="1.64584">
        <ele>1600.399</ele>
        <time>2021-06-13T08:33:30Z</time>
      </trkpt>
      <trkpt lat="42.71331" lon="1.64584">
        <ele>1601.579</ele>
        <time>2021-06-13T08:33:32Z</time>
      </trkpt>
      <trkpt lat="42.71331" lon="1.64583">
        <ele>1601.353</ele>
        <time>2021-06-13T08:33:34Z</time>
      </trkpt>
      <trkpt lat="42.71331" lon="1.64583">
        <ele>1600.95</ele>
        <time>2021-06-13T08:33:36Z</time>
      </trkpt>
      <trkpt lat="42.7133" lon="1.64584">
        <ele>1600.96</ele>
        <time>2021-06-13T08:33:38Z</time>
      </trkpt>
      <trkpt lat="42.7133" lon="1.64584">
        <ele>1600.988</ele>
        <time>2021-06-13T08:33:40Z</time>
      </trkpt>
      <trkpt lat="42.7133" lon="1.64584">
        <ele>1601.015</ele>
        <time>2021-06-13T08:33:42Z</time>
      </trkpt>
      <trkpt lat="42.7133" lon="1.64584">
        <ele>1601.039</ele>
        <time>2021-06-13T08:33:44Z</time>
      </trkpt>
      <trkpt lat="42.7133" lon="1.64584">
        <ele>1601.08</ele>
        <time>2021-06-13T08:33:47Z</time>
      </trkpt>
      <trkpt lat="42.7133" lon="1.64584">
        <ele>1601.097</ele>
        <time>2021-06-13T08:33:49Z</time>
      </trkpt>
      <trkpt lat="42.7133" lon="1.64584">
        <ele>1601.101</ele>
        <time>2021-06-13T08:33:51Z</time>
      </trkpt>
      <trkpt lat="42.7133" lon="1.64584">
        <ele>1601.119</ele>
        <time>2021-06-13T08:33:53Z</time>
      </trkpt>
      <trkpt lat="42.7133" lon="1.64584">
        <ele>1601.128</ele>
        <time>2021-06-13T08:33:54Z</time>
      </trkpt>
      <trkpt lat="42.7133" lon="1.64584">
        <ele>1601.147</ele>
        <time>2021-06-13T08:33:57Z</time>
      </trkpt>
      <trkpt lat="42.7133" lon="1.64584">
        <ele>1601.15</ele>
        <time>2021-06-13T08:33:59Z</time>
      </trkpt>
      <trkpt lat="42.7133" lon="1.64584">
        <ele>1601.166</ele>
        <time>2021-06-13T08:34:01Z</time>
      </trkpt>
      <trkpt lat="42.7133" lon="1.64584">
        <ele>1601.172</ele>
        <time>2021-06-13T08:34:03Z</time>
      </trkpt>
      <trkpt lat="42.7133" lon="1.64584">
        <ele>1601.211</ele>
        <time>2021-06-13T08:34:05Z</time>
      </trkpt>
      <trkpt lat="42.7133" lon="1.64584">
        <ele>1601.231</ele>
        <time>2021-06-13T08:34:07Z</time>
      </trkpt>
      <trkpt lat="42.71331" lon="1.64584">
        <ele>1602.378</ele>
        <time>2021-06-13T08:34:09Z</time>
      </trkpt>
      <trkpt lat="42.71331" lon="1.64583">
        <ele>1602.408</ele>
        <time>2021-06-13T08:34:11Z</time>
      </trkpt>
      <trkpt lat="42.71331" lon="1.64583">
        <ele>1602.457</ele>
        <time>2021-06-13T08:34:13Z</time>
      </trkpt>
      <trkpt lat="42.71331" lon="1.64583">
        <ele>1602.491</ele>
        <time>2021-06-13T08:34:15Z</time>
      </trkpt>
      <trkpt lat="42.71331" lon="1.64583">
        <ele>1602.532</ele>
        <time>2021-06-13T08:34:17Z</time>
      </trkpt>
      <trkpt lat="42.71331" lon="1.64583">
        <ele>1602.54</ele>
        <time>2021-06-13T08:34:19Z</time>
      </trkpt>
      <trkpt lat="42.71331" lon="1.64583">
        <ele>1602.534</ele>
        <time>2021-06-13T08:34:21Z</time>
      </trkpt>
      <trkpt lat="42.71331" lon="1.64583">
        <ele>1602.535</ele>
        <time>2021-06-13T08:34:22Z</time>
      </trkpt>
      <trkpt lat="42.71331" lon="1.64583">
        <ele>1602.542</ele>
        <time>2021-06-13T08:34:25Z</time>
      </trkpt>
      <trkpt lat="42.71331" lon="1.64583">
        <ele>1602.55</ele>
        <time>2021-06-13T08:34:27Z</time>
      </trkpt>
      <trkpt lat="42.71331" lon="1.64583">
        <ele>1602.558</ele>
        <time>2021-06-13T08:34:28Z</time>
      </trkpt>
      <trkpt lat="42.71331" lon="1.64583">
        <ele>1602.581</ele>
        <time>2021-06-13T08:34:31Z</time>
      </trkpt>
      <trkpt lat="42.71331" lon="1.64583">
        <ele>1602.6</ele>
        <time>2021-06-13T08:34:33Z</time>
      </trkpt>
      <trkpt lat="42.71331" lon="1.64583">
        <ele>1602.613</ele>
        <time>2021-06-13T08:34:35Z</time>
      </trkpt>
      <trkpt lat="42.71331" lon="1.64583">
        <ele>1602.761</ele>
        <time>2021-06-13T08:34:37Z</time>
      </trkpt>
      <trkpt lat="42.71331" lon="1.64583">
        <ele>1602.777</ele>
        <time>2021-06-13T08:34:39Z</time>
      </trkpt>
      <trkpt lat="42.71331" lon="1.64583">
        <ele>1602.772</ele>
        <time>2021-06-13T08:34:41Z</time>
      </trkpt>
      <trkpt lat="42.71331" lon="1.64583">
        <ele>1602.775</ele>
        <time>2021-06-13T08:34:43Z</time>
      </trkpt>
      <trkpt lat="42.71331" lon="1.64583">
        <ele>1602.774</ele>
        <time>2021-06-13T08:34:45Z</time>
      </trkpt>
      <trkpt lat="42.71331" lon="1.64583">
        <ele>1602.774</ele>
        <time>2021-06-13T08:34:47Z</time>
      </trkpt>
      <trkpt lat="42.71331" lon="1.64583">
        <ele>1602.784</ele>
        <time>2021-06-13T08:34:49Z</time>
      </trkpt>
      <trkpt lat="42.71331" lon="1.64583">
        <ele>1602.786</ele>
        <time>2021-06-13T08:34:51Z</time>
      </trkpt>
      <trkpt lat="42.71331" lon="1.64583">
        <ele>1602.79</ele>
        <time>2021-06-13T08:34:53Z</time>
      </trkpt>
      <trkpt lat="42.71331" lon="1.64583">
        <ele>1602.785</ele>
        <time>2021-06-13T08:34:55Z</time>
      </trkpt>
      <trkpt lat="42.71331" lon="1.64583">
        <ele>1602.79</ele>
        <time>2021-06-13T08:34:57Z</time>
      </trkpt>
      <trkpt lat="42.71331" lon="1.64583">
        <ele>1602.793</ele>
        <time>2021-06-13T08:34:59Z</time>
      </trkpt>
      <trkpt lat="42.71331" lon="1.64583">
        <ele>1602.794</ele>
        <time>2021-06-13T08:35:01Z</time>
      </trkpt>
      <trkpt lat="42.71331" lon="1.64583">
        <ele>1602.796</ele>
        <time>2021-06-13T08:35:03Z</time>
      </trkpt>
      <trkpt lat="42.71331" lon="1.64583">
        <ele>1602.804</ele>
        <time>2021-06-13T08:35:05Z</time>
      </trkpt>
      <trkpt lat="42.71331" lon="1.64583">
        <ele>1602.818</ele>
        <time>2021-06-13T08:35:07Z</time>
      </trkpt>
      <trkpt lat="42.71331" lon="1.64583">
        <ele>1602.838</ele>
        <time>2021-06-13T08:35:09Z</time>
      </trkpt>
      <trkpt lat="42.71331" lon="1.64583">
        <ele>1602.813</ele>
        <time>2021-06-13T08:35:11Z</time>
      </trkpt>
      <trkpt lat="42.71331" lon="1.64583">
        <ele>1602.829</ele>
        <time>2021-06-13T08:35:13Z</time>
      </trkpt>
      <trkpt lat="42.71331" lon="1.64583">
        <ele>1602.834</ele>
        <time>2021-06-13T08:35:15Z</time>
      </trkpt>
      <trkpt lat="42.71331" lon="1.64583">
        <ele>1602.851</ele>
        <time>2021-06-13T08:35:17Z</time>
      </trkpt>
      <trkpt lat="42.71331" lon="1.64583">
        <ele>1602.867</ele>
        <time>2021-06-13T08:35:19Z</time>
      </trkpt>
      <trkpt lat="42.71331" lon="1.64583">
        <ele>1602.881</ele>
        <time>2021-06-13T08:35:21Z</time>
      </trkpt>
      <trkpt lat="42.71331" lon="1.64583">
        <ele>1602.899</ele>
        <time>2021-06-13T08:35:23Z</time>
      </trkpt>
      <trkpt lat="42.71331" lon="1.64583">
        <ele>1602.904</ele>
        <time>2021-06-13T08:35:25Z</time>
      </trkpt>
      <trkpt lat="42.71331" lon="1.64583">
        <ele>1602.912</ele>
        <time>2021-06-13T08:35:27Z</time>
      </trkpt>
      <trkpt lat="42.71331" lon="1.64583">
        <ele>1602.928</ele>
        <time>2021-06-13T08:35:29Z</time>
      </trkpt>
      <trkpt lat="42.71331" lon="1.64583">
        <ele>1602.935</ele>
        <time>2021-06-13T08:35:31Z</time>
      </trkpt>
      <trkpt lat="42.71331" lon="1.64583">
        <ele>1602.945</ele>
        <time>2021-06-13T08:35:33Z</time>
      </trkpt>
      <trkpt lat="42.71331" lon="1.64583">
        <ele>1602.942</ele>
        <time>2021-06-13T08:35:35Z</time>
      </trkpt>
      <trkpt lat="42.71331" lon="1.64583">
        <ele>1602.932</ele>
        <time>2021-06-13T08:35:37Z</time>
      </trkpt>
      <trkpt lat="42.71331" lon="1.64583">
        <ele>1602.94</ele>
        <time>2021-06-13T08:35:39Z</time>
      </trkpt>
      <trkpt lat="42.71331" lon="1.64583">
        <ele>1602.946</ele>
        <time>2021-06-13T08:35:41Z</time>
      </trkpt>
      <trkpt lat="42.71331" lon="1.64583">
        <ele>1602.959</ele>
        <time>2021-06-13T08:35:43Z</time>
      </trkpt>
      <trkpt lat="42.71331" lon="1.64583">
        <ele>1602.969</ele>
        <time>2021-06-13T08:35:45Z</time>
      </trkpt>
      <trkpt lat="42.71331" lon="1.64583">
        <ele>1602.982</ele>
        <time>2021-06-13T08:35:47Z</time>
      </trkpt>
      <trkpt lat="42.71331" lon="1.64583">
        <ele>1602.993</ele>
        <time>2021-06-13T08:35:49Z</time>
      </trkpt>
      <trkpt lat="42.71331" lon="1.64583">
        <ele>1602.989</ele>
        <time>2021-06-13T08:35:51Z</time>
      </trkpt>
      <trkpt lat="42.71331" lon="1.64583">
        <ele>1602.988</ele>
        <time>2021-06-13T08:35:53Z</time>
      </trkpt>
      <trkpt lat="42.71331" lon="1.64583">
        <ele>1602.997</ele>
        <time>2021-06-13T08:35:55Z</time>
      </trkpt>
      <trkpt lat="42.71331" lon="1.64583">
        <ele>1602.984</ele>
        <time>2021-06-13T08:35:57Z</time>
      </trkpt>
      <trkpt lat="42.71331" lon="1.64583">
        <ele>1602.974</ele>
        <time>2021-06-13T08:35:59Z</time>
      </trkpt>
      <trkpt lat="42.71331" lon="1.64583">
        <ele>1602.965</ele>
        <time>2021-06-13T08:36:01Z</time>
      </trkpt>
      <trkpt lat="42.71331" lon="1.64583">
        <ele>1602.952</ele>
        <time>2021-06-13T08:36:03Z</time>
      </trkpt>
      <trkpt lat="42.71331" lon="1.64583">
        <ele>1602.95</ele>
        <time>2021-06-13T08:36:05Z</time>
      </trkpt>
      <trkpt lat="42.71331" lon="1.64583">
        <ele>1602.949</ele>
        <time>2021-06-13T08:36:07Z</time>
      </trkpt>
      <trkpt lat="42.71331" lon="1.64583">
        <ele>1602.94</ele>
        <time>2021-06-13T08:36:09Z</time>
      </trkpt>
      <trkpt lat="42.71331" lon="1.64583">
        <ele>1602.934</ele>
        <time>2021-06-13T08:36:11Z</time>
      </trkpt>
      <trkpt lat="42.71331" lon="1.64583">
        <ele>1602.93</ele>
        <time>2021-06-13T08:36:13Z</time>
      </trkpt>
      <trkpt lat="42.71331" lon="1.64583">
        <ele>1602.921</ele>
        <time>2021-06-13T08:36:15Z</time>
      </trkpt>
      <trkpt lat="42.71331" lon="1.64583">
        <ele>1602.918</ele>
        <time>2021-06-13T08:36:17Z</time>
      </trkpt>
      <trkpt lat="42.71331" lon="1.64583">
        <ele>1602.912</ele>
        <time>2021-06-13T08:36:19Z</time>
      </trkpt>
      <trkpt lat="42.71331" lon="1.64583">
        <ele>1602.908</ele>
        <time>2021-06-13T08:36:21Z</time>
      </trkpt>
      <trkpt lat="42.71331" lon="1.64583">
        <ele>1602.904</ele>
        <time>2021-06-13T08:36:23Z</time>
      </trkpt>
      <trkpt lat="42.71331" lon="1.64583">
        <ele>1602.903</ele>
        <time>2021-06-13T08:36:25Z</time>
      </trkpt>
      <trkpt lat="42.71331" lon="1.64583">
        <ele>1602.907</ele>
        <time>2021-06-13T08:36:27Z</time>
      </trkpt>
      <trkpt lat="42.71331" lon="1.64583">
        <ele>1602.903</ele>
        <time>2021-06-13T08:36:28Z</time>
      </trkpt>
      <trkpt lat="42.71331" lon="1.64583">
        <ele>1602.9</ele>
        <time>2021-06-13T08:36:31Z</time>
      </trkpt>
      <trkpt lat="42.71331" lon="1.64583">
        <ele>1602.904</ele>
        <time>2021-06-13T08:36:33Z</time>
      </trkpt>
      <trkpt lat="42.71331" lon="1.64583">
        <ele>1602.899</ele>
        <time>2021-06-13T08:36:35Z</time>
      </trkpt>
      <trkpt lat="42.71331" lon="1.64583">
        <ele>1602.889</ele>
        <time>2021-06-13T08:36:37Z</time>
      </trkpt>
      <trkpt lat="42.71331" lon="1.64583">
        <ele>1602.893</ele>
        <time>2021-06-13T08:36:39Z</time>
      </trkpt>
      <trkpt lat="42.71331" lon="1.64584">
        <ele>1603.929</ele>
        <time>2021-06-13T08:36:41Z</time>
      </trkpt>
      <trkpt lat="42.71331" lon="1.64584">
        <ele>1603.944</ele>
        <time>2021-06-13T08:36:43Z</time>
      </trkpt>
      <trkpt lat="42.71331" lon="1.64584">
        <ele>1603.959</ele>
        <time>2021-06-13T08:36:45Z</time>
      </trkpt>
      <trkpt lat="42.71331" lon="1.64584">
        <ele>1603.97</ele>
        <time>2021-06-13T08:36:47Z</time>
      </trkpt>
      <trkpt lat="42.71331" lon="1.64584">
        <ele>1603.988</ele>
        <time>2021-06-13T08:36:49Z</time>
      </trkpt>
      <trkpt lat="42.71331" lon="1.64584">
        <ele>1603.989</ele>
        <time>2021-06-13T08:36:51Z</time>
      </trkpt>
      <trkpt lat="42.71331" lon="1.64584">
        <ele>1603.991</ele>
        <time>2021-06-13T08:36:53Z</time>
      </trkpt>
      <trkpt lat="42.71331" lon="1.64584">
        <ele>1603.986</ele>
        <time>2021-06-13T08:36:55Z</time>
      </trkpt>
      <trkpt lat="42.71331" lon="1.64584">
        <ele>1603.983</ele>
        <time>2021-06-13T08:36:57Z</time>
      </trkpt>
      <trkpt lat="42.71331" lon="1.64584">
        <ele>1603.973</ele>
        <time>2021-06-13T08:36:59Z</time>
      </trkpt>
      <trkpt lat="42.71331" lon="1.64584">
        <ele>1603.965</ele>
        <time>2021-06-13T08:37:01Z</time>
      </trkpt>
      <trkpt lat="42.71331" lon="1.64584">
        <ele>1603.961</ele>
        <time>2021-06-13T08:37:03Z</time>
      </trkpt>
      <trkpt lat="42.71331" lon="1.64584">
        <ele>1603.951</ele>
        <time>2021-06-13T08:37:05Z</time>
      </trkpt>
      <trkpt lat="42.71331" lon="1.64584">
        <ele>1603.953</ele>
        <time>2021-06-13T08:37:07Z</time>
      </trkpt>
      <trkpt lat="42.71331" lon="1.64584">
        <ele>1603.945</ele>
        <time>2021-06-13T08:37:09Z</time>
      </trkpt>
      <trkpt lat="42.71331" lon="1.64584">
        <ele>1603.93</ele>
        <time>2021-06-13T08:37:11Z</time>
      </trkpt>
      <trkpt lat="42.71331" lon="1.64584">
        <ele>1603.92</ele>
        <time>2021-06-13T08:37:13Z</time>
      </trkpt>
      <trkpt lat="42.71331" lon="1.64584">
        <ele>1603.929</ele>
        <time>2021-06-13T08:37:15Z</time>
      </trkpt>
      <trkpt lat="42.71331" lon="1.64584">
        <ele>1603.936</ele>
        <time>2021-06-13T08:37:17Z</time>
      </trkpt>
      <trkpt lat="42.71331" lon="1.64584">
        <ele>1603.941</ele>
        <time>2021-06-13T08:37:19Z</time>
      </trkpt>
      <trkpt lat="42.71331" lon="1.64584">
        <ele>1603.947</ele>
        <time>2021-06-13T08:37:21Z</time>
      </trkpt>
      <trkpt lat="42.71331" lon="1.64584">
        <ele>1603.939</ele>
        <time>2021-06-13T08:37:23Z</time>
      </trkpt>
      <trkpt lat="42.71331" lon="1.64584">
        <ele>1603.929</ele>
        <time>2021-06-13T08:37:25Z</time>
      </trkpt>
      <trkpt lat="42.71331" lon="1.64584">
        <ele>1603.924</ele>
        <time>2021-06-13T08:37:27Z</time>
      </trkpt>
      <trkpt lat="42.71331" lon="1.64584">
        <ele>1603.928</ele>
        <time>2021-06-13T08:37:29Z</time>
      </trkpt>
      <trkpt lat="42.71331" lon="1.64584">
        <ele>1603.913</ele>
        <time>2021-06-13T08:37:31Z</time>
      </trkpt>
      <trkpt lat="42.71331" lon="1.64584">
        <ele>1603.9</ele>
        <time>2021-06-13T08:37:33Z</time>
      </trkpt>
      <trkpt lat="42.71331" lon="1.64584">
        <ele>1603.902</ele>
        <time>2021-06-13T08:37:35Z</time>
      </trkpt>
      <trkpt lat="42.71331" lon="1.64584">
        <ele>1603.901</ele>
        <time>2021-06-13T08:37:37Z</time>
      </trkpt>
      <trkpt lat="42.71331" lon="1.64584">
        <ele>1603.905</ele>
        <time>2021-06-13T08:37:39Z</time>
      </trkpt>
      <trkpt lat="42.71331" lon="1.64584">
        <ele>1603.915</ele>
        <time>2021-06-13T08:37:41Z</time>
      </trkpt>
      <trkpt lat="42.71331" lon="1.64584">
        <ele>1603.928</ele>
        <time>2021-06-13T08:37:43Z</time>
      </trkpt>
      <trkpt lat="42.71331" lon="1.64584">
        <ele>1603.93</ele>
        <time>2021-06-13T08:37:45Z</time>
      </trkpt>
      <trkpt lat="42.71331" lon="1.64584">
        <ele>1603.925</ele>
        <time>2021-06-13T08:37:47Z</time>
      </trkpt>
      <trkpt lat="42.71331" lon="1.64584">
        <ele>1603.927</ele>
        <time>2021-06-13T08:37:49Z</time>
      </trkpt>
      <trkpt lat="42.71331" lon="1.64584">
        <ele>1603.92</ele>
        <time>2021-06-13T08:37:51Z</time>
      </trkpt>
      <trkpt lat="42.71331" lon="1.64584">
        <ele>1603.908</ele>
        <time>2021-06-13T08:37:53Z</time>
      </trkpt>
      <trkpt lat="42.71331" lon="1.64584">
        <ele>1603.908</ele>
        <time>2021-06-13T08:37:55Z</time>
      </trkpt>
      <trkpt lat="42.71331" lon="1.64584">
        <ele>1603.898</ele>
        <time>2021-06-13T08:37:57Z</time>
      </trkpt>
      <trkpt lat="42.71331" lon="1.64584">
        <ele>1603.9</ele>
        <time>2021-06-13T08:37:59Z</time>
      </trkpt>
      <trkpt lat="42.71331" lon="1.64584">
        <ele>1603.916</ele>
        <time>2021-06-13T08:38:01Z</time>
      </trkpt>
      <trkpt lat="42.71331" lon="1.64584">
        <ele>1603.922</ele>
        <time>2021-06-13T08:38:03Z</time>
      </trkpt>
      <trkpt lat="42.71331" lon="1.64584">
        <ele>1603.93</ele>
        <time>2021-06-13T08:38:05Z</time>
      </trkpt>
      <trkpt lat="42.71331" lon="1.64584">
        <ele>1603.938</ele>
        <time>2021-06-13T08:38:07Z</time>
      </trkpt>
      <trkpt lat="42.71331" lon="1.64584">
        <ele>1603.945</ele>
        <time>2021-06-13T08:38:09Z</time>
      </trkpt>
      <trkpt lat="42.71331" lon="1.64584">
        <ele>1603.949</ele>
        <time>2021-06-13T08:38:11Z</time>
      </trkpt>
      <trkpt lat="42.71331" lon="1.64584">
        <ele>1603.951</ele>
        <time>2021-06-13T08:38:13Z</time>
      </trkpt>
      <trkpt lat="42.71331" lon="1.64584">
        <ele>1603.957</ele>
        <time>2021-06-13T08:38:15Z</time>
      </trkpt>
      <trkpt lat="42.71331" lon="1.64584">
        <ele>1603.96</ele>
        <time>2021-06-13T08:38:17Z</time>
      </trkpt>
      <trkpt lat="42.71331" lon="1.64584">
        <ele>1603.961</ele>
        <time>2021-06-13T08:38:19Z</time>
      </trkpt>
      <trkpt lat="42.71331" lon="1.64584">
        <ele>1603.96</ele>
        <time>2021-06-13T08:38:21Z</time>
      </trkpt>
      <trkpt lat="42.71331" lon="1.64584">
        <ele>1603.959</ele>
        <time>2021-06-13T08:38:23Z</time>
      </trkpt>
      <trkpt lat="42.71331" lon="1.64584">
        <ele>1603.79</ele>
        <time>2021-06-13T08:38:25Z</time>
      </trkpt>
      <trkpt lat="42.71331" lon="1.64584">
        <ele>1603.797</ele>
        <time>2021-06-13T08:38:27Z</time>
      </trkpt>
      <trkpt lat="42.71331" lon="1.64584">
        <ele>1603.798</ele>
        <time>2021-06-13T08:38:29Z</time>
      </trkpt>
      <trkpt lat="42.71331" lon="1.64584">
        <ele>1603.808</ele>
        <time>2021-06-13T08:38:31Z</time>
      </trkpt>
      <trkpt lat="42.71331" lon="1.64584">
        <ele>1603.817</ele>
        <time>2021-06-13T08:38:33Z</time>
      </trkpt>
      <trkpt lat="42.71331" lon="1.64584">
        <ele>1603.816</ele>
        <time>2021-06-13T08:38:35Z</time>
      </trkpt>
      <trkpt lat="42.71331" lon="1.64584">
        <ele>1603.822</ele>
        <time>2021-06-13T08:38:37Z</time>
      </trkpt>
      <trkpt lat="42.71331" lon="1.64584">
        <ele>1603.824</ele>
        <time>2021-06-13T08:38:39Z</time>
      </trkpt>
      <trkpt lat="42.71331" lon="1.64584">
        <ele>1603.828</ele>
        <time>2021-06-13T08:38:41Z</time>
      </trkpt>
      <trkpt lat="42.71331" lon="1.64584">
        <ele>1603.832</ele>
        <time>2021-06-13T08:38:43Z</time>
      </trkpt>
      <trkpt lat="42.71331" lon="1.64584">
        <ele>1603.835</ele>
        <time>2021-06-13T08:38:45Z</time>
      </trkpt>
      <trkpt lat="42.71331" lon="1.64584">
        <ele>1603.834</ele>
        <time>2021-06-13T08:38:47Z</time>
      </trkpt>
      <trkpt lat="42.71331" lon="1.64584">
        <ele>1603.83</ele>
        <time>2021-06-13T08:38:49Z</time>
      </trkpt>
      <trkpt lat="42.71331" lon="1.64584">
        <ele>1603.829</ele>
        <time>2021-06-13T08:38:51Z</time>
      </trkpt>
      <trkpt lat="42.71331" lon="1.64584">
        <ele>1603.828</ele>
        <time>2021-06-13T08:38:53Z</time>
      </trkpt>
      <trkpt lat="42.71331" lon="1.64584">
        <ele>1603.828</ele>
        <time>2021-06-13T08:38:55Z</time>
      </trkpt>
      <trkpt lat="42.71331" lon="1.64584">
        <ele>1603.828</ele>
        <time>2021-06-13T08:38:57Z</time>
      </trkpt>
      <trkpt lat="42.71331" lon="1.64584">
        <ele>1603.827</ele>
        <time>2021-06-13T08:38:59Z</time>
      </trkpt>
      <trkpt lat="42.71331" lon="1.64584">
        <ele>1603.828</ele>
        <time>2021-06-13T08:39:01Z</time>
      </trkpt>
      <trkpt lat="42.71331" lon="1.64584">
        <ele>1603.827</ele>
        <time>2021-06-13T08:39:03Z</time>
      </trkpt>
      <trkpt lat="42.71331" lon="1.64584">
        <ele>1603.825</ele>
        <time>2021-06-13T08:39:05Z</time>
      </trkpt>
      <trkpt lat="42.71331" lon="1.64584">
        <ele>1603.823</ele>
        <time>2021-06-13T08:39:07Z</time>
      </trkpt>
      <trkpt lat="42.71331" lon="1.64584">
        <ele>1603.822</ele>
        <time>2021-06-13T08:39:09Z</time>
      </trkpt>
      <trkpt lat="42.71331" lon="1.64584">
        <ele>1603.825</ele>
        <time>2021-06-13T08:39:11Z</time>
      </trkpt>
      <trkpt lat="42.71331" lon="1.64584">
        <ele>1603.832</ele>
        <time>2021-06-13T08:39:13Z</time>
      </trkpt>
      <trkpt lat="42.71331" lon="1.64583">
        <ele>1603.141</ele>
        <time>2021-06-13T08:39:15Z</time>
      </trkpt>
      <trkpt lat="42.71331" lon="1.64583">
        <ele>1604.482</ele>
        <time>2021-06-13T08:39:17Z</time>
      </trkpt>
      <trkpt lat="42.71331" lon="1.64582">
        <ele>1604.499</ele>
        <time>2021-06-13T08:39:19Z</time>
      </trkpt>
      <trkpt lat="42.71331" lon="1.64582">
        <ele>1604.506</ele>
        <time>2021-06-13T08:39:21Z</time>
      </trkpt>
      <trkpt lat="42.71331" lon="1.64582">
        <ele>1604.517</ele>
        <time>2021-06-13T08:39:23Z</time>
      </trkpt>
      <trkpt lat="42.71331" lon="1.64582">
        <ele>1604.527</ele>
        <time>2021-06-13T08:39:25Z</time>
      </trkpt>
      <trkpt lat="42.71331" lon="1.64582">
        <ele>1604.534</ele>
        <time>2021-06-13T08:39:27Z</time>
      </trkpt>
      <trkpt lat="42.71331" lon="1.64582">
        <ele>1604.54</ele>
        <time>2021-06-13T08:39:29Z</time>
      </trkpt>
      <trkpt lat="42.71331" lon="1.64582">
        <ele>1604.551</ele>
        <time>2021-06-13T08:39:31Z</time>
      </trkpt>
      <trkpt lat="42.71331" lon="1.64582">
        <ele>1604.559</ele>
        <time>2021-06-13T08:39:33Z</time>
      </trkpt>
      <trkpt lat="42.71331" lon="1.64582">
        <ele>1604.58</ele>
        <time>2021-06-13T08:39:35Z</time>
      </trkpt>
      <trkpt lat="42.71331" lon="1.64582">
        <ele>1604.583</ele>
        <time>2021-06-13T08:39:37Z</time>
      </trkpt>
      <trkpt lat="42.71331" lon="1.64581">
        <ele>1604.625</ele>
        <time>2021-06-13T08:39:39Z</time>
      </trkpt>
      <trkpt lat="42.71331" lon="1.64579">
        <ele>1603.772</ele>
        <time>2021-06-13T08:39:41Z</time>
      </trkpt>
      <trkpt lat="42.71331" lon="1.64577">
        <ele>1604.77</ele>
        <time>2021-06-13T08:39:43Z</time>
      </trkpt>
      <trkpt lat="42.71331" lon="1.64575">
        <ele>1605.509</ele>
        <time>2021-06-13T08:39:45Z</time>
      </trkpt>
      <trkpt lat="42.71332" lon="1.64574">
        <ele>1605.769</ele>
        <time>2021-06-13T08:39:47Z</time>
      </trkpt>
      <trkpt lat="42.71333" lon="1.64572">
        <ele>1606.021</ele>
        <time>2021-06-13T08:39:49Z</time>
      </trkpt>
      <trkpt lat="42.71335" lon="1.64571">
        <ele>1605.446</ele>
        <time>2021-06-13T08:39:51Z</time>
      </trkpt>
      <trkpt lat="42.71337" lon="1.64569">
        <ele>1605.194</ele>
        <time>2021-06-13T08:39:53Z</time>
      </trkpt>
      <trkpt lat="42.71338" lon="1.64566">
        <ele>1606.096</ele>
        <time>2021-06-13T08:39:55Z</time>
      </trkpt>
      <trkpt lat="42.7134" lon="1.64565">
        <ele>1608.081</ele>
        <time>2021-06-13T08:39:57Z</time>
      </trkpt>
      <trkpt lat="42.71342" lon="1.64563">
        <ele>1609.254</ele>
        <time>2021-06-13T08:39:59Z</time>
      </trkpt>
      <trkpt lat="42.71343" lon="1.64561">
        <ele>1609.932</ele>
        <time>2021-06-13T08:40:01Z</time>
      </trkpt>
      <trkpt lat="42.71345" lon="1.6456">
        <ele>1609.866</ele>
        <time>2021-06-13T08:40:03Z</time>
      </trkpt>
      <trkpt lat="42.71347" lon="1.64558">
        <ele>1610.074</ele>
        <time>2021-06-13T08:40:05Z</time>
      </trkpt>
      <trkpt lat="42.71348" lon="1.64556">
        <ele>1609.345</ele>
        <time>2021-06-13T08:40:07Z</time>
      </trkpt>
      <trkpt lat="42.71349" lon="1.64555">
        <ele>1609.072</ele>
        <time>2021-06-13T08:40:09Z</time>
      </trkpt>
      <trkpt lat="42.7135" lon="1.64552">
        <ele>1609.366</ele>
        <time>2021-06-13T08:40:11Z</time>
      </trkpt>
      <trkpt lat="42.7135" lon="1.6455">
        <ele>1609.519</ele>
        <time>2021-06-13T08:40:13Z</time>
      </trkpt>
      <trkpt lat="42.71351" lon="1.64547">
        <ele>1609.813</ele>
        <time>2021-06-13T08:40:15Z</time>
      </trkpt>
      <trkpt lat="42.71352" lon="1.64546">
        <ele>1610.67</ele>
        <time>2021-06-13T08:40:17Z</time>
      </trkpt>
      <trkpt lat="42.71352" lon="1.64544">
        <ele>1610.428</ele>
        <time>2021-06-13T08:40:19Z</time>
      </trkpt>
      <trkpt lat="42.71352" lon="1.64541">
        <ele>1610.631</ele>
        <time>2021-06-13T08:40:21Z</time>
      </trkpt>
      <trkpt lat="42.71352" lon="1.64539">
        <ele>1610.443</ele>
        <time>2021-06-13T08:40:23Z</time>
      </trkpt>
      <trkpt lat="42.71353" lon="1.64537">
        <ele>1611.516</ele>
        <time>2021-06-13T08:40:25Z</time>
      </trkpt>
      <trkpt lat="42.71353" lon="1.64536">
        <ele>1610.639</ele>
        <time>2021-06-13T08:40:27Z</time>
      </trkpt>
      <trkpt lat="42.71354" lon="1.64534">
        <ele>1610.851</ele>
        <time>2021-06-13T08:40:29Z</time>
      </trkpt>
      <trkpt lat="42.71354" lon="1.64532">
        <ele>1611.147</ele>
        <time>2021-06-13T08:40:31Z</time>
      </trkpt>
      <trkpt lat="42.71355" lon="1.64531">
        <ele>1610.117</ele>
        <time>2021-06-13T08:40:33Z</time>
      </trkpt>
      <trkpt lat="42.71356" lon="1.64529">
        <ele>1610.444</ele>
        <time>2021-06-13T08:40:35Z</time>
      </trkpt>
      <trkpt lat="42.71357" lon="1.64527">
        <ele>1612.166</ele>
        <time>2021-06-13T08:40:37Z</time>
      </trkpt>
      <trkpt lat="42.7136" lon="1.64526">
        <ele>1612.997</ele>
        <time>2021-06-13T08:40:39Z</time>
      </trkpt>
      <trkpt lat="42.7136" lon="1.64524">
        <ele>1612.796</ele>
        <time>2021-06-13T08:40:41Z</time>
      </trkpt>
      <trkpt lat="42.71361" lon="1.64523">
        <ele>1611.917</ele>
        <time>2021-06-13T08:40:43Z</time>
      </trkpt>
      <trkpt lat="42.71363" lon="1.64523">
        <ele>1612.337</ele>
        <time>2021-06-13T08:40:45Z</time>
      </trkpt>
      <trkpt lat="42.71365" lon="1.64524">
        <ele>1613.353</ele>
        <time>2021-06-13T08:40:47Z</time>
      </trkpt>
      <trkpt lat="42.71367" lon="1.64525">
        <ele>1613.75</ele>
        <time>2021-06-13T08:40:49Z</time>
      </trkpt>
      <trkpt lat="42.71368" lon="1.64526">
        <ele>1615.348</ele>
        <time>2021-06-13T08:40:51Z</time>
      </trkpt>
      <trkpt lat="42.7137" lon="1.64527">
        <ele>1616.443</ele>
        <time>2021-06-13T08:40:53Z</time>
      </trkpt>
      <trkpt lat="42.71373" lon="1.64529">
        <ele>1617.179</ele>
        <time>2021-06-13T08:40:55Z</time>
      </trkpt>
      <trkpt lat="42.71374" lon="1.64528">
        <ele>1617.929</ele>
        <time>2021-06-13T08:40:57Z</time>
      </trkpt>
      <trkpt lat="42.71376" lon="1.64528">
        <ele>1617.131</ele>
        <time>2021-06-13T08:40:59Z</time>
      </trkpt>
      <trkpt lat="42.71378" lon="1.64529">
        <ele>1616.595</ele>
        <time>2021-06-13T08:41:01Z</time>
      </trkpt>
      <trkpt lat="42.7138" lon="1.64529">
        <ele>1616.916</ele>
        <time>2021-06-13T08:41:03Z</time>
      </trkpt>
      <trkpt lat="42.71382" lon="1.64528">
        <ele>1616.555</ele>
        <time>2021-06-13T08:41:05Z</time>
      </trkpt>
      <trkpt lat="42.71384" lon="1.64527">
        <ele>1617.245</ele>
        <time>2021-06-13T08:41:07Z</time>
      </trkpt>
      <trkpt lat="42.71386" lon="1.64526">
        <ele>1616.657</ele>
        <time>2021-06-13T08:41:09Z</time>
      </trkpt>
      <trkpt lat="42.71388" lon="1.64525">
        <ele>1615.924</ele>
        <time>2021-06-13T08:41:11Z</time>
      </trkpt>
      <trkpt lat="42.71389" lon="1.64524">
        <ele>1614.765</ele>
        <time>2021-06-13T08:41:13Z</time>
      </trkpt>
      <trkpt lat="42.71389" lon="1.64524">
        <ele>1614.295</ele>
        <time>2021-06-13T08:41:15Z</time>
      </trkpt>
      <trkpt lat="42.71391" lon="1.64525">
        <ele>1613.814</ele>
        <time>2021-06-13T08:41:17Z</time>
      </trkpt>
      <trkpt lat="42.71391" lon="1.64526">
        <ele>1613.066</ele>
        <time>2021-06-13T08:41:19Z</time>
      </trkpt>
      <trkpt lat="42.71391" lon="1.64527">
        <ele>1612.803</ele>
        <time>2021-06-13T08:41:21Z</time>
      </trkpt>
      <trkpt lat="42.71392" lon="1.64528">
        <ele>1612.463</ele>
        <time>2021-06-13T08:41:23Z</time>
      </trkpt>
      <trkpt lat="42.71393" lon="1.64529">
        <ele>1612.243</ele>
        <time>2021-06-13T08:41:25Z</time>
      </trkpt>
      <trkpt lat="42.71393" lon="1.6453">
        <ele>1612.431</ele>
        <time>2021-06-13T08:41:27Z</time>
      </trkpt>
      <trkpt lat="42.71393" lon="1.64531">
        <ele>1612.217</ele>
        <time>2021-06-13T08:41:29Z</time>
      </trkpt>
      <trkpt lat="42.71394" lon="1.64531">
        <ele>1611.627</ele>
        <time>2021-06-13T08:41:31Z</time>
      </trkpt>
      <trkpt lat="42.71395" lon="1.64531">
        <ele>1613.045</ele>
        <time>2021-06-13T08:41:33Z</time>
      </trkpt>
      <trkpt lat="42.71397" lon="1.64532">
        <ele>1613.317</ele>
        <time>2021-06-13T08:41:35Z</time>
      </trkpt>
      <trkpt lat="42.71399" lon="1.64533">
        <ele>1614.539</ele>
        <time>2021-06-13T08:41:37Z</time>
      </trkpt>
      <trkpt lat="42.714" lon="1.64534">
        <ele>1615.603</ele>
        <time>2021-06-13T08:41:39Z</time>
      </trkpt>
      <trkpt lat="42.71402" lon="1.64536">
        <ele>1616.906</ele>
        <time>2021-06-13T08:41:41Z</time>
      </trkpt>
      <trkpt lat="42.71404" lon="1.64537">
        <ele>1616.592</ele>
        <time>2021-06-13T08:41:43Z</time>
      </trkpt>
      <trkpt lat="42.71406" lon="1.64537">
        <ele>1617.434</ele>
        <time>2021-06-13T08:41:45Z</time>
      </trkpt>
      <trkpt lat="42.71408" lon="1.64538">
        <ele>1618.856</ele>
        <time>2021-06-13T08:41:47Z</time>
      </trkpt>
      <trkpt lat="42.71409" lon="1.64538">
        <ele>1620.197</ele>
        <time>2021-06-13T08:41:49Z</time>
      </trkpt>
      <trkpt lat="42.7141" lon="1.64539">
        <ele>1620.792</ele>
        <time>2021-06-13T08:41:51Z</time>
      </trkpt>
      <trkpt lat="42.71413" lon="1.6454">
        <ele>1620.736</ele>
        <time>2021-06-13T08:41:53Z</time>
      </trkpt>
      <trkpt lat="42.71414" lon="1.64541">
        <ele>1621.116</ele>
        <time>2021-06-13T08:41:55Z</time>
      </trkpt>
      <trkpt lat="42.71415" lon="1.64542">
        <ele>1621.139</ele>
        <time>2021-06-13T08:41:57Z</time>
      </trkpt>
      <trkpt lat="42.71417" lon="1.64544">
        <ele>1621.285</ele>
        <time>2021-06-13T08:41:59Z</time>
      </trkpt>
      <trkpt lat="42.71418" lon="1.64546">
        <ele>1621.87</ele>
        <time>2021-06-13T08:42:01Z</time>
      </trkpt>
      <trkpt lat="42.71419" lon="1.64548">
        <ele>1622.851</ele>
        <time>2021-06-13T08:42:03Z</time>
      </trkpt>
      <trkpt lat="42.71419" lon="1.6455">
        <ele>1623.396</ele>
        <time>2021-06-13T08:42:05Z</time>
      </trkpt>
      <trkpt lat="42.7142" lon="1.64551">
        <ele>1623.724</ele>
        <time>2021-06-13T08:42:07Z</time>
      </trkpt>
      <trkpt lat="42.71421" lon="1.64551">
        <ele>1624.447</ele>
        <time>2021-06-13T08:42:09Z</time>
      </trkpt>
      <trkpt lat="42.71422" lon="1.64551">
        <ele>1625.144</ele>
        <time>2021-06-13T08:42:11Z</time>
      </trkpt>
      <trkpt lat="42.71423" lon="1.64551">
        <ele>1628.196</ele>
        <time>2021-06-13T08:42:13Z</time>
      </trkpt>
      <trkpt lat="42.71425" lon="1.64552">
        <ele>1629.523</ele>
        <time>2021-06-13T08:42:15Z</time>
      </trkpt>
      <trkpt lat="42.71427" lon="1.64552">
        <ele>1629.588</ele>
        <time>2021-06-13T08:42:17Z</time>
      </trkpt>
      <trkpt lat="42.71428" lon="1.64552">
        <ele>1630.846</ele>
        <time>2021-06-13T08:42:19Z</time>
      </trkpt>
      <trkpt lat="42.71429" lon="1.64553">
        <ele>1631.53</ele>
        <time>2021-06-13T08:42:21Z</time>
      </trkpt>
      <trkpt lat="42.71429" lon="1.64554">
        <ele>1631.794</ele>
        <time>2021-06-13T08:42:23Z</time>
      </trkpt>
      <trkpt lat="42.7143" lon="1.64553">
        <ele>1632.318</ele>
        <time>2021-06-13T08:42:25Z</time>
      </trkpt>
      <trkpt lat="42.71431" lon="1.64553">
        <ele>1633.4</ele>
        <time>2021-06-13T08:42:27Z</time>
      </trkpt>
      <trkpt lat="42.71431" lon="1.64553">
        <ele>1633.661</ele>
        <time>2021-06-13T08:42:29Z</time>
      </trkpt>
      <trkpt lat="42.71433" lon="1.64553">
        <ele>1632.81</ele>
        <time>2021-06-13T08:42:31Z</time>
      </trkpt>
      <trkpt lat="42.71435" lon="1.64554">
        <ele>1632.182</ele>
        <time>2021-06-13T08:42:33Z</time>
      </trkpt>
      <trkpt lat="42.71436" lon="1.64555">
        <ele>1631.067</ele>
        <time>2021-06-13T08:42:35Z</time>
      </trkpt>
      <trkpt lat="42.71437" lon="1.64557">
        <ele>1630.513</ele>
        <time>2021-06-13T08:42:37Z</time>
      </trkpt>
      <trkpt lat="42.71439" lon="1.64558">
        <ele>1630.554</ele>
        <time>2021-06-13T08:42:39Z</time>
      </trkpt>
      <trkpt lat="42.71439" lon="1.64559">
        <ele>1630.459</ele>
        <time>2021-06-13T08:42:41Z</time>
      </trkpt>
      <trkpt lat="42.7144" lon="1.64561">
        <ele>1629.763</ele>
        <time>2021-06-13T08:42:43Z</time>
      </trkpt>
      <trkpt lat="42.71441" lon="1.64562">
        <ele>1630.414</ele>
        <time>2021-06-13T08:42:45Z</time>
      </trkpt>
      <trkpt lat="42.71442" lon="1.64564">
        <ele>1629.538</ele>
        <time>2021-06-13T08:42:47Z</time>
      </trkpt>
      <trkpt lat="42.71443" lon="1.64566">
        <ele>1629.726</ele>
        <time>2021-06-13T08:42:49Z</time>
      </trkpt>
      <trkpt lat="42.71444" lon="1.64567">
        <ele>1628.803</ele>
        <time>2021-06-13T08:42:51Z</time>
      </trkpt>
      <trkpt lat="42.71446" lon="1.64568">
        <ele>1629.892</ele>
        <time>2021-06-13T08:42:53Z</time>
      </trkpt>
      <trkpt lat="42.71447" lon="1.64568">
        <ele>1631.367</ele>
        <time>2021-06-13T08:42:55Z</time>
      </trkpt>
      <trkpt lat="42.71447" lon="1.64569">
        <ele>1633.106</ele>
        <time>2021-06-13T08:42:57Z</time>
      </trkpt>
      <trkpt lat="42.71447" lon="1.6457">
        <ele>1633.753</ele>
        <time>2021-06-13T08:42:59Z</time>
      </trkpt>
      <trkpt lat="42.71448" lon="1.64571">
        <ele>1634.012</ele>
        <time>2021-06-13T08:43:01Z</time>
      </trkpt>
      <trkpt lat="42.71448" lon="1.64571">
        <ele>1634.254</ele>
        <time>2021-06-13T08:43:03Z</time>
      </trkpt>
      <trkpt lat="42.7145" lon="1.64572">
        <ele>1635.286</ele>
        <time>2021-06-13T08:43:05Z</time>
      </trkpt>
      <trkpt lat="42.71451" lon="1.64572">
        <ele>1635.279</ele>
        <time>2021-06-13T08:43:07Z</time>
      </trkpt>
      <trkpt lat="42.71451" lon="1.64572">
        <ele>1635.329</ele>
        <time>2021-06-13T08:43:09Z</time>
      </trkpt>
      <trkpt lat="42.71452" lon="1.64573">
        <ele>1636.575</ele>
        <time>2021-06-13T08:43:11Z</time>
      </trkpt>
      <trkpt lat="42.71453" lon="1.64573">
        <ele>1636.377</ele>
        <time>2021-06-13T08:43:13Z</time>
      </trkpt>
      <trkpt lat="42.71454" lon="1.64573">
        <ele>1635.401</ele>
        <time>2021-06-13T08:43:15Z</time>
      </trkpt>
      <trkpt lat="42.71455" lon="1.64574">
        <ele>1633.92</ele>
        <time>2021-06-13T08:43:17Z</time>
      </trkpt>
      <trkpt lat="42.71455" lon="1.64575">
        <ele>1634.154</ele>
        <time>2021-06-13T08:43:19Z</time>
      </trkpt>
      <trkpt lat="42.71456" lon="1.64576">
        <ele>1634.184</ele>
        <time>2021-06-13T08:43:21Z</time>
      </trkpt>
      <trkpt lat="42.71456" lon="1.64577">
        <ele>1635.218</ele>
        <time>2021-06-13T08:43:23Z</time>
      </trkpt>
      <trkpt lat="42.71457" lon="1.64578">
        <ele>1636.688</ele>
        <time>2021-06-13T08:43:25Z</time>
      </trkpt>
      <trkpt lat="42.71458" lon="1.6458">
        <ele>1637.703</ele>
        <time>2021-06-13T08:43:27Z</time>
      </trkpt>
      <trkpt lat="42.71459" lon="1.64581">
        <ele>1638.692</ele>
        <time>2021-06-13T08:43:29Z</time>
      </trkpt>
      <trkpt lat="42.71459" lon="1.64582">
        <ele>1638.541</ele>
        <time>2021-06-13T08:43:31Z</time>
      </trkpt>
      <trkpt lat="42.7146" lon="1.64583">
        <ele>1639.381</ele>
        <time>2021-06-13T08:43:33Z</time>
      </trkpt>
      <trkpt lat="42.7146" lon="1.64584">
        <ele>1640.107</ele>
        <time>2021-06-13T08:43:35Z</time>
      </trkpt>
      <trkpt lat="42.71461" lon="1.64586">
        <ele>1640.927</ele>
        <time>2021-06-13T08:43:37Z</time>
      </trkpt>
      <trkpt lat="42.71462" lon="1.64586">
        <ele>1641.097</ele>
        <time>2021-06-13T08:43:39Z</time>
      </trkpt>
      <trkpt lat="42.71462" lon="1.64586">
        <ele>1642.019</ele>
        <time>2021-06-13T08:43:41Z</time>
      </trkpt>
      <trkpt lat="42.71463" lon="1.64586">
        <ele>1643.122</ele>
        <time>2021-06-13T08:43:43Z</time>
      </trkpt>
      <trkpt lat="42.71464" lon="1.64587">
        <ele>1644.309</ele>
        <time>2021-06-13T08:43:45Z</time>
      </trkpt>
      <trkpt lat="42.71465" lon="1.64587">
        <ele>1645.24</ele>
        <time>2021-06-13T08:43:47Z</time>
      </trkpt>
      <trkpt lat="42.71465" lon="1.64589">
        <ele>1644.714</ele>
        <time>2021-06-13T08:43:49Z</time>
      </trkpt>
      <trkpt lat="42.71466" lon="1.6459">
        <ele>1644.651</ele>
        <time>2021-06-13T08:43:51Z</time>
      </trkpt>
      <trkpt lat="42.71466" lon="1.64592">
        <ele>1644.261</ele>
        <time>2021-06-13T08:43:53Z</time>
      </trkpt>
      <trkpt lat="42.71467" lon="1.64593">
        <ele>1645.624</ele>
        <time>2021-06-13T08:43:55Z</time>
      </trkpt>
      <trkpt lat="42.71468" lon="1.64593">
        <ele>1647.305</ele>
        <time>2021-06-13T08:43:57Z</time>
      </trkpt>
      <trkpt lat="42.71469" lon="1.64594">
        <ele>1648.297</ele>
        <time>2021-06-13T08:43:59Z</time>
      </trkpt>
      <trkpt lat="42.7147" lon="1.64595">
        <ele>1648.958</ele>
        <time>2021-06-13T08:44:01Z</time>
      </trkpt>
      <trkpt lat="42.71472" lon="1.64596">
        <ele>1649.453</ele>
        <time>2021-06-13T08:44:03Z</time>
      </trkpt>
      <trkpt lat="42.71473" lon="1.64597">
        <ele>1648.994</ele>
        <time>2021-06-13T08:44:05Z</time>
      </trkpt>
      <trkpt lat="42.71474" lon="1.64597">
        <ele>1648.463</ele>
        <time>2021-06-13T08:44:07Z</time>
      </trkpt>
      <trkpt lat="42.71476" lon="1.64597">
        <ele>1648.414</ele>
        <time>2021-06-13T08:44:09Z</time>
      </trkpt>
      <trkpt lat="42.71477" lon="1.64599">
        <ele>1649.16</ele>
        <time>2021-06-13T08:44:11Z</time>
      </trkpt>
      <trkpt lat="42.71477" lon="1.64599">
        <ele>1649.029</ele>
        <time>2021-06-13T08:44:13Z</time>
      </trkpt>
      <trkpt lat="42.71478" lon="1.64601">
        <ele>1649.638</ele>
        <time>2021-06-13T08:44:15Z</time>
      </trkpt>
      <trkpt lat="42.71479" lon="1.64602">
        <ele>1650.398</ele>
        <time>2021-06-13T08:44:17Z</time>
      </trkpt>
      <trkpt lat="42.71479" lon="1.64603">
        <ele>1650.342</ele>
        <time>2021-06-13T08:44:19Z</time>
      </trkpt>
      <trkpt lat="42.71479" lon="1.64603">
        <ele>1649.498</ele>
        <time>2021-06-13T08:44:21Z</time>
      </trkpt>
      <trkpt lat="42.71478" lon="1.64603">
        <ele>1649.418</ele>
        <time>2021-06-13T08:44:23Z</time>
      </trkpt>
      <trkpt lat="42.71476" lon="1.64604">
        <ele>1650.135</ele>
        <time>2021-06-13T08:44:25Z</time>
      </trkpt>
      <trkpt lat="42.71477" lon="1.64606">
        <ele>1648.096</ele>
        <time>2021-06-13T08:44:27Z</time>
      </trkpt>
      <trkpt lat="42.71478" lon="1.64608">
        <ele>1648.007</ele>
        <time>2021-06-13T08:44:29Z</time>
      </trkpt>
      <trkpt lat="42.71479" lon="1.6461">
        <ele>1649.193</ele>
        <time>2021-06-13T08:44:31Z</time>
      </trkpt>
      <trkpt lat="42.7148" lon="1.64611">
        <ele>1649.627</ele>
        <time>2021-06-13T08:44:33Z</time>
      </trkpt>
      <trkpt lat="42.71481" lon="1.64613">
        <ele>1649.815</ele>
        <time>2021-06-13T08:44:35Z</time>
      </trkpt>
      <trkpt lat="42.71482" lon="1.64615">
        <ele>1649.657</ele>
        <time>2021-06-13T08:44:37Z</time>
      </trkpt>
      <trkpt lat="42.71483" lon="1.64616">
        <ele>1650.123</ele>
        <time>2021-06-13T08:44:39Z</time>
      </trkpt>
      <trkpt lat="42.71483" lon="1.64616">
        <ele>1649.857</ele>
        <time>2021-06-13T08:44:41Z</time>
      </trkpt>
      <trkpt lat="42.71484" lon="1.64616">
        <ele>1650.886</ele>
        <time>2021-06-13T08:44:43Z</time>
      </trkpt>
      <trkpt lat="42.71485" lon="1.64615">
        <ele>1649.884</ele>
        <time>2021-06-13T08:44:45Z</time>
      </trkpt>
      <trkpt lat="42.71485" lon="1.64615">
        <ele>1650.48</ele>
        <time>2021-06-13T08:44:47Z</time>
      </trkpt>
      <trkpt lat="42.71487" lon="1.64615">
        <ele>1651.614</ele>
        <time>2021-06-13T08:44:49Z</time>
      </trkpt>
      <trkpt lat="42.71488" lon="1.64616">
        <ele>1651.399</ele>
        <time>2021-06-13T08:44:51Z</time>
      </trkpt>
      <trkpt lat="42.71489" lon="1.64617">
        <ele>1652.225</ele>
        <time>2021-06-13T08:44:53Z</time>
      </trkpt>
      <trkpt lat="42.7149" lon="1.64617">
        <ele>1652.019</ele>
        <time>2021-06-13T08:44:55Z</time>
      </trkpt>
      <trkpt lat="42.71491" lon="1.64619">
        <ele>1652.525</ele>
        <time>2021-06-13T08:44:57Z</time>
      </trkpt>
      <trkpt lat="42.71492" lon="1.64621">
        <ele>1653.468</ele>
        <time>2021-06-13T08:44:59Z</time>
      </trkpt>
      <trkpt lat="42.71493" lon="1.64623">
        <ele>1652.899</ele>
        <time>2021-06-13T08:45:01Z</time>
      </trkpt>
      <trkpt lat="42.71494" lon="1.64624">
        <ele>1655.31</ele>
        <time>2021-06-13T08:45:03Z</time>
      </trkpt>
      <trkpt lat="42.71495" lon="1.64626">
        <ele>1655.143</ele>
        <time>2021-06-13T08:45:05Z</time>
      </trkpt>
      <trkpt lat="42.71496" lon="1.64628">
        <ele>1654.159</ele>
        <time>2021-06-13T08:45:07Z</time>
      </trkpt>
      <trkpt lat="42.71497" lon="1.6463">
        <ele>1654.262</ele>
        <time>2021-06-13T08:45:09Z</time>
      </trkpt>
      <trkpt lat="42.71497" lon="1.64632">
        <ele>1654.04</ele>
        <time>2021-06-13T08:45:11Z</time>
      </trkpt>
      <trkpt lat="42.71498" lon="1.64634">
        <ele>1654.264</ele>
        <time>2021-06-13T08:45:13Z</time>
      </trkpt>
      <trkpt lat="42.71499" lon="1.64635">
        <ele>1654.548</ele>
        <time>2021-06-13T08:45:15Z</time>
      </trkpt>
      <trkpt lat="42.715" lon="1.64636">
        <ele>1656.432</ele>
        <time>2021-06-13T08:45:17Z</time>
      </trkpt>
      <trkpt lat="42.71501" lon="1.64637">
        <ele>1657.101</ele>
        <time>2021-06-13T08:45:19Z</time>
      </trkpt>
      <trkpt lat="42.71502" lon="1.64639">
        <ele>1658.591</ele>
        <time>2021-06-13T08:45:21Z</time>
      </trkpt>
      <trkpt lat="42.71503" lon="1.64639">
        <ele>1658.956</ele>
        <time>2021-06-13T08:45:23Z</time>
      </trkpt>
      <trkpt lat="42.71503" lon="1.6464">
        <ele>1659.648</ele>
        <time>2021-06-13T08:45:25Z</time>
      </trkpt>
      <trkpt lat="42.71504" lon="1.64641">
        <ele>1660.555</ele>
        <time>2021-06-13T08:45:27Z</time>
      </trkpt>
      <trkpt lat="42.71505" lon="1.64641">
        <ele>1660.711</ele>
        <time>2021-06-13T08:45:29Z</time>
      </trkpt>
      <trkpt lat="42.71507" lon="1.64642">
        <ele>1660.837</ele>
        <time>2021-06-13T08:45:31Z</time>
      </trkpt>
      <trkpt lat="42.71507" lon="1.64643">
        <ele>1660.797</ele>
        <time>2021-06-13T08:45:33Z</time>
      </trkpt>
      <trkpt lat="42.71508" lon="1.64643">
        <ele>1660.779</ele>
        <time>2021-06-13T08:45:35Z</time>
      </trkpt>
      <trkpt lat="42.71509" lon="1.64644">
        <ele>1660.443</ele>
        <time>2021-06-13T08:45:37Z</time>
      </trkpt>
      <trkpt lat="42.71509" lon="1.64646">
        <ele>1659.605</ele>
        <time>2021-06-13T08:45:39Z</time>
      </trkpt>
      <trkpt lat="42.7151" lon="1.64647">
        <ele>1659.294</ele>
        <time>2021-06-13T08:45:41Z</time>
      </trkpt>
      <trkpt lat="42.71511" lon="1.64648">
        <ele>1659.221</ele>
        <time>2021-06-13T08:45:43Z</time>
      </trkpt>
      <trkpt lat="42.71512" lon="1.64649">
        <ele>1659.458</ele>
        <time>2021-06-13T08:45:45Z</time>
      </trkpt>
      <trkpt lat="42.71513" lon="1.6465">
        <ele>1659.919</ele>
        <time>2021-06-13T08:45:47Z</time>
      </trkpt>
      <trkpt lat="42.71513" lon="1.64652">
        <ele>1660.819</ele>
        <time>2021-06-13T08:45:49Z</time>
      </trkpt>
      <trkpt lat="42.71514" lon="1.64653">
        <ele>1661.356</ele>
        <time>2021-06-13T08:45:51Z</time>
      </trkpt>
      <trkpt lat="42.71516" lon="1.64654">
        <ele>1661.958</ele>
        <time>2021-06-13T08:45:53Z</time>
      </trkpt>
      <trkpt lat="42.71517" lon="1.64655">
        <ele>1662.324</ele>
        <time>2021-06-13T08:45:55Z</time>
      </trkpt>
      <trkpt lat="42.71519" lon="1.64656">
        <ele>1663.89</ele>
        <time>2021-06-13T08:45:57Z</time>
      </trkpt>
      <trkpt lat="42.7152" lon="1.64657">
        <ele>1664.107</ele>
        <time>2021-06-13T08:45:59Z</time>
      </trkpt>
      <trkpt lat="42.71521" lon="1.64658">
        <ele>1664.816</ele>
        <time>2021-06-13T08:46:01Z</time>
      </trkpt>
      <trkpt lat="42.71522" lon="1.64658">
        <ele>1665.149</ele>
        <time>2021-06-13T08:46:03Z</time>
      </trkpt>
      <trkpt lat="42.71523" lon="1.64659">
        <ele>1664.733</ele>
        <time>2021-06-13T08:46:05Z</time>
      </trkpt>
      <trkpt lat="42.71523" lon="1.64659">
        <ele>1665.133</ele>
        <time>2021-06-13T08:46:07Z</time>
      </trkpt>
      <trkpt lat="42.71525" lon="1.6466">
        <ele>1665.527</ele>
        <time>2021-06-13T08:46:09Z</time>
      </trkpt>
      <trkpt lat="42.71526" lon="1.64661">
        <ele>1666.07</ele>
        <time>2021-06-13T08:46:11Z</time>
      </trkpt>
      <trkpt lat="42.71527" lon="1.64662">
        <ele>1665.494</ele>
        <time>2021-06-13T08:46:13Z</time>
      </trkpt>
      <trkpt lat="42.71529" lon="1.64662">
        <ele>1666.316</ele>
        <time>2021-06-13T08:46:15Z</time>
      </trkpt>
      <trkpt lat="42.7153" lon="1.64662">
        <ele>1666.399</ele>
        <time>2021-06-13T08:46:17Z</time>
      </trkpt>
      <trkpt lat="42.71531" lon="1.64661">
        <ele>1666.633</ele>
        <time>2021-06-13T08:46:19Z</time>
      </trkpt>
      <trkpt lat="42.71532" lon="1.6466">
        <ele>1666.995</ele>
        <time>2021-06-13T08:46:21Z</time>
      </trkpt>
      <trkpt lat="42.71533" lon="1.64661">
        <ele>1668.049</ele>
        <time>2021-06-13T08:46:23Z</time>
      </trkpt>
      <trkpt lat="42.71534" lon="1.64661">
        <ele>1668.051</ele>
        <time>2021-06-13T08:46:25Z</time>
      </trkpt>
      <trkpt lat="42.71535" lon="1.64662">
        <ele>1668.145</ele>
        <time>2021-06-13T08:46:27Z</time>
      </trkpt>
      <trkpt lat="42.71536" lon="1.64664">
        <ele>1668.168</ele>
        <time>2021-06-13T08:46:29Z</time>
      </trkpt>
      <trkpt lat="42.71537" lon="1.64666">
        <ele>1668.384</ele>
        <time>2021-06-13T08:46:31Z</time>
      </trkpt>
      <trkpt lat="42.71538" lon="1.64667">
        <ele>1668.88</ele>
        <time>2021-06-13T08:46:33Z</time>
      </trkpt>
      <trkpt lat="42.7154" lon="1.64667">
        <ele>1669.572</ele>
        <time>2021-06-13T08:46:35Z</time>
      </trkpt>
      <trkpt lat="42.71541" lon="1.64667">
        <ele>1669.999</ele>
        <time>2021-06-13T08:46:37Z</time>
      </trkpt>
      <trkpt lat="42.71542" lon="1.64668">
        <ele>1669.924</ele>
        <time>2021-06-13T08:46:39Z</time>
      </trkpt>
      <trkpt lat="42.71543" lon="1.64668">
        <ele>1669.675</ele>
        <time>2021-06-13T08:46:41Z</time>
      </trkpt>
      <trkpt lat="42.71544" lon="1.64668">
        <ele>1670.737</ele>
        <time>2021-06-13T08:46:43Z</time>
      </trkpt>
      <trkpt lat="42.71545" lon="1.64669">
        <ele>1671.638</ele>
        <time>2021-06-13T08:46:45Z</time>
      </trkpt>
      <trkpt lat="42.71549" lon="1.64674">
        <ele>1673.598</ele>
        <time>2021-06-13T08:46:52Z</time>
      </trkpt>
      <trkpt lat="42.7155" lon="1.64675">
        <ele>1674.671</ele>
        <time>2021-06-13T08:46:54Z</time>
      </trkpt>
      <trkpt lat="42.71551" lon="1.64676">
        <ele>1674.708</ele>
        <time>2021-06-13T08:46:56Z</time>
      </trkpt>
      <trkpt lat="42.71551" lon="1.64676">
        <ele>1674.807</ele>
        <time>2021-06-13T08:46:58Z</time>
      </trkpt>
      <trkpt lat="42.71551" lon="1.64676">
        <ele>1674.804</ele>
        <time>2021-06-13T08:47:00Z</time>
      </trkpt>
      <trkpt lat="42.71551" lon="1.64676">
        <ele>1674.803</ele>
        <time>2021-06-13T08:47:02Z</time>
      </trkpt>
      <trkpt lat="42.71551" lon="1.64676">
        <ele>1674.809</ele>
        <time>2021-06-13T08:47:04Z</time>
      </trkpt>
      <trkpt lat="42.71551" lon="1.64676">
        <ele>1674.809</ele>
        <time>2021-06-13T08:47:06Z</time>
      </trkpt>
      <trkpt lat="42.71551" lon="1.64676">
        <ele>1674.81</ele>
        <time>2021-06-13T08:47:08Z</time>
      </trkpt>
      <trkpt lat="42.71551" lon="1.64676">
        <ele>1674.903</ele>
        <time>2021-06-13T08:47:10Z</time>
      </trkpt>
      <trkpt lat="42.71551" lon="1.64676">
        <ele>1674.9</ele>
        <time>2021-06-13T08:47:12Z</time>
      </trkpt>
      <trkpt lat="42.71551" lon="1.64676">
        <ele>1674.9</ele>
        <time>2021-06-13T08:47:14Z</time>
      </trkpt>
      <trkpt lat="42.71551" lon="1.64676">
        <ele>1674.9</ele>
        <time>2021-06-13T08:47:16Z</time>
      </trkpt>
      <trkpt lat="42.71551" lon="1.64676">
        <ele>1674.9</ele>
        <time>2021-06-13T08:47:18Z</time>
      </trkpt>
      <trkpt lat="42.71551" lon="1.64676">
        <ele>1674.902</ele>
        <time>2021-06-13T08:47:20Z</time>
      </trkpt>
      <trkpt lat="42.71551" lon="1.64676">
        <ele>1674.902</ele>
        <time>2021-06-13T08:47:22Z</time>
      </trkpt>
      <trkpt lat="42.71551" lon="1.64676">
        <ele>1674.901</ele>
        <time>2021-06-13T08:47:24Z</time>
      </trkpt>
      <trkpt lat="42.71551" lon="1.64676">
        <ele>1674.902</ele>
        <time>2021-06-13T08:47:25Z</time>
      </trkpt>
      <trkpt lat="42.71551" lon="1.64676">
        <ele>1674.901</ele>
        <time>2021-06-13T08:47:28Z</time>
      </trkpt>
      <trkpt lat="42.71551" lon="1.64676">
        <ele>1674.998</ele>
        <time>2021-06-13T08:47:30Z</time>
      </trkpt>
      <trkpt lat="42.71553" lon="1.64677">
        <ele>1675.438</ele>
        <time>2021-06-13T08:47:36Z</time>
      </trkpt>
      <trkpt lat="42.71553" lon="1.64677">
        <ele>1675.448</ele>
        <time>2021-06-13T08:47:38Z</time>
      </trkpt>
      <trkpt lat="42.71553" lon="1.64677">
        <ele>1675.453</ele>
        <time>2021-06-13T08:47:40Z</time>
      </trkpt>
      <trkpt lat="42.71553" lon="1.64677">
        <ele>1675.459</ele>
        <time>2021-06-13T08:47:42Z</time>
      </trkpt>
      <trkpt lat="42.71553" lon="1.64677">
        <ele>1675.463</ele>
        <time>2021-06-13T08:47:44Z</time>
      </trkpt>
      <trkpt lat="42.71553" lon="1.64677">
        <ele>1675.466</ele>
        <time>2021-06-13T08:47:46Z</time>
      </trkpt>
      <trkpt lat="42.71553" lon="1.64677">
        <ele>1675.766</ele>
        <time>2021-06-13T08:47:48Z</time>
      </trkpt>
      <trkpt lat="42.71553" lon="1.64677">
        <ele>1675.776</ele>
        <time>2021-06-13T08:47:50Z</time>
      </trkpt>
      <trkpt lat="42.71553" lon="1.64677">
        <ele>1675.775</ele>
        <time>2021-06-13T08:47:52Z</time>
      </trkpt>
      <trkpt lat="42.71553" lon="1.64677">
        <ele>1675.774</ele>
        <time>2021-06-13T08:47:54Z</time>
      </trkpt>
      <trkpt lat="42.71553" lon="1.64677">
        <ele>1675.776</ele>
        <time>2021-06-13T08:47:56Z</time>
      </trkpt>
      <trkpt lat="42.71553" lon="1.64677">
        <ele>1675.778</ele>
        <time>2021-06-13T08:47:58Z</time>
      </trkpt>
      <trkpt lat="42.71553" lon="1.64677">
        <ele>1675.779</ele>
        <time>2021-06-13T08:48:00Z</time>
      </trkpt>
      <trkpt lat="42.71553" lon="1.64677">
        <ele>1675.779</ele>
        <time>2021-06-13T08:48:02Z</time>
      </trkpt>
      <trkpt lat="42.71553" lon="1.64677">
        <ele>1675.779</ele>
        <time>2021-06-13T08:48:04Z</time>
      </trkpt>
      <trkpt lat="42.71553" lon="1.64677">
        <ele>1675.782</ele>
        <time>2021-06-13T08:48:06Z</time>
      </trkpt>
      <trkpt lat="42.71553" lon="1.64677">
        <ele>1675.78</ele>
        <time>2021-06-13T08:48:08Z</time>
      </trkpt>
      <trkpt lat="42.71553" lon="1.64677">
        <ele>1675.78</ele>
        <time>2021-06-13T08:48:09Z</time>
      </trkpt>
      <trkpt lat="42.71553" lon="1.64677">
        <ele>1675.78</ele>
        <time>2021-06-13T08:48:21Z</time>
      </trkpt>
      <trkpt lat="42.71553" lon="1.64677">
        <ele>1675.779</ele>
        <time>2021-06-13T08:48:23Z</time>
      </trkpt>
      <trkpt lat="42.71553" lon="1.64677">
        <ele>1675.78</ele>
        <time>2021-06-13T08:48:25Z</time>
      </trkpt>
      <trkpt lat="42.71553" lon="1.64677">
        <ele>1675.78</ele>
        <time>2021-06-13T08:48:27Z</time>
      </trkpt>
      <trkpt lat="42.71553" lon="1.64677">
        <ele>1675.781</ele>
        <time>2021-06-13T08:48:29Z</time>
      </trkpt>
      <trkpt lat="42.71553" lon="1.64677">
        <ele>1675.782</ele>
        <time>2021-06-13T08:48:31Z</time>
      </trkpt>
      <trkpt lat="42.71553" lon="1.64677">
        <ele>1675.783</ele>
        <time>2021-06-13T08:48:33Z</time>
      </trkpt>
      <trkpt lat="42.71553" lon="1.64677">
        <ele>1675.788</ele>
        <time>2021-06-13T08:48:44Z</time>
      </trkpt>
      <trkpt lat="42.71553" lon="1.64677">
        <ele>1675.787</ele>
        <time>2021-06-13T08:48:46Z</time>
      </trkpt>
      <trkpt lat="42.71553" lon="1.64677">
        <ele>1675.787</ele>
        <time>2021-06-13T08:48:48Z</time>
      </trkpt>
      <trkpt lat="42.71553" lon="1.64677">
        <ele>1675.788</ele>
        <time>2021-06-13T08:48:55Z</time>
      </trkpt>
      <trkpt lat="42.71553" lon="1.64677">
        <ele>1675.788</ele>
        <time>2021-06-13T08:48:57Z</time>
      </trkpt>
      <trkpt lat="42.71553" lon="1.64677">
        <ele>1675.787</ele>
        <time>2021-06-13T08:48:59Z</time>
      </trkpt>
      <trkpt lat="42.71553" lon="1.64677">
        <ele>1675.787</ele>
        <time>2021-06-13T08:49:01Z</time>
      </trkpt>
      <trkpt lat="42.71553" lon="1.64677">
        <ele>1675.787</ele>
        <time>2021-06-13T08:49:03Z</time>
      </trkpt>
      <trkpt lat="42.71553" lon="1.64677">
        <ele>1675.787</ele>
        <time>2021-06-13T08:49:05Z</time>
      </trkpt>
      <trkpt lat="42.71553" lon="1.64677">
        <ele>1675.787</ele>
        <time>2021-06-13T08:49:07Z</time>
      </trkpt>
      <trkpt lat="42.71553" lon="1.64677">
        <ele>1675.788</ele>
        <time>2021-06-13T08:49:09Z</time>
      </trkpt>
      <trkpt lat="42.71553" lon="1.64677">
        <ele>1675.788</ele>
        <time>2021-06-13T08:49:11Z</time>
      </trkpt>
      <trkpt lat="42.71553" lon="1.64677">
        <ele>1675.79</ele>
        <time>2021-06-13T08:49:13Z</time>
      </trkpt>
      <trkpt lat="42.71553" lon="1.64677">
        <ele>1675.791</ele>
        <time>2021-06-13T08:49:14Z</time>
      </trkpt>
      <trkpt lat="42.71553" lon="1.64676">
        <ele>1675.849</ele>
        <time>2021-06-13T08:49:21Z</time>
      </trkpt>
      <trkpt lat="42.71553" lon="1.64676">
        <ele>1675.851</ele>
        <time>2021-06-13T08:49:23Z</time>
      </trkpt>
      <trkpt lat="42.71553" lon="1.64676">
        <ele>1675.854</ele>
        <time>2021-06-13T08:49:25Z</time>
      </trkpt>
      <trkpt lat="42.71553" lon="1.64676">
        <ele>1675.858</ele>
        <time>2021-06-13T08:49:27Z</time>
      </trkpt>
      <trkpt lat="42.71553" lon="1.64676">
        <ele>1675.858</ele>
        <time>2021-06-13T08:49:29Z</time>
      </trkpt>
      <trkpt lat="42.71553" lon="1.64676">
        <ele>1675.858</ele>
        <time>2021-06-13T08:49:31Z</time>
      </trkpt>
      <trkpt lat="42.71553" lon="1.64676">
        <ele>1675.859</ele>
        <time>2021-06-13T08:49:33Z</time>
      </trkpt>
      <trkpt lat="42.71553" lon="1.64676">
        <ele>1675.858</ele>
        <time>2021-06-13T08:49:35Z</time>
      </trkpt>
      <trkpt lat="42.71553" lon="1.64676">
        <ele>1675.858</ele>
        <time>2021-06-13T08:49:37Z</time>
      </trkpt>
      <trkpt lat="42.71553" lon="1.64676">
        <ele>1675.859</ele>
        <time>2021-06-13T08:49:39Z</time>
      </trkpt>
      <trkpt lat="42.71553" lon="1.64676">
        <ele>1675.859</ele>
        <time>2021-06-13T08:49:41Z</time>
      </trkpt>
      <trkpt lat="42.71553" lon="1.64676">
        <ele>1675.859</ele>
        <time>2021-06-13T08:49:43Z</time>
      </trkpt>
      <trkpt lat="42.71553" lon="1.64676">
        <ele>1675.86</ele>
        <time>2021-06-13T08:49:45Z</time>
      </trkpt>
      <trkpt lat="42.71553" lon="1.64676">
        <ele>1675.86</ele>
        <time>2021-06-13T08:49:47Z</time>
      </trkpt>
      <trkpt lat="42.71553" lon="1.64676">
        <ele>1675.86</ele>
        <time>2021-06-13T08:49:49Z</time>
      </trkpt>
      <trkpt lat="42.71553" lon="1.64676">
        <ele>1675.861</ele>
        <time>2021-06-13T08:49:51Z</time>
      </trkpt>
      <trkpt lat="42.71553" lon="1.64676">
        <ele>1675.862</ele>
        <time>2021-06-13T08:49:53Z</time>
      </trkpt>
      <trkpt lat="42.71553" lon="1.64676">
        <ele>1675.865</ele>
        <time>2021-06-13T08:49:55Z</time>
      </trkpt>
      <trkpt lat="42.71553" lon="1.64676">
        <ele>1675.867</ele>
        <time>2021-06-13T08:49:57Z</time>
      </trkpt>
      <trkpt lat="42.71553" lon="1.64676">
        <ele>1675.867</ele>
        <time>2021-06-13T08:49:59Z</time>
      </trkpt>
      <trkpt lat="42.71553" lon="1.64676">
        <ele>1675.867</ele>
        <time>2021-06-13T08:50:01Z</time>
      </trkpt>
      <trkpt lat="42.71553" lon="1.64676">
        <ele>1675.865</ele>
        <time>2021-06-13T08:50:03Z</time>
      </trkpt>
      <trkpt lat="42.71553" lon="1.64676">
        <ele>1675.865</ele>
        <time>2021-06-13T08:50:05Z</time>
      </trkpt>
      <trkpt lat="42.71553" lon="1.64676">
        <ele>1675.863</ele>
        <time>2021-06-13T08:50:07Z</time>
      </trkpt>
      <trkpt lat="42.71553" lon="1.64676">
        <ele>1675.862</ele>
        <time>2021-06-13T08:50:09Z</time>
      </trkpt>
      <trkpt lat="42.71553" lon="1.64676">
        <ele>1675.862</ele>
        <time>2021-06-13T08:50:11Z</time>
      </trkpt>
      <trkpt lat="42.71553" lon="1.64676">
        <ele>1675.862</ele>
        <time>2021-06-13T08:50:13Z</time>
      </trkpt>
      <trkpt lat="42.71553" lon="1.64676">
        <ele>1675.865</ele>
        <time>2021-06-13T08:50:15Z</time>
      </trkpt>
      <trkpt lat="42.71553" lon="1.64676">
        <ele>1675.863</ele>
        <time>2021-06-13T08:50:17Z</time>
      </trkpt>
      <trkpt lat="42.71553" lon="1.64676">
        <ele>1675.862</ele>
        <time>2021-06-13T08:50:19Z</time>
      </trkpt>
      <trkpt lat="42.71553" lon="1.64676">
        <ele>1675.863</ele>
        <time>2021-06-13T08:50:21Z</time>
      </trkpt>
      <trkpt lat="42.71553" lon="1.64676">
        <ele>1675.86</ele>
        <time>2021-06-13T08:50:23Z</time>
      </trkpt>
      <trkpt lat="42.71553" lon="1.64676">
        <ele>1675.86</ele>
        <time>2021-06-13T08:50:25Z</time>
      </trkpt>
      <trkpt lat="42.71553" lon="1.64676">
        <ele>1675.861</ele>
        <time>2021-06-13T08:50:27Z</time>
      </trkpt>
      <trkpt lat="42.71553" lon="1.64676">
        <ele>1675.861</ele>
        <time>2021-06-13T08:50:29Z</time>
      </trkpt>
      <trkpt lat="42.71553" lon="1.64676">
        <ele>1675.862</ele>
        <time>2021-06-13T08:50:31Z</time>
      </trkpt>
      <trkpt lat="42.71553" lon="1.64676">
        <ele>1675.864</ele>
        <time>2021-06-13T08:50:33Z</time>
      </trkpt>
      <trkpt lat="42.71553" lon="1.64676">
        <ele>1675.866</ele>
        <time>2021-06-13T08:50:35Z</time>
      </trkpt>
      <trkpt lat="42.71553" lon="1.64676">
        <ele>1675.868</ele>
        <time>2021-06-13T08:50:37Z</time>
      </trkpt>
      <trkpt lat="42.71553" lon="1.64676">
        <ele>1675.869</ele>
        <time>2021-06-13T08:50:39Z</time>
      </trkpt>
      <trkpt lat="42.71553" lon="1.64676">
        <ele>1675.871</ele>
        <time>2021-06-13T08:50:41Z</time>
      </trkpt>
      <trkpt lat="42.71553" lon="1.64676">
        <ele>1675.872</ele>
        <time>2021-06-13T08:50:43Z</time>
      </trkpt>
      <trkpt lat="42.71553" lon="1.64677">
        <ele>1676.557</ele>
        <time>2021-06-13T08:50:45Z</time>
      </trkpt>
      <trkpt lat="42.71554" lon="1.64677">
        <ele>1676.773</ele>
        <time>2021-06-13T08:50:47Z</time>
      </trkpt>
      <trkpt lat="42.71556" lon="1.64677">
        <ele>1676.942</ele>
        <time>2021-06-13T08:50:49Z</time>
      </trkpt>
      <trkpt lat="42.71557" lon="1.64677">
        <ele>1676.664</ele>
        <time>2021-06-13T08:50:51Z</time>
      </trkpt>
      <trkpt lat="42.71558" lon="1.64677">
        <ele>1677.718</ele>
        <time>2021-06-13T08:50:53Z</time>
      </trkpt>
      <trkpt lat="42.7156" lon="1.64676">
        <ele>1678.862</ele>
        <time>2021-06-13T08:50:55Z</time>
      </trkpt>
      <trkpt lat="42.71561" lon="1.64676">
        <ele>1679.333</ele>
        <time>2021-06-13T08:50:57Z</time>
      </trkpt>
      <trkpt lat="42.71563" lon="1.64675">
        <ele>1680.066</ele>
        <time>2021-06-13T08:50:59Z</time>
      </trkpt>
      <trkpt lat="42.71565" lon="1.64675">
        <ele>1680.223</ele>
        <time>2021-06-13T08:51:01Z</time>
      </trkpt>
      <trkpt lat="42.71567" lon="1.64676">
        <ele>1680.464</ele>
        <time>2021-06-13T08:51:03Z</time>
      </trkpt>
      <trkpt lat="42.71569" lon="1.64676">
        <ele>1680.475</ele>
        <time>2021-06-13T08:51:05Z</time>
      </trkpt>
      <trkpt lat="42.7157" lon="1.64676">
        <ele>1680.438</ele>
        <time>2021-06-13T08:51:07Z</time>
      </trkpt>
      <trkpt lat="42.71572" lon="1.64676">
        <ele>1681.482</ele>
        <time>2021-06-13T08:51:09Z</time>
      </trkpt>
      <trkpt lat="42.71573" lon="1.64676">
        <ele>1682.139</ele>
        <time>2021-06-13T08:51:11Z</time>
      </trkpt>
      <trkpt lat="42.71575" lon="1.64677">
        <ele>1682.134</ele>
        <time>2021-06-13T08:51:13Z</time>
      </trkpt>
      <trkpt lat="42.71577" lon="1.64678">
        <ele>1681.855</ele>
        <time>2021-06-13T08:51:15Z</time>
      </trkpt>
      <trkpt lat="42.71579" lon="1.64679">
        <ele>1682.152</ele>
        <time>2021-06-13T08:51:17Z</time>
      </trkpt>
      <trkpt lat="42.71581" lon="1.6468">
        <ele>1682.326</ele>
        <time>2021-06-13T08:51:19Z</time>
      </trkpt>
      <trkpt lat="42.71583" lon="1.64681">
        <ele>1682.69</ele>
        <time>2021-06-13T08:51:21Z</time>
      </trkpt>
      <trkpt lat="42.71585" lon="1.64682">
        <ele>1682.867</ele>
        <time>2021-06-13T08:51:23Z</time>
      </trkpt>
      <trkpt lat="42.71586" lon="1.64683">
        <ele>1683.101</ele>
        <time>2021-06-13T08:51:25Z</time>
      </trkpt>
      <trkpt lat="42.71588" lon="1.64683">
        <ele>1683.487</ele>
        <time>2021-06-13T08:51:27Z</time>
      </trkpt>
      <trkpt lat="42.7159" lon="1.64684">
        <ele>1683.853</ele>
        <time>2021-06-13T08:51:29Z</time>
      </trkpt>
      <trkpt lat="42.71591" lon="1.64685">
        <ele>1684.193</ele>
        <time>2021-06-13T08:51:31Z</time>
      </trkpt>
      <trkpt lat="42.71593" lon="1.64686">
        <ele>1684.818</ele>
        <time>2021-06-13T08:51:33Z</time>
      </trkpt>
      <trkpt lat="42.71595" lon="1.64685">
        <ele>1684.579</ele>
        <time>2021-06-13T08:51:35Z</time>
      </trkpt>
      <trkpt lat="42.71597" lon="1.64686">
        <ele>1684.952</ele>
        <time>2021-06-13T08:51:37Z</time>
      </trkpt>
      <trkpt lat="42.71598" lon="1.64687">
        <ele>1684.789</ele>
        <time>2021-06-13T08:51:39Z</time>
      </trkpt>
      <trkpt lat="42.716" lon="1.64688">
        <ele>1685.313</ele>
        <time>2021-06-13T08:51:41Z</time>
      </trkpt>
      <trkpt lat="42.71602" lon="1.6469">
        <ele>1686.25</ele>
        <time>2021-06-13T08:51:43Z</time>
      </trkpt>
      <trkpt lat="42.71604" lon="1.64691">
        <ele>1686.932</ele>
        <time>2021-06-13T08:51:45Z</time>
      </trkpt>
      <trkpt lat="42.71605" lon="1.64692">
        <ele>1687.321</ele>
        <time>2021-06-13T08:51:47Z</time>
      </trkpt>
      <trkpt lat="42.71607" lon="1.64692">
        <ele>1687.851</ele>
        <time>2021-06-13T08:51:49Z</time>
      </trkpt>
      <trkpt lat="42.71609" lon="1.64692">
        <ele>1687.961</ele>
        <time>2021-06-13T08:51:51Z</time>
      </trkpt>
      <trkpt lat="42.71611" lon="1.64691">
        <ele>1688.087</ele>
        <time>2021-06-13T08:51:53Z</time>
      </trkpt>
      <trkpt lat="42.71612" lon="1.64691">
        <ele>1688.123</ele>
        <time>2021-06-13T08:51:55Z</time>
      </trkpt>
      <trkpt lat="42.71614" lon="1.6469">
        <ele>1688.661</ele>
        <time>2021-06-13T08:51:57Z</time>
      </trkpt>
      <trkpt lat="42.71616" lon="1.6469">
        <ele>1688.301</ele>
        <time>2021-06-13T08:51:59Z</time>
      </trkpt>
      <trkpt lat="42.71617" lon="1.6469">
        <ele>1688.403</ele>
        <time>2021-06-13T08:52:01Z</time>
      </trkpt>
      <trkpt lat="42.71619" lon="1.6469">
        <ele>1688.314</ele>
        <time>2021-06-13T08:52:03Z</time>
      </trkpt>
      <trkpt lat="42.71621" lon="1.64691">
        <ele>1688.755</ele>
        <time>2021-06-13T08:52:05Z</time>
      </trkpt>
      <trkpt lat="42.71622" lon="1.64692">
        <ele>1689.193</ele>
        <time>2021-06-13T08:52:07Z</time>
      </trkpt>
      <trkpt lat="42.71624" lon="1.64692">
        <ele>1689.634</ele>
        <time>2021-06-13T08:52:09Z</time>
      </trkpt>
      <trkpt lat="42.71626" lon="1.64692">
        <ele>1690.189</ele>
        <time>2021-06-13T08:52:11Z</time>
      </trkpt>
      <trkpt lat="42.71628" lon="1.64693">
        <ele>1690.775</ele>
        <time>2021-06-13T08:52:13Z</time>
      </trkpt>
      <trkpt lat="42.7163" lon="1.64693">
        <ele>1690.793</ele>
        <time>2021-06-13T08:52:15Z</time>
      </trkpt>
      <trkpt lat="42.71631" lon="1.64692">
        <ele>1690.698</ele>
        <time>2021-06-13T08:52:17Z</time>
      </trkpt>
      <trkpt lat="42.71632" lon="1.64691">
        <ele>1690.466</ele>
        <time>2021-06-13T08:52:19Z</time>
      </trkpt>
      <trkpt lat="42.71632" lon="1.64691">
        <ele>1690.464</ele>
        <time>2021-06-13T08:52:20Z</time>
      </trkpt>
      <trkpt lat="42.71637" lon="1.64689">
        <ele>1691.835</ele>
        <time>2021-06-13T08:52:27Z</time>
      </trkpt>
      <trkpt lat="42.71639" lon="1.64688">
        <ele>1691.98</ele>
        <time>2021-06-13T08:52:29Z</time>
      </trkpt>
      <trkpt lat="42.71641" lon="1.64687">
        <ele>1692.286</ele>
        <time>2021-06-13T08:52:31Z</time>
      </trkpt>
      <trkpt lat="42.71641" lon="1.64687">
        <ele>1692.706</ele>
        <time>2021-06-13T08:52:33Z</time>
      </trkpt>
      <trkpt lat="42.71643" lon="1.64687">
        <ele>1692.462</ele>
        <time>2021-06-13T08:52:35Z</time>
      </trkpt>
      <trkpt lat="42.71644" lon="1.64686">
        <ele>1692.223</ele>
        <time>2021-06-13T08:52:37Z</time>
      </trkpt>
      <trkpt lat="42.71646" lon="1.64686">
        <ele>1692.382</ele>
        <time>2021-06-13T08:52:39Z</time>
      </trkpt>
      <trkpt lat="42.71648" lon="1.64686">
        <ele>1692.964</ele>
        <time>2021-06-13T08:52:41Z</time>
      </trkpt>
      <trkpt lat="42.7165" lon="1.64686">
        <ele>1693.121</ele>
        <time>2021-06-13T08:52:43Z</time>
      </trkpt>
      <trkpt lat="42.71652" lon="1.64686">
        <ele>1693.896</ele>
        <time>2021-06-13T08:52:45Z</time>
      </trkpt>
      <trkpt lat="42.71653" lon="1.64686">
        <ele>1693.925</ele>
        <time>2021-06-13T08:52:46Z</time>
      </trkpt>
      <trkpt lat="42.7166" lon="1.64686">
        <ele>1695.351</ele>
        <time>2021-06-13T08:52:53Z</time>
      </trkpt>
      <trkpt lat="42.71661" lon="1.64686">
        <ele>1695.687</ele>
        <time>2021-06-13T08:52:55Z</time>
      </trkpt>
      <trkpt lat="42.71663" lon="1.64687">
        <ele>1695.595</ele>
        <time>2021-06-13T08:52:57Z</time>
      </trkpt>
      <trkpt lat="42.71665" lon="1.64688">
        <ele>1695.693</ele>
        <time>2021-06-13T08:52:59Z</time>
      </trkpt>
      <trkpt lat="42.71667" lon="1.64689">
        <ele>1696.541</ele>
        <time>2021-06-13T08:53:01Z</time>
      </trkpt>
      <trkpt lat="42.71669" lon="1.6469">
        <ele>1696.382</ele>
        <time>2021-06-13T08:53:03Z</time>
      </trkpt>
      <trkpt lat="42.71672" lon="1.6469">
        <ele>1696.42</ele>
        <time>2021-06-13T08:53:05Z</time>
      </trkpt>
      <trkpt lat="42.71674" lon="1.64691">
        <ele>1696.624</ele>
        <time>2021-06-13T08:53:07Z</time>
      </trkpt>
      <trkpt lat="42.71676" lon="1.64691">
        <ele>1696.713</ele>
        <time>2021-06-13T08:53:09Z</time>
      </trkpt>
      <trkpt lat="42.71678" lon="1.6469">
        <ele>1696.341</ele>
        <time>2021-06-13T08:53:11Z</time>
      </trkpt>
      <trkpt lat="42.71681" lon="1.6469">
        <ele>1696.754</ele>
        <time>2021-06-13T08:53:13Z</time>
      </trkpt>
      <trkpt lat="42.71683" lon="1.6469">
        <ele>1697.084</ele>
        <time>2021-06-13T08:53:15Z</time>
      </trkpt>
      <trkpt lat="42.71685" lon="1.64689">
        <ele>1697.132</ele>
        <time>2021-06-13T08:53:17Z</time>
      </trkpt>
      <trkpt lat="42.71688" lon="1.64688">
        <ele>1697.037</ele>
        <time>2021-06-13T08:53:19Z</time>
      </trkpt>
      <trkpt lat="42.7169" lon="1.64687">
        <ele>1697.123</ele>
        <time>2021-06-13T08:53:21Z</time>
      </trkpt>
      <trkpt lat="42.71692" lon="1.64686">
        <ele>1697.21</ele>
        <time>2021-06-13T08:53:23Z</time>
      </trkpt>
      <trkpt lat="42.71695" lon="1.64686">
        <ele>1697.195</ele>
        <time>2021-06-13T08:53:25Z</time>
      </trkpt>
      <trkpt lat="42.71698" lon="1.64686">
        <ele>1697.61</ele>
        <time>2021-06-13T08:53:27Z</time>
      </trkpt>
      <trkpt lat="42.717" lon="1.64685">
        <ele>1697.755</ele>
        <time>2021-06-13T08:53:29Z</time>
      </trkpt>
      <trkpt lat="42.71703" lon="1.64685">
        <ele>1697.768</ele>
        <time>2021-06-13T08:53:31Z</time>
      </trkpt>
      <trkpt lat="42.71705" lon="1.64684">
        <ele>1697.664</ele>
        <time>2021-06-13T08:53:33Z</time>
      </trkpt>
      <trkpt lat="42.71708" lon="1.64683">
        <ele>1697.339</ele>
        <time>2021-06-13T08:53:35Z</time>
      </trkpt>
      <trkpt lat="42.71709" lon="1.64683">
        <ele>1696.729</ele>
        <time>2021-06-13T08:53:37Z</time>
      </trkpt>
      <trkpt lat="42.71711" lon="1.64682">
        <ele>1696.703</ele>
        <time>2021-06-13T08:53:39Z</time>
      </trkpt>
      <trkpt lat="42.71714" lon="1.64682">
        <ele>1696.495</ele>
        <time>2021-06-13T08:53:41Z</time>
      </trkpt>
      <trkpt lat="42.71716" lon="1.64682">
        <ele>1696.786</ele>
        <time>2021-06-13T08:53:43Z</time>
      </trkpt>
      <trkpt lat="42.71718" lon="1.64682">
        <ele>1697.217</ele>
        <time>2021-06-13T08:53:45Z</time>
      </trkpt>
      <trkpt lat="42.71721" lon="1.64682">
        <ele>1697.599</ele>
        <time>2021-06-13T08:53:47Z</time>
      </trkpt>
      <trkpt lat="42.71728" lon="1.64679">
        <ele>1697.65</ele>
        <time>2021-06-13T08:53:54Z</time>
      </trkpt>
      <trkpt lat="42.7173" lon="1.64679">
        <ele>1697.584</ele>
        <time>2021-06-13T08:53:55Z</time>
      </trkpt>
      <trkpt lat="42.71742" lon="1.64675">
        <ele>1697.703</ele>
        <time>2021-06-13T08:54:07Z</time>
      </trkpt>
      <trkpt lat="42.71744" lon="1.64674">
        <ele>1697.585</ele>
        <time>2021-06-13T08:54:09Z</time>
      </trkpt>
      <trkpt lat="42.71746" lon="1.64673">
        <ele>1697.825</ele>
        <time>2021-06-13T08:54:11Z</time>
      </trkpt>
      <trkpt lat="42.71748" lon="1.64672">
        <ele>1698.091</ele>
        <time>2021-06-13T08:54:13Z</time>
      </trkpt>
      <trkpt lat="42.71749" lon="1.64672">
        <ele>1698.297</ele>
        <time>2021-06-13T08:54:15Z</time>
      </trkpt>
      <trkpt lat="42.71751" lon="1.64671">
        <ele>1698.407</ele>
        <time>2021-06-13T08:54:17Z</time>
      </trkpt>
      <trkpt lat="42.71753" lon="1.64671">
        <ele>1698.161</ele>
        <time>2021-06-13T08:54:19Z</time>
      </trkpt>
      <trkpt lat="42.71755" lon="1.64671">
        <ele>1698.15</ele>
        <time>2021-06-13T08:54:21Z</time>
      </trkpt>
      <trkpt lat="42.71757" lon="1.64671">
        <ele>1698.423</ele>
        <time>2021-06-13T08:54:23Z</time>
      </trkpt>
      <trkpt lat="42.71758" lon="1.6467">
        <ele>1698.092</ele>
        <time>2021-06-13T08:54:25Z</time>
      </trkpt>
      <trkpt lat="42.71761" lon="1.64668">
        <ele>1698.371</ele>
        <time>2021-06-13T08:54:27Z</time>
      </trkpt>
      <trkpt lat="42.71763" lon="1.64667">
        <ele>1698.601</ele>
        <time>2021-06-13T08:54:29Z</time>
      </trkpt>
      <trkpt lat="42.71765" lon="1.64667">
        <ele>1698.843</ele>
        <time>2021-06-13T08:54:31Z</time>
      </trkpt>
      <trkpt lat="42.71768" lon="1.64666">
        <ele>1699.286</ele>
        <time>2021-06-13T08:54:33Z</time>
      </trkpt>
      <trkpt lat="42.7177" lon="1.64665">
        <ele>1699.553</ele>
        <time>2021-06-13T08:54:35Z</time>
      </trkpt>
      <trkpt lat="42.71771" lon="1.64665">
        <ele>1699.087</ele>
        <time>2021-06-13T08:54:37Z</time>
      </trkpt>
      <trkpt lat="42.71774" lon="1.64664">
        <ele>1699.024</ele>
        <time>2021-06-13T08:54:39Z</time>
      </trkpt>
      <trkpt lat="42.71777" lon="1.64663">
        <ele>1699.104</ele>
        <time>2021-06-13T08:54:41Z</time>
      </trkpt>
      <trkpt lat="42.71778" lon="1.64662">
        <ele>1699.318</ele>
        <time>2021-06-13T08:54:43Z</time>
      </trkpt>
      <trkpt lat="42.71781" lon="1.6466">
        <ele>1699.092</ele>
        <time>2021-06-13T08:54:45Z</time>
      </trkpt>
      <trkpt lat="42.71783" lon="1.64659">
        <ele>1699.034</ele>
        <time>2021-06-13T08:54:47Z</time>
      </trkpt>
      <trkpt lat="42.71785" lon="1.64658">
        <ele>1698.719</ele>
        <time>2021-06-13T08:54:49Z</time>
      </trkpt>
      <trkpt lat="42.71788" lon="1.64657">
        <ele>1698.474</ele>
        <time>2021-06-13T08:54:51Z</time>
      </trkpt>
      <trkpt lat="42.71791" lon="1.64656">
        <ele>1698.632</ele>
        <time>2021-06-13T08:54:53Z</time>
      </trkpt>
      <trkpt lat="42.71794" lon="1.64655">
        <ele>1699.302</ele>
        <time>2021-06-13T08:54:55Z</time>
      </trkpt>
      <trkpt lat="42.71796" lon="1.64655">
        <ele>1699.361</ele>
        <time>2021-06-13T08:54:57Z</time>
      </trkpt>
      <trkpt lat="42.71799" lon="1.64654">
        <ele>1699.515</ele>
        <time>2021-06-13T08:54:59Z</time>
      </trkpt>
      <trkpt lat="42.71801" lon="1.64652">
        <ele>1699.357</ele>
        <time>2021-06-13T08:55:01Z</time>
      </trkpt>
      <trkpt lat="42.71803" lon="1.64651">
        <ele>1699.412</ele>
        <time>2021-06-13T08:55:03Z</time>
      </trkpt>
      <trkpt lat="42.71805" lon="1.64649">
        <ele>1699.443</ele>
        <time>2021-06-13T08:55:05Z</time>
      </trkpt>
      <trkpt lat="42.71807" lon="1.64648">
        <ele>1699.179</ele>
        <time>2021-06-13T08:55:07Z</time>
      </trkpt>
      <trkpt lat="42.7181" lon="1.64648">
        <ele>1699.548</ele>
        <time>2021-06-13T08:55:09Z</time>
      </trkpt>
      <trkpt lat="42.71812" lon="1.64647">
        <ele>1699.308</ele>
        <time>2021-06-13T08:55:11Z</time>
      </trkpt>
      <trkpt lat="42.71812" lon="1.64643">
        <ele>1699.44</ele>
        <time>2021-06-13T08:55:13Z</time>
      </trkpt>
      <trkpt lat="42.71812" lon="1.64641">
        <ele>1699.631</ele>
        <time>2021-06-13T08:55:15Z</time>
      </trkpt>
      <trkpt lat="42.71813" lon="1.64638">
        <ele>1699.478</ele>
        <time>2021-06-13T08:55:17Z</time>
      </trkpt>
      <trkpt lat="42.71814" lon="1.64635">
        <ele>1699.156</ele>
        <time>2021-06-13T08:55:19Z</time>
      </trkpt>
      <trkpt lat="42.71816" lon="1.64633">
        <ele>1698.726</ele>
        <time>2021-06-13T08:55:21Z</time>
      </trkpt>
      <trkpt lat="42.71817" lon="1.64631">
        <ele>1699.075</ele>
        <time>2021-06-13T08:55:23Z</time>
      </trkpt>
      <trkpt lat="42.7182" lon="1.64629">
        <ele>1699.088</ele>
        <time>2021-06-13T08:55:25Z</time>
      </trkpt>
      <trkpt lat="42.71822" lon="1.64627">
        <ele>1698.92</ele>
        <time>2021-06-13T08:55:27Z</time>
      </trkpt>
      <trkpt lat="42.71824" lon="1.64625">
        <ele>1698.929</ele>
        <time>2021-06-13T08:55:29Z</time>
      </trkpt>
      <trkpt lat="42.71826" lon="1.64623">
        <ele>1699.213</ele>
        <time>2021-06-13T08:55:31Z</time>
      </trkpt>
      <trkpt lat="42.71827" lon="1.64622">
        <ele>1699.458</ele>
        <time>2021-06-13T08:55:33Z</time>
      </trkpt>
      <trkpt lat="42.71829" lon="1.64621">
        <ele>1699.526</ele>
        <time>2021-06-13T08:55:35Z</time>
      </trkpt>
      <trkpt lat="42.71832" lon="1.64622">
        <ele>1700.816</ele>
        <time>2021-06-13T08:55:37Z</time>
      </trkpt>
      <trkpt lat="42.71834" lon="1.64622">
        <ele>1701.16</ele>
        <time>2021-06-13T08:55:39Z</time>
      </trkpt>
      <trkpt lat="42.71836" lon="1.64621">
        <ele>1701.127</ele>
        <time>2021-06-13T08:55:41Z</time>
      </trkpt>
      <trkpt lat="42.71838" lon="1.64619">
        <ele>1701.4</ele>
        <time>2021-06-13T08:55:43Z</time>
      </trkpt>
      <trkpt lat="42.71839" lon="1.64618">
        <ele>1701.659</ele>
        <time>2021-06-13T08:55:45Z</time>
      </trkpt>
      <trkpt lat="42.71841" lon="1.64617">
        <ele>1701.635</ele>
        <time>2021-06-13T08:55:47Z</time>
      </trkpt>
      <trkpt lat="42.71843" lon="1.64616">
        <ele>1702.186</ele>
        <time>2021-06-13T08:55:49Z</time>
      </trkpt>
      <trkpt lat="42.71845" lon="1.64614">
        <ele>1702.105</ele>
        <time>2021-06-13T08:55:51Z</time>
      </trkpt>
      <trkpt lat="42.71847" lon="1.64614">
        <ele>1701.959</ele>
        <time>2021-06-13T08:55:53Z</time>
      </trkpt>
      <trkpt lat="42.71849" lon="1.64613">
        <ele>1702.405</ele>
        <time>2021-06-13T08:55:55Z</time>
      </trkpt>
      <trkpt lat="42.7185" lon="1.64611">
        <ele>1702.356</ele>
        <time>2021-06-13T08:55:57Z</time>
      </trkpt>
      <trkpt lat="42.71852" lon="1.6461">
        <ele>1702.072</ele>
        <time>2021-06-13T08:55:59Z</time>
      </trkpt>
      <trkpt lat="42.71854" lon="1.64609">
        <ele>1701.879</ele>
        <time>2021-06-13T08:56:01Z</time>
      </trkpt>
      <trkpt lat="42.71856" lon="1.64607">
        <ele>1702.022</ele>
        <time>2021-06-13T08:56:03Z</time>
      </trkpt>
      <trkpt lat="42.71858" lon="1.64606">
        <ele>1702.201</ele>
        <time>2021-06-13T08:56:05Z</time>
      </trkpt>
      <trkpt lat="42.71861" lon="1.64604">
        <ele>1702.769</ele>
        <time>2021-06-13T08:56:07Z</time>
      </trkpt>
      <trkpt lat="42.71863" lon="1.64603">
        <ele>1702.715</ele>
        <time>2021-06-13T08:56:09Z</time>
      </trkpt>
      <trkpt lat="42.71865" lon="1.64601">
        <ele>1702.658</ele>
        <time>2021-06-13T08:56:11Z</time>
      </trkpt>
      <trkpt lat="42.71867" lon="1.64599">
        <ele>1702.759</ele>
        <time>2021-06-13T08:56:13Z</time>
      </trkpt>
      <trkpt lat="42.7187" lon="1.64597">
        <ele>1702.845</ele>
        <time>2021-06-13T08:56:15Z</time>
      </trkpt>
      <trkpt lat="42.71872" lon="1.64595">
        <ele>1702.748</ele>
        <time>2021-06-13T08:56:17Z</time>
      </trkpt>
      <trkpt lat="42.71874" lon="1.64593">
        <ele>1702.444</ele>
        <time>2021-06-13T08:56:19Z</time>
      </trkpt>
      <trkpt lat="42.71876" lon="1.64591">
        <ele>1702.443</ele>
        <time>2021-06-13T08:56:21Z</time>
      </trkpt>
      <trkpt lat="42.71878" lon="1.64589">
        <ele>1702.898</ele>
        <time>2021-06-13T08:56:23Z</time>
      </trkpt>
      <trkpt lat="42.7188" lon="1.64587">
        <ele>1702.557</ele>
        <time>2021-06-13T08:56:25Z</time>
      </trkpt>
      <trkpt lat="42.71882" lon="1.64584">
        <ele>1702.298</ele>
        <time>2021-06-13T08:56:27Z</time>
      </trkpt>
      <trkpt lat="42.71884" lon="1.64583">
        <ele>1702.086</ele>
        <time>2021-06-13T08:56:29Z</time>
      </trkpt>
      <trkpt lat="42.71885" lon="1.64581">
        <ele>1702.128</ele>
        <time>2021-06-13T08:56:31Z</time>
      </trkpt>
      <trkpt lat="42.71887" lon="1.64579">
        <ele>1702</ele>
        <time>2021-06-13T08:56:33Z</time>
      </trkpt>
      <trkpt lat="42.71888" lon="1.64577">
        <ele>1701.359</ele>
        <time>2021-06-13T08:56:35Z</time>
      </trkpt>
      <trkpt lat="42.7189" lon="1.64575">
        <ele>1701.63</ele>
        <time>2021-06-13T08:56:37Z</time>
      </trkpt>
      <trkpt lat="42.71893" lon="1.64574">
        <ele>1701.059</ele>
        <time>2021-06-13T08:56:39Z</time>
      </trkpt>
      <trkpt lat="42.71895" lon="1.64572">
        <ele>1701.03</ele>
        <time>2021-06-13T08:56:41Z</time>
      </trkpt>
      <trkpt lat="42.71897" lon="1.6457">
        <ele>1701.002</ele>
        <time>2021-06-13T08:56:43Z</time>
      </trkpt>
      <trkpt lat="42.71899" lon="1.64568">
        <ele>1700.936</ele>
        <time>2021-06-13T08:56:45Z</time>
      </trkpt>
      <trkpt lat="42.71902" lon="1.64566">
        <ele>1701.023</ele>
        <time>2021-06-13T08:56:47Z</time>
      </trkpt>
      <trkpt lat="42.71904" lon="1.64564">
        <ele>1701.103</ele>
        <time>2021-06-13T08:56:49Z</time>
      </trkpt>
      <trkpt lat="42.71905" lon="1.64562">
        <ele>1701.278</ele>
        <time>2021-06-13T08:56:51Z</time>
      </trkpt>
      <trkpt lat="42.71907" lon="1.64561">
        <ele>1701.359</ele>
        <time>2021-06-13T08:56:53Z</time>
      </trkpt>
      <trkpt lat="42.7191" lon="1.64559">
        <ele>1701.592</ele>
        <time>2021-06-13T08:56:55Z</time>
      </trkpt>
      <trkpt lat="42.71911" lon="1.64556">
        <ele>1701.595</ele>
        <time>2021-06-13T08:56:57Z</time>
      </trkpt>
      <trkpt lat="42.71912" lon="1.64554">
        <ele>1701.175</ele>
        <time>2021-06-13T08:56:59Z</time>
      </trkpt>
      <trkpt lat="42.71914" lon="1.64552">
        <ele>1701.174</ele>
        <time>2021-06-13T08:57:01Z</time>
      </trkpt>
      <trkpt lat="42.71915" lon="1.6455">
        <ele>1701.094</ele>
        <time>2021-06-13T08:57:03Z</time>
      </trkpt>
      <trkpt lat="42.71917" lon="1.64548">
        <ele>1700.89</ele>
        <time>2021-06-13T08:57:05Z</time>
      </trkpt>
      <trkpt lat="42.71919" lon="1.64546">
        <ele>1700.637</ele>
        <time>2021-06-13T08:57:07Z</time>
      </trkpt>
      <trkpt lat="42.7192" lon="1.64544">
        <ele>1700.705</ele>
        <time>2021-06-13T08:57:09Z</time>
      </trkpt>
      <trkpt lat="42.71919" lon="1.64545">
        <ele>1700.718</ele>
        <time>2021-06-13T08:57:11Z</time>
      </trkpt>
      <trkpt lat="42.71918" lon="1.64546">
        <ele>1701.073</ele>
        <time>2021-06-13T08:57:13Z</time>
      </trkpt>
      <trkpt lat="42.71917" lon="1.64547">
        <ele>1700.991</ele>
        <time>2021-06-13T08:57:15Z</time>
      </trkpt>
      <trkpt lat="42.71915" lon="1.6455">
        <ele>1701.282</ele>
        <time>2021-06-13T08:57:17Z</time>
      </trkpt>
      <trkpt lat="42.71914" lon="1.64552">
        <ele>1701.764</ele>
        <time>2021-06-13T08:57:19Z</time>
      </trkpt>
      <trkpt lat="42.71913" lon="1.64555">
        <ele>1702.097</ele>
        <time>2021-06-13T08:57:21Z</time>
      </trkpt>
      <trkpt lat="42.71911" lon="1.64557">
        <ele>1702.205</ele>
        <time>2021-06-13T08:57:23Z</time>
      </trkpt>
      <trkpt lat="42.7191" lon="1.64559">
        <ele>1702.054</ele>
        <time>2021-06-13T08:57:25Z</time>
      </trkpt>
      <trkpt lat="42.71908" lon="1.64561">
        <ele>1702.721</ele>
        <time>2021-06-13T08:57:27Z</time>
      </trkpt>
      <trkpt lat="42.71906" lon="1.64563">
        <ele>1702.936</ele>
        <time>2021-06-13T08:57:29Z</time>
      </trkpt>
      <trkpt lat="42.71904" lon="1.64565">
        <ele>1703.046</ele>
        <time>2021-06-13T08:57:31Z</time>
      </trkpt>
      <trkpt lat="42.71902" lon="1.64566">
        <ele>1703.169</ele>
        <time>2021-06-13T08:57:33Z</time>
      </trkpt>
      <trkpt lat="42.719" lon="1.64568">
        <ele>1703.199</ele>
        <time>2021-06-13T08:57:35Z</time>
      </trkpt>
      <trkpt lat="42.71898" lon="1.64569">
        <ele>1702.965</ele>
        <time>2021-06-13T08:57:37Z</time>
      </trkpt>
      <trkpt lat="42.71896" lon="1.64571">
        <ele>1703.31</ele>
        <time>2021-06-13T08:57:39Z</time>
      </trkpt>
      <trkpt lat="42.71894" lon="1.64572">
        <ele>1703.383</ele>
        <time>2021-06-13T08:57:41Z</time>
      </trkpt>
      <trkpt lat="42.71892" lon="1.64574">
        <ele>1703.395</ele>
        <time>2021-06-13T08:57:43Z</time>
      </trkpt>
      <trkpt lat="42.7189" lon="1.64575">
        <ele>1702.776</ele>
        <time>2021-06-13T08:57:45Z</time>
      </trkpt>
      <trkpt lat="42.71888" lon="1.64576">
        <ele>1703.283</ele>
        <time>2021-06-13T08:57:47Z</time>
      </trkpt>
      <trkpt lat="42.71886" lon="1.64578">
        <ele>1703.708</ele>
        <time>2021-06-13T08:57:49Z</time>
      </trkpt>
      <trkpt lat="42.71885" lon="1.6458">
        <ele>1704.219</ele>
        <time>2021-06-13T08:57:51Z</time>
      </trkpt>
      <trkpt lat="42.71884" lon="1.64581">
        <ele>1704.398</ele>
        <time>2021-06-13T08:57:53Z</time>
      </trkpt>
      <trkpt lat="42.71883" lon="1.64582">
        <ele>1704.236</ele>
        <time>2021-06-13T08:57:55Z</time>
      </trkpt>
      <trkpt lat="42.71883" lon="1.64581">
        <ele>1704.24</ele>
        <time>2021-06-13T08:57:57Z</time>
      </trkpt>
      <trkpt lat="42.71883" lon="1.64581">
        <ele>1704.24</ele>
        <time>2021-06-13T08:57:59Z</time>
      </trkpt>
      <trkpt lat="42.71883" lon="1.64581">
        <ele>1704.239</ele>
        <time>2021-06-13T08:58:01Z</time>
      </trkpt>
      <trkpt lat="42.71883" lon="1.64581">
        <ele>1704.232</ele>
        <time>2021-06-13T08:58:03Z</time>
      </trkpt>
      <trkpt lat="42.71883" lon="1.64581">
        <ele>1704.229</ele>
        <time>2021-06-13T08:58:05Z</time>
      </trkpt>
      <trkpt lat="42.71883" lon="1.64581">
        <ele>1704.228</ele>
        <time>2021-06-13T08:58:07Z</time>
      </trkpt>
      <trkpt lat="42.71883" lon="1.64581">
        <ele>1704.228</ele>
        <time>2021-06-13T08:58:08Z</time>
      </trkpt>
      <trkpt lat="42.71884" lon="1.64581">
        <ele>1703.918</ele>
        <time>2021-06-13T08:58:11Z</time>
      </trkpt>
      <trkpt lat="42.71884" lon="1.64581">
        <ele>1703.913</ele>
        <time>2021-06-13T08:58:13Z</time>
      </trkpt>
      <trkpt lat="42.71884" lon="1.64581">
        <ele>1703.912</ele>
        <time>2021-06-13T08:58:15Z</time>
      </trkpt>
      <trkpt lat="42.71884" lon="1.64581">
        <ele>1703.903</ele>
        <time>2021-06-13T08:58:17Z</time>
      </trkpt>
      <trkpt lat="42.71884" lon="1.64581">
        <ele>1703.896</ele>
        <time>2021-06-13T08:58:19Z</time>
      </trkpt>
      <trkpt lat="42.71884" lon="1.64581">
        <ele>1703.883</ele>
        <time>2021-06-13T08:58:21Z</time>
      </trkpt>
      <trkpt lat="42.71884" lon="1.64581">
        <ele>1703.876</ele>
        <time>2021-06-13T08:58:23Z</time>
      </trkpt>
      <trkpt lat="42.71884" lon="1.64581">
        <ele>1703.872</ele>
        <time>2021-06-13T08:58:25Z</time>
      </trkpt>
      <trkpt lat="42.71884" lon="1.64581">
        <ele>1703.874</ele>
        <time>2021-06-13T08:58:26Z</time>
      </trkpt>
      <trkpt lat="42.71883" lon="1.64582">
        <ele>1703.923</ele>
        <time>2021-06-13T08:58:33Z</time>
      </trkpt>
      <trkpt lat="42.71884" lon="1.64582">
        <ele>1703.97</ele>
        <time>2021-06-13T08:58:39Z</time>
      </trkpt>
      <trkpt lat="42.71884" lon="1.64582">
        <ele>1703.984</ele>
        <time>2021-06-13T08:58:41Z</time>
      </trkpt>
      <trkpt lat="42.71884" lon="1.64582">
        <ele>1703.776</ele>
        <time>2021-06-13T08:58:43Z</time>
      </trkpt>
      <trkpt lat="42.71884" lon="1.64582">
        <ele>1703.764</ele>
        <time>2021-06-13T08:58:45Z</time>
      </trkpt>
      <trkpt lat="42.71884" lon="1.64582">
        <ele>1703.756</ele>
        <time>2021-06-13T08:58:47Z</time>
      </trkpt>
      <trkpt lat="42.71884" lon="1.64582">
        <ele>1703.754</ele>
        <time>2021-06-13T08:58:49Z</time>
      </trkpt>
      <trkpt lat="42.71884" lon="1.64581">
        <ele>1703.08</ele>
        <time>2021-06-13T08:58:51Z</time>
      </trkpt>
      <trkpt lat="42.71883" lon="1.6458">
        <ele>1703.016</ele>
        <time>2021-06-13T08:58:53Z</time>
      </trkpt>
      <trkpt lat="42.71881" lon="1.64579">
        <ele>1703.188</ele>
        <time>2021-06-13T08:58:55Z</time>
      </trkpt>
      <trkpt lat="42.71879" lon="1.64579">
        <ele>1703.215</ele>
        <time>2021-06-13T08:58:57Z</time>
      </trkpt>
      <trkpt lat="42.71878" lon="1.64578">
        <ele>1703.275</ele>
        <time>2021-06-13T08:58:59Z</time>
      </trkpt>
      <trkpt lat="42.71877" lon="1.64578">
        <ele>1703.278</ele>
        <time>2021-06-13T08:59:01Z</time>
      </trkpt>
      <trkpt lat="42.71875" lon="1.64577">
        <ele>1703.299</ele>
        <time>2021-06-13T08:59:03Z</time>
      </trkpt>
      <trkpt lat="42.71874" lon="1.64576">
        <ele>1703.233</ele>
        <time>2021-06-13T08:59:05Z</time>
      </trkpt>
      <trkpt lat="42.71872" lon="1.64576">
        <ele>1703.053</ele>
        <time>2021-06-13T08:59:07Z</time>
      </trkpt>
      <trkpt lat="42.71871" lon="1.64575">
        <ele>1702.931</ele>
        <time>2021-06-13T08:59:09Z</time>
      </trkpt>
      <trkpt lat="42.7187" lon="1.64574">
        <ele>1702.672</ele>
        <time>2021-06-13T08:59:11Z</time>
      </trkpt>
      <trkpt lat="42.71869" lon="1.64571">
        <ele>1702.651</ele>
        <time>2021-06-13T08:59:13Z</time>
      </trkpt>
      <trkpt lat="42.71868" lon="1.64569">
        <ele>1702.662</ele>
        <time>2021-06-13T08:59:15Z</time>
      </trkpt>
      <trkpt lat="42.71867" lon="1.64567">
        <ele>1702.834</ele>
        <time>2021-06-13T08:59:17Z</time>
      </trkpt>
      <trkpt lat="42.71866" lon="1.64564">
        <ele>1702.784</ele>
        <time>2021-06-13T08:59:19Z</time>
      </trkpt>
      <trkpt lat="42.71866" lon="1.64564">
        <ele>1702.791</ele>
        <time>2021-06-13T08:59:21Z</time>
      </trkpt>
      <trkpt lat="42.71866" lon="1.64564">
        <ele>1702.794</ele>
        <time>2021-06-13T08:59:23Z</time>
      </trkpt>
      <trkpt lat="42.71866" lon="1.64564">
        <ele>1702.923</ele>
        <time>2021-06-13T08:59:25Z</time>
      </trkpt>
      <trkpt lat="42.71866" lon="1.64564">
        <ele>1702.916</ele>
        <time>2021-06-13T08:59:27Z</time>
      </trkpt>
      <trkpt lat="42.71866" lon="1.64564">
        <ele>1702.728</ele>
        <time>2021-06-13T08:59:29Z</time>
      </trkpt>
      <trkpt lat="42.71866" lon="1.64564">
        <ele>1702.726</ele>
        <time>2021-06-13T08:59:31Z</time>
      </trkpt>
      <trkpt lat="42.71867" lon="1.64565">
        <ele>1702.797</ele>
        <time>2021-06-13T08:59:33Z</time>
      </trkpt>
      <trkpt lat="42.71867" lon="1.64565">
        <ele>1702.792</ele>
        <time>2021-06-13T08:59:35Z</time>
      </trkpt>
      <trkpt lat="42.71867" lon="1.64565">
        <ele>1703.106</ele>
        <time>2021-06-13T08:59:37Z</time>
      </trkpt>
      <trkpt lat="42.71866" lon="1.64565">
        <ele>1703.117</ele>
        <time>2021-06-13T08:59:39Z</time>
      </trkpt>
      <trkpt lat="42.71866" lon="1.64565">
        <ele>1703.12</ele>
        <time>2021-06-13T08:59:41Z</time>
      </trkpt>
      <trkpt lat="42.71866" lon="1.64565">
        <ele>1703.383</ele>
        <time>2021-06-13T08:59:43Z</time>
      </trkpt>
      <trkpt lat="42.71866" lon="1.64564">
        <ele>1703.392</ele>
        <time>2021-06-13T08:59:45Z</time>
      </trkpt>
      <trkpt lat="42.71865" lon="1.64562">
        <ele>1703.351</ele>
        <time>2021-06-13T08:59:47Z</time>
      </trkpt>
      <trkpt lat="42.71864" lon="1.64559">
        <ele>1703.979</ele>
        <time>2021-06-13T08:59:49Z</time>
      </trkpt>
      <trkpt lat="42.71863" lon="1.64557">
        <ele>1703.818</ele>
        <time>2021-06-13T08:59:51Z</time>
      </trkpt>
      <trkpt lat="42.71862" lon="1.64555">
        <ele>1703.94</ele>
        <time>2021-06-13T08:59:53Z</time>
      </trkpt>
      <trkpt lat="42.7186" lon="1.64554">
        <ele>1703.906</ele>
        <time>2021-06-13T08:59:55Z</time>
      </trkpt>
      <trkpt lat="42.71859" lon="1.64552">
        <ele>1704.042</ele>
        <time>2021-06-13T08:59:57Z</time>
      </trkpt>
      <trkpt lat="42.71858" lon="1.64551">
        <ele>1703.999</ele>
        <time>2021-06-13T08:59:59Z</time>
      </trkpt>
      <trkpt lat="42.71857" lon="1.64549">
        <ele>1704.119</ele>
        <time>2021-06-13T09:00:01Z</time>
      </trkpt>
      <trkpt lat="42.71856" lon="1.64546">
        <ele>1704.034</ele>
        <time>2021-06-13T09:00:03Z</time>
      </trkpt>
      <trkpt lat="42.71856" lon="1.64543">
        <ele>1704.268</ele>
        <time>2021-06-13T09:00:05Z</time>
      </trkpt>
      <trkpt lat="42.71856" lon="1.6454">
        <ele>1704.221</ele>
        <time>2021-06-13T09:00:07Z</time>
      </trkpt>
      <trkpt lat="42.71855" lon="1.64538">
        <ele>1704.579</ele>
        <time>2021-06-13T09:00:09Z</time>
      </trkpt>
      <trkpt lat="42.71855" lon="1.64536">
        <ele>1704.945</ele>
        <time>2021-06-13T09:00:11Z</time>
      </trkpt>
      <trkpt lat="42.71855" lon="1.64534">
        <ele>1705.224</ele>
        <time>2021-06-13T09:00:13Z</time>
      </trkpt>
      <trkpt lat="42.71854" lon="1.64531">
        <ele>1705.243</ele>
        <time>2021-06-13T09:00:15Z</time>
      </trkpt>
      <trkpt lat="42.71853" lon="1.64529">
        <ele>1705.506</ele>
        <time>2021-06-13T09:00:17Z</time>
      </trkpt>
      <trkpt lat="42.71852" lon="1.64526">
        <ele>1705.416</ele>
        <time>2021-06-13T09:00:19Z</time>
      </trkpt>
      <trkpt lat="42.71852" lon="1.64524">
        <ele>1705.324</ele>
        <time>2021-06-13T09:00:21Z</time>
      </trkpt>
      <trkpt lat="42.71852" lon="1.64521">
        <ele>1705.159</ele>
        <time>2021-06-13T09:00:23Z</time>
      </trkpt>
      <trkpt lat="42.71852" lon="1.6452">
        <ele>1705.039</ele>
        <time>2021-06-13T09:00:25Z</time>
      </trkpt>
      <trkpt lat="42.71852" lon="1.64518">
        <ele>1704.822</ele>
        <time>2021-06-13T09:00:27Z</time>
      </trkpt>
      <trkpt lat="42.71852" lon="1.64515">
        <ele>1704.216</ele>
        <time>2021-06-13T09:00:29Z</time>
      </trkpt>
      <trkpt lat="42.71851" lon="1.64513">
        <ele>1704.267</ele>
        <time>2021-06-13T09:00:31Z</time>
      </trkpt>
      <trkpt lat="42.71851" lon="1.64511">
        <ele>1704.187</ele>
        <time>2021-06-13T09:00:33Z</time>
      </trkpt>
      <trkpt lat="42.7185" lon="1.64508">
        <ele>1704.638</ele>
        <time>2021-06-13T09:00:35Z</time>
      </trkpt>
      <trkpt lat="42.71849" lon="1.64506">
        <ele>1704.834</ele>
        <time>2021-06-13T09:00:37Z</time>
      </trkpt>
      <trkpt lat="42.71849" lon="1.64504">
        <ele>1705.098</ele>
        <time>2021-06-13T09:00:39Z</time>
      </trkpt>
      <trkpt lat="42.71848" lon="1.64501">
        <ele>1705.13</ele>
        <time>2021-06-13T09:00:41Z</time>
      </trkpt>
      <trkpt lat="42.71847" lon="1.645">
        <ele>1705.375</ele>
        <time>2021-06-13T09:00:43Z</time>
      </trkpt>
      <trkpt lat="42.71846" lon="1.64498">
        <ele>1705.802</ele>
        <time>2021-06-13T09:00:45Z</time>
      </trkpt>
      <trkpt lat="42.71844" lon="1.64496">
        <ele>1706.241</ele>
        <time>2021-06-13T09:00:47Z</time>
      </trkpt>
      <trkpt lat="42.71843" lon="1.64494">
        <ele>1707.085</ele>
        <time>2021-06-13T09:00:49Z</time>
      </trkpt>
      <trkpt lat="42.71842" lon="1.64492">
        <ele>1707.52</ele>
        <time>2021-06-13T09:00:51Z</time>
      </trkpt>
      <trkpt lat="42.71841" lon="1.6449">
        <ele>1707.568</ele>
        <time>2021-06-13T09:00:53Z</time>
      </trkpt>
      <trkpt lat="42.71839" lon="1.64489">
        <ele>1707.834</ele>
        <time>2021-06-13T09:00:55Z</time>
      </trkpt>
      <trkpt lat="42.71837" lon="1.64489">
        <ele>1708.353</ele>
        <time>2021-06-13T09:00:57Z</time>
      </trkpt>
      <trkpt lat="42.71834" lon="1.6449">
        <ele>1708.441</ele>
        <time>2021-06-13T09:00:59Z</time>
      </trkpt>
      <trkpt lat="42.71832" lon="1.64491">
        <ele>1708.905</ele>
        <time>2021-06-13T09:01:01Z</time>
      </trkpt>
      <trkpt lat="42.7183" lon="1.6449">
        <ele>1709.638</ele>
        <time>2021-06-13T09:01:03Z</time>
      </trkpt>
      <trkpt lat="42.71829" lon="1.6449">
        <ele>1709.659</ele>
        <time>2021-06-13T09:01:04Z</time>
      </trkpt>
      <trkpt lat="42.71825" lon="1.64485">
        <ele>1709.518</ele>
        <time>2021-06-13T09:01:10Z</time>
      </trkpt>
      <trkpt lat="42.71823" lon="1.64484">
        <ele>1709.299</ele>
        <time>2021-06-13T09:01:12Z</time>
      </trkpt>
      <trkpt lat="42.71822" lon="1.64482">
        <ele>1709.34</ele>
        <time>2021-06-13T09:01:14Z</time>
      </trkpt>
      <trkpt lat="42.7182" lon="1.64481">
        <ele>1709.559</ele>
        <time>2021-06-13T09:01:16Z</time>
      </trkpt>
      <trkpt lat="42.71818" lon="1.6448">
        <ele>1709.388</ele>
        <time>2021-06-13T09:01:18Z</time>
      </trkpt>
      <trkpt lat="42.71816" lon="1.64479">
        <ele>1708.29</ele>
        <time>2021-06-13T09:01:20Z</time>
      </trkpt>
      <trkpt lat="42.71815" lon="1.64478">
        <ele>1709.155</ele>
        <time>2021-06-13T09:01:22Z</time>
      </trkpt>
      <trkpt lat="42.71813" lon="1.64477">
        <ele>1709.291</ele>
        <time>2021-06-13T09:01:24Z</time>
      </trkpt>
      <trkpt lat="42.71811" lon="1.64476">
        <ele>1709.739</ele>
        <time>2021-06-13T09:01:26Z</time>
      </trkpt>
      <trkpt lat="42.71809" lon="1.64475">
        <ele>1709.69</ele>
        <time>2021-06-13T09:01:28Z</time>
      </trkpt>
      <trkpt lat="42.71808" lon="1.64473">
        <ele>1709.632</ele>
        <time>2021-06-13T09:01:30Z</time>
      </trkpt>
      <trkpt lat="42.71806" lon="1.64472">
        <ele>1709.573</ele>
        <time>2021-06-13T09:01:32Z</time>
      </trkpt>
      <trkpt lat="42.71804" lon="1.6447">
        <ele>1709.881</ele>
        <time>2021-06-13T09:01:34Z</time>
      </trkpt>
      <trkpt lat="42.71803" lon="1.64469">
        <ele>1709.405</ele>
        <time>2021-06-13T09:01:36Z</time>
      </trkpt>
      <trkpt lat="42.71801" lon="1.64469">
        <ele>1709.747</ele>
        <time>2021-06-13T09:01:38Z</time>
      </trkpt>
      <trkpt lat="42.718" lon="1.64467">
        <ele>1709.904</ele>
        <time>2021-06-13T09:01:40Z</time>
      </trkpt>
      <trkpt lat="42.71799" lon="1.64465">
        <ele>1710.341</ele>
        <time>2021-06-13T09:01:42Z</time>
      </trkpt>
      <trkpt lat="42.71798" lon="1.64462">
        <ele>1710.506</ele>
        <time>2021-06-13T09:01:44Z</time>
      </trkpt>
      <trkpt lat="42.71798" lon="1.6446">
        <ele>1711.281</ele>
        <time>2021-06-13T09:01:46Z</time>
      </trkpt>
      <trkpt lat="42.71797" lon="1.64457">
        <ele>1712.031</ele>
        <time>2021-06-13T09:01:48Z</time>
      </trkpt>
      <trkpt lat="42.71796" lon="1.64454">
        <ele>1712.898</ele>
        <time>2021-06-13T09:01:50Z</time>
      </trkpt>
      <trkpt lat="42.71796" lon="1.64452">
        <ele>1713.086</ele>
        <time>2021-06-13T09:01:52Z</time>
      </trkpt>
      <trkpt lat="42.71795" lon="1.64449">
        <ele>1713.901</ele>
        <time>2021-06-13T09:01:54Z</time>
      </trkpt>
      <trkpt lat="42.71795" lon="1.64447">
        <ele>1713.886</ele>
        <time>2021-06-13T09:01:56Z</time>
      </trkpt>
      <trkpt lat="42.71794" lon="1.64444">
        <ele>1714.577</ele>
        <time>2021-06-13T09:01:58Z</time>
      </trkpt>
      <trkpt lat="42.71794" lon="1.64442">
        <ele>1714.496</ele>
        <time>2021-06-13T09:02:00Z</time>
      </trkpt>
      <trkpt lat="42.71792" lon="1.64441">
        <ele>1714.904</ele>
        <time>2021-06-13T09:02:02Z</time>
      </trkpt>
      <trkpt lat="42.7179" lon="1.64441">
        <ele>1714.847</ele>
        <time>2021-06-13T09:02:04Z</time>
      </trkpt>
      <trkpt lat="42.71788" lon="1.64442">
        <ele>1714.986</ele>
        <time>2021-06-13T09:02:06Z</time>
      </trkpt>
      <trkpt lat="42.71786" lon="1.64443">
        <ele>1715.061</ele>
        <time>2021-06-13T09:02:08Z</time>
      </trkpt>
      <trkpt lat="42.71784" lon="1.64445">
        <ele>1715.612</ele>
        <time>2021-06-13T09:02:10Z</time>
      </trkpt>
      <trkpt lat="42.71782" lon="1.64445">
        <ele>1715.973</ele>
        <time>2021-06-13T09:02:12Z</time>
      </trkpt>
      <trkpt lat="42.71781" lon="1.64444">
        <ele>1715.896</ele>
        <time>2021-06-13T09:02:14Z</time>
      </trkpt>
      <trkpt lat="42.71779" lon="1.64442">
        <ele>1716.51</ele>
        <time>2021-06-13T09:02:16Z</time>
      </trkpt>
      <trkpt lat="42.71779" lon="1.64439">
        <ele>1716.641</ele>
        <time>2021-06-13T09:02:18Z</time>
      </trkpt>
      <trkpt lat="42.71778" lon="1.64437">
        <ele>1717.024</ele>
        <time>2021-06-13T09:02:20Z</time>
      </trkpt>
      <trkpt lat="42.71778" lon="1.64436">
        <ele>1716.602</ele>
        <time>2021-06-13T09:02:22Z</time>
      </trkpt>
      <trkpt lat="42.71779" lon="1.64433">
        <ele>1717.203</ele>
        <time>2021-06-13T09:02:24Z</time>
      </trkpt>
      <trkpt lat="42.71778" lon="1.64431">
        <ele>1717.17</ele>
        <time>2021-06-13T09:02:26Z</time>
      </trkpt>
      <trkpt lat="42.71778" lon="1.64429">
        <ele>1717.417</ele>
        <time>2021-06-13T09:02:28Z</time>
      </trkpt>
      <trkpt lat="42.71778" lon="1.64427">
        <ele>1717.717</ele>
        <time>2021-06-13T09:02:30Z</time>
      </trkpt>
      <trkpt lat="42.71778" lon="1.64424">
        <ele>1717.766</ele>
        <time>2021-06-13T09:02:32Z</time>
      </trkpt>
      <trkpt lat="42.71777" lon="1.64422">
        <ele>1717.704</ele>
        <time>2021-06-13T09:02:34Z</time>
      </trkpt>
      <trkpt lat="42.71776" lon="1.6442">
        <ele>1717.861</ele>
        <time>2021-06-13T09:02:36Z</time>
      </trkpt>
      <trkpt lat="42.71775" lon="1.64418">
        <ele>1718.511</ele>
        <time>2021-06-13T09:02:38Z</time>
      </trkpt>
      <trkpt lat="42.71774" lon="1.64416">
        <ele>1719.017</ele>
        <time>2021-06-13T09:02:40Z</time>
      </trkpt>
      <trkpt lat="42.71773" lon="1.64414">
        <ele>1719.7</ele>
        <time>2021-06-13T09:02:42Z</time>
      </trkpt>
      <trkpt lat="42.71772" lon="1.64413">
        <ele>1719.762</ele>
        <time>2021-06-13T09:02:44Z</time>
      </trkpt>
      <trkpt lat="42.7177" lon="1.64411">
        <ele>1720.156</ele>
        <time>2021-06-13T09:02:46Z</time>
      </trkpt>
      <trkpt lat="42.71768" lon="1.64409">
        <ele>1720.56</ele>
        <time>2021-06-13T09:02:48Z</time>
      </trkpt>
      <trkpt lat="42.71767" lon="1.64407">
        <ele>1721.087</ele>
        <time>2021-06-13T09:02:50Z</time>
      </trkpt>
      <trkpt lat="42.71766" lon="1.64405">
        <ele>1721.112</ele>
        <time>2021-06-13T09:02:52Z</time>
      </trkpt>
      <trkpt lat="42.71764" lon="1.64403">
        <ele>1721.81</ele>
        <time>2021-06-13T09:02:54Z</time>
      </trkpt>
      <trkpt lat="42.71763" lon="1.64402">
        <ele>1722.114</ele>
        <time>2021-06-13T09:02:56Z</time>
      </trkpt>
      <trkpt lat="42.71761" lon="1.644">
        <ele>1722.019</ele>
        <time>2021-06-13T09:02:58Z</time>
      </trkpt>
      <trkpt lat="42.7176" lon="1.64398">
        <ele>1722.071</ele>
        <time>2021-06-13T09:03:00Z</time>
      </trkpt>
      <trkpt lat="42.71758" lon="1.64397">
        <ele>1721.858</ele>
        <time>2021-06-13T09:03:02Z</time>
      </trkpt>
      <trkpt lat="42.71756" lon="1.64396">
        <ele>1722.224</ele>
        <time>2021-06-13T09:03:04Z</time>
      </trkpt>
      <trkpt lat="42.71754" lon="1.64396">
        <ele>1721.471</ele>
        <time>2021-06-13T09:03:06Z</time>
      </trkpt>
      <trkpt lat="42.71752" lon="1.64395">
        <ele>1721.729</ele>
        <time>2021-06-13T09:03:08Z</time>
      </trkpt>
      <trkpt lat="42.7175" lon="1.64394">
        <ele>1721.655</ele>
        <time>2021-06-13T09:03:10Z</time>
      </trkpt>
      <trkpt lat="42.71749" lon="1.64393">
        <ele>1721.796</ele>
        <time>2021-06-13T09:03:12Z</time>
      </trkpt>
      <trkpt lat="42.71748" lon="1.64391">
        <ele>1721.773</ele>
        <time>2021-06-13T09:03:14Z</time>
      </trkpt>
      <trkpt lat="42.71746" lon="1.6439">
        <ele>1722.43</ele>
        <time>2021-06-13T09:03:16Z</time>
      </trkpt>
      <trkpt lat="42.71745" lon="1.64388">
        <ele>1723.089</ele>
        <time>2021-06-13T09:03:18Z</time>
      </trkpt>
      <trkpt lat="42.71744" lon="1.64386">
        <ele>1723.005</ele>
        <time>2021-06-13T09:03:20Z</time>
      </trkpt>
      <trkpt lat="42.71742" lon="1.64385">
        <ele>1723.521</ele>
        <time>2021-06-13T09:03:22Z</time>
      </trkpt>
      <trkpt lat="42.7174" lon="1.64384">
        <ele>1723.627</ele>
        <time>2021-06-13T09:03:24Z</time>
      </trkpt>
      <trkpt lat="42.71739" lon="1.64383">
        <ele>1723.655</ele>
        <time>2021-06-13T09:03:26Z</time>
      </trkpt>
      <trkpt lat="42.71737" lon="1.64381">
        <ele>1723.912</ele>
        <time>2021-06-13T09:03:28Z</time>
      </trkpt>
      <trkpt lat="42.71736" lon="1.64379">
        <ele>1724.567</ele>
        <time>2021-06-13T09:03:30Z</time>
      </trkpt>
      <trkpt lat="42.71735" lon="1.64376">
        <ele>1724.754</ele>
        <time>2021-06-13T09:03:32Z</time>
      </trkpt>
      <trkpt lat="42.71734" lon="1.64374">
        <ele>1724.971</ele>
        <time>2021-06-13T09:03:34Z</time>
      </trkpt>
      <trkpt lat="42.71733" lon="1.64372">
        <ele>1725.322</ele>
        <time>2021-06-13T09:03:36Z</time>
      </trkpt>
      <trkpt lat="42.71732" lon="1.64369">
        <ele>1725.724</ele>
        <time>2021-06-13T09:03:38Z</time>
      </trkpt>
      <trkpt lat="42.71731" lon="1.64366">
        <ele>1725.755</ele>
        <time>2021-06-13T09:03:40Z</time>
      </trkpt>
      <trkpt lat="42.71731" lon="1.64364">
        <ele>1725.908</ele>
        <time>2021-06-13T09:03:42Z</time>
      </trkpt>
      <trkpt lat="42.7173" lon="1.64362">
        <ele>1726.077</ele>
        <time>2021-06-13T09:03:44Z</time>
      </trkpt>
      <trkpt lat="42.7173" lon="1.64359">
        <ele>1726.555</ele>
        <time>2021-06-13T09:03:46Z</time>
      </trkpt>
      <trkpt lat="42.71729" lon="1.64357">
        <ele>1727.219</ele>
        <time>2021-06-13T09:03:48Z</time>
      </trkpt>
      <trkpt lat="42.71728" lon="1.64355">
        <ele>1727.56</ele>
        <time>2021-06-13T09:03:50Z</time>
      </trkpt>
      <trkpt lat="42.71727" lon="1.64352">
        <ele>1728.241</ele>
        <time>2021-06-13T09:03:52Z</time>
      </trkpt>
      <trkpt lat="42.71726" lon="1.6435">
        <ele>1728.759</ele>
        <time>2021-06-13T09:03:54Z</time>
      </trkpt>
      <trkpt lat="42.71725" lon="1.64348">
        <ele>1729.217</ele>
        <time>2021-06-13T09:03:56Z</time>
      </trkpt>
      <trkpt lat="42.71723" lon="1.64346">
        <ele>1728.963</ele>
        <time>2021-06-13T09:03:58Z</time>
      </trkpt>
      <trkpt lat="42.71722" lon="1.64344">
        <ele>1728.833</ele>
        <time>2021-06-13T09:04:00Z</time>
      </trkpt>
      <trkpt lat="42.71721" lon="1.64343">
        <ele>1728.925</ele>
        <time>2021-06-13T09:04:02Z</time>
      </trkpt>
      <trkpt lat="42.7172" lon="1.64341">
        <ele>1729.095</ele>
        <time>2021-06-13T09:04:04Z</time>
      </trkpt>
      <trkpt lat="42.71719" lon="1.64339">
        <ele>1729.493</ele>
        <time>2021-06-13T09:04:06Z</time>
      </trkpt>
      <trkpt lat="42.71718" lon="1.64337">
        <ele>1729.011</ele>
        <time>2021-06-13T09:04:08Z</time>
      </trkpt>
      <trkpt lat="42.71718" lon="1.64334">
        <ele>1729.838</ele>
        <time>2021-06-13T09:04:10Z</time>
      </trkpt>
      <trkpt lat="42.71717" lon="1.64332">
        <ele>1730.303</ele>
        <time>2021-06-13T09:04:12Z</time>
      </trkpt>
      <trkpt lat="42.71715" lon="1.64331">
        <ele>1730.296</ele>
        <time>2021-06-13T09:04:14Z</time>
      </trkpt>
      <trkpt lat="42.71714" lon="1.64329">
        <ele>1730.232</ele>
        <time>2021-06-13T09:04:16Z</time>
      </trkpt>
      <trkpt lat="42.71713" lon="1.64327">
        <ele>1730.109</ele>
        <time>2021-06-13T09:04:18Z</time>
      </trkpt>
      <trkpt lat="42.71711" lon="1.64325">
        <ele>1730.178</ele>
        <time>2021-06-13T09:04:20Z</time>
      </trkpt>
      <trkpt lat="42.7171" lon="1.64323">
        <ele>1730.141</ele>
        <time>2021-06-13T09:04:22Z</time>
      </trkpt>
      <trkpt lat="42.71709" lon="1.6432">
        <ele>1730.694</ele>
        <time>2021-06-13T09:04:24Z</time>
      </trkpt>
      <trkpt lat="42.71708" lon="1.64319">
        <ele>1730.866</ele>
        <time>2021-06-13T09:04:26Z</time>
      </trkpt>
      <trkpt lat="42.71707" lon="1.64318">
        <ele>1730.991</ele>
        <time>2021-06-13T09:04:28Z</time>
      </trkpt>
      <trkpt lat="42.71707" lon="1.64318">
        <ele>1730.886</ele>
        <time>2021-06-13T09:04:30Z</time>
      </trkpt>
      <trkpt lat="42.71707" lon="1.64316">
        <ele>1731.065</ele>
        <time>2021-06-13T09:04:32Z</time>
      </trkpt>
      <trkpt lat="42.71707" lon="1.64315">
        <ele>1731.483</ele>
        <time>2021-06-13T09:04:34Z</time>
      </trkpt>
      <trkpt lat="42.71706" lon="1.64313">
        <ele>1732.188</ele>
        <time>2021-06-13T09:04:36Z</time>
      </trkpt>
      <trkpt lat="42.71704" lon="1.64311">
        <ele>1733.093</ele>
        <time>2021-06-13T09:04:38Z</time>
      </trkpt>
      <trkpt lat="42.71703" lon="1.64309">
        <ele>1733.288</ele>
        <time>2021-06-13T09:04:40Z</time>
      </trkpt>
      <trkpt lat="42.71702" lon="1.64307">
        <ele>1733.603</ele>
        <time>2021-06-13T09:04:42Z</time>
      </trkpt>
      <trkpt lat="42.71701" lon="1.64305">
        <ele>1733.866</ele>
        <time>2021-06-13T09:04:44Z</time>
      </trkpt>
      <trkpt lat="42.71701" lon="1.64302">
        <ele>1734.268</ele>
        <time>2021-06-13T09:04:46Z</time>
      </trkpt>
      <trkpt lat="42.717" lon="1.643">
        <ele>1734.389</ele>
        <time>2021-06-13T09:04:48Z</time>
      </trkpt>
      <trkpt lat="42.71699" lon="1.64298">
        <ele>1734.763</ele>
        <time>2021-06-13T09:04:50Z</time>
      </trkpt>
      <trkpt lat="42.71697" lon="1.64296">
        <ele>1734.93</ele>
        <time>2021-06-13T09:04:52Z</time>
      </trkpt>
      <trkpt lat="42.71696" lon="1.64295">
        <ele>1735.303</ele>
        <time>2021-06-13T09:04:54Z</time>
      </trkpt>
      <trkpt lat="42.71694" lon="1.64293">
        <ele>1735.396</ele>
        <time>2021-06-13T09:04:56Z</time>
      </trkpt>
      <trkpt lat="42.71693" lon="1.64292">
        <ele>1735.768</ele>
        <time>2021-06-13T09:04:57Z</time>
      </trkpt>
      <trkpt lat="42.71691" lon="1.64289">
        <ele>1736.214</ele>
        <time>2021-06-13T09:05:00Z</time>
      </trkpt>
      <trkpt lat="42.71691" lon="1.64288">
        <ele>1736.399</ele>
        <time>2021-06-13T09:05:01Z</time>
      </trkpt>
      <trkpt lat="42.71687" lon="1.64279">
        <ele>1737.796</ele>
        <time>2021-06-13T09:05:08Z</time>
      </trkpt>
      <trkpt lat="42.71686" lon="1.64277">
        <ele>1737.908</ele>
        <time>2021-06-13T09:05:10Z</time>
      </trkpt>
      <trkpt lat="42.71684" lon="1.64275">
        <ele>1737.788</ele>
        <time>2021-06-13T09:05:12Z</time>
      </trkpt>
      <trkpt lat="42.71682" lon="1.64273">
        <ele>1737.92</ele>
        <time>2021-06-13T09:05:14Z</time>
      </trkpt>
      <trkpt lat="42.7168" lon="1.64272">
        <ele>1737.746</ele>
        <time>2021-06-13T09:05:16Z</time>
      </trkpt>
      <trkpt lat="42.71679" lon="1.64271">
        <ele>1737.577</ele>
        <time>2021-06-13T09:05:18Z</time>
      </trkpt>
      <trkpt lat="42.71677" lon="1.64269">
        <ele>1738.137</ele>
        <time>2021-06-13T09:05:20Z</time>
      </trkpt>
      <trkpt lat="42.71676" lon="1.64267">
        <ele>1737.949</ele>
        <time>2021-06-13T09:05:22Z</time>
      </trkpt>
      <trkpt lat="42.71675" lon="1.64264">
        <ele>1737.866</ele>
        <time>2021-06-13T09:05:24Z</time>
      </trkpt>
      <trkpt lat="42.71675" lon="1.64261">
        <ele>1738.682</ele>
        <time>2021-06-13T09:05:26Z</time>
      </trkpt>
      <trkpt lat="42.71675" lon="1.64258">
        <ele>1739.446</ele>
        <time>2021-06-13T09:05:28Z</time>
      </trkpt>
      <trkpt lat="42.71675" lon="1.64255">
        <ele>1739.766</ele>
        <time>2021-06-13T09:05:30Z</time>
      </trkpt>
      <trkpt lat="42.71674" lon="1.64253">
        <ele>1739.66</ele>
        <time>2021-06-13T09:05:32Z</time>
      </trkpt>
      <trkpt lat="42.71673" lon="1.6425">
        <ele>1740.089</ele>
        <time>2021-06-13T09:05:34Z</time>
      </trkpt>
      <trkpt lat="42.71673" lon="1.64248">
        <ele>1740.331</ele>
        <time>2021-06-13T09:05:36Z</time>
      </trkpt>
      <trkpt lat="42.71672" lon="1.64246">
        <ele>1740.238</ele>
        <time>2021-06-13T09:05:38Z</time>
      </trkpt>
      <trkpt lat="42.71671" lon="1.64244">
        <ele>1740.28</ele>
        <time>2021-06-13T09:05:40Z</time>
      </trkpt>
      <trkpt lat="42.71671" lon="1.64242">
        <ele>1739.911</ele>
        <time>2021-06-13T09:05:42Z</time>
      </trkpt>
      <trkpt lat="42.71671" lon="1.6424">
        <ele>1740.647</ele>
        <time>2021-06-13T09:05:44Z</time>
      </trkpt>
      <trkpt lat="42.71672" lon="1.64237">
        <ele>1741.003</ele>
        <time>2021-06-13T09:05:46Z</time>
      </trkpt>
      <trkpt lat="42.71673" lon="1.64234">
        <ele>1741.532</ele>
        <time>2021-06-13T09:05:48Z</time>
      </trkpt>
      <trkpt lat="42.71674" lon="1.64232">
        <ele>1741.448</ele>
        <time>2021-06-13T09:05:50Z</time>
      </trkpt>
      <trkpt lat="42.71675" lon="1.64229">
        <ele>1742.107</ele>
        <time>2021-06-13T09:05:52Z</time>
      </trkpt>
      <trkpt lat="42.71675" lon="1.64226">
        <ele>1741.886</ele>
        <time>2021-06-13T09:05:54Z</time>
      </trkpt>
      <trkpt lat="42.71674" lon="1.64224">
        <ele>1741.732</ele>
        <time>2021-06-13T09:05:56Z</time>
      </trkpt>
      <trkpt lat="42.71672" lon="1.64221">
        <ele>1741.554</ele>
        <time>2021-06-13T09:05:58Z</time>
      </trkpt>
      <trkpt lat="42.7167" lon="1.64219">
        <ele>1742.114</ele>
        <time>2021-06-13T09:06:00Z</time>
      </trkpt>
      <trkpt lat="42.71669" lon="1.64217">
        <ele>1741.866</ele>
        <time>2021-06-13T09:06:02Z</time>
      </trkpt>
      <trkpt lat="42.71667" lon="1.64214">
        <ele>1742.078</ele>
        <time>2021-06-13T09:06:04Z</time>
      </trkpt>
      <trkpt lat="42.71666" lon="1.64212">
        <ele>1741.634</ele>
        <time>2021-06-13T09:06:06Z</time>
      </trkpt>
      <trkpt lat="42.71665" lon="1.64209">
        <ele>1741.632</ele>
        <time>2021-06-13T09:06:08Z</time>
      </trkpt>
      <trkpt lat="42.71664" lon="1.64207">
        <ele>1741.439</ele>
        <time>2021-06-13T09:06:10Z</time>
      </trkpt>
      <trkpt lat="42.71663" lon="1.64204">
        <ele>1741.377</ele>
        <time>2021-06-13T09:06:12Z</time>
      </trkpt>
      <trkpt lat="42.71662" lon="1.64201">
        <ele>1741.988</ele>
        <time>2021-06-13T09:06:14Z</time>
      </trkpt>
      <trkpt lat="42.71661" lon="1.64199">
        <ele>1741.887</ele>
        <time>2021-06-13T09:06:16Z</time>
      </trkpt>
      <trkpt lat="42.7166" lon="1.64196">
        <ele>1742.341</ele>
        <time>2021-06-13T09:06:18Z</time>
      </trkpt>
      <trkpt lat="42.71659" lon="1.64193">
        <ele>1742.653</ele>
        <time>2021-06-13T09:06:20Z</time>
      </trkpt>
      <trkpt lat="42.71658" lon="1.64189">
        <ele>1742.175</ele>
        <time>2021-06-13T09:06:22Z</time>
      </trkpt>
      <trkpt lat="42.71658" lon="1.64187">
        <ele>1742.506</ele>
        <time>2021-06-13T09:06:24Z</time>
      </trkpt>
      <trkpt lat="42.71657" lon="1.64184">
        <ele>1743.266</ele>
        <time>2021-06-13T09:06:26Z</time>
      </trkpt>
      <trkpt lat="42.71657" lon="1.64181">
        <ele>1743.314</ele>
        <time>2021-06-13T09:06:28Z</time>
      </trkpt>
      <trkpt lat="42.71657" lon="1.64178">
        <ele>1743.678</ele>
        <time>2021-06-13T09:06:30Z</time>
      </trkpt>
      <trkpt lat="42.71657" lon="1.64174">
        <ele>1743.803</ele>
        <time>2021-06-13T09:06:32Z</time>
      </trkpt>
      <trkpt lat="42.71657" lon="1.64171">
        <ele>1743.678</ele>
        <time>2021-06-13T09:06:34Z</time>
      </trkpt>
      <trkpt lat="42.71656" lon="1.64168">
        <ele>1743.558</ele>
        <time>2021-06-13T09:06:36Z</time>
      </trkpt>
      <trkpt lat="42.71656" lon="1.64165">
        <ele>1743.399</ele>
        <time>2021-06-13T09:06:38Z</time>
      </trkpt>
      <trkpt lat="42.71656" lon="1.64162">
        <ele>1743.722</ele>
        <time>2021-06-13T09:06:40Z</time>
      </trkpt>
      <trkpt lat="42.71656" lon="1.64159">
        <ele>1744.514</ele>
        <time>2021-06-13T09:06:42Z</time>
      </trkpt>
      <trkpt lat="42.71657" lon="1.64156">
        <ele>1744.907</ele>
        <time>2021-06-13T09:06:44Z</time>
      </trkpt>
      <trkpt lat="42.71657" lon="1.64154">
        <ele>1744.869</ele>
        <time>2021-06-13T09:06:46Z</time>
      </trkpt>
      <trkpt lat="42.71657" lon="1.64151">
        <ele>1745.815</ele>
        <time>2021-06-13T09:06:48Z</time>
      </trkpt>
      <trkpt lat="42.71657" lon="1.64148">
        <ele>1746.357</ele>
        <time>2021-06-13T09:06:50Z</time>
      </trkpt>
      <trkpt lat="42.71656" lon="1.64145">
        <ele>1746.695</ele>
        <time>2021-06-13T09:06:52Z</time>
      </trkpt>
      <trkpt lat="42.71656" lon="1.64142">
        <ele>1747.24</ele>
        <time>2021-06-13T09:06:54Z</time>
      </trkpt>
      <trkpt lat="42.71656" lon="1.64139">
        <ele>1747.442</ele>
        <time>2021-06-13T09:06:56Z</time>
      </trkpt>
      <trkpt lat="42.71656" lon="1.64136">
        <ele>1747.965</ele>
        <time>2021-06-13T09:06:58Z</time>
      </trkpt>
      <trkpt lat="42.71656" lon="1.64133">
        <ele>1748.13</ele>
        <time>2021-06-13T09:07:00Z</time>
      </trkpt>
      <trkpt lat="42.71656" lon="1.6413">
        <ele>1747.961</ele>
        <time>2021-06-13T09:07:02Z</time>
      </trkpt>
      <trkpt lat="42.71656" lon="1.64128">
        <ele>1747.186</ele>
        <time>2021-06-13T09:07:04Z</time>
      </trkpt>
      <trkpt lat="42.71656" lon="1.64125">
        <ele>1747.142</ele>
        <time>2021-06-13T09:07:06Z</time>
      </trkpt>
      <trkpt lat="42.71656" lon="1.64122">
        <ele>1746.913</ele>
        <time>2021-06-13T09:07:08Z</time>
      </trkpt>
      <trkpt lat="42.71656" lon="1.64119">
        <ele>1747.495</ele>
        <time>2021-06-13T09:07:10Z</time>
      </trkpt>
      <trkpt lat="42.71656" lon="1.64116">
        <ele>1747.98</ele>
        <time>2021-06-13T09:07:12Z</time>
      </trkpt>
      <trkpt lat="42.71656" lon="1.64113">
        <ele>1747.479</ele>
        <time>2021-06-13T09:07:14Z</time>
      </trkpt>
      <trkpt lat="42.71656" lon="1.6411">
        <ele>1747.318</ele>
        <time>2021-06-13T09:07:16Z</time>
      </trkpt>
      <trkpt lat="42.71656" lon="1.64106">
        <ele>1747.387</ele>
        <time>2021-06-13T09:07:18Z</time>
      </trkpt>
      <trkpt lat="42.71656" lon="1.64103">
        <ele>1747.091</ele>
        <time>2021-06-13T09:07:20Z</time>
      </trkpt>
      <trkpt lat="42.71656" lon="1.641">
        <ele>1747.309</ele>
        <time>2021-06-13T09:07:22Z</time>
      </trkpt>
      <trkpt lat="42.71656" lon="1.64096">
        <ele>1747.64</ele>
        <time>2021-06-13T09:07:24Z</time>
      </trkpt>
      <trkpt lat="42.71656" lon="1.64093">
        <ele>1747.981</ele>
        <time>2021-06-13T09:07:26Z</time>
      </trkpt>
      <trkpt lat="42.71656" lon="1.64089">
        <ele>1748.088</ele>
        <time>2021-06-13T09:07:28Z</time>
      </trkpt>
      <trkpt lat="42.71656" lon="1.64086">
        <ele>1747.729</ele>
        <time>2021-06-13T09:07:30Z</time>
      </trkpt>
      <trkpt lat="42.71656" lon="1.64083">
        <ele>1747.884</ele>
        <time>2021-06-13T09:07:32Z</time>
      </trkpt>
      <trkpt lat="42.71655" lon="1.64079">
        <ele>1747.8</ele>
        <time>2021-06-13T09:07:34Z</time>
      </trkpt>
      <trkpt lat="42.71655" lon="1.64076">
        <ele>1747.95</ele>
        <time>2021-06-13T09:07:36Z</time>
      </trkpt>
      <trkpt lat="42.71655" lon="1.64072">
        <ele>1748.132</ele>
        <time>2021-06-13T09:07:38Z</time>
      </trkpt>
      <trkpt lat="42.71655" lon="1.64069">
        <ele>1748.701</ele>
        <time>2021-06-13T09:07:40Z</time>
      </trkpt>
      <trkpt lat="42.71654" lon="1.64066">
        <ele>1748.542</ele>
        <time>2021-06-13T09:07:42Z</time>
      </trkpt>
      <trkpt lat="42.71654" lon="1.64063">
        <ele>1748.855</ele>
        <time>2021-06-13T09:07:44Z</time>
      </trkpt>
      <trkpt lat="42.71653" lon="1.6406">
        <ele>1749.18</ele>
        <time>2021-06-13T09:07:46Z</time>
      </trkpt>
      <trkpt lat="42.71652" lon="1.64058">
        <ele>1748.102</ele>
        <time>2021-06-13T09:07:48Z</time>
      </trkpt>
      <trkpt lat="42.71652" lon="1.64057">
        <ele>1747.691</ele>
        <time>2021-06-13T09:07:50Z</time>
      </trkpt>
      <trkpt lat="42.71651" lon="1.64054">
        <ele>1747.995</ele>
        <time>2021-06-13T09:07:52Z</time>
      </trkpt>
      <trkpt lat="42.71651" lon="1.6405">
        <ele>1748.783</ele>
        <time>2021-06-13T09:07:54Z</time>
      </trkpt>
      <trkpt lat="42.7165" lon="1.64047">
        <ele>1748.787</ele>
        <time>2021-06-13T09:07:56Z</time>
      </trkpt>
      <trkpt lat="42.71649" lon="1.64044">
        <ele>1748.697</ele>
        <time>2021-06-13T09:07:58Z</time>
      </trkpt>
      <trkpt lat="42.71648" lon="1.64041">
        <ele>1748.976</ele>
        <time>2021-06-13T09:08:00Z</time>
      </trkpt>
      <trkpt lat="42.71648" lon="1.64038">
        <ele>1748.991</ele>
        <time>2021-06-13T09:08:02Z</time>
      </trkpt>
      <trkpt lat="42.71647" lon="1.64035">
        <ele>1749.358</ele>
        <time>2021-06-13T09:08:04Z</time>
      </trkpt>
      <trkpt lat="42.71646" lon="1.64032">
        <ele>1749.423</ele>
        <time>2021-06-13T09:08:06Z</time>
      </trkpt>
      <trkpt lat="42.71645" lon="1.64029">
        <ele>1750.111</ele>
        <time>2021-06-13T09:08:08Z</time>
      </trkpt>
      <trkpt lat="42.71644" lon="1.64026">
        <ele>1750.57</ele>
        <time>2021-06-13T09:08:10Z</time>
      </trkpt>
      <trkpt lat="42.71644" lon="1.64023">
        <ele>1750.627</ele>
        <time>2021-06-13T09:08:12Z</time>
      </trkpt>
      <trkpt lat="42.71643" lon="1.6402">
        <ele>1751.085</ele>
        <time>2021-06-13T09:08:14Z</time>
      </trkpt>
      <trkpt lat="42.71642" lon="1.64017">
        <ele>1751.559</ele>
        <time>2021-06-13T09:08:16Z</time>
      </trkpt>
      <trkpt lat="42.71641" lon="1.64014">
        <ele>1751.577</ele>
        <time>2021-06-13T09:08:18Z</time>
      </trkpt>
      <trkpt lat="42.7164" lon="1.64011">
        <ele>1751.738</ele>
        <time>2021-06-13T09:08:20Z</time>
      </trkpt>
      <trkpt lat="42.7164" lon="1.64009">
        <ele>1751.888</ele>
        <time>2021-06-13T09:08:22Z</time>
      </trkpt>
      <trkpt lat="42.71639" lon="1.64006">
        <ele>1752.179</ele>
        <time>2021-06-13T09:08:24Z</time>
      </trkpt>
      <trkpt lat="42.71638" lon="1.64004">
        <ele>1752.018</ele>
        <time>2021-06-13T09:08:26Z</time>
      </trkpt>
      <trkpt lat="42.71637" lon="1.64002">
        <ele>1752.435</ele>
        <time>2021-06-13T09:08:28Z</time>
      </trkpt>
      <trkpt lat="42.71636" lon="1.64">
        <ele>1752.46</ele>
        <time>2021-06-13T09:08:30Z</time>
      </trkpt>
      <trkpt lat="42.71635" lon="1.63998">
        <ele>1752.674</ele>
        <time>2021-06-13T09:08:32Z</time>
      </trkpt>
      <trkpt lat="42.71634" lon="1.63995">
        <ele>1753.273</ele>
        <time>2021-06-13T09:08:34Z</time>
      </trkpt>
      <trkpt lat="42.71633" lon="1.63993">
        <ele>1753.672</ele>
        <time>2021-06-13T09:08:36Z</time>
      </trkpt>
      <trkpt lat="42.71632" lon="1.63991">
        <ele>1754.342</ele>
        <time>2021-06-13T09:08:38Z</time>
      </trkpt>
      <trkpt lat="42.71631" lon="1.63989">
        <ele>1754.435</ele>
        <time>2021-06-13T09:08:40Z</time>
      </trkpt>
      <trkpt lat="42.7163" lon="1.63987">
        <ele>1755.251</ele>
        <time>2021-06-13T09:08:42Z</time>
      </trkpt>
      <trkpt lat="42.71628" lon="1.63985">
        <ele>1755.242</ele>
        <time>2021-06-13T09:08:44Z</time>
      </trkpt>
      <trkpt lat="42.71626" lon="1.63984">
        <ele>1755.41</ele>
        <time>2021-06-13T09:08:46Z</time>
      </trkpt>
      <trkpt lat="42.71625" lon="1.63982">
        <ele>1756.121</ele>
        <time>2021-06-13T09:08:48Z</time>
      </trkpt>
      <trkpt lat="42.71624" lon="1.63981">
        <ele>1756.596</ele>
        <time>2021-06-13T09:08:50Z</time>
      </trkpt>
      <trkpt lat="42.71622" lon="1.63979">
        <ele>1756.385</ele>
        <time>2021-06-13T09:08:52Z</time>
      </trkpt>
      <trkpt lat="42.71621" lon="1.63977">
        <ele>1757.031</ele>
        <time>2021-06-13T09:08:54Z</time>
      </trkpt>
      <trkpt lat="42.7162" lon="1.63975">
        <ele>1756.953</ele>
        <time>2021-06-13T09:08:56Z</time>
      </trkpt>
      <trkpt lat="42.7162" lon="1.63973">
        <ele>1757.307</ele>
        <time>2021-06-13T09:08:58Z</time>
      </trkpt>
      <trkpt lat="42.71619" lon="1.63971">
        <ele>1757.51</ele>
        <time>2021-06-13T09:09:00Z</time>
      </trkpt>
      <trkpt lat="42.71618" lon="1.6397">
        <ele>1758.23</ele>
        <time>2021-06-13T09:09:02Z</time>
      </trkpt>
      <trkpt lat="42.71617" lon="1.63969">
        <ele>1757.84</ele>
        <time>2021-06-13T09:09:03Z</time>
      </trkpt>
      <trkpt lat="42.71616" lon="1.63967">
        <ele>1758.042</ele>
        <time>2021-06-13T09:09:05Z</time>
      </trkpt>
      <trkpt lat="42.71611" lon="1.63962">
        <ele>1758.49</ele>
        <time>2021-06-13T09:09:12Z</time>
      </trkpt>
      <trkpt lat="42.7161" lon="1.6396">
        <ele>1758.668</ele>
        <time>2021-06-13T09:09:14Z</time>
      </trkpt>
      <trkpt lat="42.71608" lon="1.63959">
        <ele>1759.302</ele>
        <time>2021-06-13T09:09:16Z</time>
      </trkpt>
      <trkpt lat="42.71607" lon="1.63958">
        <ele>1759.558</ele>
        <time>2021-06-13T09:09:18Z</time>
      </trkpt>
      <trkpt lat="42.71606" lon="1.63956">
        <ele>1759.859</ele>
        <time>2021-06-13T09:09:20Z</time>
      </trkpt>
      <trkpt lat="42.71605" lon="1.63954">
        <ele>1760.232</ele>
        <time>2021-06-13T09:09:22Z</time>
      </trkpt>
      <trkpt lat="42.71603" lon="1.63953">
        <ele>1760.058</ele>
        <time>2021-06-13T09:09:24Z</time>
      </trkpt>
      <trkpt lat="42.71602" lon="1.63952">
        <ele>1760.084</ele>
        <time>2021-06-13T09:09:26Z</time>
      </trkpt>
      <trkpt lat="42.71601" lon="1.63951">
        <ele>1760.137</ele>
        <time>2021-06-13T09:09:28Z</time>
      </trkpt>
      <trkpt lat="42.71601" lon="1.63949">
        <ele>1760.18</ele>
        <time>2021-06-13T09:09:30Z</time>
      </trkpt>
      <trkpt lat="42.716" lon="1.63948">
        <ele>1760.669</ele>
        <time>2021-06-13T09:09:32Z</time>
      </trkpt>
      <trkpt lat="42.716" lon="1.63947">
        <ele>1761.473</ele>
        <time>2021-06-13T09:09:34Z</time>
      </trkpt>
      <trkpt lat="42.716" lon="1.63947">
        <ele>1761.5</ele>
        <time>2021-06-13T09:09:36Z</time>
      </trkpt>
      <trkpt lat="42.716" lon="1.63947">
        <ele>1761.428</ele>
        <time>2021-06-13T09:09:38Z</time>
      </trkpt>
      <trkpt lat="42.71599" lon="1.63946">
        <ele>1761.674</ele>
        <time>2021-06-13T09:09:40Z</time>
      </trkpt>
      <trkpt lat="42.71597" lon="1.63945">
        <ele>1762.305</ele>
        <time>2021-06-13T09:09:42Z</time>
      </trkpt>
      <trkpt lat="42.71596" lon="1.63944">
        <ele>1762.124</ele>
        <time>2021-06-13T09:09:44Z</time>
      </trkpt>
      <trkpt lat="42.71595" lon="1.63942">
        <ele>1762.095</ele>
        <time>2021-06-13T09:09:46Z</time>
      </trkpt>
      <trkpt lat="42.71594" lon="1.63941">
        <ele>1762.449</ele>
        <time>2021-06-13T09:09:48Z</time>
      </trkpt>
      <trkpt lat="42.71593" lon="1.63939">
        <ele>1762.218</ele>
        <time>2021-06-13T09:09:50Z</time>
      </trkpt>
      <trkpt lat="42.71592" lon="1.63938">
        <ele>1762.348</ele>
        <time>2021-06-13T09:09:52Z</time>
      </trkpt>
      <trkpt lat="42.7159" lon="1.63936">
        <ele>1762.679</ele>
        <time>2021-06-13T09:09:54Z</time>
      </trkpt>
      <trkpt lat="42.71589" lon="1.63935">
        <ele>1762.87</ele>
        <time>2021-06-13T09:09:56Z</time>
      </trkpt>
      <trkpt lat="42.71587" lon="1.63934">
        <ele>1762.527</ele>
        <time>2021-06-13T09:09:58Z</time>
      </trkpt>
      <trkpt lat="42.71586" lon="1.63932">
        <ele>1762.924</ele>
        <time>2021-06-13T09:10:00Z</time>
      </trkpt>
      <trkpt lat="42.71584" lon="1.63931">
        <ele>1763.776</ele>
        <time>2021-06-13T09:10:02Z</time>
      </trkpt>
      <trkpt lat="42.71583" lon="1.63929">
        <ele>1764.05</ele>
        <time>2021-06-13T09:10:04Z</time>
      </trkpt>
      <trkpt lat="42.71582" lon="1.63928">
        <ele>1764.528</ele>
        <time>2021-06-13T09:10:06Z</time>
      </trkpt>
      <trkpt lat="42.7158" lon="1.63927">
        <ele>1765.142</ele>
        <time>2021-06-13T09:10:08Z</time>
      </trkpt>
      <trkpt lat="42.71579" lon="1.63925">
        <ele>1765.792</ele>
        <time>2021-06-13T09:10:10Z</time>
      </trkpt>
      <trkpt lat="42.71579" lon="1.63923">
        <ele>1765.914</ele>
        <time>2021-06-13T09:10:12Z</time>
      </trkpt>
      <trkpt lat="42.71578" lon="1.63922">
        <ele>1766.187</ele>
        <time>2021-06-13T09:10:14Z</time>
      </trkpt>
      <trkpt lat="42.71577" lon="1.6392">
        <ele>1766.784</ele>
        <time>2021-06-13T09:10:16Z</time>
      </trkpt>
      <trkpt lat="42.71574" lon="1.63916">
        <ele>1768.25</ele>
        <time>2021-06-13T09:10:22Z</time>
      </trkpt>
      <trkpt lat="42.71571" lon="1.63912">
        <ele>1768.759</ele>
        <time>2021-06-13T09:10:29Z</time>
      </trkpt>
      <trkpt lat="42.7157" lon="1.6391">
        <ele>1768.649</ele>
        <time>2021-06-13T09:10:31Z</time>
      </trkpt>
      <trkpt lat="42.7157" lon="1.6391">
        <ele>1768.529</ele>
        <time>2021-06-13T09:10:33Z</time>
      </trkpt>
      <trkpt lat="42.71569" lon="1.63908">
        <ele>1769.221</ele>
        <time>2021-06-13T09:10:35Z</time>
      </trkpt>
      <trkpt lat="42.71568" lon="1.63907">
        <ele>1769.666</ele>
        <time>2021-06-13T09:10:37Z</time>
      </trkpt>
      <trkpt lat="42.71567" lon="1.63905">
        <ele>1769.33</ele>
        <time>2021-06-13T09:10:39Z</time>
      </trkpt>
      <trkpt lat="42.71566" lon="1.63904">
        <ele>1770.141</ele>
        <time>2021-06-13T09:10:41Z</time>
      </trkpt>
      <trkpt lat="42.71565" lon="1.63903">
        <ele>1770.281</ele>
        <time>2021-06-13T09:10:43Z</time>
      </trkpt>
      <trkpt lat="42.71564" lon="1.63901">
        <ele>1770.554</ele>
        <time>2021-06-13T09:10:45Z</time>
      </trkpt>
      <trkpt lat="42.71563" lon="1.63901">
        <ele>1770.665</ele>
        <time>2021-06-13T09:10:47Z</time>
      </trkpt>
      <trkpt lat="42.71563" lon="1.63901">
        <ele>1770.674</ele>
        <time>2021-06-13T09:10:49Z</time>
      </trkpt>
      <trkpt lat="42.71563" lon="1.63901">
        <ele>1770.673</ele>
        <time>2021-06-13T09:10:51Z</time>
      </trkpt>
      <trkpt lat="42.71563" lon="1.63901">
        <ele>1770.68</ele>
        <time>2021-06-13T09:10:53Z</time>
      </trkpt>
      <trkpt lat="42.71563" lon="1.63901">
        <ele>1770.68</ele>
        <time>2021-06-13T09:10:55Z</time>
      </trkpt>
      <trkpt lat="42.71563" lon="1.63901">
        <ele>1770.688</ele>
        <time>2021-06-13T09:10:56Z</time>
      </trkpt>
      <trkpt lat="42.71563" lon="1.63901">
        <ele>1770.694</ele>
        <time>2021-06-13T09:10:59Z</time>
      </trkpt>
      <trkpt lat="42.71563" lon="1.63901">
        <ele>1770.697</ele>
        <time>2021-06-13T09:11:01Z</time>
      </trkpt>
      <trkpt lat="42.71563" lon="1.63901">
        <ele>1770.699</ele>
        <time>2021-06-13T09:11:03Z</time>
      </trkpt>
      <trkpt lat="42.71563" lon="1.639">
        <ele>1771.486</ele>
        <time>2021-06-13T09:11:05Z</time>
      </trkpt>
      <trkpt lat="42.71563" lon="1.63899">
        <ele>1771.958</ele>
        <time>2021-06-13T09:11:07Z</time>
      </trkpt>
      <trkpt lat="42.71565" lon="1.63899">
        <ele>1772.263</ele>
        <time>2021-06-13T09:11:09Z</time>
      </trkpt>
      <trkpt lat="42.71566" lon="1.63899">
        <ele>1772.963</ele>
        <time>2021-06-13T09:11:11Z</time>
      </trkpt>
      <trkpt lat="42.71568" lon="1.63899">
        <ele>1773.419</ele>
        <time>2021-06-13T09:11:13Z</time>
      </trkpt>
      <trkpt lat="42.71569" lon="1.63899">
        <ele>1773.984</ele>
        <time>2021-06-13T09:11:15Z</time>
      </trkpt>
      <trkpt lat="42.7157" lon="1.63898">
        <ele>1774.393</ele>
        <time>2021-06-13T09:11:17Z</time>
      </trkpt>
      <trkpt lat="42.7157" lon="1.63897">
        <ele>1774.399</ele>
        <time>2021-06-13T09:11:19Z</time>
      </trkpt>
      <trkpt lat="42.7157" lon="1.63896">
        <ele>1774.273</ele>
        <time>2021-06-13T09:11:21Z</time>
      </trkpt>
      <trkpt lat="42.71569" lon="1.63895">
        <ele>1774.627</ele>
        <time>2021-06-13T09:11:23Z</time>
      </trkpt>
      <trkpt lat="42.71568" lon="1.63894">
        <ele>1774.851</ele>
        <time>2021-06-13T09:11:25Z</time>
      </trkpt>
      <trkpt lat="42.71567" lon="1.63892">
        <ele>1774.919</ele>
        <time>2021-06-13T09:11:27Z</time>
      </trkpt>
      <trkpt lat="42.71566" lon="1.63891">
        <ele>1775.143</ele>
        <time>2021-06-13T09:11:29Z</time>
      </trkpt>
      <trkpt lat="42.71565" lon="1.6389">
        <ele>1775.662</ele>
        <time>2021-06-13T09:11:31Z</time>
      </trkpt>
      <trkpt lat="42.71564" lon="1.63889">
        <ele>1775.723</ele>
        <time>2021-06-13T09:11:33Z</time>
      </trkpt>
      <trkpt lat="42.71564" lon="1.63889">
        <ele>1775.382</ele>
        <time>2021-06-13T09:11:34Z</time>
      </trkpt>
      <trkpt lat="42.71564" lon="1.63887">
        <ele>1775.478</ele>
        <time>2021-06-13T09:11:37Z</time>
      </trkpt>
      <trkpt lat="42.71564" lon="1.63887">
        <ele>1776.302</ele>
        <time>2021-06-13T09:11:39Z</time>
      </trkpt>
      <trkpt lat="42.71565" lon="1.63886">
        <ele>1776.849</ele>
        <time>2021-06-13T09:11:41Z</time>
      </trkpt>
      <trkpt lat="42.71565" lon="1.63885">
        <ele>1777.208</ele>
        <time>2021-06-13T09:11:43Z</time>
      </trkpt>
      <trkpt lat="42.71564" lon="1.63884">
        <ele>1777.323</ele>
        <time>2021-06-13T09:11:45Z</time>
      </trkpt>
      <trkpt lat="42.71563" lon="1.63882">
        <ele>1777.059</ele>
        <time>2021-06-13T09:11:47Z</time>
      </trkpt>
      <trkpt lat="42.71562" lon="1.63881">
        <ele>1777.663</ele>
        <time>2021-06-13T09:11:49Z</time>
      </trkpt>
      <trkpt lat="42.71561" lon="1.63879">
        <ele>1777.64</ele>
        <time>2021-06-13T09:11:51Z</time>
      </trkpt>
      <trkpt lat="42.7156" lon="1.63878">
        <ele>1777.486</ele>
        <time>2021-06-13T09:11:53Z</time>
      </trkpt>
      <trkpt lat="42.71559" lon="1.63876">
        <ele>1778.013</ele>
        <time>2021-06-13T09:11:55Z</time>
      </trkpt>
      <trkpt lat="42.71558" lon="1.63876">
        <ele>1778.194</ele>
        <time>2021-06-13T09:11:57Z</time>
      </trkpt>
      <trkpt lat="42.71558" lon="1.63875">
        <ele>1779.475</ele>
        <time>2021-06-13T09:11:59Z</time>
      </trkpt>
      <trkpt lat="42.7156" lon="1.63875">
        <ele>1779.856</ele>
        <time>2021-06-13T09:12:01Z</time>
      </trkpt>
      <trkpt lat="42.71562" lon="1.63875">
        <ele>1780.532</ele>
        <time>2021-06-13T09:12:03Z</time>
      </trkpt>
      <trkpt lat="42.71563" lon="1.63874">
        <ele>1780.611</ele>
        <time>2021-06-13T09:12:05Z</time>
      </trkpt>
      <trkpt lat="42.71564" lon="1.63874">
        <ele>1780.881</ele>
        <time>2021-06-13T09:12:07Z</time>
      </trkpt>
      <trkpt lat="42.71564" lon="1.63873">
        <ele>1781.461</ele>
        <time>2021-06-13T09:12:09Z</time>
      </trkpt>
      <trkpt lat="42.71565" lon="1.63872">
        <ele>1781.569</ele>
        <time>2021-06-13T09:12:11Z</time>
      </trkpt>
      <trkpt lat="42.71565" lon="1.63871">
        <ele>1782.465</ele>
        <time>2021-06-13T09:12:13Z</time>
      </trkpt>
      <trkpt lat="42.71566" lon="1.63871">
        <ele>1783.693</ele>
        <time>2021-06-13T09:12:15Z</time>
      </trkpt>
      <trkpt lat="42.71567" lon="1.6387">
        <ele>1784.172</ele>
        <time>2021-06-13T09:12:17Z</time>
      </trkpt>
      <trkpt lat="42.71569" lon="1.6387">
        <ele>1784.885</ele>
        <time>2021-06-13T09:12:19Z</time>
      </trkpt>
      <trkpt lat="42.7157" lon="1.63869">
        <ele>1785.705</ele>
        <time>2021-06-13T09:12:21Z</time>
      </trkpt>
      <trkpt lat="42.71572" lon="1.63868">
        <ele>1786.003</ele>
        <time>2021-06-13T09:12:23Z</time>
      </trkpt>
      <trkpt lat="42.71573" lon="1.63868">
        <ele>1785.992</ele>
        <time>2021-06-13T09:12:25Z</time>
      </trkpt>
      <trkpt lat="42.71574" lon="1.63867">
        <ele>1786.548</ele>
        <time>2021-06-13T09:12:27Z</time>
      </trkpt>
      <trkpt lat="42.71575" lon="1.63865">
        <ele>1786.878</ele>
        <time>2021-06-13T09:12:29Z</time>
      </trkpt>
      <trkpt lat="42.71575" lon="1.63864">
        <ele>1786.792</ele>
        <time>2021-06-13T09:12:31Z</time>
      </trkpt>
      <trkpt lat="42.71575" lon="1.63863">
        <ele>1787.409</ele>
        <time>2021-06-13T09:12:33Z</time>
      </trkpt>
      <trkpt lat="42.71576" lon="1.63862">
        <ele>1787.806</ele>
        <time>2021-06-13T09:12:35Z</time>
      </trkpt>
      <trkpt lat="42.71577" lon="1.63861">
        <ele>1788.059</ele>
        <time>2021-06-13T09:12:37Z</time>
      </trkpt>
      <trkpt lat="42.71578" lon="1.6386">
        <ele>1788.195</ele>
        <time>2021-06-13T09:12:39Z</time>
      </trkpt>
      <trkpt lat="42.71579" lon="1.63859">
        <ele>1788.495</ele>
        <time>2021-06-13T09:12:41Z</time>
      </trkpt>
      <trkpt lat="42.7158" lon="1.63858">
        <ele>1789.199</ele>
        <time>2021-06-13T09:12:43Z</time>
      </trkpt>
      <trkpt lat="42.71581" lon="1.63856">
        <ele>1789.739</ele>
        <time>2021-06-13T09:12:45Z</time>
      </trkpt>
      <trkpt lat="42.71582" lon="1.63855">
        <ele>1789.805</ele>
        <time>2021-06-13T09:12:47Z</time>
      </trkpt>
      <trkpt lat="42.71583" lon="1.63854">
        <ele>1789.919</ele>
        <time>2021-06-13T09:12:49Z</time>
      </trkpt>
      <trkpt lat="42.71584" lon="1.63853">
        <ele>1789.972</ele>
        <time>2021-06-13T09:12:51Z</time>
      </trkpt>
      <trkpt lat="42.71585" lon="1.63851">
        <ele>1790.284</ele>
        <time>2021-06-13T09:12:53Z</time>
      </trkpt>
      <trkpt lat="42.71585" lon="1.6385">
        <ele>1790.405</ele>
        <time>2021-06-13T09:12:55Z</time>
      </trkpt>
      <trkpt lat="42.71584" lon="1.63848">
        <ele>1790.672</ele>
        <time>2021-06-13T09:12:57Z</time>
      </trkpt>
      <trkpt lat="42.71584" lon="1.63847">
        <ele>1790.899</ele>
        <time>2021-06-13T09:12:59Z</time>
      </trkpt>
      <trkpt lat="42.71583" lon="1.63846">
        <ele>1791.152</ele>
        <time>2021-06-13T09:13:01Z</time>
      </trkpt>
      <trkpt lat="42.71582" lon="1.63844">
        <ele>1792.165</ele>
        <time>2021-06-13T09:13:03Z</time>
      </trkpt>
      <trkpt lat="42.71582" lon="1.63842">
        <ele>1792.719</ele>
        <time>2021-06-13T09:13:05Z</time>
      </trkpt>
      <trkpt lat="42.71581" lon="1.63841">
        <ele>1793.056</ele>
        <time>2021-06-13T09:13:07Z</time>
      </trkpt>
      <trkpt lat="42.71581" lon="1.6384">
        <ele>1794.39</ele>
        <time>2021-06-13T09:13:09Z</time>
      </trkpt>
      <trkpt lat="42.71581" lon="1.63839">
        <ele>1794.491</ele>
        <time>2021-06-13T09:13:11Z</time>
      </trkpt>
      <trkpt lat="42.7158" lon="1.63838">
        <ele>1795.058</ele>
        <time>2021-06-13T09:13:13Z</time>
      </trkpt>
      <trkpt lat="42.7158" lon="1.63837">
        <ele>1795.208</ele>
        <time>2021-06-13T09:13:15Z</time>
      </trkpt>
      <trkpt lat="42.71579" lon="1.63836">
        <ele>1795.629</ele>
        <time>2021-06-13T09:13:17Z</time>
      </trkpt>
      <trkpt lat="42.71578" lon="1.63835">
        <ele>1795.578</ele>
        <time>2021-06-13T09:13:19Z</time>
      </trkpt>
      <trkpt lat="42.71578" lon="1.63834">
        <ele>1795.565</ele>
        <time>2021-06-13T09:13:21Z</time>
      </trkpt>
      <trkpt lat="42.71577" lon="1.63832">
        <ele>1796.273</ele>
        <time>2021-06-13T09:13:23Z</time>
      </trkpt>
      <trkpt lat="42.71577" lon="1.63831">
        <ele>1796.679</ele>
        <time>2021-06-13T09:13:25Z</time>
      </trkpt>
      <trkpt lat="42.71577" lon="1.6383">
        <ele>1796.824</ele>
        <time>2021-06-13T09:13:27Z</time>
      </trkpt>
      <trkpt lat="42.71576" lon="1.6383">
        <ele>1796.365</ele>
        <time>2021-06-13T09:13:29Z</time>
      </trkpt>
      <trkpt lat="42.71576" lon="1.63829">
        <ele>1796.465</ele>
        <time>2021-06-13T09:13:31Z</time>
      </trkpt>
      <trkpt lat="42.71575" lon="1.63828">
        <ele>1796.79</ele>
        <time>2021-06-13T09:13:33Z</time>
      </trkpt>
      <trkpt lat="42.71575" lon="1.63827">
        <ele>1797.132</ele>
        <time>2021-06-13T09:13:35Z</time>
      </trkpt>
      <trkpt lat="42.71575" lon="1.63825">
        <ele>1797.83</ele>
        <time>2021-06-13T09:13:37Z</time>
      </trkpt>
      <trkpt lat="42.71574" lon="1.63824">
        <ele>1798.471</ele>
        <time>2021-06-13T09:13:39Z</time>
      </trkpt>
      <trkpt lat="42.71573" lon="1.63823">
        <ele>1797.811</ele>
        <time>2021-06-13T09:13:41Z</time>
      </trkpt>
      <trkpt lat="42.71572" lon="1.63822">
        <ele>1798.138</ele>
        <time>2021-06-13T09:13:43Z</time>
      </trkpt>
      <trkpt lat="42.71571" lon="1.63821">
        <ele>1798.577</ele>
        <time>2021-06-13T09:13:45Z</time>
      </trkpt>
      <trkpt lat="42.7157" lon="1.6382">
        <ele>1798.683</ele>
        <time>2021-06-13T09:13:47Z</time>
      </trkpt>
      <trkpt lat="42.7157" lon="1.63819">
        <ele>1800.338</ele>
        <time>2021-06-13T09:13:49Z</time>
      </trkpt>
      <trkpt lat="42.71569" lon="1.63818">
        <ele>1800.571</ele>
        <time>2021-06-13T09:13:51Z</time>
      </trkpt>
      <trkpt lat="42.71568" lon="1.63816">
        <ele>1801.306</ele>
        <time>2021-06-13T09:13:53Z</time>
      </trkpt>
      <trkpt lat="42.71568" lon="1.63815">
        <ele>1801.498</ele>
        <time>2021-06-13T09:13:55Z</time>
      </trkpt>
      <trkpt lat="42.71567" lon="1.63814">
        <ele>1801.674</ele>
        <time>2021-06-13T09:13:57Z</time>
      </trkpt>
      <trkpt lat="42.71566" lon="1.63813">
        <ele>1801.2</ele>
        <time>2021-06-13T09:13:59Z</time>
      </trkpt>
      <trkpt lat="42.71565" lon="1.63812">
        <ele>1802.206</ele>
        <time>2021-06-13T09:14:01Z</time>
      </trkpt>
      <trkpt lat="42.71565" lon="1.6381">
        <ele>1802.374</ele>
        <time>2021-06-13T09:14:03Z</time>
      </trkpt>
      <trkpt lat="42.71564" lon="1.63809">
        <ele>1802.838</ele>
        <time>2021-06-13T09:14:05Z</time>
      </trkpt>
      <trkpt lat="42.71564" lon="1.63807">
        <ele>1802.863</ele>
        <time>2021-06-13T09:14:07Z</time>
      </trkpt>
      <trkpt lat="42.71563" lon="1.63806">
        <ele>1802.438</ele>
        <time>2021-06-13T09:14:09Z</time>
      </trkpt>
      <trkpt lat="42.71563" lon="1.63805">
        <ele>1803.433</ele>
        <time>2021-06-13T09:14:11Z</time>
      </trkpt>
      <trkpt lat="42.71562" lon="1.63802">
        <ele>1803.609</ele>
        <time>2021-06-13T09:14:13Z</time>
      </trkpt>
      <trkpt lat="42.71561" lon="1.63801">
        <ele>1803.327</ele>
        <time>2021-06-13T09:14:15Z</time>
      </trkpt>
      <trkpt lat="42.71561" lon="1.638">
        <ele>1803.388</ele>
        <time>2021-06-13T09:14:17Z</time>
      </trkpt>
      <trkpt lat="42.71559" lon="1.63796">
        <ele>1803.288</ele>
        <time>2021-06-13T09:14:24Z</time>
      </trkpt>
      <trkpt lat="42.71558" lon="1.63794">
        <ele>1803.98</ele>
        <time>2021-06-13T09:14:26Z</time>
      </trkpt>
      <trkpt lat="42.71558" lon="1.63793">
        <ele>1803.982</ele>
        <time>2021-06-13T09:14:28Z</time>
      </trkpt>
      <trkpt lat="42.71557" lon="1.63792">
        <ele>1804.585</ele>
        <time>2021-06-13T09:14:30Z</time>
      </trkpt>
      <trkpt lat="42.71556" lon="1.6379">
        <ele>1805.034</ele>
        <time>2021-06-13T09:14:32Z</time>
      </trkpt>
      <trkpt lat="42.71555" lon="1.63789">
        <ele>1805.773</ele>
        <time>2021-06-13T09:14:34Z</time>
      </trkpt>
      <trkpt lat="42.71555" lon="1.63787">
        <ele>1806.421</ele>
        <time>2021-06-13T09:14:36Z</time>
      </trkpt>
      <trkpt lat="42.71554" lon="1.63786">
        <ele>1806.791</ele>
        <time>2021-06-13T09:14:38Z</time>
      </trkpt>
      <trkpt lat="42.71553" lon="1.63785">
        <ele>1806.904</ele>
        <time>2021-06-13T09:14:40Z</time>
      </trkpt>
      <trkpt lat="42.71552" lon="1.63783">
        <ele>1807.304</ele>
        <time>2021-06-13T09:14:42Z</time>
      </trkpt>
      <trkpt lat="42.71551" lon="1.63782">
        <ele>1807.824</ele>
        <time>2021-06-13T09:14:44Z</time>
      </trkpt>
      <trkpt lat="42.71551" lon="1.63781">
        <ele>1808.028</ele>
        <time>2021-06-13T09:14:46Z</time>
      </trkpt>
      <trkpt lat="42.7155" lon="1.63779">
        <ele>1808.355</ele>
        <time>2021-06-13T09:14:48Z</time>
      </trkpt>
      <trkpt lat="42.71549" lon="1.63777">
        <ele>1808.52</ele>
        <time>2021-06-13T09:14:50Z</time>
      </trkpt>
      <trkpt lat="42.71548" lon="1.63776">
        <ele>1808.824</ele>
        <time>2021-06-13T09:14:52Z</time>
      </trkpt>
      <trkpt lat="42.71548" lon="1.63776">
        <ele>1809.191</ele>
        <time>2021-06-13T09:14:54Z</time>
      </trkpt>
      <trkpt lat="42.71547" lon="1.63775">
        <ele>1809.266</ele>
        <time>2021-06-13T09:14:56Z</time>
      </trkpt>
      <trkpt lat="42.71546" lon="1.63774">
        <ele>1809.508</ele>
        <time>2021-06-13T09:14:58Z</time>
      </trkpt>
      <trkpt lat="42.71546" lon="1.63773">
        <ele>1810.44</ele>
        <time>2021-06-13T09:15:00Z</time>
      </trkpt>
      <trkpt lat="42.71545" lon="1.63771">
        <ele>1810.396</ele>
        <time>2021-06-13T09:15:02Z</time>
      </trkpt>
      <trkpt lat="42.71544" lon="1.6377">
        <ele>1810.607</ele>
        <time>2021-06-13T09:15:04Z</time>
      </trkpt>
      <trkpt lat="42.71543" lon="1.63769">
        <ele>1811.377</ele>
        <time>2021-06-13T09:15:06Z</time>
      </trkpt>
      <trkpt lat="42.71543" lon="1.63768">
        <ele>1810.658</ele>
        <time>2021-06-13T09:15:08Z</time>
      </trkpt>
      <trkpt lat="42.71542" lon="1.63767">
        <ele>1811.016</ele>
        <time>2021-06-13T09:15:10Z</time>
      </trkpt>
      <trkpt lat="42.71541" lon="1.63766">
        <ele>1811.376</ele>
        <time>2021-06-13T09:15:12Z</time>
      </trkpt>
      <trkpt lat="42.71541" lon="1.63765">
        <ele>1811.434</ele>
        <time>2021-06-13T09:15:13Z</time>
      </trkpt>
      <trkpt lat="42.7154" lon="1.63763">
        <ele>1811.194</ele>
        <time>2021-06-13T09:15:16Z</time>
      </trkpt>
      <trkpt lat="42.71539" lon="1.63762">
        <ele>1811.495</ele>
        <time>2021-06-13T09:15:18Z</time>
      </trkpt>
      <trkpt lat="42.71538" lon="1.63762">
        <ele>1812.228</ele>
        <time>2021-06-13T09:15:20Z</time>
      </trkpt>
      <trkpt lat="42.71537" lon="1.63761">
        <ele>1812.458</ele>
        <time>2021-06-13T09:15:22Z</time>
      </trkpt>
      <trkpt lat="42.71537" lon="1.6376">
        <ele>1812.567</ele>
        <time>2021-06-13T09:15:24Z</time>
      </trkpt>
      <trkpt lat="42.71536" lon="1.63758">
        <ele>1812.232</ele>
        <time>2021-06-13T09:15:26Z</time>
      </trkpt>
      <trkpt lat="42.71536" lon="1.63757">
        <ele>1812.126</ele>
        <time>2021-06-13T09:15:28Z</time>
      </trkpt>
      <trkpt lat="42.71535" lon="1.63756">
        <ele>1812.063</ele>
        <time>2021-06-13T09:15:30Z</time>
      </trkpt>
      <trkpt lat="42.71534" lon="1.63755">
        <ele>1812.581</ele>
        <time>2021-06-13T09:15:32Z</time>
      </trkpt>
      <trkpt lat="42.71534" lon="1.63754">
        <ele>1813.452</ele>
        <time>2021-06-13T09:15:34Z</time>
      </trkpt>
      <trkpt lat="42.71533" lon="1.63753">
        <ele>1813.813</ele>
        <time>2021-06-13T09:15:36Z</time>
      </trkpt>
      <trkpt lat="42.71533" lon="1.63751">
        <ele>1814.256</ele>
        <time>2021-06-13T09:15:38Z</time>
      </trkpt>
      <trkpt lat="42.71532" lon="1.6375">
        <ele>1814.397</ele>
        <time>2021-06-13T09:15:40Z</time>
      </trkpt>
      <trkpt lat="42.71531" lon="1.63749">
        <ele>1814.384</ele>
        <time>2021-06-13T09:15:42Z</time>
      </trkpt>
      <trkpt lat="42.7153" lon="1.63748">
        <ele>1814.436</ele>
        <time>2021-06-13T09:15:44Z</time>
      </trkpt>
      <trkpt lat="42.71529" lon="1.63747">
        <ele>1814.927</ele>
        <time>2021-06-13T09:15:46Z</time>
      </trkpt>
      <trkpt lat="42.71528" lon="1.63746">
        <ele>1815.181</ele>
        <time>2021-06-13T09:15:48Z</time>
      </trkpt>
      <trkpt lat="42.71527" lon="1.63745">
        <ele>1815.584</ele>
        <time>2021-06-13T09:15:50Z</time>
      </trkpt>
      <trkpt lat="42.71526" lon="1.63743">
        <ele>1815.518</ele>
        <time>2021-06-13T09:15:52Z</time>
      </trkpt>
      <trkpt lat="42.71524" lon="1.63742">
        <ele>1815.997</ele>
        <time>2021-06-13T09:15:54Z</time>
      </trkpt>
      <trkpt lat="42.71523" lon="1.63741">
        <ele>1816.103</ele>
        <time>2021-06-13T09:15:56Z</time>
      </trkpt>
      <trkpt lat="42.71521" lon="1.63739">
        <ele>1816.945</ele>
        <time>2021-06-13T09:15:58Z</time>
      </trkpt>
      <trkpt lat="42.7152" lon="1.63738">
        <ele>1817.037</ele>
        <time>2021-06-13T09:16:00Z</time>
      </trkpt>
      <trkpt lat="42.71519" lon="1.63736">
        <ele>1817.395</ele>
        <time>2021-06-13T09:16:02Z</time>
      </trkpt>
      <trkpt lat="42.71519" lon="1.63735">
        <ele>1817.686</ele>
        <time>2021-06-13T09:16:04Z</time>
      </trkpt>
      <trkpt lat="42.71518" lon="1.63734">
        <ele>1817.471</ele>
        <time>2021-06-13T09:16:06Z</time>
      </trkpt>
      <trkpt lat="42.71518" lon="1.63733">
        <ele>1817.645</ele>
        <time>2021-06-13T09:16:08Z</time>
      </trkpt>
      <trkpt lat="42.71517" lon="1.63731">
        <ele>1818.272</ele>
        <time>2021-06-13T09:16:10Z</time>
      </trkpt>
      <trkpt lat="42.71517" lon="1.6373">
        <ele>1818.869</ele>
        <time>2021-06-13T09:16:12Z</time>
      </trkpt>
      <trkpt lat="42.71517" lon="1.63729">
        <ele>1819.173</ele>
        <time>2021-06-13T09:16:14Z</time>
      </trkpt>
      <trkpt lat="42.71517" lon="1.63728">
        <ele>1820.107</ele>
        <time>2021-06-13T09:16:16Z</time>
      </trkpt>
      <trkpt lat="42.71516" lon="1.63727">
        <ele>1820.49</ele>
        <time>2021-06-13T09:16:18Z</time>
      </trkpt>
      <trkpt lat="42.71516" lon="1.63725">
        <ele>1821.065</ele>
        <time>2021-06-13T09:16:20Z</time>
      </trkpt>
      <trkpt lat="42.71516" lon="1.63724">
        <ele>1821.364</ele>
        <time>2021-06-13T09:16:22Z</time>
      </trkpt>
      <trkpt lat="42.71515" lon="1.63722">
        <ele>1821.963</ele>
        <time>2021-06-13T09:16:24Z</time>
      </trkpt>
      <trkpt lat="42.71515" lon="1.63721">
        <ele>1822.271</ele>
        <time>2021-06-13T09:16:26Z</time>
      </trkpt>
      <trkpt lat="42.71514" lon="1.6372">
        <ele>1823.275</ele>
        <time>2021-06-13T09:16:28Z</time>
      </trkpt>
      <trkpt lat="42.71514" lon="1.63718">
        <ele>1824.186</ele>
        <time>2021-06-13T09:16:30Z</time>
      </trkpt>
      <trkpt lat="42.71515" lon="1.63716">
        <ele>1823.991</ele>
        <time>2021-06-13T09:16:32Z</time>
      </trkpt>
      <trkpt lat="42.71514" lon="1.63714">
        <ele>1824.207</ele>
        <time>2021-06-13T09:16:34Z</time>
      </trkpt>
      <trkpt lat="42.71513" lon="1.63713">
        <ele>1824.392</ele>
        <time>2021-06-13T09:16:36Z</time>
      </trkpt>
      <trkpt lat="42.71511" lon="1.63713">
        <ele>1824.871</ele>
        <time>2021-06-13T09:16:38Z</time>
      </trkpt>
      <trkpt lat="42.7151" lon="1.63712">
        <ele>1824.827</ele>
        <time>2021-06-13T09:16:40Z</time>
      </trkpt>
      <trkpt lat="42.7151" lon="1.6371">
        <ele>1824.833</ele>
        <time>2021-06-13T09:16:42Z</time>
      </trkpt>
      <trkpt lat="42.71509" lon="1.63708">
        <ele>1825.421</ele>
        <time>2021-06-13T09:16:44Z</time>
      </trkpt>
      <trkpt lat="42.71508" lon="1.63707">
        <ele>1825.421</ele>
        <time>2021-06-13T09:16:46Z</time>
      </trkpt>
      <trkpt lat="42.71507" lon="1.63706">
        <ele>1825.748</ele>
        <time>2021-06-13T09:16:48Z</time>
      </trkpt>
      <trkpt lat="42.71506" lon="1.63705">
        <ele>1826.015</ele>
        <time>2021-06-13T09:16:50Z</time>
      </trkpt>
      <trkpt lat="42.71505" lon="1.63704">
        <ele>1826.243</ele>
        <time>2021-06-13T09:16:52Z</time>
      </trkpt>
      <trkpt lat="42.71505" lon="1.63703">
        <ele>1826.491</ele>
        <time>2021-06-13T09:16:54Z</time>
      </trkpt>
      <trkpt lat="42.71504" lon="1.63702">
        <ele>1826.728</ele>
        <time>2021-06-13T09:16:56Z</time>
      </trkpt>
      <trkpt lat="42.71504" lon="1.63701">
        <ele>1827.214</ele>
        <time>2021-06-13T09:16:58Z</time>
      </trkpt>
      <trkpt lat="42.71504" lon="1.63699">
        <ele>1827.725</ele>
        <time>2021-06-13T09:17:00Z</time>
      </trkpt>
      <trkpt lat="42.71505" lon="1.63697">
        <ele>1828.561</ele>
        <time>2021-06-13T09:17:02Z</time>
      </trkpt>
      <trkpt lat="42.71505" lon="1.63696">
        <ele>1829.171</ele>
        <time>2021-06-13T09:17:04Z</time>
      </trkpt>
      <trkpt lat="42.71506" lon="1.63694">
        <ele>1830.129</ele>
        <time>2021-06-13T09:17:06Z</time>
      </trkpt>
      <trkpt lat="42.71507" lon="1.63692">
        <ele>1830.667</ele>
        <time>2021-06-13T09:17:08Z</time>
      </trkpt>
      <trkpt lat="42.71508" lon="1.6369">
        <ele>1830.876</ele>
        <time>2021-06-13T09:17:10Z</time>
      </trkpt>
      <trkpt lat="42.71508" lon="1.63689">
        <ele>1831.128</ele>
        <time>2021-06-13T09:17:12Z</time>
      </trkpt>
      <trkpt lat="42.71508" lon="1.63686">
        <ele>1831.816</ele>
        <time>2021-06-13T09:17:15Z</time>
      </trkpt>
      <trkpt lat="42.71509" lon="1.63684">
        <ele>1832.087</ele>
        <time>2021-06-13T09:17:17Z</time>
      </trkpt>
      <trkpt lat="42.71511" lon="1.63682">
        <ele>1832.244</ele>
        <time>2021-06-13T09:17:19Z</time>
      </trkpt>
      <trkpt lat="42.71512" lon="1.63681">
        <ele>1832.553</ele>
        <time>2021-06-13T09:17:21Z</time>
      </trkpt>
      <trkpt lat="42.71513" lon="1.6368">
        <ele>1832.984</ele>
        <time>2021-06-13T09:17:23Z</time>
      </trkpt>
      <trkpt lat="42.71514" lon="1.6368">
        <ele>1832.952</ele>
        <time>2021-06-13T09:17:25Z</time>
      </trkpt>
      <trkpt lat="42.71514" lon="1.6368">
        <ele>1832.944</ele>
        <time>2021-06-13T09:17:27Z</time>
      </trkpt>
      <trkpt lat="42.71514" lon="1.6368">
        <ele>1832.852</ele>
        <time>2021-06-13T09:17:29Z</time>
      </trkpt>
      <trkpt lat="42.71513" lon="1.6368">
        <ele>1832.855</ele>
        <time>2021-06-13T09:17:31Z</time>
      </trkpt>
      <trkpt lat="42.71513" lon="1.6368">
        <ele>1832.858</ele>
        <time>2021-06-13T09:17:34Z</time>
      </trkpt>
      <trkpt lat="42.71513" lon="1.6368">
        <ele>1832.861</ele>
        <time>2021-06-13T09:17:36Z</time>
      </trkpt>
      <trkpt lat="42.71513" lon="1.6368">
        <ele>1832.862</ele>
        <time>2021-06-13T09:17:38Z</time>
      </trkpt>
      <trkpt lat="42.71513" lon="1.6368">
        <ele>1832.833</ele>
        <time>2021-06-13T09:17:40Z</time>
      </trkpt>
      <trkpt lat="42.71514" lon="1.63678">
        <ele>1833.289</ele>
        <time>2021-06-13T09:17:42Z</time>
      </trkpt>
      <trkpt lat="42.71514" lon="1.63676">
        <ele>1833.819</ele>
        <time>2021-06-13T09:17:44Z</time>
      </trkpt>
      <trkpt lat="42.71514" lon="1.63674">
        <ele>1833.711</ele>
        <time>2021-06-13T09:17:46Z</time>
      </trkpt>
      <trkpt lat="42.71514" lon="1.63672">
        <ele>1833.559</ele>
        <time>2021-06-13T09:17:48Z</time>
      </trkpt>
      <trkpt lat="42.71514" lon="1.6367">
        <ele>1833.404</ele>
        <time>2021-06-13T09:17:50Z</time>
      </trkpt>
      <trkpt lat="42.71513" lon="1.63669">
        <ele>1833.832</ele>
        <time>2021-06-13T09:17:52Z</time>
      </trkpt>
      <trkpt lat="42.71513" lon="1.63667">
        <ele>1834.079</ele>
        <time>2021-06-13T09:17:54Z</time>
      </trkpt>
      <trkpt lat="42.71513" lon="1.63665">
        <ele>1834.055</ele>
        <time>2021-06-13T09:17:56Z</time>
      </trkpt>
      <trkpt lat="42.71513" lon="1.63664">
        <ele>1834.481</ele>
        <time>2021-06-13T09:17:58Z</time>
      </trkpt>
      <trkpt lat="42.71513" lon="1.63662">
        <ele>1834.871</ele>
        <time>2021-06-13T09:18:00Z</time>
      </trkpt>
      <trkpt lat="42.71512" lon="1.63661">
        <ele>1834.774</ele>
        <time>2021-06-13T09:18:02Z</time>
      </trkpt>
      <trkpt lat="42.71512" lon="1.63661">
        <ele>1834.783</ele>
        <time>2021-06-13T09:18:04Z</time>
      </trkpt>
      <trkpt lat="42.71512" lon="1.6366">
        <ele>1835.042</ele>
        <time>2021-06-13T09:18:06Z</time>
      </trkpt>
      <trkpt lat="42.71512" lon="1.63659">
        <ele>1835.756</ele>
        <time>2021-06-13T09:18:08Z</time>
      </trkpt>
      <trkpt lat="42.71511" lon="1.63658">
        <ele>1835.97</ele>
        <time>2021-06-13T09:18:10Z</time>
      </trkpt>
      <trkpt lat="42.71511" lon="1.63657">
        <ele>1836.118</ele>
        <time>2021-06-13T09:18:12Z</time>
      </trkpt>
      <trkpt lat="42.71511" lon="1.63655">
        <ele>1836.305</ele>
        <time>2021-06-13T09:18:14Z</time>
      </trkpt>
      <trkpt lat="42.71511" lon="1.63653">
        <ele>1836.747</ele>
        <time>2021-06-13T09:18:16Z</time>
      </trkpt>
      <trkpt lat="42.7151" lon="1.63651">
        <ele>1837.16</ele>
        <time>2021-06-13T09:18:18Z</time>
      </trkpt>
      <trkpt lat="42.71509" lon="1.63649">
        <ele>1836.599</ele>
        <time>2021-06-13T09:18:20Z</time>
      </trkpt>
      <trkpt lat="42.71508" lon="1.63647">
        <ele>1837.58</ele>
        <time>2021-06-13T09:18:22Z</time>
      </trkpt>
      <trkpt lat="42.71507" lon="1.63646">
        <ele>1837.811</ele>
        <time>2021-06-13T09:18:24Z</time>
      </trkpt>
      <trkpt lat="42.71505" lon="1.63645">
        <ele>1838.542</ele>
        <time>2021-06-13T09:18:26Z</time>
      </trkpt>
      <trkpt lat="42.71504" lon="1.63644">
        <ele>1838.185</ele>
        <time>2021-06-13T09:18:28Z</time>
      </trkpt>
      <trkpt lat="42.71503" lon="1.63642">
        <ele>1837.82</ele>
        <time>2021-06-13T09:18:30Z</time>
      </trkpt>
      <trkpt lat="42.71502" lon="1.6364">
        <ele>1839.088</ele>
        <time>2021-06-13T09:18:32Z</time>
      </trkpt>
      <trkpt lat="42.71501" lon="1.63638">
        <ele>1839.451</ele>
        <time>2021-06-13T09:18:34Z</time>
      </trkpt>
      <trkpt lat="42.715" lon="1.63637">
        <ele>1839.824</ele>
        <time>2021-06-13T09:18:36Z</time>
      </trkpt>
      <trkpt lat="42.71499" lon="1.63637">
        <ele>1840.076</ele>
        <time>2021-06-13T09:18:38Z</time>
      </trkpt>
      <trkpt lat="42.71497" lon="1.63636">
        <ele>1840.607</ele>
        <time>2021-06-13T09:18:40Z</time>
      </trkpt>
      <trkpt lat="42.71496" lon="1.63635">
        <ele>1840.986</ele>
        <time>2021-06-13T09:18:42Z</time>
      </trkpt>
      <trkpt lat="42.71494" lon="1.63635">
        <ele>1841.1</ele>
        <time>2021-06-13T09:18:44Z</time>
      </trkpt>
      <trkpt lat="42.71492" lon="1.63636">
        <ele>1840.691</ele>
        <time>2021-06-13T09:18:46Z</time>
      </trkpt>
      <trkpt lat="42.71491" lon="1.63637">
        <ele>1839.516</ele>
        <time>2021-06-13T09:18:48Z</time>
      </trkpt>
      <trkpt lat="42.71489" lon="1.63637">
        <ele>1840.041</ele>
        <time>2021-06-13T09:18:50Z</time>
      </trkpt>
      <trkpt lat="42.71488" lon="1.63636">
        <ele>1840.323</ele>
        <time>2021-06-13T09:18:52Z</time>
      </trkpt>
      <trkpt lat="42.71487" lon="1.63635">
        <ele>1841.153</ele>
        <time>2021-06-13T09:18:54Z</time>
      </trkpt>
      <trkpt lat="42.71486" lon="1.63634">
        <ele>1842.27</ele>
        <time>2021-06-13T09:18:56Z</time>
      </trkpt>
      <trkpt lat="42.71485" lon="1.63632">
        <ele>1843.217</ele>
        <time>2021-06-13T09:18:58Z</time>
      </trkpt>
      <trkpt lat="42.71484" lon="1.63631">
        <ele>1843.322</ele>
        <time>2021-06-13T09:19:00Z</time>
      </trkpt>
      <trkpt lat="42.71483" lon="1.63629">
        <ele>1843.499</ele>
        <time>2021-06-13T09:19:02Z</time>
      </trkpt>
      <trkpt lat="42.71482" lon="1.63628">
        <ele>1843.902</ele>
        <time>2021-06-13T09:19:04Z</time>
      </trkpt>
      <trkpt lat="42.71481" lon="1.63628">
        <ele>1844.35</ele>
        <time>2021-06-13T09:19:06Z</time>
      </trkpt>
      <trkpt lat="42.71479" lon="1.63629">
        <ele>1843.808</ele>
        <time>2021-06-13T09:19:08Z</time>
      </trkpt>
      <trkpt lat="42.71478" lon="1.63629">
        <ele>1843.689</ele>
        <time>2021-06-13T09:19:10Z</time>
      </trkpt>
      <trkpt lat="42.71476" lon="1.63629">
        <ele>1844.797</ele>
        <time>2021-06-13T09:19:12Z</time>
      </trkpt>
      <trkpt lat="42.71475" lon="1.63628">
        <ele>1844.503</ele>
        <time>2021-06-13T09:19:14Z</time>
      </trkpt>
      <trkpt lat="42.71473" lon="1.63628">
        <ele>1844.293</ele>
        <time>2021-06-13T09:19:16Z</time>
      </trkpt>
      <trkpt lat="42.71472" lon="1.63629">
        <ele>1844.045</ele>
        <time>2021-06-13T09:19:18Z</time>
      </trkpt>
      <trkpt lat="42.71471" lon="1.63631">
        <ele>1844.244</ele>
        <time>2021-06-13T09:19:20Z</time>
      </trkpt>
      <trkpt lat="42.71469" lon="1.63632">
        <ele>1844.39</ele>
        <time>2021-06-13T09:19:22Z</time>
      </trkpt>
      <trkpt lat="42.71467" lon="1.63632">
        <ele>1844.85</ele>
        <time>2021-06-13T09:19:24Z</time>
      </trkpt>
      <trkpt lat="42.71466" lon="1.63631">
        <ele>1845.451</ele>
        <time>2021-06-13T09:19:26Z</time>
      </trkpt>
      <trkpt lat="42.71464" lon="1.6363">
        <ele>1846.06</ele>
        <time>2021-06-13T09:19:28Z</time>
      </trkpt>
      <trkpt lat="42.71462" lon="1.63631">
        <ele>1846.323</ele>
        <time>2021-06-13T09:19:30Z</time>
      </trkpt>
      <trkpt lat="42.71461" lon="1.63632">
        <ele>1846.104</ele>
        <time>2021-06-13T09:19:32Z</time>
      </trkpt>
      <trkpt lat="42.71458" lon="1.63632">
        <ele>1846.462</ele>
        <time>2021-06-13T09:19:34Z</time>
      </trkpt>
      <trkpt lat="42.71457" lon="1.63632">
        <ele>1846.863</ele>
        <time>2021-06-13T09:19:36Z</time>
      </trkpt>
      <trkpt lat="42.71455" lon="1.63631">
        <ele>1846.943</ele>
        <time>2021-06-13T09:19:38Z</time>
      </trkpt>
      <trkpt lat="42.71453" lon="1.63631">
        <ele>1847.247</ele>
        <time>2021-06-13T09:19:40Z</time>
      </trkpt>
      <trkpt lat="42.71452" lon="1.6363">
        <ele>1847.723</ele>
        <time>2021-06-13T09:19:42Z</time>
      </trkpt>
      <trkpt lat="42.7145" lon="1.6363">
        <ele>1847.958</ele>
        <time>2021-06-13T09:19:44Z</time>
      </trkpt>
      <trkpt lat="42.71448" lon="1.6363">
        <ele>1848.565</ele>
        <time>2021-06-13T09:19:46Z</time>
      </trkpt>
      <trkpt lat="42.71446" lon="1.63629">
        <ele>1848.619</ele>
        <time>2021-06-13T09:19:48Z</time>
      </trkpt>
      <trkpt lat="42.71445" lon="1.63628">
        <ele>1849.096</ele>
        <time>2021-06-13T09:19:50Z</time>
      </trkpt>
      <trkpt lat="42.71444" lon="1.63627">
        <ele>1849.087</ele>
        <time>2021-06-13T09:19:52Z</time>
      </trkpt>
      <trkpt lat="42.71443" lon="1.63626">
        <ele>1848.984</ele>
        <time>2021-06-13T09:19:54Z</time>
      </trkpt>
      <trkpt lat="42.71441" lon="1.63625">
        <ele>1849.973</ele>
        <time>2021-06-13T09:19:56Z</time>
      </trkpt>
      <trkpt lat="42.71439" lon="1.63625">
        <ele>1849.83</ele>
        <time>2021-06-13T09:19:58Z</time>
      </trkpt>
      <trkpt lat="42.71438" lon="1.63624">
        <ele>1850.095</ele>
        <time>2021-06-13T09:20:00Z</time>
      </trkpt>
      <trkpt lat="42.71437" lon="1.63622">
        <ele>1850.129</ele>
        <time>2021-06-13T09:20:02Z</time>
      </trkpt>
      <trkpt lat="42.71436" lon="1.6362">
        <ele>1851.608</ele>
        <time>2021-06-13T09:20:04Z</time>
      </trkpt>
      <trkpt lat="42.71436" lon="1.63618">
        <ele>1851.154</ele>
        <time>2021-06-13T09:20:06Z</time>
      </trkpt>
      <trkpt lat="42.71435" lon="1.63617">
        <ele>1851.335</ele>
        <time>2021-06-13T09:20:08Z</time>
      </trkpt>
      <trkpt lat="42.71435" lon="1.63616">
        <ele>1851.316</ele>
        <time>2021-06-13T09:20:10Z</time>
      </trkpt>
      <trkpt lat="42.71436" lon="1.63616">
        <ele>1851.318</ele>
        <time>2021-06-13T09:20:12Z</time>
      </trkpt>
      <trkpt lat="42.71436" lon="1.63616">
        <ele>1851.323</ele>
        <time>2021-06-13T09:20:14Z</time>
      </trkpt>
      <trkpt lat="42.71436" lon="1.63616">
        <ele>1851.322</ele>
        <time>2021-06-13T09:20:16Z</time>
      </trkpt>
      <trkpt lat="42.71436" lon="1.63616">
        <ele>1851.323</ele>
        <time>2021-06-13T09:20:18Z</time>
      </trkpt>
      <trkpt lat="42.71436" lon="1.63616">
        <ele>1851.322</ele>
        <time>2021-06-13T09:20:20Z</time>
      </trkpt>
      <trkpt lat="42.71436" lon="1.63616">
        <ele>1851.321</ele>
        <time>2021-06-13T09:20:22Z</time>
      </trkpt>
      <trkpt lat="42.71436" lon="1.63616">
        <ele>1851.318</ele>
        <time>2021-06-13T09:20:24Z</time>
      </trkpt>
      <trkpt lat="42.71436" lon="1.63616">
        <ele>1851.318</ele>
        <time>2021-06-13T09:20:26Z</time>
      </trkpt>
      <trkpt lat="42.71436" lon="1.63616">
        <ele>1851.315</ele>
        <time>2021-06-13T09:20:28Z</time>
      </trkpt>
      <trkpt lat="42.71436" lon="1.63616">
        <ele>1851.314</ele>
        <time>2021-06-13T09:20:30Z</time>
      </trkpt>
      <trkpt lat="42.71436" lon="1.63616">
        <ele>1851.419</ele>
        <time>2021-06-13T09:20:32Z</time>
      </trkpt>
      <trkpt lat="42.71436" lon="1.63616">
        <ele>1851.409</ele>
        <time>2021-06-13T09:20:34Z</time>
      </trkpt>
      <trkpt lat="42.71436" lon="1.63616">
        <ele>1851.409</ele>
        <time>2021-06-13T09:20:36Z</time>
      </trkpt>
      <trkpt lat="42.71436" lon="1.63616">
        <ele>1851.412</ele>
        <time>2021-06-13T09:20:38Z</time>
      </trkpt>
      <trkpt lat="42.71435" lon="1.63616">
        <ele>1851.699</ele>
        <time>2021-06-13T09:20:40Z</time>
      </trkpt>
      <trkpt lat="42.71434" lon="1.63614">
        <ele>1852.45</ele>
        <time>2021-06-13T09:20:42Z</time>
      </trkpt>
      <trkpt lat="42.71434" lon="1.63612">
        <ele>1852.858</ele>
        <time>2021-06-13T09:20:44Z</time>
      </trkpt>
      <trkpt lat="42.71433" lon="1.6361">
        <ele>1853.544</ele>
        <time>2021-06-13T09:20:46Z</time>
      </trkpt>
      <trkpt lat="42.71432" lon="1.63608">
        <ele>1853.516</ele>
        <time>2021-06-13T09:20:48Z</time>
      </trkpt>
      <trkpt lat="42.71431" lon="1.63606">
        <ele>1852.985</ele>
        <time>2021-06-13T09:20:50Z</time>
      </trkpt>
      <trkpt lat="42.7143" lon="1.63604">
        <ele>1853.135</ele>
        <time>2021-06-13T09:20:52Z</time>
      </trkpt>
      <trkpt lat="42.71429" lon="1.63602">
        <ele>1853.472</ele>
        <time>2021-06-13T09:20:54Z</time>
      </trkpt>
      <trkpt lat="42.71428" lon="1.636">
        <ele>1853.812</ele>
        <time>2021-06-13T09:20:56Z</time>
      </trkpt>
      <trkpt lat="42.71427" lon="1.63599">
        <ele>1854.037</ele>
        <time>2021-06-13T09:20:58Z</time>
      </trkpt>
      <trkpt lat="42.71426" lon="1.63597">
        <ele>1853.762</ele>
        <time>2021-06-13T09:21:00Z</time>
      </trkpt>
      <trkpt lat="42.71424" lon="1.63596">
        <ele>1853.764</ele>
        <time>2021-06-13T09:21:02Z</time>
      </trkpt>
      <trkpt lat="42.71423" lon="1.63595">
        <ele>1853.851</ele>
        <time>2021-06-13T09:21:04Z</time>
      </trkpt>
      <trkpt lat="42.71421" lon="1.63595">
        <ele>1853.805</ele>
        <time>2021-06-13T09:21:06Z</time>
      </trkpt>
      <trkpt lat="42.71419" lon="1.63594">
        <ele>1853.815</ele>
        <time>2021-06-13T09:21:08Z</time>
      </trkpt>
      <trkpt lat="42.71418" lon="1.63593">
        <ele>1854.001</ele>
        <time>2021-06-13T09:21:10Z</time>
      </trkpt>
      <trkpt lat="42.71417" lon="1.63592">
        <ele>1853.845</ele>
        <time>2021-06-13T09:21:12Z</time>
      </trkpt>
      <trkpt lat="42.71416" lon="1.6359">
        <ele>1854.342</ele>
        <time>2021-06-13T09:21:14Z</time>
      </trkpt>
      <trkpt lat="42.71416" lon="1.63589">
        <ele>1854.393</ele>
        <time>2021-06-13T09:21:16Z</time>
      </trkpt>
      <trkpt lat="42.71415" lon="1.63587">
        <ele>1855.103</ele>
        <time>2021-06-13T09:21:18Z</time>
      </trkpt>
      <trkpt lat="42.71415" lon="1.63585">
        <ele>1855.164</ele>
        <time>2021-06-13T09:21:20Z</time>
      </trkpt>
      <trkpt lat="42.71414" lon="1.63583">
        <ele>1855.571</ele>
        <time>2021-06-13T09:21:22Z</time>
      </trkpt>
      <trkpt lat="42.71413" lon="1.6358">
        <ele>1856.33</ele>
        <time>2021-06-13T09:21:25Z</time>
      </trkpt>
      <trkpt lat="42.71411" lon="1.63578">
        <ele>1856.661</ele>
        <time>2021-06-13T09:21:27Z</time>
      </trkpt>
      <trkpt lat="42.7141" lon="1.63577">
        <ele>1857.512</ele>
        <time>2021-06-13T09:21:29Z</time>
      </trkpt>
      <trkpt lat="42.71409" lon="1.63576">
        <ele>1857.629</ele>
        <time>2021-06-13T09:21:31Z</time>
      </trkpt>
      <trkpt lat="42.71408" lon="1.63575">
        <ele>1857.845</ele>
        <time>2021-06-13T09:21:33Z</time>
      </trkpt>
      <trkpt lat="42.71407" lon="1.63574">
        <ele>1857.96</ele>
        <time>2021-06-13T09:21:35Z</time>
      </trkpt>
      <trkpt lat="42.71406" lon="1.63572">
        <ele>1857.574</ele>
        <time>2021-06-13T09:21:37Z</time>
      </trkpt>
      <trkpt lat="42.71405" lon="1.63571">
        <ele>1858.312</ele>
        <time>2021-06-13T09:21:39Z</time>
      </trkpt>
      <trkpt lat="42.71404" lon="1.6357">
        <ele>1858.148</ele>
        <time>2021-06-13T09:21:41Z</time>
      </trkpt>
      <trkpt lat="42.71402" lon="1.6357">
        <ele>1858.368</ele>
        <time>2021-06-13T09:21:43Z</time>
      </trkpt>
      <trkpt lat="42.714" lon="1.63569">
        <ele>1859.181</ele>
        <time>2021-06-13T09:21:45Z</time>
      </trkpt>
      <trkpt lat="42.71399" lon="1.63568">
        <ele>1859.891</ele>
        <time>2021-06-13T09:21:47Z</time>
      </trkpt>
      <trkpt lat="42.71397" lon="1.63567">
        <ele>1859.917</ele>
        <time>2021-06-13T09:21:49Z</time>
      </trkpt>
      <trkpt lat="42.71395" lon="1.63566">
        <ele>1860.216</ele>
        <time>2021-06-13T09:21:51Z</time>
      </trkpt>
      <trkpt lat="42.71394" lon="1.63565">
        <ele>1860.669</ele>
        <time>2021-06-13T09:21:53Z</time>
      </trkpt>
      <trkpt lat="42.71393" lon="1.63564">
        <ele>1860.778</ele>
        <time>2021-06-13T09:21:55Z</time>
      </trkpt>
      <trkpt lat="42.71392" lon="1.63563">
        <ele>1860.785</ele>
        <time>2021-06-13T09:21:57Z</time>
      </trkpt>
      <trkpt lat="42.71391" lon="1.63562">
        <ele>1861.351</ele>
        <time>2021-06-13T09:21:59Z</time>
      </trkpt>
      <trkpt lat="42.71389" lon="1.63562">
        <ele>1861.64</ele>
        <time>2021-06-13T09:22:01Z</time>
      </trkpt>
      <trkpt lat="42.71387" lon="1.63562">
        <ele>1861.452</ele>
        <time>2021-06-13T09:22:03Z</time>
      </trkpt>
      <trkpt lat="42.71385" lon="1.63561">
        <ele>1862.04</ele>
        <time>2021-06-13T09:22:05Z</time>
      </trkpt>
      <trkpt lat="42.71383" lon="1.63561">
        <ele>1862.509</ele>
        <time>2021-06-13T09:22:07Z</time>
      </trkpt>
      <trkpt lat="42.71382" lon="1.6356">
        <ele>1862.901</ele>
        <time>2021-06-13T09:22:09Z</time>
      </trkpt>
      <trkpt lat="42.71381" lon="1.63559">
        <ele>1863.35</ele>
        <time>2021-06-13T09:22:11Z</time>
      </trkpt>
      <trkpt lat="42.71379" lon="1.63558">
        <ele>1863.253</ele>
        <time>2021-06-13T09:22:13Z</time>
      </trkpt>
      <trkpt lat="42.71378" lon="1.63558">
        <ele>1863.735</ele>
        <time>2021-06-13T09:22:15Z</time>
      </trkpt>
      <trkpt lat="42.71377" lon="1.63558">
        <ele>1863.872</ele>
        <time>2021-06-13T09:22:17Z</time>
      </trkpt>
      <trkpt lat="42.71375" lon="1.63557">
        <ele>1863.756</ele>
        <time>2021-06-13T09:22:19Z</time>
      </trkpt>
      <trkpt lat="42.71374" lon="1.63556">
        <ele>1863.675</ele>
        <time>2021-06-13T09:22:21Z</time>
      </trkpt>
      <trkpt lat="42.71373" lon="1.63555">
        <ele>1864.053</ele>
        <time>2021-06-13T09:22:23Z</time>
      </trkpt>
      <trkpt lat="42.71372" lon="1.63555">
        <ele>1864.669</ele>
        <time>2021-06-13T09:22:25Z</time>
      </trkpt>
      <trkpt lat="42.71371" lon="1.63554">
        <ele>1865.296</ele>
        <time>2021-06-13T09:22:27Z</time>
      </trkpt>
      <trkpt lat="42.71369" lon="1.63552">
        <ele>1865.426</ele>
        <time>2021-06-13T09:22:29Z</time>
      </trkpt>
      <trkpt lat="42.71368" lon="1.63552">
        <ele>1865.66</ele>
        <time>2021-06-13T09:22:31Z</time>
      </trkpt>
      <trkpt lat="42.71367" lon="1.63551">
        <ele>1865.521</ele>
        <time>2021-06-13T09:22:33Z</time>
      </trkpt>
      <trkpt lat="42.71366" lon="1.63551">
        <ele>1865.442</ele>
        <time>2021-06-13T09:22:35Z</time>
      </trkpt>
      <trkpt lat="42.71365" lon="1.6355">
        <ele>1865.894</ele>
        <time>2021-06-13T09:22:37Z</time>
      </trkpt>
      <trkpt lat="42.71364" lon="1.63549">
        <ele>1866.135</ele>
        <time>2021-06-13T09:22:39Z</time>
      </trkpt>
      <trkpt lat="42.71362" lon="1.63548">
        <ele>1866.506</ele>
        <time>2021-06-13T09:22:41Z</time>
      </trkpt>
      <trkpt lat="42.71361" lon="1.63548">
        <ele>1866.589</ele>
        <time>2021-06-13T09:22:43Z</time>
      </trkpt>
      <trkpt lat="42.7136" lon="1.63547">
        <ele>1867.011</ele>
        <time>2021-06-13T09:22:45Z</time>
      </trkpt>
      <trkpt lat="42.71359" lon="1.63545">
        <ele>1866.617</ele>
        <time>2021-06-13T09:22:47Z</time>
      </trkpt>
      <trkpt lat="42.71358" lon="1.63545">
        <ele>1866.945</ele>
        <time>2021-06-13T09:22:49Z</time>
      </trkpt>
      <trkpt lat="42.71358" lon="1.63543">
        <ele>1867.433</ele>
        <time>2021-06-13T09:22:51Z</time>
      </trkpt>
      <trkpt lat="42.71358" lon="1.63542">
        <ele>1867.55</ele>
        <time>2021-06-13T09:22:53Z</time>
      </trkpt>
      <trkpt lat="42.71357" lon="1.63541">
        <ele>1867.41</ele>
        <time>2021-06-13T09:22:55Z</time>
      </trkpt>
      <trkpt lat="42.71356" lon="1.6354">
        <ele>1867.385</ele>
        <time>2021-06-13T09:22:57Z</time>
      </trkpt>
      <trkpt lat="42.71354" lon="1.63539">
        <ele>1867.204</ele>
        <time>2021-06-13T09:22:59Z</time>
      </trkpt>
      <trkpt lat="42.71353" lon="1.63539">
        <ele>1867.218</ele>
        <time>2021-06-13T09:23:01Z</time>
      </trkpt>
      <trkpt lat="42.71351" lon="1.63539">
        <ele>1867.068</ele>
        <time>2021-06-13T09:23:03Z</time>
      </trkpt>
      <trkpt lat="42.7135" lon="1.6354">
        <ele>1866.889</ele>
        <time>2021-06-13T09:23:05Z</time>
      </trkpt>
      <trkpt lat="42.71348" lon="1.6354">
        <ele>1866.835</ele>
        <time>2021-06-13T09:23:07Z</time>
      </trkpt>
      <trkpt lat="42.71346" lon="1.63541">
        <ele>1866.817</ele>
        <time>2021-06-13T09:23:09Z</time>
      </trkpt>
      <trkpt lat="42.71345" lon="1.63541">
        <ele>1867.073</ele>
        <time>2021-06-13T09:23:11Z</time>
      </trkpt>
      <trkpt lat="42.71343" lon="1.63542">
        <ele>1867.21</ele>
        <time>2021-06-13T09:23:13Z</time>
      </trkpt>
      <trkpt lat="42.71341" lon="1.63541">
        <ele>1867.39</ele>
        <time>2021-06-13T09:23:15Z</time>
      </trkpt>
      <trkpt lat="42.7134" lon="1.6354">
        <ele>1867.649</ele>
        <time>2021-06-13T09:23:17Z</time>
      </trkpt>
      <trkpt lat="42.7134" lon="1.63539">
        <ele>1867.743</ele>
        <time>2021-06-13T09:23:19Z</time>
      </trkpt>
      <trkpt lat="42.71339" lon="1.63538">
        <ele>1868.216</ele>
        <time>2021-06-13T09:23:21Z</time>
      </trkpt>
      <trkpt lat="42.71337" lon="1.63537">
        <ele>1868.425</ele>
        <time>2021-06-13T09:23:23Z</time>
      </trkpt>
      <trkpt lat="42.71335" lon="1.63536">
        <ele>1868.74</ele>
        <time>2021-06-13T09:23:25Z</time>
      </trkpt>
      <trkpt lat="42.71334" lon="1.63536">
        <ele>1869.105</ele>
        <time>2021-06-13T09:23:27Z</time>
      </trkpt>
      <trkpt lat="42.71333" lon="1.63534">
        <ele>1868.825</ele>
        <time>2021-06-13T09:23:29Z</time>
      </trkpt>
      <trkpt lat="42.71333" lon="1.63533">
        <ele>1868.72</ele>
        <time>2021-06-13T09:23:31Z</time>
      </trkpt>
      <trkpt lat="42.71333" lon="1.63531">
        <ele>1868.251</ele>
        <time>2021-06-13T09:23:33Z</time>
      </trkpt>
      <trkpt lat="42.71331" lon="1.6353">
        <ele>1868.545</ele>
        <time>2021-06-13T09:23:35Z</time>
      </trkpt>
      <trkpt lat="42.7133" lon="1.63528">
        <ele>1869.099</ele>
        <time>2021-06-13T09:23:37Z</time>
      </trkpt>
      <trkpt lat="42.7133" lon="1.63527">
        <ele>1868.833</ele>
        <time>2021-06-13T09:23:39Z</time>
      </trkpt>
      <trkpt lat="42.71329" lon="1.63525">
        <ele>1869.532</ele>
        <time>2021-06-13T09:23:41Z</time>
      </trkpt>
      <trkpt lat="42.71328" lon="1.63523">
        <ele>1870.284</ele>
        <time>2021-06-13T09:23:43Z</time>
      </trkpt>
      <trkpt lat="42.71328" lon="1.63522">
        <ele>1870.092</ele>
        <time>2021-06-13T09:23:45Z</time>
      </trkpt>
      <trkpt lat="42.71327" lon="1.63521">
        <ele>1870.246</ele>
        <time>2021-06-13T09:23:47Z</time>
      </trkpt>
      <trkpt lat="42.71325" lon="1.63521">
        <ele>1871.221</ele>
        <time>2021-06-13T09:23:49Z</time>
      </trkpt>
      <trkpt lat="42.71324" lon="1.6352">
        <ele>1871.918</ele>
        <time>2021-06-13T09:23:51Z</time>
      </trkpt>
      <trkpt lat="42.71323" lon="1.63518">
        <ele>1872.712</ele>
        <time>2021-06-13T09:23:53Z</time>
      </trkpt>
      <trkpt lat="42.71323" lon="1.63517">
        <ele>1873.383</ele>
        <time>2021-06-13T09:23:55Z</time>
      </trkpt>
      <trkpt lat="42.71322" lon="1.63516">
        <ele>1874.079</ele>
        <time>2021-06-13T09:23:57Z</time>
      </trkpt>
      <trkpt lat="42.7132" lon="1.63514">
        <ele>1874.462</ele>
        <time>2021-06-13T09:23:59Z</time>
      </trkpt>
      <trkpt lat="42.71319" lon="1.63513">
        <ele>1874.749</ele>
        <time>2021-06-13T09:24:01Z</time>
      </trkpt>
      <trkpt lat="42.71318" lon="1.63513">
        <ele>1875.161</ele>
        <time>2021-06-13T09:24:03Z</time>
      </trkpt>
      <trkpt lat="42.71317" lon="1.63513">
        <ele>1875.05</ele>
        <time>2021-06-13T09:24:05Z</time>
      </trkpt>
      <trkpt lat="42.71315" lon="1.63514">
        <ele>1874.815</ele>
        <time>2021-06-13T09:24:07Z</time>
      </trkpt>
      <trkpt lat="42.71314" lon="1.63514">
        <ele>1874.643</ele>
        <time>2021-06-13T09:24:09Z</time>
      </trkpt>
      <trkpt lat="42.71313" lon="1.63513">
        <ele>1874.676</ele>
        <time>2021-06-13T09:24:11Z</time>
      </trkpt>
      <trkpt lat="42.71312" lon="1.63512">
        <ele>1874.363</ele>
        <time>2021-06-13T09:24:13Z</time>
      </trkpt>
      <trkpt lat="42.71311" lon="1.63511">
        <ele>1875.664</ele>
        <time>2021-06-13T09:24:15Z</time>
      </trkpt>
      <trkpt lat="42.7131" lon="1.63509">
        <ele>1875.667</ele>
        <time>2021-06-13T09:24:17Z</time>
      </trkpt>
      <trkpt lat="42.7131" lon="1.63508">
        <ele>1875.795</ele>
        <time>2021-06-13T09:24:19Z</time>
      </trkpt>
      <trkpt lat="42.71309" lon="1.63507">
        <ele>1875.615</ele>
        <time>2021-06-13T09:24:21Z</time>
      </trkpt>
      <trkpt lat="42.71308" lon="1.63505">
        <ele>1874.988</ele>
        <time>2021-06-13T09:24:23Z</time>
      </trkpt>
      <trkpt lat="42.71308" lon="1.63504">
        <ele>1874.799</ele>
        <time>2021-06-13T09:24:25Z</time>
      </trkpt>
      <trkpt lat="42.71307" lon="1.63503">
        <ele>1874.639</ele>
        <time>2021-06-13T09:24:27Z</time>
      </trkpt>
      <trkpt lat="42.71306" lon="1.63501">
        <ele>1874.656</ele>
        <time>2021-06-13T09:24:29Z</time>
      </trkpt>
      <trkpt lat="42.71305" lon="1.63499">
        <ele>1875.272</ele>
        <time>2021-06-13T09:24:31Z</time>
      </trkpt>
      <trkpt lat="42.71305" lon="1.63498">
        <ele>1875.15</ele>
        <time>2021-06-13T09:24:33Z</time>
      </trkpt>
      <trkpt lat="42.71305" lon="1.63496">
        <ele>1875.987</ele>
        <time>2021-06-13T09:24:35Z</time>
      </trkpt>
      <trkpt lat="42.71304" lon="1.63494">
        <ele>1876.291</ele>
        <time>2021-06-13T09:24:37Z</time>
      </trkpt>
      <trkpt lat="42.71304" lon="1.63492">
        <ele>1876.993</ele>
        <time>2021-06-13T09:24:39Z</time>
      </trkpt>
      <trkpt lat="42.71304" lon="1.63491">
        <ele>1877.466</ele>
        <time>2021-06-13T09:24:41Z</time>
      </trkpt>
      <trkpt lat="42.71304" lon="1.6349">
        <ele>1877.647</ele>
        <time>2021-06-13T09:24:43Z</time>
      </trkpt>
      <trkpt lat="42.71303" lon="1.63488">
        <ele>1877.775</ele>
        <time>2021-06-13T09:24:45Z</time>
      </trkpt>
      <trkpt lat="42.71303" lon="1.63486">
        <ele>1879.038</ele>
        <time>2021-06-13T09:24:47Z</time>
      </trkpt>
      <trkpt lat="42.71303" lon="1.63485">
        <ele>1879.345</ele>
        <time>2021-06-13T09:24:49Z</time>
      </trkpt>
      <trkpt lat="42.71302" lon="1.63483">
        <ele>1879.577</ele>
        <time>2021-06-13T09:24:51Z</time>
      </trkpt>
      <trkpt lat="42.71301" lon="1.63482">
        <ele>1879.425</ele>
        <time>2021-06-13T09:24:53Z</time>
      </trkpt>
      <trkpt lat="42.71301" lon="1.63481">
        <ele>1878.952</ele>
        <time>2021-06-13T09:24:55Z</time>
      </trkpt>
      <trkpt lat="42.713" lon="1.63479">
        <ele>1879.251</ele>
        <time>2021-06-13T09:24:57Z</time>
      </trkpt>
      <trkpt lat="42.713" lon="1.63477">
        <ele>1880.491</ele>
        <time>2021-06-13T09:24:59Z</time>
      </trkpt>
      <trkpt lat="42.71299" lon="1.63476">
        <ele>1882.507</ele>
        <time>2021-06-13T09:25:01Z</time>
      </trkpt>
      <trkpt lat="42.71299" lon="1.63474">
        <ele>1882.552</ele>
        <time>2021-06-13T09:25:03Z</time>
      </trkpt>
      <trkpt lat="42.71299" lon="1.63472">
        <ele>1883.67</ele>
        <time>2021-06-13T09:25:05Z</time>
      </trkpt>
      <trkpt lat="42.71299" lon="1.63471">
        <ele>1883.554</ele>
        <time>2021-06-13T09:25:07Z</time>
      </trkpt>
      <trkpt lat="42.71299" lon="1.6347">
        <ele>1883.044</ele>
        <time>2021-06-13T09:25:09Z</time>
      </trkpt>
      <trkpt lat="42.71298" lon="1.63468">
        <ele>1883.197</ele>
        <time>2021-06-13T09:25:11Z</time>
      </trkpt>
      <trkpt lat="42.71297" lon="1.63467">
        <ele>1883.519</ele>
        <time>2021-06-13T09:25:13Z</time>
      </trkpt>
      <trkpt lat="42.71297" lon="1.63465">
        <ele>1883.712</ele>
        <time>2021-06-13T09:25:15Z</time>
      </trkpt>
      <trkpt lat="42.71297" lon="1.63464">
        <ele>1882.943</ele>
        <time>2021-06-13T09:25:17Z</time>
      </trkpt>
      <trkpt lat="42.71296" lon="1.63462">
        <ele>1883.229</ele>
        <time>2021-06-13T09:25:19Z</time>
      </trkpt>
      <trkpt lat="42.71295" lon="1.6346">
        <ele>1883.903</ele>
        <time>2021-06-13T09:25:21Z</time>
      </trkpt>
      <trkpt lat="42.71295" lon="1.6346">
        <ele>1883.451</ele>
        <time>2021-06-13T09:25:23Z</time>
      </trkpt>
      <trkpt lat="42.71294" lon="1.6346">
        <ele>1883.219</ele>
        <time>2021-06-13T09:25:25Z</time>
      </trkpt>
      <trkpt lat="42.71293" lon="1.63462">
        <ele>1882.634</ele>
        <time>2021-06-13T09:25:27Z</time>
      </trkpt>
      <trkpt lat="42.71293" lon="1.63463">
        <ele>1883.264</ele>
        <time>2021-06-13T09:25:29Z</time>
      </trkpt>
      <trkpt lat="42.71291" lon="1.63464">
        <ele>1883.319</ele>
        <time>2021-06-13T09:25:31Z</time>
      </trkpt>
      <trkpt lat="42.7129" lon="1.63465">
        <ele>1883.391</ele>
        <time>2021-06-13T09:25:33Z</time>
      </trkpt>
      <trkpt lat="42.71289" lon="1.63464">
        <ele>1884.238</ele>
        <time>2021-06-13T09:25:35Z</time>
      </trkpt>
      <trkpt lat="42.71288" lon="1.63463">
        <ele>1884.473</ele>
        <time>2021-06-13T09:25:37Z</time>
      </trkpt>
      <trkpt lat="42.71287" lon="1.63462">
        <ele>1884.61</ele>
        <time>2021-06-13T09:25:39Z</time>
      </trkpt>
      <trkpt lat="42.71285" lon="1.6346">
        <ele>1885.001</ele>
        <time>2021-06-13T09:25:41Z</time>
      </trkpt>
      <trkpt lat="42.71284" lon="1.6346">
        <ele>1885.732</ele>
        <time>2021-06-13T09:25:43Z</time>
      </trkpt>
      <trkpt lat="42.71283" lon="1.63459">
        <ele>1886.526</ele>
        <time>2021-06-13T09:25:45Z</time>
      </trkpt>
      <trkpt lat="42.71281" lon="1.6346">
        <ele>1886.573</ele>
        <time>2021-06-13T09:25:47Z</time>
      </trkpt>
      <trkpt lat="42.71281" lon="1.63459">
        <ele>1887.701</ele>
        <time>2021-06-13T09:25:49Z</time>
      </trkpt>
      <trkpt lat="42.7128" lon="1.63459">
        <ele>1888.326</ele>
        <time>2021-06-13T09:25:51Z</time>
      </trkpt>
      <trkpt lat="42.71279" lon="1.63458">
        <ele>1888.431</ele>
        <time>2021-06-13T09:25:53Z</time>
      </trkpt>
      <trkpt lat="42.71278" lon="1.63456">
        <ele>1888.316</ele>
        <time>2021-06-13T09:25:55Z</time>
      </trkpt>
      <trkpt lat="42.71277" lon="1.63455">
        <ele>1888.801</ele>
        <time>2021-06-13T09:25:57Z</time>
      </trkpt>
      <trkpt lat="42.71276" lon="1.63454">
        <ele>1889.054</ele>
        <time>2021-06-13T09:25:59Z</time>
      </trkpt>
      <trkpt lat="42.71275" lon="1.63453">
        <ele>1889.452</ele>
        <time>2021-06-13T09:26:01Z</time>
      </trkpt>
      <trkpt lat="42.71275" lon="1.63452">
        <ele>1889.944</ele>
        <time>2021-06-13T09:26:03Z</time>
      </trkpt>
      <trkpt lat="42.71274" lon="1.63452">
        <ele>1889.652</ele>
        <time>2021-06-13T09:26:05Z</time>
      </trkpt>
      <trkpt lat="42.71273" lon="1.63451">
        <ele>1889.508</ele>
        <time>2021-06-13T09:26:07Z</time>
      </trkpt>
      <trkpt lat="42.71271" lon="1.6345">
        <ele>1890.341</ele>
        <time>2021-06-13T09:26:09Z</time>
      </trkpt>
      <trkpt lat="42.7127" lon="1.63449">
        <ele>1890.795</ele>
        <time>2021-06-13T09:26:11Z</time>
      </trkpt>
      <trkpt lat="42.71269" lon="1.63448">
        <ele>1891.642</ele>
        <time>2021-06-13T09:26:13Z</time>
      </trkpt>
      <trkpt lat="42.71268" lon="1.63447">
        <ele>1891.696</ele>
        <time>2021-06-13T09:26:15Z</time>
      </trkpt>
      <trkpt lat="42.71267" lon="1.63445">
        <ele>1891.72</ele>
        <time>2021-06-13T09:26:17Z</time>
      </trkpt>
      <trkpt lat="42.71267" lon="1.63445">
        <ele>1892.394</ele>
        <time>2021-06-13T09:26:19Z</time>
      </trkpt>
      <trkpt lat="42.71267" lon="1.63445">
        <ele>1892.743</ele>
        <time>2021-06-13T09:26:21Z</time>
      </trkpt>
      <trkpt lat="42.71266" lon="1.63445">
        <ele>1892.705</ele>
        <time>2021-06-13T09:26:23Z</time>
      </trkpt>
      <trkpt lat="42.71266" lon="1.63445">
        <ele>1892.567</ele>
        <time>2021-06-13T09:26:25Z</time>
      </trkpt>
      <trkpt lat="42.71264" lon="1.63444">
        <ele>1893.508</ele>
        <time>2021-06-13T09:26:27Z</time>
      </trkpt>
      <trkpt lat="42.71264" lon="1.63443">
        <ele>1893.237</ele>
        <time>2021-06-13T09:26:29Z</time>
      </trkpt>
      <trkpt lat="42.71262" lon="1.63442">
        <ele>1893.792</ele>
        <time>2021-06-13T09:26:31Z</time>
      </trkpt>
      <trkpt lat="42.71261" lon="1.63441">
        <ele>1893.951</ele>
        <time>2021-06-13T09:26:33Z</time>
      </trkpt>
      <trkpt lat="42.7126" lon="1.6344">
        <ele>1894.734</ele>
        <time>2021-06-13T09:26:35Z</time>
      </trkpt>
      <trkpt lat="42.71259" lon="1.63439">
        <ele>1894.828</ele>
        <time>2021-06-13T09:26:37Z</time>
      </trkpt>
      <trkpt lat="42.71258" lon="1.63438">
        <ele>1893.878</ele>
        <time>2021-06-13T09:26:39Z</time>
      </trkpt>
      <trkpt lat="42.71257" lon="1.63438">
        <ele>1894.544</ele>
        <time>2021-06-13T09:26:41Z</time>
      </trkpt>
      <trkpt lat="42.71256" lon="1.63438">
        <ele>1895.277</ele>
        <time>2021-06-13T09:26:43Z</time>
      </trkpt>
      <trkpt lat="42.71255" lon="1.63437">
        <ele>1895.358</ele>
        <time>2021-06-13T09:26:45Z</time>
      </trkpt>
      <trkpt lat="42.71254" lon="1.63437">
        <ele>1896.017</ele>
        <time>2021-06-13T09:26:46Z</time>
      </trkpt>
      <trkpt lat="42.71251" lon="1.63438">
        <ele>1896.634</ele>
        <time>2021-06-13T09:26:53Z</time>
      </trkpt>
      <trkpt lat="42.71249" lon="1.63438">
        <ele>1896.657</ele>
        <time>2021-06-13T09:26:55Z</time>
      </trkpt>
      <trkpt lat="42.71248" lon="1.63437">
        <ele>1897.073</ele>
        <time>2021-06-13T09:26:57Z</time>
      </trkpt>
      <trkpt lat="42.71247" lon="1.63437">
        <ele>1897.278</ele>
        <time>2021-06-13T09:26:59Z</time>
      </trkpt>
      <trkpt lat="42.71245" lon="1.63437">
        <ele>1897.69</ele>
        <time>2021-06-13T09:27:01Z</time>
      </trkpt>
      <trkpt lat="42.71244" lon="1.63438">
        <ele>1898.443</ele>
        <time>2021-06-13T09:27:03Z</time>
      </trkpt>
      <trkpt lat="42.71243" lon="1.63437">
        <ele>1898.629</ele>
        <time>2021-06-13T09:27:05Z</time>
      </trkpt>
      <trkpt lat="42.71241" lon="1.63437">
        <ele>1898.757</ele>
        <time>2021-06-13T09:27:07Z</time>
      </trkpt>
      <trkpt lat="42.71241" lon="1.63436">
        <ele>1898.795</ele>
        <time>2021-06-13T09:27:09Z</time>
      </trkpt>
      <trkpt lat="42.7124" lon="1.63435">
        <ele>1899.273</ele>
        <time>2021-06-13T09:27:11Z</time>
      </trkpt>
      <trkpt lat="42.71239" lon="1.63434">
        <ele>1899.783</ele>
        <time>2021-06-13T09:27:13Z</time>
      </trkpt>
      <trkpt lat="42.71239" lon="1.63433">
        <ele>1900.964</ele>
        <time>2021-06-13T09:27:15Z</time>
      </trkpt>
      <trkpt lat="42.71238" lon="1.63433">
        <ele>1901.375</ele>
        <time>2021-06-13T09:27:17Z</time>
      </trkpt>
      <trkpt lat="42.71238" lon="1.63433">
        <ele>1901.389</ele>
        <time>2021-06-13T09:27:19Z</time>
      </trkpt>
      <trkpt lat="42.71238" lon="1.63432">
        <ele>1902.031</ele>
        <time>2021-06-13T09:27:21Z</time>
      </trkpt>
      <trkpt lat="42.71238" lon="1.6343">
        <ele>1902.435</ele>
        <time>2021-06-13T09:27:23Z</time>
      </trkpt>
      <trkpt lat="42.71239" lon="1.63428">
        <ele>1903.229</ele>
        <time>2021-06-13T09:27:25Z</time>
      </trkpt>
      <trkpt lat="42.71238" lon="1.63426">
        <ele>1903.419</ele>
        <time>2021-06-13T09:27:27Z</time>
      </trkpt>
      <trkpt lat="42.71237" lon="1.63426">
        <ele>1903.796</ele>
        <time>2021-06-13T09:27:29Z</time>
      </trkpt>
      <trkpt lat="42.71236" lon="1.63425">
        <ele>1903.849</ele>
        <time>2021-06-13T09:27:31Z</time>
      </trkpt>
      <trkpt lat="42.71236" lon="1.63424">
        <ele>1903.607</ele>
        <time>2021-06-13T09:27:33Z</time>
      </trkpt>
      <trkpt lat="42.71234" lon="1.63423">
        <ele>1903.933</ele>
        <time>2021-06-13T09:27:35Z</time>
      </trkpt>
      <trkpt lat="42.71233" lon="1.63423">
        <ele>1904.04</ele>
        <time>2021-06-13T09:27:37Z</time>
      </trkpt>
      <trkpt lat="42.71232" lon="1.63423">
        <ele>1904.245</ele>
        <time>2021-06-13T09:27:39Z</time>
      </trkpt>
      <trkpt lat="42.71231" lon="1.63423">
        <ele>1904.464</ele>
        <time>2021-06-13T09:27:41Z</time>
      </trkpt>
      <trkpt lat="42.7123" lon="1.63423">
        <ele>1904.522</ele>
        <time>2021-06-13T09:27:43Z</time>
      </trkpt>
      <trkpt lat="42.7123" lon="1.63423">
        <ele>1904.572</ele>
        <time>2021-06-13T09:27:45Z</time>
      </trkpt>
      <trkpt lat="42.71229" lon="1.63422">
        <ele>1905.531</ele>
        <time>2021-06-13T09:27:47Z</time>
      </trkpt>
      <trkpt lat="42.71228" lon="1.63422">
        <ele>1905.573</ele>
        <time>2021-06-13T09:27:49Z</time>
      </trkpt>
      <trkpt lat="42.71227" lon="1.63421">
        <ele>1906.65</ele>
        <time>2021-06-13T09:27:51Z</time>
      </trkpt>
      <trkpt lat="42.71226" lon="1.6342">
        <ele>1907.146</ele>
        <time>2021-06-13T09:27:53Z</time>
      </trkpt>
      <trkpt lat="42.71225" lon="1.63419">
        <ele>1907.671</ele>
        <time>2021-06-13T09:27:55Z</time>
      </trkpt>
      <trkpt lat="42.71224" lon="1.63418">
        <ele>1907.886</ele>
        <time>2021-06-13T09:27:57Z</time>
      </trkpt>
      <trkpt lat="42.71224" lon="1.63417">
        <ele>1908.61</ele>
        <time>2021-06-13T09:27:59Z</time>
      </trkpt>
      <trkpt lat="42.71223" lon="1.63416">
        <ele>1909.463</ele>
        <time>2021-06-13T09:28:01Z</time>
      </trkpt>
      <trkpt lat="42.71223" lon="1.63415">
        <ele>1909.329</ele>
        <time>2021-06-13T09:28:03Z</time>
      </trkpt>
      <trkpt lat="42.71222" lon="1.63414">
        <ele>1910.102</ele>
        <time>2021-06-13T09:28:05Z</time>
      </trkpt>
      <trkpt lat="42.71222" lon="1.63412">
        <ele>1909.7</ele>
        <time>2021-06-13T09:28:07Z</time>
      </trkpt>
      <trkpt lat="42.71221" lon="1.63411">
        <ele>1910.655</ele>
        <time>2021-06-13T09:28:09Z</time>
      </trkpt>
      <trkpt lat="42.71221" lon="1.6341">
        <ele>1911.378</ele>
        <time>2021-06-13T09:28:11Z</time>
      </trkpt>
      <trkpt lat="42.71221" lon="1.63409">
        <ele>1911.428</ele>
        <time>2021-06-13T09:28:13Z</time>
      </trkpt>
      <trkpt lat="42.7122" lon="1.63408">
        <ele>1911.638</ele>
        <time>2021-06-13T09:28:15Z</time>
      </trkpt>
      <trkpt lat="42.71219" lon="1.63407">
        <ele>1912.142</ele>
        <time>2021-06-13T09:28:17Z</time>
      </trkpt>
      <trkpt lat="42.71218" lon="1.63405">
        <ele>1912.775</ele>
        <time>2021-06-13T09:28:19Z</time>
      </trkpt>
      <trkpt lat="42.71217" lon="1.63405">
        <ele>1913.028</ele>
        <time>2021-06-13T09:28:21Z</time>
      </trkpt>
      <trkpt lat="42.71216" lon="1.63404">
        <ele>1913.195</ele>
        <time>2021-06-13T09:28:23Z</time>
      </trkpt>
      <trkpt lat="42.71215" lon="1.63404">
        <ele>1914.032</ele>
        <time>2021-06-13T09:28:25Z</time>
      </trkpt>
      <trkpt lat="42.71213" lon="1.63404">
        <ele>1914.38</ele>
        <time>2021-06-13T09:28:27Z</time>
      </trkpt>
      <trkpt lat="42.71212" lon="1.63403">
        <ele>1915.243</ele>
        <time>2021-06-13T09:28:29Z</time>
      </trkpt>
      <trkpt lat="42.71212" lon="1.63403">
        <ele>1915.892</ele>
        <time>2021-06-13T09:28:31Z</time>
      </trkpt>
      <trkpt lat="42.71211" lon="1.63403">
        <ele>1915.962</ele>
        <time>2021-06-13T09:28:33Z</time>
      </trkpt>
      <trkpt lat="42.7121" lon="1.63403">
        <ele>1916.702</ele>
        <time>2021-06-13T09:28:35Z</time>
      </trkpt>
      <trkpt lat="42.71209" lon="1.63403">
        <ele>1917</ele>
        <time>2021-06-13T09:28:37Z</time>
      </trkpt>
      <trkpt lat="42.71209" lon="1.63402">
        <ele>1917.174</ele>
        <time>2021-06-13T09:28:38Z</time>
      </trkpt>
      <trkpt lat="42.71208" lon="1.63401">
        <ele>1917.875</ele>
        <time>2021-06-13T09:28:40Z</time>
      </trkpt>
      <trkpt lat="42.71207" lon="1.63396">
        <ele>1919.363</ele>
        <time>2021-06-13T09:28:47Z</time>
      </trkpt>
      <trkpt lat="42.71206" lon="1.63395">
        <ele>1919.582</ele>
        <time>2021-06-13T09:28:49Z</time>
      </trkpt>
      <trkpt lat="42.71205" lon="1.63395">
        <ele>1919.578</ele>
        <time>2021-06-13T09:28:50Z</time>
      </trkpt>
      <trkpt lat="42.71204" lon="1.63392">
        <ele>1920.308</ele>
        <time>2021-06-13T09:28:56Z</time>
      </trkpt>
      <trkpt lat="42.71203" lon="1.6339">
        <ele>1920.499</ele>
        <time>2021-06-13T09:28:58Z</time>
      </trkpt>
      <trkpt lat="42.71203" lon="1.63388">
        <ele>1921.311</ele>
        <time>2021-06-13T09:29:00Z</time>
      </trkpt>
      <trkpt lat="42.71203" lon="1.63386">
        <ele>1921.629</ele>
        <time>2021-06-13T09:29:02Z</time>
      </trkpt>
      <trkpt lat="42.71202" lon="1.63385">
        <ele>1922.008</ele>
        <time>2021-06-13T09:29:04Z</time>
      </trkpt>
      <trkpt lat="42.71201" lon="1.63383">
        <ele>1922.391</ele>
        <time>2021-06-13T09:29:06Z</time>
      </trkpt>
      <trkpt lat="42.712" lon="1.63382">
        <ele>1922.636</ele>
        <time>2021-06-13T09:29:08Z</time>
      </trkpt>
      <trkpt lat="42.71199" lon="1.6338">
        <ele>1923.491</ele>
        <time>2021-06-13T09:29:10Z</time>
      </trkpt>
      <trkpt lat="42.71198" lon="1.63379">
        <ele>1923.702</ele>
        <time>2021-06-13T09:29:12Z</time>
      </trkpt>
      <trkpt lat="42.71197" lon="1.63377">
        <ele>1924.991</ele>
        <time>2021-06-13T09:29:15Z</time>
      </trkpt>
      <trkpt lat="42.71196" lon="1.63376">
        <ele>1925.515</ele>
        <time>2021-06-13T09:29:17Z</time>
      </trkpt>
      <trkpt lat="42.71195" lon="1.63375">
        <ele>1925.823</ele>
        <time>2021-06-13T09:29:19Z</time>
      </trkpt>
      <trkpt lat="42.71193" lon="1.63373">
        <ele>1926.299</ele>
        <time>2021-06-13T09:29:21Z</time>
      </trkpt>
      <trkpt lat="42.71193" lon="1.63372">
        <ele>1926.873</ele>
        <time>2021-06-13T09:29:23Z</time>
      </trkpt>
      <trkpt lat="42.71192" lon="1.6337">
        <ele>1926.378</ele>
        <time>2021-06-13T09:29:25Z</time>
      </trkpt>
      <trkpt lat="42.71191" lon="1.63369">
        <ele>1927.14</ele>
        <time>2021-06-13T09:29:27Z</time>
      </trkpt>
      <trkpt lat="42.7119" lon="1.63367">
        <ele>1927.411</ele>
        <time>2021-06-13T09:29:29Z</time>
      </trkpt>
      <trkpt lat="42.7119" lon="1.63365">
        <ele>1927.499</ele>
        <time>2021-06-13T09:29:31Z</time>
      </trkpt>
      <trkpt lat="42.7119" lon="1.63364">
        <ele>1928.003</ele>
        <time>2021-06-13T09:29:33Z</time>
      </trkpt>
      <trkpt lat="42.7119" lon="1.63362">
        <ele>1928.657</ele>
        <time>2021-06-13T09:29:35Z</time>
      </trkpt>
      <trkpt lat="42.71189" lon="1.63361">
        <ele>1928.989</ele>
        <time>2021-06-13T09:29:37Z</time>
      </trkpt>
      <trkpt lat="42.71189" lon="1.6336">
        <ele>1928.795</ele>
        <time>2021-06-13T09:29:39Z</time>
      </trkpt>
      <trkpt lat="42.71189" lon="1.63358">
        <ele>1928.448</ele>
        <time>2021-06-13T09:29:41Z</time>
      </trkpt>
      <trkpt lat="42.71188" lon="1.63355">
        <ele>1928.948</ele>
        <time>2021-06-13T09:29:43Z</time>
      </trkpt>
      <trkpt lat="42.71187" lon="1.63353">
        <ele>1929.249</ele>
        <time>2021-06-13T09:29:45Z</time>
      </trkpt>
      <trkpt lat="42.71186" lon="1.63352">
        <ele>1928.776</ele>
        <time>2021-06-13T09:29:47Z</time>
      </trkpt>
      <trkpt lat="42.71185" lon="1.63351">
        <ele>1928.934</ele>
        <time>2021-06-13T09:29:49Z</time>
      </trkpt>
      <trkpt lat="42.71185" lon="1.63349">
        <ele>1929.642</ele>
        <time>2021-06-13T09:29:51Z</time>
      </trkpt>
      <trkpt lat="42.71184" lon="1.63346">
        <ele>1929.432</ele>
        <time>2021-06-13T09:29:53Z</time>
      </trkpt>
      <trkpt lat="42.71183" lon="1.63345">
        <ele>1929.557</ele>
        <time>2021-06-13T09:29:55Z</time>
      </trkpt>
      <trkpt lat="42.71183" lon="1.63343">
        <ele>1929.895</ele>
        <time>2021-06-13T09:29:57Z</time>
      </trkpt>
      <trkpt lat="42.71182" lon="1.63344">
        <ele>1929.893</ele>
        <time>2021-06-13T09:29:59Z</time>
      </trkpt>
      <trkpt lat="42.71182" lon="1.63344">
        <ele>1929.893</ele>
        <time>2021-06-13T09:30:01Z</time>
      </trkpt>
      <trkpt lat="42.71182" lon="1.63344">
        <ele>1929.891</ele>
        <time>2021-06-13T09:30:03Z</time>
      </trkpt>
      <trkpt lat="42.71182" lon="1.63344">
        <ele>1930.01</ele>
        <time>2021-06-13T09:30:05Z</time>
      </trkpt>
      <trkpt lat="42.71182" lon="1.63344">
        <ele>1930.194</ele>
        <time>2021-06-13T09:30:07Z</time>
      </trkpt>
      <trkpt lat="42.71182" lon="1.63344">
        <ele>1930.572</ele>
        <time>2021-06-13T09:30:09Z</time>
      </trkpt>
      <trkpt lat="42.71182" lon="1.63345">
        <ele>1930.593</ele>
        <time>2021-06-13T09:30:11Z</time>
      </trkpt>
      <trkpt lat="42.71182" lon="1.63345">
        <ele>1930.64</ele>
        <time>2021-06-13T09:30:13Z</time>
      </trkpt>
      <trkpt lat="42.71183" lon="1.63346">
        <ele>1930.566</ele>
        <time>2021-06-13T09:30:15Z</time>
      </trkpt>
      <trkpt lat="42.71184" lon="1.63347">
        <ele>1930.555</ele>
        <time>2021-06-13T09:30:17Z</time>
      </trkpt>
      <trkpt lat="42.71184" lon="1.63348">
        <ele>1930.657</ele>
        <time>2021-06-13T09:30:19Z</time>
      </trkpt>
      <trkpt lat="42.71184" lon="1.63349">
        <ele>1930.885</ele>
        <time>2021-06-13T09:30:21Z</time>
      </trkpt>
      <trkpt lat="42.71186" lon="1.6335">
        <ele>1930.291</ele>
        <time>2021-06-13T09:30:23Z</time>
      </trkpt>
      <trkpt lat="42.71189" lon="1.63351">
        <ele>1929.915</ele>
        <time>2021-06-13T09:30:25Z</time>
      </trkpt>
      <trkpt lat="42.71191" lon="1.63352">
        <ele>1929.747</ele>
        <time>2021-06-13T09:30:27Z</time>
      </trkpt>
      <trkpt lat="42.71192" lon="1.63353">
        <ele>1929.79</ele>
        <time>2021-06-13T09:30:29Z</time>
      </trkpt>
      <trkpt lat="42.71194" lon="1.63354">
        <ele>1929.734</ele>
        <time>2021-06-13T09:30:31Z</time>
      </trkpt>
      <trkpt lat="42.71196" lon="1.63355">
        <ele>1930.118</ele>
        <time>2021-06-13T09:30:33Z</time>
      </trkpt>
      <trkpt lat="42.71196" lon="1.63355">
        <ele>1930.287</ele>
        <time>2021-06-13T09:30:35Z</time>
      </trkpt>
      <trkpt lat="42.71197" lon="1.63354">
        <ele>1930.287</ele>
        <time>2021-06-13T09:30:37Z</time>
      </trkpt>
      <trkpt lat="42.71196" lon="1.63355">
        <ele>1930.377</ele>
        <time>2021-06-13T09:30:38Z</time>
      </trkpt>
      <trkpt lat="42.71198" lon="1.63356">
        <ele>1930.441</ele>
        <time>2021-06-13T09:30:45Z</time>
      </trkpt>
      <trkpt lat="42.71198" lon="1.63356">
        <ele>1930.427</ele>
        <time>2021-06-13T09:30:47Z</time>
      </trkpt>
      <trkpt lat="42.71198" lon="1.63356">
        <ele>1930.103</ele>
        <time>2021-06-13T09:30:49Z</time>
      </trkpt>
      <trkpt lat="42.71198" lon="1.63356">
        <ele>1930.062</ele>
        <time>2021-06-13T09:30:50Z</time>
      </trkpt>
      <trkpt lat="42.71197" lon="1.63355">
        <ele>1929.248</ele>
        <time>2021-06-13T09:30:55Z</time>
      </trkpt>
      <trkpt lat="42.71197" lon="1.63356">
        <ele>1929.115</ele>
        <time>2021-06-13T09:31:02Z</time>
      </trkpt>
      <trkpt lat="42.71197" lon="1.63356">
        <ele>1929.118</ele>
        <time>2021-06-13T09:31:04Z</time>
      </trkpt>
      <trkpt lat="42.71197" lon="1.63356">
        <ele>1928.813</ele>
        <time>2021-06-13T09:31:05Z</time>
      </trkpt>
      <trkpt lat="42.71197" lon="1.63356">
        <ele>1929.292</ele>
        <time>2021-06-13T09:31:11Z</time>
      </trkpt>
      <trkpt lat="42.71197" lon="1.63356">
        <ele>1929.385</ele>
        <time>2021-06-13T09:31:13Z</time>
      </trkpt>
      <trkpt lat="42.71197" lon="1.63356">
        <ele>1929.38</ele>
        <time>2021-06-13T09:31:15Z</time>
      </trkpt>
      <trkpt lat="42.71197" lon="1.63356">
        <ele>1929.377</ele>
        <time>2021-06-13T09:31:17Z</time>
      </trkpt>
      <trkpt lat="42.71197" lon="1.63356">
        <ele>1929.377</ele>
        <time>2021-06-13T09:31:19Z</time>
      </trkpt>
      <trkpt lat="42.71197" lon="1.63356">
        <ele>1929.404</ele>
        <time>2021-06-13T09:31:21Z</time>
      </trkpt>
      <trkpt lat="42.71197" lon="1.63356">
        <ele>1929.357</ele>
        <time>2021-06-13T09:31:23Z</time>
      </trkpt>
      <trkpt lat="42.71197" lon="1.63356">
        <ele>1929.291</ele>
        <time>2021-06-13T09:31:25Z</time>
      </trkpt>
      <trkpt lat="42.71196" lon="1.63356">
        <ele>1929.299</ele>
        <time>2021-06-13T09:31:27Z</time>
      </trkpt>
      <trkpt lat="42.71196" lon="1.63356">
        <ele>1929.3</ele>
        <time>2021-06-13T09:31:29Z</time>
      </trkpt>
      <trkpt lat="42.71196" lon="1.63356">
        <ele>1929.305</ele>
        <time>2021-06-13T09:31:31Z</time>
      </trkpt>
      <trkpt lat="42.71196" lon="1.63356">
        <ele>1929.31</ele>
        <time>2021-06-13T09:31:33Z</time>
      </trkpt>
      <trkpt lat="42.71196" lon="1.63356">
        <ele>1929.313</ele>
        <time>2021-06-13T09:31:35Z</time>
      </trkpt>
      <trkpt lat="42.71196" lon="1.63356">
        <ele>1929.316</ele>
        <time>2021-06-13T09:31:37Z</time>
      </trkpt>
      <trkpt lat="42.71196" lon="1.63356">
        <ele>1929.314</ele>
        <time>2021-06-13T09:31:39Z</time>
      </trkpt>
      <trkpt lat="42.71196" lon="1.63356">
        <ele>1929.314</ele>
        <time>2021-06-13T09:31:41Z</time>
      </trkpt>
      <trkpt lat="42.71196" lon="1.63356">
        <ele>1929.311</ele>
        <time>2021-06-13T09:31:43Z</time>
      </trkpt>
      <trkpt lat="42.71196" lon="1.63356">
        <ele>1929.313</ele>
        <time>2021-06-13T09:31:45Z</time>
      </trkpt>
      <trkpt lat="42.71196" lon="1.63356">
        <ele>1929.314</ele>
        <time>2021-06-13T09:31:47Z</time>
      </trkpt>
      <trkpt lat="42.71196" lon="1.63356">
        <ele>1929.314</ele>
        <time>2021-06-13T09:31:49Z</time>
      </trkpt>
      <trkpt lat="42.71196" lon="1.63356">
        <ele>1929.315</ele>
        <time>2021-06-13T09:31:51Z</time>
      </trkpt>
      <trkpt lat="42.71196" lon="1.63356">
        <ele>1929.318</ele>
        <time>2021-06-13T09:31:53Z</time>
      </trkpt>
      <trkpt lat="42.71196" lon="1.63356">
        <ele>1929.322</ele>
        <time>2021-06-13T09:31:55Z</time>
      </trkpt>
      <trkpt lat="42.71196" lon="1.63356">
        <ele>1929.317</ele>
        <time>2021-06-13T09:31:57Z</time>
      </trkpt>
      <trkpt lat="42.71196" lon="1.63356">
        <ele>1929.314</ele>
        <time>2021-06-13T09:31:59Z</time>
      </trkpt>
      <trkpt lat="42.71196" lon="1.63356">
        <ele>1929.272</ele>
        <time>2021-06-13T09:32:01Z</time>
      </trkpt>
      <trkpt lat="42.71197" lon="1.63356">
        <ele>1929.268</ele>
        <time>2021-06-13T09:32:03Z</time>
      </trkpt>
      <trkpt lat="42.71197" lon="1.63356">
        <ele>1929.265</ele>
        <time>2021-06-13T09:32:05Z</time>
      </trkpt>
      <trkpt lat="42.71197" lon="1.63356">
        <ele>1929.27</ele>
        <time>2021-06-13T09:32:07Z</time>
      </trkpt>
      <trkpt lat="42.71197" lon="1.63356">
        <ele>1928.921</ele>
        <time>2021-06-13T09:32:09Z</time>
      </trkpt>
      <trkpt lat="42.71197" lon="1.63356">
        <ele>1928.902</ele>
        <time>2021-06-13T09:32:11Z</time>
      </trkpt>
      <trkpt lat="42.71197" lon="1.63356">
        <ele>1928.891</ele>
        <time>2021-06-13T09:32:13Z</time>
      </trkpt>
      <trkpt lat="42.71197" lon="1.63355">
        <ele>1928.827</ele>
        <time>2021-06-13T09:32:15Z</time>
      </trkpt>
      <trkpt lat="42.71197" lon="1.63355">
        <ele>1928.455</ele>
        <time>2021-06-13T09:32:17Z</time>
      </trkpt>
      <trkpt lat="42.71196" lon="1.63354">
        <ele>1927.94</ele>
        <time>2021-06-13T09:32:19Z</time>
      </trkpt>
      <trkpt lat="42.71196" lon="1.63354">
        <ele>1927.948</ele>
        <time>2021-06-13T09:32:21Z</time>
      </trkpt>
      <trkpt lat="42.71196" lon="1.63354">
        <ele>1927.947</ele>
        <time>2021-06-13T09:32:23Z</time>
      </trkpt>
      <trkpt lat="42.71196" lon="1.63354">
        <ele>1927.946</ele>
        <time>2021-06-13T09:32:25Z</time>
      </trkpt>
      <trkpt lat="42.71196" lon="1.63354">
        <ele>1927.945</ele>
        <time>2021-06-13T09:32:27Z</time>
      </trkpt>
      <trkpt lat="42.71196" lon="1.63354">
        <ele>1927.944</ele>
        <time>2021-06-13T09:32:29Z</time>
      </trkpt>
      <trkpt lat="42.71196" lon="1.63354">
        <ele>1927.942</ele>
        <time>2021-06-13T09:32:31Z</time>
      </trkpt>
      <trkpt lat="42.71196" lon="1.63354">
        <ele>1927.942</ele>
        <time>2021-06-13T09:32:33Z</time>
      </trkpt>
      <trkpt lat="42.71196" lon="1.63354">
        <ele>1927.941</ele>
        <time>2021-06-13T09:32:35Z</time>
      </trkpt>
      <trkpt lat="42.71196" lon="1.63355">
        <ele>1928.634</ele>
        <time>2021-06-13T09:32:37Z</time>
      </trkpt>
      <trkpt lat="42.71196" lon="1.63355">
        <ele>1928.632</ele>
        <time>2021-06-13T09:32:39Z</time>
      </trkpt>
      <trkpt lat="42.71196" lon="1.63355">
        <ele>1928.633</ele>
        <time>2021-06-13T09:32:41Z</time>
      </trkpt>
      <trkpt lat="42.71196" lon="1.63355">
        <ele>1928.719</ele>
        <time>2021-06-13T09:32:43Z</time>
      </trkpt>
      <trkpt lat="42.71196" lon="1.63355">
        <ele>1928.731</ele>
        <time>2021-06-13T09:32:45Z</time>
      </trkpt>
      <trkpt lat="42.71196" lon="1.63355">
        <ele>1928.737</ele>
        <time>2021-06-13T09:32:47Z</time>
      </trkpt>
      <trkpt lat="42.71196" lon="1.63355">
        <ele>1928.744</ele>
        <time>2021-06-13T09:32:49Z</time>
      </trkpt>
      <trkpt lat="42.71196" lon="1.63355">
        <ele>1928.988</ele>
        <time>2021-06-13T09:32:51Z</time>
      </trkpt>
      <trkpt lat="42.71195" lon="1.63354">
        <ele>1928.976</ele>
        <time>2021-06-13T09:32:53Z</time>
      </trkpt>
      <trkpt lat="42.71195" lon="1.63355">
        <ele>1929.289</ele>
        <time>2021-06-13T09:32:55Z</time>
      </trkpt>
      <trkpt lat="42.71195" lon="1.63355">
        <ele>1929.284</ele>
        <time>2021-06-13T09:32:57Z</time>
      </trkpt>
      <trkpt lat="42.71195" lon="1.63355">
        <ele>1929.286</ele>
        <time>2021-06-13T09:32:59Z</time>
      </trkpt>
      <trkpt lat="42.71195" lon="1.63355">
        <ele>1929.288</ele>
        <time>2021-06-13T09:33:01Z</time>
      </trkpt>
      <trkpt lat="42.71195" lon="1.63355">
        <ele>1929.289</ele>
        <time>2021-06-13T09:33:03Z</time>
      </trkpt>
      <trkpt lat="42.71195" lon="1.63355">
        <ele>1929.286</ele>
        <time>2021-06-13T09:33:05Z</time>
      </trkpt>
      <trkpt lat="42.71195" lon="1.63355">
        <ele>1929.287</ele>
        <time>2021-06-13T09:33:07Z</time>
      </trkpt>
      <trkpt lat="42.71195" lon="1.63355">
        <ele>1929.286</ele>
        <time>2021-06-13T09:33:09Z</time>
      </trkpt>
      <trkpt lat="42.71195" lon="1.63355">
        <ele>1929.284</ele>
        <time>2021-06-13T09:33:11Z</time>
      </trkpt>
      <trkpt lat="42.71195" lon="1.63355">
        <ele>1929.281</ele>
        <time>2021-06-13T09:33:13Z</time>
      </trkpt>
      <trkpt lat="42.71195" lon="1.63355">
        <ele>1929.279</ele>
        <time>2021-06-13T09:33:15Z</time>
      </trkpt>
      <trkpt lat="42.71195" lon="1.63355">
        <ele>1929.275</ele>
        <time>2021-06-13T09:33:17Z</time>
      </trkpt>
      <trkpt lat="42.71195" lon="1.63355">
        <ele>1929.274</ele>
        <time>2021-06-13T09:33:19Z</time>
      </trkpt>
      <trkpt lat="42.71195" lon="1.63355">
        <ele>1929.273</ele>
        <time>2021-06-13T09:33:21Z</time>
      </trkpt>
      <trkpt lat="42.71195" lon="1.63355">
        <ele>1929.272</ele>
        <time>2021-06-13T09:33:23Z</time>
      </trkpt>
      <trkpt lat="42.71195" lon="1.63355">
        <ele>1929.271</ele>
        <time>2021-06-13T09:33:25Z</time>
      </trkpt>
      <trkpt lat="42.71195" lon="1.63355">
        <ele>1929.274</ele>
        <time>2021-06-13T09:33:27Z</time>
      </trkpt>
      <trkpt lat="42.71195" lon="1.63355">
        <ele>1929.281</ele>
        <time>2021-06-13T09:33:29Z</time>
      </trkpt>
      <trkpt lat="42.71195" lon="1.63355">
        <ele>1929.288</ele>
        <time>2021-06-13T09:33:31Z</time>
      </trkpt>
      <trkpt lat="42.71195" lon="1.63355">
        <ele>1929.291</ele>
        <time>2021-06-13T09:33:33Z</time>
      </trkpt>
      <trkpt lat="42.71195" lon="1.63355">
        <ele>1929.294</ele>
        <time>2021-06-13T09:33:35Z</time>
      </trkpt>
      <trkpt lat="42.71195" lon="1.63355">
        <ele>1929.298</ele>
        <time>2021-06-13T09:33:37Z</time>
      </trkpt>
      <trkpt lat="42.71195" lon="1.63355">
        <ele>1929.3</ele>
        <time>2021-06-13T09:33:39Z</time>
      </trkpt>
      <trkpt lat="42.71195" lon="1.63355">
        <ele>1929.301</ele>
        <time>2021-06-13T09:33:41Z</time>
      </trkpt>
      <trkpt lat="42.71195" lon="1.63355">
        <ele>1929.302</ele>
        <time>2021-06-13T09:33:43Z</time>
      </trkpt>
      <trkpt lat="42.71195" lon="1.63355">
        <ele>1929.305</ele>
        <time>2021-06-13T09:33:45Z</time>
      </trkpt>
      <trkpt lat="42.71195" lon="1.63355">
        <ele>1929.305</ele>
        <time>2021-06-13T09:33:47Z</time>
      </trkpt>
      <trkpt lat="42.71195" lon="1.63355">
        <ele>1929.306</ele>
        <time>2021-06-13T09:33:49Z</time>
      </trkpt>
      <trkpt lat="42.71195" lon="1.63355">
        <ele>1929.307</ele>
        <time>2021-06-13T09:33:51Z</time>
      </trkpt>
      <trkpt lat="42.71195" lon="1.63355">
        <ele>1929.309</ele>
        <time>2021-06-13T09:33:53Z</time>
      </trkpt>
      <trkpt lat="42.71195" lon="1.63355">
        <ele>1929.31</ele>
        <time>2021-06-13T09:33:55Z</time>
      </trkpt>
      <trkpt lat="42.71195" lon="1.63355">
        <ele>1929.312</ele>
        <time>2021-06-13T09:33:57Z</time>
      </trkpt>
      <trkpt lat="42.71195" lon="1.63355">
        <ele>1929.315</ele>
        <time>2021-06-13T09:33:59Z</time>
      </trkpt>
      <trkpt lat="42.71195" lon="1.63355">
        <ele>1929.313</ele>
        <time>2021-06-13T09:34:01Z</time>
      </trkpt>
      <trkpt lat="42.71195" lon="1.63355">
        <ele>1929.314</ele>
        <time>2021-06-13T09:34:03Z</time>
      </trkpt>
      <trkpt lat="42.71195" lon="1.63355">
        <ele>1929.315</ele>
        <time>2021-06-13T09:34:05Z</time>
      </trkpt>
      <trkpt lat="42.71195" lon="1.63355">
        <ele>1929.317</ele>
        <time>2021-06-13T09:34:07Z</time>
      </trkpt>
      <trkpt lat="42.71195" lon="1.63355">
        <ele>1929.316</ele>
        <time>2021-06-13T09:34:09Z</time>
      </trkpt>
      <trkpt lat="42.71195" lon="1.63355">
        <ele>1929.316</ele>
        <time>2021-06-13T09:34:11Z</time>
      </trkpt>
      <trkpt lat="42.71195" lon="1.63355">
        <ele>1929.312</ele>
        <time>2021-06-13T09:34:13Z</time>
      </trkpt>
      <trkpt lat="42.71195" lon="1.63355">
        <ele>1929.313</ele>
        <time>2021-06-13T09:34:15Z</time>
      </trkpt>
      <trkpt lat="42.71195" lon="1.63355">
        <ele>1929.303</ele>
        <time>2021-06-13T09:34:17Z</time>
      </trkpt>
      <trkpt lat="42.71195" lon="1.63355">
        <ele>1929.302</ele>
        <time>2021-06-13T09:34:19Z</time>
      </trkpt>
      <trkpt lat="42.71195" lon="1.63355">
        <ele>1929.302</ele>
        <time>2021-06-13T09:34:21Z</time>
      </trkpt>
      <trkpt lat="42.71195" lon="1.63355">
        <ele>1929.302</ele>
        <time>2021-06-13T09:34:23Z</time>
      </trkpt>
      <trkpt lat="42.71195" lon="1.63355">
        <ele>1929.299</ele>
        <time>2021-06-13T09:34:25Z</time>
      </trkpt>
      <trkpt lat="42.71195" lon="1.63355">
        <ele>1929.297</ele>
        <time>2021-06-13T09:34:27Z</time>
      </trkpt>
      <trkpt lat="42.71195" lon="1.63355">
        <ele>1929.298</ele>
        <time>2021-06-13T09:34:29Z</time>
      </trkpt>
      <trkpt lat="42.71195" lon="1.63355">
        <ele>1929.296</ele>
        <time>2021-06-13T09:34:31Z</time>
      </trkpt>
      <trkpt lat="42.71195" lon="1.63355">
        <ele>1929.295</ele>
        <time>2021-06-13T09:34:33Z</time>
      </trkpt>
      <trkpt lat="42.71195" lon="1.63355">
        <ele>1929.294</ele>
        <time>2021-06-13T09:34:35Z</time>
      </trkpt>
      <trkpt lat="42.71195" lon="1.63355">
        <ele>1929.291</ele>
        <time>2021-06-13T09:34:37Z</time>
      </trkpt>
      <trkpt lat="42.71195" lon="1.63355">
        <ele>1929.292</ele>
        <time>2021-06-13T09:34:39Z</time>
      </trkpt>
      <trkpt lat="42.71195" lon="1.63355">
        <ele>1929.29</ele>
        <time>2021-06-13T09:34:41Z</time>
      </trkpt>
      <trkpt lat="42.71195" lon="1.63355">
        <ele>1929.289</ele>
        <time>2021-06-13T09:34:43Z</time>
      </trkpt>
      <trkpt lat="42.71195" lon="1.63355">
        <ele>1929.287</ele>
        <time>2021-06-13T09:34:45Z</time>
      </trkpt>
      <trkpt lat="42.71195" lon="1.63355">
        <ele>1929.288</ele>
        <time>2021-06-13T09:34:47Z</time>
      </trkpt>
      <trkpt lat="42.71195" lon="1.63355">
        <ele>1929.287</ele>
        <time>2021-06-13T09:34:49Z</time>
      </trkpt>
      <trkpt lat="42.71195" lon="1.63355">
        <ele>1929.286</ele>
        <time>2021-06-13T09:34:51Z</time>
      </trkpt>
      <trkpt lat="42.71195" lon="1.63355">
        <ele>1929.285</ele>
        <time>2021-06-13T09:34:53Z</time>
      </trkpt>
      <trkpt lat="42.71195" lon="1.63355">
        <ele>1929.285</ele>
        <time>2021-06-13T09:34:55Z</time>
      </trkpt>
      <trkpt lat="42.71195" lon="1.63355">
        <ele>1929.283</ele>
        <time>2021-06-13T09:34:57Z</time>
      </trkpt>
      <trkpt lat="42.71195" lon="1.63355">
        <ele>1929.283</ele>
        <time>2021-06-13T09:34:59Z</time>
      </trkpt>
      <trkpt lat="42.71195" lon="1.63355">
        <ele>1929.283</ele>
        <time>2021-06-13T09:35:01Z</time>
      </trkpt>
      <trkpt lat="42.71195" lon="1.63355">
        <ele>1929.285</ele>
        <time>2021-06-13T09:35:03Z</time>
      </trkpt>
      <trkpt lat="42.71195" lon="1.63355">
        <ele>1929.384</ele>
        <time>2021-06-13T09:35:05Z</time>
      </trkpt>
      <trkpt lat="42.71195" lon="1.63355">
        <ele>1929.378</ele>
        <time>2021-06-13T09:35:07Z</time>
      </trkpt>
      <trkpt lat="42.71195" lon="1.63355">
        <ele>1929.437</ele>
        <time>2021-06-13T09:35:09Z</time>
      </trkpt>
      <trkpt lat="42.71195" lon="1.63355">
        <ele>1929.438</ele>
        <time>2021-06-13T09:35:11Z</time>
      </trkpt>
      <trkpt lat="42.71195" lon="1.63355">
        <ele>1929.363</ele>
        <time>2021-06-13T09:35:13Z</time>
      </trkpt>
      <trkpt lat="42.71195" lon="1.63355">
        <ele>1929.36</ele>
        <time>2021-06-13T09:35:15Z</time>
      </trkpt>
      <trkpt lat="42.71195" lon="1.63355">
        <ele>1929.359</ele>
        <time>2021-06-13T09:35:17Z</time>
      </trkpt>
      <trkpt lat="42.71195" lon="1.63355">
        <ele>1929.362</ele>
        <time>2021-06-13T09:35:19Z</time>
      </trkpt>
      <trkpt lat="42.71195" lon="1.63355">
        <ele>1929.363</ele>
        <time>2021-06-13T09:35:21Z</time>
      </trkpt>
      <trkpt lat="42.71195" lon="1.63355">
        <ele>1929.367</ele>
        <time>2021-06-13T09:35:23Z</time>
      </trkpt>
      <trkpt lat="42.71195" lon="1.63355">
        <ele>1929.367</ele>
        <time>2021-06-13T09:35:26Z</time>
      </trkpt>
      <trkpt lat="42.71195" lon="1.63355">
        <ele>1929.369</ele>
        <time>2021-06-13T09:35:28Z</time>
      </trkpt>
      <trkpt lat="42.71195" lon="1.63355">
        <ele>1929.371</ele>
        <time>2021-06-13T09:35:30Z</time>
      </trkpt>
      <trkpt lat="42.71195" lon="1.63355">
        <ele>1929.373</ele>
        <time>2021-06-13T09:35:32Z</time>
      </trkpt>
      <trkpt lat="42.71195" lon="1.63355">
        <ele>1929.337</ele>
        <time>2021-06-13T09:35:34Z</time>
      </trkpt>
      <trkpt lat="42.71195" lon="1.63355">
        <ele>1929.34</ele>
        <time>2021-06-13T09:35:36Z</time>
      </trkpt>
      <trkpt lat="42.71195" lon="1.63355">
        <ele>1929.343</ele>
        <time>2021-06-13T09:35:38Z</time>
      </trkpt>
      <trkpt lat="42.71195" lon="1.63355">
        <ele>1929.342</ele>
        <time>2021-06-13T09:35:40Z</time>
      </trkpt>
      <trkpt lat="42.71195" lon="1.63355">
        <ele>1929.34</ele>
        <time>2021-06-13T09:35:42Z</time>
      </trkpt>
      <trkpt lat="42.71195" lon="1.63354">
        <ele>1929.338</ele>
        <time>2021-06-13T09:35:44Z</time>
      </trkpt>
      <trkpt lat="42.71195" lon="1.63354">
        <ele>1929.338</ele>
        <time>2021-06-13T09:35:46Z</time>
      </trkpt>
      <trkpt lat="42.71195" lon="1.63354">
        <ele>1929.337</ele>
        <time>2021-06-13T09:35:48Z</time>
      </trkpt>
      <trkpt lat="42.71195" lon="1.63354">
        <ele>1929.337</ele>
        <time>2021-06-13T09:35:50Z</time>
      </trkpt>
      <trkpt lat="42.71195" lon="1.63354">
        <ele>1929.336</ele>
        <time>2021-06-13T09:35:52Z</time>
      </trkpt>
      <trkpt lat="42.71195" lon="1.63354">
        <ele>1929.335</ele>
        <time>2021-06-13T09:35:54Z</time>
      </trkpt>
      <trkpt lat="42.71195" lon="1.63354">
        <ele>1929.334</ele>
        <time>2021-06-13T09:35:56Z</time>
      </trkpt>
      <trkpt lat="42.71195" lon="1.63354">
        <ele>1929.333</ele>
        <time>2021-06-13T09:35:58Z</time>
      </trkpt>
      <trkpt lat="42.71195" lon="1.63354">
        <ele>1929.332</ele>
        <time>2021-06-13T09:36:00Z</time>
      </trkpt>
      <trkpt lat="42.71195" lon="1.63354">
        <ele>1929.331</ele>
        <time>2021-06-13T09:36:02Z</time>
      </trkpt>
      <trkpt lat="42.71195" lon="1.63354">
        <ele>1929.33</ele>
        <time>2021-06-13T09:36:04Z</time>
      </trkpt>
      <trkpt lat="42.71195" lon="1.63354">
        <ele>1929.329</ele>
        <time>2021-06-13T09:36:06Z</time>
      </trkpt>
      <trkpt lat="42.71195" lon="1.63354">
        <ele>1929.329</ele>
        <time>2021-06-13T09:36:08Z</time>
      </trkpt>
      <trkpt lat="42.71195" lon="1.63354">
        <ele>1929.329</ele>
        <time>2021-06-13T09:36:10Z</time>
      </trkpt>
      <trkpt lat="42.71195" lon="1.63354">
        <ele>1929.328</ele>
        <time>2021-06-13T09:36:12Z</time>
      </trkpt>
      <trkpt lat="42.71195" lon="1.63354">
        <ele>1929.327</ele>
        <time>2021-06-13T09:36:14Z</time>
      </trkpt>
      <trkpt lat="42.71195" lon="1.63354">
        <ele>1929.326</ele>
        <time>2021-06-13T09:36:16Z</time>
      </trkpt>
      <trkpt lat="42.71195" lon="1.63354">
        <ele>1929.321</ele>
        <time>2021-06-13T09:36:18Z</time>
      </trkpt>
      <trkpt lat="42.71195" lon="1.63354">
        <ele>1929.32</ele>
        <time>2021-06-13T09:36:20Z</time>
      </trkpt>
      <trkpt lat="42.71195" lon="1.63354">
        <ele>1929.318</ele>
        <time>2021-06-13T09:36:22Z</time>
      </trkpt>
      <trkpt lat="42.71195" lon="1.63354">
        <ele>1929.317</ele>
        <time>2021-06-13T09:36:24Z</time>
      </trkpt>
      <trkpt lat="42.71195" lon="1.63354">
        <ele>1929.317</ele>
        <time>2021-06-13T09:36:26Z</time>
      </trkpt>
      <trkpt lat="42.71195" lon="1.63354">
        <ele>1929.319</ele>
        <time>2021-06-13T09:36:28Z</time>
      </trkpt>
      <trkpt lat="42.71195" lon="1.63354">
        <ele>1929.318</ele>
        <time>2021-06-13T09:36:30Z</time>
      </trkpt>
      <trkpt lat="42.71195" lon="1.63354">
        <ele>1929.322</ele>
        <time>2021-06-13T09:36:32Z</time>
      </trkpt>
      <trkpt lat="42.71195" lon="1.63354">
        <ele>1929.322</ele>
        <time>2021-06-13T09:36:34Z</time>
      </trkpt>
      <trkpt lat="42.71195" lon="1.63354">
        <ele>1929.32</ele>
        <time>2021-06-13T09:36:36Z</time>
      </trkpt>
      <trkpt lat="42.71195" lon="1.63354">
        <ele>1929.321</ele>
        <time>2021-06-13T09:36:38Z</time>
      </trkpt>
      <trkpt lat="42.71195" lon="1.63354">
        <ele>1929.322</ele>
        <time>2021-06-13T09:36:40Z</time>
      </trkpt>
      <trkpt lat="42.71195" lon="1.63354">
        <ele>1929.321</ele>
        <time>2021-06-13T09:36:42Z</time>
      </trkpt>
      <trkpt lat="42.71195" lon="1.63354">
        <ele>1929.316</ele>
        <time>2021-06-13T09:36:44Z</time>
      </trkpt>
      <trkpt lat="42.71195" lon="1.63354">
        <ele>1929.303</ele>
        <time>2021-06-13T09:36:46Z</time>
      </trkpt>
      <trkpt lat="42.71195" lon="1.63354">
        <ele>1929.303</ele>
        <time>2021-06-13T09:36:48Z</time>
      </trkpt>
      <trkpt lat="42.71195" lon="1.63355">
        <ele>1929.302</ele>
        <time>2021-06-13T09:36:50Z</time>
      </trkpt>
      <trkpt lat="42.71195" lon="1.63355">
        <ele>1929.302</ele>
        <time>2021-06-13T09:36:52Z</time>
      </trkpt>
      <trkpt lat="42.71195" lon="1.63355">
        <ele>1929.299</ele>
        <time>2021-06-13T09:36:54Z</time>
      </trkpt>
      <trkpt lat="42.71195" lon="1.63355">
        <ele>1929.298</ele>
        <time>2021-06-13T09:36:56Z</time>
      </trkpt>
      <trkpt lat="42.71195" lon="1.63355">
        <ele>1929.298</ele>
        <time>2021-06-13T09:36:58Z</time>
      </trkpt>
      <trkpt lat="42.71195" lon="1.63355">
        <ele>1929.297</ele>
        <time>2021-06-13T09:37:00Z</time>
      </trkpt>
      <trkpt lat="42.71195" lon="1.63355">
        <ele>1929.293</ele>
        <time>2021-06-13T09:37:02Z</time>
      </trkpt>
      <trkpt lat="42.71195" lon="1.63355">
        <ele>1929.29</ele>
        <time>2021-06-13T09:37:04Z</time>
      </trkpt>
      <trkpt lat="42.71195" lon="1.63355">
        <ele>1929.29</ele>
        <time>2021-06-13T09:37:06Z</time>
      </trkpt>
      <trkpt lat="42.71195" lon="1.63355">
        <ele>1929.289</ele>
        <time>2021-06-13T09:37:07Z</time>
      </trkpt>
      <trkpt lat="42.71195" lon="1.63355">
        <ele>1929.286</ele>
        <time>2021-06-13T09:37:10Z</time>
      </trkpt>
      <trkpt lat="42.71195" lon="1.63355">
        <ele>1929.286</ele>
        <time>2021-06-13T09:37:12Z</time>
      </trkpt>
      <trkpt lat="42.71195" lon="1.63355">
        <ele>1929.289</ele>
        <time>2021-06-13T09:37:14Z</time>
      </trkpt>
      <trkpt lat="42.71195" lon="1.63355">
        <ele>1929.291</ele>
        <time>2021-06-13T09:37:16Z</time>
      </trkpt>
      <trkpt lat="42.71195" lon="1.63355">
        <ele>1929.291</ele>
        <time>2021-06-13T09:37:18Z</time>
      </trkpt>
      <trkpt lat="42.71195" lon="1.63355">
        <ele>1929.29</ele>
        <time>2021-06-13T09:37:20Z</time>
      </trkpt>
      <trkpt lat="42.71195" lon="1.63355">
        <ele>1929.288</ele>
        <time>2021-06-13T09:37:22Z</time>
      </trkpt>
      <trkpt lat="42.71195" lon="1.63355">
        <ele>1929.286</ele>
        <time>2021-06-13T09:37:24Z</time>
      </trkpt>
      <trkpt lat="42.71195" lon="1.63355">
        <ele>1929.284</ele>
        <time>2021-06-13T09:37:26Z</time>
      </trkpt>
      <trkpt lat="42.71195" lon="1.63355">
        <ele>1929.282</ele>
        <time>2021-06-13T09:37:28Z</time>
      </trkpt>
      <trkpt lat="42.71195" lon="1.63355">
        <ele>1929.284</ele>
        <time>2021-06-13T09:37:30Z</time>
      </trkpt>
      <trkpt lat="42.71195" lon="1.63355">
        <ele>1929.282</ele>
        <time>2021-06-13T09:37:32Z</time>
      </trkpt>
      <trkpt lat="42.71195" lon="1.63355">
        <ele>1929.28</ele>
        <time>2021-06-13T09:37:34Z</time>
      </trkpt>
      <trkpt lat="42.71195" lon="1.63355">
        <ele>1929.28</ele>
        <time>2021-06-13T09:37:36Z</time>
      </trkpt>
      <trkpt lat="42.71195" lon="1.63355">
        <ele>1929.28</ele>
        <time>2021-06-13T09:37:38Z</time>
      </trkpt>
      <trkpt lat="42.71195" lon="1.63355">
        <ele>1929.28</ele>
        <time>2021-06-13T09:37:40Z</time>
      </trkpt>
      <trkpt lat="42.71195" lon="1.63355">
        <ele>1929.279</ele>
        <time>2021-06-13T09:37:42Z</time>
      </trkpt>
      <trkpt lat="42.71195" lon="1.63355">
        <ele>1929.277</ele>
        <time>2021-06-13T09:37:44Z</time>
      </trkpt>
      <trkpt lat="42.71195" lon="1.63355">
        <ele>1929.279</ele>
        <time>2021-06-13T09:37:46Z</time>
      </trkpt>
      <trkpt lat="42.71195" lon="1.63355">
        <ele>1929.277</ele>
        <time>2021-06-13T09:37:48Z</time>
      </trkpt>
      <trkpt lat="42.71195" lon="1.63355">
        <ele>1929.276</ele>
        <time>2021-06-13T09:37:50Z</time>
      </trkpt>
      <trkpt lat="42.71195" lon="1.63355">
        <ele>1929.275</ele>
        <time>2021-06-13T09:37:52Z</time>
      </trkpt>
      <trkpt lat="42.71195" lon="1.63355">
        <ele>1929.273</ele>
        <time>2021-06-13T09:37:54Z</time>
      </trkpt>
      <trkpt lat="42.71195" lon="1.63355">
        <ele>1929.277</ele>
        <time>2021-06-13T09:37:56Z</time>
      </trkpt>
      <trkpt lat="42.71195" lon="1.63355">
        <ele>1929.279</ele>
        <time>2021-06-13T09:37:58Z</time>
      </trkpt>
      <trkpt lat="42.71195" lon="1.63355">
        <ele>1929.278</ele>
        <time>2021-06-13T09:38:00Z</time>
      </trkpt>
      <trkpt lat="42.71195" lon="1.63355">
        <ele>1929.279</ele>
        <time>2021-06-13T09:38:02Z</time>
      </trkpt>
      <trkpt lat="42.71195" lon="1.63355">
        <ele>1929.278</ele>
        <time>2021-06-13T09:38:04Z</time>
      </trkpt>
      <trkpt lat="42.71195" lon="1.63355">
        <ele>1929.277</ele>
        <time>2021-06-13T09:38:06Z</time>
      </trkpt>
      <trkpt lat="42.71195" lon="1.63355">
        <ele>1929.276</ele>
        <time>2021-06-13T09:38:08Z</time>
      </trkpt>
      <trkpt lat="42.71195" lon="1.63355">
        <ele>1929.275</ele>
        <time>2021-06-13T09:38:10Z</time>
      </trkpt>
      <trkpt lat="42.71195" lon="1.63355">
        <ele>1929.273</ele>
        <time>2021-06-13T09:38:12Z</time>
      </trkpt>
      <trkpt lat="42.71195" lon="1.63355">
        <ele>1929.272</ele>
        <time>2021-06-13T09:38:14Z</time>
      </trkpt>
      <trkpt lat="42.71195" lon="1.63355">
        <ele>1929.27</ele>
        <time>2021-06-13T09:38:16Z</time>
      </trkpt>
      <trkpt lat="42.71195" lon="1.63355">
        <ele>1929.268</ele>
        <time>2021-06-13T09:38:18Z</time>
      </trkpt>
      <trkpt lat="42.71195" lon="1.63355">
        <ele>1929.206</ele>
        <time>2021-06-13T09:38:20Z</time>
      </trkpt>
      <trkpt lat="42.71195" lon="1.63355">
        <ele>1929.205</ele>
        <time>2021-06-13T09:38:22Z</time>
      </trkpt>
      <trkpt lat="42.71195" lon="1.63355">
        <ele>1929.201</ele>
        <time>2021-06-13T09:38:24Z</time>
      </trkpt>
      <trkpt lat="42.71195" lon="1.63355">
        <ele>1929.146</ele>
        <time>2021-06-13T09:38:26Z</time>
      </trkpt>
      <trkpt lat="42.71195" lon="1.63355">
        <ele>1929.144</ele>
        <time>2021-06-13T09:38:28Z</time>
      </trkpt>
      <trkpt lat="42.71195" lon="1.63355">
        <ele>1929.141</ele>
        <time>2021-06-13T09:38:30Z</time>
      </trkpt>
      <trkpt lat="42.71195" lon="1.63355">
        <ele>1929.138</ele>
        <time>2021-06-13T09:38:32Z</time>
      </trkpt>
      <trkpt lat="42.71195" lon="1.63355">
        <ele>1929.135</ele>
        <time>2021-06-13T09:38:34Z</time>
      </trkpt>
      <trkpt lat="42.71195" lon="1.63355">
        <ele>1929.136</ele>
        <time>2021-06-13T09:38:36Z</time>
      </trkpt>
      <trkpt lat="42.71195" lon="1.63355">
        <ele>1928.967</ele>
        <time>2021-06-13T09:38:38Z</time>
      </trkpt>
      <trkpt lat="42.71195" lon="1.63355">
        <ele>1928.961</ele>
        <time>2021-06-13T09:38:40Z</time>
      </trkpt>
      <trkpt lat="42.71195" lon="1.63355">
        <ele>1928.96</ele>
        <time>2021-06-13T09:38:42Z</time>
      </trkpt>
      <trkpt lat="42.71195" lon="1.63355">
        <ele>1928.957</ele>
        <time>2021-06-13T09:38:44Z</time>
      </trkpt>
      <trkpt lat="42.71195" lon="1.63355">
        <ele>1928.953</ele>
        <time>2021-06-13T09:38:46Z</time>
      </trkpt>
      <trkpt lat="42.71195" lon="1.63355">
        <ele>1928.953</ele>
        <time>2021-06-13T09:38:48Z</time>
      </trkpt>
      <trkpt lat="42.71195" lon="1.63355">
        <ele>1928.952</ele>
        <time>2021-06-13T09:38:50Z</time>
      </trkpt>
      <trkpt lat="42.71195" lon="1.63355">
        <ele>1928.951</ele>
        <time>2021-06-13T09:38:52Z</time>
      </trkpt>
      <trkpt lat="42.71195" lon="1.63355">
        <ele>1928.949</ele>
        <time>2021-06-13T09:38:54Z</time>
      </trkpt>
      <trkpt lat="42.71195" lon="1.63355">
        <ele>1928.951</ele>
        <time>2021-06-13T09:38:56Z</time>
      </trkpt>
      <trkpt lat="42.71195" lon="1.63355">
        <ele>1928.95</ele>
        <time>2021-06-13T09:38:58Z</time>
      </trkpt>
      <trkpt lat="42.71195" lon="1.63355">
        <ele>1928.949</ele>
        <time>2021-06-13T09:39:00Z</time>
      </trkpt>
      <trkpt lat="42.71195" lon="1.63355">
        <ele>1928.948</ele>
        <time>2021-06-13T09:39:02Z</time>
      </trkpt>
      <trkpt lat="42.71195" lon="1.63355">
        <ele>1928.949</ele>
        <time>2021-06-13T09:39:04Z</time>
      </trkpt>
      <trkpt lat="42.71195" lon="1.63355">
        <ele>1928.948</ele>
        <time>2021-06-13T09:39:06Z</time>
      </trkpt>
      <trkpt lat="42.71195" lon="1.63355">
        <ele>1928.95</ele>
        <time>2021-06-13T09:39:08Z</time>
      </trkpt>
      <trkpt lat="42.71195" lon="1.63355">
        <ele>1928.951</ele>
        <time>2021-06-13T09:39:10Z</time>
      </trkpt>
      <trkpt lat="42.71195" lon="1.63355">
        <ele>1928.949</ele>
        <time>2021-06-13T09:39:12Z</time>
      </trkpt>
      <trkpt lat="42.71195" lon="1.63355">
        <ele>1928.95</ele>
        <time>2021-06-13T09:39:14Z</time>
      </trkpt>
      <trkpt lat="42.71195" lon="1.63355">
        <ele>1928.95</ele>
        <time>2021-06-13T09:39:16Z</time>
      </trkpt>
      <trkpt lat="42.71195" lon="1.63355">
        <ele>1928.951</ele>
        <time>2021-06-13T09:39:18Z</time>
      </trkpt>
      <trkpt lat="42.71195" lon="1.63355">
        <ele>1928.952</ele>
        <time>2021-06-13T09:39:19Z</time>
      </trkpt>
      <trkpt lat="42.71195" lon="1.63355">
        <ele>1928.954</ele>
        <time>2021-06-13T09:39:22Z</time>
      </trkpt>
      <trkpt lat="42.71195" lon="1.63355">
        <ele>1928.957</ele>
        <time>2021-06-13T09:39:24Z</time>
      </trkpt>
      <trkpt lat="42.71195" lon="1.63355">
        <ele>1928.957</ele>
        <time>2021-06-13T09:39:26Z</time>
      </trkpt>
      <trkpt lat="42.71195" lon="1.63355">
        <ele>1928.955</ele>
        <time>2021-06-13T09:39:28Z</time>
      </trkpt>
      <trkpt lat="42.71195" lon="1.63355">
        <ele>1929.048</ele>
        <time>2021-06-13T09:39:29Z</time>
      </trkpt>
      <trkpt lat="42.71195" lon="1.63355">
        <ele>1929.051</ele>
        <time>2021-06-13T09:39:32Z</time>
      </trkpt>
      <trkpt lat="42.71195" lon="1.63355">
        <ele>1929.052</ele>
        <time>2021-06-13T09:39:34Z</time>
      </trkpt>
      <trkpt lat="42.71195" lon="1.63355">
        <ele>1929.05</ele>
        <time>2021-06-13T09:39:36Z</time>
      </trkpt>
      <trkpt lat="42.71195" lon="1.63355">
        <ele>1929.05</ele>
        <time>2021-06-13T09:39:38Z</time>
      </trkpt>
      <trkpt lat="42.71195" lon="1.63355">
        <ele>1928.968</ele>
        <time>2021-06-13T09:39:40Z</time>
      </trkpt>
      <trkpt lat="42.71194" lon="1.63355">
        <ele>1929.088</ele>
        <time>2021-06-13T09:39:42Z</time>
      </trkpt>
      <trkpt lat="42.71194" lon="1.63355">
        <ele>1929.087</ele>
        <time>2021-06-13T09:39:44Z</time>
      </trkpt>
      <trkpt lat="42.71194" lon="1.63355">
        <ele>1929.087</ele>
        <time>2021-06-13T09:39:46Z</time>
      </trkpt>
      <trkpt lat="42.71194" lon="1.63355">
        <ele>1929.011</ele>
        <time>2021-06-13T09:39:48Z</time>
      </trkpt>
      <trkpt lat="42.71194" lon="1.63355">
        <ele>1929.009</ele>
        <time>2021-06-13T09:39:50Z</time>
      </trkpt>
      <trkpt lat="42.71194" lon="1.63355">
        <ele>1929.007</ele>
        <time>2021-06-13T09:39:52Z</time>
      </trkpt>
      <trkpt lat="42.71194" lon="1.63355">
        <ele>1929.01</ele>
        <time>2021-06-13T09:39:54Z</time>
      </trkpt>
      <trkpt lat="42.71194" lon="1.63355">
        <ele>1929.011</ele>
        <time>2021-06-13T09:39:56Z</time>
      </trkpt>
      <trkpt lat="42.71194" lon="1.63355">
        <ele>1929.008</ele>
        <time>2021-06-13T09:39:58Z</time>
      </trkpt>
      <trkpt lat="42.71194" lon="1.63355">
        <ele>1929.008</ele>
        <time>2021-06-13T09:40:00Z</time>
      </trkpt>
      <trkpt lat="42.71194" lon="1.63355">
        <ele>1929.008</ele>
        <time>2021-06-13T09:40:02Z</time>
      </trkpt>
      <trkpt lat="42.71194" lon="1.63355">
        <ele>1929.007</ele>
        <time>2021-06-13T09:40:04Z</time>
      </trkpt>
      <trkpt lat="42.71194" lon="1.63355">
        <ele>1929.006</ele>
        <time>2021-06-13T09:40:06Z</time>
      </trkpt>
      <trkpt lat="42.71194" lon="1.63355">
        <ele>1929.004</ele>
        <time>2021-06-13T09:40:08Z</time>
      </trkpt>
      <trkpt lat="42.71194" lon="1.63355">
        <ele>1929.005</ele>
        <time>2021-06-13T09:40:10Z</time>
      </trkpt>
      <trkpt lat="42.71194" lon="1.63355">
        <ele>1929.008</ele>
        <time>2021-06-13T09:40:12Z</time>
      </trkpt>
      <trkpt lat="42.71194" lon="1.63355">
        <ele>1929.011</ele>
        <time>2021-06-13T09:40:14Z</time>
      </trkpt>
      <trkpt lat="42.71194" lon="1.63355">
        <ele>1929.014</ele>
        <time>2021-06-13T09:40:16Z</time>
      </trkpt>
      <trkpt lat="42.71194" lon="1.63355">
        <ele>1929.015</ele>
        <time>2021-06-13T09:40:17Z</time>
      </trkpt>
      <trkpt lat="42.71194" lon="1.63355">
        <ele>1929.018</ele>
        <time>2021-06-13T09:40:20Z</time>
      </trkpt>
      <trkpt lat="42.71194" lon="1.63355">
        <ele>1928.793</ele>
        <time>2021-06-13T09:40:22Z</time>
      </trkpt>
      <trkpt lat="42.71193" lon="1.63354">
        <ele>1928.707</ele>
        <time>2021-06-13T09:40:24Z</time>
      </trkpt>
      <trkpt lat="42.71192" lon="1.63353">
        <ele>1928.436</ele>
        <time>2021-06-13T09:40:26Z</time>
      </trkpt>
      <trkpt lat="42.71192" lon="1.63353">
        <ele>1928.494</ele>
        <time>2021-06-13T09:40:28Z</time>
      </trkpt>
      <trkpt lat="42.71192" lon="1.63353">
        <ele>1928.459</ele>
        <time>2021-06-13T09:40:30Z</time>
      </trkpt>
      <trkpt lat="42.71192" lon="1.63353">
        <ele>1928.455</ele>
        <time>2021-06-13T09:40:32Z</time>
      </trkpt>
      <trkpt lat="42.71192" lon="1.63353">
        <ele>1928.451</ele>
        <time>2021-06-13T09:40:34Z</time>
      </trkpt>
      <trkpt lat="42.71192" lon="1.63353">
        <ele>1928.447</ele>
        <time>2021-06-13T09:40:36Z</time>
      </trkpt>
      <trkpt lat="42.71192" lon="1.63353">
        <ele>1928.445</ele>
        <time>2021-06-13T09:40:38Z</time>
      </trkpt>
      <trkpt lat="42.71193" lon="1.63353">
        <ele>1928.433</ele>
        <time>2021-06-13T09:40:40Z</time>
      </trkpt>
      <trkpt lat="42.71193" lon="1.63353">
        <ele>1928.365</ele>
        <time>2021-06-13T09:40:42Z</time>
      </trkpt>
      <trkpt lat="42.71193" lon="1.63353">
        <ele>1928.134</ele>
        <time>2021-06-13T09:40:44Z</time>
      </trkpt>
      <trkpt lat="42.71193" lon="1.63353">
        <ele>1928.297</ele>
        <time>2021-06-13T09:40:46Z</time>
      </trkpt>
      <trkpt lat="42.71193" lon="1.63354">
        <ele>1928.3</ele>
        <time>2021-06-13T09:40:48Z</time>
      </trkpt>
      <trkpt lat="42.71193" lon="1.63354">
        <ele>1928.21</ele>
        <time>2021-06-13T09:40:50Z</time>
      </trkpt>
      <trkpt lat="42.71193" lon="1.63353">
        <ele>1927.684</ele>
        <time>2021-06-13T09:40:52Z</time>
      </trkpt>
      <trkpt lat="42.71193" lon="1.63353">
        <ele>1927.685</ele>
        <time>2021-06-13T09:40:54Z</time>
      </trkpt>
      <trkpt lat="42.71193" lon="1.63353">
        <ele>1927.682</ele>
        <time>2021-06-13T09:40:56Z</time>
      </trkpt>
      <trkpt lat="42.71193" lon="1.63353">
        <ele>1927.679</ele>
        <time>2021-06-13T09:40:58Z</time>
      </trkpt>
      <trkpt lat="42.71193" lon="1.63353">
        <ele>1927.676</ele>
        <time>2021-06-13T09:41:00Z</time>
      </trkpt>
      <trkpt lat="42.71193" lon="1.63353">
        <ele>1927.675</ele>
        <time>2021-06-13T09:41:02Z</time>
      </trkpt>
      <trkpt lat="42.71193" lon="1.63353">
        <ele>1927.675</ele>
        <time>2021-06-13T09:41:04Z</time>
      </trkpt>
      <trkpt lat="42.71193" lon="1.63353">
        <ele>1927.674</ele>
        <time>2021-06-13T09:41:06Z</time>
      </trkpt>
      <trkpt lat="42.71193" lon="1.63353">
        <ele>1927.67</ele>
        <time>2021-06-13T09:41:08Z</time>
      </trkpt>
      <trkpt lat="42.71193" lon="1.63353">
        <ele>1927.667</ele>
        <time>2021-06-13T09:41:10Z</time>
      </trkpt>
      <trkpt lat="42.71193" lon="1.63353">
        <ele>1927.667</ele>
        <time>2021-06-13T09:41:12Z</time>
      </trkpt>
      <trkpt lat="42.71192" lon="1.63353">
        <ele>1927.357</ele>
        <time>2021-06-13T09:41:14Z</time>
      </trkpt>
      <trkpt lat="42.71192" lon="1.63353">
        <ele>1927.011</ele>
        <time>2021-06-13T09:41:16Z</time>
      </trkpt>
      <trkpt lat="42.71191" lon="1.63354">
        <ele>1926.947</ele>
        <time>2021-06-13T09:41:18Z</time>
      </trkpt>
      <trkpt lat="42.71191" lon="1.63354">
        <ele>1926.873</ele>
        <time>2021-06-13T09:41:20Z</time>
      </trkpt>
      <trkpt lat="42.71191" lon="1.63354">
        <ele>1926.874</ele>
        <time>2021-06-13T09:41:22Z</time>
      </trkpt>
      <trkpt lat="42.71191" lon="1.63354">
        <ele>1926.874</ele>
        <time>2021-06-13T09:41:24Z</time>
      </trkpt>
      <trkpt lat="42.71191" lon="1.63354">
        <ele>1926.874</ele>
        <time>2021-06-13T09:41:26Z</time>
      </trkpt>
      <trkpt lat="42.71191" lon="1.63354">
        <ele>1926.874</ele>
        <time>2021-06-13T09:41:28Z</time>
      </trkpt>
      <trkpt lat="42.71191" lon="1.63354">
        <ele>1927.249</ele>
        <time>2021-06-13T09:41:30Z</time>
      </trkpt>
      <trkpt lat="42.71191" lon="1.63354">
        <ele>1926.947</ele>
        <time>2021-06-13T09:41:32Z</time>
      </trkpt>
      <trkpt lat="42.71191" lon="1.63354">
        <ele>1927.219</ele>
        <time>2021-06-13T09:41:34Z</time>
      </trkpt>
      <trkpt lat="42.71191" lon="1.63354">
        <ele>1927.05</ele>
        <time>2021-06-13T09:41:36Z</time>
      </trkpt>
      <trkpt lat="42.71191" lon="1.63353">
        <ele>1927.081</ele>
        <time>2021-06-13T09:41:38Z</time>
      </trkpt>
      <trkpt lat="42.7119" lon="1.63353">
        <ele>1927.388</ele>
        <time>2021-06-13T09:41:40Z</time>
      </trkpt>
      <trkpt lat="42.7119" lon="1.63353">
        <ele>1927.395</ele>
        <time>2021-06-13T09:41:42Z</time>
      </trkpt>
      <trkpt lat="42.7119" lon="1.63353">
        <ele>1927.571</ele>
        <time>2021-06-13T09:41:44Z</time>
      </trkpt>
      <trkpt lat="42.71187" lon="1.63357">
        <ele>1926.837</ele>
        <time>2021-06-13T09:41:50Z</time>
      </trkpt>
      <trkpt lat="42.71185" lon="1.63357">
        <ele>1926.571</ele>
        <time>2021-06-13T09:41:52Z</time>
      </trkpt>
      <trkpt lat="42.71183" lon="1.63357">
        <ele>1926.664</ele>
        <time>2021-06-13T09:41:54Z</time>
      </trkpt>
      <trkpt lat="42.71181" lon="1.63357">
        <ele>1926.863</ele>
        <time>2021-06-13T09:41:56Z</time>
      </trkpt>
      <trkpt lat="42.7118" lon="1.63357">
        <ele>1926.851</ele>
        <time>2021-06-13T09:41:58Z</time>
      </trkpt>
      <trkpt lat="42.71178" lon="1.63357">
        <ele>1926.574</ele>
        <time>2021-06-13T09:42:00Z</time>
      </trkpt>
      <trkpt lat="42.71177" lon="1.63357">
        <ele>1926.606</ele>
        <time>2021-06-13T09:42:02Z</time>
      </trkpt>
      <trkpt lat="42.71173" lon="1.63357">
        <ele>1926.6</ele>
        <time>2021-06-13T09:42:09Z</time>
      </trkpt>
      <trkpt lat="42.71172" lon="1.63356">
        <ele>1926.749</ele>
        <time>2021-06-13T09:42:11Z</time>
      </trkpt>
      <trkpt lat="42.7117" lon="1.63355">
        <ele>1926.651</ele>
        <time>2021-06-13T09:42:13Z</time>
      </trkpt>
      <trkpt lat="42.71169" lon="1.63355">
        <ele>1926.728</ele>
        <time>2021-06-13T09:42:15Z</time>
      </trkpt>
      <trkpt lat="42.71167" lon="1.63355">
        <ele>1926.435</ele>
        <time>2021-06-13T09:42:17Z</time>
      </trkpt>
      <trkpt lat="42.71165" lon="1.63354">
        <ele>1926.032</ele>
        <time>2021-06-13T09:42:19Z</time>
      </trkpt>
      <trkpt lat="42.71164" lon="1.63354">
        <ele>1926.054</ele>
        <time>2021-06-13T09:42:21Z</time>
      </trkpt>
      <trkpt lat="42.71163" lon="1.63354">
        <ele>1926.406</ele>
        <time>2021-06-13T09:42:23Z</time>
      </trkpt>
      <trkpt lat="42.71162" lon="1.63354">
        <ele>1925.994</ele>
        <time>2021-06-13T09:42:25Z</time>
      </trkpt>
      <trkpt lat="42.71161" lon="1.63354">
        <ele>1925.947</ele>
        <time>2021-06-13T09:42:27Z</time>
      </trkpt>
      <trkpt lat="42.71161" lon="1.63354">
        <ele>1925.294</ele>
        <time>2021-06-13T09:42:29Z</time>
      </trkpt>
      <trkpt lat="42.7116" lon="1.63353">
        <ele>1925.371</ele>
        <time>2021-06-13T09:42:31Z</time>
      </trkpt>
      <trkpt lat="42.71158" lon="1.63353">
        <ele>1925.398</ele>
        <time>2021-06-13T09:42:33Z</time>
      </trkpt>
      <trkpt lat="42.71157" lon="1.63352">
        <ele>1924.927</ele>
        <time>2021-06-13T09:42:35Z</time>
      </trkpt>
      <trkpt lat="42.71155" lon="1.63352">
        <ele>1924.879</ele>
        <time>2021-06-13T09:42:37Z</time>
      </trkpt>
      <trkpt lat="42.71153" lon="1.63351">
        <ele>1925.256</ele>
        <time>2021-06-13T09:42:39Z</time>
      </trkpt>
      <trkpt lat="42.71152" lon="1.6335">
        <ele>1925.45</ele>
        <time>2021-06-13T09:42:41Z</time>
      </trkpt>
      <trkpt lat="42.7115" lon="1.63349">
        <ele>1925.572</ele>
        <time>2021-06-13T09:42:43Z</time>
      </trkpt>
      <trkpt lat="42.71147" lon="1.63347">
        <ele>1925.417</ele>
        <time>2021-06-13T09:42:45Z</time>
      </trkpt>
      <trkpt lat="42.71145" lon="1.63346">
        <ele>1926.006</ele>
        <time>2021-06-13T09:42:47Z</time>
      </trkpt>
      <trkpt lat="42.71143" lon="1.63344">
        <ele>1925.469</ele>
        <time>2021-06-13T09:42:49Z</time>
      </trkpt>
      <trkpt lat="42.71141" lon="1.63344">
        <ele>1925.526</ele>
        <time>2021-06-13T09:42:51Z</time>
      </trkpt>
      <trkpt lat="42.71139" lon="1.63343">
        <ele>1925.312</ele>
        <time>2021-06-13T09:42:53Z</time>
      </trkpt>
      <trkpt lat="42.71137" lon="1.63341">
        <ele>1924.911</ele>
        <time>2021-06-13T09:42:55Z</time>
      </trkpt>
      <trkpt lat="42.71135" lon="1.63339">
        <ele>1924.637</ele>
        <time>2021-06-13T09:42:57Z</time>
      </trkpt>
      <trkpt lat="42.71133" lon="1.63338">
        <ele>1924.528</ele>
        <time>2021-06-13T09:42:59Z</time>
      </trkpt>
      <trkpt lat="42.71131" lon="1.63337">
        <ele>1924.036</ele>
        <time>2021-06-13T09:43:01Z</time>
      </trkpt>
      <trkpt lat="42.71129" lon="1.63337">
        <ele>1924.028</ele>
        <time>2021-06-13T09:43:03Z</time>
      </trkpt>
      <trkpt lat="42.71128" lon="1.63336">
        <ele>1923.476</ele>
        <time>2021-06-13T09:43:05Z</time>
      </trkpt>
      <trkpt lat="42.71126" lon="1.63335">
        <ele>1923.127</ele>
        <time>2021-06-13T09:43:07Z</time>
      </trkpt>
      <trkpt lat="42.71124" lon="1.63334">
        <ele>1922.352</ele>
        <time>2021-06-13T09:43:09Z</time>
      </trkpt>
      <trkpt lat="42.71122" lon="1.63335">
        <ele>1922.79</ele>
        <time>2021-06-13T09:43:11Z</time>
      </trkpt>
      <trkpt lat="42.7112" lon="1.63335">
        <ele>1922.927</ele>
        <time>2021-06-13T09:43:13Z</time>
      </trkpt>
      <trkpt lat="42.71119" lon="1.63336">
        <ele>1922.596</ele>
        <time>2021-06-13T09:43:15Z</time>
      </trkpt>
      <trkpt lat="42.71117" lon="1.63337">
        <ele>1922.846</ele>
        <time>2021-06-13T09:43:17Z</time>
      </trkpt>
      <trkpt lat="42.71115" lon="1.63337">
        <ele>1922.761</ele>
        <time>2021-06-13T09:43:19Z</time>
      </trkpt>
      <trkpt lat="42.71112" lon="1.63338">
        <ele>1922.263</ele>
        <time>2021-06-13T09:43:21Z</time>
      </trkpt>
      <trkpt lat="42.7111" lon="1.63339">
        <ele>1921.901</ele>
        <time>2021-06-13T09:43:23Z</time>
      </trkpt>
      <trkpt lat="42.71108" lon="1.63339">
        <ele>1922.225</ele>
        <time>2021-06-13T09:43:25Z</time>
      </trkpt>
      <trkpt lat="42.71106" lon="1.63339">
        <ele>1922.05</ele>
        <time>2021-06-13T09:43:27Z</time>
      </trkpt>
      <trkpt lat="42.71103" lon="1.63339">
        <ele>1921.979</ele>
        <time>2021-06-13T09:43:29Z</time>
      </trkpt>
      <trkpt lat="42.71101" lon="1.6334">
        <ele>1921.488</ele>
        <time>2021-06-13T09:43:31Z</time>
      </trkpt>
      <trkpt lat="42.71099" lon="1.6334">
        <ele>1921.176</ele>
        <time>2021-06-13T09:43:33Z</time>
      </trkpt>
      <trkpt lat="42.71097" lon="1.6334">
        <ele>1921.198</ele>
        <time>2021-06-13T09:43:35Z</time>
      </trkpt>
      <trkpt lat="42.71095" lon="1.63341">
        <ele>1921.055</ele>
        <time>2021-06-13T09:43:37Z</time>
      </trkpt>
      <trkpt lat="42.71092" lon="1.63341">
        <ele>1920.691</ele>
        <time>2021-06-13T09:43:39Z</time>
      </trkpt>
      <trkpt lat="42.7109" lon="1.63342">
        <ele>1920.811</ele>
        <time>2021-06-13T09:43:41Z</time>
      </trkpt>
      <trkpt lat="42.71088" lon="1.63342">
        <ele>1920.573</ele>
        <time>2021-06-13T09:43:43Z</time>
      </trkpt>
      <trkpt lat="42.71084" lon="1.63343">
        <ele>1920.458</ele>
        <time>2021-06-13T09:43:46Z</time>
      </trkpt>
      <trkpt lat="42.71082" lon="1.63344">
        <ele>1920.183</ele>
        <time>2021-06-13T09:43:48Z</time>
      </trkpt>
      <trkpt lat="42.7108" lon="1.63345">
        <ele>1920.525</ele>
        <time>2021-06-13T09:43:50Z</time>
      </trkpt>
      <trkpt lat="42.71078" lon="1.63346">
        <ele>1920.688</ele>
        <time>2021-06-13T09:43:52Z</time>
      </trkpt>
      <trkpt lat="42.71076" lon="1.63347">
        <ele>1920.442</ele>
        <time>2021-06-13T09:43:54Z</time>
      </trkpt>
      <trkpt lat="42.71074" lon="1.63348">
        <ele>1919.942</ele>
        <time>2021-06-13T09:43:56Z</time>
      </trkpt>
      <trkpt lat="42.71072" lon="1.63349">
        <ele>1919.7</ele>
        <time>2021-06-13T09:43:58Z</time>
      </trkpt>
      <trkpt lat="42.71069" lon="1.6335">
        <ele>1919.439</ele>
        <time>2021-06-13T09:44:00Z</time>
      </trkpt>
      <trkpt lat="42.71067" lon="1.63351">
        <ele>1919.351</ele>
        <time>2021-06-13T09:44:02Z</time>
      </trkpt>
      <trkpt lat="42.71065" lon="1.63352">
        <ele>1919.02</ele>
        <time>2021-06-13T09:44:04Z</time>
      </trkpt>
      <trkpt lat="42.71064" lon="1.63353">
        <ele>1919.352</ele>
        <time>2021-06-13T09:44:06Z</time>
      </trkpt>
      <trkpt lat="42.71061" lon="1.63354">
        <ele>1919.09</ele>
        <time>2021-06-13T09:44:09Z</time>
      </trkpt>
      <trkpt lat="42.7106" lon="1.63355">
        <ele>1918.744</ele>
        <time>2021-06-13T09:44:11Z</time>
      </trkpt>
      <trkpt lat="42.71058" lon="1.63355">
        <ele>1919.435</ele>
        <time>2021-06-13T09:44:13Z</time>
      </trkpt>
      <trkpt lat="42.71056" lon="1.63356">
        <ele>1919.44</ele>
        <time>2021-06-13T09:44:15Z</time>
      </trkpt>
      <trkpt lat="42.71055" lon="1.63357">
        <ele>1919.336</ele>
        <time>2021-06-13T09:44:17Z</time>
      </trkpt>
      <trkpt lat="42.71053" lon="1.63358">
        <ele>1919.682</ele>
        <time>2021-06-13T09:44:19Z</time>
      </trkpt>
      <trkpt lat="42.71051" lon="1.63358">
        <ele>1920.23</ele>
        <time>2021-06-13T09:44:21Z</time>
      </trkpt>
      <trkpt lat="42.71051" lon="1.63358">
        <ele>1920.114</ele>
        <time>2021-06-13T09:44:23Z</time>
      </trkpt>
      <trkpt lat="42.71051" lon="1.63358">
        <ele>1920.116</ele>
        <time>2021-06-13T09:44:25Z</time>
      </trkpt>
      <trkpt lat="42.71051" lon="1.63358">
        <ele>1920.115</ele>
        <time>2021-06-13T09:44:27Z</time>
      </trkpt>
      <trkpt lat="42.71051" lon="1.63358">
        <ele>1920.113</ele>
        <time>2021-06-13T09:44:29Z</time>
      </trkpt>
      <trkpt lat="42.71051" lon="1.63358">
        <ele>1920.114</ele>
        <time>2021-06-13T09:44:31Z</time>
      </trkpt>
      <trkpt lat="42.71051" lon="1.63358">
        <ele>1920.114</ele>
        <time>2021-06-13T09:44:33Z</time>
      </trkpt>
      <trkpt lat="42.71051" lon="1.63358">
        <ele>1920.109</ele>
        <time>2021-06-13T09:44:35Z</time>
      </trkpt>
      <trkpt lat="42.71051" lon="1.63358">
        <ele>1920.107</ele>
        <time>2021-06-13T09:44:37Z</time>
      </trkpt>
      <trkpt lat="42.71051" lon="1.63358">
        <ele>1920.108</ele>
        <time>2021-06-13T09:44:39Z</time>
      </trkpt>
      <trkpt lat="42.7105" lon="1.63358">
        <ele>1919.476</ele>
        <time>2021-06-13T09:44:41Z</time>
      </trkpt>
      <trkpt lat="42.7105" lon="1.63358">
        <ele>1919.285</ele>
        <time>2021-06-13T09:44:43Z</time>
      </trkpt>
      <trkpt lat="42.7105" lon="1.63358">
        <ele>1919.27</ele>
        <time>2021-06-13T09:44:45Z</time>
      </trkpt>
      <trkpt lat="42.7105" lon="1.63359">
        <ele>1918.858</ele>
        <time>2021-06-13T09:44:47Z</time>
      </trkpt>
      <trkpt lat="42.7105" lon="1.63359">
        <ele>1918.571</ele>
        <time>2021-06-13T09:44:49Z</time>
      </trkpt>
      <trkpt lat="42.7105" lon="1.63359">
        <ele>1918.564</ele>
        <time>2021-06-13T09:44:51Z</time>
      </trkpt>
      <trkpt lat="42.7105" lon="1.63359">
        <ele>1918.558</ele>
        <time>2021-06-13T09:44:53Z</time>
      </trkpt>
      <trkpt lat="42.7105" lon="1.63359">
        <ele>1918.556</ele>
        <time>2021-06-13T09:44:55Z</time>
      </trkpt>
      <trkpt lat="42.7105" lon="1.63359">
        <ele>1918.559</ele>
        <time>2021-06-13T09:44:57Z</time>
      </trkpt>
      <trkpt lat="42.7105" lon="1.63359">
        <ele>1918.559</ele>
        <time>2021-06-13T09:44:59Z</time>
      </trkpt>
      <trkpt lat="42.7105" lon="1.63359">
        <ele>1918.56</ele>
        <time>2021-06-13T09:45:01Z</time>
      </trkpt>
      <trkpt lat="42.7105" lon="1.63359">
        <ele>1918.561</ele>
        <time>2021-06-13T09:45:03Z</time>
      </trkpt>
      <trkpt lat="42.7105" lon="1.63359">
        <ele>1918.566</ele>
        <time>2021-06-13T09:45:05Z</time>
      </trkpt>
      <trkpt lat="42.7105" lon="1.63359">
        <ele>1918.563</ele>
        <time>2021-06-13T09:45:07Z</time>
      </trkpt>
      <trkpt lat="42.7105" lon="1.63359">
        <ele>1918.562</ele>
        <time>2021-06-13T09:45:09Z</time>
      </trkpt>
      <trkpt lat="42.7105" lon="1.63359">
        <ele>1918.562</ele>
        <time>2021-06-13T09:45:11Z</time>
      </trkpt>
      <trkpt lat="42.7105" lon="1.63359">
        <ele>1918.561</ele>
        <time>2021-06-13T09:45:13Z</time>
      </trkpt>
      <trkpt lat="42.7105" lon="1.6336">
        <ele>1918.697</ele>
        <time>2021-06-13T09:45:15Z</time>
      </trkpt>
      <trkpt lat="42.7105" lon="1.6336">
        <ele>1918.693</ele>
        <time>2021-06-13T09:45:17Z</time>
      </trkpt>
      <trkpt lat="42.7105" lon="1.6336">
        <ele>1918.692</ele>
        <time>2021-06-13T09:45:19Z</time>
      </trkpt>
      <trkpt lat="42.7105" lon="1.6336">
        <ele>1918.691</ele>
        <time>2021-06-13T09:45:21Z</time>
      </trkpt>
      <trkpt lat="42.7105" lon="1.63359">
        <ele>1918.347</ele>
        <time>2021-06-13T09:45:23Z</time>
      </trkpt>
      <trkpt lat="42.7105" lon="1.63358">
        <ele>1918.749</ele>
        <time>2021-06-13T09:45:25Z</time>
      </trkpt>
      <trkpt lat="42.7105" lon="1.63358">
        <ele>1918.47</ele>
        <time>2021-06-13T09:45:27Z</time>
      </trkpt>
      <trkpt lat="42.7105" lon="1.63358">
        <ele>1918.473</ele>
        <time>2021-06-13T09:45:29Z</time>
      </trkpt>
      <trkpt lat="42.71049" lon="1.63356">
        <ele>1918.607</ele>
        <time>2021-06-13T09:45:31Z</time>
      </trkpt>
      <trkpt lat="42.71048" lon="1.63354">
        <ele>1919.336</ele>
        <time>2021-06-13T09:45:33Z</time>
      </trkpt>
      <trkpt lat="42.71048" lon="1.63352">
        <ele>1919.691</ele>
        <time>2021-06-13T09:45:35Z</time>
      </trkpt>
      <trkpt lat="42.71047" lon="1.63351">
        <ele>1919.604</ele>
        <time>2021-06-13T09:45:37Z</time>
      </trkpt>
      <trkpt lat="42.71046" lon="1.63349">
        <ele>1920.227</ele>
        <time>2021-06-13T09:45:39Z</time>
      </trkpt>
      <trkpt lat="42.71046" lon="1.63347">
        <ele>1919.432</ele>
        <time>2021-06-13T09:45:41Z</time>
      </trkpt>
      <trkpt lat="42.71045" lon="1.63346">
        <ele>1920.277</ele>
        <time>2021-06-13T09:45:43Z</time>
      </trkpt>
      <trkpt lat="42.71044" lon="1.63345">
        <ele>1920.546</ele>
        <time>2021-06-13T09:45:45Z</time>
      </trkpt>
      <trkpt lat="42.71043" lon="1.63343">
        <ele>1920.433</ele>
        <time>2021-06-13T09:45:47Z</time>
      </trkpt>
      <trkpt lat="42.71042" lon="1.63342">
        <ele>1920.623</ele>
        <time>2021-06-13T09:45:49Z</time>
      </trkpt>
      <trkpt lat="42.7104" lon="1.6334">
        <ele>1920.436</ele>
        <time>2021-06-13T09:45:51Z</time>
      </trkpt>
      <trkpt lat="42.71039" lon="1.63338">
        <ele>1921.061</ele>
        <time>2021-06-13T09:45:53Z</time>
      </trkpt>
      <trkpt lat="42.71038" lon="1.63336">
        <ele>1920.465</ele>
        <time>2021-06-13T09:45:55Z</time>
      </trkpt>
      <trkpt lat="42.71037" lon="1.63334">
        <ele>1920.516</ele>
        <time>2021-06-13T09:45:57Z</time>
      </trkpt>
      <trkpt lat="42.71036" lon="1.63332">
        <ele>1921.112</ele>
        <time>2021-06-13T09:45:59Z</time>
      </trkpt>
      <trkpt lat="42.71034" lon="1.6333">
        <ele>1921.274</ele>
        <time>2021-06-13T09:46:01Z</time>
      </trkpt>
      <trkpt lat="42.71033" lon="1.63329">
        <ele>1920.995</ele>
        <time>2021-06-13T09:46:03Z</time>
      </trkpt>
      <trkpt lat="42.71032" lon="1.63327">
        <ele>1920.696</ele>
        <time>2021-06-13T09:46:05Z</time>
      </trkpt>
      <trkpt lat="42.71031" lon="1.63325">
        <ele>1920.79</ele>
        <time>2021-06-13T09:46:07Z</time>
      </trkpt>
      <trkpt lat="42.71029" lon="1.63322">
        <ele>1921.475</ele>
        <time>2021-06-13T09:46:09Z</time>
      </trkpt>
      <trkpt lat="42.71027" lon="1.6332">
        <ele>1921.488</ele>
        <time>2021-06-13T09:46:11Z</time>
      </trkpt>
      <trkpt lat="42.71026" lon="1.63319">
        <ele>1920.199</ele>
        <time>2021-06-13T09:46:13Z</time>
      </trkpt>
      <trkpt lat="42.71025" lon="1.63317">
        <ele>1920.388</ele>
        <time>2021-06-13T09:46:15Z</time>
      </trkpt>
      <trkpt lat="42.71024" lon="1.63315">
        <ele>1921.272</ele>
        <time>2021-06-13T09:46:17Z</time>
      </trkpt>
      <trkpt lat="42.71023" lon="1.63313">
        <ele>1921.994</ele>
        <time>2021-06-13T09:46:19Z</time>
      </trkpt>
      <trkpt lat="42.71022" lon="1.63311">
        <ele>1921.938</ele>
        <time>2021-06-13T09:46:21Z</time>
      </trkpt>
      <trkpt lat="42.71021" lon="1.6331">
        <ele>1922.253</ele>
        <time>2021-06-13T09:46:23Z</time>
      </trkpt>
      <trkpt lat="42.7102" lon="1.63308">
        <ele>1921.436</ele>
        <time>2021-06-13T09:46:25Z</time>
      </trkpt>
      <trkpt lat="42.71018" lon="1.63306">
        <ele>1921.883</ele>
        <time>2021-06-13T09:46:27Z</time>
      </trkpt>
      <trkpt lat="42.71017" lon="1.63305">
        <ele>1922.332</ele>
        <time>2021-06-13T09:46:29Z</time>
      </trkpt>
      <trkpt lat="42.71016" lon="1.63303">
        <ele>1922.223</ele>
        <time>2021-06-13T09:46:31Z</time>
      </trkpt>
      <trkpt lat="42.71014" lon="1.63301">
        <ele>1922.162</ele>
        <time>2021-06-13T09:46:33Z</time>
      </trkpt>
      <trkpt lat="42.71014" lon="1.63299">
        <ele>1922.564</ele>
        <time>2021-06-13T09:46:35Z</time>
      </trkpt>
      <trkpt lat="42.71013" lon="1.63296">
        <ele>1923.314</ele>
        <time>2021-06-13T09:46:37Z</time>
      </trkpt>
      <trkpt lat="42.71012" lon="1.63294">
        <ele>1923.374</ele>
        <time>2021-06-13T09:46:39Z</time>
      </trkpt>
      <trkpt lat="42.71012" lon="1.63292">
        <ele>1923.35</ele>
        <time>2021-06-13T09:46:41Z</time>
      </trkpt>
      <trkpt lat="42.71012" lon="1.6329">
        <ele>1923.351</ele>
        <time>2021-06-13T09:46:43Z</time>
      </trkpt>
      <trkpt lat="42.71011" lon="1.63287">
        <ele>1922.993</ele>
        <time>2021-06-13T09:46:45Z</time>
      </trkpt>
      <trkpt lat="42.71011" lon="1.63285">
        <ele>1923.066</ele>
        <time>2021-06-13T09:46:47Z</time>
      </trkpt>
      <trkpt lat="42.71011" lon="1.63283">
        <ele>1923.203</ele>
        <time>2021-06-13T09:46:49Z</time>
      </trkpt>
      <trkpt lat="42.71011" lon="1.63281">
        <ele>1923.401</ele>
        <time>2021-06-13T09:46:51Z</time>
      </trkpt>
      <trkpt lat="42.71011" lon="1.63279">
        <ele>1924.031</ele>
        <time>2021-06-13T09:46:53Z</time>
      </trkpt>
      <trkpt lat="42.7101" lon="1.63277">
        <ele>1924.038</ele>
        <time>2021-06-13T09:46:55Z</time>
      </trkpt>
      <trkpt lat="42.71009" lon="1.63275">
        <ele>1923.143</ele>
        <time>2021-06-13T09:46:57Z</time>
      </trkpt>
      <trkpt lat="42.71008" lon="1.63274">
        <ele>1923.312</ele>
        <time>2021-06-13T09:46:59Z</time>
      </trkpt>
      <trkpt lat="42.71008" lon="1.63272">
        <ele>1923.629</ele>
        <time>2021-06-13T09:47:01Z</time>
      </trkpt>
      <trkpt lat="42.71008" lon="1.6327">
        <ele>1923.365</ele>
        <time>2021-06-13T09:47:03Z</time>
      </trkpt>
      <trkpt lat="42.71007" lon="1.63269">
        <ele>1923.756</ele>
        <time>2021-06-13T09:47:05Z</time>
      </trkpt>
      <trkpt lat="42.71007" lon="1.63269">
        <ele>1923.425</ele>
        <time>2021-06-13T09:47:07Z</time>
      </trkpt>
      <trkpt lat="42.71007" lon="1.63269">
        <ele>1923.414</ele>
        <time>2021-06-13T09:47:09Z</time>
      </trkpt>
      <trkpt lat="42.71007" lon="1.63269">
        <ele>1923.416</ele>
        <time>2021-06-13T09:47:11Z</time>
      </trkpt>
      <trkpt lat="42.71007" lon="1.63269">
        <ele>1923.417</ele>
        <time>2021-06-13T09:47:13Z</time>
      </trkpt>
      <trkpt lat="42.71007" lon="1.63269">
        <ele>1923.418</ele>
        <time>2021-06-13T09:47:15Z</time>
      </trkpt>
      <trkpt lat="42.71007" lon="1.63269">
        <ele>1923.415</ele>
        <time>2021-06-13T09:47:17Z</time>
      </trkpt>
      <trkpt lat="42.71007" lon="1.63269">
        <ele>1923.416</ele>
        <time>2021-06-13T09:47:19Z</time>
      </trkpt>
      <trkpt lat="42.71007" lon="1.63269">
        <ele>1923.416</ele>
        <time>2021-06-13T09:47:21Z</time>
      </trkpt>
      <trkpt lat="42.71007" lon="1.63269">
        <ele>1923.416</ele>
        <time>2021-06-13T09:47:23Z</time>
      </trkpt>
      <trkpt lat="42.71007" lon="1.63269">
        <ele>1923.412</ele>
        <time>2021-06-13T09:47:25Z</time>
      </trkpt>
      <trkpt lat="42.71007" lon="1.63269">
        <ele>1923.414</ele>
        <time>2021-06-13T09:47:27Z</time>
      </trkpt>
      <trkpt lat="42.71007" lon="1.63269">
        <ele>1923.406</ele>
        <time>2021-06-13T09:47:29Z</time>
      </trkpt>
      <trkpt lat="42.71007" lon="1.63269">
        <ele>1923.405</ele>
        <time>2021-06-13T09:47:31Z</time>
      </trkpt>
      <trkpt lat="42.71007" lon="1.63269">
        <ele>1923.406</ele>
        <time>2021-06-13T09:47:32Z</time>
      </trkpt>
      <trkpt lat="42.71007" lon="1.63269">
        <ele>1923.404</ele>
        <time>2021-06-13T09:47:34Z</time>
      </trkpt>
      <trkpt lat="42.71007" lon="1.63269">
        <ele>1923.401</ele>
        <time>2021-06-13T09:47:41Z</time>
      </trkpt>
      <trkpt lat="42.71007" lon="1.63269">
        <ele>1923.4</ele>
        <time>2021-06-13T09:47:43Z</time>
      </trkpt>
      <trkpt lat="42.71007" lon="1.63269">
        <ele>1923.396</ele>
        <time>2021-06-13T09:47:45Z</time>
      </trkpt>
      <trkpt lat="42.71007" lon="1.63269">
        <ele>1923.397</ele>
        <time>2021-06-13T09:47:47Z</time>
      </trkpt>
      <trkpt lat="42.71007" lon="1.63269">
        <ele>1923.397</ele>
        <time>2021-06-13T09:47:49Z</time>
      </trkpt>
      <trkpt lat="42.71007" lon="1.63269">
        <ele>1923.395</ele>
        <time>2021-06-13T09:47:51Z</time>
      </trkpt>
      <trkpt lat="42.71007" lon="1.63269">
        <ele>1923.394</ele>
        <time>2021-06-13T09:47:53Z</time>
      </trkpt>
      <trkpt lat="42.71007" lon="1.63269">
        <ele>1923.392</ele>
        <time>2021-06-13T09:47:55Z</time>
      </trkpt>
      <trkpt lat="42.71007" lon="1.63269">
        <ele>1923.388</ele>
        <time>2021-06-13T09:47:57Z</time>
      </trkpt>
      <trkpt lat="42.71007" lon="1.63269">
        <ele>1923.386</ele>
        <time>2021-06-13T09:47:59Z</time>
      </trkpt>
      <trkpt lat="42.71007" lon="1.63269">
        <ele>1923.386</ele>
        <time>2021-06-13T09:48:01Z</time>
      </trkpt>
      <trkpt lat="42.71007" lon="1.63269">
        <ele>1923.386</ele>
        <time>2021-06-13T09:48:03Z</time>
      </trkpt>
      <trkpt lat="42.71007" lon="1.63269">
        <ele>1923.385</ele>
        <time>2021-06-13T09:48:05Z</time>
      </trkpt>
      <trkpt lat="42.71007" lon="1.63269">
        <ele>1923.383</ele>
        <time>2021-06-13T09:48:07Z</time>
      </trkpt>
      <trkpt lat="42.71007" lon="1.63268">
        <ele>1923.623</ele>
        <time>2021-06-13T09:48:09Z</time>
      </trkpt>
      <trkpt lat="42.71006" lon="1.63267">
        <ele>1923.54</ele>
        <time>2021-06-13T09:48:11Z</time>
      </trkpt>
      <trkpt lat="42.71005" lon="1.63266">
        <ele>1923.572</ele>
        <time>2021-06-13T09:48:13Z</time>
      </trkpt>
      <trkpt lat="42.71004" lon="1.63266">
        <ele>1923.843</ele>
        <time>2021-06-13T09:48:15Z</time>
      </trkpt>
      <trkpt lat="42.71003" lon="1.63266">
        <ele>1923.842</ele>
        <time>2021-06-13T09:48:17Z</time>
      </trkpt>
      <trkpt lat="42.71001" lon="1.63267">
        <ele>1923.714</ele>
        <time>2021-06-13T09:48:19Z</time>
      </trkpt>
      <trkpt lat="42.71" lon="1.63267">
        <ele>1923.444</ele>
        <time>2021-06-13T09:48:21Z</time>
      </trkpt>
      <trkpt lat="42.70999" lon="1.63266">
        <ele>1923.328</ele>
        <time>2021-06-13T09:48:23Z</time>
      </trkpt>
      <trkpt lat="42.70997" lon="1.63266">
        <ele>1923.078</ele>
        <time>2021-06-13T09:48:25Z</time>
      </trkpt>
      <trkpt lat="42.70996" lon="1.63266">
        <ele>1922.823</ele>
        <time>2021-06-13T09:48:27Z</time>
      </trkpt>
      <trkpt lat="42.70994" lon="1.63266">
        <ele>1922.386</ele>
        <time>2021-06-13T09:48:29Z</time>
      </trkpt>
      <trkpt lat="42.70993" lon="1.63267">
        <ele>1922.352</ele>
        <time>2021-06-13T09:48:31Z</time>
      </trkpt>
      <trkpt lat="42.70992" lon="1.63268">
        <ele>1922.154</ele>
        <time>2021-06-13T09:48:33Z</time>
      </trkpt>
      <trkpt lat="42.70991" lon="1.63268">
        <ele>1921.732</ele>
        <time>2021-06-13T09:48:35Z</time>
      </trkpt>
      <trkpt lat="42.70989" lon="1.63268">
        <ele>1921.09</ele>
        <time>2021-06-13T09:48:37Z</time>
      </trkpt>
      <trkpt lat="42.70988" lon="1.63267">
        <ele>1920.751</ele>
        <time>2021-06-13T09:48:39Z</time>
      </trkpt>
      <trkpt lat="42.70987" lon="1.63267">
        <ele>1920.513</ele>
        <time>2021-06-13T09:48:41Z</time>
      </trkpt>
      <trkpt lat="42.70986" lon="1.63267">
        <ele>1920.179</ele>
        <time>2021-06-13T09:48:43Z</time>
      </trkpt>
      <trkpt lat="42.70985" lon="1.63267">
        <ele>1919.613</ele>
        <time>2021-06-13T09:48:45Z</time>
      </trkpt>
      <trkpt lat="42.70985" lon="1.63267">
        <ele>1919.655</ele>
        <time>2021-06-13T09:48:47Z</time>
      </trkpt>
      <trkpt lat="42.70984" lon="1.63266">
        <ele>1919.236</ele>
        <time>2021-06-13T09:48:49Z</time>
      </trkpt>
      <trkpt lat="42.70983" lon="1.63266">
        <ele>1918.759</ele>
        <time>2021-06-13T09:48:51Z</time>
      </trkpt>
      <trkpt lat="42.70981" lon="1.63265">
        <ele>1917.943</ele>
        <time>2021-06-13T09:48:53Z</time>
      </trkpt>
      <trkpt lat="42.7098" lon="1.63265">
        <ele>1917.364</ele>
        <time>2021-06-13T09:48:55Z</time>
      </trkpt>
      <trkpt lat="42.70979" lon="1.63264">
        <ele>1916.785</ele>
        <time>2021-06-13T09:48:57Z</time>
      </trkpt>
      <trkpt lat="42.70978" lon="1.63263">
        <ele>1916.409</ele>
        <time>2021-06-13T09:48:59Z</time>
      </trkpt>
      <trkpt lat="42.70975" lon="1.63263">
        <ele>1915.6</ele>
        <time>2021-06-13T09:49:06Z</time>
      </trkpt>
      <trkpt lat="42.70975" lon="1.63262">
        <ele>1915.415</ele>
        <time>2021-06-13T09:49:08Z</time>
      </trkpt>
      <trkpt lat="42.70974" lon="1.63261">
        <ele>1914.937</ele>
        <time>2021-06-13T09:49:10Z</time>
      </trkpt>
      <trkpt lat="42.70974" lon="1.63259">
        <ele>1914.127</ele>
        <time>2021-06-13T09:49:12Z</time>
      </trkpt>
      <trkpt lat="42.70973" lon="1.63258">
        <ele>1913.645</ele>
        <time>2021-06-13T09:49:14Z</time>
      </trkpt>
      <trkpt lat="42.70973" lon="1.63256">
        <ele>1913.452</ele>
        <time>2021-06-13T09:49:16Z</time>
      </trkpt>
      <trkpt lat="42.70972" lon="1.63254">
        <ele>1912.947</ele>
        <time>2021-06-13T09:49:18Z</time>
      </trkpt>
      <trkpt lat="42.70972" lon="1.63253">
        <ele>1912.639</ele>
        <time>2021-06-13T09:49:20Z</time>
      </trkpt>
      <trkpt lat="42.70971" lon="1.63252">
        <ele>1912.759</ele>
        <time>2021-06-13T09:49:22Z</time>
      </trkpt>
      <trkpt lat="42.70971" lon="1.6325">
        <ele>1912.38</ele>
        <time>2021-06-13T09:49:24Z</time>
      </trkpt>
      <trkpt lat="42.7097" lon="1.63249">
        <ele>1911.939</ele>
        <time>2021-06-13T09:49:26Z</time>
      </trkpt>
      <trkpt lat="42.70969" lon="1.63247">
        <ele>1911.876</ele>
        <time>2021-06-13T09:49:28Z</time>
      </trkpt>
      <trkpt lat="42.70969" lon="1.63246">
        <ele>1911.93</ele>
        <time>2021-06-13T09:49:30Z</time>
      </trkpt>
      <trkpt lat="42.70968" lon="1.63245">
        <ele>1912.5</ele>
        <time>2021-06-13T09:49:32Z</time>
      </trkpt>
      <trkpt lat="42.70968" lon="1.63244">
        <ele>1912.317</ele>
        <time>2021-06-13T09:49:34Z</time>
      </trkpt>
      <trkpt lat="42.70968" lon="1.63243">
        <ele>1911.931</ele>
        <time>2021-06-13T09:49:36Z</time>
      </trkpt>
      <trkpt lat="42.70967" lon="1.63242">
        <ele>1912.267</ele>
        <time>2021-06-13T09:49:38Z</time>
      </trkpt>
      <trkpt lat="42.70967" lon="1.63242">
        <ele>1912.267</ele>
        <time>2021-06-13T09:49:40Z</time>
      </trkpt>
      <trkpt lat="42.70967" lon="1.63242">
        <ele>1912.268</ele>
        <time>2021-06-13T09:49:42Z</time>
      </trkpt>
      <trkpt lat="42.70967" lon="1.63242">
        <ele>1912.272</ele>
        <time>2021-06-13T09:49:44Z</time>
      </trkpt>
      <trkpt lat="42.70967" lon="1.63242">
        <ele>1912.272</ele>
        <time>2021-06-13T09:49:46Z</time>
      </trkpt>
      <trkpt lat="42.70968" lon="1.63241">
        <ele>1912.133</ele>
        <time>2021-06-13T09:49:48Z</time>
      </trkpt>
      <trkpt lat="42.70968" lon="1.63239">
        <ele>1912.033</ele>
        <time>2021-06-13T09:49:50Z</time>
      </trkpt>
      <trkpt lat="42.70968" lon="1.63237">
        <ele>1911.885</ele>
        <time>2021-06-13T09:49:52Z</time>
      </trkpt>
      <trkpt lat="42.70967" lon="1.63235">
        <ele>1911.585</ele>
        <time>2021-06-13T09:49:54Z</time>
      </trkpt>
      <trkpt lat="42.70967" lon="1.63234">
        <ele>1911.75</ele>
        <time>2021-06-13T09:49:56Z</time>
      </trkpt>
      <trkpt lat="42.70966" lon="1.63232">
        <ele>1912.223</ele>
        <time>2021-06-13T09:49:58Z</time>
      </trkpt>
      <trkpt lat="42.70966" lon="1.63231">
        <ele>1912.469</ele>
        <time>2021-06-13T09:50:00Z</time>
      </trkpt>
      <trkpt lat="42.70966" lon="1.63231">
        <ele>1912.468</ele>
        <time>2021-06-13T09:50:02Z</time>
      </trkpt>
      <trkpt lat="42.70966" lon="1.63231">
        <ele>1912.294</ele>
        <time>2021-06-13T09:50:04Z</time>
      </trkpt>
      <trkpt lat="42.70966" lon="1.63229">
        <ele>1912.088</ele>
        <time>2021-06-13T09:50:06Z</time>
      </trkpt>
      <trkpt lat="42.70966" lon="1.63227">
        <ele>1911.829</ele>
        <time>2021-06-13T09:50:08Z</time>
      </trkpt>
      <trkpt lat="42.70967" lon="1.63225">
        <ele>1912.173</ele>
        <time>2021-06-13T09:50:10Z</time>
      </trkpt>
      <trkpt lat="42.70966" lon="1.63224">
        <ele>1911.605</ele>
        <time>2021-06-13T09:50:12Z</time>
      </trkpt>
      <trkpt lat="42.70966" lon="1.63222">
        <ele>1911.467</ele>
        <time>2021-06-13T09:50:14Z</time>
      </trkpt>
      <trkpt lat="42.70966" lon="1.63221">
        <ele>1911.272</ele>
        <time>2021-06-13T09:50:16Z</time>
      </trkpt>
      <trkpt lat="42.70966" lon="1.63219">
        <ele>1911.146</ele>
        <time>2021-06-13T09:50:18Z</time>
      </trkpt>
      <trkpt lat="42.70966" lon="1.63218">
        <ele>1910.815</ele>
        <time>2021-06-13T09:50:20Z</time>
      </trkpt>
      <trkpt lat="42.70965" lon="1.63216">
        <ele>1910.222</ele>
        <time>2021-06-13T09:50:22Z</time>
      </trkpt>
      <trkpt lat="42.70965" lon="1.63214">
        <ele>1909.82</ele>
        <time>2021-06-13T09:50:24Z</time>
      </trkpt>
      <trkpt lat="42.70965" lon="1.63212">
        <ele>1909.297</ele>
        <time>2021-06-13T09:50:26Z</time>
      </trkpt>
      <trkpt lat="42.70964" lon="1.63211">
        <ele>1908.911</ele>
        <time>2021-06-13T09:50:28Z</time>
      </trkpt>
      <trkpt lat="42.70963" lon="1.63209">
        <ele>1908.592</ele>
        <time>2021-06-13T09:50:30Z</time>
      </trkpt>
      <trkpt lat="42.70963" lon="1.63207">
        <ele>1908.101</ele>
        <time>2021-06-13T09:50:32Z</time>
      </trkpt>
      <trkpt lat="42.70962" lon="1.63205">
        <ele>1908.066</ele>
        <time>2021-06-13T09:50:34Z</time>
      </trkpt>
      <trkpt lat="42.70962" lon="1.63202">
        <ele>1907.659</ele>
        <time>2021-06-13T09:50:36Z</time>
      </trkpt>
      <trkpt lat="42.70962" lon="1.632">
        <ele>1907.288</ele>
        <time>2021-06-13T09:50:38Z</time>
      </trkpt>
      <trkpt lat="42.70961" lon="1.63198">
        <ele>1906.936</ele>
        <time>2021-06-13T09:50:40Z</time>
      </trkpt>
      <trkpt lat="42.70961" lon="1.63197">
        <ele>1907.308</ele>
        <time>2021-06-13T09:50:42Z</time>
      </trkpt>
      <trkpt lat="42.70961" lon="1.63196">
        <ele>1906.82</ele>
        <time>2021-06-13T09:50:44Z</time>
      </trkpt>
      <trkpt lat="42.7096" lon="1.63194">
        <ele>1906.765</ele>
        <time>2021-06-13T09:50:46Z</time>
      </trkpt>
      <trkpt lat="42.7096" lon="1.63192">
        <ele>1906.416</ele>
        <time>2021-06-13T09:50:48Z</time>
      </trkpt>
      <trkpt lat="42.7096" lon="1.63191">
        <ele>1906.467</ele>
        <time>2021-06-13T09:50:50Z</time>
      </trkpt>
      <trkpt lat="42.7096" lon="1.63191">
        <ele>1906.44</ele>
        <time>2021-06-13T09:50:52Z</time>
      </trkpt>
      <trkpt lat="42.7096" lon="1.63191">
        <ele>1906.439</ele>
        <time>2021-06-13T09:50:54Z</time>
      </trkpt>
      <trkpt lat="42.7096" lon="1.63191">
        <ele>1906.435</ele>
        <time>2021-06-13T09:50:56Z</time>
      </trkpt>
      <trkpt lat="42.7096" lon="1.63191">
        <ele>1906.432</ele>
        <time>2021-06-13T09:50:58Z</time>
      </trkpt>
      <trkpt lat="42.7096" lon="1.63191">
        <ele>1906.431</ele>
        <time>2021-06-13T09:51:00Z</time>
      </trkpt>
      <trkpt lat="42.7096" lon="1.63191">
        <ele>1906.429</ele>
        <time>2021-06-13T09:51:02Z</time>
      </trkpt>
      <trkpt lat="42.7096" lon="1.63191">
        <ele>1906.426</ele>
        <time>2021-06-13T09:51:04Z</time>
      </trkpt>
      <trkpt lat="42.7096" lon="1.63191">
        <ele>1906.424</ele>
        <time>2021-06-13T09:51:06Z</time>
      </trkpt>
      <trkpt lat="42.7096" lon="1.63191">
        <ele>1906.42</ele>
        <time>2021-06-13T09:51:08Z</time>
      </trkpt>
      <trkpt lat="42.7096" lon="1.63191">
        <ele>1906.415</ele>
        <time>2021-06-13T09:51:10Z</time>
      </trkpt>
      <trkpt lat="42.7096" lon="1.63191">
        <ele>1906.413</ele>
        <time>2021-06-13T09:51:12Z</time>
      </trkpt>
      <trkpt lat="42.7096" lon="1.63191">
        <ele>1906.408</ele>
        <time>2021-06-13T09:51:14Z</time>
      </trkpt>
      <trkpt lat="42.7096" lon="1.63191">
        <ele>1906.406</ele>
        <time>2021-06-13T09:51:16Z</time>
      </trkpt>
      <trkpt lat="42.7096" lon="1.6319">
        <ele>1905.493</ele>
        <time>2021-06-13T09:51:18Z</time>
      </trkpt>
      <trkpt lat="42.7096" lon="1.63188">
        <ele>1905.363</ele>
        <time>2021-06-13T09:51:20Z</time>
      </trkpt>
      <trkpt lat="42.70959" lon="1.63187">
        <ele>1904.922</ele>
        <time>2021-06-13T09:51:22Z</time>
      </trkpt>
      <trkpt lat="42.70958" lon="1.63185">
        <ele>1904.525</ele>
        <time>2021-06-13T09:51:24Z</time>
      </trkpt>
      <trkpt lat="42.70958" lon="1.63185">
        <ele>1903.896</ele>
        <time>2021-06-13T09:51:26Z</time>
      </trkpt>
      <trkpt lat="42.70958" lon="1.63184">
        <ele>1902.889</ele>
        <time>2021-06-13T09:51:28Z</time>
      </trkpt>
      <trkpt lat="42.70957" lon="1.63183">
        <ele>1902.504</ele>
        <time>2021-06-13T09:51:30Z</time>
      </trkpt>
      <trkpt lat="42.70957" lon="1.63183">
        <ele>1902.122</ele>
        <time>2021-06-13T09:51:32Z</time>
      </trkpt>
      <trkpt lat="42.70957" lon="1.63182">
        <ele>1901.151</ele>
        <time>2021-06-13T09:51:34Z</time>
      </trkpt>
      <trkpt lat="42.70956" lon="1.6318">
        <ele>1900.838</ele>
        <time>2021-06-13T09:51:36Z</time>
      </trkpt>
      <trkpt lat="42.70956" lon="1.63179">
        <ele>1900.408</ele>
        <time>2021-06-13T09:51:38Z</time>
      </trkpt>
      <trkpt lat="42.70956" lon="1.63176">
        <ele>1900.119</ele>
        <time>2021-06-13T09:51:40Z</time>
      </trkpt>
      <trkpt lat="42.70956" lon="1.63174">
        <ele>1899.653</ele>
        <time>2021-06-13T09:51:42Z</time>
      </trkpt>
      <trkpt lat="42.70957" lon="1.63172">
        <ele>1899.686</ele>
        <time>2021-06-13T09:51:44Z</time>
      </trkpt>
      <trkpt lat="42.70957" lon="1.6317">
        <ele>1899.554</ele>
        <time>2021-06-13T09:51:46Z</time>
      </trkpt>
      <trkpt lat="42.70957" lon="1.63168">
        <ele>1899.266</ele>
        <time>2021-06-13T09:51:48Z</time>
      </trkpt>
      <trkpt lat="42.70958" lon="1.63166">
        <ele>1899.23</ele>
        <time>2021-06-13T09:51:50Z</time>
      </trkpt>
      <trkpt lat="42.70958" lon="1.63164">
        <ele>1898.639</ele>
        <time>2021-06-13T09:51:52Z</time>
      </trkpt>
      <trkpt lat="42.70958" lon="1.63162">
        <ele>1898.23</ele>
        <time>2021-06-13T09:51:54Z</time>
      </trkpt>
      <trkpt lat="42.70958" lon="1.6316">
        <ele>1898.01</ele>
        <time>2021-06-13T09:51:56Z</time>
      </trkpt>
      <trkpt lat="42.70958" lon="1.63158">
        <ele>1897.594</ele>
        <time>2021-06-13T09:51:58Z</time>
      </trkpt>
      <trkpt lat="42.70957" lon="1.63156">
        <ele>1897.308</ele>
        <time>2021-06-13T09:52:00Z</time>
      </trkpt>
      <trkpt lat="42.70957" lon="1.63154">
        <ele>1896.855</ele>
        <time>2021-06-13T09:52:02Z</time>
      </trkpt>
      <trkpt lat="42.70957" lon="1.63152">
        <ele>1896.761</ele>
        <time>2021-06-13T09:52:04Z</time>
      </trkpt>
      <trkpt lat="42.70957" lon="1.6315">
        <ele>1895.999</ele>
        <time>2021-06-13T09:52:06Z</time>
      </trkpt>
      <trkpt lat="42.70957" lon="1.63148">
        <ele>1895.903</ele>
        <time>2021-06-13T09:52:08Z</time>
      </trkpt>
      <trkpt lat="42.70957" lon="1.63146">
        <ele>1895.511</ele>
        <time>2021-06-13T09:52:10Z</time>
      </trkpt>
      <trkpt lat="42.70957" lon="1.63144">
        <ele>1895.244</ele>
        <time>2021-06-13T09:52:12Z</time>
      </trkpt>
      <trkpt lat="42.70956" lon="1.63142">
        <ele>1894.8</ele>
        <time>2021-06-13T09:52:14Z</time>
      </trkpt>
      <trkpt lat="42.70956" lon="1.6314">
        <ele>1894.378</ele>
        <time>2021-06-13T09:52:16Z</time>
      </trkpt>
      <trkpt lat="42.70955" lon="1.63138">
        <ele>1893.921</ele>
        <time>2021-06-13T09:52:18Z</time>
      </trkpt>
      <trkpt lat="42.70955" lon="1.63135">
        <ele>1893.513</ele>
        <time>2021-06-13T09:52:20Z</time>
      </trkpt>
      <trkpt lat="42.70955" lon="1.63133">
        <ele>1893.021</ele>
        <time>2021-06-13T09:52:22Z</time>
      </trkpt>
      <trkpt lat="42.70955" lon="1.6313">
        <ele>1892.725</ele>
        <time>2021-06-13T09:52:24Z</time>
      </trkpt>
      <trkpt lat="42.70954" lon="1.63128">
        <ele>1892.454</ele>
        <time>2021-06-13T09:52:26Z</time>
      </trkpt>
      <trkpt lat="42.70954" lon="1.63126">
        <ele>1891.982</ele>
        <time>2021-06-13T09:52:28Z</time>
      </trkpt>
      <trkpt lat="42.70954" lon="1.63124">
        <ele>1891.83</ele>
        <time>2021-06-13T09:52:30Z</time>
      </trkpt>
      <trkpt lat="42.70955" lon="1.63121">
        <ele>1891.902</ele>
        <time>2021-06-13T09:52:32Z</time>
      </trkpt>
      <trkpt lat="42.70955" lon="1.63119">
        <ele>1891.486</ele>
        <time>2021-06-13T09:52:34Z</time>
      </trkpt>
      <trkpt lat="42.70954" lon="1.63117">
        <ele>1891.065</ele>
        <time>2021-06-13T09:52:36Z</time>
      </trkpt>
      <trkpt lat="42.70955" lon="1.63114">
        <ele>1891.108</ele>
        <time>2021-06-13T09:52:38Z</time>
      </trkpt>
      <trkpt lat="42.70955" lon="1.63113">
        <ele>1890.737</ele>
        <time>2021-06-13T09:52:40Z</time>
      </trkpt>
      <trkpt lat="42.70955" lon="1.63111">
        <ele>1890.345</ele>
        <time>2021-06-13T09:52:42Z</time>
      </trkpt>
      <trkpt lat="42.70955" lon="1.63109">
        <ele>1889.787</ele>
        <time>2021-06-13T09:52:44Z</time>
      </trkpt>
      <trkpt lat="42.70955" lon="1.63106">
        <ele>1889.685</ele>
        <time>2021-06-13T09:52:46Z</time>
      </trkpt>
      <trkpt lat="42.70955" lon="1.63104">
        <ele>1889.3</ele>
        <time>2021-06-13T09:52:48Z</time>
      </trkpt>
      <trkpt lat="42.70955" lon="1.63102">
        <ele>1889.093</ele>
        <time>2021-06-13T09:52:50Z</time>
      </trkpt>
      <trkpt lat="42.70955" lon="1.63099">
        <ele>1888.685</ele>
        <time>2021-06-13T09:52:52Z</time>
      </trkpt>
      <trkpt lat="42.70956" lon="1.63096">
        <ele>1888.34</ele>
        <time>2021-06-13T09:52:54Z</time>
      </trkpt>
      <trkpt lat="42.70956" lon="1.63094">
        <ele>1888.498</ele>
        <time>2021-06-13T09:52:56Z</time>
      </trkpt>
      <trkpt lat="42.70956" lon="1.63093">
        <ele>1888.414</ele>
        <time>2021-06-13T09:52:58Z</time>
      </trkpt>
      <trkpt lat="42.70956" lon="1.63093">
        <ele>1888.277</ele>
        <time>2021-06-13T09:53:00Z</time>
      </trkpt>
      <trkpt lat="42.70957" lon="1.6309">
        <ele>1888.21</ele>
        <time>2021-06-13T09:53:02Z</time>
      </trkpt>
      <trkpt lat="42.70958" lon="1.63087">
        <ele>1888.106</ele>
        <time>2021-06-13T09:53:04Z</time>
      </trkpt>
      <trkpt lat="42.70958" lon="1.63082">
        <ele>1889.543</ele>
        <time>2021-06-13T09:53:06Z</time>
      </trkpt>
      <trkpt lat="42.70958" lon="1.63078">
        <ele>1891.044</ele>
        <time>2021-06-13T09:53:08Z</time>
      </trkpt>
      <trkpt lat="42.70958" lon="1.63074">
        <ele>1892.368</ele>
        <time>2021-06-13T09:53:10Z</time>
      </trkpt>
      <trkpt lat="42.70958" lon="1.63071">
        <ele>1892.962</ele>
        <time>2021-06-13T09:53:12Z</time>
      </trkpt>
      <trkpt lat="42.70959" lon="1.63067">
        <ele>1893.743</ele>
        <time>2021-06-13T09:53:14Z</time>
      </trkpt>
      <trkpt lat="42.70959" lon="1.63067">
        <ele>1893.661</ele>
        <time>2021-06-13T09:53:16Z</time>
      </trkpt>
      <trkpt lat="42.70959" lon="1.63066">
        <ele>1893.427</ele>
        <time>2021-06-13T09:53:18Z</time>
      </trkpt>
      <trkpt lat="42.70959" lon="1.63067">
        <ele>1893.403</ele>
        <time>2021-06-13T09:53:20Z</time>
      </trkpt>
      <trkpt lat="42.70959" lon="1.63067">
        <ele>1893.405</ele>
        <time>2021-06-13T09:53:22Z</time>
      </trkpt>
      <trkpt lat="42.70959" lon="1.63067">
        <ele>1893.408</ele>
        <time>2021-06-13T09:53:24Z</time>
      </trkpt>
      <trkpt lat="42.70959" lon="1.63067">
        <ele>1893.41</ele>
        <time>2021-06-13T09:53:26Z</time>
      </trkpt>
      <trkpt lat="42.70959" lon="1.63066">
        <ele>1893.489</ele>
        <time>2021-06-13T09:53:28Z</time>
      </trkpt>
      <trkpt lat="42.70959" lon="1.63066">
        <ele>1893.481</ele>
        <time>2021-06-13T09:53:30Z</time>
      </trkpt>
      <trkpt lat="42.70959" lon="1.63066">
        <ele>1893.478</ele>
        <time>2021-06-13T09:53:32Z</time>
      </trkpt>
      <trkpt lat="42.70959" lon="1.63066">
        <ele>1893.476</ele>
        <time>2021-06-13T09:53:34Z</time>
      </trkpt>
      <trkpt lat="42.70959" lon="1.63066">
        <ele>1893.475</ele>
        <time>2021-06-13T09:53:36Z</time>
      </trkpt>
      <trkpt lat="42.70959" lon="1.63066">
        <ele>1893.475</ele>
        <time>2021-06-13T09:53:38Z</time>
      </trkpt>
      <trkpt lat="42.70959" lon="1.63066">
        <ele>1893.473</ele>
        <time>2021-06-13T09:53:40Z</time>
      </trkpt>
      <trkpt lat="42.70959" lon="1.63066">
        <ele>1893.472</ele>
        <time>2021-06-13T09:53:42Z</time>
      </trkpt>
      <trkpt lat="42.70959" lon="1.63066">
        <ele>1893.471</ele>
        <time>2021-06-13T09:53:44Z</time>
      </trkpt>
      <trkpt lat="42.70959" lon="1.63066">
        <ele>1893.474</ele>
        <time>2021-06-13T09:53:46Z</time>
      </trkpt>
      <trkpt lat="42.70959" lon="1.63066">
        <ele>1893.474</ele>
        <time>2021-06-13T09:53:48Z</time>
      </trkpt>
      <trkpt lat="42.70959" lon="1.63066">
        <ele>1893.475</ele>
        <time>2021-06-13T09:53:50Z</time>
      </trkpt>
      <trkpt lat="42.70959" lon="1.63066">
        <ele>1893.475</ele>
        <time>2021-06-13T09:53:52Z</time>
      </trkpt>
      <trkpt lat="42.70959" lon="1.63066">
        <ele>1893.477</ele>
        <time>2021-06-13T09:53:54Z</time>
      </trkpt>
      <trkpt lat="42.70959" lon="1.63066">
        <ele>1893.482</ele>
        <time>2021-06-13T09:53:56Z</time>
      </trkpt>
      <trkpt lat="42.70959" lon="1.63066">
        <ele>1893.483</ele>
        <time>2021-06-13T09:53:58Z</time>
      </trkpt>
      <trkpt lat="42.70959" lon="1.63066">
        <ele>1893.487</ele>
        <time>2021-06-13T09:54:00Z</time>
      </trkpt>
      <trkpt lat="42.70959" lon="1.63066">
        <ele>1893.483</ele>
        <time>2021-06-13T09:54:02Z</time>
      </trkpt>
      <trkpt lat="42.70959" lon="1.63066">
        <ele>1893.482</ele>
        <time>2021-06-13T09:54:04Z</time>
      </trkpt>
      <trkpt lat="42.70959" lon="1.63066">
        <ele>1893.476</ele>
        <time>2021-06-13T09:54:06Z</time>
      </trkpt>
      <trkpt lat="42.70959" lon="1.63066">
        <ele>1893.289</ele>
        <time>2021-06-13T09:54:08Z</time>
      </trkpt>
      <trkpt lat="42.70958" lon="1.63066">
        <ele>1892.916</ele>
        <time>2021-06-13T09:54:10Z</time>
      </trkpt>
      <trkpt lat="42.70957" lon="1.63066">
        <ele>1892.51</ele>
        <time>2021-06-13T09:54:12Z</time>
      </trkpt>
      <trkpt lat="42.70956" lon="1.63066">
        <ele>1892.124</ele>
        <time>2021-06-13T09:54:14Z</time>
      </trkpt>
      <trkpt lat="42.70955" lon="1.63066">
        <ele>1892.046</ele>
        <time>2021-06-13T09:54:16Z</time>
      </trkpt>
      <trkpt lat="42.70954" lon="1.63065">
        <ele>1892.668</ele>
        <time>2021-06-13T09:54:18Z</time>
      </trkpt>
      <trkpt lat="42.70953" lon="1.63065">
        <ele>1892.278</ele>
        <time>2021-06-13T09:54:20Z</time>
      </trkpt>
      <trkpt lat="42.70952" lon="1.63065">
        <ele>1891.799</ele>
        <time>2021-06-13T09:54:22Z</time>
      </trkpt>
      <trkpt lat="42.70952" lon="1.63066">
        <ele>1891.887</ele>
        <time>2021-06-13T09:54:24Z</time>
      </trkpt>
      <trkpt lat="42.70952" lon="1.63065">
        <ele>1891.667</ele>
        <time>2021-06-13T09:54:26Z</time>
      </trkpt>
      <trkpt lat="42.70951" lon="1.63065">
        <ele>1891.148</ele>
        <time>2021-06-13T09:54:28Z</time>
      </trkpt>
      <trkpt lat="42.70951" lon="1.63065">
        <ele>1890.639</ele>
        <time>2021-06-13T09:54:30Z</time>
      </trkpt>
      <trkpt lat="42.70951" lon="1.63064">
        <ele>1890.31</ele>
        <time>2021-06-13T09:54:32Z</time>
      </trkpt>
      <trkpt lat="42.7095" lon="1.63064">
        <ele>1889.818</ele>
        <time>2021-06-13T09:54:34Z</time>
      </trkpt>
      <trkpt lat="42.7095" lon="1.63063">
        <ele>1889.503</ele>
        <time>2021-06-13T09:54:36Z</time>
      </trkpt>
      <trkpt lat="42.70949" lon="1.63063">
        <ele>1889.101</ele>
        <time>2021-06-13T09:54:38Z</time>
      </trkpt>
      <trkpt lat="42.70948" lon="1.63062">
        <ele>1889.152</ele>
        <time>2021-06-13T09:54:40Z</time>
      </trkpt>
      <trkpt lat="42.70948" lon="1.63061">
        <ele>1889.992</ele>
        <time>2021-06-13T09:54:42Z</time>
      </trkpt>
      <trkpt lat="42.70948" lon="1.6306">
        <ele>1889.678</ele>
        <time>2021-06-13T09:54:44Z</time>
      </trkpt>
      <trkpt lat="42.70948" lon="1.63059">
        <ele>1889.344</ele>
        <time>2021-06-13T09:54:46Z</time>
      </trkpt>
      <trkpt lat="42.70948" lon="1.63059">
        <ele>1888.44</ele>
        <time>2021-06-13T09:54:48Z</time>
      </trkpt>
      <trkpt lat="42.70948" lon="1.63059">
        <ele>1887.599</ele>
        <time>2021-06-13T09:54:50Z</time>
      </trkpt>
      <trkpt lat="42.70948" lon="1.63058">
        <ele>1887.201</ele>
        <time>2021-06-13T09:54:52Z</time>
      </trkpt>
      <trkpt lat="42.70947" lon="1.63057">
        <ele>1886.494</ele>
        <time>2021-06-13T09:54:54Z</time>
      </trkpt>
      <trkpt lat="42.70946" lon="1.63058">
        <ele>1885.691</ele>
        <time>2021-06-13T09:54:56Z</time>
      </trkpt>
      <trkpt lat="42.70946" lon="1.63057">
        <ele>1885.102</ele>
        <time>2021-06-13T09:54:58Z</time>
      </trkpt>
      <trkpt lat="42.70946" lon="1.63055">
        <ele>1884.743</ele>
        <time>2021-06-13T09:55:00Z</time>
      </trkpt>
      <trkpt lat="42.70946" lon="1.63053">
        <ele>1884.415</ele>
        <time>2021-06-13T09:55:02Z</time>
      </trkpt>
      <trkpt lat="42.70947" lon="1.63052">
        <ele>1884.781</ele>
        <time>2021-06-13T09:55:04Z</time>
      </trkpt>
      <trkpt lat="42.70947" lon="1.63053">
        <ele>1884.467</ele>
        <time>2021-06-13T09:55:06Z</time>
      </trkpt>
      <trkpt lat="42.70947" lon="1.63053">
        <ele>1884.464</ele>
        <time>2021-06-13T09:55:08Z</time>
      </trkpt>
      <trkpt lat="42.70947" lon="1.63053">
        <ele>1884.46</ele>
        <time>2021-06-13T09:55:10Z</time>
      </trkpt>
      <trkpt lat="42.70947" lon="1.63053">
        <ele>1884.455</ele>
        <time>2021-06-13T09:55:12Z</time>
      </trkpt>
      <trkpt lat="42.70947" lon="1.63053">
        <ele>1884.453</ele>
        <time>2021-06-13T09:55:14Z</time>
      </trkpt>
      <trkpt lat="42.70947" lon="1.63052">
        <ele>1883.942</ele>
        <time>2021-06-13T09:55:16Z</time>
      </trkpt>
      <trkpt lat="42.70946" lon="1.63049">
        <ele>1883.641</ele>
        <time>2021-06-13T09:55:18Z</time>
      </trkpt>
      <trkpt lat="42.70946" lon="1.63047">
        <ele>1883.076</ele>
        <time>2021-06-13T09:55:20Z</time>
      </trkpt>
      <trkpt lat="42.70946" lon="1.63044">
        <ele>1882.734</ele>
        <time>2021-06-13T09:55:22Z</time>
      </trkpt>
      <trkpt lat="42.70946" lon="1.63041">
        <ele>1882.205</ele>
        <time>2021-06-13T09:55:24Z</time>
      </trkpt>
      <trkpt lat="42.70945" lon="1.63038">
        <ele>1881.956</ele>
        <time>2021-06-13T09:55:26Z</time>
      </trkpt>
      <trkpt lat="42.70945" lon="1.63035">
        <ele>1881.651</ele>
        <time>2021-06-13T09:55:28Z</time>
      </trkpt>
      <trkpt lat="42.70946" lon="1.63031">
        <ele>1881.159</ele>
        <time>2021-06-13T09:55:30Z</time>
      </trkpt>
      <trkpt lat="42.70946" lon="1.63027">
        <ele>1881.776</ele>
        <time>2021-06-13T09:55:32Z</time>
      </trkpt>
      <trkpt lat="42.70946" lon="1.63024">
        <ele>1881.787</ele>
        <time>2021-06-13T09:55:34Z</time>
      </trkpt>
      <trkpt lat="42.70946" lon="1.63021">
        <ele>1881.395</ele>
        <time>2021-06-13T09:55:36Z</time>
      </trkpt>
      <trkpt lat="42.70946" lon="1.63018">
        <ele>1881.398</ele>
        <time>2021-06-13T09:55:38Z</time>
      </trkpt>
      <trkpt lat="42.70945" lon="1.63017">
        <ele>1881.372</ele>
        <time>2021-06-13T09:55:40Z</time>
      </trkpt>
      <trkpt lat="42.70945" lon="1.63014">
        <ele>1881.005</ele>
        <time>2021-06-13T09:55:42Z</time>
      </trkpt>
      <trkpt lat="42.70945" lon="1.63011">
        <ele>1880.935</ele>
        <time>2021-06-13T09:55:44Z</time>
      </trkpt>
      <trkpt lat="42.70945" lon="1.63009">
        <ele>1881.039</ele>
        <time>2021-06-13T09:55:46Z</time>
      </trkpt>
      <trkpt lat="42.70945" lon="1.63006">
        <ele>1881.156</ele>
        <time>2021-06-13T09:55:48Z</time>
      </trkpt>
      <trkpt lat="42.70944" lon="1.63005">
        <ele>1881.509</ele>
        <time>2021-06-13T09:55:50Z</time>
      </trkpt>
      <trkpt lat="42.70943" lon="1.63003">
        <ele>1881.347</ele>
        <time>2021-06-13T09:55:52Z</time>
      </trkpt>
      <trkpt lat="42.70943" lon="1.63002">
        <ele>1881.077</ele>
        <time>2021-06-13T09:55:54Z</time>
      </trkpt>
      <trkpt lat="42.70943" lon="1.63">
        <ele>1881.111</ele>
        <time>2021-06-13T09:55:56Z</time>
      </trkpt>
      <trkpt lat="42.70942" lon="1.62998">
        <ele>1881.144</ele>
        <time>2021-06-13T09:55:58Z</time>
      </trkpt>
      <trkpt lat="42.70942" lon="1.62997">
        <ele>1881.581</ele>
        <time>2021-06-13T09:56:00Z</time>
      </trkpt>
      <trkpt lat="42.70941" lon="1.62995">
        <ele>1881.784</ele>
        <time>2021-06-13T09:56:02Z</time>
      </trkpt>
      <trkpt lat="42.7094" lon="1.62994">
        <ele>1882.514</ele>
        <time>2021-06-13T09:56:04Z</time>
      </trkpt>
      <trkpt lat="42.70939" lon="1.62993">
        <ele>1882.607</ele>
        <time>2021-06-13T09:56:06Z</time>
      </trkpt>
      <trkpt lat="42.7094" lon="1.62993">
        <ele>1881.243</ele>
        <time>2021-06-13T09:56:08Z</time>
      </trkpt>
      <trkpt lat="42.7094" lon="1.62992">
        <ele>1880.41</ele>
        <time>2021-06-13T09:56:10Z</time>
      </trkpt>
      <trkpt lat="42.7094" lon="1.62992">
        <ele>1879.727</ele>
        <time>2021-06-13T09:56:12Z</time>
      </trkpt>
      <trkpt lat="42.7094" lon="1.62991">
        <ele>1878.902</ele>
        <time>2021-06-13T09:56:14Z</time>
      </trkpt>
      <trkpt lat="42.7094" lon="1.6299">
        <ele>1878.411</ele>
        <time>2021-06-13T09:56:16Z</time>
      </trkpt>
      <trkpt lat="42.7094" lon="1.62989">
        <ele>1877.73</ele>
        <time>2021-06-13T09:56:18Z</time>
      </trkpt>
      <trkpt lat="42.70939" lon="1.62988">
        <ele>1877.994</ele>
        <time>2021-06-13T09:56:20Z</time>
      </trkpt>
      <trkpt lat="42.70938" lon="1.62987">
        <ele>1877.499</ele>
        <time>2021-06-13T09:56:22Z</time>
      </trkpt>
      <trkpt lat="42.70938" lon="1.62986">
        <ele>1877.465</ele>
        <time>2021-06-13T09:56:24Z</time>
      </trkpt>
      <trkpt lat="42.70938" lon="1.62985">
        <ele>1877.291</ele>
        <time>2021-06-13T09:56:26Z</time>
      </trkpt>
      <trkpt lat="42.70938" lon="1.62985">
        <ele>1876.955</ele>
        <time>2021-06-13T09:56:28Z</time>
      </trkpt>
      <trkpt lat="42.70937" lon="1.62984">
        <ele>1876.519</ele>
        <time>2021-06-13T09:56:30Z</time>
      </trkpt>
      <trkpt lat="42.70938" lon="1.62984">
        <ele>1875.906</ele>
        <time>2021-06-13T09:56:32Z</time>
      </trkpt>
      <trkpt lat="42.70938" lon="1.62984">
        <ele>1875.642</ele>
        <time>2021-06-13T09:56:34Z</time>
      </trkpt>
      <trkpt lat="42.70938" lon="1.62984">
        <ele>1875.623</ele>
        <time>2021-06-13T09:56:36Z</time>
      </trkpt>
      <trkpt lat="42.70938" lon="1.62984">
        <ele>1875.369</ele>
        <time>2021-06-13T09:56:38Z</time>
      </trkpt>
      <trkpt lat="42.70937" lon="1.62985">
        <ele>1875.093</ele>
        <time>2021-06-13T09:56:40Z</time>
      </trkpt>
      <trkpt lat="42.70937" lon="1.62985">
        <ele>1874.874</ele>
        <time>2021-06-13T09:56:42Z</time>
      </trkpt>
      <trkpt lat="42.70936" lon="1.62985">
        <ele>1874.423</ele>
        <time>2021-06-13T09:56:44Z</time>
      </trkpt>
      <trkpt lat="42.70936" lon="1.62986">
        <ele>1874.193</ele>
        <time>2021-06-13T09:56:46Z</time>
      </trkpt>
      <trkpt lat="42.70936" lon="1.62986">
        <ele>1873.977</ele>
        <time>2021-06-13T09:56:48Z</time>
      </trkpt>
      <trkpt lat="42.70936" lon="1.62984">
        <ele>1873.559</ele>
        <time>2021-06-13T09:56:50Z</time>
      </trkpt>
      <trkpt lat="42.70936" lon="1.62982">
        <ele>1873.291</ele>
        <time>2021-06-13T09:56:52Z</time>
      </trkpt>
      <trkpt lat="42.70936" lon="1.62982">
        <ele>1873.041</ele>
        <time>2021-06-13T09:56:54Z</time>
      </trkpt>
      <trkpt lat="42.70936" lon="1.62982">
        <ele>1872.915</ele>
        <time>2021-06-13T09:56:56Z</time>
      </trkpt>
      <trkpt lat="42.70936" lon="1.62982">
        <ele>1871.906</ele>
        <time>2021-06-13T09:56:58Z</time>
      </trkpt>
      <trkpt lat="42.70936" lon="1.62981">
        <ele>1871.547</ele>
        <time>2021-06-13T09:57:00Z</time>
      </trkpt>
      <trkpt lat="42.70935" lon="1.62981">
        <ele>1871.133</ele>
        <time>2021-06-13T09:57:02Z</time>
      </trkpt>
      <trkpt lat="42.70935" lon="1.6298">
        <ele>1870.927</ele>
        <time>2021-06-13T09:57:04Z</time>
      </trkpt>
      <trkpt lat="42.70934" lon="1.62979">
        <ele>1870.58</ele>
        <time>2021-06-13T09:57:06Z</time>
      </trkpt>
      <trkpt lat="42.70935" lon="1.62977">
        <ele>1870.292</ele>
        <time>2021-06-13T09:57:08Z</time>
      </trkpt>
      <trkpt lat="42.70935" lon="1.62974">
        <ele>1870.029</ele>
        <time>2021-06-13T09:57:10Z</time>
      </trkpt>
      <trkpt lat="42.70935" lon="1.62972">
        <ele>1869.85</ele>
        <time>2021-06-13T09:57:12Z</time>
      </trkpt>
      <trkpt lat="42.70935" lon="1.62971">
        <ele>1869.398</ele>
        <time>2021-06-13T09:57:14Z</time>
      </trkpt>
      <trkpt lat="42.70935" lon="1.62969">
        <ele>1869.278</ele>
        <time>2021-06-13T09:57:16Z</time>
      </trkpt>
      <trkpt lat="42.70935" lon="1.62968">
        <ele>1868.986</ele>
        <time>2021-06-13T09:57:18Z</time>
      </trkpt>
      <trkpt lat="42.70935" lon="1.62966">
        <ele>1868.915</ele>
        <time>2021-06-13T09:57:20Z</time>
      </trkpt>
      <trkpt lat="42.70935" lon="1.62965">
        <ele>1869.468</ele>
        <time>2021-06-13T09:57:22Z</time>
      </trkpt>
      <trkpt lat="42.70934" lon="1.62965">
        <ele>1868.856</ele>
        <time>2021-06-13T09:57:24Z</time>
      </trkpt>
      <trkpt lat="42.70934" lon="1.62964">
        <ele>1869.37</ele>
        <time>2021-06-13T09:57:26Z</time>
      </trkpt>
      <trkpt lat="42.70934" lon="1.62963">
        <ele>1869.63</ele>
        <time>2021-06-13T09:57:28Z</time>
      </trkpt>
      <trkpt lat="42.70933" lon="1.62962">
        <ele>1869.487</ele>
        <time>2021-06-13T09:57:30Z</time>
      </trkpt>
      <trkpt lat="42.70933" lon="1.62961">
        <ele>1869.279</ele>
        <time>2021-06-13T09:57:32Z</time>
      </trkpt>
      <trkpt lat="42.70933" lon="1.62961">
        <ele>1868.778</ele>
        <time>2021-06-13T09:57:34Z</time>
      </trkpt>
      <trkpt lat="42.70933" lon="1.6296">
        <ele>1868.7</ele>
        <time>2021-06-13T09:57:36Z</time>
      </trkpt>
      <trkpt lat="42.70933" lon="1.6296">
        <ele>1868.681</ele>
        <time>2021-06-13T09:57:38Z</time>
      </trkpt>
      <trkpt lat="42.70933" lon="1.62959">
        <ele>1868.291</ele>
        <time>2021-06-13T09:57:40Z</time>
      </trkpt>
      <trkpt lat="42.70933" lon="1.62959">
        <ele>1867.849</ele>
        <time>2021-06-13T09:57:42Z</time>
      </trkpt>
      <trkpt lat="42.70932" lon="1.62958">
        <ele>1867.543</ele>
        <time>2021-06-13T09:57:44Z</time>
      </trkpt>
      <trkpt lat="42.70931" lon="1.62958">
        <ele>1867.812</ele>
        <time>2021-06-13T09:57:46Z</time>
      </trkpt>
      <trkpt lat="42.70931" lon="1.62958">
        <ele>1867.693</ele>
        <time>2021-06-13T09:57:48Z</time>
      </trkpt>
      <trkpt lat="42.70931" lon="1.62958">
        <ele>1867.825</ele>
        <time>2021-06-13T09:57:50Z</time>
      </trkpt>
      <trkpt lat="42.70931" lon="1.62959">
        <ele>1867.39</ele>
        <time>2021-06-13T09:57:52Z</time>
      </trkpt>
      <trkpt lat="42.70931" lon="1.6296">
        <ele>1867.399</ele>
        <time>2021-06-13T09:57:54Z</time>
      </trkpt>
      <trkpt lat="42.70931" lon="1.6296">
        <ele>1867.386</ele>
        <time>2021-06-13T09:57:56Z</time>
      </trkpt>
      <trkpt lat="42.70931" lon="1.6296">
        <ele>1867</ele>
        <time>2021-06-13T09:57:58Z</time>
      </trkpt>
      <trkpt lat="42.7093" lon="1.62961">
        <ele>1866.303</ele>
        <time>2021-06-13T09:58:00Z</time>
      </trkpt>
      <trkpt lat="42.7093" lon="1.62961">
        <ele>1866.466</ele>
        <time>2021-06-13T09:58:02Z</time>
      </trkpt>
      <trkpt lat="42.7093" lon="1.62962">
        <ele>1866.21</ele>
        <time>2021-06-13T09:58:04Z</time>
      </trkpt>
      <trkpt lat="42.7093" lon="1.62961">
        <ele>1866.222</ele>
        <time>2021-06-13T09:58:06Z</time>
      </trkpt>
      <trkpt lat="42.7093" lon="1.62961">
        <ele>1865.763</ele>
        <time>2021-06-13T09:58:08Z</time>
      </trkpt>
      <trkpt lat="42.70929" lon="1.6296">
        <ele>1865.509</ele>
        <time>2021-06-13T09:58:10Z</time>
      </trkpt>
      <trkpt lat="42.70929" lon="1.62959">
        <ele>1865.132</ele>
        <time>2021-06-13T09:58:12Z</time>
      </trkpt>
      <trkpt lat="42.70929" lon="1.62959">
        <ele>1865.092</ele>
        <time>2021-06-13T09:58:14Z</time>
      </trkpt>
      <trkpt lat="42.70929" lon="1.62959">
        <ele>1865.084</ele>
        <time>2021-06-13T09:58:16Z</time>
      </trkpt>
      <trkpt lat="42.70929" lon="1.62958">
        <ele>1864.779</ele>
        <time>2021-06-13T09:58:18Z</time>
      </trkpt>
      <trkpt lat="42.70928" lon="1.62956">
        <ele>1864.376</ele>
        <time>2021-06-13T09:58:20Z</time>
      </trkpt>
      <trkpt lat="42.70928" lon="1.62954">
        <ele>1864.277</ele>
        <time>2021-06-13T09:58:22Z</time>
      </trkpt>
      <trkpt lat="42.70927" lon="1.62953">
        <ele>1864.08</ele>
        <time>2021-06-13T09:58:24Z</time>
      </trkpt>
      <trkpt lat="42.70927" lon="1.62953">
        <ele>1863.959</ele>
        <time>2021-06-13T09:58:26Z</time>
      </trkpt>
      <trkpt lat="42.70926" lon="1.62954">
        <ele>1863.932</ele>
        <time>2021-06-13T09:58:28Z</time>
      </trkpt>
      <trkpt lat="42.70925" lon="1.62955">
        <ele>1863.643</ele>
        <time>2021-06-13T09:58:30Z</time>
      </trkpt>
      <trkpt lat="42.70925" lon="1.62956">
        <ele>1863.623</ele>
        <time>2021-06-13T09:58:32Z</time>
      </trkpt>
      <trkpt lat="42.70924" lon="1.62957">
        <ele>1863.298</ele>
        <time>2021-06-13T09:58:34Z</time>
      </trkpt>
      <trkpt lat="42.70924" lon="1.62957">
        <ele>1863.063</ele>
        <time>2021-06-13T09:58:36Z</time>
      </trkpt>
      <trkpt lat="42.70923" lon="1.62957">
        <ele>1862.83</ele>
        <time>2021-06-13T09:58:38Z</time>
      </trkpt>
      <trkpt lat="42.70923" lon="1.62958">
        <ele>1862.526</ele>
        <time>2021-06-13T09:58:40Z</time>
      </trkpt>
      <trkpt lat="42.70922" lon="1.62958">
        <ele>1861.872</ele>
        <time>2021-06-13T09:58:42Z</time>
      </trkpt>
      <trkpt lat="42.70922" lon="1.62958">
        <ele>1861.675</ele>
        <time>2021-06-13T09:58:44Z</time>
      </trkpt>
      <trkpt lat="42.70921" lon="1.62959">
        <ele>1861.578</ele>
        <time>2021-06-13T09:58:46Z</time>
      </trkpt>
      <trkpt lat="42.70921" lon="1.62959">
        <ele>1862.071</ele>
        <time>2021-06-13T09:58:48Z</time>
      </trkpt>
      <trkpt lat="42.7092" lon="1.6296">
        <ele>1861.408</ele>
        <time>2021-06-13T09:58:50Z</time>
      </trkpt>
      <trkpt lat="42.7092" lon="1.62961">
        <ele>1860.829</ele>
        <time>2021-06-13T09:58:52Z</time>
      </trkpt>
      <trkpt lat="42.70919" lon="1.62962">
        <ele>1860.569</ele>
        <time>2021-06-13T09:58:54Z</time>
      </trkpt>
      <trkpt lat="42.70919" lon="1.62964">
        <ele>1860.024</ele>
        <time>2021-06-13T09:58:56Z</time>
      </trkpt>
      <trkpt lat="42.70918" lon="1.62965">
        <ele>1859.967</ele>
        <time>2021-06-13T09:58:58Z</time>
      </trkpt>
      <trkpt lat="42.70918" lon="1.62966">
        <ele>1860.023</ele>
        <time>2021-06-13T09:59:00Z</time>
      </trkpt>
      <trkpt lat="42.70918" lon="1.62967">
        <ele>1859.859</ele>
        <time>2021-06-13T09:59:02Z</time>
      </trkpt>
      <trkpt lat="42.70917" lon="1.62968">
        <ele>1859.954</ele>
        <time>2021-06-13T09:59:04Z</time>
      </trkpt>
      <trkpt lat="42.70916" lon="1.62967">
        <ele>1859.643</ele>
        <time>2021-06-13T09:59:06Z</time>
      </trkpt>
      <trkpt lat="42.70915" lon="1.62968">
        <ele>1860.459</ele>
        <time>2021-06-13T09:59:08Z</time>
      </trkpt>
      <trkpt lat="42.70916" lon="1.62968">
        <ele>1858.94</ele>
        <time>2021-06-13T09:59:10Z</time>
      </trkpt>
      <trkpt lat="42.70916" lon="1.6297">
        <ele>1858.341</ele>
        <time>2021-06-13T09:59:12Z</time>
      </trkpt>
      <trkpt lat="42.70915" lon="1.62971">
        <ele>1857.538</ele>
        <time>2021-06-13T09:59:14Z</time>
      </trkpt>
      <trkpt lat="42.70914" lon="1.6297">
        <ele>1856.681</ele>
        <time>2021-06-13T09:59:16Z</time>
      </trkpt>
      <trkpt lat="42.70913" lon="1.62969">
        <ele>1855.626</ele>
        <time>2021-06-13T09:59:18Z</time>
      </trkpt>
      <trkpt lat="42.70913" lon="1.62968">
        <ele>1855.131</ele>
        <time>2021-06-13T09:59:20Z</time>
      </trkpt>
      <trkpt lat="42.70912" lon="1.62967">
        <ele>1854.602</ele>
        <time>2021-06-13T09:59:22Z</time>
      </trkpt>
      <trkpt lat="42.70912" lon="1.62968">
        <ele>1854.167</ele>
        <time>2021-06-13T09:59:24Z</time>
      </trkpt>
      <trkpt lat="42.70911" lon="1.62968">
        <ele>1853.88</ele>
        <time>2021-06-13T09:59:26Z</time>
      </trkpt>
      <trkpt lat="42.7091" lon="1.62968">
        <ele>1853.253</ele>
        <time>2021-06-13T09:59:28Z</time>
      </trkpt>
      <trkpt lat="42.7091" lon="1.62969">
        <ele>1853.041</ele>
        <time>2021-06-13T09:59:30Z</time>
      </trkpt>
      <trkpt lat="42.70909" lon="1.62969">
        <ele>1852.941</ele>
        <time>2021-06-13T09:59:32Z</time>
      </trkpt>
      <trkpt lat="42.70909" lon="1.62969">
        <ele>1852.658</ele>
        <time>2021-06-13T09:59:34Z</time>
      </trkpt>
      <trkpt lat="42.70909" lon="1.62969">
        <ele>1852.655</ele>
        <time>2021-06-13T09:59:36Z</time>
      </trkpt>
      <trkpt lat="42.70909" lon="1.62969">
        <ele>1852.655</ele>
        <time>2021-06-13T09:59:38Z</time>
      </trkpt>
      <trkpt lat="42.70909" lon="1.62969">
        <ele>1852.653</ele>
        <time>2021-06-13T09:59:40Z</time>
      </trkpt>
      <trkpt lat="42.70909" lon="1.62969">
        <ele>1852.652</ele>
        <time>2021-06-13T09:59:42Z</time>
      </trkpt>
      <trkpt lat="42.70909" lon="1.62969">
        <ele>1852.65</ele>
        <time>2021-06-13T09:59:44Z</time>
      </trkpt>
      <trkpt lat="42.70909" lon="1.62969">
        <ele>1852.645</ele>
        <time>2021-06-13T09:59:46Z</time>
      </trkpt>
      <trkpt lat="42.70909" lon="1.6297">
        <ele>1852.538</ele>
        <time>2021-06-13T09:59:48Z</time>
      </trkpt>
      <trkpt lat="42.70908" lon="1.62971">
        <ele>1852.133</ele>
        <time>2021-06-13T09:59:50Z</time>
      </trkpt>
      <trkpt lat="42.70908" lon="1.62971">
        <ele>1851.264</ele>
        <time>2021-06-13T09:59:52Z</time>
      </trkpt>
      <trkpt lat="42.70907" lon="1.62972">
        <ele>1850.946</ele>
        <time>2021-06-13T09:59:54Z</time>
      </trkpt>
      <trkpt lat="42.70906" lon="1.62972">
        <ele>1850.408</ele>
        <time>2021-06-13T09:59:56Z</time>
      </trkpt>
      <trkpt lat="42.70905" lon="1.62972">
        <ele>1850</ele>
        <time>2021-06-13T09:59:58Z</time>
      </trkpt>
      <trkpt lat="42.70905" lon="1.62973">
        <ele>1849.724</ele>
        <time>2021-06-13T10:00:00Z</time>
      </trkpt>
      <trkpt lat="42.70904" lon="1.62973">
        <ele>1849.113</ele>
        <time>2021-06-13T10:00:02Z</time>
      </trkpt>
      <trkpt lat="42.70904" lon="1.62974">
        <ele>1848.613</ele>
        <time>2021-06-13T10:00:04Z</time>
      </trkpt>
      <trkpt lat="42.70903" lon="1.62974">
        <ele>1847.84</ele>
        <time>2021-06-13T10:00:06Z</time>
      </trkpt>
      <trkpt lat="42.70902" lon="1.62974">
        <ele>1847.485</ele>
        <time>2021-06-13T10:00:08Z</time>
      </trkpt>
      <trkpt lat="42.70901" lon="1.62974">
        <ele>1847.466</ele>
        <time>2021-06-13T10:00:10Z</time>
      </trkpt>
      <trkpt lat="42.709" lon="1.62974">
        <ele>1847.255</ele>
        <time>2021-06-13T10:00:12Z</time>
      </trkpt>
      <trkpt lat="42.709" lon="1.62974">
        <ele>1846.807</ele>
        <time>2021-06-13T10:00:14Z</time>
      </trkpt>
      <trkpt lat="42.70899" lon="1.62973">
        <ele>1846.055</ele>
        <time>2021-06-13T10:00:16Z</time>
      </trkpt>
      <trkpt lat="42.70897" lon="1.62971">
        <ele>1845.301</ele>
        <time>2021-06-13T10:00:18Z</time>
      </trkpt>
      <trkpt lat="42.70896" lon="1.62971">
        <ele>1844.621</ele>
        <time>2021-06-13T10:00:20Z</time>
      </trkpt>
      <trkpt lat="42.70896" lon="1.6297">
        <ele>1843.263</ele>
        <time>2021-06-13T10:00:22Z</time>
      </trkpt>
      <trkpt lat="42.70895" lon="1.62969">
        <ele>1842.481</ele>
        <time>2021-06-13T10:00:24Z</time>
      </trkpt>
      <trkpt lat="42.70894" lon="1.62968">
        <ele>1841.575</ele>
        <time>2021-06-13T10:00:26Z</time>
      </trkpt>
      <trkpt lat="42.70894" lon="1.62966">
        <ele>1841.007</ele>
        <time>2021-06-13T10:00:28Z</time>
      </trkpt>
      <trkpt lat="42.70894" lon="1.62965">
        <ele>1839.571</ele>
        <time>2021-06-13T10:00:30Z</time>
      </trkpt>
      <trkpt lat="42.70893" lon="1.62964">
        <ele>1838.95</ele>
        <time>2021-06-13T10:00:32Z</time>
      </trkpt>
      <trkpt lat="42.70893" lon="1.62962">
        <ele>1837.943</ele>
        <time>2021-06-13T10:00:34Z</time>
      </trkpt>
      <trkpt lat="42.70893" lon="1.6296">
        <ele>1837.74</ele>
        <time>2021-06-13T10:00:36Z</time>
      </trkpt>
      <trkpt lat="42.70893" lon="1.62958">
        <ele>1837.13</ele>
        <time>2021-06-13T10:00:38Z</time>
      </trkpt>
      <trkpt lat="42.70892" lon="1.62957">
        <ele>1837.004</ele>
        <time>2021-06-13T10:00:40Z</time>
      </trkpt>
      <trkpt lat="42.70891" lon="1.62956">
        <ele>1836.594</ele>
        <time>2021-06-13T10:00:42Z</time>
      </trkpt>
      <trkpt lat="42.7089" lon="1.62954">
        <ele>1836.186</ele>
        <time>2021-06-13T10:00:44Z</time>
      </trkpt>
      <trkpt lat="42.70889" lon="1.62952">
        <ele>1835.713</ele>
        <time>2021-06-13T10:00:46Z</time>
      </trkpt>
      <trkpt lat="42.70887" lon="1.62951">
        <ele>1835.089</ele>
        <time>2021-06-13T10:00:48Z</time>
      </trkpt>
      <trkpt lat="42.70886" lon="1.62949">
        <ele>1834.441</ele>
        <time>2021-06-13T10:00:50Z</time>
      </trkpt>
      <trkpt lat="42.70885" lon="1.62948">
        <ele>1833.928</ele>
        <time>2021-06-13T10:00:52Z</time>
      </trkpt>
      <trkpt lat="42.70884" lon="1.62946">
        <ele>1834.117</ele>
        <time>2021-06-13T10:00:54Z</time>
      </trkpt>
      <trkpt lat="42.70883" lon="1.62945">
        <ele>1833.428</ele>
        <time>2021-06-13T10:00:56Z</time>
      </trkpt>
      <trkpt lat="42.70882" lon="1.62945">
        <ele>1832.585</ele>
        <time>2021-06-13T10:00:58Z</time>
      </trkpt>
      <trkpt lat="42.70881" lon="1.62945">
        <ele>1832.304</ele>
        <time>2021-06-13T10:01:00Z</time>
      </trkpt>
      <trkpt lat="42.70879" lon="1.62944">
        <ele>1831.652</ele>
        <time>2021-06-13T10:01:02Z</time>
      </trkpt>
      <trkpt lat="42.70878" lon="1.62944">
        <ele>1831.713</ele>
        <time>2021-06-13T10:01:04Z</time>
      </trkpt>
      <trkpt lat="42.70878" lon="1.62943">
        <ele>1831.344</ele>
        <time>2021-06-13T10:01:06Z</time>
      </trkpt>
      <trkpt lat="42.70877" lon="1.62942">
        <ele>1830.807</ele>
        <time>2021-06-13T10:01:08Z</time>
      </trkpt>
      <trkpt lat="42.70876" lon="1.62941">
        <ele>1830.105</ele>
        <time>2021-06-13T10:01:10Z</time>
      </trkpt>
      <trkpt lat="42.70875" lon="1.6294">
        <ele>1829.391</ele>
        <time>2021-06-13T10:01:12Z</time>
      </trkpt>
      <trkpt lat="42.70874" lon="1.6294">
        <ele>1829.126</ele>
        <time>2021-06-13T10:01:14Z</time>
      </trkpt>
      <trkpt lat="42.70873" lon="1.6294">
        <ele>1828.171</ele>
        <time>2021-06-13T10:01:16Z</time>
      </trkpt>
      <trkpt lat="42.70872" lon="1.62939">
        <ele>1827.792</ele>
        <time>2021-06-13T10:01:18Z</time>
      </trkpt>
      <trkpt lat="42.70872" lon="1.62937">
        <ele>1827.406</ele>
        <time>2021-06-13T10:01:20Z</time>
      </trkpt>
      <trkpt lat="42.70871" lon="1.62935">
        <ele>1826.438</ele>
        <time>2021-06-13T10:01:22Z</time>
      </trkpt>
      <trkpt lat="42.7087" lon="1.62935">
        <ele>1825.629</ele>
        <time>2021-06-13T10:01:24Z</time>
      </trkpt>
      <trkpt lat="42.70869" lon="1.62935">
        <ele>1825.082</ele>
        <time>2021-06-13T10:01:26Z</time>
      </trkpt>
      <trkpt lat="42.70869" lon="1.62935">
        <ele>1825.236</ele>
        <time>2021-06-13T10:01:28Z</time>
      </trkpt>
      <trkpt lat="42.70869" lon="1.62935">
        <ele>1825.238</ele>
        <time>2021-06-13T10:01:30Z</time>
      </trkpt>
      <trkpt lat="42.70869" lon="1.62935">
        <ele>1825.239</ele>
        <time>2021-06-13T10:01:32Z</time>
      </trkpt>
      <trkpt lat="42.70869" lon="1.62935">
        <ele>1825.239</ele>
        <time>2021-06-13T10:01:34Z</time>
      </trkpt>
      <trkpt lat="42.70869" lon="1.62935">
        <ele>1825.238</ele>
        <time>2021-06-13T10:01:36Z</time>
      </trkpt>
      <trkpt lat="42.70869" lon="1.62935">
        <ele>1825.235</ele>
        <time>2021-06-13T10:01:38Z</time>
      </trkpt>
      <trkpt lat="42.70869" lon="1.62935">
        <ele>1825.234</ele>
        <time>2021-06-13T10:01:40Z</time>
      </trkpt>
      <trkpt lat="42.70869" lon="1.62935">
        <ele>1824.848</ele>
        <time>2021-06-13T10:01:42Z</time>
      </trkpt>
      <trkpt lat="42.7087" lon="1.62932">
        <ele>1825.129</ele>
        <time>2021-06-13T10:01:44Z</time>
      </trkpt>
      <trkpt lat="42.7087" lon="1.62934">
        <ele>1824.686</ele>
        <time>2021-06-13T10:01:46Z</time>
      </trkpt>
      <trkpt lat="42.7087" lon="1.62935">
        <ele>1824.677</ele>
        <time>2021-06-13T10:01:48Z</time>
      </trkpt>
      <trkpt lat="42.7087" lon="1.62936">
        <ele>1824.2</ele>
        <time>2021-06-13T10:01:50Z</time>
      </trkpt>
      <trkpt lat="42.7087" lon="1.62936">
        <ele>1824.203</ele>
        <time>2021-06-13T10:01:52Z</time>
      </trkpt>
      <trkpt lat="42.7087" lon="1.62936">
        <ele>1824.173</ele>
        <time>2021-06-13T10:01:54Z</time>
      </trkpt>
      <trkpt lat="42.70869" lon="1.62936">
        <ele>1824.209</ele>
        <time>2021-06-13T10:01:56Z</time>
      </trkpt>
      <trkpt lat="42.7087" lon="1.62936">
        <ele>1823.862</ele>
        <time>2021-06-13T10:01:58Z</time>
      </trkpt>
      <trkpt lat="42.7087" lon="1.62936">
        <ele>1823.895</ele>
        <time>2021-06-13T10:02:00Z</time>
      </trkpt>
      <trkpt lat="42.7087" lon="1.62936">
        <ele>1823.891</ele>
        <time>2021-06-13T10:02:02Z</time>
      </trkpt>
      <trkpt lat="42.7087" lon="1.62936">
        <ele>1823.887</ele>
        <time>2021-06-13T10:02:04Z</time>
      </trkpt>
      <trkpt lat="42.7087" lon="1.62936">
        <ele>1823.888</ele>
        <time>2021-06-13T10:02:07Z</time>
      </trkpt>
      <trkpt lat="42.7087" lon="1.62936">
        <ele>1823.89</ele>
        <time>2021-06-13T10:02:09Z</time>
      </trkpt>
      <trkpt lat="42.7087" lon="1.62936">
        <ele>1823.892</ele>
        <time>2021-06-13T10:02:11Z</time>
      </trkpt>
      <trkpt lat="42.7087" lon="1.62936">
        <ele>1823.892</ele>
        <time>2021-06-13T10:02:13Z</time>
      </trkpt>
      <trkpt lat="42.7087" lon="1.62936">
        <ele>1823.89</ele>
        <time>2021-06-13T10:02:15Z</time>
      </trkpt>
      <trkpt lat="42.7087" lon="1.62936">
        <ele>1823.887</ele>
        <time>2021-06-13T10:02:17Z</time>
      </trkpt>
      <trkpt lat="42.7087" lon="1.62935">
        <ele>1823.643</ele>
        <time>2021-06-13T10:02:19Z</time>
      </trkpt>
      <trkpt lat="42.70869" lon="1.62934">
        <ele>1822.95</ele>
        <time>2021-06-13T10:02:21Z</time>
      </trkpt>
      <trkpt lat="42.70868" lon="1.62932">
        <ele>1822.316</ele>
        <time>2021-06-13T10:02:23Z</time>
      </trkpt>
      <trkpt lat="42.70867" lon="1.62931">
        <ele>1822.26</ele>
        <time>2021-06-13T10:02:25Z</time>
      </trkpt>
      <trkpt lat="42.70865" lon="1.62931">
        <ele>1821.543</ele>
        <time>2021-06-13T10:02:27Z</time>
      </trkpt>
      <trkpt lat="42.70864" lon="1.62931">
        <ele>1821.393</ele>
        <time>2021-06-13T10:02:29Z</time>
      </trkpt>
      <trkpt lat="42.70862" lon="1.6293">
        <ele>1820.781</ele>
        <time>2021-06-13T10:02:31Z</time>
      </trkpt>
      <trkpt lat="42.70861" lon="1.62928">
        <ele>1819.895</ele>
        <time>2021-06-13T10:02:33Z</time>
      </trkpt>
      <trkpt lat="42.70859" lon="1.62927">
        <ele>1819.5</ele>
        <time>2021-06-13T10:02:35Z</time>
      </trkpt>
      <trkpt lat="42.70858" lon="1.62926">
        <ele>1818.97</ele>
        <time>2021-06-13T10:02:37Z</time>
      </trkpt>
      <trkpt lat="42.70857" lon="1.62926">
        <ele>1818.465</ele>
        <time>2021-06-13T10:02:39Z</time>
      </trkpt>
      <trkpt lat="42.70856" lon="1.62927">
        <ele>1818.247</ele>
        <time>2021-06-13T10:02:41Z</time>
      </trkpt>
      <trkpt lat="42.70855" lon="1.62927">
        <ele>1817.832</ele>
        <time>2021-06-13T10:02:43Z</time>
      </trkpt>
      <trkpt lat="42.70854" lon="1.62927">
        <ele>1817.451</ele>
        <time>2021-06-13T10:02:45Z</time>
      </trkpt>
      <trkpt lat="42.70853" lon="1.62928">
        <ele>1817.245</ele>
        <time>2021-06-13T10:02:47Z</time>
      </trkpt>
      <trkpt lat="42.70852" lon="1.62928">
        <ele>1816.783</ele>
        <time>2021-06-13T10:02:49Z</time>
      </trkpt>
      <trkpt lat="42.70851" lon="1.62928">
        <ele>1816.122</ele>
        <time>2021-06-13T10:02:51Z</time>
      </trkpt>
      <trkpt lat="42.7085" lon="1.62929">
        <ele>1815.286</ele>
        <time>2021-06-13T10:02:53Z</time>
      </trkpt>
      <trkpt lat="42.70848" lon="1.62929">
        <ele>1814.636</ele>
        <time>2021-06-13T10:02:55Z</time>
      </trkpt>
      <trkpt lat="42.70848" lon="1.62929">
        <ele>1814.613</ele>
        <time>2021-06-13T10:02:57Z</time>
      </trkpt>
      <trkpt lat="42.70848" lon="1.62929">
        <ele>1814.272</ele>
        <time>2021-06-13T10:02:59Z</time>
      </trkpt>
      <trkpt lat="42.70846" lon="1.62929">
        <ele>1813.405</ele>
        <time>2021-06-13T10:03:01Z</time>
      </trkpt>
      <trkpt lat="42.70845" lon="1.62929">
        <ele>1812.914</ele>
        <time>2021-06-13T10:03:03Z</time>
      </trkpt>
      <trkpt lat="42.70844" lon="1.62928">
        <ele>1812.603</ele>
        <time>2021-06-13T10:03:05Z</time>
      </trkpt>
      <trkpt lat="42.70842" lon="1.62928">
        <ele>1811.773</ele>
        <time>2021-06-13T10:03:07Z</time>
      </trkpt>
      <trkpt lat="42.70841" lon="1.62929">
        <ele>1810.815</ele>
        <time>2021-06-13T10:03:09Z</time>
      </trkpt>
      <trkpt lat="42.70839" lon="1.62929">
        <ele>1809.841</ele>
        <time>2021-06-13T10:03:11Z</time>
      </trkpt>
      <trkpt lat="42.70838" lon="1.6293">
        <ele>1809.928</ele>
        <time>2021-06-13T10:03:13Z</time>
      </trkpt>
      <trkpt lat="42.70837" lon="1.6293">
        <ele>1809.692</ele>
        <time>2021-06-13T10:03:15Z</time>
      </trkpt>
      <trkpt lat="42.70836" lon="1.6293">
        <ele>1809.489</ele>
        <time>2021-06-13T10:03:17Z</time>
      </trkpt>
      <trkpt lat="42.70835" lon="1.62931">
        <ele>1809.22</ele>
        <time>2021-06-13T10:03:19Z</time>
      </trkpt>
      <trkpt lat="42.70834" lon="1.62932">
        <ele>1809.041</ele>
        <time>2021-06-13T10:03:21Z</time>
      </trkpt>
      <trkpt lat="42.70833" lon="1.62933">
        <ele>1808.117</ele>
        <time>2021-06-13T10:03:23Z</time>
      </trkpt>
      <trkpt lat="42.70831" lon="1.62933">
        <ele>1807.979</ele>
        <time>2021-06-13T10:03:25Z</time>
      </trkpt>
      <trkpt lat="42.7083" lon="1.62935">
        <ele>1807.449</ele>
        <time>2021-06-13T10:03:27Z</time>
      </trkpt>
      <trkpt lat="42.7083" lon="1.62937">
        <ele>1807.025</ele>
        <time>2021-06-13T10:03:29Z</time>
      </trkpt>
      <trkpt lat="42.70829" lon="1.62937">
        <ele>1806.846</ele>
        <time>2021-06-13T10:03:31Z</time>
      </trkpt>
      <trkpt lat="42.70829" lon="1.62937">
        <ele>1806.736</ele>
        <time>2021-06-13T10:03:33Z</time>
      </trkpt>
      <trkpt lat="42.70828" lon="1.62935">
        <ele>1805.917</ele>
        <time>2021-06-13T10:03:35Z</time>
      </trkpt>
      <trkpt lat="42.70827" lon="1.62935">
        <ele>1805.356</ele>
        <time>2021-06-13T10:03:37Z</time>
      </trkpt>
      <trkpt lat="42.70825" lon="1.62935">
        <ele>1804.876</ele>
        <time>2021-06-13T10:03:39Z</time>
      </trkpt>
      <trkpt lat="42.70824" lon="1.62935">
        <ele>1804.286</ele>
        <time>2021-06-13T10:03:41Z</time>
      </trkpt>
      <trkpt lat="42.70823" lon="1.62936">
        <ele>1803.907</ele>
        <time>2021-06-13T10:03:43Z</time>
      </trkpt>
      <trkpt lat="42.70823" lon="1.62936">
        <ele>1803.938</ele>
        <time>2021-06-13T10:03:45Z</time>
      </trkpt>
      <trkpt lat="42.70822" lon="1.62936">
        <ele>1803.142</ele>
        <time>2021-06-13T10:03:47Z</time>
      </trkpt>
      <trkpt lat="42.70821" lon="1.62937">
        <ele>1803.016</ele>
        <time>2021-06-13T10:03:49Z</time>
      </trkpt>
      <trkpt lat="42.7082" lon="1.62937">
        <ele>1802.702</ele>
        <time>2021-06-13T10:03:51Z</time>
      </trkpt>
      <trkpt lat="42.70819" lon="1.62938">
        <ele>1802.424</ele>
        <time>2021-06-13T10:03:53Z</time>
      </trkpt>
      <trkpt lat="42.70817" lon="1.62938">
        <ele>1801.91</ele>
        <time>2021-06-13T10:03:55Z</time>
      </trkpt>
      <trkpt lat="42.70817" lon="1.62937">
        <ele>1801.356</ele>
        <time>2021-06-13T10:03:57Z</time>
      </trkpt>
      <trkpt lat="42.70816" lon="1.62936">
        <ele>1800.534</ele>
        <time>2021-06-13T10:03:59Z</time>
      </trkpt>
      <trkpt lat="42.70815" lon="1.62935">
        <ele>1799.645</ele>
        <time>2021-06-13T10:04:01Z</time>
      </trkpt>
      <trkpt lat="42.70814" lon="1.62934">
        <ele>1799.503</ele>
        <time>2021-06-13T10:04:03Z</time>
      </trkpt>
      <trkpt lat="42.70812" lon="1.62933">
        <ele>1799.031</ele>
        <time>2021-06-13T10:04:05Z</time>
      </trkpt>
      <trkpt lat="42.70811" lon="1.62932">
        <ele>1798.517</ele>
        <time>2021-06-13T10:04:07Z</time>
      </trkpt>
      <trkpt lat="42.70811" lon="1.62932">
        <ele>1797.97</ele>
        <time>2021-06-13T10:04:09Z</time>
      </trkpt>
      <trkpt lat="42.7081" lon="1.62931">
        <ele>1797.489</ele>
        <time>2021-06-13T10:04:11Z</time>
      </trkpt>
      <trkpt lat="42.7081" lon="1.62929">
        <ele>1796.93</ele>
        <time>2021-06-13T10:04:13Z</time>
      </trkpt>
      <trkpt lat="42.70809" lon="1.62929">
        <ele>1796.117</ele>
        <time>2021-06-13T10:04:15Z</time>
      </trkpt>
      <trkpt lat="42.70808" lon="1.62929">
        <ele>1795.601</ele>
        <time>2021-06-13T10:04:17Z</time>
      </trkpt>
      <trkpt lat="42.70807" lon="1.62929">
        <ele>1795.062</ele>
        <time>2021-06-13T10:04:19Z</time>
      </trkpt>
      <trkpt lat="42.70806" lon="1.62928">
        <ele>1794.603</ele>
        <time>2021-06-13T10:04:21Z</time>
      </trkpt>
      <trkpt lat="42.70804" lon="1.62927">
        <ele>1794.002</ele>
        <time>2021-06-13T10:04:23Z</time>
      </trkpt>
      <trkpt lat="42.70803" lon="1.62926">
        <ele>1793.503</ele>
        <time>2021-06-13T10:04:25Z</time>
      </trkpt>
      <trkpt lat="42.70802" lon="1.62926">
        <ele>1793.222</ele>
        <time>2021-06-13T10:04:27Z</time>
      </trkpt>
      <trkpt lat="42.70801" lon="1.62926">
        <ele>1792.362</ele>
        <time>2021-06-13T10:04:29Z</time>
      </trkpt>
      <trkpt lat="42.708" lon="1.62926">
        <ele>1791.852</ele>
        <time>2021-06-13T10:04:31Z</time>
      </trkpt>
      <trkpt lat="42.708" lon="1.62925">
        <ele>1791.386</ele>
        <time>2021-06-13T10:04:33Z</time>
      </trkpt>
      <trkpt lat="42.70799" lon="1.62925">
        <ele>1791.013</ele>
        <time>2021-06-13T10:04:35Z</time>
      </trkpt>
      <trkpt lat="42.70798" lon="1.62924">
        <ele>1790.865</ele>
        <time>2021-06-13T10:04:37Z</time>
      </trkpt>
      <trkpt lat="42.70797" lon="1.62924">
        <ele>1790.378</ele>
        <time>2021-06-13T10:04:39Z</time>
      </trkpt>
      <trkpt lat="42.70796" lon="1.62924">
        <ele>1789.561</ele>
        <time>2021-06-13T10:04:41Z</time>
      </trkpt>
      <trkpt lat="42.70796" lon="1.62923">
        <ele>1789.069</ele>
        <time>2021-06-13T10:04:43Z</time>
      </trkpt>
      <trkpt lat="42.70795" lon="1.62924">
        <ele>1788.345</ele>
        <time>2021-06-13T10:04:45Z</time>
      </trkpt>
      <trkpt lat="42.70794" lon="1.62924">
        <ele>1787.916</ele>
        <time>2021-06-13T10:04:47Z</time>
      </trkpt>
      <trkpt lat="42.70794" lon="1.62924">
        <ele>1787.271</ele>
        <time>2021-06-13T10:04:49Z</time>
      </trkpt>
      <trkpt lat="42.70793" lon="1.62923">
        <ele>1787.051</ele>
        <time>2021-06-13T10:04:51Z</time>
      </trkpt>
      <trkpt lat="42.70792" lon="1.62924">
        <ele>1786.702</ele>
        <time>2021-06-13T10:04:53Z</time>
      </trkpt>
      <trkpt lat="42.70792" lon="1.62924">
        <ele>1785.951</ele>
        <time>2021-06-13T10:04:55Z</time>
      </trkpt>
      <trkpt lat="42.70792" lon="1.62924">
        <ele>1785.593</ele>
        <time>2021-06-13T10:04:57Z</time>
      </trkpt>
      <trkpt lat="42.70791" lon="1.62924">
        <ele>1785.159</ele>
        <time>2021-06-13T10:04:59Z</time>
      </trkpt>
      <trkpt lat="42.70791" lon="1.62924">
        <ele>1785.051</ele>
        <time>2021-06-13T10:05:01Z</time>
      </trkpt>
      <trkpt lat="42.7079" lon="1.62924">
        <ele>1784.938</ele>
        <time>2021-06-13T10:05:03Z</time>
      </trkpt>
      <trkpt lat="42.7079" lon="1.62924">
        <ele>1784.511</ele>
        <time>2021-06-13T10:05:05Z</time>
      </trkpt>
      <trkpt lat="42.70789" lon="1.62925">
        <ele>1783.956</ele>
        <time>2021-06-13T10:05:07Z</time>
      </trkpt>
      <trkpt lat="42.70789" lon="1.62925">
        <ele>1784.236</ele>
        <time>2021-06-13T10:05:09Z</time>
      </trkpt>
      <trkpt lat="42.70789" lon="1.62926">
        <ele>1783.919</ele>
        <time>2021-06-13T10:05:11Z</time>
      </trkpt>
      <trkpt lat="42.70789" lon="1.62926">
        <ele>1783.695</ele>
        <time>2021-06-13T10:05:13Z</time>
      </trkpt>
      <trkpt lat="42.70788" lon="1.62925">
        <ele>1783.439</ele>
        <time>2021-06-13T10:05:15Z</time>
      </trkpt>
      <trkpt lat="42.70788" lon="1.62925">
        <ele>1783.339</ele>
        <time>2021-06-13T10:05:17Z</time>
      </trkpt>
      <trkpt lat="42.70788" lon="1.62925">
        <ele>1782.66</ele>
        <time>2021-06-13T10:05:19Z</time>
      </trkpt>
      <trkpt lat="42.70787" lon="1.62925">
        <ele>1782.235</ele>
        <time>2021-06-13T10:05:21Z</time>
      </trkpt>
      <trkpt lat="42.70786" lon="1.62924">
        <ele>1781.983</ele>
        <time>2021-06-13T10:05:23Z</time>
      </trkpt>
      <trkpt lat="42.70786" lon="1.62924">
        <ele>1782.005</ele>
        <time>2021-06-13T10:05:25Z</time>
      </trkpt>
      <trkpt lat="42.70785" lon="1.62923">
        <ele>1781.761</ele>
        <time>2021-06-13T10:05:27Z</time>
      </trkpt>
      <trkpt lat="42.70785" lon="1.62923">
        <ele>1781.252</ele>
        <time>2021-06-13T10:05:29Z</time>
      </trkpt>
      <trkpt lat="42.70785" lon="1.62922">
        <ele>1780.651</ele>
        <time>2021-06-13T10:05:31Z</time>
      </trkpt>
      <trkpt lat="42.70785" lon="1.62922">
        <ele>1780.395</ele>
        <time>2021-06-13T10:05:33Z</time>
      </trkpt>
      <trkpt lat="42.70784" lon="1.62921">
        <ele>1779.838</ele>
        <time>2021-06-13T10:05:35Z</time>
      </trkpt>
      <trkpt lat="42.70784" lon="1.62921">
        <ele>1779.763</ele>
        <time>2021-06-13T10:05:37Z</time>
      </trkpt>
      <trkpt lat="42.70784" lon="1.62921">
        <ele>1779.75</ele>
        <time>2021-06-13T10:05:39Z</time>
      </trkpt>
      <trkpt lat="42.70784" lon="1.62921">
        <ele>1779.744</ele>
        <time>2021-06-13T10:05:41Z</time>
      </trkpt>
      <trkpt lat="42.70784" lon="1.62921">
        <ele>1779.741</ele>
        <time>2021-06-13T10:05:43Z</time>
      </trkpt>
      <trkpt lat="42.70784" lon="1.62921">
        <ele>1779.741</ele>
        <time>2021-06-13T10:05:45Z</time>
      </trkpt>
      <trkpt lat="42.70784" lon="1.62921">
        <ele>1779.742</ele>
        <time>2021-06-13T10:05:47Z</time>
      </trkpt>
      <trkpt lat="42.70784" lon="1.62921">
        <ele>1779.308</ele>
        <time>2021-06-13T10:05:49Z</time>
      </trkpt>
      <trkpt lat="42.70783" lon="1.62922">
        <ele>1778.888</ele>
        <time>2021-06-13T10:05:51Z</time>
      </trkpt>
      <trkpt lat="42.70783" lon="1.62924">
        <ele>1778.698</ele>
        <time>2021-06-13T10:05:53Z</time>
      </trkpt>
      <trkpt lat="42.70783" lon="1.62926">
        <ele>1778.617</ele>
        <time>2021-06-13T10:05:55Z</time>
      </trkpt>
      <trkpt lat="42.70782" lon="1.62926">
        <ele>1778.852</ele>
        <time>2021-06-13T10:05:57Z</time>
      </trkpt>
      <trkpt lat="42.70783" lon="1.62926">
        <ele>1778.844</ele>
        <time>2021-06-13T10:05:59Z</time>
      </trkpt>
      <trkpt lat="42.70783" lon="1.62926">
        <ele>1778.838</ele>
        <time>2021-06-13T10:06:01Z</time>
      </trkpt>
      <trkpt lat="42.70782" lon="1.62927">
        <ele>1778.682</ele>
        <time>2021-06-13T10:06:03Z</time>
      </trkpt>
      <trkpt lat="42.70782" lon="1.62928">
        <ele>1777.974</ele>
        <time>2021-06-13T10:06:05Z</time>
      </trkpt>
      <trkpt lat="42.70781" lon="1.62929">
        <ele>1777.108</ele>
        <time>2021-06-13T10:06:07Z</time>
      </trkpt>
      <trkpt lat="42.70781" lon="1.62931">
        <ele>1776.19</ele>
        <time>2021-06-13T10:06:09Z</time>
      </trkpt>
      <trkpt lat="42.70781" lon="1.62933">
        <ele>1775.633</ele>
        <time>2021-06-13T10:06:11Z</time>
      </trkpt>
      <trkpt lat="42.70781" lon="1.62934">
        <ele>1775.064</ele>
        <time>2021-06-13T10:06:13Z</time>
      </trkpt>
      <trkpt lat="42.7078" lon="1.62936">
        <ele>1774.214</ele>
        <time>2021-06-13T10:06:15Z</time>
      </trkpt>
      <trkpt lat="42.7078" lon="1.62936">
        <ele>1773.731</ele>
        <time>2021-06-13T10:06:17Z</time>
      </trkpt>
      <trkpt lat="42.7078" lon="1.62936">
        <ele>1773.228</ele>
        <time>2021-06-13T10:06:19Z</time>
      </trkpt>
      <trkpt lat="42.70779" lon="1.62936">
        <ele>1773.198</ele>
        <time>2021-06-13T10:06:21Z</time>
      </trkpt>
      <trkpt lat="42.70779" lon="1.62935">
        <ele>1772.179</ele>
        <time>2021-06-13T10:06:23Z</time>
      </trkpt>
      <trkpt lat="42.70778" lon="1.62935">
        <ele>1771.867</ele>
        <time>2021-06-13T10:06:25Z</time>
      </trkpt>
      <trkpt lat="42.70778" lon="1.62935">
        <ele>1772.165</ele>
        <time>2021-06-13T10:06:27Z</time>
      </trkpt>
      <trkpt lat="42.70778" lon="1.62936">
        <ele>1771.866</ele>
        <time>2021-06-13T10:06:29Z</time>
      </trkpt>
      <trkpt lat="42.70778" lon="1.62937">
        <ele>1771.562</ele>
        <time>2021-06-13T10:06:31Z</time>
      </trkpt>
      <trkpt lat="42.70778" lon="1.62937">
        <ele>1771.622</ele>
        <time>2021-06-13T10:06:33Z</time>
      </trkpt>
      <trkpt lat="42.70778" lon="1.62938">
        <ele>1771.45</ele>
        <time>2021-06-13T10:06:35Z</time>
      </trkpt>
      <trkpt lat="42.70777" lon="1.62939">
        <ele>1771.16</ele>
        <time>2021-06-13T10:06:37Z</time>
      </trkpt>
      <trkpt lat="42.70777" lon="1.62939">
        <ele>1770.881</ele>
        <time>2021-06-13T10:06:39Z</time>
      </trkpt>
      <trkpt lat="42.70776" lon="1.62939">
        <ele>1770.802</ele>
        <time>2021-06-13T10:06:41Z</time>
      </trkpt>
      <trkpt lat="42.70776" lon="1.62939">
        <ele>1770.438</ele>
        <time>2021-06-13T10:06:43Z</time>
      </trkpt>
      <trkpt lat="42.70776" lon="1.62938">
        <ele>1770.21</ele>
        <time>2021-06-13T10:06:45Z</time>
      </trkpt>
      <trkpt lat="42.70776" lon="1.62937">
        <ele>1769.569</ele>
        <time>2021-06-13T10:06:47Z</time>
      </trkpt>
      <trkpt lat="42.70775" lon="1.62937">
        <ele>1769.316</ele>
        <time>2021-06-13T10:06:49Z</time>
      </trkpt>
      <trkpt lat="42.70775" lon="1.62936">
        <ele>1769.201</ele>
        <time>2021-06-13T10:06:51Z</time>
      </trkpt>
      <trkpt lat="42.70774" lon="1.62935">
        <ele>1769.267</ele>
        <time>2021-06-13T10:06:53Z</time>
      </trkpt>
      <trkpt lat="42.70774" lon="1.62935">
        <ele>1769.453</ele>
        <time>2021-06-13T10:06:55Z</time>
      </trkpt>
      <trkpt lat="42.70774" lon="1.62934">
        <ele>1769.426</ele>
        <time>2021-06-13T10:06:57Z</time>
      </trkpt>
      <trkpt lat="42.70773" lon="1.62934">
        <ele>1769.275</ele>
        <time>2021-06-13T10:06:59Z</time>
      </trkpt>
      <trkpt lat="42.70773" lon="1.62935">
        <ele>1768.291</ele>
        <time>2021-06-13T10:07:01Z</time>
      </trkpt>
      <trkpt lat="42.70773" lon="1.62935">
        <ele>1768.196</ele>
        <time>2021-06-13T10:07:03Z</time>
      </trkpt>
      <trkpt lat="42.70772" lon="1.62934">
        <ele>1767.985</ele>
        <time>2021-06-13T10:07:05Z</time>
      </trkpt>
      <trkpt lat="42.70772" lon="1.62934">
        <ele>1767.987</ele>
        <time>2021-06-13T10:07:07Z</time>
      </trkpt>
      <trkpt lat="42.70771" lon="1.62933">
        <ele>1767.244</ele>
        <time>2021-06-13T10:07:09Z</time>
      </trkpt>
      <trkpt lat="42.70771" lon="1.62933">
        <ele>1766.692</ele>
        <time>2021-06-13T10:07:11Z</time>
      </trkpt>
      <trkpt lat="42.7077" lon="1.62933">
        <ele>1765.613</ele>
        <time>2021-06-13T10:07:13Z</time>
      </trkpt>
      <trkpt lat="42.70769" lon="1.62933">
        <ele>1764.843</ele>
        <time>2021-06-13T10:07:15Z</time>
      </trkpt>
      <trkpt lat="42.70768" lon="1.62933">
        <ele>1764.162</ele>
        <time>2021-06-13T10:07:17Z</time>
      </trkpt>
      <trkpt lat="42.70768" lon="1.62934">
        <ele>1764.119</ele>
        <time>2021-06-13T10:07:19Z</time>
      </trkpt>
      <trkpt lat="42.70767" lon="1.62934">
        <ele>1764.52</ele>
        <time>2021-06-13T10:07:21Z</time>
      </trkpt>
      <trkpt lat="42.70766" lon="1.62935">
        <ele>1764.114</ele>
        <time>2021-06-13T10:07:23Z</time>
      </trkpt>
      <trkpt lat="42.70765" lon="1.62936">
        <ele>1764.008</ele>
        <time>2021-06-13T10:07:25Z</time>
      </trkpt>
      <trkpt lat="42.70765" lon="1.62936">
        <ele>1763.642</ele>
        <time>2021-06-13T10:07:27Z</time>
      </trkpt>
      <trkpt lat="42.70764" lon="1.62937">
        <ele>1762.875</ele>
        <time>2021-06-13T10:07:29Z</time>
      </trkpt>
      <trkpt lat="42.70763" lon="1.62936">
        <ele>1762.586</ele>
        <time>2021-06-13T10:07:31Z</time>
      </trkpt>
      <trkpt lat="42.70763" lon="1.62935">
        <ele>1762.174</ele>
        <time>2021-06-13T10:07:33Z</time>
      </trkpt>
      <trkpt lat="42.70763" lon="1.62935">
        <ele>1762.167</ele>
        <time>2021-06-13T10:07:35Z</time>
      </trkpt>
      <trkpt lat="42.70763" lon="1.62934">
        <ele>1761.931</ele>
        <time>2021-06-13T10:07:37Z</time>
      </trkpt>
      <trkpt lat="42.70763" lon="1.62934">
        <ele>1761.901</ele>
        <time>2021-06-13T10:07:39Z</time>
      </trkpt>
      <trkpt lat="42.70763" lon="1.62933">
        <ele>1761.6</ele>
        <time>2021-06-13T10:07:41Z</time>
      </trkpt>
      <trkpt lat="42.70763" lon="1.62931">
        <ele>1761.343</ele>
        <time>2021-06-13T10:07:43Z</time>
      </trkpt>
      <trkpt lat="42.70763" lon="1.6293">
        <ele>1760.853</ele>
        <time>2021-06-13T10:07:45Z</time>
      </trkpt>
      <trkpt lat="42.70762" lon="1.62928">
        <ele>1760.873</ele>
        <time>2021-06-13T10:07:47Z</time>
      </trkpt>
      <trkpt lat="42.70762" lon="1.62927">
        <ele>1760.25</ele>
        <time>2021-06-13T10:07:49Z</time>
      </trkpt>
      <trkpt lat="42.70761" lon="1.62928">
        <ele>1759.796</ele>
        <time>2021-06-13T10:07:51Z</time>
      </trkpt>
      <trkpt lat="42.7076" lon="1.62929">
        <ele>1759.457</ele>
        <time>2021-06-13T10:07:53Z</time>
      </trkpt>
      <trkpt lat="42.70759" lon="1.6293">
        <ele>1758.869</ele>
        <time>2021-06-13T10:07:55Z</time>
      </trkpt>
      <trkpt lat="42.70759" lon="1.6293">
        <ele>1758.364</ele>
        <time>2021-06-13T10:07:57Z</time>
      </trkpt>
      <trkpt lat="42.70758" lon="1.62931">
        <ele>1758.003</ele>
        <time>2021-06-13T10:07:59Z</time>
      </trkpt>
      <trkpt lat="42.70758" lon="1.62931">
        <ele>1757.434</ele>
        <time>2021-06-13T10:08:01Z</time>
      </trkpt>
      <trkpt lat="42.70757" lon="1.62931">
        <ele>1757.89</ele>
        <time>2021-06-13T10:08:03Z</time>
      </trkpt>
      <trkpt lat="42.70756" lon="1.62932">
        <ele>1757.426</ele>
        <time>2021-06-13T10:08:05Z</time>
      </trkpt>
      <trkpt lat="42.70756" lon="1.62932">
        <ele>1757.376</ele>
        <time>2021-06-13T10:08:07Z</time>
      </trkpt>
      <trkpt lat="42.70756" lon="1.62932">
        <ele>1757.29</ele>
        <time>2021-06-13T10:08:09Z</time>
      </trkpt>
      <trkpt lat="42.70755" lon="1.62932">
        <ele>1756.767</ele>
        <time>2021-06-13T10:08:11Z</time>
      </trkpt>
      <trkpt lat="42.70754" lon="1.62933">
        <ele>1756.685</ele>
        <time>2021-06-13T10:08:13Z</time>
      </trkpt>
      <trkpt lat="42.70754" lon="1.62935">
        <ele>1756.284</ele>
        <time>2021-06-13T10:08:15Z</time>
      </trkpt>
      <trkpt lat="42.70753" lon="1.62935">
        <ele>1756.261</ele>
        <time>2021-06-13T10:08:17Z</time>
      </trkpt>
      <trkpt lat="42.70753" lon="1.62935">
        <ele>1756.245</ele>
        <time>2021-06-13T10:08:19Z</time>
      </trkpt>
      <trkpt lat="42.70753" lon="1.62936">
        <ele>1755.648</ele>
        <time>2021-06-13T10:08:21Z</time>
      </trkpt>
      <trkpt lat="42.70753" lon="1.62937">
        <ele>1755.633</ele>
        <time>2021-06-13T10:08:23Z</time>
      </trkpt>
      <trkpt lat="42.70753" lon="1.62937">
        <ele>1755.631</ele>
        <time>2021-06-13T10:08:25Z</time>
      </trkpt>
      <trkpt lat="42.70753" lon="1.62937">
        <ele>1755.625</ele>
        <time>2021-06-13T10:08:27Z</time>
      </trkpt>
      <trkpt lat="42.70753" lon="1.62937">
        <ele>1755.492</ele>
        <time>2021-06-13T10:08:29Z</time>
      </trkpt>
      <trkpt lat="42.70753" lon="1.62938">
        <ele>1755.783</ele>
        <time>2021-06-13T10:08:31Z</time>
      </trkpt>
      <trkpt lat="42.70752" lon="1.62939">
        <ele>1755.744</ele>
        <time>2021-06-13T10:08:33Z</time>
      </trkpt>
      <trkpt lat="42.70752" lon="1.62941">
        <ele>1755.618</ele>
        <time>2021-06-13T10:08:35Z</time>
      </trkpt>
      <trkpt lat="42.70752" lon="1.62943">
        <ele>1755.734</ele>
        <time>2021-06-13T10:08:37Z</time>
      </trkpt>
      <trkpt lat="42.70751" lon="1.62944">
        <ele>1755.44</ele>
        <time>2021-06-13T10:08:39Z</time>
      </trkpt>
      <trkpt lat="42.7075" lon="1.62945">
        <ele>1755.647</ele>
        <time>2021-06-13T10:08:41Z</time>
      </trkpt>
      <trkpt lat="42.7075" lon="1.62947">
        <ele>1755.828</ele>
        <time>2021-06-13T10:08:43Z</time>
      </trkpt>
      <trkpt lat="42.7075" lon="1.62948">
        <ele>1755.716</ele>
        <time>2021-06-13T10:08:45Z</time>
      </trkpt>
      <trkpt lat="42.70749" lon="1.62949">
        <ele>1755.767</ele>
        <time>2021-06-13T10:08:47Z</time>
      </trkpt>
      <trkpt lat="42.70749" lon="1.6295">
        <ele>1755.578</ele>
        <time>2021-06-13T10:08:49Z</time>
      </trkpt>
      <trkpt lat="42.70748" lon="1.62951">
        <ele>1754.691</ele>
        <time>2021-06-13T10:08:51Z</time>
      </trkpt>
      <trkpt lat="42.70747" lon="1.62952">
        <ele>1754.321</ele>
        <time>2021-06-13T10:08:53Z</time>
      </trkpt>
      <trkpt lat="42.70746" lon="1.62954">
        <ele>1754.037</ele>
        <time>2021-06-13T10:08:55Z</time>
      </trkpt>
      <trkpt lat="42.70745" lon="1.62955">
        <ele>1753.576</ele>
        <time>2021-06-13T10:08:57Z</time>
      </trkpt>
      <trkpt lat="42.70744" lon="1.62956">
        <ele>1753.022</ele>
        <time>2021-06-13T10:08:59Z</time>
      </trkpt>
      <trkpt lat="42.70743" lon="1.62957">
        <ele>1752.213</ele>
        <time>2021-06-13T10:09:01Z</time>
      </trkpt>
      <trkpt lat="42.70742" lon="1.62958">
        <ele>1752.072</ele>
        <time>2021-06-13T10:09:03Z</time>
      </trkpt>
      <trkpt lat="42.70742" lon="1.6296">
        <ele>1751.936</ele>
        <time>2021-06-13T10:09:05Z</time>
      </trkpt>
      <trkpt lat="42.70741" lon="1.62961">
        <ele>1752.027</ele>
        <time>2021-06-13T10:09:07Z</time>
      </trkpt>
      <trkpt lat="42.70741" lon="1.62962">
        <ele>1751.686</ele>
        <time>2021-06-13T10:09:09Z</time>
      </trkpt>
      <trkpt lat="42.7074" lon="1.62963">
        <ele>1751.293</ele>
        <time>2021-06-13T10:09:11Z</time>
      </trkpt>
      <trkpt lat="42.70739" lon="1.62964">
        <ele>1750.678</ele>
        <time>2021-06-13T10:09:13Z</time>
      </trkpt>
      <trkpt lat="42.70738" lon="1.62964">
        <ele>1750.552</ele>
        <time>2021-06-13T10:09:15Z</time>
      </trkpt>
      <trkpt lat="42.70737" lon="1.62964">
        <ele>1750.045</ele>
        <time>2021-06-13T10:09:17Z</time>
      </trkpt>
      <trkpt lat="42.70737" lon="1.62964">
        <ele>1749.543</ele>
        <time>2021-06-13T10:09:19Z</time>
      </trkpt>
      <trkpt lat="42.70736" lon="1.62964">
        <ele>1748.715</ele>
        <time>2021-06-13T10:09:21Z</time>
      </trkpt>
      <trkpt lat="42.70736" lon="1.62964">
        <ele>1748.546</ele>
        <time>2021-06-13T10:09:23Z</time>
      </trkpt>
      <trkpt lat="42.70735" lon="1.62963">
        <ele>1748.077</ele>
        <time>2021-06-13T10:09:25Z</time>
      </trkpt>
      <trkpt lat="42.70735" lon="1.62964">
        <ele>1747.405</ele>
        <time>2021-06-13T10:09:27Z</time>
      </trkpt>
      <trkpt lat="42.70734" lon="1.62963">
        <ele>1746.923</ele>
        <time>2021-06-13T10:09:29Z</time>
      </trkpt>
      <trkpt lat="42.70733" lon="1.62963">
        <ele>1746.36</ele>
        <time>2021-06-13T10:09:31Z</time>
      </trkpt>
      <trkpt lat="42.70732" lon="1.62963">
        <ele>1745.837</ele>
        <time>2021-06-13T10:09:33Z</time>
      </trkpt>
      <trkpt lat="42.70731" lon="1.62963">
        <ele>1745.105</ele>
        <time>2021-06-13T10:09:35Z</time>
      </trkpt>
      <trkpt lat="42.7073" lon="1.62964">
        <ele>1744.264</ele>
        <time>2021-06-13T10:09:37Z</time>
      </trkpt>
      <trkpt lat="42.70729" lon="1.62965">
        <ele>1743.405</ele>
        <time>2021-06-13T10:09:39Z</time>
      </trkpt>
      <trkpt lat="42.70728" lon="1.62966">
        <ele>1742.805</ele>
        <time>2021-06-13T10:09:41Z</time>
      </trkpt>
      <trkpt lat="42.70728" lon="1.62966">
        <ele>1742.551</ele>
        <time>2021-06-13T10:09:43Z</time>
      </trkpt>
      <trkpt lat="42.70728" lon="1.62966">
        <ele>1742.436</ele>
        <time>2021-06-13T10:09:45Z</time>
      </trkpt>
      <trkpt lat="42.70727" lon="1.62966">
        <ele>1742.143</ele>
        <time>2021-06-13T10:09:47Z</time>
      </trkpt>
      <trkpt lat="42.70726" lon="1.62967">
        <ele>1741.513</ele>
        <time>2021-06-13T10:09:49Z</time>
      </trkpt>
      <trkpt lat="42.70725" lon="1.62968">
        <ele>1741.396</ele>
        <time>2021-06-13T10:09:51Z</time>
      </trkpt>
      <trkpt lat="42.70724" lon="1.62969">
        <ele>1741.225</ele>
        <time>2021-06-13T10:09:53Z</time>
      </trkpt>
      <trkpt lat="42.70722" lon="1.6297">
        <ele>1740.479</ele>
        <time>2021-06-13T10:09:55Z</time>
      </trkpt>
      <trkpt lat="42.70722" lon="1.62971">
        <ele>1740.015</ele>
        <time>2021-06-13T10:09:57Z</time>
      </trkpt>
      <trkpt lat="42.70721" lon="1.62972">
        <ele>1739.923</ele>
        <time>2021-06-13T10:09:59Z</time>
      </trkpt>
      <trkpt lat="42.7072" lon="1.62971">
        <ele>1739.586</ele>
        <time>2021-06-13T10:10:01Z</time>
      </trkpt>
      <trkpt lat="42.70719" lon="1.62971">
        <ele>1739.063</ele>
        <time>2021-06-13T10:10:03Z</time>
      </trkpt>
      <trkpt lat="42.70719" lon="1.6297">
        <ele>1738.301</ele>
        <time>2021-06-13T10:10:05Z</time>
      </trkpt>
      <trkpt lat="42.70718" lon="1.62969">
        <ele>1737.69</ele>
        <time>2021-06-13T10:10:07Z</time>
      </trkpt>
      <trkpt lat="42.70717" lon="1.62967">
        <ele>1737.194</ele>
        <time>2021-06-13T10:10:09Z</time>
      </trkpt>
      <trkpt lat="42.70716" lon="1.62967">
        <ele>1736.484</ele>
        <time>2021-06-13T10:10:11Z</time>
      </trkpt>
      <trkpt lat="42.70715" lon="1.62967">
        <ele>1735.692</ele>
        <time>2021-06-13T10:10:13Z</time>
      </trkpt>
      <trkpt lat="42.70714" lon="1.62968">
        <ele>1734.915</ele>
        <time>2021-06-13T10:10:15Z</time>
      </trkpt>
      <trkpt lat="42.70713" lon="1.62969">
        <ele>1734.696</ele>
        <time>2021-06-13T10:10:17Z</time>
      </trkpt>
      <trkpt lat="42.70712" lon="1.6297">
        <ele>1734.084</ele>
        <time>2021-06-13T10:10:19Z</time>
      </trkpt>
      <trkpt lat="42.70712" lon="1.62971">
        <ele>1733.511</ele>
        <time>2021-06-13T10:10:21Z</time>
      </trkpt>
      <trkpt lat="42.70711" lon="1.62971">
        <ele>1733.1</ele>
        <time>2021-06-13T10:10:23Z</time>
      </trkpt>
      <trkpt lat="42.7071" lon="1.6297">
        <ele>1732.499</ele>
        <time>2021-06-13T10:10:25Z</time>
      </trkpt>
      <trkpt lat="42.7071" lon="1.62969">
        <ele>1731.877</ele>
        <time>2021-06-13T10:10:27Z</time>
      </trkpt>
      <trkpt lat="42.70709" lon="1.62968">
        <ele>1731.203</ele>
        <time>2021-06-13T10:10:29Z</time>
      </trkpt>
      <trkpt lat="42.70708" lon="1.62967">
        <ele>1730.957</ele>
        <time>2021-06-13T10:10:31Z</time>
      </trkpt>
      <trkpt lat="42.70707" lon="1.62967">
        <ele>1730.512</ele>
        <time>2021-06-13T10:10:33Z</time>
      </trkpt>
      <trkpt lat="42.70706" lon="1.62968">
        <ele>1730.408</ele>
        <time>2021-06-13T10:10:35Z</time>
      </trkpt>
      <trkpt lat="42.70705" lon="1.62968">
        <ele>1729.807</ele>
        <time>2021-06-13T10:10:37Z</time>
      </trkpt>
      <trkpt lat="42.70704" lon="1.62969">
        <ele>1729.225</ele>
        <time>2021-06-13T10:10:39Z</time>
      </trkpt>
      <trkpt lat="42.70704" lon="1.6297">
        <ele>1728.768</ele>
        <time>2021-06-13T10:10:41Z</time>
      </trkpt>
      <trkpt lat="42.70704" lon="1.62971">
        <ele>1728.644</ele>
        <time>2021-06-13T10:10:43Z</time>
      </trkpt>
      <trkpt lat="42.70703" lon="1.62972">
        <ele>1728.199</ele>
        <time>2021-06-13T10:10:45Z</time>
      </trkpt>
      <trkpt lat="42.70703" lon="1.62972">
        <ele>1727.651</ele>
        <time>2021-06-13T10:10:47Z</time>
      </trkpt>
      <trkpt lat="42.70702" lon="1.62972">
        <ele>1727.372</ele>
        <time>2021-06-13T10:10:49Z</time>
      </trkpt>
      <trkpt lat="42.70702" lon="1.62972">
        <ele>1727.356</ele>
        <time>2021-06-13T10:10:51Z</time>
      </trkpt>
      <trkpt lat="42.70701" lon="1.62972">
        <ele>1727.31</ele>
        <time>2021-06-13T10:10:53Z</time>
      </trkpt>
      <trkpt lat="42.70701" lon="1.62971">
        <ele>1727.024</ele>
        <time>2021-06-13T10:10:55Z</time>
      </trkpt>
      <trkpt lat="42.707" lon="1.62971">
        <ele>1726.378</ele>
        <time>2021-06-13T10:10:57Z</time>
      </trkpt>
      <trkpt lat="42.707" lon="1.62971">
        <ele>1725.748</ele>
        <time>2021-06-13T10:10:59Z</time>
      </trkpt>
      <trkpt lat="42.70699" lon="1.6297">
        <ele>1725.211</ele>
        <time>2021-06-13T10:11:01Z</time>
      </trkpt>
      <trkpt lat="42.70698" lon="1.62969">
        <ele>1724.746</ele>
        <time>2021-06-13T10:11:03Z</time>
      </trkpt>
      <trkpt lat="42.70697" lon="1.6297">
        <ele>1724.419</ele>
        <time>2021-06-13T10:11:05Z</time>
      </trkpt>
      <trkpt lat="42.70697" lon="1.6297">
        <ele>1723.435</ele>
        <time>2021-06-13T10:11:07Z</time>
      </trkpt>
      <trkpt lat="42.70696" lon="1.6297">
        <ele>1723.083</ele>
        <time>2021-06-13T10:11:09Z</time>
      </trkpt>
      <trkpt lat="42.70695" lon="1.6297">
        <ele>1723.136</ele>
        <time>2021-06-13T10:11:11Z</time>
      </trkpt>
      <trkpt lat="42.70694" lon="1.6297">
        <ele>1722.815</ele>
        <time>2021-06-13T10:11:13Z</time>
      </trkpt>
      <trkpt lat="42.70693" lon="1.62969">
        <ele>1722.814</ele>
        <time>2021-06-13T10:11:15Z</time>
      </trkpt>
      <trkpt lat="42.70693" lon="1.62968">
        <ele>1722.704</ele>
        <time>2021-06-13T10:11:17Z</time>
      </trkpt>
      <trkpt lat="42.70692" lon="1.62966">
        <ele>1722.78</ele>
        <time>2021-06-13T10:11:19Z</time>
      </trkpt>
      <trkpt lat="42.70691" lon="1.62965">
        <ele>1722.534</ele>
        <time>2021-06-13T10:11:21Z</time>
      </trkpt>
      <trkpt lat="42.7069" lon="1.62964">
        <ele>1721.876</ele>
        <time>2021-06-13T10:11:23Z</time>
      </trkpt>
      <trkpt lat="42.70688" lon="1.62963">
        <ele>1721.846</ele>
        <time>2021-06-13T10:11:25Z</time>
      </trkpt>
      <trkpt lat="42.70687" lon="1.62961">
        <ele>1721.528</ele>
        <time>2021-06-13T10:11:27Z</time>
      </trkpt>
      <trkpt lat="42.70686" lon="1.6296">
        <ele>1721.104</ele>
        <time>2021-06-13T10:11:29Z</time>
      </trkpt>
      <trkpt lat="42.70684" lon="1.6296">
        <ele>1720.26</ele>
        <time>2021-06-13T10:11:31Z</time>
      </trkpt>
      <trkpt lat="42.70683" lon="1.62959">
        <ele>1720.635</ele>
        <time>2021-06-13T10:11:33Z</time>
      </trkpt>
      <trkpt lat="42.70682" lon="1.62959">
        <ele>1720.04</ele>
        <time>2021-06-13T10:11:35Z</time>
      </trkpt>
      <trkpt lat="42.70681" lon="1.62959">
        <ele>1719.482</ele>
        <time>2021-06-13T10:11:37Z</time>
      </trkpt>
      <trkpt lat="42.7068" lon="1.62958">
        <ele>1719.122</ele>
        <time>2021-06-13T10:11:39Z</time>
      </trkpt>
      <trkpt lat="42.70679" lon="1.62957">
        <ele>1718.388</ele>
        <time>2021-06-13T10:11:41Z</time>
      </trkpt>
      <trkpt lat="42.70678" lon="1.62956">
        <ele>1718.327</ele>
        <time>2021-06-13T10:11:43Z</time>
      </trkpt>
      <trkpt lat="42.70677" lon="1.62956">
        <ele>1718.343</ele>
        <time>2021-06-13T10:11:45Z</time>
      </trkpt>
      <trkpt lat="42.70677" lon="1.62956">
        <ele>1718.339</ele>
        <time>2021-06-13T10:11:47Z</time>
      </trkpt>
      <trkpt lat="42.70677" lon="1.62956">
        <ele>1718.334</ele>
        <time>2021-06-13T10:11:49Z</time>
      </trkpt>
      <trkpt lat="42.70677" lon="1.62956">
        <ele>1717.811</ele>
        <time>2021-06-13T10:11:51Z</time>
      </trkpt>
      <trkpt lat="42.70676" lon="1.62956">
        <ele>1717.598</ele>
        <time>2021-06-13T10:11:53Z</time>
      </trkpt>
      <trkpt lat="42.70675" lon="1.62956">
        <ele>1716.929</ele>
        <time>2021-06-13T10:11:55Z</time>
      </trkpt>
      <trkpt lat="42.70674" lon="1.62955">
        <ele>1716.299</ele>
        <time>2021-06-13T10:11:57Z</time>
      </trkpt>
      <trkpt lat="42.70673" lon="1.62955">
        <ele>1715.786</ele>
        <time>2021-06-13T10:11:59Z</time>
      </trkpt>
      <trkpt lat="42.70672" lon="1.62955">
        <ele>1714.992</ele>
        <time>2021-06-13T10:12:01Z</time>
      </trkpt>
      <trkpt lat="42.7067" lon="1.62954">
        <ele>1714.143</ele>
        <time>2021-06-13T10:12:03Z</time>
      </trkpt>
      <trkpt lat="42.7067" lon="1.62954">
        <ele>1714.112</ele>
        <time>2021-06-13T10:12:05Z</time>
      </trkpt>
      <trkpt lat="42.70669" lon="1.62953">
        <ele>1713.293</ele>
        <time>2021-06-13T10:12:07Z</time>
      </trkpt>
      <trkpt lat="42.70668" lon="1.62953">
        <ele>1712.607</ele>
        <time>2021-06-13T10:12:09Z</time>
      </trkpt>
      <trkpt lat="42.70667" lon="1.62953">
        <ele>1712.308</ele>
        <time>2021-06-13T10:12:11Z</time>
      </trkpt>
      <trkpt lat="42.70666" lon="1.62952">
        <ele>1711.054</ele>
        <time>2021-06-13T10:12:13Z</time>
      </trkpt>
      <trkpt lat="42.70664" lon="1.62953">
        <ele>1710.706</ele>
        <time>2021-06-13T10:12:15Z</time>
      </trkpt>
      <trkpt lat="42.70663" lon="1.62953">
        <ele>1710.243</ele>
        <time>2021-06-13T10:12:17Z</time>
      </trkpt>
      <trkpt lat="42.70661" lon="1.62953">
        <ele>1710.108</ele>
        <time>2021-06-13T10:12:19Z</time>
      </trkpt>
      <trkpt lat="42.7066" lon="1.62954">
        <ele>1710.178</ele>
        <time>2021-06-13T10:12:21Z</time>
      </trkpt>
      <trkpt lat="42.70658" lon="1.62955">
        <ele>1710.043</ele>
        <time>2021-06-13T10:12:23Z</time>
      </trkpt>
      <trkpt lat="42.70657" lon="1.62956">
        <ele>1709.62</ele>
        <time>2021-06-13T10:12:25Z</time>
      </trkpt>
      <trkpt lat="42.70655" lon="1.62957">
        <ele>1709.497</ele>
        <time>2021-06-13T10:12:27Z</time>
      </trkpt>
      <trkpt lat="42.70654" lon="1.62959">
        <ele>1708.711</ele>
        <time>2021-06-13T10:12:29Z</time>
      </trkpt>
      <trkpt lat="42.70653" lon="1.6296">
        <ele>1708.05</ele>
        <time>2021-06-13T10:12:31Z</time>
      </trkpt>
      <trkpt lat="42.70651" lon="1.62962">
        <ele>1707.303</ele>
        <time>2021-06-13T10:12:33Z</time>
      </trkpt>
      <trkpt lat="42.7065" lon="1.62963">
        <ele>1707.673</ele>
        <time>2021-06-13T10:12:35Z</time>
      </trkpt>
      <trkpt lat="42.70649" lon="1.62965">
        <ele>1706.737</ele>
        <time>2021-06-13T10:12:37Z</time>
      </trkpt>
      <trkpt lat="42.70648" lon="1.62966">
        <ele>1706.371</ele>
        <time>2021-06-13T10:12:39Z</time>
      </trkpt>
      <trkpt lat="42.70647" lon="1.62966">
        <ele>1705.681</ele>
        <time>2021-06-13T10:12:41Z</time>
      </trkpt>
      <trkpt lat="42.70646" lon="1.62968">
        <ele>1705.653</ele>
        <time>2021-06-13T10:12:43Z</time>
      </trkpt>
      <trkpt lat="42.70646" lon="1.62969">
        <ele>1705.835</ele>
        <time>2021-06-13T10:12:45Z</time>
      </trkpt>
      <trkpt lat="42.70645" lon="1.6297">
        <ele>1706.039</ele>
        <time>2021-06-13T10:12:47Z</time>
      </trkpt>
      <trkpt lat="42.70646" lon="1.62969">
        <ele>1706.045</ele>
        <time>2021-06-13T10:12:49Z</time>
      </trkpt>
      <trkpt lat="42.70645" lon="1.62968">
        <ele>1705.643</ele>
        <time>2021-06-13T10:12:51Z</time>
      </trkpt>
      <trkpt lat="42.70646" lon="1.62968">
        <ele>1705.632</ele>
        <time>2021-06-13T10:12:53Z</time>
      </trkpt>
      <trkpt lat="42.70646" lon="1.62967">
        <ele>1705.088</ele>
        <time>2021-06-13T10:12:55Z</time>
      </trkpt>
      <trkpt lat="42.70646" lon="1.62965">
        <ele>1704.743</ele>
        <time>2021-06-13T10:12:57Z</time>
      </trkpt>
      <trkpt lat="42.70646" lon="1.62962">
        <ele>1705.183</ele>
        <time>2021-06-13T10:12:59Z</time>
      </trkpt>
      <trkpt lat="42.70646" lon="1.6296">
        <ele>1704.832</ele>
        <time>2021-06-13T10:13:01Z</time>
      </trkpt>
      <trkpt lat="42.70645" lon="1.62958">
        <ele>1704.528</ele>
        <time>2021-06-13T10:13:03Z</time>
      </trkpt>
      <trkpt lat="42.70644" lon="1.62957">
        <ele>1703.771</ele>
        <time>2021-06-13T10:13:05Z</time>
      </trkpt>
      <trkpt lat="42.70643" lon="1.62957">
        <ele>1702.703</ele>
        <time>2021-06-13T10:13:07Z</time>
      </trkpt>
      <trkpt lat="42.70642" lon="1.62956">
        <ele>1701.957</ele>
        <time>2021-06-13T10:13:09Z</time>
      </trkpt>
      <trkpt lat="42.70641" lon="1.62955">
        <ele>1701.787</ele>
        <time>2021-06-13T10:13:11Z</time>
      </trkpt>
      <trkpt lat="42.7064" lon="1.62953">
        <ele>1701.35</ele>
        <time>2021-06-13T10:13:13Z</time>
      </trkpt>
      <trkpt lat="42.7064" lon="1.62951">
        <ele>1701.363</ele>
        <time>2021-06-13T10:13:15Z</time>
      </trkpt>
      <trkpt lat="42.70639" lon="1.62949">
        <ele>1701.048</ele>
        <time>2021-06-13T10:13:17Z</time>
      </trkpt>
      <trkpt lat="42.70638" lon="1.62947">
        <ele>1700.467</ele>
        <time>2021-06-13T10:13:19Z</time>
      </trkpt>
      <trkpt lat="42.70638" lon="1.62946">
        <ele>1700.36</ele>
        <time>2021-06-13T10:13:21Z</time>
      </trkpt>
      <trkpt lat="42.70638" lon="1.62944">
        <ele>1699.824</ele>
        <time>2021-06-13T10:13:23Z</time>
      </trkpt>
      <trkpt lat="42.70637" lon="1.62943">
        <ele>1698.777</ele>
        <time>2021-06-13T10:13:25Z</time>
      </trkpt>
      <trkpt lat="42.70636" lon="1.62943">
        <ele>1698.254</ele>
        <time>2021-06-13T10:13:27Z</time>
      </trkpt>
      <trkpt lat="42.70635" lon="1.62943">
        <ele>1697.607</ele>
        <time>2021-06-13T10:13:29Z</time>
      </trkpt>
      <trkpt lat="42.70635" lon="1.62942">
        <ele>1697.553</ele>
        <time>2021-06-13T10:13:31Z</time>
      </trkpt>
      <trkpt lat="42.70634" lon="1.62939">
        <ele>1697.46</ele>
        <time>2021-06-13T10:13:33Z</time>
      </trkpt>
      <trkpt lat="42.70633" lon="1.62938">
        <ele>1697.063</ele>
        <time>2021-06-13T10:13:35Z</time>
      </trkpt>
      <trkpt lat="42.70633" lon="1.62937">
        <ele>1696.701</ele>
        <time>2021-06-13T10:13:37Z</time>
      </trkpt>
      <trkpt lat="42.70632" lon="1.62937">
        <ele>1695.964</ele>
        <time>2021-06-13T10:13:39Z</time>
      </trkpt>
      <trkpt lat="42.70632" lon="1.62936">
        <ele>1695.372</ele>
        <time>2021-06-13T10:13:41Z</time>
      </trkpt>
      <trkpt lat="42.70631" lon="1.62937">
        <ele>1695.266</ele>
        <time>2021-06-13T10:13:43Z</time>
      </trkpt>
      <trkpt lat="42.70631" lon="1.62937">
        <ele>1694.787</ele>
        <time>2021-06-13T10:13:45Z</time>
      </trkpt>
      <trkpt lat="42.7063" lon="1.62937">
        <ele>1694.551</ele>
        <time>2021-06-13T10:13:47Z</time>
      </trkpt>
      <trkpt lat="42.70629" lon="1.62936">
        <ele>1694.335</ele>
        <time>2021-06-13T10:13:49Z</time>
      </trkpt>
      <trkpt lat="42.70628" lon="1.62935">
        <ele>1693.759</ele>
        <time>2021-06-13T10:13:51Z</time>
      </trkpt>
      <trkpt lat="42.70627" lon="1.62934">
        <ele>1693.116</ele>
        <time>2021-06-13T10:13:53Z</time>
      </trkpt>
      <trkpt lat="42.70626" lon="1.62934">
        <ele>1693.152</ele>
        <time>2021-06-13T10:13:55Z</time>
      </trkpt>
      <trkpt lat="42.70624" lon="1.62934">
        <ele>1692.332</ele>
        <time>2021-06-13T10:13:57Z</time>
      </trkpt>
      <trkpt lat="42.70623" lon="1.62933">
        <ele>1692.651</ele>
        <time>2021-06-13T10:13:59Z</time>
      </trkpt>
      <trkpt lat="42.70622" lon="1.62931">
        <ele>1691.921</ele>
        <time>2021-06-13T10:14:01Z</time>
      </trkpt>
      <trkpt lat="42.7062" lon="1.6293">
        <ele>1692.317</ele>
        <time>2021-06-13T10:14:03Z</time>
      </trkpt>
      <trkpt lat="42.7062" lon="1.62928">
        <ele>1691.872</ele>
        <time>2021-06-13T10:14:05Z</time>
      </trkpt>
      <trkpt lat="42.7062" lon="1.62926">
        <ele>1692.452</ele>
        <time>2021-06-13T10:14:07Z</time>
      </trkpt>
      <trkpt lat="42.7062" lon="1.62925">
        <ele>1691.307</ele>
        <time>2021-06-13T10:14:09Z</time>
      </trkpt>
      <trkpt lat="42.7062" lon="1.62922">
        <ele>1691.39</ele>
        <time>2021-06-13T10:14:11Z</time>
      </trkpt>
      <trkpt lat="42.7062" lon="1.6292">
        <ele>1690.949</ele>
        <time>2021-06-13T10:14:13Z</time>
      </trkpt>
      <trkpt lat="42.70619" lon="1.62919">
        <ele>1690.873</ele>
        <time>2021-06-13T10:14:15Z</time>
      </trkpt>
      <trkpt lat="42.70618" lon="1.62919">
        <ele>1690.771</ele>
        <time>2021-06-13T10:14:17Z</time>
      </trkpt>
      <trkpt lat="42.70617" lon="1.62919">
        <ele>1690.591</ele>
        <time>2021-06-13T10:14:19Z</time>
      </trkpt>
      <trkpt lat="42.70616" lon="1.62918">
        <ele>1690.284</ele>
        <time>2021-06-13T10:14:21Z</time>
      </trkpt>
      <trkpt lat="42.70615" lon="1.62918">
        <ele>1689.886</ele>
        <time>2021-06-13T10:14:23Z</time>
      </trkpt>
      <trkpt lat="42.70614" lon="1.62918">
        <ele>1689.849</ele>
        <time>2021-06-13T10:14:25Z</time>
      </trkpt>
      <trkpt lat="42.70614" lon="1.62917">
        <ele>1689.334</ele>
        <time>2021-06-13T10:14:27Z</time>
      </trkpt>
      <trkpt lat="42.70613" lon="1.62914">
        <ele>1689.159</ele>
        <time>2021-06-13T10:14:29Z</time>
      </trkpt>
      <trkpt lat="42.70612" lon="1.62911">
        <ele>1689.592</ele>
        <time>2021-06-13T10:14:31Z</time>
      </trkpt>
      <trkpt lat="42.70611" lon="1.6291">
        <ele>1689.37</ele>
        <time>2021-06-13T10:14:33Z</time>
      </trkpt>
      <trkpt lat="42.70609" lon="1.62911">
        <ele>1688.809</ele>
        <time>2021-06-13T10:14:35Z</time>
      </trkpt>
      <trkpt lat="42.70606" lon="1.62913">
        <ele>1688.363</ele>
        <time>2021-06-13T10:14:37Z</time>
      </trkpt>
      <trkpt lat="42.70604" lon="1.62914">
        <ele>1688.265</ele>
        <time>2021-06-13T10:14:39Z</time>
      </trkpt>
      <trkpt lat="42.70602" lon="1.62915">
        <ele>1687.948</ele>
        <time>2021-06-13T10:14:41Z</time>
      </trkpt>
      <trkpt lat="42.70601" lon="1.62916">
        <ele>1687.566</ele>
        <time>2021-06-13T10:14:43Z</time>
      </trkpt>
      <trkpt lat="42.70599" lon="1.62916">
        <ele>1687.568</ele>
        <time>2021-06-13T10:14:45Z</time>
      </trkpt>
      <trkpt lat="42.70597" lon="1.62916">
        <ele>1687.384</ele>
        <time>2021-06-13T10:14:47Z</time>
      </trkpt>
      <trkpt lat="42.70594" lon="1.62916">
        <ele>1686.781</ele>
        <time>2021-06-13T10:14:49Z</time>
      </trkpt>
      <trkpt lat="42.70592" lon="1.62918">
        <ele>1686.464</ele>
        <time>2021-06-13T10:14:51Z</time>
      </trkpt>
      <trkpt lat="42.7059" lon="1.62919">
        <ele>1685.748</ele>
        <time>2021-06-13T10:14:53Z</time>
      </trkpt>
      <trkpt lat="42.70588" lon="1.6292">
        <ele>1685.483</ele>
        <time>2021-06-13T10:14:55Z</time>
      </trkpt>
      <trkpt lat="42.70586" lon="1.62921">
        <ele>1684.895</ele>
        <time>2021-06-13T10:14:57Z</time>
      </trkpt>
      <trkpt lat="42.70584" lon="1.62922">
        <ele>1684.211</ele>
        <time>2021-06-13T10:14:59Z</time>
      </trkpt>
      <trkpt lat="42.70582" lon="1.62923">
        <ele>1683.849</ele>
        <time>2021-06-13T10:15:01Z</time>
      </trkpt>
      <trkpt lat="42.70581" lon="1.62925">
        <ele>1683.542</ele>
        <time>2021-06-13T10:15:03Z</time>
      </trkpt>
      <trkpt lat="42.70579" lon="1.62927">
        <ele>1682.71</ele>
        <time>2021-06-13T10:15:05Z</time>
      </trkpt>
      <trkpt lat="42.70577" lon="1.62928">
        <ele>1681.931</ele>
        <time>2021-06-13T10:15:07Z</time>
      </trkpt>
      <trkpt lat="42.70575" lon="1.6293">
        <ele>1681.377</ele>
        <time>2021-06-13T10:15:09Z</time>
      </trkpt>
      <trkpt lat="42.70573" lon="1.62931">
        <ele>1680.666</ele>
        <time>2021-06-13T10:15:11Z</time>
      </trkpt>
      <trkpt lat="42.70571" lon="1.62931">
        <ele>1680.156</ele>
        <time>2021-06-13T10:15:13Z</time>
      </trkpt>
      <trkpt lat="42.70569" lon="1.62931">
        <ele>1679.894</ele>
        <time>2021-06-13T10:15:15Z</time>
      </trkpt>
      <trkpt lat="42.70567" lon="1.62931">
        <ele>1679.521</ele>
        <time>2021-06-13T10:15:17Z</time>
      </trkpt>
      <trkpt lat="42.70565" lon="1.6293">
        <ele>1679.359</ele>
        <time>2021-06-13T10:15:19Z</time>
      </trkpt>
      <trkpt lat="42.70564" lon="1.62931">
        <ele>1679.098</ele>
        <time>2021-06-13T10:15:21Z</time>
      </trkpt>
      <trkpt lat="42.70563" lon="1.62931">
        <ele>1678.683</ele>
        <time>2021-06-13T10:15:23Z</time>
      </trkpt>
      <trkpt lat="42.70562" lon="1.62931">
        <ele>1677.988</ele>
        <time>2021-06-13T10:15:25Z</time>
      </trkpt>
      <trkpt lat="42.70562" lon="1.6293">
        <ele>1678.056</ele>
        <time>2021-06-13T10:15:27Z</time>
      </trkpt>
      <trkpt lat="42.70562" lon="1.6293">
        <ele>1678.025</ele>
        <time>2021-06-13T10:15:29Z</time>
      </trkpt>
      <trkpt lat="42.70561" lon="1.6293">
        <ele>1677.921</ele>
        <time>2021-06-13T10:15:31Z</time>
      </trkpt>
      <trkpt lat="42.7056" lon="1.62929">
        <ele>1677.711</ele>
        <time>2021-06-13T10:15:33Z</time>
      </trkpt>
      <trkpt lat="42.70558" lon="1.62929">
        <ele>1676.968</ele>
        <time>2021-06-13T10:15:35Z</time>
      </trkpt>
      <trkpt lat="42.70557" lon="1.62929">
        <ele>1676.901</ele>
        <time>2021-06-13T10:15:37Z</time>
      </trkpt>
      <trkpt lat="42.70557" lon="1.62929">
        <ele>1676.837</ele>
        <time>2021-06-13T10:15:39Z</time>
      </trkpt>
      <trkpt lat="42.70557" lon="1.62929">
        <ele>1676.842</ele>
        <time>2021-06-13T10:15:41Z</time>
      </trkpt>
      <trkpt lat="42.70557" lon="1.62929">
        <ele>1676.839</ele>
        <time>2021-06-13T10:15:43Z</time>
      </trkpt>
      <trkpt lat="42.70557" lon="1.62929">
        <ele>1676.838</ele>
        <time>2021-06-13T10:15:45Z</time>
      </trkpt>
      <trkpt lat="42.70556" lon="1.62929">
        <ele>1676.49</ele>
        <time>2021-06-13T10:15:47Z</time>
      </trkpt>
      <trkpt lat="42.70555" lon="1.6293">
        <ele>1676.209</ele>
        <time>2021-06-13T10:15:49Z</time>
      </trkpt>
      <trkpt lat="42.70554" lon="1.6293">
        <ele>1676.247</ele>
        <time>2021-06-13T10:15:51Z</time>
      </trkpt>
      <trkpt lat="42.70553" lon="1.6293">
        <ele>1676.164</ele>
        <time>2021-06-13T10:15:53Z</time>
      </trkpt>
      <trkpt lat="42.70551" lon="1.62931">
        <ele>1675.763</ele>
        <time>2021-06-13T10:15:55Z</time>
      </trkpt>
      <trkpt lat="42.7055" lon="1.62932">
        <ele>1674.822</ele>
        <time>2021-06-13T10:15:57Z</time>
      </trkpt>
      <trkpt lat="42.70549" lon="1.62933">
        <ele>1674.572</ele>
        <time>2021-06-13T10:15:59Z</time>
      </trkpt>
      <trkpt lat="42.70548" lon="1.62933">
        <ele>1674.088</ele>
        <time>2021-06-13T10:16:01Z</time>
      </trkpt>
      <trkpt lat="42.70546" lon="1.62933">
        <ele>1673.697</ele>
        <time>2021-06-13T10:16:03Z</time>
      </trkpt>
      <trkpt lat="42.70544" lon="1.62932">
        <ele>1673.453</ele>
        <time>2021-06-13T10:16:05Z</time>
      </trkpt>
      <trkpt lat="42.70543" lon="1.6293">
        <ele>1672.56</ele>
        <time>2021-06-13T10:16:07Z</time>
      </trkpt>
      <trkpt lat="42.70542" lon="1.62928">
        <ele>1672.297</ele>
        <time>2021-06-13T10:16:09Z</time>
      </trkpt>
      <trkpt lat="42.70541" lon="1.62927">
        <ele>1672.156</ele>
        <time>2021-06-13T10:16:11Z</time>
      </trkpt>
      <trkpt lat="42.7054" lon="1.62925">
        <ele>1672.376</ele>
        <time>2021-06-13T10:16:13Z</time>
      </trkpt>
      <trkpt lat="42.70539" lon="1.62924">
        <ele>1671.797</ele>
        <time>2021-06-13T10:16:15Z</time>
      </trkpt>
      <trkpt lat="42.70537" lon="1.62924">
        <ele>1671.059</ele>
        <time>2021-06-13T10:16:17Z</time>
      </trkpt>
      <trkpt lat="42.70535" lon="1.62924">
        <ele>1670.583</ele>
        <time>2021-06-13T10:16:19Z</time>
      </trkpt>
      <trkpt lat="42.70533" lon="1.62923">
        <ele>1670.474</ele>
        <time>2021-06-13T10:16:21Z</time>
      </trkpt>
      <trkpt lat="42.70532" lon="1.62922">
        <ele>1670.203</ele>
        <time>2021-06-13T10:16:23Z</time>
      </trkpt>
      <trkpt lat="42.7053" lon="1.6292">
        <ele>1670.961</ele>
        <time>2021-06-13T10:16:25Z</time>
      </trkpt>
      <trkpt lat="42.70528" lon="1.62919">
        <ele>1670.79</ele>
        <time>2021-06-13T10:16:27Z</time>
      </trkpt>
      <trkpt lat="42.70527" lon="1.62918">
        <ele>1670.589</ele>
        <time>2021-06-13T10:16:29Z</time>
      </trkpt>
      <trkpt lat="42.70525" lon="1.62918">
        <ele>1669.953</ele>
        <time>2021-06-13T10:16:31Z</time>
      </trkpt>
      <trkpt lat="42.70523" lon="1.62918">
        <ele>1670.033</ele>
        <time>2021-06-13T10:16:33Z</time>
      </trkpt>
      <trkpt lat="42.70522" lon="1.62918">
        <ele>1669.618</ele>
        <time>2021-06-13T10:16:35Z</time>
      </trkpt>
      <trkpt lat="42.70522" lon="1.62919">
        <ele>1669.592</ele>
        <time>2021-06-13T10:16:37Z</time>
      </trkpt>
      <trkpt lat="42.70522" lon="1.62919">
        <ele>1669.345</ele>
        <time>2021-06-13T10:16:39Z</time>
      </trkpt>
      <trkpt lat="42.70521" lon="1.62918">
        <ele>1669.12</ele>
        <time>2021-06-13T10:16:41Z</time>
      </trkpt>
      <trkpt lat="42.70519" lon="1.62918">
        <ele>1669.105</ele>
        <time>2021-06-13T10:16:43Z</time>
      </trkpt>
      <trkpt lat="42.70517" lon="1.62918">
        <ele>1668.933</ele>
        <time>2021-06-13T10:16:45Z</time>
      </trkpt>
      <trkpt lat="42.70516" lon="1.62917">
        <ele>1669.07</ele>
        <time>2021-06-13T10:16:47Z</time>
      </trkpt>
      <trkpt lat="42.70514" lon="1.62917">
        <ele>1669.035</ele>
        <time>2021-06-13T10:16:49Z</time>
      </trkpt>
      <trkpt lat="42.70512" lon="1.62916">
        <ele>1668.292</ele>
        <time>2021-06-13T10:16:51Z</time>
      </trkpt>
      <trkpt lat="42.7051" lon="1.62915">
        <ele>1667.79</ele>
        <time>2021-06-13T10:16:53Z</time>
      </trkpt>
      <trkpt lat="42.70509" lon="1.62912">
        <ele>1667.774</ele>
        <time>2021-06-13T10:16:55Z</time>
      </trkpt>
      <trkpt lat="42.70508" lon="1.62911">
        <ele>1667.241</ele>
        <time>2021-06-13T10:16:57Z</time>
      </trkpt>
      <trkpt lat="42.70507" lon="1.6291">
        <ele>1667.49</ele>
        <time>2021-06-13T10:16:59Z</time>
      </trkpt>
      <trkpt lat="42.70505" lon="1.62909">
        <ele>1668.478</ele>
        <time>2021-06-13T10:17:01Z</time>
      </trkpt>
      <trkpt lat="42.70504" lon="1.6291">
        <ele>1669.064</ele>
        <time>2021-06-13T10:17:03Z</time>
      </trkpt>
      <trkpt lat="42.70503" lon="1.62911">
        <ele>1668.504</ele>
        <time>2021-06-13T10:17:05Z</time>
      </trkpt>
      <trkpt lat="42.70502" lon="1.62911">
        <ele>1667.86</ele>
        <time>2021-06-13T10:17:07Z</time>
      </trkpt>
      <trkpt lat="42.70502" lon="1.62911">
        <ele>1667.639</ele>
        <time>2021-06-13T10:17:09Z</time>
      </trkpt>
      <trkpt lat="42.70502" lon="1.6291">
        <ele>1667.604</ele>
        <time>2021-06-13T10:17:11Z</time>
      </trkpt>
      <trkpt lat="42.70502" lon="1.6291">
        <ele>1667.421</ele>
        <time>2021-06-13T10:17:13Z</time>
      </trkpt>
      <trkpt lat="42.70503" lon="1.6291">
        <ele>1667.408</ele>
        <time>2021-06-13T10:17:15Z</time>
      </trkpt>
      <trkpt lat="42.70502" lon="1.62909">
        <ele>1667.353</ele>
        <time>2021-06-13T10:17:17Z</time>
      </trkpt>
      <trkpt lat="42.705" lon="1.62909">
        <ele>1667.267</ele>
        <time>2021-06-13T10:17:19Z</time>
      </trkpt>
      <trkpt lat="42.70498" lon="1.6291">
        <ele>1666.812</ele>
        <time>2021-06-13T10:17:21Z</time>
      </trkpt>
      <trkpt lat="42.70496" lon="1.62911">
        <ele>1666.543</ele>
        <time>2021-06-13T10:17:23Z</time>
      </trkpt>
      <trkpt lat="42.70494" lon="1.62911">
        <ele>1665.977</ele>
        <time>2021-06-13T10:17:25Z</time>
      </trkpt>
      <trkpt lat="42.70492" lon="1.6291">
        <ele>1667.313</ele>
        <time>2021-06-13T10:17:27Z</time>
      </trkpt>
      <trkpt lat="42.7049" lon="1.6291">
        <ele>1667.157</ele>
        <time>2021-06-13T10:17:29Z</time>
      </trkpt>
      <trkpt lat="42.70489" lon="1.6291">
        <ele>1667.177</ele>
        <time>2021-06-13T10:17:31Z</time>
      </trkpt>
      <trkpt lat="42.70487" lon="1.62909">
        <ele>1667.557</ele>
        <time>2021-06-13T10:17:33Z</time>
      </trkpt>
      <trkpt lat="42.70485" lon="1.62909">
        <ele>1667.604</ele>
        <time>2021-06-13T10:17:35Z</time>
      </trkpt>
      <trkpt lat="42.70484" lon="1.62909">
        <ele>1667.521</ele>
        <time>2021-06-13T10:17:37Z</time>
      </trkpt>
      <trkpt lat="42.70483" lon="1.62908">
        <ele>1667.872</ele>
        <time>2021-06-13T10:17:39Z</time>
      </trkpt>
      <trkpt lat="42.70483" lon="1.62908">
        <ele>1667.862</ele>
        <time>2021-06-13T10:17:41Z</time>
      </trkpt>
      <trkpt lat="42.70483" lon="1.62908">
        <ele>1667.854</ele>
        <time>2021-06-13T10:17:43Z</time>
      </trkpt>
      <trkpt lat="42.70482" lon="1.62908">
        <ele>1668.106</ele>
        <time>2021-06-13T10:17:45Z</time>
      </trkpt>
      <trkpt lat="42.70481" lon="1.62908">
        <ele>1668.07</ele>
        <time>2021-06-13T10:17:47Z</time>
      </trkpt>
      <trkpt lat="42.70479" lon="1.62909">
        <ele>1668.235</ele>
        <time>2021-06-13T10:17:49Z</time>
      </trkpt>
      <trkpt lat="42.70478" lon="1.6291">
        <ele>1667.972</ele>
        <time>2021-06-13T10:17:51Z</time>
      </trkpt>
      <trkpt lat="42.70476" lon="1.62911">
        <ele>1667.613</ele>
        <time>2021-06-13T10:17:53Z</time>
      </trkpt>
      <trkpt lat="42.70475" lon="1.62913">
        <ele>1667.343</ele>
        <time>2021-06-13T10:17:55Z</time>
      </trkpt>
      <trkpt lat="42.70473" lon="1.62915">
        <ele>1666.942</ele>
        <time>2021-06-13T10:17:57Z</time>
      </trkpt>
      <trkpt lat="42.70472" lon="1.62917">
        <ele>1667.092</ele>
        <time>2021-06-13T10:17:59Z</time>
      </trkpt>
      <trkpt lat="42.7047" lon="1.62919">
        <ele>1666.599</ele>
        <time>2021-06-13T10:18:01Z</time>
      </trkpt>
      <trkpt lat="42.7047" lon="1.6292">
        <ele>1666.489</ele>
        <time>2021-06-13T10:18:03Z</time>
      </trkpt>
      <trkpt lat="42.7047" lon="1.6292">
        <ele>1666.491</ele>
        <time>2021-06-13T10:18:05Z</time>
      </trkpt>
      <trkpt lat="42.70469" lon="1.62922">
        <ele>1666.348</ele>
        <time>2021-06-13T10:18:07Z</time>
      </trkpt>
      <trkpt lat="42.70468" lon="1.62924">
        <ele>1666.554</ele>
        <time>2021-06-13T10:18:09Z</time>
      </trkpt>
      <trkpt lat="42.70466" lon="1.62928">
        <ele>1666.661</ele>
        <time>2021-06-13T10:18:11Z</time>
      </trkpt>
      <trkpt lat="42.70464" lon="1.6293">
        <ele>1666.139</ele>
        <time>2021-06-13T10:18:13Z</time>
      </trkpt>
      <trkpt lat="42.70463" lon="1.62931">
        <ele>1665.672</ele>
        <time>2021-06-13T10:18:15Z</time>
      </trkpt>
      <trkpt lat="42.70461" lon="1.62932">
        <ele>1665.974</ele>
        <time>2021-06-13T10:18:17Z</time>
      </trkpt>
      <trkpt lat="42.7046" lon="1.62933">
        <ele>1665.879</ele>
        <time>2021-06-13T10:18:19Z</time>
      </trkpt>
      <trkpt lat="42.70458" lon="1.62933">
        <ele>1666.062</ele>
        <time>2021-06-13T10:18:21Z</time>
      </trkpt>
      <trkpt lat="42.70456" lon="1.62933">
        <ele>1666.423</ele>
        <time>2021-06-13T10:18:23Z</time>
      </trkpt>
      <trkpt lat="42.70454" lon="1.62932">
        <ele>1666.16</ele>
        <time>2021-06-13T10:18:25Z</time>
      </trkpt>
      <trkpt lat="42.70452" lon="1.62933">
        <ele>1665.633</ele>
        <time>2021-06-13T10:18:27Z</time>
      </trkpt>
      <trkpt lat="42.70451" lon="1.62935">
        <ele>1664.936</ele>
        <time>2021-06-13T10:18:29Z</time>
      </trkpt>
      <trkpt lat="42.70449" lon="1.62936">
        <ele>1665.116</ele>
        <time>2021-06-13T10:18:31Z</time>
      </trkpt>
      <trkpt lat="42.70447" lon="1.62937">
        <ele>1664.351</ele>
        <time>2021-06-13T10:18:33Z</time>
      </trkpt>
      <trkpt lat="42.70445" lon="1.62939">
        <ele>1664.331</ele>
        <time>2021-06-13T10:18:35Z</time>
      </trkpt>
      <trkpt lat="42.70443" lon="1.62941">
        <ele>1664.708</ele>
        <time>2021-06-13T10:18:37Z</time>
      </trkpt>
      <trkpt lat="42.70442" lon="1.62944">
        <ele>1665.345</ele>
        <time>2021-06-13T10:18:39Z</time>
      </trkpt>
      <trkpt lat="42.70441" lon="1.62947">
        <ele>1664.75</ele>
        <time>2021-06-13T10:18:41Z</time>
      </trkpt>
      <trkpt lat="42.70441" lon="1.62951">
        <ele>1664.418</ele>
        <time>2021-06-13T10:18:43Z</time>
      </trkpt>
      <trkpt lat="42.7044" lon="1.62954">
        <ele>1664.5</ele>
        <time>2021-06-13T10:18:45Z</time>
      </trkpt>
      <trkpt lat="42.7044" lon="1.62956">
        <ele>1664.576</ele>
        <time>2021-06-13T10:18:47Z</time>
      </trkpt>
      <trkpt lat="42.70439" lon="1.62959">
        <ele>1664.152</ele>
        <time>2021-06-13T10:18:49Z</time>
      </trkpt>
      <trkpt lat="42.70438" lon="1.62961">
        <ele>1664.246</ele>
        <time>2021-06-13T10:18:51Z</time>
      </trkpt>
      <trkpt lat="42.70437" lon="1.62963">
        <ele>1663.996</ele>
        <time>2021-06-13T10:18:53Z</time>
      </trkpt>
      <trkpt lat="42.70435" lon="1.62965">
        <ele>1663.642</ele>
        <time>2021-06-13T10:18:55Z</time>
      </trkpt>
      <trkpt lat="42.70435" lon="1.62966">
        <ele>1663.329</ele>
        <time>2021-06-13T10:18:57Z</time>
      </trkpt>
      <trkpt lat="42.70435" lon="1.62966">
        <ele>1663.328</ele>
        <time>2021-06-13T10:18:59Z</time>
      </trkpt>
      <trkpt lat="42.70434" lon="1.62966">
        <ele>1662.95</ele>
        <time>2021-06-13T10:19:01Z</time>
      </trkpt>
      <trkpt lat="42.70434" lon="1.62966">
        <ele>1662.605</ele>
        <time>2021-06-13T10:19:03Z</time>
      </trkpt>
      <trkpt lat="42.70434" lon="1.62966">
        <ele>1662.602</ele>
        <time>2021-06-13T10:19:05Z</time>
      </trkpt>
      <trkpt lat="42.70434" lon="1.62966">
        <ele>1662.603</ele>
        <time>2021-06-13T10:19:07Z</time>
      </trkpt>
      <trkpt lat="42.70435" lon="1.62966">
        <ele>1662.604</ele>
        <time>2021-06-13T10:19:09Z</time>
      </trkpt>
      <trkpt lat="42.70435" lon="1.62966">
        <ele>1662.196</ele>
        <time>2021-06-13T10:19:11Z</time>
      </trkpt>
      <trkpt lat="42.70434" lon="1.62966">
        <ele>1662.201</ele>
        <time>2021-06-13T10:19:13Z</time>
      </trkpt>
      <trkpt lat="42.70434" lon="1.62966">
        <ele>1662.395</ele>
        <time>2021-06-13T10:19:15Z</time>
      </trkpt>
      <trkpt lat="42.70434" lon="1.62965">
        <ele>1662.39</ele>
        <time>2021-06-13T10:19:17Z</time>
      </trkpt>
      <trkpt lat="42.70433" lon="1.62965">
        <ele>1662.066</ele>
        <time>2021-06-13T10:19:19Z</time>
      </trkpt>
      <trkpt lat="42.70432" lon="1.62965">
        <ele>1662.47</ele>
        <time>2021-06-13T10:19:21Z</time>
      </trkpt>
      <trkpt lat="42.70432" lon="1.62965">
        <ele>1662.738</ele>
        <time>2021-06-13T10:19:23Z</time>
      </trkpt>
      <trkpt lat="42.70431" lon="1.62966">
        <ele>1662.49</ele>
        <time>2021-06-13T10:19:25Z</time>
      </trkpt>
      <trkpt lat="42.70431" lon="1.62966">
        <ele>1662.745</ele>
        <time>2021-06-13T10:19:27Z</time>
      </trkpt>
      <trkpt lat="42.70431" lon="1.62966">
        <ele>1662.731</ele>
        <time>2021-06-13T10:19:29Z</time>
      </trkpt>
      <trkpt lat="42.70431" lon="1.62966">
        <ele>1663.068</ele>
        <time>2021-06-13T10:19:31Z</time>
      </trkpt>
      <trkpt lat="42.70431" lon="1.62965">
        <ele>1663.021</ele>
        <time>2021-06-13T10:19:33Z</time>
      </trkpt>
      <trkpt lat="42.70431" lon="1.62965">
        <ele>1663.016</ele>
        <time>2021-06-13T10:19:35Z</time>
      </trkpt>
      <trkpt lat="42.70431" lon="1.62965">
        <ele>1663.011</ele>
        <time>2021-06-13T10:19:37Z</time>
      </trkpt>
      <trkpt lat="42.70431" lon="1.62965">
        <ele>1663.007</ele>
        <time>2021-06-13T10:19:39Z</time>
      </trkpt>
      <trkpt lat="42.70431" lon="1.62965">
        <ele>1662.985</ele>
        <time>2021-06-13T10:19:41Z</time>
      </trkpt>
      <trkpt lat="42.70431" lon="1.62965">
        <ele>1662.961</ele>
        <time>2021-06-13T10:19:43Z</time>
      </trkpt>
      <trkpt lat="42.70431" lon="1.62966">
        <ele>1662.956</ele>
        <time>2021-06-13T10:19:45Z</time>
      </trkpt>
      <trkpt lat="42.70431" lon="1.62966">
        <ele>1662.952</ele>
        <time>2021-06-13T10:19:47Z</time>
      </trkpt>
      <trkpt lat="42.70431" lon="1.62966">
        <ele>1662.942</ele>
        <time>2021-06-13T10:19:49Z</time>
      </trkpt>
      <trkpt lat="42.70431" lon="1.62966">
        <ele>1662.939</ele>
        <time>2021-06-13T10:19:51Z</time>
      </trkpt>
      <trkpt lat="42.70431" lon="1.62966">
        <ele>1662.942</ele>
        <time>2021-06-13T10:19:53Z</time>
      </trkpt>
      <trkpt lat="42.70431" lon="1.62966">
        <ele>1662.946</ele>
        <time>2021-06-13T10:19:55Z</time>
      </trkpt>
      <trkpt lat="42.70431" lon="1.62966">
        <ele>1662.948</ele>
        <time>2021-06-13T10:19:57Z</time>
      </trkpt>
      <trkpt lat="42.70431" lon="1.62966">
        <ele>1662.951</ele>
        <time>2021-06-13T10:19:59Z</time>
      </trkpt>
      <trkpt lat="42.70431" lon="1.62966">
        <ele>1662.945</ele>
        <time>2021-06-13T10:20:01Z</time>
      </trkpt>
      <trkpt lat="42.70431" lon="1.62966">
        <ele>1662.937</ele>
        <time>2021-06-13T10:20:03Z</time>
      </trkpt>
      <trkpt lat="42.70431" lon="1.62966">
        <ele>1662.934</ele>
        <time>2021-06-13T10:20:05Z</time>
      </trkpt>
      <trkpt lat="42.70431" lon="1.62966">
        <ele>1662.926</ele>
        <time>2021-06-13T10:20:07Z</time>
      </trkpt>
      <trkpt lat="42.70431" lon="1.62966">
        <ele>1662.919</ele>
        <time>2021-06-13T10:20:09Z</time>
      </trkpt>
      <trkpt lat="42.70431" lon="1.62966">
        <ele>1662.912</ele>
        <time>2021-06-13T10:20:11Z</time>
      </trkpt>
      <trkpt lat="42.70431" lon="1.62966">
        <ele>1662.9</ele>
        <time>2021-06-13T10:20:13Z</time>
      </trkpt>
      <trkpt lat="42.70431" lon="1.62966">
        <ele>1662.672</ele>
        <time>2021-06-13T10:20:15Z</time>
      </trkpt>
      <trkpt lat="42.70431" lon="1.62966">
        <ele>1662.656</ele>
        <time>2021-06-13T10:20:17Z</time>
      </trkpt>
      <trkpt lat="42.70431" lon="1.62966">
        <ele>1662.659</ele>
        <time>2021-06-13T10:20:19Z</time>
      </trkpt>
      <trkpt lat="42.70431" lon="1.62966">
        <ele>1662.657</ele>
        <time>2021-06-13T10:20:21Z</time>
      </trkpt>
      <trkpt lat="42.70431" lon="1.62966">
        <ele>1662.659</ele>
        <time>2021-06-13T10:20:23Z</time>
      </trkpt>
      <trkpt lat="42.70431" lon="1.62966">
        <ele>1662.663</ele>
        <time>2021-06-13T10:20:25Z</time>
      </trkpt>
      <trkpt lat="42.70431" lon="1.62966">
        <ele>1662.662</ele>
        <time>2021-06-13T10:20:27Z</time>
      </trkpt>
      <trkpt lat="42.70431" lon="1.62966">
        <ele>1662.656</ele>
        <time>2021-06-13T10:20:29Z</time>
      </trkpt>
      <trkpt lat="42.70431" lon="1.62966">
        <ele>1662.647</ele>
        <time>2021-06-13T10:20:31Z</time>
      </trkpt>
      <trkpt lat="42.70431" lon="1.62966">
        <ele>1662.645</ele>
        <time>2021-06-13T10:20:33Z</time>
      </trkpt>
      <trkpt lat="42.70431" lon="1.62966">
        <ele>1662.637</ele>
        <time>2021-06-13T10:20:35Z</time>
      </trkpt>
      <trkpt lat="42.70431" lon="1.62966">
        <ele>1662.637</ele>
        <time>2021-06-13T10:20:37Z</time>
      </trkpt>
      <trkpt lat="42.70431" lon="1.62966">
        <ele>1662.643</ele>
        <time>2021-06-13T10:20:39Z</time>
      </trkpt>
      <trkpt lat="42.70431" lon="1.62966">
        <ele>1662.649</ele>
        <time>2021-06-13T10:20:41Z</time>
      </trkpt>
      <trkpt lat="42.70431" lon="1.62966">
        <ele>1662.651</ele>
        <time>2021-06-13T10:20:43Z</time>
      </trkpt>
      <trkpt lat="42.70431" lon="1.62966">
        <ele>1662.651</ele>
        <time>2021-06-13T10:20:45Z</time>
      </trkpt>
      <trkpt lat="42.70431" lon="1.62966">
        <ele>1662.65</ele>
        <time>2021-06-13T10:20:46Z</time>
      </trkpt>
      <trkpt lat="42.70431" lon="1.62966">
        <ele>1662.644</ele>
        <time>2021-06-13T10:20:49Z</time>
      </trkpt>
      <trkpt lat="42.70431" lon="1.62966">
        <ele>1662.638</ele>
        <time>2021-06-13T10:20:51Z</time>
      </trkpt>
      <trkpt lat="42.70431" lon="1.62966">
        <ele>1662.64</ele>
        <time>2021-06-13T10:20:53Z</time>
      </trkpt>
      <trkpt lat="42.70431" lon="1.62966">
        <ele>1662.63</ele>
        <time>2021-06-13T10:20:55Z</time>
      </trkpt>
      <trkpt lat="42.70431" lon="1.62966">
        <ele>1662.624</ele>
        <time>2021-06-13T10:20:57Z</time>
      </trkpt>
      <trkpt lat="42.70431" lon="1.62966">
        <ele>1662.628</ele>
        <time>2021-06-13T10:20:59Z</time>
      </trkpt>
      <trkpt lat="42.70432" lon="1.62966">
        <ele>1662.736</ele>
        <time>2021-06-13T10:21:01Z</time>
      </trkpt>
      <trkpt lat="42.70432" lon="1.62966">
        <ele>1662.74</ele>
        <time>2021-06-13T10:21:03Z</time>
      </trkpt>
      <trkpt lat="42.70432" lon="1.62966">
        <ele>1662.735</ele>
        <time>2021-06-13T10:21:05Z</time>
      </trkpt>
      <trkpt lat="42.70432" lon="1.62966">
        <ele>1662.734</ele>
        <time>2021-06-13T10:21:07Z</time>
      </trkpt>
      <trkpt lat="42.70432" lon="1.62966">
        <ele>1662.728</ele>
        <time>2021-06-13T10:21:09Z</time>
      </trkpt>
      <trkpt lat="42.70432" lon="1.62966">
        <ele>1662.583</ele>
        <time>2021-06-13T10:21:11Z</time>
      </trkpt>
      <trkpt lat="42.70432" lon="1.62966">
        <ele>1662.568</ele>
        <time>2021-06-13T10:21:13Z</time>
      </trkpt>
      <trkpt lat="42.70432" lon="1.62966">
        <ele>1662.573</ele>
        <time>2021-06-13T10:21:15Z</time>
      </trkpt>
      <trkpt lat="42.70432" lon="1.62966">
        <ele>1662.575</ele>
        <time>2021-06-13T10:21:17Z</time>
      </trkpt>
      <trkpt lat="42.70432" lon="1.62966">
        <ele>1662.585</ele>
        <time>2021-06-13T10:21:19Z</time>
      </trkpt>
      <trkpt lat="42.70432" lon="1.62966">
        <ele>1662.595</ele>
        <time>2021-06-13T10:21:21Z</time>
      </trkpt>
      <trkpt lat="42.70432" lon="1.62966">
        <ele>1662.598</ele>
        <time>2021-06-13T10:21:23Z</time>
      </trkpt>
      <trkpt lat="42.70432" lon="1.62966">
        <ele>1662.6</ele>
        <time>2021-06-13T10:21:25Z</time>
      </trkpt>
      <trkpt lat="42.70432" lon="1.62966">
        <ele>1662.604</ele>
        <time>2021-06-13T10:21:27Z</time>
      </trkpt>
      <trkpt lat="42.70432" lon="1.62966">
        <ele>1662.609</ele>
        <time>2021-06-13T10:21:29Z</time>
      </trkpt>
      <trkpt lat="42.70432" lon="1.62966">
        <ele>1662.606</ele>
        <time>2021-06-13T10:21:31Z</time>
      </trkpt>
      <trkpt lat="42.70432" lon="1.62966">
        <ele>1662.604</ele>
        <time>2021-06-13T10:21:33Z</time>
      </trkpt>
      <trkpt lat="42.70432" lon="1.62966">
        <ele>1662.603</ele>
        <time>2021-06-13T10:21:35Z</time>
      </trkpt>
      <trkpt lat="42.70432" lon="1.62966">
        <ele>1662.603</ele>
        <time>2021-06-13T10:21:37Z</time>
      </trkpt>
      <trkpt lat="42.70432" lon="1.62966">
        <ele>1662.604</ele>
        <time>2021-06-13T10:21:39Z</time>
      </trkpt>
      <trkpt lat="42.70432" lon="1.62966">
        <ele>1662.607</ele>
        <time>2021-06-13T10:21:41Z</time>
      </trkpt>
      <trkpt lat="42.70432" lon="1.62966">
        <ele>1662.609</ele>
        <time>2021-06-13T10:21:43Z</time>
      </trkpt>
      <trkpt lat="42.70432" lon="1.62966">
        <ele>1662.618</ele>
        <time>2021-06-13T10:21:45Z</time>
      </trkpt>
      <trkpt lat="42.70432" lon="1.62966">
        <ele>1662.617</ele>
        <time>2021-06-13T10:21:47Z</time>
      </trkpt>
      <trkpt lat="42.70432" lon="1.62966">
        <ele>1662.613</ele>
        <time>2021-06-13T10:21:49Z</time>
      </trkpt>
      <trkpt lat="42.70432" lon="1.62966">
        <ele>1662.613</ele>
        <time>2021-06-13T10:21:51Z</time>
      </trkpt>
      <trkpt lat="42.70432" lon="1.62966">
        <ele>1662.608</ele>
        <time>2021-06-13T10:21:53Z</time>
      </trkpt>
      <trkpt lat="42.70432" lon="1.62966">
        <ele>1662.606</ele>
        <time>2021-06-13T10:21:55Z</time>
      </trkpt>
      <trkpt lat="42.70432" lon="1.62966">
        <ele>1662.59</ele>
        <time>2021-06-13T10:21:57Z</time>
      </trkpt>
      <trkpt lat="42.70432" lon="1.62966">
        <ele>1662.58</ele>
        <time>2021-06-13T10:21:59Z</time>
      </trkpt>
      <trkpt lat="42.70432" lon="1.62966">
        <ele>1662.578</ele>
        <time>2021-06-13T10:22:01Z</time>
      </trkpt>
      <trkpt lat="42.70432" lon="1.62966">
        <ele>1662.575</ele>
        <time>2021-06-13T10:22:03Z</time>
      </trkpt>
      <trkpt lat="42.70432" lon="1.62966">
        <ele>1662.604</ele>
        <time>2021-06-13T10:22:05Z</time>
      </trkpt>
      <trkpt lat="42.70432" lon="1.62966">
        <ele>1662.608</ele>
        <time>2021-06-13T10:22:07Z</time>
      </trkpt>
      <trkpt lat="42.70432" lon="1.62966">
        <ele>1662.609</ele>
        <time>2021-06-13T10:22:09Z</time>
      </trkpt>
      <trkpt lat="42.70432" lon="1.62966">
        <ele>1662.613</ele>
        <time>2021-06-13T10:22:11Z</time>
      </trkpt>
      <trkpt lat="42.70432" lon="1.62966">
        <ele>1662.606</ele>
        <time>2021-06-13T10:22:13Z</time>
      </trkpt>
      <trkpt lat="42.70432" lon="1.62966">
        <ele>1662.596</ele>
        <time>2021-06-13T10:22:15Z</time>
      </trkpt>
      <trkpt lat="42.70432" lon="1.62966">
        <ele>1662.593</ele>
        <time>2021-06-13T10:22:17Z</time>
      </trkpt>
      <trkpt lat="42.70432" lon="1.62966">
        <ele>1662.586</ele>
        <time>2021-06-13T10:22:19Z</time>
      </trkpt>
      <trkpt lat="42.70432" lon="1.62966">
        <ele>1662.582</ele>
        <time>2021-06-13T10:22:21Z</time>
      </trkpt>
      <trkpt lat="42.70432" lon="1.62966">
        <ele>1662.58</ele>
        <time>2021-06-13T10:22:23Z</time>
      </trkpt>
      <trkpt lat="42.70432" lon="1.62966">
        <ele>1662.876</ele>
        <time>2021-06-13T10:22:25Z</time>
      </trkpt>
      <trkpt lat="42.70432" lon="1.62966">
        <ele>1662.6</ele>
        <time>2021-06-13T10:22:27Z</time>
      </trkpt>
      <trkpt lat="42.70432" lon="1.62966">
        <ele>1662.592</ele>
        <time>2021-06-13T10:22:29Z</time>
      </trkpt>
      <trkpt lat="42.70432" lon="1.62966">
        <ele>1663.066</ele>
        <time>2021-06-13T10:22:31Z</time>
      </trkpt>
      <trkpt lat="42.70432" lon="1.62966">
        <ele>1663.065</ele>
        <time>2021-06-13T10:22:33Z</time>
      </trkpt>
      <trkpt lat="42.70432" lon="1.62966">
        <ele>1663.066</ele>
        <time>2021-06-13T10:22:35Z</time>
      </trkpt>
      <trkpt lat="42.70432" lon="1.62966">
        <ele>1663.077</ele>
        <time>2021-06-13T10:22:37Z</time>
      </trkpt>
      <trkpt lat="42.70432" lon="1.62966">
        <ele>1663.082</ele>
        <time>2021-06-13T10:22:39Z</time>
      </trkpt>
      <trkpt lat="42.70432" lon="1.62966">
        <ele>1663.079</ele>
        <time>2021-06-13T10:22:41Z</time>
      </trkpt>
      <trkpt lat="42.70432" lon="1.62966">
        <ele>1663.083</ele>
        <time>2021-06-13T10:22:43Z</time>
      </trkpt>
      <trkpt lat="42.70432" lon="1.62966">
        <ele>1663.584</ele>
        <time>2021-06-13T10:22:45Z</time>
      </trkpt>
      <trkpt lat="42.70432" lon="1.62966">
        <ele>1663.865</ele>
        <time>2021-06-13T10:22:47Z</time>
      </trkpt>
      <trkpt lat="42.70432" lon="1.62966">
        <ele>1663.838</ele>
        <time>2021-06-13T10:22:49Z</time>
      </trkpt>
      <trkpt lat="42.70432" lon="1.62966">
        <ele>1663.829</ele>
        <time>2021-06-13T10:22:51Z</time>
      </trkpt>
      <trkpt lat="42.70432" lon="1.62966">
        <ele>1663.84</ele>
        <time>2021-06-13T10:22:53Z</time>
      </trkpt>
      <trkpt lat="42.70432" lon="1.62966">
        <ele>1663.833</ele>
        <time>2021-06-13T10:22:55Z</time>
      </trkpt>
      <trkpt lat="42.70432" lon="1.62966">
        <ele>1663.824</ele>
        <time>2021-06-13T10:22:57Z</time>
      </trkpt>
      <trkpt lat="42.70433" lon="1.62966">
        <ele>1664.209</ele>
        <time>2021-06-13T10:22:59Z</time>
      </trkpt>
      <trkpt lat="42.70433" lon="1.62966">
        <ele>1664.2</ele>
        <time>2021-06-13T10:23:01Z</time>
      </trkpt>
      <trkpt lat="42.70433" lon="1.62966">
        <ele>1664.191</ele>
        <time>2021-06-13T10:23:03Z</time>
      </trkpt>
      <trkpt lat="42.70433" lon="1.62966">
        <ele>1664.295</ele>
        <time>2021-06-13T10:23:05Z</time>
      </trkpt>
      <trkpt lat="42.70433" lon="1.62966">
        <ele>1664.292</ele>
        <time>2021-06-13T10:23:07Z</time>
      </trkpt>
      <trkpt lat="42.70433" lon="1.62966">
        <ele>1664.279</ele>
        <time>2021-06-13T10:23:09Z</time>
      </trkpt>
      <trkpt lat="42.70433" lon="1.62966">
        <ele>1664.279</ele>
        <time>2021-06-13T10:23:11Z</time>
      </trkpt>
      <trkpt lat="42.70433" lon="1.62966">
        <ele>1664.279</ele>
        <time>2021-06-13T10:23:13Z</time>
      </trkpt>
      <trkpt lat="42.70433" lon="1.62966">
        <ele>1664.287</ele>
        <time>2021-06-13T10:23:15Z</time>
      </trkpt>
      <trkpt lat="42.70433" lon="1.62966">
        <ele>1664.269</ele>
        <time>2021-06-13T10:23:17Z</time>
      </trkpt>
      <trkpt lat="42.70433" lon="1.62966">
        <ele>1664.261</ele>
        <time>2021-06-13T10:23:19Z</time>
      </trkpt>
      <trkpt lat="42.70433" lon="1.62966">
        <ele>1664.277</ele>
        <time>2021-06-13T10:23:21Z</time>
      </trkpt>
      <trkpt lat="42.70433" lon="1.62966">
        <ele>1664.296</ele>
        <time>2021-06-13T10:23:23Z</time>
      </trkpt>
      <trkpt lat="42.70433" lon="1.62966">
        <ele>1664.312</ele>
        <time>2021-06-13T10:23:25Z</time>
      </trkpt>
      <trkpt lat="42.70433" lon="1.62966">
        <ele>1664.306</ele>
        <time>2021-06-13T10:23:27Z</time>
      </trkpt>
      <trkpt lat="42.70433" lon="1.62966">
        <ele>1664.3</ele>
        <time>2021-06-13T10:23:29Z</time>
      </trkpt>
      <trkpt lat="42.70433" lon="1.62966">
        <ele>1664.3</ele>
        <time>2021-06-13T10:23:31Z</time>
      </trkpt>
      <trkpt lat="42.70433" lon="1.62966">
        <ele>1664.293</ele>
        <time>2021-06-13T10:23:33Z</time>
      </trkpt>
      <trkpt lat="42.70433" lon="1.62966">
        <ele>1664.289</ele>
        <time>2021-06-13T10:23:35Z</time>
      </trkpt>
      <trkpt lat="42.70433" lon="1.62966">
        <ele>1664.313</ele>
        <time>2021-06-13T10:23:37Z</time>
      </trkpt>
      <trkpt lat="42.70433" lon="1.62966">
        <ele>1664.332</ele>
        <time>2021-06-13T10:23:39Z</time>
      </trkpt>
      <trkpt lat="42.70433" lon="1.62966">
        <ele>1664.35</ele>
        <time>2021-06-13T10:23:41Z</time>
      </trkpt>
      <trkpt lat="42.70433" lon="1.62966">
        <ele>1664.355</ele>
        <time>2021-06-13T10:23:43Z</time>
      </trkpt>
      <trkpt lat="42.70433" lon="1.62966">
        <ele>1664.355</ele>
        <time>2021-06-13T10:23:45Z</time>
      </trkpt>
      <trkpt lat="42.70433" lon="1.62966">
        <ele>1664.354</ele>
        <time>2021-06-13T10:23:47Z</time>
      </trkpt>
      <trkpt lat="42.70433" lon="1.62966">
        <ele>1664.347</ele>
        <time>2021-06-13T10:23:49Z</time>
      </trkpt>
      <trkpt lat="42.70433" lon="1.62966">
        <ele>1664.335</ele>
        <time>2021-06-13T10:23:51Z</time>
      </trkpt>
      <trkpt lat="42.70433" lon="1.62966">
        <ele>1664.338</ele>
        <time>2021-06-13T10:23:53Z</time>
      </trkpt>
      <trkpt lat="42.70433" lon="1.62966">
        <ele>1664.326</ele>
        <time>2021-06-13T10:23:55Z</time>
      </trkpt>
      <trkpt lat="42.70433" lon="1.62966">
        <ele>1664.317</ele>
        <time>2021-06-13T10:23:57Z</time>
      </trkpt>
      <trkpt lat="42.70433" lon="1.62966">
        <ele>1664.076</ele>
        <time>2021-06-13T10:23:59Z</time>
      </trkpt>
      <trkpt lat="42.70433" lon="1.62966">
        <ele>1664.075</ele>
        <time>2021-06-13T10:24:01Z</time>
      </trkpt>
      <trkpt lat="42.70433" lon="1.62966">
        <ele>1664.081</ele>
        <time>2021-06-13T10:24:03Z</time>
      </trkpt>
      <trkpt lat="42.70433" lon="1.62966">
        <ele>1664.077</ele>
        <time>2021-06-13T10:24:05Z</time>
      </trkpt>
      <trkpt lat="42.70433" lon="1.62966">
        <ele>1664.065</ele>
        <time>2021-06-13T10:24:07Z</time>
      </trkpt>
      <trkpt lat="42.70433" lon="1.62966">
        <ele>1664.03</ele>
        <time>2021-06-13T10:24:09Z</time>
      </trkpt>
      <trkpt lat="42.70433" lon="1.62966">
        <ele>1664.023</ele>
        <time>2021-06-13T10:24:11Z</time>
      </trkpt>
      <trkpt lat="42.70433" lon="1.62966">
        <ele>1664.02</ele>
        <time>2021-06-13T10:24:13Z</time>
      </trkpt>
      <trkpt lat="42.70433" lon="1.62966">
        <ele>1664.024</ele>
        <time>2021-06-13T10:24:15Z</time>
      </trkpt>
      <trkpt lat="42.70433" lon="1.62966">
        <ele>1664.023</ele>
        <time>2021-06-13T10:24:17Z</time>
      </trkpt>
      <trkpt lat="42.70433" lon="1.62966">
        <ele>1664.02</ele>
        <time>2021-06-13T10:24:19Z</time>
      </trkpt>
      <trkpt lat="42.70433" lon="1.62966">
        <ele>1664.011</ele>
        <time>2021-06-13T10:24:21Z</time>
      </trkpt>
      <trkpt lat="42.70433" lon="1.62966">
        <ele>1664.009</ele>
        <time>2021-06-13T10:24:23Z</time>
      </trkpt>
      <trkpt lat="42.70433" lon="1.62966">
        <ele>1664.009</ele>
        <time>2021-06-13T10:24:25Z</time>
      </trkpt>
      <trkpt lat="42.70433" lon="1.62966">
        <ele>1664.013</ele>
        <time>2021-06-13T10:24:27Z</time>
      </trkpt>
      <trkpt lat="42.70433" lon="1.62966">
        <ele>1664.023</ele>
        <time>2021-06-13T10:24:29Z</time>
      </trkpt>
      <trkpt lat="42.70433" lon="1.62966">
        <ele>1664.016</ele>
        <time>2021-06-13T10:24:31Z</time>
      </trkpt>
      <trkpt lat="42.70433" lon="1.62966">
        <ele>1664.006</ele>
        <time>2021-06-13T10:24:33Z</time>
      </trkpt>
      <trkpt lat="42.70433" lon="1.62966">
        <ele>1663.997</ele>
        <time>2021-06-13T10:24:35Z</time>
      </trkpt>
      <trkpt lat="42.70433" lon="1.62966">
        <ele>1663.99</ele>
        <time>2021-06-13T10:24:37Z</time>
      </trkpt>
      <trkpt lat="42.70433" lon="1.62966">
        <ele>1663.966</ele>
        <time>2021-06-13T10:24:39Z</time>
      </trkpt>
      <trkpt lat="42.70433" lon="1.62966">
        <ele>1663.954</ele>
        <time>2021-06-13T10:24:41Z</time>
      </trkpt>
      <trkpt lat="42.70433" lon="1.62966">
        <ele>1663.954</ele>
        <time>2021-06-13T10:24:43Z</time>
      </trkpt>
      <trkpt lat="42.70433" lon="1.62966">
        <ele>1663.954</ele>
        <time>2021-06-13T10:24:45Z</time>
      </trkpt>
      <trkpt lat="42.70433" lon="1.62966">
        <ele>1663.947</ele>
        <time>2021-06-13T10:24:47Z</time>
      </trkpt>
      <trkpt lat="42.70433" lon="1.62966">
        <ele>1663.939</ele>
        <time>2021-06-13T10:24:49Z</time>
      </trkpt>
      <trkpt lat="42.70433" lon="1.62966">
        <ele>1663.932</ele>
        <time>2021-06-13T10:24:51Z</time>
      </trkpt>
      <trkpt lat="42.70433" lon="1.62966">
        <ele>1663.933</ele>
        <time>2021-06-13T10:24:53Z</time>
      </trkpt>
      <trkpt lat="42.70433" lon="1.62966">
        <ele>1663.926</ele>
        <time>2021-06-13T10:24:55Z</time>
      </trkpt>
      <trkpt lat="42.70433" lon="1.62966">
        <ele>1663.924</ele>
        <time>2021-06-13T10:24:57Z</time>
      </trkpt>
      <trkpt lat="42.70433" lon="1.62966">
        <ele>1663.921</ele>
        <time>2021-06-13T10:24:59Z</time>
      </trkpt>
      <trkpt lat="42.70433" lon="1.62966">
        <ele>1663.917</ele>
        <time>2021-06-13T10:25:01Z</time>
      </trkpt>
      <trkpt lat="42.70433" lon="1.62966">
        <ele>1663.723</ele>
        <time>2021-06-13T10:25:03Z</time>
      </trkpt>
      <trkpt lat="42.70433" lon="1.62966">
        <ele>1663.722</ele>
        <time>2021-06-13T10:25:05Z</time>
      </trkpt>
      <trkpt lat="42.70433" lon="1.62966">
        <ele>1664.636</ele>
        <time>2021-06-13T10:25:07Z</time>
      </trkpt>
      <trkpt lat="42.70433" lon="1.62966">
        <ele>1664.532</ele>
        <time>2021-06-13T10:25:09Z</time>
      </trkpt>
      <trkpt lat="42.70432" lon="1.62965">
        <ele>1664.037</ele>
        <time>2021-06-13T10:25:11Z</time>
      </trkpt>
      <trkpt lat="42.70431" lon="1.62963">
        <ele>1664.949</ele>
        <time>2021-06-13T10:25:13Z</time>
      </trkpt>
      <trkpt lat="42.70431" lon="1.62961">
        <ele>1665.14</ele>
        <time>2021-06-13T10:25:15Z</time>
      </trkpt>
      <trkpt lat="42.7043" lon="1.62959">
        <ele>1664.875</ele>
        <time>2021-06-13T10:25:17Z</time>
      </trkpt>
      <trkpt lat="42.70429" lon="1.62957">
        <ele>1664.627</ele>
        <time>2021-06-13T10:25:19Z</time>
      </trkpt>
      <trkpt lat="42.70428" lon="1.62956">
        <ele>1664.635</ele>
        <time>2021-06-13T10:25:21Z</time>
      </trkpt>
      <trkpt lat="42.70426" lon="1.62956">
        <ele>1664.205</ele>
        <time>2021-06-13T10:25:23Z</time>
      </trkpt>
      <trkpt lat="42.70424" lon="1.62955">
        <ele>1664.131</ele>
        <time>2021-06-13T10:25:25Z</time>
      </trkpt>
      <trkpt lat="42.70423" lon="1.62954">
        <ele>1663.158</ele>
        <time>2021-06-13T10:25:27Z</time>
      </trkpt>
      <trkpt lat="42.70422" lon="1.62955">
        <ele>1663.373</ele>
        <time>2021-06-13T10:25:29Z</time>
      </trkpt>
      <trkpt lat="42.7042" lon="1.62956">
        <ele>1663.474</ele>
        <time>2021-06-13T10:25:31Z</time>
      </trkpt>
      <trkpt lat="42.70419" lon="1.62956">
        <ele>1663.246</ele>
        <time>2021-06-13T10:25:33Z</time>
      </trkpt>
      <trkpt lat="42.70418" lon="1.62956">
        <ele>1662.995</ele>
        <time>2021-06-13T10:25:35Z</time>
      </trkpt>
      <trkpt lat="42.70416" lon="1.62956">
        <ele>1662.846</ele>
        <time>2021-06-13T10:25:37Z</time>
      </trkpt>
      <trkpt lat="42.70415" lon="1.62957">
        <ele>1662.221</ele>
        <time>2021-06-13T10:25:39Z</time>
      </trkpt>
      <trkpt lat="42.70413" lon="1.62958">
        <ele>1662.365</ele>
        <time>2021-06-13T10:25:41Z</time>
      </trkpt>
      <trkpt lat="42.70412" lon="1.6296">
        <ele>1662.11</ele>
        <time>2021-06-13T10:25:43Z</time>
      </trkpt>
      <trkpt lat="42.70412" lon="1.62962">
        <ele>1662.096</ele>
        <time>2021-06-13T10:25:45Z</time>
      </trkpt>
      <trkpt lat="42.70412" lon="1.62964">
        <ele>1661.597</ele>
        <time>2021-06-13T10:25:47Z</time>
      </trkpt>
      <trkpt lat="42.7041" lon="1.62966">
        <ele>1661.077</ele>
        <time>2021-06-13T10:25:49Z</time>
      </trkpt>
      <trkpt lat="42.70408" lon="1.62965">
        <ele>1660.776</ele>
        <time>2021-06-13T10:25:51Z</time>
      </trkpt>
      <trkpt lat="42.70406" lon="1.62964">
        <ele>1660.234</ele>
        <time>2021-06-13T10:25:53Z</time>
      </trkpt>
      <trkpt lat="42.70405" lon="1.62964">
        <ele>1660.115</ele>
        <time>2021-06-13T10:25:55Z</time>
      </trkpt>
      <trkpt lat="42.70403" lon="1.62962">
        <ele>1659.77</ele>
        <time>2021-06-13T10:25:57Z</time>
      </trkpt>
      <trkpt lat="42.70402" lon="1.62961">
        <ele>1660.08</ele>
        <time>2021-06-13T10:25:59Z</time>
      </trkpt>
      <trkpt lat="42.704" lon="1.62961">
        <ele>1659.681</ele>
        <time>2021-06-13T10:26:01Z</time>
      </trkpt>
      <trkpt lat="42.70399" lon="1.6296">
        <ele>1659.289</ele>
        <time>2021-06-13T10:26:03Z</time>
      </trkpt>
      <trkpt lat="42.70396" lon="1.6296">
        <ele>1659.628</ele>
        <time>2021-06-13T10:26:05Z</time>
      </trkpt>
      <trkpt lat="42.70394" lon="1.6296">
        <ele>1659.865</ele>
        <time>2021-06-13T10:26:07Z</time>
      </trkpt>
      <trkpt lat="42.70392" lon="1.62961">
        <ele>1659.751</ele>
        <time>2021-06-13T10:26:09Z</time>
      </trkpt>
      <trkpt lat="42.7039" lon="1.62962">
        <ele>1659.527</ele>
        <time>2021-06-13T10:26:11Z</time>
      </trkpt>
      <trkpt lat="42.70389" lon="1.62963">
        <ele>1659.486</ele>
        <time>2021-06-13T10:26:13Z</time>
      </trkpt>
      <trkpt lat="42.70387" lon="1.62964">
        <ele>1659.539</ele>
        <time>2021-06-13T10:26:15Z</time>
      </trkpt>
      <trkpt lat="42.70385" lon="1.62965">
        <ele>1659.554</ele>
        <time>2021-06-13T10:26:17Z</time>
      </trkpt>
      <trkpt lat="42.70383" lon="1.62967">
        <ele>1659.948</ele>
        <time>2021-06-13T10:26:19Z</time>
      </trkpt>
      <trkpt lat="42.70381" lon="1.62969">
        <ele>1660.041</ele>
        <time>2021-06-13T10:26:21Z</time>
      </trkpt>
      <trkpt lat="42.7038" lon="1.62971">
        <ele>1659.9</ele>
        <time>2021-06-13T10:26:23Z</time>
      </trkpt>
      <trkpt lat="42.70378" lon="1.62973">
        <ele>1659.66</ele>
        <time>2021-06-13T10:26:25Z</time>
      </trkpt>
      <trkpt lat="42.70377" lon="1.62975">
        <ele>1659.596</ele>
        <time>2021-06-13T10:26:27Z</time>
      </trkpt>
      <trkpt lat="42.70375" lon="1.62977">
        <ele>1659.271</ele>
        <time>2021-06-13T10:26:29Z</time>
      </trkpt>
      <trkpt lat="42.70375" lon="1.62978">
        <ele>1659.372</ele>
        <time>2021-06-13T10:26:31Z</time>
      </trkpt>
      <trkpt lat="42.70375" lon="1.62979">
        <ele>1659.255</ele>
        <time>2021-06-13T10:26:33Z</time>
      </trkpt>
      <trkpt lat="42.70374" lon="1.62981">
        <ele>1658.42</ele>
        <time>2021-06-13T10:26:35Z</time>
      </trkpt>
      <trkpt lat="42.70374" lon="1.62984">
        <ele>1657.564</ele>
        <time>2021-06-13T10:26:37Z</time>
      </trkpt>
      <trkpt lat="42.70373" lon="1.62987">
        <ele>1656.864</ele>
        <time>2021-06-13T10:26:39Z</time>
      </trkpt>
      <trkpt lat="42.70373" lon="1.6299">
        <ele>1656.704</ele>
        <time>2021-06-13T10:26:41Z</time>
      </trkpt>
      <trkpt lat="42.70373" lon="1.62992">
        <ele>1656.633</ele>
        <time>2021-06-13T10:26:43Z</time>
      </trkpt>
      <trkpt lat="42.70372" lon="1.62994">
        <ele>1656.294</ele>
        <time>2021-06-13T10:26:45Z</time>
      </trkpt>
      <trkpt lat="42.70371" lon="1.62995">
        <ele>1655.996</ele>
        <time>2021-06-13T10:26:47Z</time>
      </trkpt>
      <trkpt lat="42.7037" lon="1.62997">
        <ele>1655.894</ele>
        <time>2021-06-13T10:26:49Z</time>
      </trkpt>
      <trkpt lat="42.7037" lon="1.62999">
        <ele>1656.42</ele>
        <time>2021-06-13T10:26:51Z</time>
      </trkpt>
      <trkpt lat="42.70369" lon="1.63">
        <ele>1656.455</ele>
        <time>2021-06-13T10:26:53Z</time>
      </trkpt>
      <trkpt lat="42.70368" lon="1.63002">
        <ele>1655.844</ele>
        <time>2021-06-13T10:26:55Z</time>
      </trkpt>
      <trkpt lat="42.70367" lon="1.63004">
        <ele>1655.771</ele>
        <time>2021-06-13T10:26:57Z</time>
      </trkpt>
      <trkpt lat="42.70367" lon="1.63006">
        <ele>1655.079</ele>
        <time>2021-06-13T10:26:59Z</time>
      </trkpt>
      <trkpt lat="42.70367" lon="1.63009">
        <ele>1654.497</ele>
        <time>2021-06-13T10:27:01Z</time>
      </trkpt>
      <trkpt lat="42.70367" lon="1.63011">
        <ele>1654.39</ele>
        <time>2021-06-13T10:27:03Z</time>
      </trkpt>
      <trkpt lat="42.70366" lon="1.63013">
        <ele>1654</ele>
        <time>2021-06-13T10:27:05Z</time>
      </trkpt>
      <trkpt lat="42.70365" lon="1.63015">
        <ele>1654.004</ele>
        <time>2021-06-13T10:27:07Z</time>
      </trkpt>
      <trkpt lat="42.70363" lon="1.63016">
        <ele>1653.534</ele>
        <time>2021-06-13T10:27:09Z</time>
      </trkpt>
      <trkpt lat="42.70361" lon="1.63017">
        <ele>1653.952</ele>
        <time>2021-06-13T10:27:11Z</time>
      </trkpt>
      <trkpt lat="42.7036" lon="1.63018">
        <ele>1654.523</ele>
        <time>2021-06-13T10:27:13Z</time>
      </trkpt>
      <trkpt lat="42.70359" lon="1.63019">
        <ele>1655.182</ele>
        <time>2021-06-13T10:27:15Z</time>
      </trkpt>
      <trkpt lat="42.70358" lon="1.6302">
        <ele>1654.734</ele>
        <time>2021-06-13T10:27:17Z</time>
      </trkpt>
      <trkpt lat="42.70357" lon="1.63022">
        <ele>1655.441</ele>
        <time>2021-06-13T10:27:19Z</time>
      </trkpt>
      <trkpt lat="42.70356" lon="1.63025">
        <ele>1654.949</ele>
        <time>2021-06-13T10:27:21Z</time>
      </trkpt>
      <trkpt lat="42.70356" lon="1.63029">
        <ele>1654.372</ele>
        <time>2021-06-13T10:27:23Z</time>
      </trkpt>
      <trkpt lat="42.70356" lon="1.63032">
        <ele>1654.315</ele>
        <time>2021-06-13T10:27:25Z</time>
      </trkpt>
      <trkpt lat="42.70356" lon="1.63035">
        <ele>1653.757</ele>
        <time>2021-06-13T10:27:27Z</time>
      </trkpt>
      <trkpt lat="42.70356" lon="1.63037">
        <ele>1652.363</ele>
        <time>2021-06-13T10:27:29Z</time>
      </trkpt>
      <trkpt lat="42.70356" lon="1.6304">
        <ele>1651.855</ele>
        <time>2021-06-13T10:27:31Z</time>
      </trkpt>
      <trkpt lat="42.70355" lon="1.63042">
        <ele>1652.096</ele>
        <time>2021-06-13T10:27:33Z</time>
      </trkpt>
      <trkpt lat="42.70356" lon="1.63044">
        <ele>1651.079</ele>
        <time>2021-06-13T10:27:35Z</time>
      </trkpt>
      <trkpt lat="42.70357" lon="1.63046">
        <ele>1651.744</ele>
        <time>2021-06-13T10:27:37Z</time>
      </trkpt>
      <trkpt lat="42.70358" lon="1.63048">
        <ele>1651.522</ele>
        <time>2021-06-13T10:27:39Z</time>
      </trkpt>
      <trkpt lat="42.70359" lon="1.63049">
        <ele>1650.894</ele>
        <time>2021-06-13T10:27:41Z</time>
      </trkpt>
      <trkpt lat="42.7036" lon="1.63051">
        <ele>1650.395</ele>
        <time>2021-06-13T10:27:43Z</time>
      </trkpt>
      <trkpt lat="42.7036" lon="1.63052">
        <ele>1649.946</ele>
        <time>2021-06-13T10:27:45Z</time>
      </trkpt>
      <trkpt lat="42.7036" lon="1.63055">
        <ele>1648.969</ele>
        <time>2021-06-13T10:27:47Z</time>
      </trkpt>
      <trkpt lat="42.7036" lon="1.63057">
        <ele>1648.253</ele>
        <time>2021-06-13T10:27:49Z</time>
      </trkpt>
      <trkpt lat="42.70359" lon="1.63059">
        <ele>1648.103</ele>
        <time>2021-06-13T10:27:51Z</time>
      </trkpt>
      <trkpt lat="42.70359" lon="1.63061">
        <ele>1647.178</ele>
        <time>2021-06-13T10:27:53Z</time>
      </trkpt>
      <trkpt lat="42.70361" lon="1.63063">
        <ele>1646.787</ele>
        <time>2021-06-13T10:27:55Z</time>
      </trkpt>
      <trkpt lat="42.7036" lon="1.63066">
        <ele>1646.702</ele>
        <time>2021-06-13T10:27:57Z</time>
      </trkpt>
      <trkpt lat="42.70359" lon="1.63069">
        <ele>1645.965</ele>
        <time>2021-06-13T10:27:59Z</time>
      </trkpt>
      <trkpt lat="42.70358" lon="1.63071">
        <ele>1645.077</ele>
        <time>2021-06-13T10:28:01Z</time>
      </trkpt>
      <trkpt lat="42.70357" lon="1.63073">
        <ele>1645.081</ele>
        <time>2021-06-13T10:28:03Z</time>
      </trkpt>
      <trkpt lat="42.70357" lon="1.63076">
        <ele>1644.129</ele>
        <time>2021-06-13T10:28:05Z</time>
      </trkpt>
      <trkpt lat="42.70358" lon="1.63078">
        <ele>1643.543</ele>
        <time>2021-06-13T10:28:07Z</time>
      </trkpt>
      <trkpt lat="42.70359" lon="1.63079">
        <ele>1642.876</ele>
        <time>2021-06-13T10:28:09Z</time>
      </trkpt>
      <trkpt lat="42.70361" lon="1.63081">
        <ele>1642.256</ele>
        <time>2021-06-13T10:28:11Z</time>
      </trkpt>
      <trkpt lat="42.70362" lon="1.63083">
        <ele>1641.857</ele>
        <time>2021-06-13T10:28:13Z</time>
      </trkpt>
      <trkpt lat="42.70364" lon="1.63085">
        <ele>1641.13</ele>
        <time>2021-06-13T10:28:15Z</time>
      </trkpt>
      <trkpt lat="42.70364" lon="1.63087">
        <ele>1640.785</ele>
        <time>2021-06-13T10:28:17Z</time>
      </trkpt>
      <trkpt lat="42.70364" lon="1.63089">
        <ele>1640.186</ele>
        <time>2021-06-13T10:28:19Z</time>
      </trkpt>
      <trkpt lat="42.70364" lon="1.63092">
        <ele>1640.306</ele>
        <time>2021-06-13T10:28:21Z</time>
      </trkpt>
      <trkpt lat="42.70365" lon="1.63094">
        <ele>1640.179</ele>
        <time>2021-06-13T10:28:23Z</time>
      </trkpt>
      <trkpt lat="42.70365" lon="1.63096">
        <ele>1639.246</ele>
        <time>2021-06-13T10:28:25Z</time>
      </trkpt>
      <trkpt lat="42.70366" lon="1.63099">
        <ele>1639.525</ele>
        <time>2021-06-13T10:28:27Z</time>
      </trkpt>
      <trkpt lat="42.70366" lon="1.63102">
        <ele>1639.794</ele>
        <time>2021-06-13T10:28:29Z</time>
      </trkpt>
      <trkpt lat="42.70366" lon="1.63105">
        <ele>1638.836</ele>
        <time>2021-06-13T10:28:31Z</time>
      </trkpt>
      <trkpt lat="42.70366" lon="1.63107">
        <ele>1638.928</ele>
        <time>2021-06-13T10:28:33Z</time>
      </trkpt>
      <trkpt lat="42.70366" lon="1.63109">
        <ele>1637.501</ele>
        <time>2021-06-13T10:28:35Z</time>
      </trkpt>
      <trkpt lat="42.70366" lon="1.6311">
        <ele>1637.794</ele>
        <time>2021-06-13T10:28:37Z</time>
      </trkpt>
      <trkpt lat="42.70366" lon="1.63112">
        <ele>1637.97</ele>
        <time>2021-06-13T10:28:39Z</time>
      </trkpt>
      <trkpt lat="42.70365" lon="1.63115">
        <ele>1637.724</ele>
        <time>2021-06-13T10:28:41Z</time>
      </trkpt>
      <trkpt lat="42.70364" lon="1.63117">
        <ele>1638.609</ele>
        <time>2021-06-13T10:28:43Z</time>
      </trkpt>
      <trkpt lat="42.70364" lon="1.6312">
        <ele>1638.083</ele>
        <time>2021-06-13T10:28:45Z</time>
      </trkpt>
      <trkpt lat="42.70363" lon="1.63121">
        <ele>1636.886</ele>
        <time>2021-06-13T10:28:47Z</time>
      </trkpt>
      <trkpt lat="42.70362" lon="1.63123">
        <ele>1636.919</ele>
        <time>2021-06-13T10:28:49Z</time>
      </trkpt>
      <trkpt lat="42.70361" lon="1.63124">
        <ele>1637.032</ele>
        <time>2021-06-13T10:28:51Z</time>
      </trkpt>
      <trkpt lat="42.7036" lon="1.63125">
        <ele>1636.905</ele>
        <time>2021-06-13T10:28:53Z</time>
      </trkpt>
      <trkpt lat="42.70358" lon="1.63127">
        <ele>1636.351</ele>
        <time>2021-06-13T10:28:55Z</time>
      </trkpt>
      <trkpt lat="42.70357" lon="1.63128">
        <ele>1636.557</ele>
        <time>2021-06-13T10:28:57Z</time>
      </trkpt>
      <trkpt lat="42.70356" lon="1.6313">
        <ele>1636.87</ele>
        <time>2021-06-13T10:28:59Z</time>
      </trkpt>
      <trkpt lat="42.70355" lon="1.63131">
        <ele>1637.274</ele>
        <time>2021-06-13T10:29:01Z</time>
      </trkpt>
      <trkpt lat="42.70355" lon="1.63133">
        <ele>1636.197</ele>
        <time>2021-06-13T10:29:03Z</time>
      </trkpt>
      <trkpt lat="42.70354" lon="1.63134">
        <ele>1636.43</ele>
        <time>2021-06-13T10:29:05Z</time>
      </trkpt>
      <trkpt lat="42.70353" lon="1.63136">
        <ele>1635.764</ele>
        <time>2021-06-13T10:29:07Z</time>
      </trkpt>
      <trkpt lat="42.70352" lon="1.63138">
        <ele>1636.547</ele>
        <time>2021-06-13T10:29:09Z</time>
      </trkpt>
      <trkpt lat="42.70352" lon="1.6314">
        <ele>1636.677</ele>
        <time>2021-06-13T10:29:11Z</time>
      </trkpt>
      <trkpt lat="42.70351" lon="1.63143">
        <ele>1636.757</ele>
        <time>2021-06-13T10:29:13Z</time>
      </trkpt>
      <trkpt lat="42.70351" lon="1.63146">
        <ele>1636.437</ele>
        <time>2021-06-13T10:29:15Z</time>
      </trkpt>
      <trkpt lat="42.70352" lon="1.63147">
        <ele>1635.194</ele>
        <time>2021-06-13T10:29:17Z</time>
      </trkpt>
      <trkpt lat="42.70353" lon="1.63149">
        <ele>1634.327</ele>
        <time>2021-06-13T10:29:19Z</time>
      </trkpt>
      <trkpt lat="42.70353" lon="1.6315">
        <ele>1634.231</ele>
        <time>2021-06-13T10:29:21Z</time>
      </trkpt>
      <trkpt lat="42.70354" lon="1.63151">
        <ele>1633.829</ele>
        <time>2021-06-13T10:29:23Z</time>
      </trkpt>
      <trkpt lat="42.70354" lon="1.63152">
        <ele>1633.412</ele>
        <time>2021-06-13T10:29:25Z</time>
      </trkpt>
      <trkpt lat="42.70354" lon="1.63153">
        <ele>1633.573</ele>
        <time>2021-06-13T10:29:27Z</time>
      </trkpt>
      <trkpt lat="42.70355" lon="1.63155">
        <ele>1632.923</ele>
        <time>2021-06-13T10:29:29Z</time>
      </trkpt>
      <trkpt lat="42.70355" lon="1.63156">
        <ele>1632.313</ele>
        <time>2021-06-13T10:29:31Z</time>
      </trkpt>
      <trkpt lat="42.70354" lon="1.63157">
        <ele>1632.483</ele>
        <time>2021-06-13T10:29:33Z</time>
      </trkpt>
      <trkpt lat="42.70354" lon="1.63158">
        <ele>1631.913</ele>
        <time>2021-06-13T10:29:35Z</time>
      </trkpt>
      <trkpt lat="42.70353" lon="1.63158">
        <ele>1631.521</ele>
        <time>2021-06-13T10:29:37Z</time>
      </trkpt>
      <trkpt lat="42.70352" lon="1.6316">
        <ele>1631.068</ele>
        <time>2021-06-13T10:29:39Z</time>
      </trkpt>
      <trkpt lat="42.70352" lon="1.63161">
        <ele>1630.232</ele>
        <time>2021-06-13T10:29:41Z</time>
      </trkpt>
      <trkpt lat="42.70352" lon="1.63162">
        <ele>1629.813</ele>
        <time>2021-06-13T10:29:43Z</time>
      </trkpt>
      <trkpt lat="42.70352" lon="1.63162">
        <ele>1629.818</ele>
        <time>2021-06-13T10:29:45Z</time>
      </trkpt>
      <trkpt lat="42.70351" lon="1.63162">
        <ele>1630</ele>
        <time>2021-06-13T10:29:47Z</time>
      </trkpt>
      <trkpt lat="42.7035" lon="1.63162">
        <ele>1630.444</ele>
        <time>2021-06-13T10:29:49Z</time>
      </trkpt>
      <trkpt lat="42.7035" lon="1.63162">
        <ele>1629.686</ele>
        <time>2021-06-13T10:29:51Z</time>
      </trkpt>
      <trkpt lat="42.70349" lon="1.63163">
        <ele>1629.533</ele>
        <time>2021-06-13T10:29:53Z</time>
      </trkpt>
      <trkpt lat="42.70349" lon="1.63164">
        <ele>1628.578</ele>
        <time>2021-06-13T10:29:55Z</time>
      </trkpt>
      <trkpt lat="42.70348" lon="1.63165">
        <ele>1627.671</ele>
        <time>2021-06-13T10:29:57Z</time>
      </trkpt>
      <trkpt lat="42.70348" lon="1.63166">
        <ele>1628.349</ele>
        <time>2021-06-13T10:29:59Z</time>
      </trkpt>
      <trkpt lat="42.70348" lon="1.63168">
        <ele>1628.135</ele>
        <time>2021-06-13T10:30:01Z</time>
      </trkpt>
      <trkpt lat="42.70348" lon="1.6317">
        <ele>1628.171</ele>
        <time>2021-06-13T10:30:03Z</time>
      </trkpt>
      <trkpt lat="42.70348" lon="1.63171">
        <ele>1628.765</ele>
        <time>2021-06-13T10:30:05Z</time>
      </trkpt>
      <trkpt lat="42.70347" lon="1.63172">
        <ele>1628.33</ele>
        <time>2021-06-13T10:30:07Z</time>
      </trkpt>
      <trkpt lat="42.70347" lon="1.63173">
        <ele>1627.651</ele>
        <time>2021-06-13T10:30:09Z</time>
      </trkpt>
      <trkpt lat="42.70346" lon="1.63175">
        <ele>1627.537</ele>
        <time>2021-06-13T10:30:11Z</time>
      </trkpt>
      <trkpt lat="42.70346" lon="1.63177">
        <ele>1626.272</ele>
        <time>2021-06-13T10:30:13Z</time>
      </trkpt>
      <trkpt lat="42.70346" lon="1.6318">
        <ele>1625.277</ele>
        <time>2021-06-13T10:30:15Z</time>
      </trkpt>
      <trkpt lat="42.70347" lon="1.63182">
        <ele>1624.614</ele>
        <time>2021-06-13T10:30:17Z</time>
      </trkpt>
      <trkpt lat="42.70348" lon="1.63184">
        <ele>1624.463</ele>
        <time>2021-06-13T10:30:19Z</time>
      </trkpt>
      <trkpt lat="42.70349" lon="1.63186">
        <ele>1624.382</ele>
        <time>2021-06-13T10:30:21Z</time>
      </trkpt>
      <trkpt lat="42.70348" lon="1.63189">
        <ele>1624.312</ele>
        <time>2021-06-13T10:30:23Z</time>
      </trkpt>
      <trkpt lat="42.70346" lon="1.63193">
        <ele>1624.586</ele>
        <time>2021-06-13T10:30:26Z</time>
      </trkpt>
      <trkpt lat="42.70346" lon="1.63193">
        <ele>1624.885</ele>
        <time>2021-06-13T10:30:28Z</time>
      </trkpt>
      <trkpt lat="42.70346" lon="1.63194">
        <ele>1625.12</ele>
        <time>2021-06-13T10:30:30Z</time>
      </trkpt>
      <trkpt lat="42.70346" lon="1.63194">
        <ele>1625.106</ele>
        <time>2021-06-13T10:30:32Z</time>
      </trkpt>
      <trkpt lat="42.70346" lon="1.63194">
        <ele>1625.098</ele>
        <time>2021-06-13T10:30:34Z</time>
      </trkpt>
      <trkpt lat="42.70346" lon="1.63194">
        <ele>1625.084</ele>
        <time>2021-06-13T10:30:36Z</time>
      </trkpt>
      <trkpt lat="42.70346" lon="1.63194">
        <ele>1625.079</ele>
        <time>2021-06-13T10:30:38Z</time>
      </trkpt>
      <trkpt lat="42.70345" lon="1.63195">
        <ele>1626.018</ele>
        <time>2021-06-13T10:30:40Z</time>
      </trkpt>
      <trkpt lat="42.70344" lon="1.63196">
        <ele>1625.913</ele>
        <time>2021-06-13T10:30:42Z</time>
      </trkpt>
      <trkpt lat="42.70344" lon="1.63197">
        <ele>1625.608</ele>
        <time>2021-06-13T10:30:44Z</time>
      </trkpt>
      <trkpt lat="42.70343" lon="1.63198">
        <ele>1626.349</ele>
        <time>2021-06-13T10:30:46Z</time>
      </trkpt>
      <trkpt lat="42.70342" lon="1.63199">
        <ele>1626.052</ele>
        <time>2021-06-13T10:30:48Z</time>
      </trkpt>
      <trkpt lat="42.70341" lon="1.632">
        <ele>1625.768</ele>
        <time>2021-06-13T10:30:50Z</time>
      </trkpt>
      <trkpt lat="42.7034" lon="1.63202">
        <ele>1625.505</ele>
        <time>2021-06-13T10:30:52Z</time>
      </trkpt>
      <trkpt lat="42.7034" lon="1.63204">
        <ele>1625.384</ele>
        <time>2021-06-13T10:30:54Z</time>
      </trkpt>
      <trkpt lat="42.70339" lon="1.63206">
        <ele>1625.502</ele>
        <time>2021-06-13T10:30:56Z</time>
      </trkpt>
      <trkpt lat="42.70338" lon="1.63207">
        <ele>1624.623</ele>
        <time>2021-06-13T10:30:58Z</time>
      </trkpt>
      <trkpt lat="42.70337" lon="1.63208">
        <ele>1624.561</ele>
        <time>2021-06-13T10:31:00Z</time>
      </trkpt>
      <trkpt lat="42.70335" lon="1.63209">
        <ele>1625.754</ele>
        <time>2021-06-13T10:31:02Z</time>
      </trkpt>
      <trkpt lat="42.70334" lon="1.63211">
        <ele>1627.069</ele>
        <time>2021-06-13T10:31:04Z</time>
      </trkpt>
      <trkpt lat="42.70333" lon="1.63212">
        <ele>1627.257</ele>
        <time>2021-06-13T10:31:06Z</time>
      </trkpt>
      <trkpt lat="42.70332" lon="1.63213">
        <ele>1626.944</ele>
        <time>2021-06-13T10:31:08Z</time>
      </trkpt>
      <trkpt lat="42.70332" lon="1.63214">
        <ele>1627.078</ele>
        <time>2021-06-13T10:31:10Z</time>
      </trkpt>
      <trkpt lat="42.70332" lon="1.63214">
        <ele>1626.701</ele>
        <time>2021-06-13T10:31:12Z</time>
      </trkpt>
      <trkpt lat="42.70331" lon="1.63215">
        <ele>1625.571</ele>
        <time>2021-06-13T10:31:14Z</time>
      </trkpt>
      <trkpt lat="42.70332" lon="1.63217">
        <ele>1624.725</ele>
        <time>2021-06-13T10:31:16Z</time>
      </trkpt>
      <trkpt lat="42.70332" lon="1.6322">
        <ele>1623.745</ele>
        <time>2021-06-13T10:31:18Z</time>
      </trkpt>
      <trkpt lat="42.70331" lon="1.63221">
        <ele>1624.274</ele>
        <time>2021-06-13T10:31:20Z</time>
      </trkpt>
      <trkpt lat="42.70331" lon="1.63223">
        <ele>1623.185</ele>
        <time>2021-06-13T10:31:22Z</time>
      </trkpt>
      <trkpt lat="42.70332" lon="1.63224">
        <ele>1622.523</ele>
        <time>2021-06-13T10:31:24Z</time>
      </trkpt>
      <trkpt lat="42.70332" lon="1.63225">
        <ele>1622.272</ele>
        <time>2021-06-13T10:31:26Z</time>
      </trkpt>
      <trkpt lat="42.70332" lon="1.63226">
        <ele>1622.208</ele>
        <time>2021-06-13T10:31:28Z</time>
      </trkpt>
      <trkpt lat="42.70332" lon="1.63228">
        <ele>1621.92</ele>
        <time>2021-06-13T10:31:30Z</time>
      </trkpt>
      <trkpt lat="42.70332" lon="1.6323">
        <ele>1621.803</ele>
        <time>2021-06-13T10:31:32Z</time>
      </trkpt>
      <trkpt lat="42.70331" lon="1.63233">
        <ele>1621.751</ele>
        <time>2021-06-13T10:31:34Z</time>
      </trkpt>
      <trkpt lat="42.7033" lon="1.63235">
        <ele>1621.242</ele>
        <time>2021-06-13T10:31:36Z</time>
      </trkpt>
      <trkpt lat="42.7033" lon="1.63237">
        <ele>1620.928</ele>
        <time>2021-06-13T10:31:38Z</time>
      </trkpt>
      <trkpt lat="42.70329" lon="1.63238">
        <ele>1621.182</ele>
        <time>2021-06-13T10:31:40Z</time>
      </trkpt>
      <trkpt lat="42.70327" lon="1.6324">
        <ele>1622.059</ele>
        <time>2021-06-13T10:31:42Z</time>
      </trkpt>
      <trkpt lat="42.70326" lon="1.63241">
        <ele>1623.09</ele>
        <time>2021-06-13T10:31:44Z</time>
      </trkpt>
      <trkpt lat="42.70325" lon="1.63242">
        <ele>1623.37</ele>
        <time>2021-06-13T10:31:46Z</time>
      </trkpt>
      <trkpt lat="42.70324" lon="1.63245">
        <ele>1624.399</ele>
        <time>2021-06-13T10:31:48Z</time>
      </trkpt>
      <trkpt lat="42.70324" lon="1.63247">
        <ele>1624.713</ele>
        <time>2021-06-13T10:31:50Z</time>
      </trkpt>
      <trkpt lat="42.70325" lon="1.63249">
        <ele>1624.649</ele>
        <time>2021-06-13T10:31:52Z</time>
      </trkpt>
      <trkpt lat="42.70326" lon="1.63251">
        <ele>1623.633</ele>
        <time>2021-06-13T10:31:54Z</time>
      </trkpt>
      <trkpt lat="42.70327" lon="1.63253">
        <ele>1623.985</ele>
        <time>2021-06-13T10:31:56Z</time>
      </trkpt>
      <trkpt lat="42.70327" lon="1.63255">
        <ele>1623.488</ele>
        <time>2021-06-13T10:31:58Z</time>
      </trkpt>
      <trkpt lat="42.70328" lon="1.63257">
        <ele>1622.714</ele>
        <time>2021-06-13T10:32:00Z</time>
      </trkpt>
      <trkpt lat="42.7033" lon="1.63258">
        <ele>1622.178</ele>
        <time>2021-06-13T10:32:02Z</time>
      </trkpt>
      <trkpt lat="42.70331" lon="1.6326">
        <ele>1622.679</ele>
        <time>2021-06-13T10:32:04Z</time>
      </trkpt>
      <trkpt lat="42.70333" lon="1.63262">
        <ele>1621.386</ele>
        <time>2021-06-13T10:32:06Z</time>
      </trkpt>
      <trkpt lat="42.70334" lon="1.63264">
        <ele>1621.509</ele>
        <time>2021-06-13T10:32:08Z</time>
      </trkpt>
      <trkpt lat="42.70336" lon="1.63265">
        <ele>1620.95</ele>
        <time>2021-06-13T10:32:10Z</time>
      </trkpt>
      <trkpt lat="42.70338" lon="1.63265">
        <ele>1621.755</ele>
        <time>2021-06-13T10:32:12Z</time>
      </trkpt>
      <trkpt lat="42.70339" lon="1.63263">
        <ele>1622.049</ele>
        <time>2021-06-13T10:32:14Z</time>
      </trkpt>
      <trkpt lat="42.70341" lon="1.63262">
        <ele>1622.955</ele>
        <time>2021-06-13T10:32:16Z</time>
      </trkpt>
      <trkpt lat="42.70342" lon="1.63262">
        <ele>1623.043</ele>
        <time>2021-06-13T10:32:18Z</time>
      </trkpt>
      <trkpt lat="42.70343" lon="1.63261">
        <ele>1622.588</ele>
        <time>2021-06-13T10:32:20Z</time>
      </trkpt>
      <trkpt lat="42.70344" lon="1.63259">
        <ele>1622.204</ele>
        <time>2021-06-13T10:32:22Z</time>
      </trkpt>
      <trkpt lat="42.70345" lon="1.63256">
        <ele>1621.292</ele>
        <time>2021-06-13T10:32:24Z</time>
      </trkpt>
      <trkpt lat="42.70344" lon="1.63253">
        <ele>1621.26</ele>
        <time>2021-06-13T10:32:26Z</time>
      </trkpt>
      <trkpt lat="42.70344" lon="1.6325">
        <ele>1621.535</ele>
        <time>2021-06-13T10:32:28Z</time>
      </trkpt>
      <trkpt lat="42.70344" lon="1.63247">
        <ele>1622.37</ele>
        <time>2021-06-13T10:32:30Z</time>
      </trkpt>
      <trkpt lat="42.70345" lon="1.63244">
        <ele>1621.959</ele>
        <time>2021-06-13T10:32:32Z</time>
      </trkpt>
      <trkpt lat="42.70345" lon="1.63241">
        <ele>1622.65</ele>
        <time>2021-06-13T10:32:34Z</time>
      </trkpt>
      <trkpt lat="42.70346" lon="1.63239">
        <ele>1622.719</ele>
        <time>2021-06-13T10:32:36Z</time>
      </trkpt>
      <trkpt lat="42.70348" lon="1.63238">
        <ele>1622.826</ele>
        <time>2021-06-13T10:32:38Z</time>
      </trkpt>
      <trkpt lat="42.7035" lon="1.63237">
        <ele>1621.922</ele>
        <time>2021-06-13T10:32:40Z</time>
      </trkpt>
      <trkpt lat="42.70351" lon="1.63235">
        <ele>1622.052</ele>
        <time>2021-06-13T10:32:42Z</time>
      </trkpt>
      <trkpt lat="42.70352" lon="1.63233">
        <ele>1621.826</ele>
        <time>2021-06-13T10:32:44Z</time>
      </trkpt>
      <trkpt lat="42.70353" lon="1.63231">
        <ele>1621.706</ele>
        <time>2021-06-13T10:32:46Z</time>
      </trkpt>
      <trkpt lat="42.70354" lon="1.63229">
        <ele>1622.133</ele>
        <time>2021-06-13T10:32:48Z</time>
      </trkpt>
      <trkpt lat="42.70355" lon="1.63227">
        <ele>1622.277</ele>
        <time>2021-06-13T10:32:50Z</time>
      </trkpt>
      <trkpt lat="42.70355" lon="1.63225">
        <ele>1622.685</ele>
        <time>2021-06-13T10:32:52Z</time>
      </trkpt>
      <trkpt lat="42.70356" lon="1.63223">
        <ele>1623.042</ele>
        <time>2021-06-13T10:32:54Z</time>
      </trkpt>
      <trkpt lat="42.70357" lon="1.63221">
        <ele>1623.219</ele>
        <time>2021-06-13T10:32:56Z</time>
      </trkpt>
      <trkpt lat="42.70357" lon="1.63218">
        <ele>1622.702</ele>
        <time>2021-06-13T10:32:58Z</time>
      </trkpt>
      <trkpt lat="42.70357" lon="1.63216">
        <ele>1622.811</ele>
        <time>2021-06-13T10:33:00Z</time>
      </trkpt>
      <trkpt lat="42.70356" lon="1.63214">
        <ele>1622.701</ele>
        <time>2021-06-13T10:33:02Z</time>
      </trkpt>
      <trkpt lat="42.70356" lon="1.63212">
        <ele>1623.508</ele>
        <time>2021-06-13T10:33:04Z</time>
      </trkpt>
      <trkpt lat="42.70357" lon="1.6321">
        <ele>1623.379</ele>
        <time>2021-06-13T10:33:06Z</time>
      </trkpt>
      <trkpt lat="42.70356" lon="1.63208">
        <ele>1623.96</ele>
        <time>2021-06-13T10:33:08Z</time>
      </trkpt>
      <trkpt lat="42.70356" lon="1.63207">
        <ele>1623.952</ele>
        <time>2021-06-13T10:33:10Z</time>
      </trkpt>
      <trkpt lat="42.70357" lon="1.63206">
        <ele>1623.863</ele>
        <time>2021-06-13T10:33:12Z</time>
      </trkpt>
      <trkpt lat="42.70356" lon="1.63205">
        <ele>1623.734</ele>
        <time>2021-06-13T10:33:14Z</time>
      </trkpt>
      <trkpt lat="42.70356" lon="1.63205">
        <ele>1623.73</ele>
        <time>2021-06-13T10:33:16Z</time>
      </trkpt>
      <trkpt lat="42.70356" lon="1.63205">
        <ele>1623.547</ele>
        <time>2021-06-13T10:33:18Z</time>
      </trkpt>
      <trkpt lat="42.70356" lon="1.63205">
        <ele>1623.428</ele>
        <time>2021-06-13T10:33:20Z</time>
      </trkpt>
      <trkpt lat="42.70356" lon="1.63205">
        <ele>1623.429</ele>
        <time>2021-06-13T10:33:22Z</time>
      </trkpt>
      <trkpt lat="42.70356" lon="1.63205">
        <ele>1623.43</ele>
        <time>2021-06-13T10:33:24Z</time>
      </trkpt>
      <trkpt lat="42.70356" lon="1.63205">
        <ele>1623.437</ele>
        <time>2021-06-13T10:33:26Z</time>
      </trkpt>
      <trkpt lat="42.70356" lon="1.63205">
        <ele>1623.414</ele>
        <time>2021-06-13T10:33:28Z</time>
      </trkpt>
      <trkpt lat="42.70356" lon="1.63205">
        <ele>1623.428</ele>
        <time>2021-06-13T10:33:30Z</time>
      </trkpt>
      <trkpt lat="42.70356" lon="1.63205">
        <ele>1623.428</ele>
        <time>2021-06-13T10:33:32Z</time>
      </trkpt>
      <trkpt lat="42.70356" lon="1.63205">
        <ele>1623.431</ele>
        <time>2021-06-13T10:33:34Z</time>
      </trkpt>
      <trkpt lat="42.70356" lon="1.63205">
        <ele>1623.656</ele>
        <time>2021-06-13T10:33:36Z</time>
      </trkpt>
      <trkpt lat="42.70356" lon="1.63205">
        <ele>1623.83</ele>
        <time>2021-06-13T10:33:38Z</time>
      </trkpt>
      <trkpt lat="42.70356" lon="1.63205">
        <ele>1623.229</ele>
        <time>2021-06-13T10:33:40Z</time>
      </trkpt>
      <trkpt lat="42.70355" lon="1.63205">
        <ele>1623.422</ele>
        <time>2021-06-13T10:33:42Z</time>
      </trkpt>
      <trkpt lat="42.70355" lon="1.63204">
        <ele>1623.422</ele>
        <time>2021-06-13T10:33:44Z</time>
      </trkpt>
      <trkpt lat="42.70355" lon="1.63205">
        <ele>1623.307</ele>
        <time>2021-06-13T10:33:47Z</time>
      </trkpt>
      <trkpt lat="42.70356" lon="1.63204">
        <ele>1622.937</ele>
        <time>2021-06-13T10:33:49Z</time>
      </trkpt>
      <trkpt lat="42.70356" lon="1.63203">
        <ele>1622.835</ele>
        <time>2021-06-13T10:33:51Z</time>
      </trkpt>
      <trkpt lat="42.70356" lon="1.63203">
        <ele>1622.651</ele>
        <time>2021-06-13T10:33:53Z</time>
      </trkpt>
      <trkpt lat="42.70356" lon="1.63203">
        <ele>1622.645</ele>
        <time>2021-06-13T10:33:55Z</time>
      </trkpt>
      <trkpt lat="42.70356" lon="1.63203">
        <ele>1622.636</ele>
        <time>2021-06-13T10:33:57Z</time>
      </trkpt>
      <trkpt lat="42.70356" lon="1.63203">
        <ele>1622.644</ele>
        <time>2021-06-13T10:33:59Z</time>
      </trkpt>
      <trkpt lat="42.70356" lon="1.63203">
        <ele>1622.652</ele>
        <time>2021-06-13T10:34:01Z</time>
      </trkpt>
      <trkpt lat="42.70356" lon="1.63203">
        <ele>1622.635</ele>
        <time>2021-06-13T10:34:03Z</time>
      </trkpt>
      <trkpt lat="42.70356" lon="1.63203">
        <ele>1622.643</ele>
        <time>2021-06-13T10:34:05Z</time>
      </trkpt>
      <trkpt lat="42.70356" lon="1.63203">
        <ele>1622.635</ele>
        <time>2021-06-13T10:34:07Z</time>
      </trkpt>
      <trkpt lat="42.70356" lon="1.63203">
        <ele>1622.199</ele>
        <time>2021-06-13T10:34:09Z</time>
      </trkpt>
      <trkpt lat="42.70356" lon="1.63202">
        <ele>1622.193</ele>
        <time>2021-06-13T10:34:11Z</time>
      </trkpt>
      <trkpt lat="42.70355" lon="1.63203">
        <ele>1621.865</ele>
        <time>2021-06-13T10:34:13Z</time>
      </trkpt>
      <trkpt lat="42.70355" lon="1.63203">
        <ele>1621.852</ele>
        <time>2021-06-13T10:34:15Z</time>
      </trkpt>
      <trkpt lat="42.70355" lon="1.63203">
        <ele>1621.848</ele>
        <time>2021-06-13T10:34:17Z</time>
      </trkpt>
      <trkpt lat="42.70355" lon="1.63203">
        <ele>1621.841</ele>
        <time>2021-06-13T10:34:19Z</time>
      </trkpt>
      <trkpt lat="42.70355" lon="1.63203">
        <ele>1621.838</ele>
        <time>2021-06-13T10:34:21Z</time>
      </trkpt>
      <trkpt lat="42.70355" lon="1.63203">
        <ele>1621.841</ele>
        <time>2021-06-13T10:34:23Z</time>
      </trkpt>
      <trkpt lat="42.70355" lon="1.63203">
        <ele>1621.84</ele>
        <time>2021-06-13T10:34:25Z</time>
      </trkpt>
      <trkpt lat="42.70355" lon="1.63203">
        <ele>1621.847</ele>
        <time>2021-06-13T10:34:27Z</time>
      </trkpt>
      <trkpt lat="42.70355" lon="1.63203">
        <ele>1621.849</ele>
        <time>2021-06-13T10:34:29Z</time>
      </trkpt>
      <trkpt lat="42.70355" lon="1.63203">
        <ele>1621.846</ele>
        <time>2021-06-13T10:34:31Z</time>
      </trkpt>
      <trkpt lat="42.70355" lon="1.63203">
        <ele>1621.847</ele>
        <time>2021-06-13T10:34:33Z</time>
      </trkpt>
      <trkpt lat="42.70355" lon="1.63203">
        <ele>1621.853</ele>
        <time>2021-06-13T10:34:35Z</time>
      </trkpt>
      <trkpt lat="42.70355" lon="1.63203">
        <ele>1622.293</ele>
        <time>2021-06-13T10:34:37Z</time>
      </trkpt>
      <trkpt lat="42.70355" lon="1.63203">
        <ele>1622.309</ele>
        <time>2021-06-13T10:34:39Z</time>
      </trkpt>
      <trkpt lat="42.70355" lon="1.63203">
        <ele>1622.313</ele>
        <time>2021-06-13T10:34:41Z</time>
      </trkpt>
      <trkpt lat="42.70355" lon="1.63203">
        <ele>1622.495</ele>
        <time>2021-06-13T10:34:43Z</time>
      </trkpt>
      <trkpt lat="42.70355" lon="1.63203">
        <ele>1622.71</ele>
        <time>2021-06-13T10:34:45Z</time>
      </trkpt>
      <trkpt lat="42.70355" lon="1.63203">
        <ele>1622.709</ele>
        <time>2021-06-13T10:34:47Z</time>
      </trkpt>
      <trkpt lat="42.70355" lon="1.63203">
        <ele>1622.704</ele>
        <time>2021-06-13T10:34:49Z</time>
      </trkpt>
      <trkpt lat="42.70355" lon="1.63203">
        <ele>1622.703</ele>
        <time>2021-06-13T10:34:51Z</time>
      </trkpt>
      <trkpt lat="42.70355" lon="1.63203">
        <ele>1622.703</ele>
        <time>2021-06-13T10:34:53Z</time>
      </trkpt>
      <trkpt lat="42.70355" lon="1.63203">
        <ele>1622.661</ele>
        <time>2021-06-13T10:34:55Z</time>
      </trkpt>
      <trkpt lat="42.70355" lon="1.63203">
        <ele>1622.66</ele>
        <time>2021-06-13T10:34:57Z</time>
      </trkpt>
      <trkpt lat="42.70355" lon="1.63203">
        <ele>1622.665</ele>
        <time>2021-06-13T10:34:59Z</time>
      </trkpt>
      <trkpt lat="42.70355" lon="1.63203">
        <ele>1622.682</ele>
        <time>2021-06-13T10:35:01Z</time>
      </trkpt>
      <trkpt lat="42.70355" lon="1.63203">
        <ele>1622.681</ele>
        <time>2021-06-13T10:35:03Z</time>
      </trkpt>
      <trkpt lat="42.70355" lon="1.63203">
        <ele>1622.68</ele>
        <time>2021-06-13T10:35:05Z</time>
      </trkpt>
      <trkpt lat="42.70355" lon="1.63203">
        <ele>1622.677</ele>
        <time>2021-06-13T10:35:07Z</time>
      </trkpt>
      <trkpt lat="42.70355" lon="1.63203">
        <ele>1622.676</ele>
        <time>2021-06-13T10:35:09Z</time>
      </trkpt>
      <trkpt lat="42.70355" lon="1.63203">
        <ele>1622.678</ele>
        <time>2021-06-13T10:35:11Z</time>
      </trkpt>
      <trkpt lat="42.70355" lon="1.63203">
        <ele>1622.685</ele>
        <time>2021-06-13T10:35:13Z</time>
      </trkpt>
      <trkpt lat="42.70355" lon="1.63203">
        <ele>1622.693</ele>
        <time>2021-06-13T10:35:15Z</time>
      </trkpt>
      <trkpt lat="42.70355" lon="1.63203">
        <ele>1622.692</ele>
        <time>2021-06-13T10:35:17Z</time>
      </trkpt>
      <trkpt lat="42.70355" lon="1.63203">
        <ele>1622.693</ele>
        <time>2021-06-13T10:35:19Z</time>
      </trkpt>
      <trkpt lat="42.70355" lon="1.63203">
        <ele>1622.694</ele>
        <time>2021-06-13T10:35:21Z</time>
      </trkpt>
      <trkpt lat="42.70355" lon="1.63203">
        <ele>1622.692</ele>
        <time>2021-06-13T10:35:23Z</time>
      </trkpt>
      <trkpt lat="42.70355" lon="1.63203">
        <ele>1622.693</ele>
        <time>2021-06-13T10:35:25Z</time>
      </trkpt>
      <trkpt lat="42.70355" lon="1.63203">
        <ele>1622.691</ele>
        <time>2021-06-13T10:35:27Z</time>
      </trkpt>
      <trkpt lat="42.70355" lon="1.63203">
        <ele>1622.692</ele>
        <time>2021-06-13T10:35:29Z</time>
      </trkpt>
      <trkpt lat="42.70355" lon="1.63203">
        <ele>1622.691</ele>
        <time>2021-06-13T10:35:31Z</time>
      </trkpt>
      <trkpt lat="42.70355" lon="1.63203">
        <ele>1622.69</ele>
        <time>2021-06-13T10:35:33Z</time>
      </trkpt>
      <trkpt lat="42.70355" lon="1.63203">
        <ele>1622.686</ele>
        <time>2021-06-13T10:35:35Z</time>
      </trkpt>
      <trkpt lat="42.70355" lon="1.63203">
        <ele>1622.69</ele>
        <time>2021-06-13T10:35:37Z</time>
      </trkpt>
      <trkpt lat="42.70355" lon="1.63203">
        <ele>1622.688</ele>
        <time>2021-06-13T10:35:39Z</time>
      </trkpt>
      <trkpt lat="42.70355" lon="1.63203">
        <ele>1622.688</ele>
        <time>2021-06-13T10:35:41Z</time>
      </trkpt>
      <trkpt lat="42.70355" lon="1.63203">
        <ele>1622.683</ele>
        <time>2021-06-13T10:35:43Z</time>
      </trkpt>
      <trkpt lat="42.70355" lon="1.63203">
        <ele>1622.685</ele>
        <time>2021-06-13T10:35:45Z</time>
      </trkpt>
      <trkpt lat="42.70355" lon="1.63203">
        <ele>1622.687</ele>
        <time>2021-06-13T10:35:47Z</time>
      </trkpt>
      <trkpt lat="42.70355" lon="1.63203">
        <ele>1622.688</ele>
        <time>2021-06-13T10:35:49Z</time>
      </trkpt>
      <trkpt lat="42.70355" lon="1.63203">
        <ele>1622.079</ele>
        <time>2021-06-13T10:35:51Z</time>
      </trkpt>
      <trkpt lat="42.70355" lon="1.63203">
        <ele>1622.078</ele>
        <time>2021-06-13T10:35:53Z</time>
      </trkpt>
      <trkpt lat="42.70355" lon="1.63203">
        <ele>1622.082</ele>
        <time>2021-06-13T10:35:55Z</time>
      </trkpt>
      <trkpt lat="42.70355" lon="1.63203">
        <ele>1622.083</ele>
        <time>2021-06-13T10:35:57Z</time>
      </trkpt>
      <trkpt lat="42.70355" lon="1.63203">
        <ele>1622.021</ele>
        <time>2021-06-13T10:35:59Z</time>
      </trkpt>
      <trkpt lat="42.70355" lon="1.63203">
        <ele>1621.968</ele>
        <time>2021-06-13T10:36:01Z</time>
      </trkpt>
      <trkpt lat="42.70356" lon="1.63202">
        <ele>1621.547</ele>
        <time>2021-06-13T10:36:03Z</time>
      </trkpt>
      <trkpt lat="42.70356" lon="1.63202">
        <ele>1621.526</ele>
        <time>2021-06-13T10:36:05Z</time>
      </trkpt>
      <trkpt lat="42.70356" lon="1.63202">
        <ele>1621.512</ele>
        <time>2021-06-13T10:36:07Z</time>
      </trkpt>
      <trkpt lat="42.70356" lon="1.63202">
        <ele>1621.513</ele>
        <time>2021-06-13T10:36:09Z</time>
      </trkpt>
      <trkpt lat="42.70356" lon="1.63202">
        <ele>1621.509</ele>
        <time>2021-06-13T10:36:11Z</time>
      </trkpt>
      <trkpt lat="42.70356" lon="1.63202">
        <ele>1621.606</ele>
        <time>2021-06-13T10:36:13Z</time>
      </trkpt>
      <trkpt lat="42.70356" lon="1.63202">
        <ele>1622.183</ele>
        <time>2021-06-13T10:36:15Z</time>
      </trkpt>
      <trkpt lat="42.70356" lon="1.63202">
        <ele>1621.85</ele>
        <time>2021-06-13T10:36:17Z</time>
      </trkpt>
      <trkpt lat="42.70356" lon="1.63203">
        <ele>1621.851</ele>
        <time>2021-06-13T10:36:19Z</time>
      </trkpt>
      <trkpt lat="42.70356" lon="1.63203">
        <ele>1621.856</ele>
        <time>2021-06-13T10:36:21Z</time>
      </trkpt>
      <trkpt lat="42.70356" lon="1.63203">
        <ele>1621.891</ele>
        <time>2021-06-13T10:36:23Z</time>
      </trkpt>
      <trkpt lat="42.70355" lon="1.63202">
        <ele>1621.773</ele>
        <time>2021-06-13T10:36:25Z</time>
      </trkpt>
      <trkpt lat="42.70355" lon="1.63202">
        <ele>1621.761</ele>
        <time>2021-06-13T10:36:27Z</time>
      </trkpt>
      <trkpt lat="42.70355" lon="1.63202">
        <ele>1621.11</ele>
        <time>2021-06-13T10:36:29Z</time>
      </trkpt>
      <trkpt lat="42.70355" lon="1.63203">
        <ele>1621.263</ele>
        <time>2021-06-13T10:36:31Z</time>
      </trkpt>
      <trkpt lat="42.70355" lon="1.63203">
        <ele>1621.266</ele>
        <time>2021-06-13T10:36:33Z</time>
      </trkpt>
      <trkpt lat="42.70355" lon="1.63203">
        <ele>1621.261</ele>
        <time>2021-06-13T10:36:35Z</time>
      </trkpt>
      <trkpt lat="42.70355" lon="1.63203">
        <ele>1621.258</ele>
        <time>2021-06-13T10:36:37Z</time>
      </trkpt>
      <trkpt lat="42.70356" lon="1.63203">
        <ele>1621.431</ele>
        <time>2021-06-13T10:36:39Z</time>
      </trkpt>
      <trkpt lat="42.70356" lon="1.63203">
        <ele>1621.574</ele>
        <time>2021-06-13T10:36:41Z</time>
      </trkpt>
      <trkpt lat="42.70356" lon="1.63202">
        <ele>1621.615</ele>
        <time>2021-06-13T10:36:43Z</time>
      </trkpt>
      <trkpt lat="42.70356" lon="1.63202">
        <ele>1621.614</ele>
        <time>2021-06-13T10:36:45Z</time>
      </trkpt>
      <trkpt lat="42.70356" lon="1.63202">
        <ele>1621.67</ele>
        <time>2021-06-13T10:36:47Z</time>
      </trkpt>
      <trkpt lat="42.70356" lon="1.63202">
        <ele>1621.36</ele>
        <time>2021-06-13T10:36:49Z</time>
      </trkpt>
      <trkpt lat="42.70356" lon="1.63202">
        <ele>1621.376</ele>
        <time>2021-06-13T10:36:51Z</time>
      </trkpt>
      <trkpt lat="42.70355" lon="1.63202">
        <ele>1621.383</ele>
        <time>2021-06-13T10:36:53Z</time>
      </trkpt>
      <trkpt lat="42.70356" lon="1.63202">
        <ele>1621.026</ele>
        <time>2021-06-13T10:36:55Z</time>
      </trkpt>
      <trkpt lat="42.70356" lon="1.63202">
        <ele>1621.712</ele>
        <time>2021-06-13T10:36:57Z</time>
      </trkpt>
      <trkpt lat="42.70356" lon="1.63202">
        <ele>1621.718</ele>
        <time>2021-06-13T10:36:59Z</time>
      </trkpt>
      <trkpt lat="42.70356" lon="1.63202">
        <ele>1621.717</ele>
        <time>2021-06-13T10:37:01Z</time>
      </trkpt>
      <trkpt lat="42.70356" lon="1.63202">
        <ele>1621.718</ele>
        <time>2021-06-13T10:37:03Z</time>
      </trkpt>
      <trkpt lat="42.70356" lon="1.63202">
        <ele>1621.72</ele>
        <time>2021-06-13T10:37:05Z</time>
      </trkpt>
      <trkpt lat="42.70356" lon="1.63202">
        <ele>1621.721</ele>
        <time>2021-06-13T10:37:07Z</time>
      </trkpt>
      <trkpt lat="42.70356" lon="1.63202">
        <ele>1621.726</ele>
        <time>2021-06-13T10:37:09Z</time>
      </trkpt>
      <trkpt lat="42.70356" lon="1.63202">
        <ele>1621.728</ele>
        <time>2021-06-13T10:37:11Z</time>
      </trkpt>
      <trkpt lat="42.70356" lon="1.63202">
        <ele>1621.729</ele>
        <time>2021-06-13T10:37:13Z</time>
      </trkpt>
      <trkpt lat="42.70356" lon="1.63202">
        <ele>1621.727</ele>
        <time>2021-06-13T10:37:15Z</time>
      </trkpt>
      <trkpt lat="42.70356" lon="1.63202">
        <ele>1621.726</ele>
        <time>2021-06-13T10:37:17Z</time>
      </trkpt>
      <trkpt lat="42.70356" lon="1.63202">
        <ele>1621.725</ele>
        <time>2021-06-13T10:37:19Z</time>
      </trkpt>
      <trkpt lat="42.70356" lon="1.63202">
        <ele>1621.727</ele>
        <time>2021-06-13T10:37:21Z</time>
      </trkpt>
      <trkpt lat="42.70356" lon="1.63202">
        <ele>1621.728</ele>
        <time>2021-06-13T10:37:23Z</time>
      </trkpt>
      <trkpt lat="42.70356" lon="1.63202">
        <ele>1621.729</ele>
        <time>2021-06-13T10:37:25Z</time>
      </trkpt>
      <trkpt lat="42.70356" lon="1.63202">
        <ele>1621.729</ele>
        <time>2021-06-13T10:37:27Z</time>
      </trkpt>
      <trkpt lat="42.70356" lon="1.63202">
        <ele>1621.728</ele>
        <time>2021-06-13T10:37:29Z</time>
      </trkpt>
      <trkpt lat="42.70356" lon="1.63202">
        <ele>1621.726</ele>
        <time>2021-06-13T10:37:31Z</time>
      </trkpt>
      <trkpt lat="42.70356" lon="1.63202">
        <ele>1621.725</ele>
        <time>2021-06-13T10:37:33Z</time>
      </trkpt>
      <trkpt lat="42.70356" lon="1.63202">
        <ele>1621.727</ele>
        <time>2021-06-13T10:37:35Z</time>
      </trkpt>
      <trkpt lat="42.70356" lon="1.63202">
        <ele>1621.729</ele>
        <time>2021-06-13T10:37:37Z</time>
      </trkpt>
      <trkpt lat="42.70356" lon="1.63202">
        <ele>1621.724</ele>
        <time>2021-06-13T10:37:39Z</time>
      </trkpt>
      <trkpt lat="42.70356" lon="1.63202">
        <ele>1621.727</ele>
        <time>2021-06-13T10:37:41Z</time>
      </trkpt>
      <trkpt lat="42.70356" lon="1.63202">
        <ele>1621.728</ele>
        <time>2021-06-13T10:37:43Z</time>
      </trkpt>
      <trkpt lat="42.70356" lon="1.63202">
        <ele>1621.722</ele>
        <time>2021-06-13T10:37:45Z</time>
      </trkpt>
      <trkpt lat="42.70356" lon="1.63202">
        <ele>1621.725</ele>
        <time>2021-06-13T10:37:47Z</time>
      </trkpt>
      <trkpt lat="42.70356" lon="1.63202">
        <ele>1621.727</ele>
        <time>2021-06-13T10:37:49Z</time>
      </trkpt>
      <trkpt lat="42.70356" lon="1.63202">
        <ele>1621.73</ele>
        <time>2021-06-13T10:37:51Z</time>
      </trkpt>
      <trkpt lat="42.70356" lon="1.63202">
        <ele>1621.727</ele>
        <time>2021-06-13T10:37:53Z</time>
      </trkpt>
      <trkpt lat="42.70356" lon="1.63202">
        <ele>1621.721</ele>
        <time>2021-06-13T10:37:55Z</time>
      </trkpt>
      <trkpt lat="42.70356" lon="1.63202">
        <ele>1621.721</ele>
        <time>2021-06-13T10:37:57Z</time>
      </trkpt>
      <trkpt lat="42.70356" lon="1.63202">
        <ele>1621.722</ele>
        <time>2021-06-13T10:37:59Z</time>
      </trkpt>
      <trkpt lat="42.70356" lon="1.63202">
        <ele>1621.724</ele>
        <time>2021-06-13T10:38:01Z</time>
      </trkpt>
      <trkpt lat="42.70356" lon="1.63202">
        <ele>1621.725</ele>
        <time>2021-06-13T10:38:03Z</time>
      </trkpt>
      <trkpt lat="42.70356" lon="1.63202">
        <ele>1621.727</ele>
        <time>2021-06-13T10:38:05Z</time>
      </trkpt>
      <trkpt lat="42.70356" lon="1.63202">
        <ele>1621.726</ele>
        <time>2021-06-13T10:38:07Z</time>
      </trkpt>
      <trkpt lat="42.70356" lon="1.63202">
        <ele>1621.724</ele>
        <time>2021-06-13T10:38:09Z</time>
      </trkpt>
      <trkpt lat="42.70356" lon="1.63202">
        <ele>1621.724</ele>
        <time>2021-06-13T10:38:11Z</time>
      </trkpt>
      <trkpt lat="42.70356" lon="1.63202">
        <ele>1621.728</ele>
        <time>2021-06-13T10:38:13Z</time>
      </trkpt>
      <trkpt lat="42.70356" lon="1.63202">
        <ele>1621.727</ele>
        <time>2021-06-13T10:38:15Z</time>
      </trkpt>
      <trkpt lat="42.70356" lon="1.63202">
        <ele>1621.729</ele>
        <time>2021-06-13T10:38:17Z</time>
      </trkpt>
      <trkpt lat="42.70356" lon="1.63202">
        <ele>1621.731</ele>
        <time>2021-06-13T10:38:19Z</time>
      </trkpt>
      <trkpt lat="42.70356" lon="1.63202">
        <ele>1621.732</ele>
        <time>2021-06-13T10:38:21Z</time>
      </trkpt>
      <trkpt lat="42.70356" lon="1.63202">
        <ele>1621.731</ele>
        <time>2021-06-13T10:38:23Z</time>
      </trkpt>
      <trkpt lat="42.70356" lon="1.63202">
        <ele>1621.733</ele>
        <time>2021-06-13T10:38:25Z</time>
      </trkpt>
      <trkpt lat="42.70356" lon="1.63202">
        <ele>1621.734</ele>
        <time>2021-06-13T10:38:27Z</time>
      </trkpt>
      <trkpt lat="42.70356" lon="1.63202">
        <ele>1621.729</ele>
        <time>2021-06-13T10:38:29Z</time>
      </trkpt>
      <trkpt lat="42.70356" lon="1.63202">
        <ele>1621.726</ele>
        <time>2021-06-13T10:38:31Z</time>
      </trkpt>
      <trkpt lat="42.70356" lon="1.63202">
        <ele>1621.727</ele>
        <time>2021-06-13T10:38:33Z</time>
      </trkpt>
      <trkpt lat="42.70356" lon="1.63202">
        <ele>1621.729</ele>
        <time>2021-06-13T10:38:35Z</time>
      </trkpt>
      <trkpt lat="42.70356" lon="1.63202">
        <ele>1621.731</ele>
        <time>2021-06-13T10:38:37Z</time>
      </trkpt>
      <trkpt lat="42.70356" lon="1.63202">
        <ele>1621.736</ele>
        <time>2021-06-13T10:38:39Z</time>
      </trkpt>
      <trkpt lat="42.70356" lon="1.63202">
        <ele>1621.741</ele>
        <time>2021-06-13T10:38:41Z</time>
      </trkpt>
      <trkpt lat="42.70356" lon="1.63202">
        <ele>1621.741</ele>
        <time>2021-06-13T10:38:43Z</time>
      </trkpt>
      <trkpt lat="42.70356" lon="1.63202">
        <ele>1621.74</ele>
        <time>2021-06-13T10:38:45Z</time>
      </trkpt>
      <trkpt lat="42.70356" lon="1.63202">
        <ele>1621.736</ele>
        <time>2021-06-13T10:38:47Z</time>
      </trkpt>
      <trkpt lat="42.70356" lon="1.63202">
        <ele>1621.737</ele>
        <time>2021-06-13T10:38:49Z</time>
      </trkpt>
      <trkpt lat="42.70356" lon="1.63202">
        <ele>1621.738</ele>
        <time>2021-06-13T10:38:51Z</time>
      </trkpt>
      <trkpt lat="42.70356" lon="1.63202">
        <ele>1621.74</ele>
        <time>2021-06-13T10:38:53Z</time>
      </trkpt>
      <trkpt lat="42.70356" lon="1.63202">
        <ele>1621.746</ele>
        <time>2021-06-13T10:38:55Z</time>
      </trkpt>
      <trkpt lat="42.70356" lon="1.63202">
        <ele>1621.748</ele>
        <time>2021-06-13T10:38:57Z</time>
      </trkpt>
      <trkpt lat="42.70356" lon="1.63202">
        <ele>1621.748</ele>
        <time>2021-06-13T10:38:59Z</time>
      </trkpt>
      <trkpt lat="42.70356" lon="1.63202">
        <ele>1621.747</ele>
        <time>2021-06-13T10:39:01Z</time>
      </trkpt>
      <trkpt lat="42.70356" lon="1.63202">
        <ele>1621.748</ele>
        <time>2021-06-13T10:39:03Z</time>
      </trkpt>
      <trkpt lat="42.70356" lon="1.63202">
        <ele>1621.746</ele>
        <time>2021-06-13T10:39:05Z</time>
      </trkpt>
      <trkpt lat="42.70356" lon="1.63202">
        <ele>1621.744</ele>
        <time>2021-06-13T10:39:07Z</time>
      </trkpt>
      <trkpt lat="42.70356" lon="1.63202">
        <ele>1621.74</ele>
        <time>2021-06-13T10:39:09Z</time>
      </trkpt>
      <trkpt lat="42.70356" lon="1.63202">
        <ele>1621.741</ele>
        <time>2021-06-13T10:39:11Z</time>
      </trkpt>
      <trkpt lat="42.70356" lon="1.63202">
        <ele>1621.743</ele>
        <time>2021-06-13T10:39:13Z</time>
      </trkpt>
      <trkpt lat="42.70356" lon="1.63202">
        <ele>1621.741</ele>
        <time>2021-06-13T10:39:15Z</time>
      </trkpt>
      <trkpt lat="42.70356" lon="1.63202">
        <ele>1621.739</ele>
        <time>2021-06-13T10:39:17Z</time>
      </trkpt>
      <trkpt lat="42.70356" lon="1.63202">
        <ele>1621.734</ele>
        <time>2021-06-13T10:39:19Z</time>
      </trkpt>
      <trkpt lat="42.70356" lon="1.63202">
        <ele>1621.731</ele>
        <time>2021-06-13T10:39:21Z</time>
      </trkpt>
      <trkpt lat="42.70356" lon="1.63202">
        <ele>1621.731</ele>
        <time>2021-06-13T10:39:23Z</time>
      </trkpt>
      <trkpt lat="42.70356" lon="1.63202">
        <ele>1621.73</ele>
        <time>2021-06-13T10:39:25Z</time>
      </trkpt>
      <trkpt lat="42.70356" lon="1.63202">
        <ele>1621.73</ele>
        <time>2021-06-13T10:39:27Z</time>
      </trkpt>
      <trkpt lat="42.70356" lon="1.63202">
        <ele>1621.73</ele>
        <time>2021-06-13T10:39:29Z</time>
      </trkpt>
      <trkpt lat="42.70356" lon="1.63202">
        <ele>1621.731</ele>
        <time>2021-06-13T10:39:31Z</time>
      </trkpt>
      <trkpt lat="42.70356" lon="1.63202">
        <ele>1621.664</ele>
        <time>2021-06-13T10:39:33Z</time>
      </trkpt>
      <trkpt lat="42.70356" lon="1.63202">
        <ele>1621.667</ele>
        <time>2021-06-13T10:39:35Z</time>
      </trkpt>
      <trkpt lat="42.70356" lon="1.63202">
        <ele>1621.669</ele>
        <time>2021-06-13T10:39:37Z</time>
      </trkpt>
      <trkpt lat="42.70356" lon="1.63202">
        <ele>1621.67</ele>
        <time>2021-06-13T10:39:39Z</time>
      </trkpt>
      <trkpt lat="42.70356" lon="1.63202">
        <ele>1621.668</ele>
        <time>2021-06-13T10:39:41Z</time>
      </trkpt>
      <trkpt lat="42.70356" lon="1.63202">
        <ele>1621.669</ele>
        <time>2021-06-13T10:39:43Z</time>
      </trkpt>
      <trkpt lat="42.70356" lon="1.63202">
        <ele>1621.667</ele>
        <time>2021-06-13T10:39:45Z</time>
      </trkpt>
      <trkpt lat="42.70356" lon="1.63202">
        <ele>1621.668</ele>
        <time>2021-06-13T10:39:47Z</time>
      </trkpt>
      <trkpt lat="42.70356" lon="1.63202">
        <ele>1621.666</ele>
        <time>2021-06-13T10:39:49Z</time>
      </trkpt>
      <trkpt lat="42.70356" lon="1.63202">
        <ele>1621.665</ele>
        <time>2021-06-13T10:39:51Z</time>
      </trkpt>
      <trkpt lat="42.70356" lon="1.63202">
        <ele>1621.663</ele>
        <time>2021-06-13T10:39:53Z</time>
      </trkpt>
      <trkpt lat="42.70356" lon="1.63202">
        <ele>1621.663</ele>
        <time>2021-06-13T10:39:55Z</time>
      </trkpt>
      <trkpt lat="42.70356" lon="1.63202">
        <ele>1621.665</ele>
        <time>2021-06-13T10:39:57Z</time>
      </trkpt>
      <trkpt lat="42.70356" lon="1.63202">
        <ele>1621.664</ele>
        <time>2021-06-13T10:39:59Z</time>
      </trkpt>
      <trkpt lat="42.70356" lon="1.63202">
        <ele>1621.7</ele>
        <time>2021-06-13T10:40:01Z</time>
      </trkpt>
      <trkpt lat="42.70356" lon="1.63202">
        <ele>1621.699</ele>
        <time>2021-06-13T10:40:03Z</time>
      </trkpt>
      <trkpt lat="42.70356" lon="1.63202">
        <ele>1621.697</ele>
        <time>2021-06-13T10:40:05Z</time>
      </trkpt>
      <trkpt lat="42.70356" lon="1.63202">
        <ele>1621.698</ele>
        <time>2021-06-13T10:40:07Z</time>
      </trkpt>
      <trkpt lat="42.70356" lon="1.63202">
        <ele>1621.7</ele>
        <time>2021-06-13T10:40:09Z</time>
      </trkpt>
      <trkpt lat="42.70356" lon="1.63202">
        <ele>1621.704</ele>
        <time>2021-06-13T10:40:11Z</time>
      </trkpt>
      <trkpt lat="42.70356" lon="1.63202">
        <ele>1621.705</ele>
        <time>2021-06-13T10:40:13Z</time>
      </trkpt>
      <trkpt lat="42.70356" lon="1.63202">
        <ele>1621.703</ele>
        <time>2021-06-13T10:40:15Z</time>
      </trkpt>
      <trkpt lat="42.70356" lon="1.63202">
        <ele>1621.699</ele>
        <time>2021-06-13T10:40:17Z</time>
      </trkpt>
      <trkpt lat="42.70356" lon="1.63202">
        <ele>1621.698</ele>
        <time>2021-06-13T10:40:19Z</time>
      </trkpt>
      <trkpt lat="42.70356" lon="1.63202">
        <ele>1621.698</ele>
        <time>2021-06-13T10:40:21Z</time>
      </trkpt>
      <trkpt lat="42.70356" lon="1.63202">
        <ele>1621.7</ele>
        <time>2021-06-13T10:40:23Z</time>
      </trkpt>
      <trkpt lat="42.70356" lon="1.63202">
        <ele>1621.7</ele>
        <time>2021-06-13T10:40:25Z</time>
      </trkpt>
      <trkpt lat="42.70356" lon="1.63202">
        <ele>1621.703</ele>
        <time>2021-06-13T10:40:27Z</time>
      </trkpt>
      <trkpt lat="42.70356" lon="1.63202">
        <ele>1621.704</ele>
        <time>2021-06-13T10:40:29Z</time>
      </trkpt>
      <trkpt lat="42.70356" lon="1.63202">
        <ele>1621.703</ele>
        <time>2021-06-13T10:40:31Z</time>
      </trkpt>
      <trkpt lat="42.70356" lon="1.63202">
        <ele>1621.704</ele>
        <time>2021-06-13T10:40:33Z</time>
      </trkpt>
      <trkpt lat="42.70356" lon="1.63202">
        <ele>1621.701</ele>
        <time>2021-06-13T10:40:35Z</time>
      </trkpt>
      <trkpt lat="42.70356" lon="1.63202">
        <ele>1621.702</ele>
        <time>2021-06-13T10:40:37Z</time>
      </trkpt>
      <trkpt lat="42.70356" lon="1.63202">
        <ele>1621.703</ele>
        <time>2021-06-13T10:40:39Z</time>
      </trkpt>
      <trkpt lat="42.70356" lon="1.63202">
        <ele>1621.702</ele>
        <time>2021-06-13T10:40:41Z</time>
      </trkpt>
      <trkpt lat="42.70356" lon="1.63202">
        <ele>1621.709</ele>
        <time>2021-06-13T10:40:43Z</time>
      </trkpt>
      <trkpt lat="42.70356" lon="1.63202">
        <ele>1621.717</ele>
        <time>2021-06-13T10:40:45Z</time>
      </trkpt>
      <trkpt lat="42.70356" lon="1.63202">
        <ele>1621.716</ele>
        <time>2021-06-13T10:40:47Z</time>
      </trkpt>
      <trkpt lat="42.70356" lon="1.63202">
        <ele>1621.886</ele>
        <time>2021-06-13T10:40:49Z</time>
      </trkpt>
      <trkpt lat="42.70356" lon="1.63202">
        <ele>1621.889</ele>
        <time>2021-06-13T10:40:51Z</time>
      </trkpt>
      <trkpt lat="42.70356" lon="1.63202">
        <ele>1621.91</ele>
        <time>2021-06-13T10:40:53Z</time>
      </trkpt>
      <trkpt lat="42.70356" lon="1.63202">
        <ele>1621.917</ele>
        <time>2021-06-13T10:40:55Z</time>
      </trkpt>
      <trkpt lat="42.70356" lon="1.63202">
        <ele>1622.064</ele>
        <time>2021-06-13T10:40:57Z</time>
      </trkpt>
      <trkpt lat="42.70356" lon="1.63202">
        <ele>1622.075</ele>
        <time>2021-06-13T10:40:59Z</time>
      </trkpt>
      <trkpt lat="42.70356" lon="1.63202">
        <ele>1622.387</ele>
        <time>2021-06-13T10:41:01Z</time>
      </trkpt>
      <trkpt lat="42.70356" lon="1.63202">
        <ele>1622.755</ele>
        <time>2021-06-13T10:41:03Z</time>
      </trkpt>
      <trkpt lat="42.70357" lon="1.63203">
        <ele>1622.516</ele>
        <time>2021-06-13T10:41:05Z</time>
      </trkpt>
      <trkpt lat="42.70358" lon="1.63203">
        <ele>1622.574</ele>
        <time>2021-06-13T10:41:07Z</time>
      </trkpt>
      <trkpt lat="42.70358" lon="1.63204">
        <ele>1622.896</ele>
        <time>2021-06-13T10:41:09Z</time>
      </trkpt>
      <trkpt lat="42.70358" lon="1.63204">
        <ele>1622.896</ele>
        <time>2021-06-13T10:41:11Z</time>
      </trkpt>
      <trkpt lat="42.70358" lon="1.63204">
        <ele>1622.822</ele>
        <time>2021-06-13T10:41:13Z</time>
      </trkpt>
      <trkpt lat="42.70358" lon="1.63204">
        <ele>1622.816</ele>
        <time>2021-06-13T10:41:15Z</time>
      </trkpt>
      <trkpt lat="42.70358" lon="1.63204">
        <ele>1622.804</ele>
        <time>2021-06-13T10:41:17Z</time>
      </trkpt>
      <trkpt lat="42.70358" lon="1.63204">
        <ele>1622.796</ele>
        <time>2021-06-13T10:41:19Z</time>
      </trkpt>
      <trkpt lat="42.70357" lon="1.63204">
        <ele>1622.987</ele>
        <time>2021-06-13T10:41:21Z</time>
      </trkpt>
      <trkpt lat="42.70356" lon="1.63202">
        <ele>1622.619</ele>
        <time>2021-06-13T10:41:23Z</time>
      </trkpt>
      <trkpt lat="42.70355" lon="1.63202">
        <ele>1622.874</ele>
        <time>2021-06-13T10:41:25Z</time>
      </trkpt>
      <trkpt lat="42.70356" lon="1.63203">
        <ele>1622.876</ele>
        <time>2021-06-13T10:41:27Z</time>
      </trkpt>
      <trkpt lat="42.70355" lon="1.63203">
        <ele>1623.032</ele>
        <time>2021-06-13T10:41:29Z</time>
      </trkpt>
      <trkpt lat="42.70356" lon="1.63206">
        <ele>1622.705</ele>
        <time>2021-06-13T10:41:31Z</time>
      </trkpt>
      <trkpt lat="42.70358" lon="1.63208">
        <ele>1622.537</ele>
        <time>2021-06-13T10:41:33Z</time>
      </trkpt>
      <trkpt lat="42.70358" lon="1.63209">
        <ele>1622.621</ele>
        <time>2021-06-13T10:41:35Z</time>
      </trkpt>
      <trkpt lat="42.70359" lon="1.63209">
        <ele>1622.469</ele>
        <time>2021-06-13T10:41:37Z</time>
      </trkpt>
      <trkpt lat="42.70359" lon="1.6321">
        <ele>1622.457</ele>
        <time>2021-06-13T10:41:39Z</time>
      </trkpt>
      <trkpt lat="42.70359" lon="1.63209">
        <ele>1623.081</ele>
        <time>2021-06-13T10:41:41Z</time>
      </trkpt>
      <trkpt lat="42.70358" lon="1.63209">
        <ele>1623.805</ele>
        <time>2021-06-13T10:41:43Z</time>
      </trkpt>
      <trkpt lat="42.70358" lon="1.63209">
        <ele>1623.806</ele>
        <time>2021-06-13T10:41:45Z</time>
      </trkpt>
      <trkpt lat="42.70357" lon="1.63208">
        <ele>1623.65</ele>
        <time>2021-06-13T10:41:47Z</time>
      </trkpt>
      <trkpt lat="42.70356" lon="1.63205">
        <ele>1623.084</ele>
        <time>2021-06-13T10:41:49Z</time>
      </trkpt>
      <trkpt lat="42.70356" lon="1.63203">
        <ele>1622.069</ele>
        <time>2021-06-13T10:41:51Z</time>
      </trkpt>
      <trkpt lat="42.70355" lon="1.63203">
        <ele>1623.03</ele>
        <time>2021-06-13T10:41:53Z</time>
      </trkpt>
      <trkpt lat="42.70354" lon="1.63202">
        <ele>1622.618</ele>
        <time>2021-06-13T10:41:55Z</time>
      </trkpt>
      <trkpt lat="42.70354" lon="1.63202">
        <ele>1622.608</ele>
        <time>2021-06-13T10:41:57Z</time>
      </trkpt>
      <trkpt lat="42.70354" lon="1.63202">
        <ele>1622.604</ele>
        <time>2021-06-13T10:41:59Z</time>
      </trkpt>
      <trkpt lat="42.70354" lon="1.63202">
        <ele>1622.605</ele>
        <time>2021-06-13T10:42:01Z</time>
      </trkpt>
      <trkpt lat="42.70354" lon="1.63202">
        <ele>1622.599</ele>
        <time>2021-06-13T10:42:03Z</time>
      </trkpt>
      <trkpt lat="42.70354" lon="1.63202">
        <ele>1622.595</ele>
        <time>2021-06-13T10:42:05Z</time>
      </trkpt>
      <trkpt lat="42.70354" lon="1.63202">
        <ele>1622.599</ele>
        <time>2021-06-13T10:42:07Z</time>
      </trkpt>
      <trkpt lat="42.70354" lon="1.63202">
        <ele>1622.604</ele>
        <time>2021-06-13T10:42:09Z</time>
      </trkpt>
      <trkpt lat="42.70354" lon="1.63202">
        <ele>1622.606</ele>
        <time>2021-06-13T10:42:11Z</time>
      </trkpt>
      <trkpt lat="42.70354" lon="1.63202">
        <ele>1622.545</ele>
        <time>2021-06-13T10:42:13Z</time>
      </trkpt>
      <trkpt lat="42.70354" lon="1.63201">
        <ele>1622.901</ele>
        <time>2021-06-13T10:42:15Z</time>
      </trkpt>
      <trkpt lat="42.70354" lon="1.63201">
        <ele>1622.857</ele>
        <time>2021-06-13T10:42:17Z</time>
      </trkpt>
      <trkpt lat="42.70354" lon="1.63201">
        <ele>1622.858</ele>
        <time>2021-06-13T10:42:19Z</time>
      </trkpt>
      <trkpt lat="42.70354" lon="1.63201">
        <ele>1622.86</ele>
        <time>2021-06-13T10:42:21Z</time>
      </trkpt>
      <trkpt lat="42.70354" lon="1.63201">
        <ele>1623.027</ele>
        <time>2021-06-13T10:42:23Z</time>
      </trkpt>
      <trkpt lat="42.70355" lon="1.63201">
        <ele>1622.525</ele>
        <time>2021-06-13T10:42:25Z</time>
      </trkpt>
      <trkpt lat="42.70355" lon="1.63201">
        <ele>1622.517</ele>
        <time>2021-06-13T10:42:27Z</time>
      </trkpt>
      <trkpt lat="42.70355" lon="1.63201">
        <ele>1622.508</ele>
        <time>2021-06-13T10:42:29Z</time>
      </trkpt>
      <trkpt lat="42.70355" lon="1.63201">
        <ele>1622.501</ele>
        <time>2021-06-13T10:42:31Z</time>
      </trkpt>
      <trkpt lat="42.70355" lon="1.63201">
        <ele>1622.485</ele>
        <time>2021-06-13T10:42:33Z</time>
      </trkpt>
      <trkpt lat="42.70355" lon="1.63201">
        <ele>1622.488</ele>
        <time>2021-06-13T10:42:35Z</time>
      </trkpt>
      <trkpt lat="42.70355" lon="1.63201">
        <ele>1622.485</ele>
        <time>2021-06-13T10:42:37Z</time>
      </trkpt>
      <trkpt lat="42.70355" lon="1.63201">
        <ele>1622.479</ele>
        <time>2021-06-13T10:42:39Z</time>
      </trkpt>
      <trkpt lat="42.70355" lon="1.63201">
        <ele>1622.476</ele>
        <time>2021-06-13T10:42:41Z</time>
      </trkpt>
      <trkpt lat="42.70355" lon="1.63201">
        <ele>1622.483</ele>
        <time>2021-06-13T10:42:43Z</time>
      </trkpt>
      <trkpt lat="42.70355" lon="1.63201">
        <ele>1622.486</ele>
        <time>2021-06-13T10:42:45Z</time>
      </trkpt>
      <trkpt lat="42.70355" lon="1.63201">
        <ele>1622.498</ele>
        <time>2021-06-13T10:42:47Z</time>
      </trkpt>
      <trkpt lat="42.70355" lon="1.63201">
        <ele>1622.496</ele>
        <time>2021-06-13T10:42:49Z</time>
      </trkpt>
      <trkpt lat="42.70355" lon="1.63201">
        <ele>1622.487</ele>
        <time>2021-06-13T10:42:51Z</time>
      </trkpt>
      <trkpt lat="42.70355" lon="1.63201">
        <ele>1622.478</ele>
        <time>2021-06-13T10:42:53Z</time>
      </trkpt>
      <trkpt lat="42.70355" lon="1.63201">
        <ele>1622.469</ele>
        <time>2021-06-13T10:42:55Z</time>
      </trkpt>
      <trkpt lat="42.70355" lon="1.63201">
        <ele>1622.465</ele>
        <time>2021-06-13T10:42:57Z</time>
      </trkpt>
      <trkpt lat="42.70355" lon="1.63201">
        <ele>1622.459</ele>
        <time>2021-06-13T10:42:59Z</time>
      </trkpt>
      <trkpt lat="42.70355" lon="1.63201">
        <ele>1622.455</ele>
        <time>2021-06-13T10:43:01Z</time>
      </trkpt>
      <trkpt lat="42.70355" lon="1.63201">
        <ele>1622.446</ele>
        <time>2021-06-13T10:43:03Z</time>
      </trkpt>
      <trkpt lat="42.70355" lon="1.63201">
        <ele>1622.442</ele>
        <time>2021-06-13T10:43:05Z</time>
      </trkpt>
      <trkpt lat="42.70355" lon="1.63201">
        <ele>1622.433</ele>
        <time>2021-06-13T10:43:07Z</time>
      </trkpt>
      <trkpt lat="42.70355" lon="1.63201">
        <ele>1622.431</ele>
        <time>2021-06-13T10:43:09Z</time>
      </trkpt>
      <trkpt lat="42.70355" lon="1.63201">
        <ele>1622.419</ele>
        <time>2021-06-13T10:43:11Z</time>
      </trkpt>
      <trkpt lat="42.70355" lon="1.63201">
        <ele>1622.41</ele>
        <time>2021-06-13T10:43:13Z</time>
      </trkpt>
      <trkpt lat="42.70355" lon="1.63201">
        <ele>1622.404</ele>
        <time>2021-06-13T10:43:15Z</time>
      </trkpt>
      <trkpt lat="42.70355" lon="1.63201">
        <ele>1622.395</ele>
        <time>2021-06-13T10:43:17Z</time>
      </trkpt>
      <trkpt lat="42.70355" lon="1.63201">
        <ele>1622.388</ele>
        <time>2021-06-13T10:43:19Z</time>
      </trkpt>
      <trkpt lat="42.70355" lon="1.63201">
        <ele>1622.39</ele>
        <time>2021-06-13T10:43:21Z</time>
      </trkpt>
      <trkpt lat="42.70355" lon="1.63201">
        <ele>1622.387</ele>
        <time>2021-06-13T10:43:23Z</time>
      </trkpt>
      <trkpt lat="42.70355" lon="1.63201">
        <ele>1622.391</ele>
        <time>2021-06-13T10:43:25Z</time>
      </trkpt>
      <trkpt lat="42.70355" lon="1.63201">
        <ele>1622.403</ele>
        <time>2021-06-13T10:43:27Z</time>
      </trkpt>
      <trkpt lat="42.70355" lon="1.63201">
        <ele>1622.412</ele>
        <time>2021-06-13T10:43:29Z</time>
      </trkpt>
      <trkpt lat="42.70355" lon="1.63201">
        <ele>1622.417</ele>
        <time>2021-06-13T10:43:31Z</time>
      </trkpt>
      <trkpt lat="42.70355" lon="1.63201">
        <ele>1622.422</ele>
        <time>2021-06-13T10:43:33Z</time>
      </trkpt>
      <trkpt lat="42.70355" lon="1.63201">
        <ele>1622.425</ele>
        <time>2021-06-13T10:43:35Z</time>
      </trkpt>
      <trkpt lat="42.70355" lon="1.63201">
        <ele>1622.425</ele>
        <time>2021-06-13T10:43:37Z</time>
      </trkpt>
      <trkpt lat="42.70355" lon="1.63201">
        <ele>1622.421</ele>
        <time>2021-06-13T10:43:39Z</time>
      </trkpt>
      <trkpt lat="42.70355" lon="1.63201">
        <ele>1622.413</ele>
        <time>2021-06-13T10:43:41Z</time>
      </trkpt>
      <trkpt lat="42.70355" lon="1.63201">
        <ele>1622.41</ele>
        <time>2021-06-13T10:43:43Z</time>
      </trkpt>
      <trkpt lat="42.70355" lon="1.63201">
        <ele>1622.399</ele>
        <time>2021-06-13T10:43:45Z</time>
      </trkpt>
      <trkpt lat="42.70355" lon="1.63201">
        <ele>1622.386</ele>
        <time>2021-06-13T10:43:47Z</time>
      </trkpt>
      <trkpt lat="42.70355" lon="1.63201">
        <ele>1622.379</ele>
        <time>2021-06-13T10:43:49Z</time>
      </trkpt>
      <trkpt lat="42.70355" lon="1.63201">
        <ele>1622.377</ele>
        <time>2021-06-13T10:43:51Z</time>
      </trkpt>
      <trkpt lat="42.70355" lon="1.63201">
        <ele>1622.378</ele>
        <time>2021-06-13T10:43:53Z</time>
      </trkpt>
      <trkpt lat="42.70355" lon="1.63201">
        <ele>1622.378</ele>
        <time>2021-06-13T10:43:55Z</time>
      </trkpt>
      <trkpt lat="42.70355" lon="1.63201">
        <ele>1622.378</ele>
        <time>2021-06-13T10:43:57Z</time>
      </trkpt>
      <trkpt lat="42.70355" lon="1.63201">
        <ele>1622.377</ele>
        <time>2021-06-13T10:43:59Z</time>
      </trkpt>
      <trkpt lat="42.70355" lon="1.63201">
        <ele>1622.378</ele>
        <time>2021-06-13T10:44:01Z</time>
      </trkpt>
      <trkpt lat="42.70355" lon="1.63201">
        <ele>1622.385</ele>
        <time>2021-06-13T10:44:03Z</time>
      </trkpt>
      <trkpt lat="42.70355" lon="1.63201">
        <ele>1622.391</ele>
        <time>2021-06-13T10:44:05Z</time>
      </trkpt>
      <trkpt lat="42.70355" lon="1.63201">
        <ele>1622.391</ele>
        <time>2021-06-13T10:44:07Z</time>
      </trkpt>
      <trkpt lat="42.70355" lon="1.63201">
        <ele>1622.395</ele>
        <time>2021-06-13T10:44:09Z</time>
      </trkpt>
      <trkpt lat="42.70355" lon="1.63201">
        <ele>1622.396</ele>
        <time>2021-06-13T10:44:11Z</time>
      </trkpt>
      <trkpt lat="42.70355" lon="1.63201">
        <ele>1622.403</ele>
        <time>2021-06-13T10:44:13Z</time>
      </trkpt>
      <trkpt lat="42.70355" lon="1.63201">
        <ele>1622.401</ele>
        <time>2021-06-13T10:44:15Z</time>
      </trkpt>
      <trkpt lat="42.70355" lon="1.63201">
        <ele>1622.399</ele>
        <time>2021-06-13T10:44:17Z</time>
      </trkpt>
      <trkpt lat="42.70355" lon="1.63201">
        <ele>1622.398</ele>
        <time>2021-06-13T10:44:19Z</time>
      </trkpt>
      <trkpt lat="42.70355" lon="1.63201">
        <ele>1622.397</ele>
        <time>2021-06-13T10:44:21Z</time>
      </trkpt>
      <trkpt lat="42.70355" lon="1.63201">
        <ele>1622.394</ele>
        <time>2021-06-13T10:44:23Z</time>
      </trkpt>
      <trkpt lat="42.70355" lon="1.63201">
        <ele>1622.394</ele>
        <time>2021-06-13T10:44:25Z</time>
      </trkpt>
      <trkpt lat="42.70355" lon="1.63201">
        <ele>1622.394</ele>
        <time>2021-06-13T10:44:27Z</time>
      </trkpt>
      <trkpt lat="42.70355" lon="1.63201">
        <ele>1622.392</ele>
        <time>2021-06-13T10:44:29Z</time>
      </trkpt>
      <trkpt lat="42.70355" lon="1.63201">
        <ele>1622.395</ele>
        <time>2021-06-13T10:44:31Z</time>
      </trkpt>
      <trkpt lat="42.70355" lon="1.63201">
        <ele>1622.394</ele>
        <time>2021-06-13T10:44:33Z</time>
      </trkpt>
      <trkpt lat="42.70355" lon="1.63201">
        <ele>1622.396</ele>
        <time>2021-06-13T10:44:35Z</time>
      </trkpt>
      <trkpt lat="42.70355" lon="1.63201">
        <ele>1622.399</ele>
        <time>2021-06-13T10:44:37Z</time>
      </trkpt>
      <trkpt lat="42.70355" lon="1.63201">
        <ele>1622.398</ele>
        <time>2021-06-13T10:44:39Z</time>
      </trkpt>
      <trkpt lat="42.70355" lon="1.63201">
        <ele>1622.399</ele>
        <time>2021-06-13T10:44:41Z</time>
      </trkpt>
      <trkpt lat="42.70355" lon="1.63201">
        <ele>1622.404</ele>
        <time>2021-06-13T10:44:43Z</time>
      </trkpt>
      <trkpt lat="42.70355" lon="1.63201">
        <ele>1622.407</ele>
        <time>2021-06-13T10:44:45Z</time>
      </trkpt>
      <trkpt lat="42.70355" lon="1.63201">
        <ele>1622.411</ele>
        <time>2021-06-13T10:44:47Z</time>
      </trkpt>
      <trkpt lat="42.70355" lon="1.63201">
        <ele>1622.414</ele>
        <time>2021-06-13T10:44:49Z</time>
      </trkpt>
      <trkpt lat="42.70355" lon="1.63201">
        <ele>1622.413</ele>
        <time>2021-06-13T10:44:51Z</time>
      </trkpt>
      <trkpt lat="42.70355" lon="1.63201">
        <ele>1622.423</ele>
        <time>2021-06-13T10:44:53Z</time>
      </trkpt>
      <trkpt lat="42.70355" lon="1.63201">
        <ele>1622.431</ele>
        <time>2021-06-13T10:44:55Z</time>
      </trkpt>
      <trkpt lat="42.70355" lon="1.63201">
        <ele>1622.433</ele>
        <time>2021-06-13T10:44:57Z</time>
      </trkpt>
      <trkpt lat="42.70355" lon="1.63201">
        <ele>1622.437</ele>
        <time>2021-06-13T10:44:59Z</time>
      </trkpt>
      <trkpt lat="42.70355" lon="1.63201">
        <ele>1622.443</ele>
        <time>2021-06-13T10:45:01Z</time>
      </trkpt>
      <trkpt lat="42.70355" lon="1.63201">
        <ele>1622.448</ele>
        <time>2021-06-13T10:45:03Z</time>
      </trkpt>
      <trkpt lat="42.70355" lon="1.63201">
        <ele>1622.449</ele>
        <time>2021-06-13T10:45:05Z</time>
      </trkpt>
      <trkpt lat="42.70355" lon="1.63201">
        <ele>1622.449</ele>
        <time>2021-06-13T10:45:07Z</time>
      </trkpt>
      <trkpt lat="42.70355" lon="1.63201">
        <ele>1622.453</ele>
        <time>2021-06-13T10:45:09Z</time>
      </trkpt>
      <trkpt lat="42.70355" lon="1.63201">
        <ele>1622.453</ele>
        <time>2021-06-13T10:45:11Z</time>
      </trkpt>
      <trkpt lat="42.70355" lon="1.63201">
        <ele>1622.453</ele>
        <time>2021-06-13T10:45:13Z</time>
      </trkpt>
      <trkpt lat="42.70355" lon="1.63201">
        <ele>1622.451</ele>
        <time>2021-06-13T10:45:15Z</time>
      </trkpt>
      <trkpt lat="42.70355" lon="1.63201">
        <ele>1622.457</ele>
        <time>2021-06-13T10:45:17Z</time>
      </trkpt>
      <trkpt lat="42.70355" lon="1.63201">
        <ele>1622.466</ele>
        <time>2021-06-13T10:45:19Z</time>
      </trkpt>
      <trkpt lat="42.70355" lon="1.63201">
        <ele>1622.465</ele>
        <time>2021-06-13T10:45:21Z</time>
      </trkpt>
      <trkpt lat="42.70355" lon="1.63201">
        <ele>1622.468</ele>
        <time>2021-06-13T10:45:23Z</time>
      </trkpt>
      <trkpt lat="42.70355" lon="1.63201">
        <ele>1622.469</ele>
        <time>2021-06-13T10:45:25Z</time>
      </trkpt>
      <trkpt lat="42.70355" lon="1.63201">
        <ele>1622.466</ele>
        <time>2021-06-13T10:45:27Z</time>
      </trkpt>
      <trkpt lat="42.70355" lon="1.63201">
        <ele>1622.47</ele>
        <time>2021-06-13T10:45:29Z</time>
      </trkpt>
      <trkpt lat="42.70355" lon="1.63201">
        <ele>1622.468</ele>
        <time>2021-06-13T10:45:31Z</time>
      </trkpt>
      <trkpt lat="42.70355" lon="1.63201">
        <ele>1622.466</ele>
        <time>2021-06-13T10:45:33Z</time>
      </trkpt>
      <trkpt lat="42.70355" lon="1.63201">
        <ele>1622.46</ele>
        <time>2021-06-13T10:45:35Z</time>
      </trkpt>
      <trkpt lat="42.70355" lon="1.63201">
        <ele>1622.455</ele>
        <time>2021-06-13T10:45:37Z</time>
      </trkpt>
      <trkpt lat="42.70355" lon="1.63201">
        <ele>1622.448</ele>
        <time>2021-06-13T10:45:39Z</time>
      </trkpt>
      <trkpt lat="42.70355" lon="1.63201">
        <ele>1622.443</ele>
        <time>2021-06-13T10:45:41Z</time>
      </trkpt>
      <trkpt lat="42.70355" lon="1.63201">
        <ele>1622.438</ele>
        <time>2021-06-13T10:45:43Z</time>
      </trkpt>
      <trkpt lat="42.70355" lon="1.63201">
        <ele>1622.437</ele>
        <time>2021-06-13T10:45:45Z</time>
      </trkpt>
      <trkpt lat="42.70355" lon="1.63201">
        <ele>1622.437</ele>
        <time>2021-06-13T10:45:47Z</time>
      </trkpt>
      <trkpt lat="42.70355" lon="1.63201">
        <ele>1622.437</ele>
        <time>2021-06-13T10:45:49Z</time>
      </trkpt>
      <trkpt lat="42.70355" lon="1.63201">
        <ele>1622.443</ele>
        <time>2021-06-13T10:45:51Z</time>
      </trkpt>
      <trkpt lat="42.70355" lon="1.63201">
        <ele>1622.445</ele>
        <time>2021-06-13T10:45:53Z</time>
      </trkpt>
      <trkpt lat="42.70355" lon="1.63201">
        <ele>1622.448</ele>
        <time>2021-06-13T10:45:55Z</time>
      </trkpt>
      <trkpt lat="42.70355" lon="1.63201">
        <ele>1622.446</ele>
        <time>2021-06-13T10:45:57Z</time>
      </trkpt>
      <trkpt lat="42.70355" lon="1.63201">
        <ele>1622.445</ele>
        <time>2021-06-13T10:45:59Z</time>
      </trkpt>
      <trkpt lat="42.70355" lon="1.63201">
        <ele>1622.449</ele>
        <time>2021-06-13T10:46:01Z</time>
      </trkpt>
      <trkpt lat="42.70355" lon="1.63201">
        <ele>1622.45</ele>
        <time>2021-06-13T10:46:03Z</time>
      </trkpt>
      <trkpt lat="42.70355" lon="1.63201">
        <ele>1622.462</ele>
        <time>2021-06-13T10:46:05Z</time>
      </trkpt>
      <trkpt lat="42.70355" lon="1.63201">
        <ele>1622.471</ele>
        <time>2021-06-13T10:46:07Z</time>
      </trkpt>
      <trkpt lat="42.70355" lon="1.63201">
        <ele>1622.475</ele>
        <time>2021-06-13T10:46:09Z</time>
      </trkpt>
      <trkpt lat="42.70355" lon="1.63201">
        <ele>1622.474</ele>
        <time>2021-06-13T10:46:11Z</time>
      </trkpt>
      <trkpt lat="42.70355" lon="1.63201">
        <ele>1622.47</ele>
        <time>2021-06-13T10:46:13Z</time>
      </trkpt>
      <trkpt lat="42.70355" lon="1.63201">
        <ele>1622.47</ele>
        <time>2021-06-13T10:46:15Z</time>
      </trkpt>
      <trkpt lat="42.70355" lon="1.63201">
        <ele>1622.473</ele>
        <time>2021-06-13T10:46:17Z</time>
      </trkpt>
      <trkpt lat="42.70355" lon="1.63201">
        <ele>1622.474</ele>
        <time>2021-06-13T10:46:19Z</time>
      </trkpt>
      <trkpt lat="42.70355" lon="1.63201">
        <ele>1622.475</ele>
        <time>2021-06-13T10:46:21Z</time>
      </trkpt>
      <trkpt lat="42.70355" lon="1.63201">
        <ele>1622.481</ele>
        <time>2021-06-13T10:46:23Z</time>
      </trkpt>
      <trkpt lat="42.70355" lon="1.63201">
        <ele>1622.483</ele>
        <time>2021-06-13T10:46:25Z</time>
      </trkpt>
      <trkpt lat="42.70355" lon="1.63201">
        <ele>1622.488</ele>
        <time>2021-06-13T10:46:27Z</time>
      </trkpt>
      <trkpt lat="42.70355" lon="1.63201">
        <ele>1622.492</ele>
        <time>2021-06-13T10:46:29Z</time>
      </trkpt>
      <trkpt lat="42.70355" lon="1.63201">
        <ele>1622.49</ele>
        <time>2021-06-13T10:46:31Z</time>
      </trkpt>
      <trkpt lat="42.70355" lon="1.63201">
        <ele>1622.485</ele>
        <time>2021-06-13T10:46:33Z</time>
      </trkpt>
      <trkpt lat="42.70355" lon="1.63201">
        <ele>1622.488</ele>
        <time>2021-06-13T10:46:35Z</time>
      </trkpt>
      <trkpt lat="42.70355" lon="1.63201">
        <ele>1622.486</ele>
        <time>2021-06-13T10:46:37Z</time>
      </trkpt>
      <trkpt lat="42.70355" lon="1.63201">
        <ele>1622.484</ele>
        <time>2021-06-13T10:46:39Z</time>
      </trkpt>
      <trkpt lat="42.70355" lon="1.63201">
        <ele>1622.479</ele>
        <time>2021-06-13T10:46:41Z</time>
      </trkpt>
      <trkpt lat="42.70355" lon="1.63201">
        <ele>1622.474</ele>
        <time>2021-06-13T10:46:43Z</time>
      </trkpt>
      <trkpt lat="42.70355" lon="1.63201">
        <ele>1622.471</ele>
        <time>2021-06-13T10:46:45Z</time>
      </trkpt>
      <trkpt lat="42.70355" lon="1.63201">
        <ele>1622.474</ele>
        <time>2021-06-13T10:46:47Z</time>
      </trkpt>
      <trkpt lat="42.70355" lon="1.63201">
        <ele>1622.475</ele>
        <time>2021-06-13T10:46:49Z</time>
      </trkpt>
      <trkpt lat="42.70355" lon="1.63201">
        <ele>1622.469</ele>
        <time>2021-06-13T10:46:51Z</time>
      </trkpt>
      <trkpt lat="42.70355" lon="1.63201">
        <ele>1622.463</ele>
        <time>2021-06-13T10:46:53Z</time>
      </trkpt>
      <trkpt lat="42.70355" lon="1.63201">
        <ele>1622.464</ele>
        <time>2021-06-13T10:46:55Z</time>
      </trkpt>
      <trkpt lat="42.70355" lon="1.63201">
        <ele>1622.455</ele>
        <time>2021-06-13T10:46:57Z</time>
      </trkpt>
      <trkpt lat="42.70355" lon="1.63201">
        <ele>1622.448</ele>
        <time>2021-06-13T10:46:59Z</time>
      </trkpt>
      <trkpt lat="42.70355" lon="1.63201">
        <ele>1622.45</ele>
        <time>2021-06-13T10:47:01Z</time>
      </trkpt>
      <trkpt lat="42.70355" lon="1.63201">
        <ele>1622.446</ele>
        <time>2021-06-13T10:47:03Z</time>
      </trkpt>
      <trkpt lat="42.70355" lon="1.63201">
        <ele>1622.446</ele>
        <time>2021-06-13T10:47:05Z</time>
      </trkpt>
      <trkpt lat="42.70355" lon="1.63201">
        <ele>1622.453</ele>
        <time>2021-06-13T10:47:07Z</time>
      </trkpt>
      <trkpt lat="42.70355" lon="1.63201">
        <ele>1622.45</ele>
        <time>2021-06-13T10:47:09Z</time>
      </trkpt>
      <trkpt lat="42.70355" lon="1.63201">
        <ele>1622.447</ele>
        <time>2021-06-13T10:47:11Z</time>
      </trkpt>
      <trkpt lat="42.70355" lon="1.63201">
        <ele>1622.448</ele>
        <time>2021-06-13T10:47:13Z</time>
      </trkpt>
      <trkpt lat="42.70355" lon="1.63201">
        <ele>1622.454</ele>
        <time>2021-06-13T10:47:15Z</time>
      </trkpt>
      <trkpt lat="42.70355" lon="1.63201">
        <ele>1622.453</ele>
        <time>2021-06-13T10:47:17Z</time>
      </trkpt>
      <trkpt lat="42.70355" lon="1.63201">
        <ele>1622.462</ele>
        <time>2021-06-13T10:47:19Z</time>
      </trkpt>
      <trkpt lat="42.70355" lon="1.63201">
        <ele>1622.465</ele>
        <time>2021-06-13T10:47:21Z</time>
      </trkpt>
      <trkpt lat="42.70355" lon="1.63201">
        <ele>1622.481</ele>
        <time>2021-06-13T10:47:23Z</time>
      </trkpt>
      <trkpt lat="42.70355" lon="1.63201">
        <ele>1622.492</ele>
        <time>2021-06-13T10:47:25Z</time>
      </trkpt>
      <trkpt lat="42.70355" lon="1.63201">
        <ele>1622.497</ele>
        <time>2021-06-13T10:47:26Z</time>
      </trkpt>
      <trkpt lat="42.70355" lon="1.63201">
        <ele>1622.508</ele>
        <time>2021-06-13T10:47:29Z</time>
      </trkpt>
      <trkpt lat="42.70355" lon="1.63201">
        <ele>1622.516</ele>
        <time>2021-06-13T10:47:31Z</time>
      </trkpt>
      <trkpt lat="42.70355" lon="1.63201">
        <ele>1622.52</ele>
        <time>2021-06-13T10:47:33Z</time>
      </trkpt>
      <trkpt lat="42.70355" lon="1.63201">
        <ele>1622.519</ele>
        <time>2021-06-13T10:47:35Z</time>
      </trkpt>
      <trkpt lat="42.70355" lon="1.63201">
        <ele>1622.527</ele>
        <time>2021-06-13T10:47:37Z</time>
      </trkpt>
      <trkpt lat="42.70355" lon="1.63201">
        <ele>1622.537</ele>
        <time>2021-06-13T10:47:39Z</time>
      </trkpt>
      <trkpt lat="42.70355" lon="1.63201">
        <ele>1622.541</ele>
        <time>2021-06-13T10:47:41Z</time>
      </trkpt>
      <trkpt lat="42.70355" lon="1.63201">
        <ele>1622.55</ele>
        <time>2021-06-13T10:47:43Z</time>
      </trkpt>
      <trkpt lat="42.70355" lon="1.63201">
        <ele>1622.565</ele>
        <time>2021-06-13T10:47:45Z</time>
      </trkpt>
      <trkpt lat="42.70355" lon="1.63201">
        <ele>1622.58</ele>
        <time>2021-06-13T10:47:47Z</time>
      </trkpt>
      <trkpt lat="42.70355" lon="1.63201">
        <ele>1622.593</ele>
        <time>2021-06-13T10:47:49Z</time>
      </trkpt>
      <trkpt lat="42.70355" lon="1.63201">
        <ele>1622.596</ele>
        <time>2021-06-13T10:47:51Z</time>
      </trkpt>
      <trkpt lat="42.70355" lon="1.63201">
        <ele>1622.599</ele>
        <time>2021-06-13T10:47:53Z</time>
      </trkpt>
      <trkpt lat="42.70355" lon="1.63201">
        <ele>1622.599</ele>
        <time>2021-06-13T10:47:55Z</time>
      </trkpt>
      <trkpt lat="42.70355" lon="1.63201">
        <ele>1622.601</ele>
        <time>2021-06-13T10:47:57Z</time>
      </trkpt>
      <trkpt lat="42.70355" lon="1.63201">
        <ele>1622.601</ele>
        <time>2021-06-13T10:47:59Z</time>
      </trkpt>
      <trkpt lat="42.70355" lon="1.63201">
        <ele>1622.596</ele>
        <time>2021-06-13T10:48:01Z</time>
      </trkpt>
      <trkpt lat="42.70355" lon="1.63201">
        <ele>1622.593</ele>
        <time>2021-06-13T10:48:03Z</time>
      </trkpt>
      <trkpt lat="42.70355" lon="1.63201">
        <ele>1622.6</ele>
        <time>2021-06-13T10:48:05Z</time>
      </trkpt>
      <trkpt lat="42.70355" lon="1.63201">
        <ele>1622.605</ele>
        <time>2021-06-13T10:48:07Z</time>
      </trkpt>
      <trkpt lat="42.70355" lon="1.63201">
        <ele>1622.611</ele>
        <time>2021-06-13T10:48:09Z</time>
      </trkpt>
      <trkpt lat="42.70355" lon="1.63201">
        <ele>1622.621</ele>
        <time>2021-06-13T10:48:11Z</time>
      </trkpt>
      <trkpt lat="42.70355" lon="1.63201">
        <ele>1622.625</ele>
        <time>2021-06-13T10:48:13Z</time>
      </trkpt>
      <trkpt lat="42.70355" lon="1.63201">
        <ele>1622.631</ele>
        <time>2021-06-13T10:48:15Z</time>
      </trkpt>
      <trkpt lat="42.70355" lon="1.63201">
        <ele>1622.635</ele>
        <time>2021-06-13T10:48:17Z</time>
      </trkpt>
      <trkpt lat="42.70355" lon="1.63201">
        <ele>1622.642</ele>
        <time>2021-06-13T10:48:19Z</time>
      </trkpt>
      <trkpt lat="42.70355" lon="1.63201">
        <ele>1622.647</ele>
        <time>2021-06-13T10:48:21Z</time>
      </trkpt>
      <trkpt lat="42.70355" lon="1.63201">
        <ele>1622.657</ele>
        <time>2021-06-13T10:48:23Z</time>
      </trkpt>
      <trkpt lat="42.70355" lon="1.63201">
        <ele>1622.66</ele>
        <time>2021-06-13T10:48:25Z</time>
      </trkpt>
      <trkpt lat="42.70355" lon="1.63201">
        <ele>1622.667</ele>
        <time>2021-06-13T10:48:27Z</time>
      </trkpt>
      <trkpt lat="42.70355" lon="1.63201">
        <ele>1622.672</ele>
        <time>2021-06-13T10:48:29Z</time>
      </trkpt>
      <trkpt lat="42.70355" lon="1.63201">
        <ele>1622.669</ele>
        <time>2021-06-13T10:48:31Z</time>
      </trkpt>
      <trkpt lat="42.70355" lon="1.63201">
        <ele>1622.666</ele>
        <time>2021-06-13T10:48:33Z</time>
      </trkpt>
      <trkpt lat="42.70355" lon="1.63201">
        <ele>1622.663</ele>
        <time>2021-06-13T10:48:35Z</time>
      </trkpt>
      <trkpt lat="42.70355" lon="1.63201">
        <ele>1622.665</ele>
        <time>2021-06-13T10:48:37Z</time>
      </trkpt>
      <trkpt lat="42.70355" lon="1.63201">
        <ele>1622.668</ele>
        <time>2021-06-13T10:48:39Z</time>
      </trkpt>
      <trkpt lat="42.70355" lon="1.63201">
        <ele>1622.671</ele>
        <time>2021-06-13T10:48:41Z</time>
      </trkpt>
      <trkpt lat="42.70355" lon="1.63201">
        <ele>1622.669</ele>
        <time>2021-06-13T10:48:43Z</time>
      </trkpt>
      <trkpt lat="42.70355" lon="1.63201">
        <ele>1622.669</ele>
        <time>2021-06-13T10:48:45Z</time>
      </trkpt>
      <trkpt lat="42.70355" lon="1.63201">
        <ele>1622.669</ele>
        <time>2021-06-13T10:48:47Z</time>
      </trkpt>
      <trkpt lat="42.70355" lon="1.63201">
        <ele>1622.672</ele>
        <time>2021-06-13T10:48:49Z</time>
      </trkpt>
      <trkpt lat="42.70355" lon="1.63201">
        <ele>1622.671</ele>
        <time>2021-06-13T10:48:51Z</time>
      </trkpt>
      <trkpt lat="42.70355" lon="1.63201">
        <ele>1622.673</ele>
        <time>2021-06-13T10:48:53Z</time>
      </trkpt>
      <trkpt lat="42.70355" lon="1.63201">
        <ele>1622.673</ele>
        <time>2021-06-13T10:48:55Z</time>
      </trkpt>
      <trkpt lat="42.70355" lon="1.63201">
        <ele>1622.677</ele>
        <time>2021-06-13T10:48:57Z</time>
      </trkpt>
      <trkpt lat="42.70355" lon="1.63201">
        <ele>1622.681</ele>
        <time>2021-06-13T10:48:59Z</time>
      </trkpt>
      <trkpt lat="42.70355" lon="1.63201">
        <ele>1622.682</ele>
        <time>2021-06-13T10:49:01Z</time>
      </trkpt>
      <trkpt lat="42.70355" lon="1.63201">
        <ele>1622.683</ele>
        <time>2021-06-13T10:49:03Z</time>
      </trkpt>
      <trkpt lat="42.70355" lon="1.63201">
        <ele>1622.681</ele>
        <time>2021-06-13T10:49:05Z</time>
      </trkpt>
      <trkpt lat="42.70355" lon="1.63201">
        <ele>1622.68</ele>
        <time>2021-06-13T10:49:07Z</time>
      </trkpt>
      <trkpt lat="42.70355" lon="1.63201">
        <ele>1622.682</ele>
        <time>2021-06-13T10:49:09Z</time>
      </trkpt>
      <trkpt lat="42.70355" lon="1.63201">
        <ele>1622.684</ele>
        <time>2021-06-13T10:49:11Z</time>
      </trkpt>
      <trkpt lat="42.70355" lon="1.63201">
        <ele>1622.684</ele>
        <time>2021-06-13T10:49:13Z</time>
      </trkpt>
      <trkpt lat="42.70355" lon="1.63201">
        <ele>1622.685</ele>
        <time>2021-06-13T10:49:15Z</time>
      </trkpt>
      <trkpt lat="42.70355" lon="1.63201">
        <ele>1622.689</ele>
        <time>2021-06-13T10:49:17Z</time>
      </trkpt>
      <trkpt lat="42.70355" lon="1.63201">
        <ele>1622.691</ele>
        <time>2021-06-13T10:49:19Z</time>
      </trkpt>
      <trkpt lat="42.70355" lon="1.63201">
        <ele>1622.691</ele>
        <time>2021-06-13T10:49:21Z</time>
      </trkpt>
      <trkpt lat="42.70355" lon="1.63201">
        <ele>1622.693</ele>
        <time>2021-06-13T10:49:23Z</time>
      </trkpt>
      <trkpt lat="42.70355" lon="1.63201">
        <ele>1622.69</ele>
        <time>2021-06-13T10:49:25Z</time>
      </trkpt>
      <trkpt lat="42.70355" lon="1.63201">
        <ele>1622.692</ele>
        <time>2021-06-13T10:49:27Z</time>
      </trkpt>
      <trkpt lat="42.70355" lon="1.63201">
        <ele>1622.69</ele>
        <time>2021-06-13T10:49:29Z</time>
      </trkpt>
      <trkpt lat="42.70355" lon="1.63201">
        <ele>1622.684</ele>
        <time>2021-06-13T10:49:31Z</time>
      </trkpt>
      <trkpt lat="42.70355" lon="1.63201">
        <ele>1622.681</ele>
        <time>2021-06-13T10:49:33Z</time>
      </trkpt>
      <trkpt lat="42.70355" lon="1.63201">
        <ele>1622.679</ele>
        <time>2021-06-13T10:49:35Z</time>
      </trkpt>
      <trkpt lat="42.70355" lon="1.63201">
        <ele>1622.673</ele>
        <time>2021-06-13T10:49:37Z</time>
      </trkpt>
      <trkpt lat="42.70355" lon="1.63201">
        <ele>1622.671</ele>
        <time>2021-06-13T10:49:39Z</time>
      </trkpt>
      <trkpt lat="42.70355" lon="1.63201">
        <ele>1622.669</ele>
        <time>2021-06-13T10:49:41Z</time>
      </trkpt>
      <trkpt lat="42.70355" lon="1.63201">
        <ele>1622.672</ele>
        <time>2021-06-13T10:49:43Z</time>
      </trkpt>
      <trkpt lat="42.70355" lon="1.63201">
        <ele>1622.669</ele>
        <time>2021-06-13T10:49:45Z</time>
      </trkpt>
      <trkpt lat="42.70355" lon="1.63201">
        <ele>1622.672</ele>
        <time>2021-06-13T10:49:47Z</time>
      </trkpt>
      <trkpt lat="42.70355" lon="1.63201">
        <ele>1622.673</ele>
        <time>2021-06-13T10:49:49Z</time>
      </trkpt>
      <trkpt lat="42.70355" lon="1.63201">
        <ele>1622.672</ele>
        <time>2021-06-13T10:49:51Z</time>
      </trkpt>
      <trkpt lat="42.70355" lon="1.63201">
        <ele>1622.675</ele>
        <time>2021-06-13T10:49:53Z</time>
      </trkpt>
      <trkpt lat="42.70355" lon="1.63201">
        <ele>1622.675</ele>
        <time>2021-06-13T10:49:55Z</time>
      </trkpt>
      <trkpt lat="42.70355" lon="1.63201">
        <ele>1622.675</ele>
        <time>2021-06-13T10:49:57Z</time>
      </trkpt>
      <trkpt lat="42.70355" lon="1.63201">
        <ele>1622.681</ele>
        <time>2021-06-13T10:49:59Z</time>
      </trkpt>
      <trkpt lat="42.70355" lon="1.63201">
        <ele>1622.677</ele>
        <time>2021-06-13T10:50:01Z</time>
      </trkpt>
      <trkpt lat="42.70355" lon="1.63201">
        <ele>1622.674</ele>
        <time>2021-06-13T10:50:03Z</time>
      </trkpt>
      <trkpt lat="42.70355" lon="1.63201">
        <ele>1622.673</ele>
        <time>2021-06-13T10:50:05Z</time>
      </trkpt>
      <trkpt lat="42.70355" lon="1.63201">
        <ele>1622.67</ele>
        <time>2021-06-13T10:50:07Z</time>
      </trkpt>
      <trkpt lat="42.70355" lon="1.63201">
        <ele>1622.67</ele>
        <time>2021-06-13T10:50:09Z</time>
      </trkpt>
      <trkpt lat="42.70355" lon="1.63201">
        <ele>1622.662</ele>
        <time>2021-06-13T10:50:11Z</time>
      </trkpt>
      <trkpt lat="42.70355" lon="1.63201">
        <ele>1622.661</ele>
        <time>2021-06-13T10:50:13Z</time>
      </trkpt>
      <trkpt lat="42.70355" lon="1.63201">
        <ele>1622.665</ele>
        <time>2021-06-13T10:50:15Z</time>
      </trkpt>
      <trkpt lat="42.70355" lon="1.63201">
        <ele>1622.662</ele>
        <time>2021-06-13T10:50:17Z</time>
      </trkpt>
      <trkpt lat="42.70355" lon="1.63201">
        <ele>1622.655</ele>
        <time>2021-06-13T10:50:19Z</time>
      </trkpt>
      <trkpt lat="42.70355" lon="1.63201">
        <ele>1622.652</ele>
        <time>2021-06-13T10:50:21Z</time>
      </trkpt>
      <trkpt lat="42.70355" lon="1.63201">
        <ele>1622.654</ele>
        <time>2021-06-13T10:50:23Z</time>
      </trkpt>
      <trkpt lat="42.70355" lon="1.63201">
        <ele>1622.651</ele>
        <time>2021-06-13T10:50:25Z</time>
      </trkpt>
      <trkpt lat="42.70355" lon="1.63201">
        <ele>1622.647</ele>
        <time>2021-06-13T10:50:27Z</time>
      </trkpt>
      <trkpt lat="42.70355" lon="1.63201">
        <ele>1622.646</ele>
        <time>2021-06-13T10:50:29Z</time>
      </trkpt>
      <trkpt lat="42.70355" lon="1.63201">
        <ele>1622.641</ele>
        <time>2021-06-13T10:50:31Z</time>
      </trkpt>
      <trkpt lat="42.70355" lon="1.63201">
        <ele>1622.649</ele>
        <time>2021-06-13T10:50:33Z</time>
      </trkpt>
      <trkpt lat="42.70355" lon="1.63201">
        <ele>1622.648</ele>
        <time>2021-06-13T10:50:35Z</time>
      </trkpt>
      <trkpt lat="42.70355" lon="1.63201">
        <ele>1622.652</ele>
        <time>2021-06-13T10:50:37Z</time>
      </trkpt>
      <trkpt lat="42.70355" lon="1.63201">
        <ele>1622.649</ele>
        <time>2021-06-13T10:50:39Z</time>
      </trkpt>
      <trkpt lat="42.70355" lon="1.63201">
        <ele>1622.647</ele>
        <time>2021-06-13T10:50:41Z</time>
      </trkpt>
      <trkpt lat="42.70355" lon="1.63201">
        <ele>1622.647</ele>
        <time>2021-06-13T10:50:43Z</time>
      </trkpt>
      <trkpt lat="42.70355" lon="1.63201">
        <ele>1622.647</ele>
        <time>2021-06-13T10:50:45Z</time>
      </trkpt>
      <trkpt lat="42.70355" lon="1.63201">
        <ele>1622.648</ele>
        <time>2021-06-13T10:50:47Z</time>
      </trkpt>
      <trkpt lat="42.70355" lon="1.63201">
        <ele>1622.65</ele>
        <time>2021-06-13T10:50:49Z</time>
      </trkpt>
      <trkpt lat="42.70355" lon="1.63201">
        <ele>1622.647</ele>
        <time>2021-06-13T10:50:51Z</time>
      </trkpt>
      <trkpt lat="42.70355" lon="1.63201">
        <ele>1622.647</ele>
        <time>2021-06-13T10:50:53Z</time>
      </trkpt>
      <trkpt lat="42.70355" lon="1.63201">
        <ele>1622.645</ele>
        <time>2021-06-13T10:50:55Z</time>
      </trkpt>
      <trkpt lat="42.70355" lon="1.63201">
        <ele>1622.645</ele>
        <time>2021-06-13T10:50:57Z</time>
      </trkpt>
      <trkpt lat="42.70355" lon="1.63201">
        <ele>1622.649</ele>
        <time>2021-06-13T10:50:59Z</time>
      </trkpt>
      <trkpt lat="42.70355" lon="1.63201">
        <ele>1622.652</ele>
        <time>2021-06-13T10:51:01Z</time>
      </trkpt>
      <trkpt lat="42.70355" lon="1.63201">
        <ele>1622.652</ele>
        <time>2021-06-13T10:51:03Z</time>
      </trkpt>
      <trkpt lat="42.70355" lon="1.63201">
        <ele>1622.652</ele>
        <time>2021-06-13T10:51:05Z</time>
      </trkpt>
      <trkpt lat="42.70355" lon="1.63201">
        <ele>1622.653</ele>
        <time>2021-06-13T10:51:07Z</time>
      </trkpt>
      <trkpt lat="42.70355" lon="1.63201">
        <ele>1622.651</ele>
        <time>2021-06-13T10:51:09Z</time>
      </trkpt>
      <trkpt lat="42.70355" lon="1.63201">
        <ele>1622.646</ele>
        <time>2021-06-13T10:51:11Z</time>
      </trkpt>
      <trkpt lat="42.70355" lon="1.63201">
        <ele>1622.645</ele>
        <time>2021-06-13T10:51:13Z</time>
      </trkpt>
      <trkpt lat="42.70355" lon="1.63201">
        <ele>1622.646</ele>
        <time>2021-06-13T10:51:15Z</time>
      </trkpt>
      <trkpt lat="42.70355" lon="1.63201">
        <ele>1622.65</ele>
        <time>2021-06-13T10:51:17Z</time>
      </trkpt>
      <trkpt lat="42.70355" lon="1.63201">
        <ele>1622.647</ele>
        <time>2021-06-13T10:51:19Z</time>
      </trkpt>
      <trkpt lat="42.70355" lon="1.63201">
        <ele>1622.645</ele>
        <time>2021-06-13T10:51:21Z</time>
      </trkpt>
      <trkpt lat="42.70355" lon="1.63201">
        <ele>1622.646</ele>
        <time>2021-06-13T10:51:23Z</time>
      </trkpt>
      <trkpt lat="42.70355" lon="1.63201">
        <ele>1622.648</ele>
        <time>2021-06-13T10:51:25Z</time>
      </trkpt>
      <trkpt lat="42.70355" lon="1.63201">
        <ele>1622.651</ele>
        <time>2021-06-13T10:51:27Z</time>
      </trkpt>
      <trkpt lat="42.70355" lon="1.63201">
        <ele>1622.657</ele>
        <time>2021-06-13T10:51:29Z</time>
      </trkpt>
      <trkpt lat="42.70355" lon="1.63201">
        <ele>1622.662</ele>
        <time>2021-06-13T10:51:31Z</time>
      </trkpt>
      <trkpt lat="42.70355" lon="1.63201">
        <ele>1622.664</ele>
        <time>2021-06-13T10:51:33Z</time>
      </trkpt>
      <trkpt lat="42.70355" lon="1.63201">
        <ele>1622.665</ele>
        <time>2021-06-13T10:51:35Z</time>
      </trkpt>
      <trkpt lat="42.70355" lon="1.63201">
        <ele>1622.671</ele>
        <time>2021-06-13T10:51:37Z</time>
      </trkpt>
      <trkpt lat="42.70355" lon="1.63201">
        <ele>1622.675</ele>
        <time>2021-06-13T10:51:39Z</time>
      </trkpt>
      <trkpt lat="42.70355" lon="1.63201">
        <ele>1622.675</ele>
        <time>2021-06-13T10:51:41Z</time>
      </trkpt>
      <trkpt lat="42.70355" lon="1.63201">
        <ele>1622.68</ele>
        <time>2021-06-13T10:51:43Z</time>
      </trkpt>
      <trkpt lat="42.70355" lon="1.63201">
        <ele>1622.679</ele>
        <time>2021-06-13T10:51:45Z</time>
      </trkpt>
      <trkpt lat="42.70355" lon="1.63201">
        <ele>1622.68</ele>
        <time>2021-06-13T10:51:47Z</time>
      </trkpt>
      <trkpt lat="42.70355" lon="1.63201">
        <ele>1622.678</ele>
        <time>2021-06-13T10:51:49Z</time>
      </trkpt>
      <trkpt lat="42.70355" lon="1.63201">
        <ele>1622.68</ele>
        <time>2021-06-13T10:51:51Z</time>
      </trkpt>
      <trkpt lat="42.70355" lon="1.63201">
        <ele>1622.679</ele>
        <time>2021-06-13T10:51:53Z</time>
      </trkpt>
      <trkpt lat="42.70355" lon="1.63201">
        <ele>1622.679</ele>
        <time>2021-06-13T10:51:55Z</time>
      </trkpt>
      <trkpt lat="42.70355" lon="1.63201">
        <ele>1623.261</ele>
        <time>2021-06-13T10:51:57Z</time>
      </trkpt>
      <trkpt lat="42.70356" lon="1.63201">
        <ele>1623.261</ele>
        <time>2021-06-13T10:51:59Z</time>
      </trkpt>
      <trkpt lat="42.70356" lon="1.63201">
        <ele>1623.269</ele>
        <time>2021-06-13T10:52:01Z</time>
      </trkpt>
      <trkpt lat="42.70356" lon="1.63201">
        <ele>1623.278</ele>
        <time>2021-06-13T10:52:03Z</time>
      </trkpt>
      <trkpt lat="42.70356" lon="1.63201">
        <ele>1623.283</ele>
        <time>2021-06-13T10:52:05Z</time>
      </trkpt>
      <trkpt lat="42.70356" lon="1.63201">
        <ele>1623.293</ele>
        <time>2021-06-13T10:52:07Z</time>
      </trkpt>
      <trkpt lat="42.70356" lon="1.63201">
        <ele>1623.288</ele>
        <time>2021-06-13T10:52:09Z</time>
      </trkpt>
      <trkpt lat="42.70356" lon="1.63201">
        <ele>1623.287</ele>
        <time>2021-06-13T10:52:11Z</time>
      </trkpt>
      <trkpt lat="42.70355" lon="1.63201">
        <ele>1623.014</ele>
        <time>2021-06-13T10:52:13Z</time>
      </trkpt>
      <trkpt lat="42.70355" lon="1.63201">
        <ele>1623</ele>
        <time>2021-06-13T10:52:15Z</time>
      </trkpt>
      <trkpt lat="42.70355" lon="1.63201">
        <ele>1623.001</ele>
        <time>2021-06-13T10:52:16Z</time>
      </trkpt>
      <trkpt lat="42.70355" lon="1.63201">
        <ele>1623.001</ele>
        <time>2021-06-13T10:52:19Z</time>
      </trkpt>
      <trkpt lat="42.70355" lon="1.63201">
        <ele>1622.995</ele>
        <time>2021-06-13T10:52:21Z</time>
      </trkpt>
      <trkpt lat="42.70355" lon="1.63201">
        <ele>1622.994</ele>
        <time>2021-06-13T10:52:23Z</time>
      </trkpt>
      <trkpt lat="42.70355" lon="1.63201">
        <ele>1622.992</ele>
        <time>2021-06-13T10:52:25Z</time>
      </trkpt>
      <trkpt lat="42.70355" lon="1.63201">
        <ele>1622.997</ele>
        <time>2021-06-13T10:52:27Z</time>
      </trkpt>
      <trkpt lat="42.70355" lon="1.63201">
        <ele>1623.002</ele>
        <time>2021-06-13T10:52:29Z</time>
      </trkpt>
      <trkpt lat="42.70355" lon="1.63201">
        <ele>1623.007</ele>
        <time>2021-06-13T10:52:31Z</time>
      </trkpt>
      <trkpt lat="42.70355" lon="1.63201">
        <ele>1623.007</ele>
        <time>2021-06-13T10:52:33Z</time>
      </trkpt>
      <trkpt lat="42.70355" lon="1.63201">
        <ele>1623.013</ele>
        <time>2021-06-13T10:52:35Z</time>
      </trkpt>
      <trkpt lat="42.70355" lon="1.63201">
        <ele>1623.01</ele>
        <time>2021-06-13T10:52:37Z</time>
      </trkpt>
      <trkpt lat="42.70355" lon="1.63201">
        <ele>1623.008</ele>
        <time>2021-06-13T10:52:39Z</time>
      </trkpt>
      <trkpt lat="42.70355" lon="1.63201">
        <ele>1623.01</ele>
        <time>2021-06-13T10:52:41Z</time>
      </trkpt>
      <trkpt lat="42.70355" lon="1.63201">
        <ele>1623.006</ele>
        <time>2021-06-13T10:52:43Z</time>
      </trkpt>
      <trkpt lat="42.70355" lon="1.63201">
        <ele>1623.009</ele>
        <time>2021-06-13T10:52:45Z</time>
      </trkpt>
      <trkpt lat="42.70355" lon="1.63201">
        <ele>1623.008</ele>
        <time>2021-06-13T10:52:47Z</time>
      </trkpt>
      <trkpt lat="42.70355" lon="1.63201">
        <ele>1623.002</ele>
        <time>2021-06-13T10:52:49Z</time>
      </trkpt>
      <trkpt lat="42.70355" lon="1.63201">
        <ele>1623</ele>
        <time>2021-06-13T10:52:51Z</time>
      </trkpt>
      <trkpt lat="42.70355" lon="1.63201">
        <ele>1622.996</ele>
        <time>2021-06-13T10:52:53Z</time>
      </trkpt>
      <trkpt lat="42.70355" lon="1.63201">
        <ele>1622.999</ele>
        <time>2021-06-13T10:52:55Z</time>
      </trkpt>
      <trkpt lat="42.70355" lon="1.63201">
        <ele>1622.995</ele>
        <time>2021-06-13T10:52:57Z</time>
      </trkpt>
      <trkpt lat="42.70355" lon="1.63201">
        <ele>1622.987</ele>
        <time>2021-06-13T10:52:59Z</time>
      </trkpt>
      <trkpt lat="42.70355" lon="1.63201">
        <ele>1622.976</ele>
        <time>2021-06-13T10:53:01Z</time>
      </trkpt>
      <trkpt lat="42.70355" lon="1.63201">
        <ele>1622.97</ele>
        <time>2021-06-13T10:53:03Z</time>
      </trkpt>
      <trkpt lat="42.70355" lon="1.63201">
        <ele>1622.964</ele>
        <time>2021-06-13T10:53:05Z</time>
      </trkpt>
      <trkpt lat="42.70355" lon="1.63201">
        <ele>1622.96</ele>
        <time>2021-06-13T10:53:07Z</time>
      </trkpt>
      <trkpt lat="42.70355" lon="1.63201">
        <ele>1622.967</ele>
        <time>2021-06-13T10:53:09Z</time>
      </trkpt>
      <trkpt lat="42.70355" lon="1.63201">
        <ele>1622.957</ele>
        <time>2021-06-13T10:53:11Z</time>
      </trkpt>
      <trkpt lat="42.70355" lon="1.63201">
        <ele>1622.956</ele>
        <time>2021-06-13T10:53:13Z</time>
      </trkpt>
      <trkpt lat="42.70355" lon="1.63201">
        <ele>1622.952</ele>
        <time>2021-06-13T10:53:15Z</time>
      </trkpt>
      <trkpt lat="42.70355" lon="1.63201">
        <ele>1622.945</ele>
        <time>2021-06-13T10:53:17Z</time>
      </trkpt>
      <trkpt lat="42.70355" lon="1.63201">
        <ele>1622.948</ele>
        <time>2021-06-13T10:53:19Z</time>
      </trkpt>
      <trkpt lat="42.70355" lon="1.63201">
        <ele>1622.954</ele>
        <time>2021-06-13T10:53:21Z</time>
      </trkpt>
      <trkpt lat="42.70355" lon="1.63201">
        <ele>1622.95</ele>
        <time>2021-06-13T10:53:23Z</time>
      </trkpt>
      <trkpt lat="42.70355" lon="1.63201">
        <ele>1622.948</ele>
        <time>2021-06-13T10:53:25Z</time>
      </trkpt>
      <trkpt lat="42.70355" lon="1.63201">
        <ele>1622.945</ele>
        <time>2021-06-13T10:53:27Z</time>
      </trkpt>
      <trkpt lat="42.70355" lon="1.63201">
        <ele>1622.942</ele>
        <time>2021-06-13T10:53:29Z</time>
      </trkpt>
      <trkpt lat="42.70355" lon="1.63201">
        <ele>1622.941</ele>
        <time>2021-06-13T10:53:31Z</time>
      </trkpt>
      <trkpt lat="42.70355" lon="1.63201">
        <ele>1622.948</ele>
        <time>2021-06-13T10:53:33Z</time>
      </trkpt>
      <trkpt lat="42.70355" lon="1.63201">
        <ele>1622.941</ele>
        <time>2021-06-13T10:53:35Z</time>
      </trkpt>
      <trkpt lat="42.70355" lon="1.63201">
        <ele>1622.944</ele>
        <time>2021-06-13T10:53:37Z</time>
      </trkpt>
      <trkpt lat="42.70355" lon="1.63201">
        <ele>1622.948</ele>
        <time>2021-06-13T10:53:39Z</time>
      </trkpt>
      <trkpt lat="42.70355" lon="1.63201">
        <ele>1622.956</ele>
        <time>2021-06-13T10:53:41Z</time>
      </trkpt>
      <trkpt lat="42.70355" lon="1.63201">
        <ele>1622.966</ele>
        <time>2021-06-13T10:53:43Z</time>
      </trkpt>
      <trkpt lat="42.70355" lon="1.63201">
        <ele>1622.971</ele>
        <time>2021-06-13T10:53:45Z</time>
      </trkpt>
      <trkpt lat="42.70355" lon="1.63201">
        <ele>1622.975</ele>
        <time>2021-06-13T10:53:47Z</time>
      </trkpt>
      <trkpt lat="42.70355" lon="1.63201">
        <ele>1622.975</ele>
        <time>2021-06-13T10:53:49Z</time>
      </trkpt>
      <trkpt lat="42.70355" lon="1.63201">
        <ele>1622.979</ele>
        <time>2021-06-13T10:53:51Z</time>
      </trkpt>
      <trkpt lat="42.70355" lon="1.63201">
        <ele>1622.986</ele>
        <time>2021-06-13T10:53:53Z</time>
      </trkpt>
      <trkpt lat="42.70355" lon="1.63201">
        <ele>1622.994</ele>
        <time>2021-06-13T10:53:55Z</time>
      </trkpt>
      <trkpt lat="42.70355" lon="1.63201">
        <ele>1622.994</ele>
        <time>2021-06-13T10:53:57Z</time>
      </trkpt>
      <trkpt lat="42.70355" lon="1.63201">
        <ele>1622.993</ele>
        <time>2021-06-13T10:53:59Z</time>
      </trkpt>
      <trkpt lat="42.70355" lon="1.63201">
        <ele>1622.989</ele>
        <time>2021-06-13T10:54:01Z</time>
      </trkpt>
      <trkpt lat="42.70355" lon="1.63201">
        <ele>1622.989</ele>
        <time>2021-06-13T10:54:03Z</time>
      </trkpt>
      <trkpt lat="42.70355" lon="1.63201">
        <ele>1622.985</ele>
        <time>2021-06-13T10:54:05Z</time>
      </trkpt>
      <trkpt lat="42.70355" lon="1.63201">
        <ele>1622.996</ele>
        <time>2021-06-13T10:54:07Z</time>
      </trkpt>
      <trkpt lat="42.70355" lon="1.63201">
        <ele>1623</ele>
        <time>2021-06-13T10:54:09Z</time>
      </trkpt>
      <trkpt lat="42.70355" lon="1.63201">
        <ele>1623.003</ele>
        <time>2021-06-13T10:54:11Z</time>
      </trkpt>
      <trkpt lat="42.70355" lon="1.63201">
        <ele>1623.003</ele>
        <time>2021-06-13T10:54:13Z</time>
      </trkpt>
      <trkpt lat="42.70355" lon="1.63201">
        <ele>1623.001</ele>
        <time>2021-06-13T10:54:15Z</time>
      </trkpt>
      <trkpt lat="42.70355" lon="1.63201">
        <ele>1623.003</ele>
        <time>2021-06-13T10:54:17Z</time>
      </trkpt>
      <trkpt lat="42.70355" lon="1.63201">
        <ele>1623.006</ele>
        <time>2021-06-13T10:54:19Z</time>
      </trkpt>
      <trkpt lat="42.70355" lon="1.63201">
        <ele>1623.011</ele>
        <time>2021-06-13T10:54:21Z</time>
      </trkpt>
      <trkpt lat="42.70355" lon="1.63201">
        <ele>1623.015</ele>
        <time>2021-06-13T10:54:23Z</time>
      </trkpt>
      <trkpt lat="42.70355" lon="1.63201">
        <ele>1623.02</ele>
        <time>2021-06-13T10:54:25Z</time>
      </trkpt>
      <trkpt lat="42.70355" lon="1.63201">
        <ele>1623.029</ele>
        <time>2021-06-13T10:54:27Z</time>
      </trkpt>
      <trkpt lat="42.70355" lon="1.63201">
        <ele>1623.033</ele>
        <time>2021-06-13T10:54:29Z</time>
      </trkpt>
      <trkpt lat="42.70355" lon="1.63201">
        <ele>1623.03</ele>
        <time>2021-06-13T10:54:31Z</time>
      </trkpt>
      <trkpt lat="42.70355" lon="1.63201">
        <ele>1623.032</ele>
        <time>2021-06-13T10:54:33Z</time>
      </trkpt>
      <trkpt lat="42.70355" lon="1.63201">
        <ele>1623.031</ele>
        <time>2021-06-13T10:54:35Z</time>
      </trkpt>
      <trkpt lat="42.70355" lon="1.63201">
        <ele>1623.035</ele>
        <time>2021-06-13T10:54:37Z</time>
      </trkpt>
      <trkpt lat="42.70355" lon="1.63201">
        <ele>1623.034</ele>
        <time>2021-06-13T10:54:39Z</time>
      </trkpt>
      <trkpt lat="42.70355" lon="1.63201">
        <ele>1623.042</ele>
        <time>2021-06-13T10:54:41Z</time>
      </trkpt>
      <trkpt lat="42.70355" lon="1.63201">
        <ele>1623.041</ele>
        <time>2021-06-13T10:54:43Z</time>
      </trkpt>
      <trkpt lat="42.70355" lon="1.63201">
        <ele>1623.041</ele>
        <time>2021-06-13T10:54:45Z</time>
      </trkpt>
      <trkpt lat="42.70355" lon="1.63201">
        <ele>1623.043</ele>
        <time>2021-06-13T10:54:47Z</time>
      </trkpt>
      <trkpt lat="42.70355" lon="1.63201">
        <ele>1623.044</ele>
        <time>2021-06-13T10:54:49Z</time>
      </trkpt>
      <trkpt lat="42.70355" lon="1.63201">
        <ele>1623.046</ele>
        <time>2021-06-13T10:54:51Z</time>
      </trkpt>
      <trkpt lat="42.70355" lon="1.63201">
        <ele>1623.042</ele>
        <time>2021-06-13T10:54:53Z</time>
      </trkpt>
      <trkpt lat="42.70355" lon="1.63201">
        <ele>1623.051</ele>
        <time>2021-06-13T10:54:55Z</time>
      </trkpt>
      <trkpt lat="42.70355" lon="1.63201">
        <ele>1623.054</ele>
        <time>2021-06-13T10:54:57Z</time>
      </trkpt>
      <trkpt lat="42.70355" lon="1.63201">
        <ele>1623.056</ele>
        <time>2021-06-13T10:54:59Z</time>
      </trkpt>
      <trkpt lat="42.70355" lon="1.63201">
        <ele>1623.061</ele>
        <time>2021-06-13T10:55:01Z</time>
      </trkpt>
      <trkpt lat="42.70355" lon="1.63201">
        <ele>1623.071</ele>
        <time>2021-06-13T10:55:03Z</time>
      </trkpt>
      <trkpt lat="42.70355" lon="1.63201">
        <ele>1623.076</ele>
        <time>2021-06-13T10:55:05Z</time>
      </trkpt>
      <trkpt lat="42.70355" lon="1.63201">
        <ele>1623.075</ele>
        <time>2021-06-13T10:55:07Z</time>
      </trkpt>
      <trkpt lat="42.70355" lon="1.63201">
        <ele>1623.077</ele>
        <time>2021-06-13T10:55:09Z</time>
      </trkpt>
      <trkpt lat="42.70355" lon="1.63201">
        <ele>1623.086</ele>
        <time>2021-06-13T10:55:11Z</time>
      </trkpt>
      <trkpt lat="42.70355" lon="1.63201">
        <ele>1623.092</ele>
        <time>2021-06-13T10:55:13Z</time>
      </trkpt>
      <trkpt lat="42.70355" lon="1.63201">
        <ele>1623.101</ele>
        <time>2021-06-13T10:55:15Z</time>
      </trkpt>
      <trkpt lat="42.70355" lon="1.63201">
        <ele>1623.108</ele>
        <time>2021-06-13T10:55:17Z</time>
      </trkpt>
      <trkpt lat="42.70355" lon="1.63201">
        <ele>1623.111</ele>
        <time>2021-06-13T10:55:19Z</time>
      </trkpt>
      <trkpt lat="42.70355" lon="1.63201">
        <ele>1623.116</ele>
        <time>2021-06-13T10:55:21Z</time>
      </trkpt>
      <trkpt lat="42.70355" lon="1.63201">
        <ele>1623.128</ele>
        <time>2021-06-13T10:55:23Z</time>
      </trkpt>
      <trkpt lat="42.70355" lon="1.63201">
        <ele>1623.137</ele>
        <time>2021-06-13T10:55:25Z</time>
      </trkpt>
      <trkpt lat="42.70355" lon="1.63201">
        <ele>1623.145</ele>
        <time>2021-06-13T10:55:27Z</time>
      </trkpt>
      <trkpt lat="42.70355" lon="1.63201">
        <ele>1623.14</ele>
        <time>2021-06-13T10:55:29Z</time>
      </trkpt>
      <trkpt lat="42.70355" lon="1.63201">
        <ele>1623.147</ele>
        <time>2021-06-13T10:55:31Z</time>
      </trkpt>
      <trkpt lat="42.70355" lon="1.63201">
        <ele>1623.154</ele>
        <time>2021-06-13T10:55:33Z</time>
      </trkpt>
      <trkpt lat="42.70355" lon="1.63202">
        <ele>1623.159</ele>
        <time>2021-06-13T10:55:35Z</time>
      </trkpt>
      <trkpt lat="42.70355" lon="1.63202">
        <ele>1623.166</ele>
        <time>2021-06-13T10:55:37Z</time>
      </trkpt>
      <trkpt lat="42.70355" lon="1.63202">
        <ele>1623.169</ele>
        <time>2021-06-13T10:55:39Z</time>
      </trkpt>
      <trkpt lat="42.70355" lon="1.63202">
        <ele>1623.173</ele>
        <time>2021-06-13T10:55:41Z</time>
      </trkpt>
      <trkpt lat="42.70355" lon="1.63202">
        <ele>1623.182</ele>
        <time>2021-06-13T10:55:43Z</time>
      </trkpt>
      <trkpt lat="42.70355" lon="1.63202">
        <ele>1623.185</ele>
        <time>2021-06-13T10:55:45Z</time>
      </trkpt>
      <trkpt lat="42.70355" lon="1.63202">
        <ele>1623.186</ele>
        <time>2021-06-13T10:55:47Z</time>
      </trkpt>
      <trkpt lat="42.70355" lon="1.63202">
        <ele>1623.183</ele>
        <time>2021-06-13T10:55:49Z</time>
      </trkpt>
      <trkpt lat="42.70355" lon="1.63202">
        <ele>1623.18</ele>
        <time>2021-06-13T10:55:51Z</time>
      </trkpt>
      <trkpt lat="42.70355" lon="1.63202">
        <ele>1623.184</ele>
        <time>2021-06-13T10:55:53Z</time>
      </trkpt>
      <trkpt lat="42.70355" lon="1.63202">
        <ele>1623.203</ele>
        <time>2021-06-13T10:55:55Z</time>
      </trkpt>
      <trkpt lat="42.70355" lon="1.63202">
        <ele>1623.222</ele>
        <time>2021-06-13T10:55:57Z</time>
      </trkpt>
      <trkpt lat="42.70355" lon="1.63202">
        <ele>1623.224</ele>
        <time>2021-06-13T10:55:59Z</time>
      </trkpt>
      <trkpt lat="42.70355" lon="1.63202">
        <ele>1623.224</ele>
        <time>2021-06-13T10:56:01Z</time>
      </trkpt>
      <trkpt lat="42.70355" lon="1.63202">
        <ele>1623.226</ele>
        <time>2021-06-13T10:56:03Z</time>
      </trkpt>
      <trkpt lat="42.70355" lon="1.63202">
        <ele>1623.235</ele>
        <time>2021-06-13T10:56:05Z</time>
      </trkpt>
      <trkpt lat="42.70355" lon="1.63202">
        <ele>1623.246</ele>
        <time>2021-06-13T10:56:07Z</time>
      </trkpt>
      <trkpt lat="42.70355" lon="1.63202">
        <ele>1623.255</ele>
        <time>2021-06-13T10:56:09Z</time>
      </trkpt>
      <trkpt lat="42.70355" lon="1.63202">
        <ele>1623.26</ele>
        <time>2021-06-13T10:56:11Z</time>
      </trkpt>
      <trkpt lat="42.70355" lon="1.63202">
        <ele>1623.263</ele>
        <time>2021-06-13T10:56:13Z</time>
      </trkpt>
      <trkpt lat="42.70355" lon="1.63202">
        <ele>1623.26</ele>
        <time>2021-06-13T10:56:15Z</time>
      </trkpt>
      <trkpt lat="42.70355" lon="1.63202">
        <ele>1623.258</ele>
        <time>2021-06-13T10:56:17Z</time>
      </trkpt>
      <trkpt lat="42.70355" lon="1.63202">
        <ele>1623.25</ele>
        <time>2021-06-13T10:56:19Z</time>
      </trkpt>
      <trkpt lat="42.70355" lon="1.63202">
        <ele>1623.252</ele>
        <time>2021-06-13T10:56:21Z</time>
      </trkpt>
      <trkpt lat="42.70355" lon="1.63202">
        <ele>1623.244</ele>
        <time>2021-06-13T10:56:23Z</time>
      </trkpt>
      <trkpt lat="42.70355" lon="1.63202">
        <ele>1623.246</ele>
        <time>2021-06-13T10:56:25Z</time>
      </trkpt>
      <trkpt lat="42.70355" lon="1.63202">
        <ele>1623.244</ele>
        <time>2021-06-13T10:56:27Z</time>
      </trkpt>
      <trkpt lat="42.70355" lon="1.63202">
        <ele>1623.242</ele>
        <time>2021-06-13T10:56:29Z</time>
      </trkpt>
      <trkpt lat="42.70355" lon="1.63202">
        <ele>1623.245</ele>
        <time>2021-06-13T10:56:31Z</time>
      </trkpt>
      <trkpt lat="42.70355" lon="1.63202">
        <ele>1623.25</ele>
        <time>2021-06-13T10:56:33Z</time>
      </trkpt>
      <trkpt lat="42.70355" lon="1.63202">
        <ele>1623.253</ele>
        <time>2021-06-13T10:56:35Z</time>
      </trkpt>
      <trkpt lat="42.70355" lon="1.63202">
        <ele>1623.252</ele>
        <time>2021-06-13T10:56:37Z</time>
      </trkpt>
      <trkpt lat="42.70355" lon="1.63202">
        <ele>1623.253</ele>
        <time>2021-06-13T10:56:39Z</time>
      </trkpt>
      <trkpt lat="42.70355" lon="1.63202">
        <ele>1623.254</ele>
        <time>2021-06-13T10:56:41Z</time>
      </trkpt>
      <trkpt lat="42.70355" lon="1.63202">
        <ele>1623.252</ele>
        <time>2021-06-13T10:56:43Z</time>
      </trkpt>
      <trkpt lat="42.70355" lon="1.63202">
        <ele>1623.25</ele>
        <time>2021-06-13T10:56:45Z</time>
      </trkpt>
      <trkpt lat="42.70355" lon="1.63202">
        <ele>1623.249</ele>
        <time>2021-06-13T10:56:47Z</time>
      </trkpt>
      <trkpt lat="42.70355" lon="1.63202">
        <ele>1623.255</ele>
        <time>2021-06-13T10:56:49Z</time>
      </trkpt>
      <trkpt lat="42.70355" lon="1.63202">
        <ele>1623.256</ele>
        <time>2021-06-13T10:56:51Z</time>
      </trkpt>
      <trkpt lat="42.70355" lon="1.63202">
        <ele>1623.26</ele>
        <time>2021-06-13T10:56:53Z</time>
      </trkpt>
      <trkpt lat="42.70355" lon="1.63202">
        <ele>1623.26</ele>
        <time>2021-06-13T10:56:55Z</time>
      </trkpt>
      <trkpt lat="42.70355" lon="1.63202">
        <ele>1623.254</ele>
        <time>2021-06-13T10:56:57Z</time>
      </trkpt>
      <trkpt lat="42.70355" lon="1.63202">
        <ele>1623.249</ele>
        <time>2021-06-13T10:56:59Z</time>
      </trkpt>
      <trkpt lat="42.70355" lon="1.63202">
        <ele>1623.255</ele>
        <time>2021-06-13T10:57:01Z</time>
      </trkpt>
      <trkpt lat="42.70355" lon="1.63202">
        <ele>1623.261</ele>
        <time>2021-06-13T10:57:03Z</time>
      </trkpt>
      <trkpt lat="42.70355" lon="1.63202">
        <ele>1623.267</ele>
        <time>2021-06-13T10:57:05Z</time>
      </trkpt>
      <trkpt lat="42.70355" lon="1.63202">
        <ele>1623.271</ele>
        <time>2021-06-13T10:57:07Z</time>
      </trkpt>
      <trkpt lat="42.70355" lon="1.63202">
        <ele>1623.268</ele>
        <time>2021-06-13T10:57:09Z</time>
      </trkpt>
      <trkpt lat="42.70355" lon="1.63202">
        <ele>1623.263</ele>
        <time>2021-06-13T10:57:11Z</time>
      </trkpt>
      <trkpt lat="42.70355" lon="1.63202">
        <ele>1623.266</ele>
        <time>2021-06-13T10:57:13Z</time>
      </trkpt>
      <trkpt lat="42.70355" lon="1.63202">
        <ele>1623.268</ele>
        <time>2021-06-13T10:57:15Z</time>
      </trkpt>
      <trkpt lat="42.70355" lon="1.63202">
        <ele>1623.271</ele>
        <time>2021-06-13T10:57:17Z</time>
      </trkpt>
      <trkpt lat="42.70355" lon="1.63202">
        <ele>1623.27</ele>
        <time>2021-06-13T10:57:19Z</time>
      </trkpt>
      <trkpt lat="42.70355" lon="1.63202">
        <ele>1623.271</ele>
        <time>2021-06-13T10:57:21Z</time>
      </trkpt>
      <trkpt lat="42.70355" lon="1.63202">
        <ele>1623.271</ele>
        <time>2021-06-13T10:57:23Z</time>
      </trkpt>
      <trkpt lat="42.70355" lon="1.63202">
        <ele>1623.269</ele>
        <time>2021-06-13T10:57:25Z</time>
      </trkpt>
      <trkpt lat="42.70355" lon="1.63202">
        <ele>1623.266</ele>
        <time>2021-06-13T10:57:27Z</time>
      </trkpt>
      <trkpt lat="42.70355" lon="1.63202">
        <ele>1623.262</ele>
        <time>2021-06-13T10:57:29Z</time>
      </trkpt>
      <trkpt lat="42.70355" lon="1.63202">
        <ele>1623.253</ele>
        <time>2021-06-13T10:57:31Z</time>
      </trkpt>
      <trkpt lat="42.70355" lon="1.63202">
        <ele>1623.252</ele>
        <time>2021-06-13T10:57:33Z</time>
      </trkpt>
      <trkpt lat="42.70355" lon="1.63202">
        <ele>1623.252</ele>
        <time>2021-06-13T10:57:35Z</time>
      </trkpt>
      <trkpt lat="42.70355" lon="1.63202">
        <ele>1623.26</ele>
        <time>2021-06-13T10:57:37Z</time>
      </trkpt>
      <trkpt lat="42.70355" lon="1.63202">
        <ele>1623.265</ele>
        <time>2021-06-13T10:57:39Z</time>
      </trkpt>
      <trkpt lat="42.70355" lon="1.63202">
        <ele>1623.264</ele>
        <time>2021-06-13T10:57:41Z</time>
      </trkpt>
      <trkpt lat="42.70355" lon="1.63202">
        <ele>1623.266</ele>
        <time>2021-06-13T10:57:43Z</time>
      </trkpt>
      <trkpt lat="42.70355" lon="1.63202">
        <ele>1623.279</ele>
        <time>2021-06-13T10:57:45Z</time>
      </trkpt>
      <trkpt lat="42.70355" lon="1.63202">
        <ele>1623.301</ele>
        <time>2021-06-13T10:57:47Z</time>
      </trkpt>
      <trkpt lat="42.70355" lon="1.63202">
        <ele>1623.317</ele>
        <time>2021-06-13T10:57:49Z</time>
      </trkpt>
      <trkpt lat="42.70355" lon="1.63202">
        <ele>1623.328</ele>
        <time>2021-06-13T10:57:51Z</time>
      </trkpt>
      <trkpt lat="42.70355" lon="1.63202">
        <ele>1623.334</ele>
        <time>2021-06-13T10:57:53Z</time>
      </trkpt>
      <trkpt lat="42.70355" lon="1.63202">
        <ele>1623.331</ele>
        <time>2021-06-13T10:57:55Z</time>
      </trkpt>
      <trkpt lat="42.70355" lon="1.63202">
        <ele>1623.331</ele>
        <time>2021-06-13T10:57:57Z</time>
      </trkpt>
      <trkpt lat="42.70355" lon="1.63202">
        <ele>1623.336</ele>
        <time>2021-06-13T10:57:59Z</time>
      </trkpt>
      <trkpt lat="42.70355" lon="1.63202">
        <ele>1623.342</ele>
        <time>2021-06-13T10:58:01Z</time>
      </trkpt>
      <trkpt lat="42.70355" lon="1.63202">
        <ele>1623.343</ele>
        <time>2021-06-13T10:58:03Z</time>
      </trkpt>
      <trkpt lat="42.70355" lon="1.63202">
        <ele>1623.346</ele>
        <time>2021-06-13T10:58:05Z</time>
      </trkpt>
      <trkpt lat="42.70355" lon="1.63202">
        <ele>1623.351</ele>
        <time>2021-06-13T10:58:07Z</time>
      </trkpt>
      <trkpt lat="42.70355" lon="1.63202">
        <ele>1623.354</ele>
        <time>2021-06-13T10:58:09Z</time>
      </trkpt>
      <trkpt lat="42.70355" lon="1.63202">
        <ele>1623.362</ele>
        <time>2021-06-13T10:58:11Z</time>
      </trkpt>
      <trkpt lat="42.70355" lon="1.63202">
        <ele>1623.372</ele>
        <time>2021-06-13T10:58:13Z</time>
      </trkpt>
      <trkpt lat="42.70355" lon="1.63202">
        <ele>1623.378</ele>
        <time>2021-06-13T10:58:15Z</time>
      </trkpt>
      <trkpt lat="42.70355" lon="1.63202">
        <ele>1623.371</ele>
        <time>2021-06-13T10:58:17Z</time>
      </trkpt>
      <trkpt lat="42.70355" lon="1.63202">
        <ele>1623.371</ele>
        <time>2021-06-13T10:58:19Z</time>
      </trkpt>
      <trkpt lat="42.70355" lon="1.63202">
        <ele>1623.369</ele>
        <time>2021-06-13T10:58:21Z</time>
      </trkpt>
      <trkpt lat="42.70355" lon="1.63202">
        <ele>1623.37</ele>
        <time>2021-06-13T10:58:23Z</time>
      </trkpt>
      <trkpt lat="42.70355" lon="1.63202">
        <ele>1623.372</ele>
        <time>2021-06-13T10:58:25Z</time>
      </trkpt>
      <trkpt lat="42.70355" lon="1.63202">
        <ele>1623.381</ele>
        <time>2021-06-13T10:58:27Z</time>
      </trkpt>
      <trkpt lat="42.70355" lon="1.63202">
        <ele>1623.39</ele>
        <time>2021-06-13T10:58:29Z</time>
      </trkpt>
      <trkpt lat="42.70355" lon="1.63202">
        <ele>1623.396</ele>
        <time>2021-06-13T10:58:31Z</time>
      </trkpt>
      <trkpt lat="42.70355" lon="1.63202">
        <ele>1623.404</ele>
        <time>2021-06-13T10:58:33Z</time>
      </trkpt>
      <trkpt lat="42.70355" lon="1.63202">
        <ele>1623.407</ele>
        <time>2021-06-13T10:58:35Z</time>
      </trkpt>
      <trkpt lat="42.70355" lon="1.63202">
        <ele>1623.409</ele>
        <time>2021-06-13T10:58:37Z</time>
      </trkpt>
      <trkpt lat="42.70355" lon="1.63202">
        <ele>1623.411</ele>
        <time>2021-06-13T10:58:39Z</time>
      </trkpt>
      <trkpt lat="42.70355" lon="1.63202">
        <ele>1623.412</ele>
        <time>2021-06-13T10:58:41Z</time>
      </trkpt>
      <trkpt lat="42.70355" lon="1.63202">
        <ele>1623.412</ele>
        <time>2021-06-13T10:58:43Z</time>
      </trkpt>
      <trkpt lat="42.70355" lon="1.63202">
        <ele>1623.416</ele>
        <time>2021-06-13T10:58:45Z</time>
      </trkpt>
      <trkpt lat="42.70355" lon="1.63202">
        <ele>1623.431</ele>
        <time>2021-06-13T10:58:47Z</time>
      </trkpt>
      <trkpt lat="42.70355" lon="1.63202">
        <ele>1623.439</ele>
        <time>2021-06-13T10:58:49Z</time>
      </trkpt>
      <trkpt lat="42.70355" lon="1.63202">
        <ele>1623.438</ele>
        <time>2021-06-13T10:58:51Z</time>
      </trkpt>
      <trkpt lat="42.70355" lon="1.63202">
        <ele>1623.437</ele>
        <time>2021-06-13T10:58:53Z</time>
      </trkpt>
      <trkpt lat="42.70355" lon="1.63202">
        <ele>1623.442</ele>
        <time>2021-06-13T10:58:55Z</time>
      </trkpt>
      <trkpt lat="42.70355" lon="1.63202">
        <ele>1623.444</ele>
        <time>2021-06-13T10:58:57Z</time>
      </trkpt>
      <trkpt lat="42.70355" lon="1.63202">
        <ele>1623.444</ele>
        <time>2021-06-13T10:58:59Z</time>
      </trkpt>
      <trkpt lat="42.70355" lon="1.63202">
        <ele>1623.444</ele>
        <time>2021-06-13T10:59:01Z</time>
      </trkpt>
      <trkpt lat="42.70355" lon="1.63202">
        <ele>1623.445</ele>
        <time>2021-06-13T10:59:03Z</time>
      </trkpt>
      <trkpt lat="42.70355" lon="1.63202">
        <ele>1623.451</ele>
        <time>2021-06-13T10:59:05Z</time>
      </trkpt>
      <trkpt lat="42.70355" lon="1.63202">
        <ele>1623.454</ele>
        <time>2021-06-13T10:59:07Z</time>
      </trkpt>
      <trkpt lat="42.70355" lon="1.63202">
        <ele>1623.457</ele>
        <time>2021-06-13T10:59:09Z</time>
      </trkpt>
      <trkpt lat="42.70355" lon="1.63202">
        <ele>1623.466</ele>
        <time>2021-06-13T10:59:11Z</time>
      </trkpt>
      <trkpt lat="42.70355" lon="1.63202">
        <ele>1623.47</ele>
        <time>2021-06-13T10:59:13Z</time>
      </trkpt>
      <trkpt lat="42.70355" lon="1.63202">
        <ele>1623.474</ele>
        <time>2021-06-13T10:59:15Z</time>
      </trkpt>
      <trkpt lat="42.70355" lon="1.63202">
        <ele>1623.472</ele>
        <time>2021-06-13T10:59:17Z</time>
      </trkpt>
      <trkpt lat="42.70355" lon="1.63202">
        <ele>1623.467</ele>
        <time>2021-06-13T10:59:19Z</time>
      </trkpt>
      <trkpt lat="42.70355" lon="1.63202">
        <ele>1623.463</ele>
        <time>2021-06-13T10:59:21Z</time>
      </trkpt>
      <trkpt lat="42.70355" lon="1.63202">
        <ele>1623.465</ele>
        <time>2021-06-13T10:59:23Z</time>
      </trkpt>
      <trkpt lat="42.70355" lon="1.63202">
        <ele>1623.465</ele>
        <time>2021-06-13T10:59:25Z</time>
      </trkpt>
      <trkpt lat="42.70355" lon="1.63202">
        <ele>1623.463</ele>
        <time>2021-06-13T10:59:27Z</time>
      </trkpt>
      <trkpt lat="42.70355" lon="1.63202">
        <ele>1623.465</ele>
        <time>2021-06-13T10:59:29Z</time>
      </trkpt>
      <trkpt lat="42.70355" lon="1.63202">
        <ele>1623.465</ele>
        <time>2021-06-13T10:59:31Z</time>
      </trkpt>
      <trkpt lat="42.70355" lon="1.63202">
        <ele>1623.461</ele>
        <time>2021-06-13T10:59:33Z</time>
      </trkpt>
      <trkpt lat="42.70355" lon="1.63202">
        <ele>1623.453</ele>
        <time>2021-06-13T10:59:35Z</time>
      </trkpt>
      <trkpt lat="42.70355" lon="1.63202">
        <ele>1623.451</ele>
        <time>2021-06-13T10:59:37Z</time>
      </trkpt>
      <trkpt lat="42.70355" lon="1.63202">
        <ele>1623.451</ele>
        <time>2021-06-13T10:59:39Z</time>
      </trkpt>
      <trkpt lat="42.70355" lon="1.63202">
        <ele>1623.451</ele>
        <time>2021-06-13T10:59:41Z</time>
      </trkpt>
      <trkpt lat="42.70355" lon="1.63202">
        <ele>1623.448</ele>
        <time>2021-06-13T10:59:43Z</time>
      </trkpt>
      <trkpt lat="42.70355" lon="1.63202">
        <ele>1623.446</ele>
        <time>2021-06-13T10:59:45Z</time>
      </trkpt>
      <trkpt lat="42.70355" lon="1.63202">
        <ele>1623.445</ele>
        <time>2021-06-13T10:59:47Z</time>
      </trkpt>
      <trkpt lat="42.70355" lon="1.63202">
        <ele>1623.446</ele>
        <time>2021-06-13T10:59:49Z</time>
      </trkpt>
      <trkpt lat="42.70355" lon="1.63202">
        <ele>1623.443</ele>
        <time>2021-06-13T10:59:51Z</time>
      </trkpt>
      <trkpt lat="42.70355" lon="1.63202">
        <ele>1623.433</ele>
        <time>2021-06-13T10:59:53Z</time>
      </trkpt>
      <trkpt lat="42.70355" lon="1.63202">
        <ele>1623.433</ele>
        <time>2021-06-13T10:59:55Z</time>
      </trkpt>
      <trkpt lat="42.70355" lon="1.63202">
        <ele>1623.438</ele>
        <time>2021-06-13T10:59:57Z</time>
      </trkpt>
      <trkpt lat="42.70355" lon="1.63202">
        <ele>1623.436</ele>
        <time>2021-06-13T10:59:59Z</time>
      </trkpt>
      <trkpt lat="42.70355" lon="1.63202">
        <ele>1623.439</ele>
        <time>2021-06-13T11:00:01Z</time>
      </trkpt>
      <trkpt lat="42.70355" lon="1.63202">
        <ele>1623.442</ele>
        <time>2021-06-13T11:00:03Z</time>
      </trkpt>
      <trkpt lat="42.70355" lon="1.63202">
        <ele>1623.448</ele>
        <time>2021-06-13T11:00:05Z</time>
      </trkpt>
      <trkpt lat="42.70355" lon="1.63202">
        <ele>1623.447</ele>
        <time>2021-06-13T11:00:07Z</time>
      </trkpt>
      <trkpt lat="42.70355" lon="1.63202">
        <ele>1623.451</ele>
        <time>2021-06-13T11:00:09Z</time>
      </trkpt>
      <trkpt lat="42.70355" lon="1.63202">
        <ele>1623.45</ele>
        <time>2021-06-13T11:00:11Z</time>
      </trkpt>
      <trkpt lat="42.70355" lon="1.63202">
        <ele>1623.453</ele>
        <time>2021-06-13T11:00:13Z</time>
      </trkpt>
      <trkpt lat="42.70355" lon="1.63202">
        <ele>1623.451</ele>
        <time>2021-06-13T11:00:15Z</time>
      </trkpt>
      <trkpt lat="42.70355" lon="1.63202">
        <ele>1623.448</ele>
        <time>2021-06-13T11:00:17Z</time>
      </trkpt>
      <trkpt lat="42.70355" lon="1.63202">
        <ele>1623.443</ele>
        <time>2021-06-13T11:00:19Z</time>
      </trkpt>
      <trkpt lat="42.70355" lon="1.63202">
        <ele>1623.439</ele>
        <time>2021-06-13T11:00:21Z</time>
      </trkpt>
      <trkpt lat="42.70355" lon="1.63202">
        <ele>1623.436</ele>
        <time>2021-06-13T11:00:23Z</time>
      </trkpt>
      <trkpt lat="42.70355" lon="1.63202">
        <ele>1623.433</ele>
        <time>2021-06-13T11:00:25Z</time>
      </trkpt>
      <trkpt lat="42.70355" lon="1.63202">
        <ele>1623.427</ele>
        <time>2021-06-13T11:00:27Z</time>
      </trkpt>
      <trkpt lat="42.70355" lon="1.63202">
        <ele>1623.425</ele>
        <time>2021-06-13T11:00:29Z</time>
      </trkpt>
      <trkpt lat="42.70355" lon="1.63202">
        <ele>1623.437</ele>
        <time>2021-06-13T11:00:31Z</time>
      </trkpt>
      <trkpt lat="42.70355" lon="1.63202">
        <ele>1623.443</ele>
        <time>2021-06-13T11:00:33Z</time>
      </trkpt>
      <trkpt lat="42.70355" lon="1.63202">
        <ele>1623.442</ele>
        <time>2021-06-13T11:00:35Z</time>
      </trkpt>
      <trkpt lat="42.70355" lon="1.63202">
        <ele>1623.432</ele>
        <time>2021-06-13T11:00:37Z</time>
      </trkpt>
      <trkpt lat="42.70355" lon="1.63202">
        <ele>1623.429</ele>
        <time>2021-06-13T11:00:39Z</time>
      </trkpt>
      <trkpt lat="42.70355" lon="1.63202">
        <ele>1623.43</ele>
        <time>2021-06-13T11:00:41Z</time>
      </trkpt>
      <trkpt lat="42.70355" lon="1.63202">
        <ele>1623.421</ele>
        <time>2021-06-13T11:00:43Z</time>
      </trkpt>
      <trkpt lat="42.70355" lon="1.63202">
        <ele>1623.421</ele>
        <time>2021-06-13T11:00:45Z</time>
      </trkpt>
      <trkpt lat="42.70355" lon="1.63202">
        <ele>1623.418</ele>
        <time>2021-06-13T11:00:47Z</time>
      </trkpt>
      <trkpt lat="42.70355" lon="1.63202">
        <ele>1623.413</ele>
        <time>2021-06-13T11:00:49Z</time>
      </trkpt>
      <trkpt lat="42.70355" lon="1.63202">
        <ele>1623.406</ele>
        <time>2021-06-13T11:00:51Z</time>
      </trkpt>
      <trkpt lat="42.70355" lon="1.63202">
        <ele>1623.401</ele>
        <time>2021-06-13T11:00:53Z</time>
      </trkpt>
      <trkpt lat="42.70355" lon="1.63202">
        <ele>1623.392</ele>
        <time>2021-06-13T11:00:55Z</time>
      </trkpt>
      <trkpt lat="42.70355" lon="1.63202">
        <ele>1623.393</ele>
        <time>2021-06-13T11:00:57Z</time>
      </trkpt>
      <trkpt lat="42.70355" lon="1.63202">
        <ele>1623.391</ele>
        <time>2021-06-13T11:00:59Z</time>
      </trkpt>
      <trkpt lat="42.70355" lon="1.63202">
        <ele>1623.393</ele>
        <time>2021-06-13T11:01:01Z</time>
      </trkpt>
      <trkpt lat="42.70355" lon="1.63202">
        <ele>1623.393</ele>
        <time>2021-06-13T11:01:03Z</time>
      </trkpt>
      <trkpt lat="42.70355" lon="1.63202">
        <ele>1623.391</ele>
        <time>2021-06-13T11:01:05Z</time>
      </trkpt>
      <trkpt lat="42.70355" lon="1.63202">
        <ele>1623.388</ele>
        <time>2021-06-13T11:01:07Z</time>
      </trkpt>
      <trkpt lat="42.70355" lon="1.63202">
        <ele>1623.381</ele>
        <time>2021-06-13T11:01:09Z</time>
      </trkpt>
      <trkpt lat="42.70355" lon="1.63202">
        <ele>1623.381</ele>
        <time>2021-06-13T11:01:11Z</time>
      </trkpt>
      <trkpt lat="42.70355" lon="1.63202">
        <ele>1623.39</ele>
        <time>2021-06-13T11:01:13Z</time>
      </trkpt>
      <trkpt lat="42.70355" lon="1.63202">
        <ele>1623.403</ele>
        <time>2021-06-13T11:01:15Z</time>
      </trkpt>
      <trkpt lat="42.70355" lon="1.63202">
        <ele>1623.415</ele>
        <time>2021-06-13T11:01:17Z</time>
      </trkpt>
      <trkpt lat="42.70355" lon="1.63202">
        <ele>1623.417</ele>
        <time>2021-06-13T11:01:19Z</time>
      </trkpt>
      <trkpt lat="42.70355" lon="1.63202">
        <ele>1623.416</ele>
        <time>2021-06-13T11:01:21Z</time>
      </trkpt>
      <trkpt lat="42.70355" lon="1.63202">
        <ele>1623.403</ele>
        <time>2021-06-13T11:01:24Z</time>
      </trkpt>
      <trkpt lat="42.70355" lon="1.63202">
        <ele>1623.393</ele>
        <time>2021-06-13T11:01:26Z</time>
      </trkpt>
      <trkpt lat="42.70355" lon="1.63202">
        <ele>1623.39</ele>
        <time>2021-06-13T11:01:28Z</time>
      </trkpt>
      <trkpt lat="42.70355" lon="1.63202">
        <ele>1623.387</ele>
        <time>2021-06-13T11:01:30Z</time>
      </trkpt>
      <trkpt lat="42.70355" lon="1.63202">
        <ele>1623.385</ele>
        <time>2021-06-13T11:01:32Z</time>
      </trkpt>
      <trkpt lat="42.70355" lon="1.63202">
        <ele>1623.39</ele>
        <time>2021-06-13T11:01:34Z</time>
      </trkpt>
      <trkpt lat="42.70355" lon="1.63202">
        <ele>1623.392</ele>
        <time>2021-06-13T11:01:36Z</time>
      </trkpt>
      <trkpt lat="42.70355" lon="1.63202">
        <ele>1623.675</ele>
        <time>2021-06-13T11:01:38Z</time>
      </trkpt>
      <trkpt lat="42.70355" lon="1.63202">
        <ele>1623.67</ele>
        <time>2021-06-13T11:01:40Z</time>
      </trkpt>
      <trkpt lat="42.70355" lon="1.63202">
        <ele>1623.683</ele>
        <time>2021-06-13T11:01:42Z</time>
      </trkpt>
      <trkpt lat="42.70355" lon="1.63202">
        <ele>1623.68</ele>
        <time>2021-06-13T11:01:44Z</time>
      </trkpt>
      <trkpt lat="42.70355" lon="1.63202">
        <ele>1623.68</ele>
        <time>2021-06-13T11:01:46Z</time>
      </trkpt>
      <trkpt lat="42.70355" lon="1.63202">
        <ele>1623.674</ele>
        <time>2021-06-13T11:01:48Z</time>
      </trkpt>
      <trkpt lat="42.70355" lon="1.63202">
        <ele>1623.675</ele>
        <time>2021-06-13T11:01:50Z</time>
      </trkpt>
      <trkpt lat="42.70355" lon="1.63202">
        <ele>1623.672</ele>
        <time>2021-06-13T11:01:52Z</time>
      </trkpt>
      <trkpt lat="42.70355" lon="1.63202">
        <ele>1623.681</ele>
        <time>2021-06-13T11:01:54Z</time>
      </trkpt>
      <trkpt lat="42.70355" lon="1.63202">
        <ele>1623.683</ele>
        <time>2021-06-13T11:01:56Z</time>
      </trkpt>
      <trkpt lat="42.70355" lon="1.63202">
        <ele>1623.68</ele>
        <time>2021-06-13T11:01:58Z</time>
      </trkpt>
      <trkpt lat="42.70355" lon="1.63202">
        <ele>1623.677</ele>
        <time>2021-06-13T11:02:00Z</time>
      </trkpt>
      <trkpt lat="42.70355" lon="1.63202">
        <ele>1623.67</ele>
        <time>2021-06-13T11:02:02Z</time>
      </trkpt>
      <trkpt lat="42.70355" lon="1.63202">
        <ele>1623.664</ele>
        <time>2021-06-13T11:02:04Z</time>
      </trkpt>
      <trkpt lat="42.70355" lon="1.63202">
        <ele>1623.665</ele>
        <time>2021-06-13T11:02:06Z</time>
      </trkpt>
      <trkpt lat="42.70355" lon="1.63202">
        <ele>1623.665</ele>
        <time>2021-06-13T11:02:08Z</time>
      </trkpt>
      <trkpt lat="42.70355" lon="1.63202">
        <ele>1623.667</ele>
        <time>2021-06-13T11:02:10Z</time>
      </trkpt>
      <trkpt lat="42.70355" lon="1.63202">
        <ele>1623.674</ele>
        <time>2021-06-13T11:02:12Z</time>
      </trkpt>
      <trkpt lat="42.70355" lon="1.63202">
        <ele>1623.674</ele>
        <time>2021-06-13T11:02:14Z</time>
      </trkpt>
      <trkpt lat="42.70355" lon="1.63202">
        <ele>1623.674</ele>
        <time>2021-06-13T11:02:16Z</time>
      </trkpt>
      <trkpt lat="42.70355" lon="1.63202">
        <ele>1623.672</ele>
        <time>2021-06-13T11:02:18Z</time>
      </trkpt>
      <trkpt lat="42.70355" lon="1.63202">
        <ele>1623.672</ele>
        <time>2021-06-13T11:02:20Z</time>
      </trkpt>
      <trkpt lat="42.70355" lon="1.63202">
        <ele>1623.672</ele>
        <time>2021-06-13T11:02:22Z</time>
      </trkpt>
      <trkpt lat="42.70355" lon="1.63202">
        <ele>1623.674</ele>
        <time>2021-06-13T11:02:24Z</time>
      </trkpt>
      <trkpt lat="42.70355" lon="1.63202">
        <ele>1623.671</ele>
        <time>2021-06-13T11:02:26Z</time>
      </trkpt>
      <trkpt lat="42.70355" lon="1.63202">
        <ele>1623.665</ele>
        <time>2021-06-13T11:02:28Z</time>
      </trkpt>
      <trkpt lat="42.70355" lon="1.63202">
        <ele>1623.652</ele>
        <time>2021-06-13T11:02:30Z</time>
      </trkpt>
      <trkpt lat="42.70355" lon="1.63202">
        <ele>1623.646</ele>
        <time>2021-06-13T11:02:32Z</time>
      </trkpt>
      <trkpt lat="42.70355" lon="1.63202">
        <ele>1623.635</ele>
        <time>2021-06-13T11:02:34Z</time>
      </trkpt>
      <trkpt lat="42.70355" lon="1.63202">
        <ele>1623.636</ele>
        <time>2021-06-13T11:02:36Z</time>
      </trkpt>
      <trkpt lat="42.70355" lon="1.63202">
        <ele>1623.633</ele>
        <time>2021-06-13T11:02:38Z</time>
      </trkpt>
      <trkpt lat="42.70355" lon="1.63202">
        <ele>1623.631</ele>
        <time>2021-06-13T11:02:40Z</time>
      </trkpt>
      <trkpt lat="42.70355" lon="1.63202">
        <ele>1623.629</ele>
        <time>2021-06-13T11:02:42Z</time>
      </trkpt>
      <trkpt lat="42.70355" lon="1.63202">
        <ele>1623.624</ele>
        <time>2021-06-13T11:02:44Z</time>
      </trkpt>
      <trkpt lat="42.70355" lon="1.63202">
        <ele>1623.623</ele>
        <time>2021-06-13T11:02:46Z</time>
      </trkpt>
      <trkpt lat="42.70355" lon="1.63202">
        <ele>1623.624</ele>
        <time>2021-06-13T11:02:48Z</time>
      </trkpt>
      <trkpt lat="42.70355" lon="1.63202">
        <ele>1623.624</ele>
        <time>2021-06-13T11:02:50Z</time>
      </trkpt>
      <trkpt lat="42.70355" lon="1.63202">
        <ele>1623.626</ele>
        <time>2021-06-13T11:02:52Z</time>
      </trkpt>
      <trkpt lat="42.70355" lon="1.63202">
        <ele>1623.622</ele>
        <time>2021-06-13T11:02:54Z</time>
      </trkpt>
      <trkpt lat="42.70355" lon="1.63202">
        <ele>1623.624</ele>
        <time>2021-06-13T11:02:56Z</time>
      </trkpt>
      <trkpt lat="42.70355" lon="1.63202">
        <ele>1623.625</ele>
        <time>2021-06-13T11:02:58Z</time>
      </trkpt>
      <trkpt lat="42.70355" lon="1.63202">
        <ele>1623.623</ele>
        <time>2021-06-13T11:03:00Z</time>
      </trkpt>
      <trkpt lat="42.70355" lon="1.63202">
        <ele>1623.623</ele>
        <time>2021-06-13T11:03:02Z</time>
      </trkpt>
      <trkpt lat="42.70355" lon="1.63202">
        <ele>1623.628</ele>
        <time>2021-06-13T11:03:04Z</time>
      </trkpt>
      <trkpt lat="42.70355" lon="1.63202">
        <ele>1623.631</ele>
        <time>2021-06-13T11:03:06Z</time>
      </trkpt>
      <trkpt lat="42.70355" lon="1.63202">
        <ele>1623.634</ele>
        <time>2021-06-13T11:03:08Z</time>
      </trkpt>
      <trkpt lat="42.70355" lon="1.63202">
        <ele>1623.641</ele>
        <time>2021-06-13T11:03:10Z</time>
      </trkpt>
      <trkpt lat="42.70355" lon="1.63202">
        <ele>1623.649</ele>
        <time>2021-06-13T11:03:12Z</time>
      </trkpt>
      <trkpt lat="42.70355" lon="1.63202">
        <ele>1623.653</ele>
        <time>2021-06-13T11:03:14Z</time>
      </trkpt>
      <trkpt lat="42.70355" lon="1.63202">
        <ele>1623.655</ele>
        <time>2021-06-13T11:03:16Z</time>
      </trkpt>
      <trkpt lat="42.70355" lon="1.63202">
        <ele>1623.661</ele>
        <time>2021-06-13T11:03:18Z</time>
      </trkpt>
      <trkpt lat="42.70355" lon="1.63202">
        <ele>1623.665</ele>
        <time>2021-06-13T11:03:20Z</time>
      </trkpt>
      <trkpt lat="42.70355" lon="1.63202">
        <ele>1623.658</ele>
        <time>2021-06-13T11:03:22Z</time>
      </trkpt>
      <trkpt lat="42.70355" lon="1.63202">
        <ele>1623.653</ele>
        <time>2021-06-13T11:03:24Z</time>
      </trkpt>
      <trkpt lat="42.70355" lon="1.63202">
        <ele>1623.656</ele>
        <time>2021-06-13T11:03:26Z</time>
      </trkpt>
      <trkpt lat="42.70355" lon="1.63202">
        <ele>1623.656</ele>
        <time>2021-06-13T11:03:28Z</time>
      </trkpt>
      <trkpt lat="42.70355" lon="1.63202">
        <ele>1623.655</ele>
        <time>2021-06-13T11:03:30Z</time>
      </trkpt>
      <trkpt lat="42.70355" lon="1.63202">
        <ele>1623.647</ele>
        <time>2021-06-13T11:03:32Z</time>
      </trkpt>
      <trkpt lat="42.70355" lon="1.63202">
        <ele>1623.642</ele>
        <time>2021-06-13T11:03:34Z</time>
      </trkpt>
      <trkpt lat="42.70355" lon="1.63202">
        <ele>1623.646</ele>
        <time>2021-06-13T11:03:36Z</time>
      </trkpt>
      <trkpt lat="42.70355" lon="1.63202">
        <ele>1623.65</ele>
        <time>2021-06-13T11:03:38Z</time>
      </trkpt>
      <trkpt lat="42.70355" lon="1.63202">
        <ele>1623.655</ele>
        <time>2021-06-13T11:03:40Z</time>
      </trkpt>
      <trkpt lat="42.70355" lon="1.63202">
        <ele>1623.653</ele>
        <time>2021-06-13T11:03:42Z</time>
      </trkpt>
      <trkpt lat="42.70355" lon="1.63202">
        <ele>1623.653</ele>
        <time>2021-06-13T11:03:44Z</time>
      </trkpt>
      <trkpt lat="42.70355" lon="1.63202">
        <ele>1623.644</ele>
        <time>2021-06-13T11:03:46Z</time>
      </trkpt>
      <trkpt lat="42.70355" lon="1.63202">
        <ele>1623.638</ele>
        <time>2021-06-13T11:03:48Z</time>
      </trkpt>
      <trkpt lat="42.70355" lon="1.63202">
        <ele>1623.635</ele>
        <time>2021-06-13T11:03:50Z</time>
      </trkpt>
      <trkpt lat="42.70355" lon="1.63202">
        <ele>1623.635</ele>
        <time>2021-06-13T11:03:52Z</time>
      </trkpt>
      <trkpt lat="42.70355" lon="1.63202">
        <ele>1623.63</ele>
        <time>2021-06-13T11:03:54Z</time>
      </trkpt>
      <trkpt lat="42.70355" lon="1.63202">
        <ele>1623.628</ele>
        <time>2021-06-13T11:03:56Z</time>
      </trkpt>
      <trkpt lat="42.70355" lon="1.63202">
        <ele>1623.624</ele>
        <time>2021-06-13T11:03:58Z</time>
      </trkpt>
      <trkpt lat="42.70355" lon="1.63202">
        <ele>1623.624</ele>
        <time>2021-06-13T11:04:00Z</time>
      </trkpt>
      <trkpt lat="42.70355" lon="1.63202">
        <ele>1623.62</ele>
        <time>2021-06-13T11:04:02Z</time>
      </trkpt>
      <trkpt lat="42.70355" lon="1.63202">
        <ele>1623.617</ele>
        <time>2021-06-13T11:04:04Z</time>
      </trkpt>
      <trkpt lat="42.70355" lon="1.63202">
        <ele>1623.61</ele>
        <time>2021-06-13T11:04:06Z</time>
      </trkpt>
      <trkpt lat="42.70355" lon="1.63202">
        <ele>1623.609</ele>
        <time>2021-06-13T11:04:08Z</time>
      </trkpt>
      <trkpt lat="42.70355" lon="1.63202">
        <ele>1623.605</ele>
        <time>2021-06-13T11:04:10Z</time>
      </trkpt>
      <trkpt lat="42.70355" lon="1.63202">
        <ele>1623.593</ele>
        <time>2021-06-13T11:04:12Z</time>
      </trkpt>
      <trkpt lat="42.70355" lon="1.63202">
        <ele>1623.586</ele>
        <time>2021-06-13T11:04:14Z</time>
      </trkpt>
      <trkpt lat="42.70355" lon="1.63202">
        <ele>1623.578</ele>
        <time>2021-06-13T11:04:16Z</time>
      </trkpt>
      <trkpt lat="42.70355" lon="1.63202">
        <ele>1623.568</ele>
        <time>2021-06-13T11:04:18Z</time>
      </trkpt>
      <trkpt lat="42.70355" lon="1.63202">
        <ele>1623.557</ele>
        <time>2021-06-13T11:04:20Z</time>
      </trkpt>
      <trkpt lat="42.70355" lon="1.63202">
        <ele>1623.549</ele>
        <time>2021-06-13T11:04:22Z</time>
      </trkpt>
      <trkpt lat="42.70355" lon="1.63202">
        <ele>1623.553</ele>
        <time>2021-06-13T11:04:24Z</time>
      </trkpt>
      <trkpt lat="42.70355" lon="1.63202">
        <ele>1623.555</ele>
        <time>2021-06-13T11:04:26Z</time>
      </trkpt>
      <trkpt lat="42.70355" lon="1.63202">
        <ele>1623.555</ele>
        <time>2021-06-13T11:04:28Z</time>
      </trkpt>
      <trkpt lat="42.70355" lon="1.63202">
        <ele>1623.555</ele>
        <time>2021-06-13T11:04:30Z</time>
      </trkpt>
      <trkpt lat="42.70355" lon="1.63202">
        <ele>1623.555</ele>
        <time>2021-06-13T11:04:32Z</time>
      </trkpt>
      <trkpt lat="42.70355" lon="1.63202">
        <ele>1623.56</ele>
        <time>2021-06-13T11:04:34Z</time>
      </trkpt>
      <trkpt lat="42.70355" lon="1.63202">
        <ele>1623.563</ele>
        <time>2021-06-13T11:04:36Z</time>
      </trkpt>
      <trkpt lat="42.70355" lon="1.63202">
        <ele>1623.567</ele>
        <time>2021-06-13T11:04:38Z</time>
      </trkpt>
      <trkpt lat="42.70355" lon="1.63202">
        <ele>1623.572</ele>
        <time>2021-06-13T11:04:40Z</time>
      </trkpt>
      <trkpt lat="42.70355" lon="1.63202">
        <ele>1623.574</ele>
        <time>2021-06-13T11:04:42Z</time>
      </trkpt>
      <trkpt lat="42.70355" lon="1.63202">
        <ele>1623.572</ele>
        <time>2021-06-13T11:04:44Z</time>
      </trkpt>
      <trkpt lat="42.70355" lon="1.63202">
        <ele>1623.57</ele>
        <time>2021-06-13T11:04:46Z</time>
      </trkpt>
      <trkpt lat="42.70355" lon="1.63202">
        <ele>1623.566</ele>
        <time>2021-06-13T11:04:48Z</time>
      </trkpt>
      <trkpt lat="42.70355" lon="1.63202">
        <ele>1623.567</ele>
        <time>2021-06-13T11:04:50Z</time>
      </trkpt>
      <trkpt lat="42.70355" lon="1.63202">
        <ele>1623.574</ele>
        <time>2021-06-13T11:04:52Z</time>
      </trkpt>
      <trkpt lat="42.70355" lon="1.63202">
        <ele>1623.578</ele>
        <time>2021-06-13T11:04:54Z</time>
      </trkpt>
      <trkpt lat="42.70355" lon="1.63202">
        <ele>1623.585</ele>
        <time>2021-06-13T11:04:56Z</time>
      </trkpt>
      <trkpt lat="42.70355" lon="1.63202">
        <ele>1623.592</ele>
        <time>2021-06-13T11:04:58Z</time>
      </trkpt>
      <trkpt lat="42.70355" lon="1.63202">
        <ele>1623.596</ele>
        <time>2021-06-13T11:05:00Z</time>
      </trkpt>
      <trkpt lat="42.70355" lon="1.63202">
        <ele>1623.599</ele>
        <time>2021-06-13T11:05:02Z</time>
      </trkpt>
      <trkpt lat="42.70355" lon="1.63202">
        <ele>1623.596</ele>
        <time>2021-06-13T11:05:04Z</time>
      </trkpt>
      <trkpt lat="42.70355" lon="1.63202">
        <ele>1623.605</ele>
        <time>2021-06-13T11:05:06Z</time>
      </trkpt>
      <trkpt lat="42.70355" lon="1.63202">
        <ele>1623.596</ele>
        <time>2021-06-13T11:05:08Z</time>
      </trkpt>
      <trkpt lat="42.70355" lon="1.63202">
        <ele>1623.596</ele>
        <time>2021-06-13T11:05:10Z</time>
      </trkpt>
      <trkpt lat="42.70355" lon="1.63202">
        <ele>1623.591</ele>
        <time>2021-06-13T11:05:12Z</time>
      </trkpt>
      <trkpt lat="42.70355" lon="1.63202">
        <ele>1623.583</ele>
        <time>2021-06-13T11:05:14Z</time>
      </trkpt>
      <trkpt lat="42.70355" lon="1.63202">
        <ele>1623.581</ele>
        <time>2021-06-13T11:05:16Z</time>
      </trkpt>
      <trkpt lat="42.70355" lon="1.63202">
        <ele>1623.578</ele>
        <time>2021-06-13T11:05:18Z</time>
      </trkpt>
      <trkpt lat="42.70355" lon="1.63202">
        <ele>1623.57</ele>
        <time>2021-06-13T11:05:20Z</time>
      </trkpt>
      <trkpt lat="42.70355" lon="1.63202">
        <ele>1623.565</ele>
        <time>2021-06-13T11:05:22Z</time>
      </trkpt>
      <trkpt lat="42.70355" lon="1.63202">
        <ele>1623.565</ele>
        <time>2021-06-13T11:05:24Z</time>
      </trkpt>
      <trkpt lat="42.70355" lon="1.63202">
        <ele>1623.558</ele>
        <time>2021-06-13T11:05:26Z</time>
      </trkpt>
      <trkpt lat="42.70355" lon="1.63202">
        <ele>1623.553</ele>
        <time>2021-06-13T11:05:28Z</time>
      </trkpt>
      <trkpt lat="42.70355" lon="1.63202">
        <ele>1623.547</ele>
        <time>2021-06-13T11:05:30Z</time>
      </trkpt>
      <trkpt lat="42.70355" lon="1.63202">
        <ele>1623.547</ele>
        <time>2021-06-13T11:05:32Z</time>
      </trkpt>
      <trkpt lat="42.70355" lon="1.63202">
        <ele>1623.557</ele>
        <time>2021-06-13T11:05:34Z</time>
      </trkpt>
      <trkpt lat="42.70355" lon="1.63202">
        <ele>1623.558</ele>
        <time>2021-06-13T11:05:36Z</time>
      </trkpt>
      <trkpt lat="42.70355" lon="1.63202">
        <ele>1623.563</ele>
        <time>2021-06-13T11:05:38Z</time>
      </trkpt>
      <trkpt lat="42.70355" lon="1.63202">
        <ele>1623.573</ele>
        <time>2021-06-13T11:05:40Z</time>
      </trkpt>
      <trkpt lat="42.70355" lon="1.63202">
        <ele>1623.58</ele>
        <time>2021-06-13T11:05:42Z</time>
      </trkpt>
      <trkpt lat="42.70355" lon="1.63202">
        <ele>1623.583</ele>
        <time>2021-06-13T11:05:44Z</time>
      </trkpt>
      <trkpt lat="42.70355" lon="1.63202">
        <ele>1623.589</ele>
        <time>2021-06-13T11:05:46Z</time>
      </trkpt>
      <trkpt lat="42.70355" lon="1.63202">
        <ele>1623.582</ele>
        <time>2021-06-13T11:05:48Z</time>
      </trkpt>
      <trkpt lat="42.70355" lon="1.63202">
        <ele>1623.58</ele>
        <time>2021-06-13T11:05:50Z</time>
      </trkpt>
      <trkpt lat="42.70355" lon="1.63202">
        <ele>1623.571</ele>
        <time>2021-06-13T11:05:52Z</time>
      </trkpt>
      <trkpt lat="42.70355" lon="1.63202">
        <ele>1623.563</ele>
        <time>2021-06-13T11:05:54Z</time>
      </trkpt>
      <trkpt lat="42.70355" lon="1.63202">
        <ele>1623.557</ele>
        <time>2021-06-13T11:05:56Z</time>
      </trkpt>
      <trkpt lat="42.70355" lon="1.63202">
        <ele>1623.555</ele>
        <time>2021-06-13T11:05:58Z</time>
      </trkpt>
      <trkpt lat="42.70355" lon="1.63202">
        <ele>1623.557</ele>
        <time>2021-06-13T11:06:00Z</time>
      </trkpt>
      <trkpt lat="42.70355" lon="1.63202">
        <ele>1623.549</ele>
        <time>2021-06-13T11:06:02Z</time>
      </trkpt>
      <trkpt lat="42.70355" lon="1.63202">
        <ele>1623.54</ele>
        <time>2021-06-13T11:06:04Z</time>
      </trkpt>
      <trkpt lat="42.70355" lon="1.63202">
        <ele>1623.544</ele>
        <time>2021-06-13T11:06:06Z</time>
      </trkpt>
      <trkpt lat="42.70355" lon="1.63202">
        <ele>1623.545</ele>
        <time>2021-06-13T11:06:08Z</time>
      </trkpt>
      <trkpt lat="42.70355" lon="1.63202">
        <ele>1623.548</ele>
        <time>2021-06-13T11:06:10Z</time>
      </trkpt>
      <trkpt lat="42.70355" lon="1.63202">
        <ele>1623.545</ele>
        <time>2021-06-13T11:06:12Z</time>
      </trkpt>
      <trkpt lat="42.70355" lon="1.63202">
        <ele>1623.54</ele>
        <time>2021-06-13T11:06:14Z</time>
      </trkpt>
      <trkpt lat="42.70355" lon="1.63202">
        <ele>1623.543</ele>
        <time>2021-06-13T11:06:16Z</time>
      </trkpt>
      <trkpt lat="42.70355" lon="1.63202">
        <ele>1623.543</ele>
        <time>2021-06-13T11:06:18Z</time>
      </trkpt>
      <trkpt lat="42.70355" lon="1.63202">
        <ele>1623.544</ele>
        <time>2021-06-13T11:06:20Z</time>
      </trkpt>
      <trkpt lat="42.70355" lon="1.63202">
        <ele>1623.546</ele>
        <time>2021-06-13T11:06:22Z</time>
      </trkpt>
      <trkpt lat="42.70355" lon="1.63202">
        <ele>1623.548</ele>
        <time>2021-06-13T11:06:24Z</time>
      </trkpt>
      <trkpt lat="42.70355" lon="1.63202">
        <ele>1623.548</ele>
        <time>2021-06-13T11:06:26Z</time>
      </trkpt>
      <trkpt lat="42.70355" lon="1.63202">
        <ele>1623.547</ele>
        <time>2021-06-13T11:06:28Z</time>
      </trkpt>
      <trkpt lat="42.70355" lon="1.63202">
        <ele>1623.541</ele>
        <time>2021-06-13T11:06:30Z</time>
      </trkpt>
      <trkpt lat="42.70355" lon="1.63202">
        <ele>1623.535</ele>
        <time>2021-06-13T11:06:32Z</time>
      </trkpt>
      <trkpt lat="42.70355" lon="1.63202">
        <ele>1623.536</ele>
        <time>2021-06-13T11:06:34Z</time>
      </trkpt>
      <trkpt lat="42.70355" lon="1.63202">
        <ele>1623.541</ele>
        <time>2021-06-13T11:06:36Z</time>
      </trkpt>
      <trkpt lat="42.70355" lon="1.63202">
        <ele>1623.543</ele>
        <time>2021-06-13T11:06:38Z</time>
      </trkpt>
      <trkpt lat="42.70355" lon="1.63202">
        <ele>1623.549</ele>
        <time>2021-06-13T11:06:40Z</time>
      </trkpt>
      <trkpt lat="42.70355" lon="1.63202">
        <ele>1623.55</ele>
        <time>2021-06-13T11:06:42Z</time>
      </trkpt>
      <trkpt lat="42.70355" lon="1.63202">
        <ele>1623.547</ele>
        <time>2021-06-13T11:06:44Z</time>
      </trkpt>
      <trkpt lat="42.70355" lon="1.63202">
        <ele>1623.544</ele>
        <time>2021-06-13T11:06:46Z</time>
      </trkpt>
      <trkpt lat="42.70355" lon="1.63202">
        <ele>1623.538</ele>
        <time>2021-06-13T11:06:48Z</time>
      </trkpt>
      <trkpt lat="42.70355" lon="1.63202">
        <ele>1623.53</ele>
        <time>2021-06-13T11:06:50Z</time>
      </trkpt>
      <trkpt lat="42.70355" lon="1.63202">
        <ele>1623.53</ele>
        <time>2021-06-13T11:06:52Z</time>
      </trkpt>
      <trkpt lat="42.70355" lon="1.63202">
        <ele>1623.523</ele>
        <time>2021-06-13T11:06:54Z</time>
      </trkpt>
      <trkpt lat="42.70355" lon="1.63202">
        <ele>1623.521</ele>
        <time>2021-06-13T11:06:56Z</time>
      </trkpt>
      <trkpt lat="42.70355" lon="1.63202">
        <ele>1623.513</ele>
        <time>2021-06-13T11:06:58Z</time>
      </trkpt>
      <trkpt lat="42.70355" lon="1.63202">
        <ele>1623.509</ele>
        <time>2021-06-13T11:07:00Z</time>
      </trkpt>
      <trkpt lat="42.70355" lon="1.63202">
        <ele>1623.505</ele>
        <time>2021-06-13T11:07:02Z</time>
      </trkpt>
      <trkpt lat="42.70355" lon="1.63202">
        <ele>1623.503</ele>
        <time>2021-06-13T11:07:04Z</time>
      </trkpt>
      <trkpt lat="42.70355" lon="1.63202">
        <ele>1623.501</ele>
        <time>2021-06-13T11:07:06Z</time>
      </trkpt>
      <trkpt lat="42.70355" lon="1.63202">
        <ele>1623.498</ele>
        <time>2021-06-13T11:07:08Z</time>
      </trkpt>
      <trkpt lat="42.70355" lon="1.63202">
        <ele>1623.506</ele>
        <time>2021-06-13T11:07:10Z</time>
      </trkpt>
      <trkpt lat="42.70355" lon="1.63202">
        <ele>1623.504</ele>
        <time>2021-06-13T11:07:12Z</time>
      </trkpt>
      <trkpt lat="42.70355" lon="1.63202">
        <ele>1623.497</ele>
        <time>2021-06-13T11:07:14Z</time>
      </trkpt>
      <trkpt lat="42.70355" lon="1.63202">
        <ele>1623.487</ele>
        <time>2021-06-13T11:07:16Z</time>
      </trkpt>
      <trkpt lat="42.70355" lon="1.63202">
        <ele>1623.483</ele>
        <time>2021-06-13T11:07:18Z</time>
      </trkpt>
      <trkpt lat="42.70355" lon="1.63202">
        <ele>1623.49</ele>
        <time>2021-06-13T11:07:20Z</time>
      </trkpt>
      <trkpt lat="42.70355" lon="1.63202">
        <ele>1623.484</ele>
        <time>2021-06-13T11:07:22Z</time>
      </trkpt>
      <trkpt lat="42.70355" lon="1.63202">
        <ele>1623.482</ele>
        <time>2021-06-13T11:07:24Z</time>
      </trkpt>
      <trkpt lat="42.70355" lon="1.63202">
        <ele>1623.476</ele>
        <time>2021-06-13T11:07:26Z</time>
      </trkpt>
      <trkpt lat="42.70355" lon="1.63202">
        <ele>1623.48</ele>
        <time>2021-06-13T11:07:28Z</time>
      </trkpt>
      <trkpt lat="42.70355" lon="1.63202">
        <ele>1623.496</ele>
        <time>2021-06-13T11:07:30Z</time>
      </trkpt>
      <trkpt lat="42.70355" lon="1.63202">
        <ele>1623.506</ele>
        <time>2021-06-13T11:07:32Z</time>
      </trkpt>
      <trkpt lat="42.70355" lon="1.63202">
        <ele>1623.509</ele>
        <time>2021-06-13T11:07:34Z</time>
      </trkpt>
      <trkpt lat="42.70355" lon="1.63202">
        <ele>1623.513</ele>
        <time>2021-06-13T11:07:36Z</time>
      </trkpt>
      <trkpt lat="42.70355" lon="1.63202">
        <ele>1623.517</ele>
        <time>2021-06-13T11:07:38Z</time>
      </trkpt>
      <trkpt lat="42.70355" lon="1.63202">
        <ele>1623.521</ele>
        <time>2021-06-13T11:07:40Z</time>
      </trkpt>
      <trkpt lat="42.70355" lon="1.63202">
        <ele>1623.527</ele>
        <time>2021-06-13T11:07:42Z</time>
      </trkpt>
      <trkpt lat="42.70355" lon="1.63202">
        <ele>1623.526</ele>
        <time>2021-06-13T11:07:44Z</time>
      </trkpt>
      <trkpt lat="42.70355" lon="1.63202">
        <ele>1623.523</ele>
        <time>2021-06-13T11:07:46Z</time>
      </trkpt>
      <trkpt lat="42.70355" lon="1.63202">
        <ele>1623.52</ele>
        <time>2021-06-13T11:07:48Z</time>
      </trkpt>
      <trkpt lat="42.70355" lon="1.63202">
        <ele>1623.514</ele>
        <time>2021-06-13T11:07:50Z</time>
      </trkpt>
      <trkpt lat="42.70355" lon="1.63202">
        <ele>1623.507</ele>
        <time>2021-06-13T11:07:52Z</time>
      </trkpt>
      <trkpt lat="42.70355" lon="1.63202">
        <ele>1623.51</ele>
        <time>2021-06-13T11:07:54Z</time>
      </trkpt>
      <trkpt lat="42.70355" lon="1.63202">
        <ele>1623.509</ele>
        <time>2021-06-13T11:07:56Z</time>
      </trkpt>
      <trkpt lat="42.70355" lon="1.63202">
        <ele>1623.504</ele>
        <time>2021-06-13T11:07:58Z</time>
      </trkpt>
      <trkpt lat="42.70355" lon="1.63202">
        <ele>1623.499</ele>
        <time>2021-06-13T11:08:00Z</time>
      </trkpt>
      <trkpt lat="42.70355" lon="1.63202">
        <ele>1623.498</ele>
        <time>2021-06-13T11:08:02Z</time>
      </trkpt>
      <trkpt lat="42.70355" lon="1.63202">
        <ele>1623.502</ele>
        <time>2021-06-13T11:08:04Z</time>
      </trkpt>
      <trkpt lat="42.70355" lon="1.63202">
        <ele>1623.503</ele>
        <time>2021-06-13T11:08:06Z</time>
      </trkpt>
      <trkpt lat="42.70355" lon="1.63202">
        <ele>1623.506</ele>
        <time>2021-06-13T11:08:08Z</time>
      </trkpt>
      <trkpt lat="42.70355" lon="1.63202">
        <ele>1623.509</ele>
        <time>2021-06-13T11:08:10Z</time>
      </trkpt>
      <trkpt lat="42.70355" lon="1.63202">
        <ele>1623.508</ele>
        <time>2021-06-13T11:08:12Z</time>
      </trkpt>
      <trkpt lat="42.70355" lon="1.63202">
        <ele>1623.508</ele>
        <time>2021-06-13T11:08:14Z</time>
      </trkpt>
      <trkpt lat="42.70355" lon="1.63202">
        <ele>1623.511</ele>
        <time>2021-06-13T11:08:16Z</time>
      </trkpt>
      <trkpt lat="42.70355" lon="1.63202">
        <ele>1623.506</ele>
        <time>2021-06-13T11:08:18Z</time>
      </trkpt>
      <trkpt lat="42.70355" lon="1.63202">
        <ele>1623.506</ele>
        <time>2021-06-13T11:08:20Z</time>
      </trkpt>
      <trkpt lat="42.70355" lon="1.63202">
        <ele>1623.501</ele>
        <time>2021-06-13T11:08:22Z</time>
      </trkpt>
      <trkpt lat="42.70355" lon="1.63202">
        <ele>1623.499</ele>
        <time>2021-06-13T11:08:24Z</time>
      </trkpt>
      <trkpt lat="42.70355" lon="1.63202">
        <ele>1623.499</ele>
        <time>2021-06-13T11:08:26Z</time>
      </trkpt>
      <trkpt lat="42.70355" lon="1.63202">
        <ele>1623.504</ele>
        <time>2021-06-13T11:08:28Z</time>
      </trkpt>
      <trkpt lat="42.70355" lon="1.63202">
        <ele>1623.507</ele>
        <time>2021-06-13T11:08:30Z</time>
      </trkpt>
      <trkpt lat="42.70355" lon="1.63202">
        <ele>1623.507</ele>
        <time>2021-06-13T11:08:32Z</time>
      </trkpt>
      <trkpt lat="42.70355" lon="1.63202">
        <ele>1623.501</ele>
        <time>2021-06-13T11:08:34Z</time>
      </trkpt>
      <trkpt lat="42.70355" lon="1.63202">
        <ele>1623.498</ele>
        <time>2021-06-13T11:08:36Z</time>
      </trkpt>
      <trkpt lat="42.70355" lon="1.63202">
        <ele>1623.497</ele>
        <time>2021-06-13T11:08:38Z</time>
      </trkpt>
      <trkpt lat="42.70355" lon="1.63202">
        <ele>1623.498</ele>
        <time>2021-06-13T11:08:40Z</time>
      </trkpt>
      <trkpt lat="42.70355" lon="1.63202">
        <ele>1623.5</ele>
        <time>2021-06-13T11:08:42Z</time>
      </trkpt>
      <trkpt lat="42.70355" lon="1.63202">
        <ele>1623.498</ele>
        <time>2021-06-13T11:08:44Z</time>
      </trkpt>
      <trkpt lat="42.70355" lon="1.63202">
        <ele>1623.498</ele>
        <time>2021-06-13T11:08:46Z</time>
      </trkpt>
      <trkpt lat="42.70355" lon="1.63202">
        <ele>1623.495</ele>
        <time>2021-06-13T11:08:48Z</time>
      </trkpt>
      <trkpt lat="42.70355" lon="1.63202">
        <ele>1623.488</ele>
        <time>2021-06-13T11:08:50Z</time>
      </trkpt>
      <trkpt lat="42.70355" lon="1.63202">
        <ele>1623.484</ele>
        <time>2021-06-13T11:08:52Z</time>
      </trkpt>
      <trkpt lat="42.70355" lon="1.63202">
        <ele>1623.48</ele>
        <time>2021-06-13T11:08:54Z</time>
      </trkpt>
      <trkpt lat="42.70355" lon="1.63202">
        <ele>1623.478</ele>
        <time>2021-06-13T11:08:56Z</time>
      </trkpt>
      <trkpt lat="42.70355" lon="1.63202">
        <ele>1623.481</ele>
        <time>2021-06-13T11:08:58Z</time>
      </trkpt>
      <trkpt lat="42.70355" lon="1.63202">
        <ele>1623.484</ele>
        <time>2021-06-13T11:09:00Z</time>
      </trkpt>
      <trkpt lat="42.70355" lon="1.63202">
        <ele>1623.483</ele>
        <time>2021-06-13T11:09:02Z</time>
      </trkpt>
      <trkpt lat="42.70355" lon="1.63202">
        <ele>1623.485</ele>
        <time>2021-06-13T11:09:04Z</time>
      </trkpt>
      <trkpt lat="42.70355" lon="1.63202">
        <ele>1623.482</ele>
        <time>2021-06-13T11:09:06Z</time>
      </trkpt>
      <trkpt lat="42.70355" lon="1.63202">
        <ele>1623.486</ele>
        <time>2021-06-13T11:09:08Z</time>
      </trkpt>
      <trkpt lat="42.70355" lon="1.63202">
        <ele>1623.499</ele>
        <time>2021-06-13T11:09:10Z</time>
      </trkpt>
      <trkpt lat="42.70355" lon="1.63202">
        <ele>1623.498</ele>
        <time>2021-06-13T11:09:12Z</time>
      </trkpt>
      <trkpt lat="42.70355" lon="1.63202">
        <ele>1623.495</ele>
        <time>2021-06-13T11:09:14Z</time>
      </trkpt>
      <trkpt lat="42.70355" lon="1.63202">
        <ele>1623.489</ele>
        <time>2021-06-13T11:09:16Z</time>
      </trkpt>
      <trkpt lat="42.70355" lon="1.63202">
        <ele>1623.48</ele>
        <time>2021-06-13T11:09:18Z</time>
      </trkpt>
      <trkpt lat="42.70355" lon="1.63202">
        <ele>1623.479</ele>
        <time>2021-06-13T11:09:20Z</time>
      </trkpt>
      <trkpt lat="42.70355" lon="1.63202">
        <ele>1623.484</ele>
        <time>2021-06-13T11:09:22Z</time>
      </trkpt>
      <trkpt lat="42.70355" lon="1.63202">
        <ele>1623.488</ele>
        <time>2021-06-13T11:09:24Z</time>
      </trkpt>
      <trkpt lat="42.70355" lon="1.63202">
        <ele>1623.483</ele>
        <time>2021-06-13T11:09:26Z</time>
      </trkpt>
      <trkpt lat="42.70355" lon="1.63202">
        <ele>1623.469</ele>
        <time>2021-06-13T11:09:28Z</time>
      </trkpt>
      <trkpt lat="42.70355" lon="1.63202">
        <ele>1623.461</ele>
        <time>2021-06-13T11:09:30Z</time>
      </trkpt>
      <trkpt lat="42.70355" lon="1.63202">
        <ele>1623.448</ele>
        <time>2021-06-13T11:09:32Z</time>
      </trkpt>
      <trkpt lat="42.70355" lon="1.63202">
        <ele>1623.444</ele>
        <time>2021-06-13T11:09:34Z</time>
      </trkpt>
      <trkpt lat="42.70355" lon="1.63202">
        <ele>1623.441</ele>
        <time>2021-06-13T11:09:36Z</time>
      </trkpt>
      <trkpt lat="42.70355" lon="1.63202">
        <ele>1623.437</ele>
        <time>2021-06-13T11:09:38Z</time>
      </trkpt>
      <trkpt lat="42.70355" lon="1.63202">
        <ele>1623.434</ele>
        <time>2021-06-13T11:09:40Z</time>
      </trkpt>
      <trkpt lat="42.70355" lon="1.63202">
        <ele>1623.439</ele>
        <time>2021-06-13T11:09:42Z</time>
      </trkpt>
      <trkpt lat="42.70355" lon="1.63202">
        <ele>1623.45</ele>
        <time>2021-06-13T11:09:44Z</time>
      </trkpt>
      <trkpt lat="42.70355" lon="1.63202">
        <ele>1623.45</ele>
        <time>2021-06-13T11:09:46Z</time>
      </trkpt>
      <trkpt lat="42.70355" lon="1.63202">
        <ele>1623.451</ele>
        <time>2021-06-13T11:09:48Z</time>
      </trkpt>
      <trkpt lat="42.70355" lon="1.63202">
        <ele>1623.46</ele>
        <time>2021-06-13T11:09:50Z</time>
      </trkpt>
      <trkpt lat="42.70355" lon="1.63202">
        <ele>1623.459</ele>
        <time>2021-06-13T11:09:52Z</time>
      </trkpt>
      <trkpt lat="42.70355" lon="1.63202">
        <ele>1623.45</ele>
        <time>2021-06-13T11:09:54Z</time>
      </trkpt>
      <trkpt lat="42.70355" lon="1.63202">
        <ele>1623.448</ele>
        <time>2021-06-13T11:09:56Z</time>
      </trkpt>
      <trkpt lat="42.70355" lon="1.63202">
        <ele>1623.443</ele>
        <time>2021-06-13T11:09:58Z</time>
      </trkpt>
      <trkpt lat="42.70355" lon="1.63202">
        <ele>1623.438</ele>
        <time>2021-06-13T11:10:00Z</time>
      </trkpt>
      <trkpt lat="42.70355" lon="1.63202">
        <ele>1623.435</ele>
        <time>2021-06-13T11:10:02Z</time>
      </trkpt>
      <trkpt lat="42.70355" lon="1.63202">
        <ele>1623.435</ele>
        <time>2021-06-13T11:10:04Z</time>
      </trkpt>
      <trkpt lat="42.70355" lon="1.63202">
        <ele>1623.437</ele>
        <time>2021-06-13T11:10:06Z</time>
      </trkpt>
      <trkpt lat="42.70355" lon="1.63202">
        <ele>1623.433</ele>
        <time>2021-06-13T11:10:08Z</time>
      </trkpt>
      <trkpt lat="42.70355" lon="1.63202">
        <ele>1623.425</ele>
        <time>2021-06-13T11:10:10Z</time>
      </trkpt>
      <trkpt lat="42.70355" lon="1.63202">
        <ele>1623.417</ele>
        <time>2021-06-13T11:10:12Z</time>
      </trkpt>
      <trkpt lat="42.70355" lon="1.63202">
        <ele>1623.415</ele>
        <time>2021-06-13T11:10:14Z</time>
      </trkpt>
      <trkpt lat="42.70355" lon="1.63202">
        <ele>1623.403</ele>
        <time>2021-06-13T11:10:16Z</time>
      </trkpt>
      <trkpt lat="42.70355" lon="1.63202">
        <ele>1623.4</ele>
        <time>2021-06-13T11:10:18Z</time>
      </trkpt>
      <trkpt lat="42.70355" lon="1.63202">
        <ele>1623.397</ele>
        <time>2021-06-13T11:10:20Z</time>
      </trkpt>
      <trkpt lat="42.70355" lon="1.63202">
        <ele>1623.39</ele>
        <time>2021-06-13T11:10:22Z</time>
      </trkpt>
      <trkpt lat="42.70355" lon="1.63202">
        <ele>1623.388</ele>
        <time>2021-06-13T11:10:24Z</time>
      </trkpt>
      <trkpt lat="42.70355" lon="1.63202">
        <ele>1623.387</ele>
        <time>2021-06-13T11:10:26Z</time>
      </trkpt>
      <trkpt lat="42.70355" lon="1.63202">
        <ele>1623.383</ele>
        <time>2021-06-13T11:10:28Z</time>
      </trkpt>
      <trkpt lat="42.70355" lon="1.63202">
        <ele>1623.389</ele>
        <time>2021-06-13T11:10:30Z</time>
      </trkpt>
      <trkpt lat="42.70355" lon="1.63202">
        <ele>1623.368</ele>
        <time>2021-06-13T11:10:32Z</time>
      </trkpt>
      <trkpt lat="42.70355" lon="1.63202">
        <ele>1623.366</ele>
        <time>2021-06-13T11:10:34Z</time>
      </trkpt>
      <trkpt lat="42.70355" lon="1.63202">
        <ele>1623.365</ele>
        <time>2021-06-13T11:10:36Z</time>
      </trkpt>
      <trkpt lat="42.70355" lon="1.63202">
        <ele>1623.368</ele>
        <time>2021-06-13T11:10:38Z</time>
      </trkpt>
      <trkpt lat="42.70355" lon="1.63202">
        <ele>1623.371</ele>
        <time>2021-06-13T11:10:40Z</time>
      </trkpt>
      <trkpt lat="42.70355" lon="1.63202">
        <ele>1623.384</ele>
        <time>2021-06-13T11:10:42Z</time>
      </trkpt>
      <trkpt lat="42.70355" lon="1.63202">
        <ele>1623.397</ele>
        <time>2021-06-13T11:10:44Z</time>
      </trkpt>
      <trkpt lat="42.70355" lon="1.63202">
        <ele>1623.397</ele>
        <time>2021-06-13T11:10:46Z</time>
      </trkpt>
      <trkpt lat="42.70355" lon="1.63202">
        <ele>1623.398</ele>
        <time>2021-06-13T11:10:48Z</time>
      </trkpt>
      <trkpt lat="42.70355" lon="1.63202">
        <ele>1623.389</ele>
        <time>2021-06-13T11:10:50Z</time>
      </trkpt>
      <trkpt lat="42.70355" lon="1.63202">
        <ele>1623.375</ele>
        <time>2021-06-13T11:10:52Z</time>
      </trkpt>
      <trkpt lat="42.70355" lon="1.63202">
        <ele>1623.36</ele>
        <time>2021-06-13T11:10:54Z</time>
      </trkpt>
      <trkpt lat="42.70355" lon="1.63202">
        <ele>1623.361</ele>
        <time>2021-06-13T11:10:56Z</time>
      </trkpt>
      <trkpt lat="42.70355" lon="1.63202">
        <ele>1623.37</ele>
        <time>2021-06-13T11:10:58Z</time>
      </trkpt>
      <trkpt lat="42.70355" lon="1.63202">
        <ele>1623.387</ele>
        <time>2021-06-13T11:11:00Z</time>
      </trkpt>
      <trkpt lat="42.70355" lon="1.63202">
        <ele>1623.392</ele>
        <time>2021-06-13T11:11:02Z</time>
      </trkpt>
      <trkpt lat="42.70355" lon="1.63202">
        <ele>1623.391</ele>
        <time>2021-06-13T11:11:04Z</time>
      </trkpt>
      <trkpt lat="42.70355" lon="1.63202">
        <ele>1623.39</ele>
        <time>2021-06-13T11:11:06Z</time>
      </trkpt>
      <trkpt lat="42.70355" lon="1.63202">
        <ele>1623.391</ele>
        <time>2021-06-13T11:11:08Z</time>
      </trkpt>
      <trkpt lat="42.70355" lon="1.63202">
        <ele>1623.384</ele>
        <time>2021-06-13T11:11:10Z</time>
      </trkpt>
      <trkpt lat="42.70355" lon="1.63202">
        <ele>1623.382</ele>
        <time>2021-06-13T11:11:12Z</time>
      </trkpt>
      <trkpt lat="42.70355" lon="1.63202">
        <ele>1623.377</ele>
        <time>2021-06-13T11:11:14Z</time>
      </trkpt>
      <trkpt lat="42.70355" lon="1.63202">
        <ele>1623.376</ele>
        <time>2021-06-13T11:11:16Z</time>
      </trkpt>
      <trkpt lat="42.70355" lon="1.63202">
        <ele>1623.378</ele>
        <time>2021-06-13T11:11:18Z</time>
      </trkpt>
      <trkpt lat="42.70355" lon="1.63202">
        <ele>1623.372</ele>
        <time>2021-06-13T11:11:20Z</time>
      </trkpt>
      <trkpt lat="42.70355" lon="1.63202">
        <ele>1623.373</ele>
        <time>2021-06-13T11:11:22Z</time>
      </trkpt>
      <trkpt lat="42.70355" lon="1.63202">
        <ele>1623.374</ele>
        <time>2021-06-13T11:11:24Z</time>
      </trkpt>
      <trkpt lat="42.70355" lon="1.63202">
        <ele>1623.374</ele>
        <time>2021-06-13T11:11:26Z</time>
      </trkpt>
      <trkpt lat="42.70355" lon="1.63202">
        <ele>1623.371</ele>
        <time>2021-06-13T11:11:28Z</time>
      </trkpt>
      <trkpt lat="42.70355" lon="1.63202">
        <ele>1623.373</ele>
        <time>2021-06-13T11:11:30Z</time>
      </trkpt>
      <trkpt lat="42.70355" lon="1.63202">
        <ele>1623.38</ele>
        <time>2021-06-13T11:11:32Z</time>
      </trkpt>
      <trkpt lat="42.70355" lon="1.63202">
        <ele>1623.38</ele>
        <time>2021-06-13T11:11:34Z</time>
      </trkpt>
      <trkpt lat="42.70355" lon="1.63202">
        <ele>1623.378</ele>
        <time>2021-06-13T11:11:36Z</time>
      </trkpt>
      <trkpt lat="42.70355" lon="1.63202">
        <ele>1623.378</ele>
        <time>2021-06-13T11:11:38Z</time>
      </trkpt>
      <trkpt lat="42.70355" lon="1.63202">
        <ele>1623.378</ele>
        <time>2021-06-13T11:11:40Z</time>
      </trkpt>
      <trkpt lat="42.70355" lon="1.63202">
        <ele>1623.38</ele>
        <time>2021-06-13T11:11:42Z</time>
      </trkpt>
      <trkpt lat="42.70355" lon="1.63202">
        <ele>1623.383</ele>
        <time>2021-06-13T11:11:44Z</time>
      </trkpt>
      <trkpt lat="42.70355" lon="1.63202">
        <ele>1623.384</ele>
        <time>2021-06-13T11:11:46Z</time>
      </trkpt>
      <trkpt lat="42.70355" lon="1.63202">
        <ele>1623.386</ele>
        <time>2021-06-13T11:11:48Z</time>
      </trkpt>
      <trkpt lat="42.70355" lon="1.63202">
        <ele>1623.391</ele>
        <time>2021-06-13T11:11:50Z</time>
      </trkpt>
      <trkpt lat="42.70355" lon="1.63202">
        <ele>1623.393</ele>
        <time>2021-06-13T11:11:52Z</time>
      </trkpt>
      <trkpt lat="42.70355" lon="1.63202">
        <ele>1623.402</ele>
        <time>2021-06-13T11:11:54Z</time>
      </trkpt>
      <trkpt lat="42.70355" lon="1.63202">
        <ele>1623.401</ele>
        <time>2021-06-13T11:11:56Z</time>
      </trkpt>
      <trkpt lat="42.70355" lon="1.63202">
        <ele>1623.411</ele>
        <time>2021-06-13T11:11:58Z</time>
      </trkpt>
      <trkpt lat="42.70355" lon="1.63202">
        <ele>1623.417</ele>
        <time>2021-06-13T11:12:00Z</time>
      </trkpt>
      <trkpt lat="42.70355" lon="1.63202">
        <ele>1623.429</ele>
        <time>2021-06-13T11:12:02Z</time>
      </trkpt>
      <trkpt lat="42.70355" lon="1.63202">
        <ele>1623.431</ele>
        <time>2021-06-13T11:12:04Z</time>
      </trkpt>
      <trkpt lat="42.70355" lon="1.63202">
        <ele>1623.436</ele>
        <time>2021-06-13T11:12:06Z</time>
      </trkpt>
      <trkpt lat="42.70355" lon="1.63202">
        <ele>1623.447</ele>
        <time>2021-06-13T11:12:08Z</time>
      </trkpt>
      <trkpt lat="42.70355" lon="1.63202">
        <ele>1623.455</ele>
        <time>2021-06-13T11:12:10Z</time>
      </trkpt>
      <trkpt lat="42.70355" lon="1.63202">
        <ele>1623.45</ele>
        <time>2021-06-13T11:12:12Z</time>
      </trkpt>
      <trkpt lat="42.70355" lon="1.63202">
        <ele>1623.455</ele>
        <time>2021-06-13T11:12:14Z</time>
      </trkpt>
      <trkpt lat="42.70355" lon="1.63202">
        <ele>1623.454</ele>
        <time>2021-06-13T11:12:16Z</time>
      </trkpt>
      <trkpt lat="42.70355" lon="1.63202">
        <ele>1623.452</ele>
        <time>2021-06-13T11:12:18Z</time>
      </trkpt>
      <trkpt lat="42.70355" lon="1.63202">
        <ele>1623.453</ele>
        <time>2021-06-13T11:12:20Z</time>
      </trkpt>
      <trkpt lat="42.70355" lon="1.63202">
        <ele>1623.453</ele>
        <time>2021-06-13T11:12:22Z</time>
      </trkpt>
      <trkpt lat="42.70355" lon="1.63202">
        <ele>1623.447</ele>
        <time>2021-06-13T11:12:24Z</time>
      </trkpt>
      <trkpt lat="42.70355" lon="1.63202">
        <ele>1623.44</ele>
        <time>2021-06-13T11:12:26Z</time>
      </trkpt>
      <trkpt lat="42.70355" lon="1.63202">
        <ele>1623.441</ele>
        <time>2021-06-13T11:12:28Z</time>
      </trkpt>
      <trkpt lat="42.70355" lon="1.63202">
        <ele>1623.444</ele>
        <time>2021-06-13T11:12:30Z</time>
      </trkpt>
      <trkpt lat="42.70355" lon="1.63202">
        <ele>1623.443</ele>
        <time>2021-06-13T11:12:32Z</time>
      </trkpt>
      <trkpt lat="42.70355" lon="1.63202">
        <ele>1623.192</ele>
        <time>2021-06-13T11:12:34Z</time>
      </trkpt>
      <trkpt lat="42.70356" lon="1.63202">
        <ele>1623.475</ele>
        <time>2021-06-13T11:12:36Z</time>
      </trkpt>
      <trkpt lat="42.70356" lon="1.63202">
        <ele>1623.473</ele>
        <time>2021-06-13T11:12:38Z</time>
      </trkpt>
      <trkpt lat="42.70356" lon="1.63202">
        <ele>1623.418</ele>
        <time>2021-06-13T11:12:40Z</time>
      </trkpt>
      <trkpt lat="42.70357" lon="1.63202">
        <ele>1622.964</ele>
        <time>2021-06-13T11:12:42Z</time>
      </trkpt>
      <trkpt lat="42.70357" lon="1.63202">
        <ele>1623.023</ele>
        <time>2021-06-13T11:12:44Z</time>
      </trkpt>
      <trkpt lat="42.70357" lon="1.63201">
        <ele>1622.476</ele>
        <time>2021-06-13T11:12:46Z</time>
      </trkpt>
      <trkpt lat="42.70357" lon="1.63201">
        <ele>1622.124</ele>
        <time>2021-06-13T11:12:48Z</time>
      </trkpt>
      <trkpt lat="42.70357" lon="1.63201">
        <ele>1622.389</ele>
        <time>2021-06-13T11:12:50Z</time>
      </trkpt>
      <trkpt lat="42.70357" lon="1.63201">
        <ele>1622.414</ele>
        <time>2021-06-13T11:12:52Z</time>
      </trkpt>
      <trkpt lat="42.70357" lon="1.63201">
        <ele>1622.411</ele>
        <time>2021-06-13T11:12:54Z</time>
      </trkpt>
      <trkpt lat="42.70357" lon="1.63201">
        <ele>1622.398</ele>
        <time>2021-06-13T11:12:56Z</time>
      </trkpt>
      <trkpt lat="42.70357" lon="1.63201">
        <ele>1622.385</ele>
        <time>2021-06-13T11:12:58Z</time>
      </trkpt>
      <trkpt lat="42.70357" lon="1.63201">
        <ele>1622.379</ele>
        <time>2021-06-13T11:13:00Z</time>
      </trkpt>
      <trkpt lat="42.70357" lon="1.63201">
        <ele>1622.375</ele>
        <time>2021-06-13T11:13:02Z</time>
      </trkpt>
      <trkpt lat="42.70357" lon="1.63201">
        <ele>1622.356</ele>
        <time>2021-06-13T11:13:04Z</time>
      </trkpt>
      <trkpt lat="42.70357" lon="1.63201">
        <ele>1622.339</ele>
        <time>2021-06-13T11:13:06Z</time>
      </trkpt>
      <trkpt lat="42.70357" lon="1.63201">
        <ele>1622.328</ele>
        <time>2021-06-13T11:13:08Z</time>
      </trkpt>
      <trkpt lat="42.70357" lon="1.63201">
        <ele>1622.329</ele>
        <time>2021-06-13T11:13:10Z</time>
      </trkpt>
      <trkpt lat="42.70357" lon="1.63201">
        <ele>1622.332</ele>
        <time>2021-06-13T11:13:12Z</time>
      </trkpt>
      <trkpt lat="42.70357" lon="1.63201">
        <ele>1622.336</ele>
        <time>2021-06-13T11:13:14Z</time>
      </trkpt>
      <trkpt lat="42.70357" lon="1.63201">
        <ele>1622.34</ele>
        <time>2021-06-13T11:13:16Z</time>
      </trkpt>
      <trkpt lat="42.70357" lon="1.63201">
        <ele>1622.345</ele>
        <time>2021-06-13T11:13:18Z</time>
      </trkpt>
      <trkpt lat="42.70357" lon="1.63201">
        <ele>1622.333</ele>
        <time>2021-06-13T11:13:20Z</time>
      </trkpt>
      <trkpt lat="42.70357" lon="1.63201">
        <ele>1622.333</ele>
        <time>2021-06-13T11:13:22Z</time>
      </trkpt>
      <trkpt lat="42.70357" lon="1.63201">
        <ele>1622.326</ele>
        <time>2021-06-13T11:13:24Z</time>
      </trkpt>
      <trkpt lat="42.70357" lon="1.63201">
        <ele>1622.33</ele>
        <time>2021-06-13T11:13:26Z</time>
      </trkpt>
      <trkpt lat="42.70357" lon="1.63201">
        <ele>1622.329</ele>
        <time>2021-06-13T11:13:28Z</time>
      </trkpt>
      <trkpt lat="42.70357" lon="1.63201">
        <ele>1622.335</ele>
        <time>2021-06-13T11:13:30Z</time>
      </trkpt>
      <trkpt lat="42.70357" lon="1.63201">
        <ele>1622.332</ele>
        <time>2021-06-13T11:13:32Z</time>
      </trkpt>
      <trkpt lat="42.70357" lon="1.63201">
        <ele>1622.333</ele>
        <time>2021-06-13T11:13:34Z</time>
      </trkpt>
      <trkpt lat="42.70357" lon="1.63201">
        <ele>1622.343</ele>
        <time>2021-06-13T11:13:36Z</time>
      </trkpt>
      <trkpt lat="42.70357" lon="1.63201">
        <ele>1622.339</ele>
        <time>2021-06-13T11:13:38Z</time>
      </trkpt>
      <trkpt lat="42.70357" lon="1.63201">
        <ele>1622.345</ele>
        <time>2021-06-13T11:13:40Z</time>
      </trkpt>
      <trkpt lat="42.70357" lon="1.63201">
        <ele>1622.354</ele>
        <time>2021-06-13T11:13:42Z</time>
      </trkpt>
      <trkpt lat="42.70357" lon="1.63201">
        <ele>1622.367</ele>
        <time>2021-06-13T11:13:44Z</time>
      </trkpt>
      <trkpt lat="42.70357" lon="1.63201">
        <ele>1622.367</ele>
        <time>2021-06-13T11:13:46Z</time>
      </trkpt>
      <trkpt lat="42.70357" lon="1.63201">
        <ele>1622.36</ele>
        <time>2021-06-13T11:13:48Z</time>
      </trkpt>
      <trkpt lat="42.70357" lon="1.63201">
        <ele>1622.356</ele>
        <time>2021-06-13T11:13:50Z</time>
      </trkpt>
      <trkpt lat="42.70357" lon="1.63201">
        <ele>1622.354</ele>
        <time>2021-06-13T11:13:52Z</time>
      </trkpt>
      <trkpt lat="42.70357" lon="1.63201">
        <ele>1622.363</ele>
        <time>2021-06-13T11:13:54Z</time>
      </trkpt>
      <trkpt lat="42.70357" lon="1.63201">
        <ele>1622.365</ele>
        <time>2021-06-13T11:13:56Z</time>
      </trkpt>
      <trkpt lat="42.70357" lon="1.63201">
        <ele>1622.367</ele>
        <time>2021-06-13T11:13:58Z</time>
      </trkpt>
      <trkpt lat="42.70357" lon="1.63201">
        <ele>1622.367</ele>
        <time>2021-06-13T11:14:00Z</time>
      </trkpt>
      <trkpt lat="42.70357" lon="1.63201">
        <ele>1622.368</ele>
        <time>2021-06-13T11:14:02Z</time>
      </trkpt>
      <trkpt lat="42.70357" lon="1.63201">
        <ele>1622.359</ele>
        <time>2021-06-13T11:14:04Z</time>
      </trkpt>
      <trkpt lat="42.70357" lon="1.63201">
        <ele>1622.351</ele>
        <time>2021-06-13T11:14:06Z</time>
      </trkpt>
      <trkpt lat="42.70357" lon="1.63201">
        <ele>1622.336</ele>
        <time>2021-06-13T11:14:08Z</time>
      </trkpt>
      <trkpt lat="42.70357" lon="1.63201">
        <ele>1622.329</ele>
        <time>2021-06-13T11:14:10Z</time>
      </trkpt>
      <trkpt lat="42.70357" lon="1.63201">
        <ele>1622.328</ele>
        <time>2021-06-13T11:14:12Z</time>
      </trkpt>
      <trkpt lat="42.70357" lon="1.63201">
        <ele>1622.342</ele>
        <time>2021-06-13T11:14:14Z</time>
      </trkpt>
      <trkpt lat="42.70357" lon="1.63201">
        <ele>1622.367</ele>
        <time>2021-06-13T11:14:16Z</time>
      </trkpt>
      <trkpt lat="42.70357" lon="1.63201">
        <ele>1622.366</ele>
        <time>2021-06-13T11:14:18Z</time>
      </trkpt>
      <trkpt lat="42.70357" lon="1.63201">
        <ele>1622.366</ele>
        <time>2021-06-13T11:14:20Z</time>
      </trkpt>
      <trkpt lat="42.70357" lon="1.63201">
        <ele>1622.37</ele>
        <time>2021-06-13T11:14:22Z</time>
      </trkpt>
      <trkpt lat="42.70357" lon="1.63201">
        <ele>1622.375</ele>
        <time>2021-06-13T11:14:24Z</time>
      </trkpt>
      <trkpt lat="42.70357" lon="1.63201">
        <ele>1622.372</ele>
        <time>2021-06-13T11:14:26Z</time>
      </trkpt>
      <trkpt lat="42.70357" lon="1.63201">
        <ele>1622.218</ele>
        <time>2021-06-13T11:14:28Z</time>
      </trkpt>
      <trkpt lat="42.70357" lon="1.63202">
        <ele>1621.545</ele>
        <time>2021-06-13T11:14:30Z</time>
      </trkpt>
      <trkpt lat="42.70357" lon="1.63202">
        <ele>1621.922</ele>
        <time>2021-06-13T11:14:32Z</time>
      </trkpt>
      <trkpt lat="42.70357" lon="1.63201">
        <ele>1621.942</ele>
        <time>2021-06-13T11:14:34Z</time>
      </trkpt>
      <trkpt lat="42.70357" lon="1.63201">
        <ele>1621.943</ele>
        <time>2021-06-13T11:14:36Z</time>
      </trkpt>
      <trkpt lat="42.70357" lon="1.63201">
        <ele>1621.939</ele>
        <time>2021-06-13T11:14:38Z</time>
      </trkpt>
      <trkpt lat="42.70357" lon="1.63201">
        <ele>1621.918</ele>
        <time>2021-06-13T11:14:40Z</time>
      </trkpt>
      <trkpt lat="42.70357" lon="1.63201">
        <ele>1621.917</ele>
        <time>2021-06-13T11:14:42Z</time>
      </trkpt>
      <trkpt lat="42.70358" lon="1.63201">
        <ele>1621.914</ele>
        <time>2021-06-13T11:14:44Z</time>
      </trkpt>
      <trkpt lat="42.70357" lon="1.63201">
        <ele>1621.919</ele>
        <time>2021-06-13T11:14:46Z</time>
      </trkpt>
      <trkpt lat="42.70357" lon="1.63201">
        <ele>1621.563</ele>
        <time>2021-06-13T11:14:48Z</time>
      </trkpt>
      <trkpt lat="42.70357" lon="1.63201">
        <ele>1622.038</ele>
        <time>2021-06-13T11:14:50Z</time>
      </trkpt>
      <trkpt lat="42.70357" lon="1.63201">
        <ele>1622.047</ele>
        <time>2021-06-13T11:14:52Z</time>
      </trkpt>
      <trkpt lat="42.70357" lon="1.63201">
        <ele>1622.05</ele>
        <time>2021-06-13T11:14:54Z</time>
      </trkpt>
      <trkpt lat="42.70357" lon="1.63202">
        <ele>1622.049</ele>
        <time>2021-06-13T11:14:56Z</time>
      </trkpt>
      <trkpt lat="42.70357" lon="1.63201">
        <ele>1622.099</ele>
        <time>2021-06-13T11:14:58Z</time>
      </trkpt>
      <trkpt lat="42.70357" lon="1.63202">
        <ele>1621.653</ele>
        <time>2021-06-13T11:15:00Z</time>
      </trkpt>
      <trkpt lat="42.70357" lon="1.63202">
        <ele>1621.436</ele>
        <time>2021-06-13T11:15:02Z</time>
      </trkpt>
      <trkpt lat="42.70356" lon="1.63202">
        <ele>1621.881</ele>
        <time>2021-06-13T11:15:04Z</time>
      </trkpt>
      <trkpt lat="42.70356" lon="1.63202">
        <ele>1621.878</ele>
        <time>2021-06-13T11:15:06Z</time>
      </trkpt>
      <trkpt lat="42.70356" lon="1.63202">
        <ele>1621.879</ele>
        <time>2021-06-13T11:15:08Z</time>
      </trkpt>
      <trkpt lat="42.70356" lon="1.63202">
        <ele>1621.873</ele>
        <time>2021-06-13T11:15:10Z</time>
      </trkpt>
      <trkpt lat="42.70356" lon="1.63202">
        <ele>1621.87</ele>
        <time>2021-06-13T11:15:12Z</time>
      </trkpt>
      <trkpt lat="42.70356" lon="1.63202">
        <ele>1621.981</ele>
        <time>2021-06-13T11:15:14Z</time>
      </trkpt>
      <trkpt lat="42.70356" lon="1.63202">
        <ele>1621.989</ele>
        <time>2021-06-13T11:15:16Z</time>
      </trkpt>
      <trkpt lat="42.70356" lon="1.63202">
        <ele>1621.992</ele>
        <time>2021-06-13T11:15:18Z</time>
      </trkpt>
      <trkpt lat="42.70356" lon="1.63202">
        <ele>1621.997</ele>
        <time>2021-06-13T11:15:20Z</time>
      </trkpt>
      <trkpt lat="42.70356" lon="1.63202">
        <ele>1621.94</ele>
        <time>2021-06-13T11:15:22Z</time>
      </trkpt>
      <trkpt lat="42.70356" lon="1.63202">
        <ele>1621.98</ele>
        <time>2021-06-13T11:15:24Z</time>
      </trkpt>
      <trkpt lat="42.70356" lon="1.63202">
        <ele>1621.985</ele>
        <time>2021-06-13T11:15:26Z</time>
      </trkpt>
      <trkpt lat="42.70356" lon="1.63202">
        <ele>1621.988</ele>
        <time>2021-06-13T11:15:28Z</time>
      </trkpt>
      <trkpt lat="42.70356" lon="1.63202">
        <ele>1621.989</ele>
        <time>2021-06-13T11:15:30Z</time>
      </trkpt>
      <trkpt lat="42.70356" lon="1.63202">
        <ele>1621.988</ele>
        <time>2021-06-13T11:15:32Z</time>
      </trkpt>
      <trkpt lat="42.70356" lon="1.63202">
        <ele>1621.986</ele>
        <time>2021-06-13T11:15:34Z</time>
      </trkpt>
      <trkpt lat="42.70356" lon="1.63202">
        <ele>1621.985</ele>
        <time>2021-06-13T11:15:36Z</time>
      </trkpt>
      <trkpt lat="42.70356" lon="1.63202">
        <ele>1621.986</ele>
        <time>2021-06-13T11:15:38Z</time>
      </trkpt>
      <trkpt lat="42.70356" lon="1.63202">
        <ele>1621.985</ele>
        <time>2021-06-13T11:15:40Z</time>
      </trkpt>
      <trkpt lat="42.70356" lon="1.63202">
        <ele>1621.975</ele>
        <time>2021-06-13T11:15:42Z</time>
      </trkpt>
      <trkpt lat="42.70356" lon="1.63202">
        <ele>1621.976</ele>
        <time>2021-06-13T11:15:44Z</time>
      </trkpt>
      <trkpt lat="42.70356" lon="1.63202">
        <ele>1621.982</ele>
        <time>2021-06-13T11:15:46Z</time>
      </trkpt>
      <trkpt lat="42.70356" lon="1.63202">
        <ele>1621.982</ele>
        <time>2021-06-13T11:15:48Z</time>
      </trkpt>
      <trkpt lat="42.70356" lon="1.63202">
        <ele>1622.036</ele>
        <time>2021-06-13T11:15:50Z</time>
      </trkpt>
      <trkpt lat="42.70356" lon="1.63202">
        <ele>1622.048</ele>
        <time>2021-06-13T11:15:52Z</time>
      </trkpt>
      <trkpt lat="42.70356" lon="1.63202">
        <ele>1622.043</ele>
        <time>2021-06-13T11:15:54Z</time>
      </trkpt>
      <trkpt lat="42.70356" lon="1.63202">
        <ele>1622.03</ele>
        <time>2021-06-13T11:15:56Z</time>
      </trkpt>
      <trkpt lat="42.70356" lon="1.63202">
        <ele>1622.162</ele>
        <time>2021-06-13T11:15:58Z</time>
      </trkpt>
      <trkpt lat="42.70356" lon="1.63203">
        <ele>1621.413</ele>
        <time>2021-06-13T11:16:00Z</time>
      </trkpt>
      <trkpt lat="42.70356" lon="1.63203">
        <ele>1621.41</ele>
        <time>2021-06-13T11:16:02Z</time>
      </trkpt>
      <trkpt lat="42.70356" lon="1.63203">
        <ele>1621.409</ele>
        <time>2021-06-13T11:16:04Z</time>
      </trkpt>
      <trkpt lat="42.70356" lon="1.63203">
        <ele>1621.412</ele>
        <time>2021-06-13T11:16:06Z</time>
      </trkpt>
      <trkpt lat="42.70356" lon="1.63203">
        <ele>1621.389</ele>
        <time>2021-06-13T11:16:08Z</time>
      </trkpt>
      <trkpt lat="42.70356" lon="1.63203">
        <ele>1621.382</ele>
        <time>2021-06-13T11:16:10Z</time>
      </trkpt>
      <trkpt lat="42.70356" lon="1.63203">
        <ele>1621.21</ele>
        <time>2021-06-13T11:16:12Z</time>
      </trkpt>
      <trkpt lat="42.70356" lon="1.63203">
        <ele>1621.203</ele>
        <time>2021-06-13T11:16:14Z</time>
      </trkpt>
      <trkpt lat="42.70356" lon="1.63203">
        <ele>1621.203</ele>
        <time>2021-06-13T11:16:16Z</time>
      </trkpt>
      <trkpt lat="42.70356" lon="1.63203">
        <ele>1621.162</ele>
        <time>2021-06-13T11:16:18Z</time>
      </trkpt>
      <trkpt lat="42.70356" lon="1.63203">
        <ele>1621.157</ele>
        <time>2021-06-13T11:16:20Z</time>
      </trkpt>
      <trkpt lat="42.70356" lon="1.63203">
        <ele>1621.157</ele>
        <time>2021-06-13T11:16:22Z</time>
      </trkpt>
      <trkpt lat="42.70356" lon="1.63203">
        <ele>1621.157</ele>
        <time>2021-06-13T11:16:24Z</time>
      </trkpt>
      <trkpt lat="42.70356" lon="1.63203">
        <ele>1621.153</ele>
        <time>2021-06-13T11:16:26Z</time>
      </trkpt>
      <trkpt lat="42.70356" lon="1.63202">
        <ele>1620.936</ele>
        <time>2021-06-13T11:16:28Z</time>
      </trkpt>
      <trkpt lat="42.70356" lon="1.63202">
        <ele>1620.94</ele>
        <time>2021-06-13T11:16:30Z</time>
      </trkpt>
      <trkpt lat="42.70356" lon="1.63202">
        <ele>1620.942</ele>
        <time>2021-06-13T11:16:32Z</time>
      </trkpt>
      <trkpt lat="42.70356" lon="1.63202">
        <ele>1620.942</ele>
        <time>2021-06-13T11:16:34Z</time>
      </trkpt>
      <trkpt lat="42.70356" lon="1.63202">
        <ele>1620.93</ele>
        <time>2021-06-13T11:16:36Z</time>
      </trkpt>
      <trkpt lat="42.70356" lon="1.63202">
        <ele>1620.671</ele>
        <time>2021-06-13T11:16:38Z</time>
      </trkpt>
      <trkpt lat="42.70356" lon="1.63202">
        <ele>1620.674</ele>
        <time>2021-06-13T11:16:40Z</time>
      </trkpt>
      <trkpt lat="42.70356" lon="1.63202">
        <ele>1620.835</ele>
        <time>2021-06-13T11:16:42Z</time>
      </trkpt>
      <trkpt lat="42.70356" lon="1.63202">
        <ele>1620.839</ele>
        <time>2021-06-13T11:16:44Z</time>
      </trkpt>
      <trkpt lat="42.70356" lon="1.63202">
        <ele>1620.843</ele>
        <time>2021-06-13T11:16:46Z</time>
      </trkpt>
      <trkpt lat="42.70356" lon="1.63202">
        <ele>1620.848</ele>
        <time>2021-06-13T11:16:48Z</time>
      </trkpt>
      <trkpt lat="42.70356" lon="1.63202">
        <ele>1621.137</ele>
        <time>2021-06-13T11:16:50Z</time>
      </trkpt>
      <trkpt lat="42.70356" lon="1.63202">
        <ele>1621.136</ele>
        <time>2021-06-13T11:16:52Z</time>
      </trkpt>
      <trkpt lat="42.70356" lon="1.63202">
        <ele>1621.143</ele>
        <time>2021-06-13T11:16:54Z</time>
      </trkpt>
      <trkpt lat="42.70356" lon="1.63202">
        <ele>1621.131</ele>
        <time>2021-06-13T11:16:56Z</time>
      </trkpt>
      <trkpt lat="42.70356" lon="1.63202">
        <ele>1621.114</ele>
        <time>2021-06-13T11:16:58Z</time>
      </trkpt>
      <trkpt lat="42.70356" lon="1.63202">
        <ele>1621.109</ele>
        <time>2021-06-13T11:17:00Z</time>
      </trkpt>
      <trkpt lat="42.70356" lon="1.63202">
        <ele>1621.112</ele>
        <time>2021-06-13T11:17:02Z</time>
      </trkpt>
      <trkpt lat="42.70356" lon="1.63202">
        <ele>1621.109</ele>
        <time>2021-06-13T11:17:04Z</time>
      </trkpt>
      <trkpt lat="42.70356" lon="1.63202">
        <ele>1621.096</ele>
        <time>2021-06-13T11:17:06Z</time>
      </trkpt>
      <trkpt lat="42.70356" lon="1.63202">
        <ele>1621.097</ele>
        <time>2021-06-13T11:17:08Z</time>
      </trkpt>
      <trkpt lat="42.70356" lon="1.63202">
        <ele>1621.094</ele>
        <time>2021-06-13T11:17:10Z</time>
      </trkpt>
      <trkpt lat="42.70356" lon="1.63202">
        <ele>1621.094</ele>
        <time>2021-06-13T11:17:12Z</time>
      </trkpt>
      <trkpt lat="42.70356" lon="1.63202">
        <ele>1621.089</ele>
        <time>2021-06-13T11:17:14Z</time>
      </trkpt>
      <trkpt lat="42.70356" lon="1.63202">
        <ele>1621.091</ele>
        <time>2021-06-13T11:17:16Z</time>
      </trkpt>
      <trkpt lat="42.70356" lon="1.63202">
        <ele>1621.09</ele>
        <time>2021-06-13T11:17:18Z</time>
      </trkpt>
      <trkpt lat="42.70356" lon="1.63202">
        <ele>1621.099</ele>
        <time>2021-06-13T11:17:20Z</time>
      </trkpt>
      <trkpt lat="42.70356" lon="1.63202">
        <ele>1621.11</ele>
        <time>2021-06-13T11:17:22Z</time>
      </trkpt>
      <trkpt lat="42.70356" lon="1.63202">
        <ele>1621.122</ele>
        <time>2021-06-13T11:17:24Z</time>
      </trkpt>
      <trkpt lat="42.70356" lon="1.63202">
        <ele>1621.133</ele>
        <time>2021-06-13T11:17:26Z</time>
      </trkpt>
      <trkpt lat="42.70356" lon="1.63202">
        <ele>1621.139</ele>
        <time>2021-06-13T11:17:28Z</time>
      </trkpt>
      <trkpt lat="42.70356" lon="1.63202">
        <ele>1621.134</ele>
        <time>2021-06-13T11:17:30Z</time>
      </trkpt>
      <trkpt lat="42.70356" lon="1.63202">
        <ele>1621.124</ele>
        <time>2021-06-13T11:17:32Z</time>
      </trkpt>
      <trkpt lat="42.70356" lon="1.63202">
        <ele>1621.124</ele>
        <time>2021-06-13T11:17:34Z</time>
      </trkpt>
      <trkpt lat="42.70356" lon="1.63202">
        <ele>1621.112</ele>
        <time>2021-06-13T11:17:36Z</time>
      </trkpt>
      <trkpt lat="42.70356" lon="1.63202">
        <ele>1621.099</ele>
        <time>2021-06-13T11:17:38Z</time>
      </trkpt>
      <trkpt lat="42.70356" lon="1.63202">
        <ele>1621.095</ele>
        <time>2021-06-13T11:17:40Z</time>
      </trkpt>
      <trkpt lat="42.70356" lon="1.63202">
        <ele>1621.106</ele>
        <time>2021-06-13T11:17:42Z</time>
      </trkpt>
      <trkpt lat="42.70356" lon="1.63202">
        <ele>1621.102</ele>
        <time>2021-06-13T11:17:44Z</time>
      </trkpt>
      <trkpt lat="42.70356" lon="1.63202">
        <ele>1621.11</ele>
        <time>2021-06-13T11:17:46Z</time>
      </trkpt>
      <trkpt lat="42.70356" lon="1.63202">
        <ele>1621.114</ele>
        <time>2021-06-13T11:17:48Z</time>
      </trkpt>
      <trkpt lat="42.70356" lon="1.63202">
        <ele>1621.1</ele>
        <time>2021-06-13T11:17:50Z</time>
      </trkpt>
      <trkpt lat="42.70356" lon="1.63202">
        <ele>1620.554</ele>
        <time>2021-06-13T11:17:52Z</time>
      </trkpt>
      <trkpt lat="42.70356" lon="1.63202">
        <ele>1620.542</ele>
        <time>2021-06-13T11:17:54Z</time>
      </trkpt>
      <trkpt lat="42.70356" lon="1.63202">
        <ele>1620.532</ele>
        <time>2021-06-13T11:17:56Z</time>
      </trkpt>
      <trkpt lat="42.70356" lon="1.63202">
        <ele>1620.524</ele>
        <time>2021-06-13T11:17:58Z</time>
      </trkpt>
      <trkpt lat="42.70356" lon="1.63202">
        <ele>1620.496</ele>
        <time>2021-06-13T11:18:00Z</time>
      </trkpt>
      <trkpt lat="42.70356" lon="1.63202">
        <ele>1620.486</ele>
        <time>2021-06-13T11:18:02Z</time>
      </trkpt>
      <trkpt lat="42.70356" lon="1.63202">
        <ele>1620.486</ele>
        <time>2021-06-13T11:18:04Z</time>
      </trkpt>
      <trkpt lat="42.70356" lon="1.63203">
        <ele>1620.488</ele>
        <time>2021-06-13T11:18:06Z</time>
      </trkpt>
      <trkpt lat="42.70356" lon="1.63203">
        <ele>1620.496</ele>
        <time>2021-06-13T11:18:08Z</time>
      </trkpt>
      <trkpt lat="42.70356" lon="1.63203">
        <ele>1620.504</ele>
        <time>2021-06-13T11:18:10Z</time>
      </trkpt>
      <trkpt lat="42.70356" lon="1.63203">
        <ele>1620.507</ele>
        <time>2021-06-13T11:18:12Z</time>
      </trkpt>
      <trkpt lat="42.70356" lon="1.63203">
        <ele>1620.505</ele>
        <time>2021-06-13T11:18:14Z</time>
      </trkpt>
      <trkpt lat="42.70356" lon="1.63203">
        <ele>1620.501</ele>
        <time>2021-06-13T11:18:16Z</time>
      </trkpt>
      <trkpt lat="42.70356" lon="1.63203">
        <ele>1620.511</ele>
        <time>2021-06-13T11:18:18Z</time>
      </trkpt>
      <trkpt lat="42.70356" lon="1.63203">
        <ele>1620.528</ele>
        <time>2021-06-13T11:18:20Z</time>
      </trkpt>
      <trkpt lat="42.70356" lon="1.63203">
        <ele>1620.538</ele>
        <time>2021-06-13T11:18:22Z</time>
      </trkpt>
      <trkpt lat="42.70356" lon="1.63203">
        <ele>1620.54</ele>
        <time>2021-06-13T11:18:24Z</time>
      </trkpt>
      <trkpt lat="42.70356" lon="1.63203">
        <ele>1620.528</ele>
        <time>2021-06-13T11:18:26Z</time>
      </trkpt>
      <trkpt lat="42.70356" lon="1.63203">
        <ele>1620.531</ele>
        <time>2021-06-13T11:18:28Z</time>
      </trkpt>
      <trkpt lat="42.70356" lon="1.63203">
        <ele>1620.53</ele>
        <time>2021-06-13T11:18:30Z</time>
      </trkpt>
      <trkpt lat="42.70356" lon="1.63203">
        <ele>1620.53</ele>
        <time>2021-06-13T11:18:32Z</time>
      </trkpt>
      <trkpt lat="42.70356" lon="1.63203">
        <ele>1620.664</ele>
        <time>2021-06-13T11:18:34Z</time>
      </trkpt>
      <trkpt lat="42.70356" lon="1.63203">
        <ele>1620.653</ele>
        <time>2021-06-13T11:18:36Z</time>
      </trkpt>
      <trkpt lat="42.70356" lon="1.63203">
        <ele>1620.647</ele>
        <time>2021-06-13T11:18:38Z</time>
      </trkpt>
      <trkpt lat="42.70356" lon="1.63203">
        <ele>1620.653</ele>
        <time>2021-06-13T11:18:40Z</time>
      </trkpt>
      <trkpt lat="42.70356" lon="1.63203">
        <ele>1620.544</ele>
        <time>2021-06-13T11:18:42Z</time>
      </trkpt>
      <trkpt lat="42.70356" lon="1.63203">
        <ele>1620.57</ele>
        <time>2021-06-13T11:18:44Z</time>
      </trkpt>
      <trkpt lat="42.70356" lon="1.63203">
        <ele>1620.548</ele>
        <time>2021-06-13T11:18:46Z</time>
      </trkpt>
      <trkpt lat="42.70356" lon="1.63203">
        <ele>1620.539</ele>
        <time>2021-06-13T11:18:48Z</time>
      </trkpt>
      <trkpt lat="42.70356" lon="1.63203">
        <ele>1620.537</ele>
        <time>2021-06-13T11:18:50Z</time>
      </trkpt>
      <trkpt lat="42.70356" lon="1.63203">
        <ele>1621.075</ele>
        <time>2021-06-13T11:18:52Z</time>
      </trkpt>
      <trkpt lat="42.70356" lon="1.63203">
        <ele>1621.063</ele>
        <time>2021-06-13T11:18:54Z</time>
      </trkpt>
      <trkpt lat="42.70356" lon="1.63203">
        <ele>1621.041</ele>
        <time>2021-06-13T11:18:56Z</time>
      </trkpt>
      <trkpt lat="42.70356" lon="1.63203">
        <ele>1621.05</ele>
        <time>2021-06-13T11:18:58Z</time>
      </trkpt>
      <trkpt lat="42.70356" lon="1.63203">
        <ele>1621.054</ele>
        <time>2021-06-13T11:19:00Z</time>
      </trkpt>
      <trkpt lat="42.70356" lon="1.63203">
        <ele>1621.049</ele>
        <time>2021-06-13T11:19:02Z</time>
      </trkpt>
      <trkpt lat="42.70356" lon="1.63203">
        <ele>1621.048</ele>
        <time>2021-06-13T11:19:04Z</time>
      </trkpt>
      <trkpt lat="42.70355" lon="1.63204">
        <ele>1620.803</ele>
        <time>2021-06-13T11:19:06Z</time>
      </trkpt>
      <trkpt lat="42.70355" lon="1.63204">
        <ele>1620.774</ele>
        <time>2021-06-13T11:19:08Z</time>
      </trkpt>
      <trkpt lat="42.70355" lon="1.63204">
        <ele>1620.755</ele>
        <time>2021-06-13T11:19:10Z</time>
      </trkpt>
      <trkpt lat="42.70355" lon="1.63204">
        <ele>1621.4</ele>
        <time>2021-06-13T11:19:12Z</time>
      </trkpt>
      <trkpt lat="42.70355" lon="1.63204">
        <ele>1621.404</ele>
        <time>2021-06-13T11:19:14Z</time>
      </trkpt>
      <trkpt lat="42.70355" lon="1.63204">
        <ele>1621.372</ele>
        <time>2021-06-13T11:19:16Z</time>
      </trkpt>
      <trkpt lat="42.70355" lon="1.63204">
        <ele>1621.352</ele>
        <time>2021-06-13T11:19:18Z</time>
      </trkpt>
      <trkpt lat="42.70355" lon="1.63204">
        <ele>1621.34</ele>
        <time>2021-06-13T11:19:20Z</time>
      </trkpt>
      <trkpt lat="42.70355" lon="1.63204">
        <ele>1621.331</ele>
        <time>2021-06-13T11:19:22Z</time>
      </trkpt>
      <trkpt lat="42.70355" lon="1.63204">
        <ele>1621.328</ele>
        <time>2021-06-13T11:19:24Z</time>
      </trkpt>
      <trkpt lat="42.70355" lon="1.63204">
        <ele>1621.322</ele>
        <time>2021-06-13T11:19:26Z</time>
      </trkpt>
      <trkpt lat="42.70355" lon="1.63204">
        <ele>1621.314</ele>
        <time>2021-06-13T11:19:28Z</time>
      </trkpt>
      <trkpt lat="42.70355" lon="1.63204">
        <ele>1621.319</ele>
        <time>2021-06-13T11:19:30Z</time>
      </trkpt>
      <trkpt lat="42.70355" lon="1.63204">
        <ele>1621.326</ele>
        <time>2021-06-13T11:19:32Z</time>
      </trkpt>
      <trkpt lat="42.70355" lon="1.63204">
        <ele>1621.331</ele>
        <time>2021-06-13T11:19:34Z</time>
      </trkpt>
      <trkpt lat="42.70355" lon="1.63204">
        <ele>1621.335</ele>
        <time>2021-06-13T11:19:36Z</time>
      </trkpt>
      <trkpt lat="42.70355" lon="1.63204">
        <ele>1621.328</ele>
        <time>2021-06-13T11:19:38Z</time>
      </trkpt>
      <trkpt lat="42.70355" lon="1.63204">
        <ele>1621.332</ele>
        <time>2021-06-13T11:19:40Z</time>
      </trkpt>
      <trkpt lat="42.70355" lon="1.63204">
        <ele>1621.337</ele>
        <time>2021-06-13T11:19:42Z</time>
      </trkpt>
      <trkpt lat="42.70355" lon="1.63204">
        <ele>1621.335</ele>
        <time>2021-06-13T11:19:44Z</time>
      </trkpt>
      <trkpt lat="42.70355" lon="1.63204">
        <ele>1621.329</ele>
        <time>2021-06-13T11:19:46Z</time>
      </trkpt>
      <trkpt lat="42.70355" lon="1.63204">
        <ele>1621.326</ele>
        <time>2021-06-13T11:19:48Z</time>
      </trkpt>
      <trkpt lat="42.70355" lon="1.63204">
        <ele>1621.306</ele>
        <time>2021-06-13T11:19:50Z</time>
      </trkpt>
      <trkpt lat="42.70355" lon="1.63204">
        <ele>1621.297</ele>
        <time>2021-06-13T11:19:52Z</time>
      </trkpt>
      <trkpt lat="42.70355" lon="1.63204">
        <ele>1621.303</ele>
        <time>2021-06-13T11:19:54Z</time>
      </trkpt>
      <trkpt lat="42.70355" lon="1.63204">
        <ele>1621.278</ele>
        <time>2021-06-13T11:19:56Z</time>
      </trkpt>
      <trkpt lat="42.70355" lon="1.63204">
        <ele>1621.269</ele>
        <time>2021-06-13T11:19:58Z</time>
      </trkpt>
      <trkpt lat="42.70355" lon="1.63204">
        <ele>1621.264</ele>
        <time>2021-06-13T11:20:00Z</time>
      </trkpt>
      <trkpt lat="42.70355" lon="1.63204">
        <ele>1621.277</ele>
        <time>2021-06-13T11:20:02Z</time>
      </trkpt>
      <trkpt lat="42.70355" lon="1.63204">
        <ele>1621.284</ele>
        <time>2021-06-13T11:20:04Z</time>
      </trkpt>
      <trkpt lat="42.70355" lon="1.63205">
        <ele>1621.854</ele>
        <time>2021-06-13T11:20:06Z</time>
      </trkpt>
      <trkpt lat="42.70355" lon="1.63205">
        <ele>1621.891</ele>
        <time>2021-06-13T11:20:08Z</time>
      </trkpt>
      <trkpt lat="42.70355" lon="1.63205">
        <ele>1621.891</ele>
        <time>2021-06-13T11:20:10Z</time>
      </trkpt>
      <trkpt lat="42.70355" lon="1.63205">
        <ele>1621.906</ele>
        <time>2021-06-13T11:20:12Z</time>
      </trkpt>
      <trkpt lat="42.70355" lon="1.63205">
        <ele>1621.916</ele>
        <time>2021-06-13T11:20:14Z</time>
      </trkpt>
      <trkpt lat="42.70355" lon="1.63205">
        <ele>1621.933</ele>
        <time>2021-06-13T11:20:16Z</time>
      </trkpt>
      <trkpt lat="42.70355" lon="1.63205">
        <ele>1621.963</ele>
        <time>2021-06-13T11:20:18Z</time>
      </trkpt>
      <trkpt lat="42.70355" lon="1.63205">
        <ele>1621.97</ele>
        <time>2021-06-13T11:20:20Z</time>
      </trkpt>
      <trkpt lat="42.70355" lon="1.63205">
        <ele>1621.983</ele>
        <time>2021-06-13T11:20:22Z</time>
      </trkpt>
      <trkpt lat="42.70355" lon="1.63205">
        <ele>1621.999</ele>
        <time>2021-06-13T11:20:24Z</time>
      </trkpt>
      <trkpt lat="42.70355" lon="1.63205">
        <ele>1622.004</ele>
        <time>2021-06-13T11:20:26Z</time>
      </trkpt>
      <trkpt lat="42.70355" lon="1.63205">
        <ele>1622.008</ele>
        <time>2021-06-13T11:20:28Z</time>
      </trkpt>
      <trkpt lat="42.70355" lon="1.63205">
        <ele>1622.003</ele>
        <time>2021-06-13T11:20:30Z</time>
      </trkpt>
      <trkpt lat="42.70356" lon="1.63204">
        <ele>1621.506</ele>
        <time>2021-06-13T11:20:32Z</time>
      </trkpt>
      <trkpt lat="42.70356" lon="1.63204">
        <ele>1621.709</ele>
        <time>2021-06-13T11:20:34Z</time>
      </trkpt>
      <trkpt lat="42.70356" lon="1.63203">
        <ele>1621.704</ele>
        <time>2021-06-13T11:20:36Z</time>
      </trkpt>
      <trkpt lat="42.70356" lon="1.63203">
        <ele>1621.707</ele>
        <time>2021-06-13T11:20:38Z</time>
      </trkpt>
      <trkpt lat="42.70356" lon="1.63203">
        <ele>1621.73</ele>
        <time>2021-06-13T11:20:40Z</time>
      </trkpt>
      <trkpt lat="42.70356" lon="1.63203">
        <ele>1621.727</ele>
        <time>2021-06-13T11:20:42Z</time>
      </trkpt>
      <trkpt lat="42.70356" lon="1.63203">
        <ele>1621.734</ele>
        <time>2021-06-13T11:20:44Z</time>
      </trkpt>
      <trkpt lat="42.70356" lon="1.63203">
        <ele>1621.739</ele>
        <time>2021-06-13T11:20:46Z</time>
      </trkpt>
      <trkpt lat="42.70356" lon="1.63203">
        <ele>1621.743</ele>
        <time>2021-06-13T11:20:48Z</time>
      </trkpt>
      <trkpt lat="42.70356" lon="1.63203">
        <ele>1621.747</ele>
        <time>2021-06-13T11:20:50Z</time>
      </trkpt>
      <trkpt lat="42.70357" lon="1.63204">
        <ele>1622.14</ele>
        <time>2021-06-13T11:20:52Z</time>
      </trkpt>
      <trkpt lat="42.70356" lon="1.63203">
        <ele>1622.637</ele>
        <time>2021-06-13T11:20:54Z</time>
      </trkpt>
      <trkpt lat="42.70357" lon="1.63203">
        <ele>1623.266</ele>
        <time>2021-06-13T11:20:56Z</time>
      </trkpt>
      <trkpt lat="42.70357" lon="1.63204">
        <ele>1623.245</ele>
        <time>2021-06-13T11:20:58Z</time>
      </trkpt>
      <trkpt lat="42.70357" lon="1.63204">
        <ele>1623.252</ele>
        <time>2021-06-13T11:21:00Z</time>
      </trkpt>
      <trkpt lat="42.70357" lon="1.63204">
        <ele>1623.265</ele>
        <time>2021-06-13T11:21:02Z</time>
      </trkpt>
      <trkpt lat="42.70357" lon="1.63204">
        <ele>1623.283</ele>
        <time>2021-06-13T11:21:04Z</time>
      </trkpt>
      <trkpt lat="42.70357" lon="1.63204">
        <ele>1623.297</ele>
        <time>2021-06-13T11:21:06Z</time>
      </trkpt>
      <trkpt lat="42.70357" lon="1.63204">
        <ele>1623.306</ele>
        <time>2021-06-13T11:21:08Z</time>
      </trkpt>
      <trkpt lat="42.70357" lon="1.63203">
        <ele>1623.312</ele>
        <time>2021-06-13T11:21:10Z</time>
      </trkpt>
      <trkpt lat="42.70357" lon="1.63203">
        <ele>1623.31</ele>
        <time>2021-06-13T11:21:12Z</time>
      </trkpt>
      <trkpt lat="42.70357" lon="1.63203">
        <ele>1623.462</ele>
        <time>2021-06-13T11:21:14Z</time>
      </trkpt>
      <trkpt lat="42.70357" lon="1.63203">
        <ele>1623.457</ele>
        <time>2021-06-13T11:21:16Z</time>
      </trkpt>
      <trkpt lat="42.70357" lon="1.63203">
        <ele>1623.45</ele>
        <time>2021-06-13T11:21:18Z</time>
      </trkpt>
      <trkpt lat="42.70357" lon="1.63203">
        <ele>1623.429</ele>
        <time>2021-06-13T11:21:20Z</time>
      </trkpt>
      <trkpt lat="42.70357" lon="1.63203">
        <ele>1623.418</ele>
        <time>2021-06-13T11:21:22Z</time>
      </trkpt>
      <trkpt lat="42.70357" lon="1.63203">
        <ele>1623.409</ele>
        <time>2021-06-13T11:21:24Z</time>
      </trkpt>
      <trkpt lat="42.70357" lon="1.63203">
        <ele>1623.403</ele>
        <time>2021-06-13T11:21:26Z</time>
      </trkpt>
      <trkpt lat="42.70357" lon="1.63203">
        <ele>1623.404</ele>
        <time>2021-06-13T11:21:28Z</time>
      </trkpt>
      <trkpt lat="42.70357" lon="1.63203">
        <ele>1623.42</ele>
        <time>2021-06-13T11:21:30Z</time>
      </trkpt>
      <trkpt lat="42.70357" lon="1.63203">
        <ele>1623.421</ele>
        <time>2021-06-13T11:21:32Z</time>
      </trkpt>
      <trkpt lat="42.70357" lon="1.63203">
        <ele>1623.417</ele>
        <time>2021-06-13T11:21:34Z</time>
      </trkpt>
      <trkpt lat="42.70357" lon="1.63203">
        <ele>1623.415</ele>
        <time>2021-06-13T11:21:36Z</time>
      </trkpt>
      <trkpt lat="42.70357" lon="1.63203">
        <ele>1623.414</ele>
        <time>2021-06-13T11:21:38Z</time>
      </trkpt>
      <trkpt lat="42.70357" lon="1.63203">
        <ele>1623.414</ele>
        <time>2021-06-13T11:21:40Z</time>
      </trkpt>
      <trkpt lat="42.70357" lon="1.63203">
        <ele>1623.404</ele>
        <time>2021-06-13T11:21:42Z</time>
      </trkpt>
      <trkpt lat="42.70357" lon="1.63203">
        <ele>1623.406</ele>
        <time>2021-06-13T11:21:44Z</time>
      </trkpt>
      <trkpt lat="42.70357" lon="1.63203">
        <ele>1623.415</ele>
        <time>2021-06-13T11:21:46Z</time>
      </trkpt>
      <trkpt lat="42.70357" lon="1.63203">
        <ele>1622.688</ele>
        <time>2021-06-13T11:21:48Z</time>
      </trkpt>
      <trkpt lat="42.70357" lon="1.63203">
        <ele>1622.68</ele>
        <time>2021-06-13T11:21:50Z</time>
      </trkpt>
      <trkpt lat="42.70357" lon="1.63204">
        <ele>1622.687</ele>
        <time>2021-06-13T11:21:52Z</time>
      </trkpt>
      <trkpt lat="42.70357" lon="1.63204">
        <ele>1622.698</ele>
        <time>2021-06-13T11:21:54Z</time>
      </trkpt>
      <trkpt lat="42.70357" lon="1.63204">
        <ele>1622.701</ele>
        <time>2021-06-13T11:21:56Z</time>
      </trkpt>
      <trkpt lat="42.70357" lon="1.63204">
        <ele>1622.688</ele>
        <time>2021-06-13T11:21:58Z</time>
      </trkpt>
      <trkpt lat="42.70357" lon="1.63204">
        <ele>1622.695</ele>
        <time>2021-06-13T11:22:00Z</time>
      </trkpt>
      <trkpt lat="42.70357" lon="1.63204">
        <ele>1622.696</ele>
        <time>2021-06-13T11:22:02Z</time>
      </trkpt>
      <trkpt lat="42.70358" lon="1.63204">
        <ele>1622.587</ele>
        <time>2021-06-13T11:22:04Z</time>
      </trkpt>
      <trkpt lat="42.70358" lon="1.63204">
        <ele>1622.915</ele>
        <time>2021-06-13T11:22:06Z</time>
      </trkpt>
      <trkpt lat="42.70358" lon="1.63204">
        <ele>1622.912</ele>
        <time>2021-06-13T11:22:08Z</time>
      </trkpt>
      <trkpt lat="42.70358" lon="1.63204">
        <ele>1622.988</ele>
        <time>2021-06-13T11:22:10Z</time>
      </trkpt>
      <trkpt lat="42.70358" lon="1.63204">
        <ele>1622.974</ele>
        <time>2021-06-13T11:22:12Z</time>
      </trkpt>
      <trkpt lat="42.70358" lon="1.63204">
        <ele>1622.972</ele>
        <time>2021-06-13T11:22:14Z</time>
      </trkpt>
      <trkpt lat="42.70358" lon="1.63204">
        <ele>1622.959</ele>
        <time>2021-06-13T11:22:16Z</time>
      </trkpt>
      <trkpt lat="42.70358" lon="1.63204">
        <ele>1622.618</ele>
        <time>2021-06-13T11:22:18Z</time>
      </trkpt>
      <trkpt lat="42.70358" lon="1.63204">
        <ele>1622.598</ele>
        <time>2021-06-13T11:22:20Z</time>
      </trkpt>
      <trkpt lat="42.70358" lon="1.63204">
        <ele>1622.596</ele>
        <time>2021-06-13T11:22:22Z</time>
      </trkpt>
      <trkpt lat="42.70358" lon="1.63204">
        <ele>1622.591</ele>
        <time>2021-06-13T11:22:24Z</time>
      </trkpt>
      <trkpt lat="42.70358" lon="1.63204">
        <ele>1622.588</ele>
        <time>2021-06-13T11:22:26Z</time>
      </trkpt>
      <trkpt lat="42.70358" lon="1.63204">
        <ele>1622.772</ele>
        <time>2021-06-13T11:22:28Z</time>
      </trkpt>
      <trkpt lat="42.70358" lon="1.63204">
        <ele>1622.776</ele>
        <time>2021-06-13T11:22:30Z</time>
      </trkpt>
      <trkpt lat="42.70358" lon="1.63204">
        <ele>1622.78</ele>
        <time>2021-06-13T11:22:32Z</time>
      </trkpt>
      <trkpt lat="42.70358" lon="1.63204">
        <ele>1622.788</ele>
        <time>2021-06-13T11:22:34Z</time>
      </trkpt>
      <trkpt lat="42.70358" lon="1.63204">
        <ele>1622.786</ele>
        <time>2021-06-13T11:22:36Z</time>
      </trkpt>
      <trkpt lat="42.70358" lon="1.63204">
        <ele>1622.916</ele>
        <time>2021-06-13T11:22:38Z</time>
      </trkpt>
      <trkpt lat="42.70358" lon="1.63204">
        <ele>1622.924</ele>
        <time>2021-06-13T11:22:40Z</time>
      </trkpt>
      <trkpt lat="42.70358" lon="1.63204">
        <ele>1622.921</ele>
        <time>2021-06-13T11:22:42Z</time>
      </trkpt>
      <trkpt lat="42.70358" lon="1.63204">
        <ele>1622.916</ele>
        <time>2021-06-13T11:22:44Z</time>
      </trkpt>
      <trkpt lat="42.70358" lon="1.63204">
        <ele>1622.905</ele>
        <time>2021-06-13T11:22:46Z</time>
      </trkpt>
      <trkpt lat="42.70358" lon="1.63204">
        <ele>1622.898</ele>
        <time>2021-06-13T11:22:48Z</time>
      </trkpt>
      <trkpt lat="42.70358" lon="1.63204">
        <ele>1622.904</ele>
        <time>2021-06-13T11:22:50Z</time>
      </trkpt>
      <trkpt lat="42.70358" lon="1.63204">
        <ele>1622.915</ele>
        <time>2021-06-13T11:22:52Z</time>
      </trkpt>
      <trkpt lat="42.70358" lon="1.63204">
        <ele>1622.919</ele>
        <time>2021-06-13T11:22:54Z</time>
      </trkpt>
      <trkpt lat="42.70358" lon="1.63204">
        <ele>1622.924</ele>
        <time>2021-06-13T11:22:56Z</time>
      </trkpt>
      <trkpt lat="42.70358" lon="1.63204">
        <ele>1622.931</ele>
        <time>2021-06-13T11:22:58Z</time>
      </trkpt>
      <trkpt lat="42.70358" lon="1.63204">
        <ele>1622.933</ele>
        <time>2021-06-13T11:23:00Z</time>
      </trkpt>
      <trkpt lat="42.70358" lon="1.63204">
        <ele>1622.927</ele>
        <time>2021-06-13T11:23:02Z</time>
      </trkpt>
      <trkpt lat="42.70358" lon="1.63204">
        <ele>1622.93</ele>
        <time>2021-06-13T11:23:04Z</time>
      </trkpt>
      <trkpt lat="42.70358" lon="1.63205">
        <ele>1623.042</ele>
        <time>2021-06-13T11:23:06Z</time>
      </trkpt>
      <trkpt lat="42.70358" lon="1.63206">
        <ele>1622.575</ele>
        <time>2021-06-13T11:23:08Z</time>
      </trkpt>
      <trkpt lat="42.70358" lon="1.63206">
        <ele>1622.481</ele>
        <time>2021-06-13T11:23:10Z</time>
      </trkpt>
      <trkpt lat="42.70358" lon="1.63206">
        <ele>1622.178</ele>
        <time>2021-06-13T11:23:12Z</time>
      </trkpt>
      <trkpt lat="42.70358" lon="1.63206">
        <ele>1622.166</ele>
        <time>2021-06-13T11:23:14Z</time>
      </trkpt>
      <trkpt lat="42.70358" lon="1.63207">
        <ele>1622.005</ele>
        <time>2021-06-13T11:23:16Z</time>
      </trkpt>
      <trkpt lat="42.70358" lon="1.63206">
        <ele>1622.225</ele>
        <time>2021-06-13T11:23:18Z</time>
      </trkpt>
      <trkpt lat="42.70358" lon="1.63207">
        <ele>1622.231</ele>
        <time>2021-06-13T11:23:20Z</time>
      </trkpt>
      <trkpt lat="42.70358" lon="1.63207">
        <ele>1622.247</ele>
        <time>2021-06-13T11:23:22Z</time>
      </trkpt>
      <trkpt lat="42.70358" lon="1.63207">
        <ele>1622.257</ele>
        <time>2021-06-13T11:23:24Z</time>
      </trkpt>
      <trkpt lat="42.70358" lon="1.63207">
        <ele>1622.255</ele>
        <time>2021-06-13T11:23:26Z</time>
      </trkpt>
      <trkpt lat="42.70358" lon="1.63207">
        <ele>1622.264</ele>
        <time>2021-06-13T11:23:28Z</time>
      </trkpt>
      <trkpt lat="42.70358" lon="1.63206">
        <ele>1622.407</ele>
        <time>2021-06-13T11:23:30Z</time>
      </trkpt>
      <trkpt lat="42.70357" lon="1.63206">
        <ele>1623.1</ele>
        <time>2021-06-13T11:23:32Z</time>
      </trkpt>
      <trkpt lat="42.70357" lon="1.63206">
        <ele>1622.713</ele>
        <time>2021-06-13T11:23:34Z</time>
      </trkpt>
      <trkpt lat="42.70357" lon="1.63206">
        <ele>1622.713</ele>
        <time>2021-06-13T11:23:36Z</time>
      </trkpt>
      <trkpt lat="42.70357" lon="1.63206">
        <ele>1622.711</ele>
        <time>2021-06-13T11:23:38Z</time>
      </trkpt>
      <trkpt lat="42.70356" lon="1.63206">
        <ele>1622.703</ele>
        <time>2021-06-13T11:23:40Z</time>
      </trkpt>
      <trkpt lat="42.70356" lon="1.63206">
        <ele>1622.699</ele>
        <time>2021-06-13T11:23:42Z</time>
      </trkpt>
      <trkpt lat="42.70357" lon="1.63206">
        <ele>1622.921</ele>
        <time>2021-06-13T11:23:44Z</time>
      </trkpt>
      <trkpt lat="42.70357" lon="1.63206">
        <ele>1623.024</ele>
        <time>2021-06-13T11:23:46Z</time>
      </trkpt>
      <trkpt lat="42.70357" lon="1.63206">
        <ele>1623.077</ele>
        <time>2021-06-13T11:23:48Z</time>
      </trkpt>
      <trkpt lat="42.70357" lon="1.63206">
        <ele>1623.081</ele>
        <time>2021-06-13T11:23:50Z</time>
      </trkpt>
      <trkpt lat="42.70357" lon="1.63206">
        <ele>1623.077</ele>
        <time>2021-06-13T11:23:52Z</time>
      </trkpt>
      <trkpt lat="42.70357" lon="1.63206">
        <ele>1623.078</ele>
        <time>2021-06-13T11:23:54Z</time>
      </trkpt>
      <trkpt lat="42.70357" lon="1.63206">
        <ele>1623.075</ele>
        <time>2021-06-13T11:23:56Z</time>
      </trkpt>
      <trkpt lat="42.70358" lon="1.63206">
        <ele>1622.977</ele>
        <time>2021-06-13T11:23:58Z</time>
      </trkpt>
      <trkpt lat="42.70359" lon="1.63207">
        <ele>1623.082</ele>
        <time>2021-06-13T11:24:00Z</time>
      </trkpt>
      <trkpt lat="42.7036" lon="1.63207">
        <ele>1623.191</ele>
        <time>2021-06-13T11:24:02Z</time>
      </trkpt>
      <trkpt lat="42.7036" lon="1.63207">
        <ele>1623.439</ele>
        <time>2021-06-13T11:24:04Z</time>
      </trkpt>
      <trkpt lat="42.7036" lon="1.63207">
        <ele>1623.436</ele>
        <time>2021-06-13T11:24:06Z</time>
      </trkpt>
      <trkpt lat="42.7036" lon="1.63207">
        <ele>1623.423</ele>
        <time>2021-06-13T11:24:08Z</time>
      </trkpt>
      <trkpt lat="42.7036" lon="1.63207">
        <ele>1623.409</ele>
        <time>2021-06-13T11:24:10Z</time>
      </trkpt>
      <trkpt lat="42.7036" lon="1.63207">
        <ele>1623.399</ele>
        <time>2021-06-13T11:24:12Z</time>
      </trkpt>
      <trkpt lat="42.7036" lon="1.63207">
        <ele>1623.394</ele>
        <time>2021-06-13T11:24:14Z</time>
      </trkpt>
      <trkpt lat="42.70362" lon="1.63206">
        <ele>1623.014</ele>
        <time>2021-06-13T11:24:16Z</time>
      </trkpt>
      <trkpt lat="42.70364" lon="1.63204">
        <ele>1622.481</ele>
        <time>2021-06-13T11:24:18Z</time>
      </trkpt>
      <trkpt lat="42.70366" lon="1.63203">
        <ele>1622.714</ele>
        <time>2021-06-13T11:24:20Z</time>
      </trkpt>
      <trkpt lat="42.70367" lon="1.63203">
        <ele>1622.567</ele>
        <time>2021-06-13T11:24:22Z</time>
      </trkpt>
      <trkpt lat="42.70368" lon="1.63202">
        <ele>1622.819</ele>
        <time>2021-06-13T11:24:24Z</time>
      </trkpt>
      <trkpt lat="42.7037" lon="1.63201">
        <ele>1622.754</ele>
        <time>2021-06-13T11:24:26Z</time>
      </trkpt>
      <trkpt lat="42.70371" lon="1.63201">
        <ele>1623.594</ele>
        <time>2021-06-13T11:24:28Z</time>
      </trkpt>
      <trkpt lat="42.70371" lon="1.63201">
        <ele>1624.233</ele>
        <time>2021-06-13T11:24:30Z</time>
      </trkpt>
      <trkpt lat="42.70371" lon="1.632">
        <ele>1624.09</ele>
        <time>2021-06-13T11:24:32Z</time>
      </trkpt>
      <trkpt lat="42.70371" lon="1.632">
        <ele>1624.098</ele>
        <time>2021-06-13T11:24:34Z</time>
      </trkpt>
      <trkpt lat="42.70371" lon="1.632">
        <ele>1624.096</ele>
        <time>2021-06-13T11:24:36Z</time>
      </trkpt>
      <trkpt lat="42.70371" lon="1.632">
        <ele>1624.097</ele>
        <time>2021-06-13T11:24:38Z</time>
      </trkpt>
      <trkpt lat="42.70371" lon="1.632">
        <ele>1624.097</ele>
        <time>2021-06-13T11:24:40Z</time>
      </trkpt>
      <trkpt lat="42.70371" lon="1.632">
        <ele>1624.092</ele>
        <time>2021-06-13T11:24:42Z</time>
      </trkpt>
      <trkpt lat="42.70371" lon="1.632">
        <ele>1624.088</ele>
        <time>2021-06-13T11:24:44Z</time>
      </trkpt>
      <trkpt lat="42.70371" lon="1.632">
        <ele>1624.085</ele>
        <time>2021-06-13T11:24:46Z</time>
      </trkpt>
      <trkpt lat="42.70371" lon="1.632">
        <ele>1624.082</ele>
        <time>2021-06-13T11:24:48Z</time>
      </trkpt>
      <trkpt lat="42.70371" lon="1.632">
        <ele>1624.08</ele>
        <time>2021-06-13T11:24:50Z</time>
      </trkpt>
      <trkpt lat="42.70371" lon="1.632">
        <ele>1624.076</ele>
        <time>2021-06-13T11:24:52Z</time>
      </trkpt>
      <trkpt lat="42.70371" lon="1.632">
        <ele>1624.075</ele>
        <time>2021-06-13T11:24:54Z</time>
      </trkpt>
      <trkpt lat="42.70371" lon="1.632">
        <ele>1624.077</ele>
        <time>2021-06-13T11:24:56Z</time>
      </trkpt>
      <trkpt lat="42.70371" lon="1.632">
        <ele>1624.081</ele>
        <time>2021-06-13T11:24:58Z</time>
      </trkpt>
      <trkpt lat="42.70371" lon="1.632">
        <ele>1624.072</ele>
        <time>2021-06-13T11:25:00Z</time>
      </trkpt>
      <trkpt lat="42.70371" lon="1.632">
        <ele>1624.071</ele>
        <time>2021-06-13T11:25:02Z</time>
      </trkpt>
      <trkpt lat="42.70371" lon="1.632">
        <ele>1624.067</ele>
        <time>2021-06-13T11:25:04Z</time>
      </trkpt>
      <trkpt lat="42.70371" lon="1.632">
        <ele>1624.062</ele>
        <time>2021-06-13T11:25:06Z</time>
      </trkpt>
      <trkpt lat="42.70371" lon="1.632">
        <ele>1624.06</ele>
        <time>2021-06-13T11:25:08Z</time>
      </trkpt>
      <trkpt lat="42.70371" lon="1.632">
        <ele>1624.052</ele>
        <time>2021-06-13T11:25:10Z</time>
      </trkpt>
      <trkpt lat="42.70371" lon="1.632">
        <ele>1624.044</ele>
        <time>2021-06-13T11:25:12Z</time>
      </trkpt>
      <trkpt lat="42.70371" lon="1.632">
        <ele>1624.029</ele>
        <time>2021-06-13T11:25:14Z</time>
      </trkpt>
      <trkpt lat="42.70371" lon="1.632">
        <ele>1624.028</ele>
        <time>2021-06-13T11:25:16Z</time>
      </trkpt>
      <trkpt lat="42.70371" lon="1.632">
        <ele>1623.369</ele>
        <time>2021-06-13T11:25:18Z</time>
      </trkpt>
      <trkpt lat="42.70371" lon="1.63199">
        <ele>1623.641</ele>
        <time>2021-06-13T11:25:20Z</time>
      </trkpt>
      <trkpt lat="42.7037" lon="1.632">
        <ele>1623.565</ele>
        <time>2021-06-13T11:25:22Z</time>
      </trkpt>
      <trkpt lat="42.70369" lon="1.632">
        <ele>1623.303</ele>
        <time>2021-06-13T11:25:24Z</time>
      </trkpt>
      <trkpt lat="42.70368" lon="1.63199">
        <ele>1622.777</ele>
        <time>2021-06-13T11:25:26Z</time>
      </trkpt>
      <trkpt lat="42.70367" lon="1.63199">
        <ele>1622.738</ele>
        <time>2021-06-13T11:25:28Z</time>
      </trkpt>
      <trkpt lat="42.70365" lon="1.632">
        <ele>1622.793</ele>
        <time>2021-06-13T11:25:30Z</time>
      </trkpt>
      <trkpt lat="42.70364" lon="1.632">
        <ele>1622.313</ele>
        <time>2021-06-13T11:25:32Z</time>
      </trkpt>
      <trkpt lat="42.70363" lon="1.63202">
        <ele>1622.759</ele>
        <time>2021-06-13T11:25:34Z</time>
      </trkpt>
      <trkpt lat="42.70361" lon="1.63203">
        <ele>1622.035</ele>
        <time>2021-06-13T11:25:36Z</time>
      </trkpt>
      <trkpt lat="42.7036" lon="1.63203">
        <ele>1621.908</ele>
        <time>2021-06-13T11:25:38Z</time>
      </trkpt>
      <trkpt lat="42.70358" lon="1.63203">
        <ele>1621.795</ele>
        <time>2021-06-13T11:25:40Z</time>
      </trkpt>
      <trkpt lat="42.70357" lon="1.63204">
        <ele>1622.231</ele>
        <time>2021-06-13T11:25:42Z</time>
      </trkpt>
      <trkpt lat="42.70356" lon="1.63205">
        <ele>1621.271</ele>
        <time>2021-06-13T11:25:44Z</time>
      </trkpt>
      <trkpt lat="42.70355" lon="1.63204">
        <ele>1621.369</ele>
        <time>2021-06-13T11:25:46Z</time>
      </trkpt>
      <trkpt lat="42.70355" lon="1.63204">
        <ele>1621.196</ele>
        <time>2021-06-13T11:25:48Z</time>
      </trkpt>
      <trkpt lat="42.70355" lon="1.63204">
        <ele>1620.971</ele>
        <time>2021-06-13T11:25:50Z</time>
      </trkpt>
      <trkpt lat="42.70353" lon="1.63204">
        <ele>1620.738</ele>
        <time>2021-06-13T11:25:52Z</time>
      </trkpt>
      <trkpt lat="42.70352" lon="1.63203">
        <ele>1621.345</ele>
        <time>2021-06-13T11:25:54Z</time>
      </trkpt>
      <trkpt lat="42.70352" lon="1.63203">
        <ele>1621.064</ele>
        <time>2021-06-13T11:25:56Z</time>
      </trkpt>
      <trkpt lat="42.70353" lon="1.63203">
        <ele>1621.074</ele>
        <time>2021-06-13T11:25:58Z</time>
      </trkpt>
      <trkpt lat="42.70353" lon="1.63203">
        <ele>1621.08</ele>
        <time>2021-06-13T11:26:00Z</time>
      </trkpt>
      <trkpt lat="42.70353" lon="1.63203">
        <ele>1621.071</ele>
        <time>2021-06-13T11:26:02Z</time>
      </trkpt>
      <trkpt lat="42.70353" lon="1.63203">
        <ele>1621.047</ele>
        <time>2021-06-13T11:26:04Z</time>
      </trkpt>
      <trkpt lat="42.70353" lon="1.63203">
        <ele>1621.032</ele>
        <time>2021-06-13T11:26:06Z</time>
      </trkpt>
      <trkpt lat="42.70353" lon="1.63203">
        <ele>1621.033</ele>
        <time>2021-06-13T11:26:08Z</time>
      </trkpt>
      <trkpt lat="42.70353" lon="1.63203">
        <ele>1621.015</ele>
        <time>2021-06-13T11:26:10Z</time>
      </trkpt>
      <trkpt lat="42.70353" lon="1.63203">
        <ele>1621.015</ele>
        <time>2021-06-13T11:26:12Z</time>
      </trkpt>
      <trkpt lat="42.70353" lon="1.63203">
        <ele>1620.995</ele>
        <time>2021-06-13T11:26:14Z</time>
      </trkpt>
      <trkpt lat="42.70353" lon="1.63202">
        <ele>1620.723</ele>
        <time>2021-06-13T11:26:16Z</time>
      </trkpt>
      <trkpt lat="42.70353" lon="1.63202">
        <ele>1620.716</ele>
        <time>2021-06-13T11:26:18Z</time>
      </trkpt>
      <trkpt lat="42.70353" lon="1.63202">
        <ele>1620.728</ele>
        <time>2021-06-13T11:26:20Z</time>
      </trkpt>
      <trkpt lat="42.70353" lon="1.63202">
        <ele>1620.724</ele>
        <time>2021-06-13T11:26:22Z</time>
      </trkpt>
      <trkpt lat="42.70353" lon="1.63202">
        <ele>1620.724</ele>
        <time>2021-06-13T11:26:24Z</time>
      </trkpt>
      <trkpt lat="42.70353" lon="1.63202">
        <ele>1620.732</ele>
        <time>2021-06-13T11:26:26Z</time>
      </trkpt>
      <trkpt lat="42.70353" lon="1.63202">
        <ele>1620.735</ele>
        <time>2021-06-13T11:26:28Z</time>
      </trkpt>
      <trkpt lat="42.70353" lon="1.63203">
        <ele>1620.525</ele>
        <time>2021-06-13T11:26:30Z</time>
      </trkpt>
      <trkpt lat="42.70353" lon="1.63203">
        <ele>1620.518</ele>
        <time>2021-06-13T11:26:32Z</time>
      </trkpt>
      <trkpt lat="42.70353" lon="1.63203">
        <ele>1620.517</ele>
        <time>2021-06-13T11:26:34Z</time>
      </trkpt>
      <trkpt lat="42.70353" lon="1.63203">
        <ele>1620.511</ele>
        <time>2021-06-13T11:26:36Z</time>
      </trkpt>
      <trkpt lat="42.70353" lon="1.63203">
        <ele>1620.507</ele>
        <time>2021-06-13T11:26:38Z</time>
      </trkpt>
      <trkpt lat="42.70353" lon="1.63203">
        <ele>1620.512</ele>
        <time>2021-06-13T11:26:40Z</time>
      </trkpt>
      <trkpt lat="42.70353" lon="1.63203">
        <ele>1620.514</ele>
        <time>2021-06-13T11:26:42Z</time>
      </trkpt>
      <trkpt lat="42.70353" lon="1.63203">
        <ele>1620.508</ele>
        <time>2021-06-13T11:26:44Z</time>
      </trkpt>
      <trkpt lat="42.70353" lon="1.63203">
        <ele>1620.497</ele>
        <time>2021-06-13T11:26:46Z</time>
      </trkpt>
      <trkpt lat="42.70353" lon="1.63203">
        <ele>1620.49</ele>
        <time>2021-06-13T11:26:48Z</time>
      </trkpt>
      <trkpt lat="42.70353" lon="1.63203">
        <ele>1620.493</ele>
        <time>2021-06-13T11:26:50Z</time>
      </trkpt>
      <trkpt lat="42.70353" lon="1.63203">
        <ele>1620.486</ele>
        <time>2021-06-13T11:26:52Z</time>
      </trkpt>
      <trkpt lat="42.70353" lon="1.63203">
        <ele>1620.486</ele>
        <time>2021-06-13T11:26:54Z</time>
      </trkpt>
      <trkpt lat="42.70353" lon="1.63203">
        <ele>1620.485</ele>
        <time>2021-06-13T11:26:56Z</time>
      </trkpt>
      <trkpt lat="42.70353" lon="1.63203">
        <ele>1620.481</ele>
        <time>2021-06-13T11:26:58Z</time>
      </trkpt>
      <trkpt lat="42.70353" lon="1.63203">
        <ele>1620.475</ele>
        <time>2021-06-13T11:27:00Z</time>
      </trkpt>
      <trkpt lat="42.70353" lon="1.63203">
        <ele>1620.461</ele>
        <time>2021-06-13T11:27:02Z</time>
      </trkpt>
      <trkpt lat="42.70353" lon="1.63203">
        <ele>1620.46</ele>
        <time>2021-06-13T11:27:04Z</time>
      </trkpt>
      <trkpt lat="42.70353" lon="1.63203">
        <ele>1620.464</ele>
        <time>2021-06-13T11:27:06Z</time>
      </trkpt>
      <trkpt lat="42.70353" lon="1.63203">
        <ele>1620.466</ele>
        <time>2021-06-13T11:27:08Z</time>
      </trkpt>
      <trkpt lat="42.70353" lon="1.63203">
        <ele>1620.466</ele>
        <time>2021-06-13T11:27:10Z</time>
      </trkpt>
      <trkpt lat="42.70353" lon="1.63203">
        <ele>1620.462</ele>
        <time>2021-06-13T11:27:12Z</time>
      </trkpt>
      <trkpt lat="42.70353" lon="1.63203">
        <ele>1620.46</ele>
        <time>2021-06-13T11:27:14Z</time>
      </trkpt>
      <trkpt lat="42.70353" lon="1.63203">
        <ele>1620.457</ele>
        <time>2021-06-13T11:27:16Z</time>
      </trkpt>
      <trkpt lat="42.70353" lon="1.63203">
        <ele>1620.466</ele>
        <time>2021-06-13T11:27:18Z</time>
      </trkpt>
      <trkpt lat="42.70353" lon="1.63203">
        <ele>1620.351</ele>
        <time>2021-06-13T11:27:20Z</time>
      </trkpt>
      <trkpt lat="42.70356" lon="1.63202">
        <ele>1619.471</ele>
        <time>2021-06-13T11:27:22Z</time>
      </trkpt>
      <trkpt lat="42.70357" lon="1.63204">
        <ele>1620.165</ele>
        <time>2021-06-13T11:27:24Z</time>
      </trkpt>
      <trkpt lat="42.70356" lon="1.63208">
        <ele>1619.409</ele>
        <time>2021-06-13T11:27:26Z</time>
      </trkpt>
      <trkpt lat="42.70355" lon="1.63211">
        <ele>1619.844</ele>
        <time>2021-06-13T11:27:28Z</time>
      </trkpt>
      <trkpt lat="42.70355" lon="1.63214">
        <ele>1620.081</ele>
        <time>2021-06-13T11:27:30Z</time>
      </trkpt>
      <trkpt lat="42.70354" lon="1.63216">
        <ele>1619.938</ele>
        <time>2021-06-13T11:27:32Z</time>
      </trkpt>
      <trkpt lat="42.70352" lon="1.63218">
        <ele>1620.127</ele>
        <time>2021-06-13T11:27:34Z</time>
      </trkpt>
      <trkpt lat="42.70351" lon="1.6322">
        <ele>1620.133</ele>
        <time>2021-06-13T11:27:36Z</time>
      </trkpt>
      <trkpt lat="42.7035" lon="1.63223">
        <ele>1620.599</ele>
        <time>2021-06-13T11:27:38Z</time>
      </trkpt>
      <trkpt lat="42.70349" lon="1.63225">
        <ele>1621.006</ele>
        <time>2021-06-13T11:27:40Z</time>
      </trkpt>
      <trkpt lat="42.70349" lon="1.63228">
        <ele>1620.771</ele>
        <time>2021-06-13T11:27:42Z</time>
      </trkpt>
      <trkpt lat="42.70348" lon="1.6323">
        <ele>1620.474</ele>
        <time>2021-06-13T11:27:44Z</time>
      </trkpt>
      <trkpt lat="42.70348" lon="1.63233">
        <ele>1620.811</ele>
        <time>2021-06-13T11:27:46Z</time>
      </trkpt>
      <trkpt lat="42.70347" lon="1.63235">
        <ele>1620.321</ele>
        <time>2021-06-13T11:27:48Z</time>
      </trkpt>
      <trkpt lat="42.70346" lon="1.63238">
        <ele>1620.649</ele>
        <time>2021-06-13T11:27:50Z</time>
      </trkpt>
      <trkpt lat="42.70344" lon="1.6324">
        <ele>1620.599</ele>
        <time>2021-06-13T11:27:52Z</time>
      </trkpt>
      <trkpt lat="42.70343" lon="1.63243">
        <ele>1621.761</ele>
        <time>2021-06-13T11:27:54Z</time>
      </trkpt>
      <trkpt lat="42.70342" lon="1.63247">
        <ele>1622.833</ele>
        <time>2021-06-13T11:27:56Z</time>
      </trkpt>
      <trkpt lat="42.70342" lon="1.6325">
        <ele>1623.288</ele>
        <time>2021-06-13T11:27:58Z</time>
      </trkpt>
      <trkpt lat="42.70342" lon="1.63252">
        <ele>1623.668</ele>
        <time>2021-06-13T11:28:00Z</time>
      </trkpt>
      <trkpt lat="42.70342" lon="1.63255">
        <ele>1623.819</ele>
        <time>2021-06-13T11:28:02Z</time>
      </trkpt>
      <trkpt lat="42.70342" lon="1.63257">
        <ele>1623.862</ele>
        <time>2021-06-13T11:28:04Z</time>
      </trkpt>
      <trkpt lat="42.70341" lon="1.6326">
        <ele>1623.838</ele>
        <time>2021-06-13T11:28:06Z</time>
      </trkpt>
      <trkpt lat="42.7034" lon="1.63261">
        <ele>1624.834</ele>
        <time>2021-06-13T11:28:08Z</time>
      </trkpt>
      <trkpt lat="42.70339" lon="1.63262">
        <ele>1626.393</ele>
        <time>2021-06-13T11:28:10Z</time>
      </trkpt>
      <trkpt lat="42.70339" lon="1.63263">
        <ele>1625.793</ele>
        <time>2021-06-13T11:28:12Z</time>
      </trkpt>
      <trkpt lat="42.70339" lon="1.63263">
        <ele>1626.266</ele>
        <time>2021-06-13T11:28:14Z</time>
      </trkpt>
      <trkpt lat="42.70337" lon="1.63263">
        <ele>1625.603</ele>
        <time>2021-06-13T11:28:16Z</time>
      </trkpt>
      <trkpt lat="42.70336" lon="1.63264">
        <ele>1625.854</ele>
        <time>2021-06-13T11:28:18Z</time>
      </trkpt>
      <trkpt lat="42.70334" lon="1.63264">
        <ele>1625.321</ele>
        <time>2021-06-13T11:28:20Z</time>
      </trkpt>
      <trkpt lat="42.70334" lon="1.63267">
        <ele>1625.534</ele>
        <time>2021-06-13T11:28:22Z</time>
      </trkpt>
      <trkpt lat="42.70334" lon="1.63269">
        <ele>1625.533</ele>
        <time>2021-06-13T11:28:24Z</time>
      </trkpt>
      <trkpt lat="42.70334" lon="1.63272">
        <ele>1625.591</ele>
        <time>2021-06-13T11:28:26Z</time>
      </trkpt>
      <trkpt lat="42.70334" lon="1.63275">
        <ele>1625.324</ele>
        <time>2021-06-13T11:28:28Z</time>
      </trkpt>
      <trkpt lat="42.70334" lon="1.63277">
        <ele>1624.623</ele>
        <time>2021-06-13T11:28:30Z</time>
      </trkpt>
      <trkpt lat="42.70335" lon="1.63279">
        <ele>1624.22</ele>
        <time>2021-06-13T11:28:32Z</time>
      </trkpt>
      <trkpt lat="42.70335" lon="1.63282">
        <ele>1623.089</ele>
        <time>2021-06-13T11:28:34Z</time>
      </trkpt>
      <trkpt lat="42.70336" lon="1.63285">
        <ele>1623.099</ele>
        <time>2021-06-13T11:28:36Z</time>
      </trkpt>
      <trkpt lat="42.70337" lon="1.63289">
        <ele>1622.789</ele>
        <time>2021-06-13T11:28:38Z</time>
      </trkpt>
      <trkpt lat="42.70338" lon="1.63291">
        <ele>1622.362</ele>
        <time>2021-06-13T11:28:40Z</time>
      </trkpt>
      <trkpt lat="42.70338" lon="1.63294">
        <ele>1621.24</ele>
        <time>2021-06-13T11:28:42Z</time>
      </trkpt>
      <trkpt lat="42.70338" lon="1.63297">
        <ele>1621.305</ele>
        <time>2021-06-13T11:28:44Z</time>
      </trkpt>
      <trkpt lat="42.70339" lon="1.633">
        <ele>1621.027</ele>
        <time>2021-06-13T11:28:46Z</time>
      </trkpt>
      <trkpt lat="42.70339" lon="1.63302">
        <ele>1620.723</ele>
        <time>2021-06-13T11:28:48Z</time>
      </trkpt>
      <trkpt lat="42.70339" lon="1.63305">
        <ele>1620.865</ele>
        <time>2021-06-13T11:28:50Z</time>
      </trkpt>
      <trkpt lat="42.70339" lon="1.63307">
        <ele>1620.898</ele>
        <time>2021-06-13T11:28:52Z</time>
      </trkpt>
      <trkpt lat="42.70339" lon="1.6331">
        <ele>1619.89</ele>
        <time>2021-06-13T11:28:54Z</time>
      </trkpt>
      <trkpt lat="42.7034" lon="1.63313">
        <ele>1619.345</ele>
        <time>2021-06-13T11:28:56Z</time>
      </trkpt>
      <trkpt lat="42.70341" lon="1.63315">
        <ele>1618.956</ele>
        <time>2021-06-13T11:28:58Z</time>
      </trkpt>
      <trkpt lat="42.70341" lon="1.63318">
        <ele>1618.89</ele>
        <time>2021-06-13T11:29:00Z</time>
      </trkpt>
      <trkpt lat="42.70341" lon="1.6332">
        <ele>1617.807</ele>
        <time>2021-06-13T11:29:02Z</time>
      </trkpt>
      <trkpt lat="42.70341" lon="1.63323">
        <ele>1617.433</ele>
        <time>2021-06-13T11:29:04Z</time>
      </trkpt>
      <trkpt lat="42.70341" lon="1.63325">
        <ele>1616.926</ele>
        <time>2021-06-13T11:29:06Z</time>
      </trkpt>
      <trkpt lat="42.7034" lon="1.63328">
        <ele>1616.623</ele>
        <time>2021-06-13T11:29:08Z</time>
      </trkpt>
      <trkpt lat="42.70339" lon="1.63331">
        <ele>1616.14</ele>
        <time>2021-06-13T11:29:10Z</time>
      </trkpt>
      <trkpt lat="42.70338" lon="1.63333">
        <ele>1615.7</ele>
        <time>2021-06-13T11:29:12Z</time>
      </trkpt>
      <trkpt lat="42.70338" lon="1.63336">
        <ele>1614.886</ele>
        <time>2021-06-13T11:29:14Z</time>
      </trkpt>
      <trkpt lat="42.70338" lon="1.63339">
        <ele>1615.005</ele>
        <time>2021-06-13T11:29:16Z</time>
      </trkpt>
      <trkpt lat="42.70337" lon="1.63341">
        <ele>1614.442</ele>
        <time>2021-06-13T11:29:18Z</time>
      </trkpt>
      <trkpt lat="42.70338" lon="1.63344">
        <ele>1613.854</ele>
        <time>2021-06-13T11:29:20Z</time>
      </trkpt>
      <trkpt lat="42.70338" lon="1.63347">
        <ele>1613.631</ele>
        <time>2021-06-13T11:29:22Z</time>
      </trkpt>
      <trkpt lat="42.70338" lon="1.6335">
        <ele>1613.255</ele>
        <time>2021-06-13T11:29:24Z</time>
      </trkpt>
      <trkpt lat="42.70338" lon="1.63352">
        <ele>1613.274</ele>
        <time>2021-06-13T11:29:26Z</time>
      </trkpt>
      <trkpt lat="42.70338" lon="1.63354">
        <ele>1613.033</ele>
        <time>2021-06-13T11:29:28Z</time>
      </trkpt>
      <trkpt lat="42.70338" lon="1.63357">
        <ele>1612.535</ele>
        <time>2021-06-13T11:29:30Z</time>
      </trkpt>
      <trkpt lat="42.70338" lon="1.63359">
        <ele>1612.216</ele>
        <time>2021-06-13T11:29:32Z</time>
      </trkpt>
      <trkpt lat="42.70337" lon="1.63361">
        <ele>1612.368</ele>
        <time>2021-06-13T11:29:34Z</time>
      </trkpt>
      <trkpt lat="42.70336" lon="1.63363">
        <ele>1612.229</ele>
        <time>2021-06-13T11:29:36Z</time>
      </trkpt>
      <trkpt lat="42.70336" lon="1.63366">
        <ele>1611.847</ele>
        <time>2021-06-13T11:29:38Z</time>
      </trkpt>
      <trkpt lat="42.70336" lon="1.63368">
        <ele>1612.118</ele>
        <time>2021-06-13T11:29:40Z</time>
      </trkpt>
      <trkpt lat="42.70335" lon="1.6337">
        <ele>1611.305</ele>
        <time>2021-06-13T11:29:42Z</time>
      </trkpt>
      <trkpt lat="42.70335" lon="1.63372">
        <ele>1610.135</ele>
        <time>2021-06-13T11:29:44Z</time>
      </trkpt>
      <trkpt lat="42.70334" lon="1.63374">
        <ele>1609.647</ele>
        <time>2021-06-13T11:29:46Z</time>
      </trkpt>
      <trkpt lat="42.70334" lon="1.63376">
        <ele>1608.456</ele>
        <time>2021-06-13T11:29:48Z</time>
      </trkpt>
      <trkpt lat="42.70332" lon="1.63379">
        <ele>1608.355</ele>
        <time>2021-06-13T11:29:50Z</time>
      </trkpt>
      <trkpt lat="42.70332" lon="1.63381">
        <ele>1608.412</ele>
        <time>2021-06-13T11:29:52Z</time>
      </trkpt>
      <trkpt lat="42.7033" lon="1.63382">
        <ele>1608.402</ele>
        <time>2021-06-13T11:29:54Z</time>
      </trkpt>
      <trkpt lat="42.70328" lon="1.63384">
        <ele>1608.761</ele>
        <time>2021-06-13T11:29:56Z</time>
      </trkpt>
      <trkpt lat="42.70327" lon="1.63386">
        <ele>1607.949</ele>
        <time>2021-06-13T11:29:58Z</time>
      </trkpt>
      <trkpt lat="42.70327" lon="1.63388">
        <ele>1607.062</ele>
        <time>2021-06-13T11:30:00Z</time>
      </trkpt>
      <trkpt lat="42.70326" lon="1.63391">
        <ele>1606.39</ele>
        <time>2021-06-13T11:30:02Z</time>
      </trkpt>
      <trkpt lat="42.70326" lon="1.63393">
        <ele>1606.441</ele>
        <time>2021-06-13T11:30:04Z</time>
      </trkpt>
      <trkpt lat="42.70325" lon="1.63395">
        <ele>1606.551</ele>
        <time>2021-06-13T11:30:06Z</time>
      </trkpt>
      <trkpt lat="42.70324" lon="1.63396">
        <ele>1605.997</ele>
        <time>2021-06-13T11:30:08Z</time>
      </trkpt>
      <trkpt lat="42.70322" lon="1.63397">
        <ele>1605.936</ele>
        <time>2021-06-13T11:30:10Z</time>
      </trkpt>
      <trkpt lat="42.70319" lon="1.63399">
        <ele>1606.189</ele>
        <time>2021-06-13T11:30:12Z</time>
      </trkpt>
      <trkpt lat="42.70316" lon="1.63401">
        <ele>1606.578</ele>
        <time>2021-06-13T11:30:14Z</time>
      </trkpt>
      <trkpt lat="42.70313" lon="1.63402">
        <ele>1605.748</ele>
        <time>2021-06-13T11:30:16Z</time>
      </trkpt>
      <trkpt lat="42.70311" lon="1.63404">
        <ele>1605.337</ele>
        <time>2021-06-13T11:30:18Z</time>
      </trkpt>
      <trkpt lat="42.70309" lon="1.63405">
        <ele>1605.108</ele>
        <time>2021-06-13T11:30:20Z</time>
      </trkpt>
      <trkpt lat="42.70307" lon="1.63405">
        <ele>1604.77</ele>
        <time>2021-06-13T11:30:22Z</time>
      </trkpt>
      <trkpt lat="42.70305" lon="1.63406">
        <ele>1606.071</ele>
        <time>2021-06-13T11:30:24Z</time>
      </trkpt>
      <trkpt lat="42.70304" lon="1.63408">
        <ele>1605.593</ele>
        <time>2021-06-13T11:30:26Z</time>
      </trkpt>
      <trkpt lat="42.70303" lon="1.6341">
        <ele>1606.272</ele>
        <time>2021-06-13T11:30:28Z</time>
      </trkpt>
      <trkpt lat="42.70303" lon="1.63413">
        <ele>1606.307</ele>
        <time>2021-06-13T11:30:30Z</time>
      </trkpt>
      <trkpt lat="42.70303" lon="1.63415">
        <ele>1606.324</ele>
        <time>2021-06-13T11:30:32Z</time>
      </trkpt>
      <trkpt lat="42.70302" lon="1.63418">
        <ele>1605.873</ele>
        <time>2021-06-13T11:30:34Z</time>
      </trkpt>
      <trkpt lat="42.70302" lon="1.6342">
        <ele>1604.766</ele>
        <time>2021-06-13T11:30:36Z</time>
      </trkpt>
      <trkpt lat="42.70301" lon="1.63422">
        <ele>1604.841</ele>
        <time>2021-06-13T11:30:38Z</time>
      </trkpt>
      <trkpt lat="42.703" lon="1.63425">
        <ele>1604.717</ele>
        <time>2021-06-13T11:30:40Z</time>
      </trkpt>
      <trkpt lat="42.70299" lon="1.63427">
        <ele>1605.079</ele>
        <time>2021-06-13T11:30:42Z</time>
      </trkpt>
      <trkpt lat="42.70298" lon="1.63429">
        <ele>1604.904</ele>
        <time>2021-06-13T11:30:44Z</time>
      </trkpt>
      <trkpt lat="42.70296" lon="1.6343">
        <ele>1605.027</ele>
        <time>2021-06-13T11:30:46Z</time>
      </trkpt>
      <trkpt lat="42.70296" lon="1.63433">
        <ele>1605.574</ele>
        <time>2021-06-13T11:30:48Z</time>
      </trkpt>
      <trkpt lat="42.70295" lon="1.63435">
        <ele>1606.29</ele>
        <time>2021-06-13T11:30:50Z</time>
      </trkpt>
      <trkpt lat="42.70295" lon="1.63437">
        <ele>1606.929</ele>
        <time>2021-06-13T11:30:52Z</time>
      </trkpt>
      <trkpt lat="42.70294" lon="1.63439">
        <ele>1607.678</ele>
        <time>2021-06-13T11:30:54Z</time>
      </trkpt>
      <trkpt lat="42.70294" lon="1.63441">
        <ele>1608.293</ele>
        <time>2021-06-13T11:30:56Z</time>
      </trkpt>
      <trkpt lat="42.70293" lon="1.63443">
        <ele>1608.27</ele>
        <time>2021-06-13T11:30:58Z</time>
      </trkpt>
      <trkpt lat="42.70293" lon="1.63445">
        <ele>1608.469</ele>
        <time>2021-06-13T11:31:00Z</time>
      </trkpt>
      <trkpt lat="42.70293" lon="1.63447">
        <ele>1607.599</ele>
        <time>2021-06-13T11:31:02Z</time>
      </trkpt>
      <trkpt lat="42.70293" lon="1.63449">
        <ele>1607.04</ele>
        <time>2021-06-13T11:31:04Z</time>
      </trkpt>
      <trkpt lat="42.70293" lon="1.63451">
        <ele>1607.229</ele>
        <time>2021-06-13T11:31:06Z</time>
      </trkpt>
      <trkpt lat="42.70294" lon="1.63453">
        <ele>1607.239</ele>
        <time>2021-06-13T11:31:08Z</time>
      </trkpt>
      <trkpt lat="42.70294" lon="1.63457">
        <ele>1607.864</ele>
        <time>2021-06-13T11:31:11Z</time>
      </trkpt>
      <trkpt lat="42.70294" lon="1.63459">
        <ele>1607.419</ele>
        <time>2021-06-13T11:31:13Z</time>
      </trkpt>
      <trkpt lat="42.70294" lon="1.63462">
        <ele>1607.004</ele>
        <time>2021-06-13T11:31:15Z</time>
      </trkpt>
      <trkpt lat="42.70295" lon="1.63464">
        <ele>1606.217</ele>
        <time>2021-06-13T11:31:17Z</time>
      </trkpt>
      <trkpt lat="42.70295" lon="1.63466">
        <ele>1606.136</ele>
        <time>2021-06-13T11:31:19Z</time>
      </trkpt>
      <trkpt lat="42.70294" lon="1.63469">
        <ele>1605.984</ele>
        <time>2021-06-13T11:31:21Z</time>
      </trkpt>
      <trkpt lat="42.70295" lon="1.63472">
        <ele>1605.654</ele>
        <time>2021-06-13T11:31:23Z</time>
      </trkpt>
      <trkpt lat="42.70295" lon="1.63474">
        <ele>1604.952</ele>
        <time>2021-06-13T11:31:25Z</time>
      </trkpt>
      <trkpt lat="42.70295" lon="1.63477">
        <ele>1604.776</ele>
        <time>2021-06-13T11:31:27Z</time>
      </trkpt>
      <trkpt lat="42.70296" lon="1.63481">
        <ele>1605.243</ele>
        <time>2021-06-13T11:31:29Z</time>
      </trkpt>
      <trkpt lat="42.70296" lon="1.63484">
        <ele>1604.851</ele>
        <time>2021-06-13T11:31:31Z</time>
      </trkpt>
      <trkpt lat="42.70296" lon="1.63486">
        <ele>1604.632</ele>
        <time>2021-06-13T11:31:33Z</time>
      </trkpt>
      <trkpt lat="42.70296" lon="1.63489">
        <ele>1604.895</ele>
        <time>2021-06-13T11:31:35Z</time>
      </trkpt>
      <trkpt lat="42.70296" lon="1.63491">
        <ele>1604.506</ele>
        <time>2021-06-13T11:31:37Z</time>
      </trkpt>
      <trkpt lat="42.70296" lon="1.63494">
        <ele>1603.923</ele>
        <time>2021-06-13T11:31:39Z</time>
      </trkpt>
      <trkpt lat="42.70296" lon="1.63497">
        <ele>1603.974</ele>
        <time>2021-06-13T11:31:41Z</time>
      </trkpt>
      <trkpt lat="42.70297" lon="1.635">
        <ele>1603.481</ele>
        <time>2021-06-13T11:31:43Z</time>
      </trkpt>
      <trkpt lat="42.70297" lon="1.63502">
        <ele>1603.272</ele>
        <time>2021-06-13T11:31:45Z</time>
      </trkpt>
      <trkpt lat="42.70296" lon="1.63506">
        <ele>1603.224</ele>
        <time>2021-06-13T11:31:47Z</time>
      </trkpt>
      <trkpt lat="42.70297" lon="1.63509">
        <ele>1603.155</ele>
        <time>2021-06-13T11:31:49Z</time>
      </trkpt>
      <trkpt lat="42.70297" lon="1.63511">
        <ele>1602.646</ele>
        <time>2021-06-13T11:31:51Z</time>
      </trkpt>
      <trkpt lat="42.70297" lon="1.63514">
        <ele>1602.402</ele>
        <time>2021-06-13T11:31:53Z</time>
      </trkpt>
      <trkpt lat="42.70297" lon="1.63517">
        <ele>1601.922</ele>
        <time>2021-06-13T11:31:55Z</time>
      </trkpt>
      <trkpt lat="42.70298" lon="1.63519">
        <ele>1601.959</ele>
        <time>2021-06-13T11:31:57Z</time>
      </trkpt>
      <trkpt lat="42.70297" lon="1.63522">
        <ele>1602.109</ele>
        <time>2021-06-13T11:31:59Z</time>
      </trkpt>
      <trkpt lat="42.70297" lon="1.63523">
        <ele>1601.892</ele>
        <time>2021-06-13T11:32:01Z</time>
      </trkpt>
      <trkpt lat="42.70298" lon="1.63525">
        <ele>1602.793</ele>
        <time>2021-06-13T11:32:03Z</time>
      </trkpt>
      <trkpt lat="42.70298" lon="1.63525">
        <ele>1602.793</ele>
        <time>2021-06-13T11:32:05Z</time>
      </trkpt>
      <trkpt lat="42.70298" lon="1.63525">
        <ele>1602.788</ele>
        <time>2021-06-13T11:32:07Z</time>
      </trkpt>
      <trkpt lat="42.70298" lon="1.63525">
        <ele>1602.784</ele>
        <time>2021-06-13T11:32:09Z</time>
      </trkpt>
      <trkpt lat="42.70298" lon="1.63525">
        <ele>1602.787</ele>
        <time>2021-06-13T11:32:11Z</time>
      </trkpt>
      <trkpt lat="42.70298" lon="1.63525">
        <ele>1602.79</ele>
        <time>2021-06-13T11:32:13Z</time>
      </trkpt>
      <trkpt lat="42.70298" lon="1.63525">
        <ele>1602.794</ele>
        <time>2021-06-13T11:32:15Z</time>
      </trkpt>
      <trkpt lat="42.70298" lon="1.63525">
        <ele>1602.794</ele>
        <time>2021-06-13T11:32:17Z</time>
      </trkpt>
      <trkpt lat="42.70298" lon="1.63525">
        <ele>1602.797</ele>
        <time>2021-06-13T11:32:19Z</time>
      </trkpt>
      <trkpt lat="42.70298" lon="1.63525">
        <ele>1602.797</ele>
        <time>2021-06-13T11:32:21Z</time>
      </trkpt>
      <trkpt lat="42.70298" lon="1.63525">
        <ele>1602.798</ele>
        <time>2021-06-13T11:32:23Z</time>
      </trkpt>
      <trkpt lat="42.70298" lon="1.63525">
        <ele>1602.812</ele>
        <time>2021-06-13T11:32:25Z</time>
      </trkpt>
      <trkpt lat="42.70298" lon="1.63525">
        <ele>1602.822</ele>
        <time>2021-06-13T11:32:27Z</time>
      </trkpt>
      <trkpt lat="42.70298" lon="1.63525">
        <ele>1602.838</ele>
        <time>2021-06-13T11:32:29Z</time>
      </trkpt>
      <trkpt lat="42.70298" lon="1.63525">
        <ele>1602.971</ele>
        <time>2021-06-13T11:32:31Z</time>
      </trkpt>
      <trkpt lat="42.70298" lon="1.63525">
        <ele>1603.332</ele>
        <time>2021-06-13T11:32:33Z</time>
      </trkpt>
      <trkpt lat="42.70298" lon="1.63525">
        <ele>1603.345</ele>
        <time>2021-06-13T11:32:35Z</time>
      </trkpt>
      <trkpt lat="42.70298" lon="1.63525">
        <ele>1603.358</ele>
        <time>2021-06-13T11:32:37Z</time>
      </trkpt>
      <trkpt lat="42.70298" lon="1.63525">
        <ele>1603.371</ele>
        <time>2021-06-13T11:32:39Z</time>
      </trkpt>
      <trkpt lat="42.70298" lon="1.63525">
        <ele>1603.378</ele>
        <time>2021-06-13T11:32:41Z</time>
      </trkpt>
      <trkpt lat="42.70298" lon="1.63525">
        <ele>1603.378</ele>
        <time>2021-06-13T11:32:43Z</time>
      </trkpt>
      <trkpt lat="42.70298" lon="1.63525">
        <ele>1603.385</ele>
        <time>2021-06-13T11:32:45Z</time>
      </trkpt>
      <trkpt lat="42.70298" lon="1.63525">
        <ele>1603.393</ele>
        <time>2021-06-13T11:32:47Z</time>
      </trkpt>
      <trkpt lat="42.70298" lon="1.63525">
        <ele>1603.402</ele>
        <time>2021-06-13T11:32:49Z</time>
      </trkpt>
      <trkpt lat="42.70298" lon="1.63525">
        <ele>1603.419</ele>
        <time>2021-06-13T11:32:51Z</time>
      </trkpt>
      <trkpt lat="42.70298" lon="1.63525">
        <ele>1603.425</ele>
        <time>2021-06-13T11:32:53Z</time>
      </trkpt>
      <trkpt lat="42.70298" lon="1.63525">
        <ele>1603.419</ele>
        <time>2021-06-13T11:32:55Z</time>
      </trkpt>
      <trkpt lat="42.70297" lon="1.63525">
        <ele>1603.295</ele>
        <time>2021-06-13T11:32:57Z</time>
      </trkpt>
      <trkpt lat="42.70298" lon="1.63529">
        <ele>1604.671</ele>
        <time>2021-06-13T11:32:59Z</time>
      </trkpt>
      <trkpt lat="42.70299" lon="1.63532">
        <ele>1604.85</ele>
        <time>2021-06-13T11:33:01Z</time>
      </trkpt>
      <trkpt lat="42.70298" lon="1.63535">
        <ele>1604.957</ele>
        <time>2021-06-13T11:33:03Z</time>
      </trkpt>
      <trkpt lat="42.70297" lon="1.63537">
        <ele>1604.557</ele>
        <time>2021-06-13T11:33:05Z</time>
      </trkpt>
      <trkpt lat="42.70296" lon="1.6354">
        <ele>1604.505</ele>
        <time>2021-06-13T11:33:07Z</time>
      </trkpt>
      <trkpt lat="42.70296" lon="1.63542">
        <ele>1603.724</ele>
        <time>2021-06-13T11:33:09Z</time>
      </trkpt>
      <trkpt lat="42.70296" lon="1.63545">
        <ele>1603.213</ele>
        <time>2021-06-13T11:33:11Z</time>
      </trkpt>
      <trkpt lat="42.70296" lon="1.63547">
        <ele>1603.033</ele>
        <time>2021-06-13T11:33:13Z</time>
      </trkpt>
      <trkpt lat="42.70296" lon="1.6355">
        <ele>1602.85</ele>
        <time>2021-06-13T11:33:15Z</time>
      </trkpt>
      <trkpt lat="42.70296" lon="1.63553">
        <ele>1601.82</ele>
        <time>2021-06-13T11:33:17Z</time>
      </trkpt>
      <trkpt lat="42.70297" lon="1.63556">
        <ele>1601.781</ele>
        <time>2021-06-13T11:33:19Z</time>
      </trkpt>
      <trkpt lat="42.70297" lon="1.63559">
        <ele>1602.299</ele>
        <time>2021-06-13T11:33:21Z</time>
      </trkpt>
      <trkpt lat="42.70297" lon="1.63562">
        <ele>1601.698</ele>
        <time>2021-06-13T11:33:23Z</time>
      </trkpt>
      <trkpt lat="42.70297" lon="1.63564">
        <ele>1601.82</ele>
        <time>2021-06-13T11:33:25Z</time>
      </trkpt>
      <trkpt lat="42.70296" lon="1.63567">
        <ele>1601.988</ele>
        <time>2021-06-13T11:33:27Z</time>
      </trkpt>
      <trkpt lat="42.70296" lon="1.6357">
        <ele>1601.911</ele>
        <time>2021-06-13T11:33:29Z</time>
      </trkpt>
      <trkpt lat="42.70295" lon="1.63573">
        <ele>1601.424</ele>
        <time>2021-06-13T11:33:31Z</time>
      </trkpt>
      <trkpt lat="42.70295" lon="1.63576">
        <ele>1601.183</ele>
        <time>2021-06-13T11:33:33Z</time>
      </trkpt>
      <trkpt lat="42.70295" lon="1.6358">
        <ele>1600.958</ele>
        <time>2021-06-13T11:33:35Z</time>
      </trkpt>
      <trkpt lat="42.70295" lon="1.63583">
        <ele>1600.36</ele>
        <time>2021-06-13T11:33:37Z</time>
      </trkpt>
      <trkpt lat="42.70295" lon="1.63585">
        <ele>1600.245</ele>
        <time>2021-06-13T11:33:39Z</time>
      </trkpt>
      <trkpt lat="42.70294" lon="1.63588">
        <ele>1600.342</ele>
        <time>2021-06-13T11:33:41Z</time>
      </trkpt>
      <trkpt lat="42.70294" lon="1.63592">
        <ele>1600.446</ele>
        <time>2021-06-13T11:33:43Z</time>
      </trkpt>
      <trkpt lat="42.70293" lon="1.63594">
        <ele>1600.581</ele>
        <time>2021-06-13T11:33:45Z</time>
      </trkpt>
      <trkpt lat="42.70292" lon="1.63597">
        <ele>1600.457</ele>
        <time>2021-06-13T11:33:47Z</time>
      </trkpt>
      <trkpt lat="42.70292" lon="1.636">
        <ele>1600.539</ele>
        <time>2021-06-13T11:33:49Z</time>
      </trkpt>
      <trkpt lat="42.70292" lon="1.63603">
        <ele>1600.438</ele>
        <time>2021-06-13T11:33:51Z</time>
      </trkpt>
      <trkpt lat="42.70293" lon="1.63605">
        <ele>1599.869</ele>
        <time>2021-06-13T11:33:53Z</time>
      </trkpt>
      <trkpt lat="42.70294" lon="1.63608">
        <ele>1599.557</ele>
        <time>2021-06-13T11:33:55Z</time>
      </trkpt>
      <trkpt lat="42.70294" lon="1.63611">
        <ele>1599.039</ele>
        <time>2021-06-13T11:33:57Z</time>
      </trkpt>
      <trkpt lat="42.70294" lon="1.63614">
        <ele>1598.762</ele>
        <time>2021-06-13T11:33:59Z</time>
      </trkpt>
      <trkpt lat="42.70294" lon="1.63617">
        <ele>1599.195</ele>
        <time>2021-06-13T11:34:01Z</time>
      </trkpt>
      <trkpt lat="42.70294" lon="1.63621">
        <ele>1600.141</ele>
        <time>2021-06-13T11:34:03Z</time>
      </trkpt>
      <trkpt lat="42.70294" lon="1.63624">
        <ele>1599.757</ele>
        <time>2021-06-13T11:34:05Z</time>
      </trkpt>
      <trkpt lat="42.70294" lon="1.63627">
        <ele>1599.485</ele>
        <time>2021-06-13T11:34:07Z</time>
      </trkpt>
      <trkpt lat="42.70295" lon="1.6363">
        <ele>1599.119</ele>
        <time>2021-06-13T11:34:09Z</time>
      </trkpt>
      <trkpt lat="42.70296" lon="1.63632">
        <ele>1599.178</ele>
        <time>2021-06-13T11:34:11Z</time>
      </trkpt>
      <trkpt lat="42.70295" lon="1.63635">
        <ele>1598.439</ele>
        <time>2021-06-13T11:34:13Z</time>
      </trkpt>
      <trkpt lat="42.70295" lon="1.63638">
        <ele>1599.114</ele>
        <time>2021-06-13T11:34:15Z</time>
      </trkpt>
      <trkpt lat="42.70294" lon="1.63642">
        <ele>1599.212</ele>
        <time>2021-06-13T11:34:17Z</time>
      </trkpt>
      <trkpt lat="42.70293" lon="1.63645">
        <ele>1599.28</ele>
        <time>2021-06-13T11:34:19Z</time>
      </trkpt>
      <trkpt lat="42.70291" lon="1.63648">
        <ele>1599.586</ele>
        <time>2021-06-13T11:34:21Z</time>
      </trkpt>
      <trkpt lat="42.7029" lon="1.6365">
        <ele>1599.512</ele>
        <time>2021-06-13T11:34:23Z</time>
      </trkpt>
      <trkpt lat="42.70289" lon="1.63652">
        <ele>1599.754</ele>
        <time>2021-06-13T11:34:25Z</time>
      </trkpt>
      <trkpt lat="42.70288" lon="1.63654">
        <ele>1598.296</ele>
        <time>2021-06-13T11:34:27Z</time>
      </trkpt>
      <trkpt lat="42.70287" lon="1.63657">
        <ele>1597.224</ele>
        <time>2021-06-13T11:34:29Z</time>
      </trkpt>
      <trkpt lat="42.70287" lon="1.63659">
        <ele>1597.231</ele>
        <time>2021-06-13T11:34:31Z</time>
      </trkpt>
      <trkpt lat="42.70285" lon="1.63662">
        <ele>1597.625</ele>
        <time>2021-06-13T11:34:33Z</time>
      </trkpt>
      <trkpt lat="42.70284" lon="1.63664">
        <ele>1597.836</ele>
        <time>2021-06-13T11:34:35Z</time>
      </trkpt>
      <trkpt lat="42.70283" lon="1.63667">
        <ele>1597.826</ele>
        <time>2021-06-13T11:34:37Z</time>
      </trkpt>
      <trkpt lat="42.70282" lon="1.6367">
        <ele>1597.411</ele>
        <time>2021-06-13T11:34:39Z</time>
      </trkpt>
      <trkpt lat="42.70281" lon="1.63673">
        <ele>1596.772</ele>
        <time>2021-06-13T11:34:41Z</time>
      </trkpt>
      <trkpt lat="42.70279" lon="1.63675">
        <ele>1596.422</ele>
        <time>2021-06-13T11:34:43Z</time>
      </trkpt>
      <trkpt lat="42.70278" lon="1.63678">
        <ele>1595.605</ele>
        <time>2021-06-13T11:34:45Z</time>
      </trkpt>
      <trkpt lat="42.70277" lon="1.6368">
        <ele>1595.325</ele>
        <time>2021-06-13T11:34:47Z</time>
      </trkpt>
      <trkpt lat="42.70276" lon="1.63683">
        <ele>1594.314</ele>
        <time>2021-06-13T11:34:49Z</time>
      </trkpt>
      <trkpt lat="42.70275" lon="1.63686">
        <ele>1594.027</ele>
        <time>2021-06-13T11:34:51Z</time>
      </trkpt>
      <trkpt lat="42.70274" lon="1.63688">
        <ele>1593.815</ele>
        <time>2021-06-13T11:34:53Z</time>
      </trkpt>
      <trkpt lat="42.70273" lon="1.63692">
        <ele>1594.109</ele>
        <time>2021-06-13T11:34:55Z</time>
      </trkpt>
      <trkpt lat="42.70273" lon="1.63695">
        <ele>1594.027</ele>
        <time>2021-06-13T11:34:57Z</time>
      </trkpt>
      <trkpt lat="42.70272" lon="1.63698">
        <ele>1593.306</ele>
        <time>2021-06-13T11:34:59Z</time>
      </trkpt>
      <trkpt lat="42.70272" lon="1.63701">
        <ele>1593.321</ele>
        <time>2021-06-13T11:35:01Z</time>
      </trkpt>
      <trkpt lat="42.70272" lon="1.63704">
        <ele>1592.482</ele>
        <time>2021-06-13T11:35:03Z</time>
      </trkpt>
      <trkpt lat="42.70272" lon="1.63707">
        <ele>1592.115</ele>
        <time>2021-06-13T11:35:05Z</time>
      </trkpt>
      <trkpt lat="42.70272" lon="1.6371">
        <ele>1591.785</ele>
        <time>2021-06-13T11:35:07Z</time>
      </trkpt>
      <trkpt lat="42.70271" lon="1.63712">
        <ele>1591.797</ele>
        <time>2021-06-13T11:35:09Z</time>
      </trkpt>
      <trkpt lat="42.7027" lon="1.63715">
        <ele>1591.062</ele>
        <time>2021-06-13T11:35:11Z</time>
      </trkpt>
      <trkpt lat="42.70269" lon="1.63717">
        <ele>1591.307</ele>
        <time>2021-06-13T11:35:13Z</time>
      </trkpt>
      <trkpt lat="42.70268" lon="1.6372">
        <ele>1591.163</ele>
        <time>2021-06-13T11:35:15Z</time>
      </trkpt>
      <trkpt lat="42.70268" lon="1.63723">
        <ele>1590.465</ele>
        <time>2021-06-13T11:35:17Z</time>
      </trkpt>
      <trkpt lat="42.70267" lon="1.63725">
        <ele>1591.301</ele>
        <time>2021-06-13T11:35:19Z</time>
      </trkpt>
      <trkpt lat="42.70267" lon="1.63728">
        <ele>1591.8</ele>
        <time>2021-06-13T11:35:21Z</time>
      </trkpt>
      <trkpt lat="42.70267" lon="1.6373">
        <ele>1592.565</ele>
        <time>2021-06-13T11:35:23Z</time>
      </trkpt>
      <trkpt lat="42.70267" lon="1.63732">
        <ele>1592.191</ele>
        <time>2021-06-13T11:35:25Z</time>
      </trkpt>
      <trkpt lat="42.70267" lon="1.63735">
        <ele>1591.391</ele>
        <time>2021-06-13T11:35:27Z</time>
      </trkpt>
      <trkpt lat="42.70268" lon="1.63737">
        <ele>1590.362</ele>
        <time>2021-06-13T11:35:29Z</time>
      </trkpt>
      <trkpt lat="42.70268" lon="1.6374">
        <ele>1590.847</ele>
        <time>2021-06-13T11:35:31Z</time>
      </trkpt>
      <trkpt lat="42.70268" lon="1.63743">
        <ele>1589.6</ele>
        <time>2021-06-13T11:35:33Z</time>
      </trkpt>
      <trkpt lat="42.70269" lon="1.63745">
        <ele>1588.608</ele>
        <time>2021-06-13T11:35:35Z</time>
      </trkpt>
      <trkpt lat="42.70269" lon="1.63747">
        <ele>1587.916</ele>
        <time>2021-06-13T11:35:37Z</time>
      </trkpt>
      <trkpt lat="42.7027" lon="1.63749">
        <ele>1587.249</ele>
        <time>2021-06-13T11:35:39Z</time>
      </trkpt>
      <trkpt lat="42.70271" lon="1.63752">
        <ele>1588.323</ele>
        <time>2021-06-13T11:35:41Z</time>
      </trkpt>
      <trkpt lat="42.70271" lon="1.63754">
        <ele>1589.197</ele>
        <time>2021-06-13T11:35:43Z</time>
      </trkpt>
      <trkpt lat="42.70271" lon="1.63757">
        <ele>1589.725</ele>
        <time>2021-06-13T11:35:45Z</time>
      </trkpt>
      <trkpt lat="42.70272" lon="1.6376">
        <ele>1589.67</ele>
        <time>2021-06-13T11:35:47Z</time>
      </trkpt>
      <trkpt lat="42.70272" lon="1.63762">
        <ele>1589.338</ele>
        <time>2021-06-13T11:35:49Z</time>
      </trkpt>
      <trkpt lat="42.70273" lon="1.63764">
        <ele>1589.236</ele>
        <time>2021-06-13T11:35:51Z</time>
      </trkpt>
      <trkpt lat="42.70273" lon="1.63766">
        <ele>1589.084</ele>
        <time>2021-06-13T11:35:53Z</time>
      </trkpt>
      <trkpt lat="42.70274" lon="1.63768">
        <ele>1587.854</ele>
        <time>2021-06-13T11:35:55Z</time>
      </trkpt>
      <trkpt lat="42.70274" lon="1.63771">
        <ele>1587.428</ele>
        <time>2021-06-13T11:35:57Z</time>
      </trkpt>
      <trkpt lat="42.70274" lon="1.63773">
        <ele>1587.55</ele>
        <time>2021-06-13T11:35:59Z</time>
      </trkpt>
      <trkpt lat="42.70274" lon="1.63776">
        <ele>1587.305</ele>
        <time>2021-06-13T11:36:01Z</time>
      </trkpt>
      <trkpt lat="42.70274" lon="1.63779">
        <ele>1587.574</ele>
        <time>2021-06-13T11:36:03Z</time>
      </trkpt>
      <trkpt lat="42.70274" lon="1.63782">
        <ele>1587.118</ele>
        <time>2021-06-13T11:36:05Z</time>
      </trkpt>
      <trkpt lat="42.70274" lon="1.63786">
        <ele>1587.048</ele>
        <time>2021-06-13T11:36:07Z</time>
      </trkpt>
      <trkpt lat="42.70274" lon="1.63789">
        <ele>1586.803</ele>
        <time>2021-06-13T11:36:09Z</time>
      </trkpt>
      <trkpt lat="42.70274" lon="1.63792">
        <ele>1586.084</ele>
        <time>2021-06-13T11:36:11Z</time>
      </trkpt>
      <trkpt lat="42.70274" lon="1.63795">
        <ele>1586.488</ele>
        <time>2021-06-13T11:36:13Z</time>
      </trkpt>
      <trkpt lat="42.70274" lon="1.63797">
        <ele>1586.493</ele>
        <time>2021-06-13T11:36:15Z</time>
      </trkpt>
      <trkpt lat="42.70273" lon="1.638">
        <ele>1586.815</ele>
        <time>2021-06-13T11:36:17Z</time>
      </trkpt>
      <trkpt lat="42.70273" lon="1.63803">
        <ele>1586.663</ele>
        <time>2021-06-13T11:36:19Z</time>
      </trkpt>
      <trkpt lat="42.70273" lon="1.63806">
        <ele>1586.609</ele>
        <time>2021-06-13T11:36:21Z</time>
      </trkpt>
      <trkpt lat="42.70272" lon="1.63809">
        <ele>1586.807</ele>
        <time>2021-06-13T11:36:23Z</time>
      </trkpt>
      <trkpt lat="42.70271" lon="1.63812">
        <ele>1586.036</ele>
        <time>2021-06-13T11:36:25Z</time>
      </trkpt>
      <trkpt lat="42.70271" lon="1.63816">
        <ele>1586.434</ele>
        <time>2021-06-13T11:36:27Z</time>
      </trkpt>
      <trkpt lat="42.70271" lon="1.63818">
        <ele>1586.43</ele>
        <time>2021-06-13T11:36:29Z</time>
      </trkpt>
      <trkpt lat="42.7027" lon="1.63821">
        <ele>1586.498</ele>
        <time>2021-06-13T11:36:31Z</time>
      </trkpt>
      <trkpt lat="42.70269" lon="1.63823">
        <ele>1586.944</ele>
        <time>2021-06-13T11:36:33Z</time>
      </trkpt>
      <trkpt lat="42.70269" lon="1.63826">
        <ele>1587.426</ele>
        <time>2021-06-13T11:36:35Z</time>
      </trkpt>
      <trkpt lat="42.70268" lon="1.63828">
        <ele>1587.602</ele>
        <time>2021-06-13T11:36:37Z</time>
      </trkpt>
      <trkpt lat="42.70268" lon="1.6383">
        <ele>1587.847</ele>
        <time>2021-06-13T11:36:39Z</time>
      </trkpt>
      <trkpt lat="42.70269" lon="1.63833">
        <ele>1587.434</ele>
        <time>2021-06-13T11:36:41Z</time>
      </trkpt>
      <trkpt lat="42.70269" lon="1.63836">
        <ele>1586.804</ele>
        <time>2021-06-13T11:36:43Z</time>
      </trkpt>
      <trkpt lat="42.70269" lon="1.63839">
        <ele>1586.396</ele>
        <time>2021-06-13T11:36:45Z</time>
      </trkpt>
      <trkpt lat="42.70269" lon="1.63842">
        <ele>1586.399</ele>
        <time>2021-06-13T11:36:47Z</time>
      </trkpt>
      <trkpt lat="42.70269" lon="1.63845">
        <ele>1586.113</ele>
        <time>2021-06-13T11:36:49Z</time>
      </trkpt>
      <trkpt lat="42.70268" lon="1.63847">
        <ele>1586.583</ele>
        <time>2021-06-13T11:36:51Z</time>
      </trkpt>
      <trkpt lat="42.70268" lon="1.63851">
        <ele>1586.925</ele>
        <time>2021-06-13T11:36:53Z</time>
      </trkpt>
      <trkpt lat="42.70267" lon="1.63853">
        <ele>1587.351</ele>
        <time>2021-06-13T11:36:55Z</time>
      </trkpt>
      <trkpt lat="42.70266" lon="1.63855">
        <ele>1588.792</ele>
        <time>2021-06-13T11:36:57Z</time>
      </trkpt>
      <trkpt lat="42.70265" lon="1.63858">
        <ele>1589.269</ele>
        <time>2021-06-13T11:36:59Z</time>
      </trkpt>
      <trkpt lat="42.70264" lon="1.6386">
        <ele>1589.687</ele>
        <time>2021-06-13T11:37:01Z</time>
      </trkpt>
      <trkpt lat="42.70263" lon="1.63862">
        <ele>1590.357</ele>
        <time>2021-06-13T11:37:03Z</time>
      </trkpt>
      <trkpt lat="42.70262" lon="1.63865">
        <ele>1591.107</ele>
        <time>2021-06-13T11:37:05Z</time>
      </trkpt>
      <trkpt lat="42.70261" lon="1.63867">
        <ele>1591.354</ele>
        <time>2021-06-13T11:37:07Z</time>
      </trkpt>
      <trkpt lat="42.70261" lon="1.63869">
        <ele>1591.824</ele>
        <time>2021-06-13T11:37:09Z</time>
      </trkpt>
      <trkpt lat="42.70262" lon="1.6387">
        <ele>1592.277</ele>
        <time>2021-06-13T11:37:11Z</time>
      </trkpt>
      <trkpt lat="42.70262" lon="1.63871">
        <ele>1593.174</ele>
        <time>2021-06-13T11:37:13Z</time>
      </trkpt>
      <trkpt lat="42.70263" lon="1.63872">
        <ele>1592.614</ele>
        <time>2021-06-13T11:37:15Z</time>
      </trkpt>
      <trkpt lat="42.70263" lon="1.63873">
        <ele>1593.252</ele>
        <time>2021-06-13T11:37:17Z</time>
      </trkpt>
      <trkpt lat="42.70265" lon="1.63874">
        <ele>1592.178</ele>
        <time>2021-06-13T11:37:19Z</time>
      </trkpt>
      <trkpt lat="42.70266" lon="1.63875">
        <ele>1592.296</ele>
        <time>2021-06-13T11:37:21Z</time>
      </trkpt>
      <trkpt lat="42.70266" lon="1.63878">
        <ele>1592.719</ele>
        <time>2021-06-13T11:37:23Z</time>
      </trkpt>
      <trkpt lat="42.70267" lon="1.63881">
        <ele>1593.494</ele>
        <time>2021-06-13T11:37:25Z</time>
      </trkpt>
      <trkpt lat="42.70267" lon="1.63884">
        <ele>1595.99</ele>
        <time>2021-06-13T11:37:27Z</time>
      </trkpt>
      <trkpt lat="42.70267" lon="1.63887">
        <ele>1597.777</ele>
        <time>2021-06-13T11:37:29Z</time>
      </trkpt>
      <trkpt lat="42.70265" lon="1.6389">
        <ele>1598.025</ele>
        <time>2021-06-13T11:37:31Z</time>
      </trkpt>
      <trkpt lat="42.70263" lon="1.63891">
        <ele>1598.504</ele>
        <time>2021-06-13T11:37:33Z</time>
      </trkpt>
      <trkpt lat="42.70262" lon="1.63893">
        <ele>1599.767</ele>
        <time>2021-06-13T11:37:35Z</time>
      </trkpt>
      <trkpt lat="42.70262" lon="1.63896">
        <ele>1600.388</ele>
        <time>2021-06-13T11:37:37Z</time>
      </trkpt>
      <trkpt lat="42.70262" lon="1.63898">
        <ele>1600.755</ele>
        <time>2021-06-13T11:37:39Z</time>
      </trkpt>
      <trkpt lat="42.70263" lon="1.63901">
        <ele>1601.226</ele>
        <time>2021-06-13T11:37:41Z</time>
      </trkpt>
      <trkpt lat="42.70264" lon="1.63903">
        <ele>1601.835</ele>
        <time>2021-06-13T11:37:43Z</time>
      </trkpt>
      <trkpt lat="42.70265" lon="1.63904">
        <ele>1601.424</ele>
        <time>2021-06-13T11:37:45Z</time>
      </trkpt>
      <trkpt lat="42.70266" lon="1.63906">
        <ele>1601.214</ele>
        <time>2021-06-13T11:37:47Z</time>
      </trkpt>
      <trkpt lat="42.70267" lon="1.63907">
        <ele>1600.38</ele>
        <time>2021-06-13T11:37:49Z</time>
      </trkpt>
      <trkpt lat="42.70268" lon="1.63908">
        <ele>1599.879</ele>
        <time>2021-06-13T11:37:51Z</time>
      </trkpt>
      <trkpt lat="42.70269" lon="1.63909">
        <ele>1599.573</ele>
        <time>2021-06-13T11:37:53Z</time>
      </trkpt>
      <trkpt lat="42.7027" lon="1.63911">
        <ele>1599.583</ele>
        <time>2021-06-13T11:37:55Z</time>
      </trkpt>
      <trkpt lat="42.70271" lon="1.63913">
        <ele>1599.274</ele>
        <time>2021-06-13T11:37:57Z</time>
      </trkpt>
      <trkpt lat="42.70271" lon="1.63914">
        <ele>1598.197</ele>
        <time>2021-06-13T11:37:59Z</time>
      </trkpt>
      <trkpt lat="42.70272" lon="1.63916">
        <ele>1597.719</ele>
        <time>2021-06-13T11:38:01Z</time>
      </trkpt>
      <trkpt lat="42.70273" lon="1.63919">
        <ele>1597.142</ele>
        <time>2021-06-13T11:38:03Z</time>
      </trkpt>
      <trkpt lat="42.70274" lon="1.63922">
        <ele>1597.88</ele>
        <time>2021-06-13T11:38:05Z</time>
      </trkpt>
      <trkpt lat="42.70275" lon="1.63926">
        <ele>1598.258</ele>
        <time>2021-06-13T11:38:07Z</time>
      </trkpt>
      <trkpt lat="42.70276" lon="1.63928">
        <ele>1598.231</ele>
        <time>2021-06-13T11:38:09Z</time>
      </trkpt>
      <trkpt lat="42.70276" lon="1.63931">
        <ele>1598.212</ele>
        <time>2021-06-13T11:38:11Z</time>
      </trkpt>
      <trkpt lat="42.70277" lon="1.63933">
        <ele>1598.206</ele>
        <time>2021-06-13T11:38:13Z</time>
      </trkpt>
      <trkpt lat="42.70277" lon="1.63936">
        <ele>1598.147</ele>
        <time>2021-06-13T11:38:15Z</time>
      </trkpt>
      <trkpt lat="42.70277" lon="1.63939">
        <ele>1597.719</ele>
        <time>2021-06-13T11:38:17Z</time>
      </trkpt>
      <trkpt lat="42.70277" lon="1.63941">
        <ele>1596.902</ele>
        <time>2021-06-13T11:38:19Z</time>
      </trkpt>
      <trkpt lat="42.70277" lon="1.63943">
        <ele>1595.235</ele>
        <time>2021-06-13T11:38:21Z</time>
      </trkpt>
      <trkpt lat="42.70278" lon="1.63946">
        <ele>1594.752</ele>
        <time>2021-06-13T11:38:23Z</time>
      </trkpt>
      <trkpt lat="42.70279" lon="1.63948">
        <ele>1594.214</ele>
        <time>2021-06-13T11:38:25Z</time>
      </trkpt>
      <trkpt lat="42.7028" lon="1.6395">
        <ele>1593.883</ele>
        <time>2021-06-13T11:38:27Z</time>
      </trkpt>
      <trkpt lat="42.70281" lon="1.63953">
        <ele>1593.867</ele>
        <time>2021-06-13T11:38:29Z</time>
      </trkpt>
      <trkpt lat="42.70281" lon="1.63955">
        <ele>1593.13</ele>
        <time>2021-06-13T11:38:31Z</time>
      </trkpt>
      <trkpt lat="42.70282" lon="1.63958">
        <ele>1593.274</ele>
        <time>2021-06-13T11:38:33Z</time>
      </trkpt>
      <trkpt lat="42.70283" lon="1.6396">
        <ele>1593.808</ele>
        <time>2021-06-13T11:38:35Z</time>
      </trkpt>
      <trkpt lat="42.70284" lon="1.63962">
        <ele>1593.73</ele>
        <time>2021-06-13T11:38:37Z</time>
      </trkpt>
      <trkpt lat="42.70285" lon="1.63965">
        <ele>1593.86</ele>
        <time>2021-06-13T11:38:39Z</time>
      </trkpt>
      <trkpt lat="42.70285" lon="1.63968">
        <ele>1594.663</ele>
        <time>2021-06-13T11:38:41Z</time>
      </trkpt>
      <trkpt lat="42.70286" lon="1.63971">
        <ele>1594.466</ele>
        <time>2021-06-13T11:38:43Z</time>
      </trkpt>
      <trkpt lat="42.70286" lon="1.63973">
        <ele>1593.679</ele>
        <time>2021-06-13T11:38:45Z</time>
      </trkpt>
      <trkpt lat="42.70286" lon="1.63976">
        <ele>1593.718</ele>
        <time>2021-06-13T11:38:47Z</time>
      </trkpt>
      <trkpt lat="42.70286" lon="1.63978">
        <ele>1593.293</ele>
        <time>2021-06-13T11:38:49Z</time>
      </trkpt>
      <trkpt lat="42.70286" lon="1.63981">
        <ele>1593.404</ele>
        <time>2021-06-13T11:38:51Z</time>
      </trkpt>
      <trkpt lat="42.70286" lon="1.63983">
        <ele>1593.215</ele>
        <time>2021-06-13T11:38:53Z</time>
      </trkpt>
      <trkpt lat="42.70287" lon="1.63986">
        <ele>1592.76</ele>
        <time>2021-06-13T11:38:55Z</time>
      </trkpt>
      <trkpt lat="42.70288" lon="1.63988">
        <ele>1593.175</ele>
        <time>2021-06-13T11:38:57Z</time>
      </trkpt>
      <trkpt lat="42.70289" lon="1.63991">
        <ele>1593.608</ele>
        <time>2021-06-13T11:38:59Z</time>
      </trkpt>
      <trkpt lat="42.70291" lon="1.63991">
        <ele>1593.241</ele>
        <time>2021-06-13T11:39:01Z</time>
      </trkpt>
      <trkpt lat="42.70292" lon="1.63992">
        <ele>1593.523</ele>
        <time>2021-06-13T11:39:03Z</time>
      </trkpt>
      <trkpt lat="42.70293" lon="1.63994">
        <ele>1594.262</ele>
        <time>2021-06-13T11:39:05Z</time>
      </trkpt>
      <trkpt lat="42.70293" lon="1.63994">
        <ele>1594.124</ele>
        <time>2021-06-13T11:39:07Z</time>
      </trkpt>
      <trkpt lat="42.70293" lon="1.63994">
        <ele>1594.122</ele>
        <time>2021-06-13T11:39:09Z</time>
      </trkpt>
      <trkpt lat="42.70293" lon="1.63994">
        <ele>1594.122</ele>
        <time>2021-06-13T11:39:11Z</time>
      </trkpt>
      <trkpt lat="42.70293" lon="1.63994">
        <ele>1594.117</ele>
        <time>2021-06-13T11:39:13Z</time>
      </trkpt>
      <trkpt lat="42.70293" lon="1.63994">
        <ele>1594.112</ele>
        <time>2021-06-13T11:39:15Z</time>
      </trkpt>
      <trkpt lat="42.70293" lon="1.63994">
        <ele>1594.103</ele>
        <time>2021-06-13T11:39:17Z</time>
      </trkpt>
      <trkpt lat="42.70293" lon="1.63994">
        <ele>1594.096</ele>
        <time>2021-06-13T11:39:19Z</time>
      </trkpt>
      <trkpt lat="42.70293" lon="1.63994">
        <ele>1594.094</ele>
        <time>2021-06-13T11:39:21Z</time>
      </trkpt>
      <trkpt lat="42.70293" lon="1.63994">
        <ele>1594.096</ele>
        <time>2021-06-13T11:39:23Z</time>
      </trkpt>
      <trkpt lat="42.70293" lon="1.63994">
        <ele>1594.101</ele>
        <time>2021-06-13T11:39:25Z</time>
      </trkpt>
      <trkpt lat="42.70293" lon="1.63994">
        <ele>1594.104</ele>
        <time>2021-06-13T11:39:27Z</time>
      </trkpt>
      <trkpt lat="42.70293" lon="1.63994">
        <ele>1594.096</ele>
        <time>2021-06-13T11:39:29Z</time>
      </trkpt>
      <trkpt lat="42.70293" lon="1.63994">
        <ele>1594.085</ele>
        <time>2021-06-13T11:39:31Z</time>
      </trkpt>
      <trkpt lat="42.70293" lon="1.63994">
        <ele>1594.086</ele>
        <time>2021-06-13T11:39:33Z</time>
      </trkpt>
      <trkpt lat="42.70293" lon="1.63994">
        <ele>1594.09</ele>
        <time>2021-06-13T11:39:35Z</time>
      </trkpt>
      <trkpt lat="42.70293" lon="1.63994">
        <ele>1594.096</ele>
        <time>2021-06-13T11:39:37Z</time>
      </trkpt>
      <trkpt lat="42.70293" lon="1.63994">
        <ele>1594.092</ele>
        <time>2021-06-13T11:39:39Z</time>
      </trkpt>
      <trkpt lat="42.70294" lon="1.63995">
        <ele>1593.888</ele>
        <time>2021-06-13T11:39:41Z</time>
      </trkpt>
      <trkpt lat="42.70295" lon="1.63996">
        <ele>1593.732</ele>
        <time>2021-06-13T11:39:43Z</time>
      </trkpt>
      <trkpt lat="42.70296" lon="1.63997">
        <ele>1593.174</ele>
        <time>2021-06-13T11:39:45Z</time>
      </trkpt>
      <trkpt lat="42.70297" lon="1.63998">
        <ele>1592.898</ele>
        <time>2021-06-13T11:39:47Z</time>
      </trkpt>
      <trkpt lat="42.70297" lon="1.64">
        <ele>1591.967</ele>
        <time>2021-06-13T11:39:49Z</time>
      </trkpt>
      <trkpt lat="42.70298" lon="1.64003">
        <ele>1592.275</ele>
        <time>2021-06-13T11:39:51Z</time>
      </trkpt>
      <trkpt lat="42.70299" lon="1.64005">
        <ele>1592.315</ele>
        <time>2021-06-13T11:39:53Z</time>
      </trkpt>
      <trkpt lat="42.70299" lon="1.64007">
        <ele>1591.998</ele>
        <time>2021-06-13T11:39:55Z</time>
      </trkpt>
      <trkpt lat="42.70299" lon="1.6401">
        <ele>1592.391</ele>
        <time>2021-06-13T11:39:57Z</time>
      </trkpt>
      <trkpt lat="42.703" lon="1.64012">
        <ele>1592.496</ele>
        <time>2021-06-13T11:39:59Z</time>
      </trkpt>
      <trkpt lat="42.70301" lon="1.64015">
        <ele>1592.483</ele>
        <time>2021-06-13T11:40:01Z</time>
      </trkpt>
      <trkpt lat="42.70301" lon="1.64018">
        <ele>1592.487</ele>
        <time>2021-06-13T11:40:03Z</time>
      </trkpt>
      <trkpt lat="42.70301" lon="1.64021">
        <ele>1593.418</ele>
        <time>2021-06-13T11:40:05Z</time>
      </trkpt>
      <trkpt lat="42.70301" lon="1.64024">
        <ele>1594.33</ele>
        <time>2021-06-13T11:40:07Z</time>
      </trkpt>
      <trkpt lat="42.70301" lon="1.64027">
        <ele>1593.658</ele>
        <time>2021-06-13T11:40:09Z</time>
      </trkpt>
      <trkpt lat="42.703" lon="1.64029">
        <ele>1593.23</ele>
        <time>2021-06-13T11:40:11Z</time>
      </trkpt>
      <trkpt lat="42.70299" lon="1.64031">
        <ele>1592.546</ele>
        <time>2021-06-13T11:40:13Z</time>
      </trkpt>
      <trkpt lat="42.70298" lon="1.64033">
        <ele>1591.963</ele>
        <time>2021-06-13T11:40:15Z</time>
      </trkpt>
      <trkpt lat="42.70297" lon="1.64036">
        <ele>1591.536</ele>
        <time>2021-06-13T11:40:17Z</time>
      </trkpt>
      <trkpt lat="42.70297" lon="1.64038">
        <ele>1591.613</ele>
        <time>2021-06-13T11:40:19Z</time>
      </trkpt>
      <trkpt lat="42.70297" lon="1.64041">
        <ele>1592.063</ele>
        <time>2021-06-13T11:40:21Z</time>
      </trkpt>
      <trkpt lat="42.70297" lon="1.64043">
        <ele>1592.321</ele>
        <time>2021-06-13T11:40:23Z</time>
      </trkpt>
      <trkpt lat="42.70298" lon="1.64046">
        <ele>1592.621</ele>
        <time>2021-06-13T11:40:25Z</time>
      </trkpt>
      <trkpt lat="42.70298" lon="1.64048">
        <ele>1592.565</ele>
        <time>2021-06-13T11:40:27Z</time>
      </trkpt>
      <trkpt lat="42.70299" lon="1.64051">
        <ele>1592.398</ele>
        <time>2021-06-13T11:40:29Z</time>
      </trkpt>
      <trkpt lat="42.70299" lon="1.64053">
        <ele>1592.542</ele>
        <time>2021-06-13T11:40:31Z</time>
      </trkpt>
      <trkpt lat="42.703" lon="1.64056">
        <ele>1592.591</ele>
        <time>2021-06-13T11:40:33Z</time>
      </trkpt>
      <trkpt lat="42.70301" lon="1.64058">
        <ele>1592.341</ele>
        <time>2021-06-13T11:40:35Z</time>
      </trkpt>
      <trkpt lat="42.70301" lon="1.64061">
        <ele>1592.498</ele>
        <time>2021-06-13T11:40:37Z</time>
      </trkpt>
      <trkpt lat="42.70301" lon="1.64063">
        <ele>1593.004</ele>
        <time>2021-06-13T11:40:39Z</time>
      </trkpt>
      <trkpt lat="42.70301" lon="1.64065">
        <ele>1592.609</ele>
        <time>2021-06-13T11:40:41Z</time>
      </trkpt>
      <trkpt lat="42.70301" lon="1.64067">
        <ele>1593.206</ele>
        <time>2021-06-13T11:40:43Z</time>
      </trkpt>
      <trkpt lat="42.70301" lon="1.6407">
        <ele>1593.327</ele>
        <time>2021-06-13T11:40:45Z</time>
      </trkpt>
      <trkpt lat="42.70301" lon="1.64072">
        <ele>1593.148</ele>
        <time>2021-06-13T11:40:47Z</time>
      </trkpt>
      <trkpt lat="42.70302" lon="1.64074">
        <ele>1593.064</ele>
        <time>2021-06-13T11:40:49Z</time>
      </trkpt>
      <trkpt lat="42.70303" lon="1.64077">
        <ele>1592.266</ele>
        <time>2021-06-13T11:40:51Z</time>
      </trkpt>
      <trkpt lat="42.70303" lon="1.64079">
        <ele>1591.667</ele>
        <time>2021-06-13T11:40:53Z</time>
      </trkpt>
      <trkpt lat="42.70302" lon="1.64082">
        <ele>1591.089</ele>
        <time>2021-06-13T11:40:55Z</time>
      </trkpt>
      <trkpt lat="42.70302" lon="1.64085">
        <ele>1590.715</ele>
        <time>2021-06-13T11:40:57Z</time>
      </trkpt>
      <trkpt lat="42.70302" lon="1.64088">
        <ele>1590.862</ele>
        <time>2021-06-13T11:40:59Z</time>
      </trkpt>
      <trkpt lat="42.70303" lon="1.64091">
        <ele>1590.883</ele>
        <time>2021-06-13T11:41:01Z</time>
      </trkpt>
      <trkpt lat="42.70303" lon="1.64093">
        <ele>1591.162</ele>
        <time>2021-06-13T11:41:03Z</time>
      </trkpt>
      <trkpt lat="42.70302" lon="1.64095">
        <ele>1591.226</ele>
        <time>2021-06-13T11:41:05Z</time>
      </trkpt>
      <trkpt lat="42.70301" lon="1.64097">
        <ele>1590.637</ele>
        <time>2021-06-13T11:41:07Z</time>
      </trkpt>
      <trkpt lat="42.70301" lon="1.641">
        <ele>1590.471</ele>
        <time>2021-06-13T11:41:09Z</time>
      </trkpt>
      <trkpt lat="42.70302" lon="1.64102">
        <ele>1589.754</ele>
        <time>2021-06-13T11:41:11Z</time>
      </trkpt>
      <trkpt lat="42.70302" lon="1.64105">
        <ele>1588.82</ele>
        <time>2021-06-13T11:41:13Z</time>
      </trkpt>
      <trkpt lat="42.70303" lon="1.64108">
        <ele>1588.237</ele>
        <time>2021-06-13T11:41:15Z</time>
      </trkpt>
      <trkpt lat="42.70303" lon="1.6411">
        <ele>1587.651</ele>
        <time>2021-06-13T11:41:17Z</time>
      </trkpt>
      <trkpt lat="42.70303" lon="1.64113">
        <ele>1587.677</ele>
        <time>2021-06-13T11:41:19Z</time>
      </trkpt>
      <trkpt lat="42.70302" lon="1.64115">
        <ele>1587.984</ele>
        <time>2021-06-13T11:41:21Z</time>
      </trkpt>
      <trkpt lat="42.70301" lon="1.64118">
        <ele>1588.736</ele>
        <time>2021-06-13T11:41:23Z</time>
      </trkpt>
      <trkpt lat="42.70301" lon="1.64121">
        <ele>1589.186</ele>
        <time>2021-06-13T11:41:25Z</time>
      </trkpt>
      <trkpt lat="42.70302" lon="1.64122">
        <ele>1588.665</ele>
        <time>2021-06-13T11:41:27Z</time>
      </trkpt>
      <trkpt lat="42.70304" lon="1.64124">
        <ele>1589.324</ele>
        <time>2021-06-13T11:41:29Z</time>
      </trkpt>
      <trkpt lat="42.70305" lon="1.64127">
        <ele>1589.474</ele>
        <time>2021-06-13T11:41:31Z</time>
      </trkpt>
      <trkpt lat="42.70304" lon="1.64129">
        <ele>1589.602</ele>
        <time>2021-06-13T11:41:33Z</time>
      </trkpt>
      <trkpt lat="42.70304" lon="1.64132">
        <ele>1589.503</ele>
        <time>2021-06-13T11:41:35Z</time>
      </trkpt>
      <trkpt lat="42.70304" lon="1.64135">
        <ele>1589.755</ele>
        <time>2021-06-13T11:41:37Z</time>
      </trkpt>
      <trkpt lat="42.70304" lon="1.64138">
        <ele>1589.362</ele>
        <time>2021-06-13T11:41:39Z</time>
      </trkpt>
      <trkpt lat="42.70304" lon="1.6414">
        <ele>1588.963</ele>
        <time>2021-06-13T11:41:41Z</time>
      </trkpt>
      <trkpt lat="42.70304" lon="1.64143">
        <ele>1588.866</ele>
        <time>2021-06-13T11:41:43Z</time>
      </trkpt>
      <trkpt lat="42.70304" lon="1.64145">
        <ele>1588.805</ele>
        <time>2021-06-13T11:41:45Z</time>
      </trkpt>
      <trkpt lat="42.70304" lon="1.64148">
        <ele>1588.795</ele>
        <time>2021-06-13T11:41:47Z</time>
      </trkpt>
      <trkpt lat="42.70305" lon="1.6415">
        <ele>1588.82</ele>
        <time>2021-06-13T11:41:49Z</time>
      </trkpt>
      <trkpt lat="42.70305" lon="1.64152">
        <ele>1588.957</ele>
        <time>2021-06-13T11:41:51Z</time>
      </trkpt>
      <trkpt lat="42.70305" lon="1.64155">
        <ele>1589.115</ele>
        <time>2021-06-13T11:41:53Z</time>
      </trkpt>
      <trkpt lat="42.70305" lon="1.64157">
        <ele>1589.595</ele>
        <time>2021-06-13T11:41:55Z</time>
      </trkpt>
      <trkpt lat="42.70305" lon="1.6416">
        <ele>1589.895</ele>
        <time>2021-06-13T11:41:57Z</time>
      </trkpt>
      <trkpt lat="42.70304" lon="1.64161">
        <ele>1591.048</ele>
        <time>2021-06-13T11:41:59Z</time>
      </trkpt>
      <trkpt lat="42.70302" lon="1.64162">
        <ele>1591.501</ele>
        <time>2021-06-13T11:42:01Z</time>
      </trkpt>
      <trkpt lat="42.70301" lon="1.64163">
        <ele>1591.808</ele>
        <time>2021-06-13T11:42:03Z</time>
      </trkpt>
      <trkpt lat="42.703" lon="1.64165">
        <ele>1591.583</ele>
        <time>2021-06-13T11:42:05Z</time>
      </trkpt>
      <trkpt lat="42.703" lon="1.64168">
        <ele>1591.511</ele>
        <time>2021-06-13T11:42:07Z</time>
      </trkpt>
      <trkpt lat="42.70299" lon="1.6417">
        <ele>1591.063</ele>
        <time>2021-06-13T11:42:09Z</time>
      </trkpt>
      <trkpt lat="42.70298" lon="1.64172">
        <ele>1591.522</ele>
        <time>2021-06-13T11:42:11Z</time>
      </trkpt>
      <trkpt lat="42.70299" lon="1.64174">
        <ele>1591.928</ele>
        <time>2021-06-13T11:42:13Z</time>
      </trkpt>
      <trkpt lat="42.70298" lon="1.64176">
        <ele>1591.705</ele>
        <time>2021-06-13T11:42:15Z</time>
      </trkpt>
      <trkpt lat="42.70298" lon="1.64179">
        <ele>1592.839</ele>
        <time>2021-06-13T11:42:18Z</time>
      </trkpt>
      <trkpt lat="42.70298" lon="1.64181">
        <ele>1593.105</ele>
        <time>2021-06-13T11:42:20Z</time>
      </trkpt>
      <trkpt lat="42.70298" lon="1.64183">
        <ele>1592.978</ele>
        <time>2021-06-13T11:42:22Z</time>
      </trkpt>
      <trkpt lat="42.70298" lon="1.64185">
        <ele>1592.694</ele>
        <time>2021-06-13T11:42:24Z</time>
      </trkpt>
      <trkpt lat="42.70297" lon="1.64187">
        <ele>1592.725</ele>
        <time>2021-06-13T11:42:26Z</time>
      </trkpt>
      <trkpt lat="42.70297" lon="1.64189">
        <ele>1592.453</ele>
        <time>2021-06-13T11:42:28Z</time>
      </trkpt>
      <trkpt lat="42.70298" lon="1.64191">
        <ele>1592.598</ele>
        <time>2021-06-13T11:42:30Z</time>
      </trkpt>
      <trkpt lat="42.70298" lon="1.64194">
        <ele>1593.567</ele>
        <time>2021-06-13T11:42:32Z</time>
      </trkpt>
      <trkpt lat="42.70298" lon="1.64199">
        <ele>1594.68</ele>
        <time>2021-06-13T11:42:35Z</time>
      </trkpt>
      <trkpt lat="42.70298" lon="1.64201">
        <ele>1594.838</ele>
        <time>2021-06-13T11:42:37Z</time>
      </trkpt>
      <trkpt lat="42.70298" lon="1.64203">
        <ele>1594.761</ele>
        <time>2021-06-13T11:42:39Z</time>
      </trkpt>
      <trkpt lat="42.70298" lon="1.64205">
        <ele>1595.773</ele>
        <time>2021-06-13T11:42:41Z</time>
      </trkpt>
      <trkpt lat="42.70298" lon="1.64205">
        <ele>1596.109</ele>
        <time>2021-06-13T11:42:43Z</time>
      </trkpt>
      <trkpt lat="42.70298" lon="1.64205">
        <ele>1596.109</ele>
        <time>2021-06-13T11:42:45Z</time>
      </trkpt>
      <trkpt lat="42.70298" lon="1.64205">
        <ele>1596.105</ele>
        <time>2021-06-13T11:42:47Z</time>
      </trkpt>
      <trkpt lat="42.70298" lon="1.64206">
        <ele>1596.281</ele>
        <time>2021-06-13T11:42:49Z</time>
      </trkpt>
      <trkpt lat="42.70298" lon="1.64208">
        <ele>1597.098</ele>
        <time>2021-06-13T11:42:51Z</time>
      </trkpt>
      <trkpt lat="42.70298" lon="1.64209">
        <ele>1597.408</ele>
        <time>2021-06-13T11:42:53Z</time>
      </trkpt>
      <trkpt lat="42.70298" lon="1.64209">
        <ele>1597.405</ele>
        <time>2021-06-13T11:42:55Z</time>
      </trkpt>
      <trkpt lat="42.70298" lon="1.64209">
        <ele>1597.416</ele>
        <time>2021-06-13T11:42:57Z</time>
      </trkpt>
      <trkpt lat="42.70298" lon="1.64209">
        <ele>1597.424</ele>
        <time>2021-06-13T11:42:59Z</time>
      </trkpt>
      <trkpt lat="42.70298" lon="1.64209">
        <ele>1597.422</ele>
        <time>2021-06-13T11:43:01Z</time>
      </trkpt>
      <trkpt lat="42.70298" lon="1.64209">
        <ele>1597.418</ele>
        <time>2021-06-13T11:43:03Z</time>
      </trkpt>
      <trkpt lat="42.70298" lon="1.6421">
        <ele>1597.126</ele>
        <time>2021-06-13T11:43:05Z</time>
      </trkpt>
      <trkpt lat="42.70298" lon="1.64211">
        <ele>1597.135</ele>
        <time>2021-06-13T11:43:07Z</time>
      </trkpt>
      <trkpt lat="42.70299" lon="1.6421">
        <ele>1596.674</ele>
        <time>2021-06-13T11:43:09Z</time>
      </trkpt>
      <trkpt lat="42.70299" lon="1.6421">
        <ele>1596.657</ele>
        <time>2021-06-13T11:43:11Z</time>
      </trkpt>
      <trkpt lat="42.70299" lon="1.6421">
        <ele>1596.638</ele>
        <time>2021-06-13T11:43:12Z</time>
      </trkpt>
      <trkpt lat="42.70299" lon="1.6421">
        <ele>1596.604</ele>
        <time>2021-06-13T11:43:15Z</time>
      </trkpt>
      <trkpt lat="42.70299" lon="1.6421">
        <ele>1596.592</ele>
        <time>2021-06-13T11:43:17Z</time>
      </trkpt>
      <trkpt lat="42.70299" lon="1.6421">
        <ele>1596.563</ele>
        <time>2021-06-13T11:43:19Z</time>
      </trkpt>
      <trkpt lat="42.70299" lon="1.6421">
        <ele>1596.544</ele>
        <time>2021-06-13T11:43:21Z</time>
      </trkpt>
      <trkpt lat="42.70299" lon="1.6421">
        <ele>1596.51</ele>
        <time>2021-06-13T11:43:23Z</time>
      </trkpt>
      <trkpt lat="42.70299" lon="1.6421">
        <ele>1596.481</ele>
        <time>2021-06-13T11:43:25Z</time>
      </trkpt>
      <trkpt lat="42.70299" lon="1.6421">
        <ele>1596.463</ele>
        <time>2021-06-13T11:43:27Z</time>
      </trkpt>
      <trkpt lat="42.70299" lon="1.6421">
        <ele>1596.444</ele>
        <time>2021-06-13T11:43:29Z</time>
      </trkpt>
      <trkpt lat="42.70299" lon="1.6421">
        <ele>1596.422</ele>
        <time>2021-06-13T11:43:31Z</time>
      </trkpt>
      <trkpt lat="42.70299" lon="1.6421">
        <ele>1596.416</ele>
        <time>2021-06-13T11:43:33Z</time>
      </trkpt>
      <trkpt lat="42.70299" lon="1.6421">
        <ele>1596.42</ele>
        <time>2021-06-13T11:43:35Z</time>
      </trkpt>
      <trkpt lat="42.70299" lon="1.6421">
        <ele>1596.423</ele>
        <time>2021-06-13T11:43:37Z</time>
      </trkpt>
      <trkpt lat="42.70299" lon="1.6421">
        <ele>1596.424</ele>
        <time>2021-06-13T11:43:39Z</time>
      </trkpt>
      <trkpt lat="42.70299" lon="1.6421">
        <ele>1596.558</ele>
        <time>2021-06-13T11:43:41Z</time>
      </trkpt>
      <trkpt lat="42.70298" lon="1.6421">
        <ele>1596.513</ele>
        <time>2021-06-13T11:43:43Z</time>
      </trkpt>
      <trkpt lat="42.70298" lon="1.6421">
        <ele>1595.923</ele>
        <time>2021-06-13T11:43:45Z</time>
      </trkpt>
      <trkpt lat="42.70298" lon="1.64209">
        <ele>1595.916</ele>
        <time>2021-06-13T11:43:47Z</time>
      </trkpt>
      <trkpt lat="42.70298" lon="1.64209">
        <ele>1595.912</ele>
        <time>2021-06-13T11:43:49Z</time>
      </trkpt>
      <trkpt lat="42.70298" lon="1.64209">
        <ele>1595.909</ele>
        <time>2021-06-13T11:43:51Z</time>
      </trkpt>
      <trkpt lat="42.70298" lon="1.64209">
        <ele>1595.908</ele>
        <time>2021-06-13T11:43:53Z</time>
      </trkpt>
      <trkpt lat="42.70298" lon="1.64209">
        <ele>1595.901</ele>
        <time>2021-06-13T11:43:55Z</time>
      </trkpt>
      <trkpt lat="42.70298" lon="1.64209">
        <ele>1595.9</ele>
        <time>2021-06-13T11:43:56Z</time>
      </trkpt>
      <trkpt lat="42.70298" lon="1.6421">
        <ele>1595.72</ele>
        <time>2021-06-13T11:43:59Z</time>
      </trkpt>
      <trkpt lat="42.70298" lon="1.64211">
        <ele>1596.539</ele>
        <time>2021-06-13T11:44:01Z</time>
      </trkpt>
      <trkpt lat="42.70298" lon="1.64213">
        <ele>1596.738</ele>
        <time>2021-06-13T11:44:03Z</time>
      </trkpt>
      <trkpt lat="42.70298" lon="1.64215">
        <ele>1597.327</ele>
        <time>2021-06-13T11:44:05Z</time>
      </trkpt>
      <trkpt lat="42.70298" lon="1.64217">
        <ele>1597.213</ele>
        <time>2021-06-13T11:44:07Z</time>
      </trkpt>
      <trkpt lat="42.70298" lon="1.64219">
        <ele>1597.051</ele>
        <time>2021-06-13T11:44:09Z</time>
      </trkpt>
      <trkpt lat="42.70298" lon="1.64221">
        <ele>1597.538</ele>
        <time>2021-06-13T11:44:11Z</time>
      </trkpt>
      <trkpt lat="42.70297" lon="1.64223">
        <ele>1597.214</ele>
        <time>2021-06-13T11:44:13Z</time>
      </trkpt>
      <trkpt lat="42.70297" lon="1.64225">
        <ele>1597.177</ele>
        <time>2021-06-13T11:44:15Z</time>
      </trkpt>
      <trkpt lat="42.70296" lon="1.64226">
        <ele>1596.991</ele>
        <time>2021-06-13T11:44:17Z</time>
      </trkpt>
      <trkpt lat="42.70296" lon="1.64228">
        <ele>1596.517</ele>
        <time>2021-06-13T11:44:19Z</time>
      </trkpt>
      <trkpt lat="42.70296" lon="1.6423">
        <ele>1596.418</ele>
        <time>2021-06-13T11:44:21Z</time>
      </trkpt>
      <trkpt lat="42.70296" lon="1.64232">
        <ele>1596.839</ele>
        <time>2021-06-13T11:44:23Z</time>
      </trkpt>
      <trkpt lat="42.70296" lon="1.64234">
        <ele>1596.874</ele>
        <time>2021-06-13T11:44:25Z</time>
      </trkpt>
      <trkpt lat="42.70296" lon="1.64236">
        <ele>1597.009</ele>
        <time>2021-06-13T11:44:27Z</time>
      </trkpt>
      <trkpt lat="42.70296" lon="1.64237">
        <ele>1597.046</ele>
        <time>2021-06-13T11:44:29Z</time>
      </trkpt>
      <trkpt lat="42.70295" lon="1.64239">
        <ele>1596.871</ele>
        <time>2021-06-13T11:44:31Z</time>
      </trkpt>
      <trkpt lat="42.70295" lon="1.64241">
        <ele>1597</ele>
        <time>2021-06-13T11:44:33Z</time>
      </trkpt>
      <trkpt lat="42.70295" lon="1.64243">
        <ele>1597.328</ele>
        <time>2021-06-13T11:44:35Z</time>
      </trkpt>
      <trkpt lat="42.70295" lon="1.64244">
        <ele>1597.321</ele>
        <time>2021-06-13T11:44:36Z</time>
      </trkpt>
      <trkpt lat="42.70295" lon="1.64247">
        <ele>1597.857</ele>
        <time>2021-06-13T11:44:39Z</time>
      </trkpt>
      <trkpt lat="42.70295" lon="1.64249">
        <ele>1598.085</ele>
        <time>2021-06-13T11:44:41Z</time>
      </trkpt>
      <trkpt lat="42.70295" lon="1.6425">
        <ele>1598.224</ele>
        <time>2021-06-13T11:44:43Z</time>
      </trkpt>
      <trkpt lat="42.70295" lon="1.64252">
        <ele>1598.597</ele>
        <time>2021-06-13T11:44:45Z</time>
      </trkpt>
      <trkpt lat="42.70295" lon="1.64254">
        <ele>1598.967</ele>
        <time>2021-06-13T11:44:47Z</time>
      </trkpt>
      <trkpt lat="42.70295" lon="1.64256">
        <ele>1598.857</ele>
        <time>2021-06-13T11:44:49Z</time>
      </trkpt>
      <trkpt lat="42.70295" lon="1.64258">
        <ele>1598.972</ele>
        <time>2021-06-13T11:44:51Z</time>
      </trkpt>
      <trkpt lat="42.70294" lon="1.64259">
        <ele>1599.516</ele>
        <time>2021-06-13T11:44:53Z</time>
      </trkpt>
      <trkpt lat="42.70293" lon="1.64261">
        <ele>1599.57</ele>
        <time>2021-06-13T11:44:55Z</time>
      </trkpt>
      <trkpt lat="42.70293" lon="1.64262">
        <ele>1599.73</ele>
        <time>2021-06-13T11:44:57Z</time>
      </trkpt>
      <trkpt lat="42.70292" lon="1.64264">
        <ele>1599.722</ele>
        <time>2021-06-13T11:44:59Z</time>
      </trkpt>
      <trkpt lat="42.70292" lon="1.64266">
        <ele>1600.769</ele>
        <time>2021-06-13T11:45:01Z</time>
      </trkpt>
      <trkpt lat="42.70292" lon="1.64268">
        <ele>1600.877</ele>
        <time>2021-06-13T11:45:03Z</time>
      </trkpt>
      <trkpt lat="42.70292" lon="1.6427">
        <ele>1600.508</ele>
        <time>2021-06-13T11:45:05Z</time>
      </trkpt>
      <trkpt lat="42.70292" lon="1.64271">
        <ele>1600.476</ele>
        <time>2021-06-13T11:45:06Z</time>
      </trkpt>
      <trkpt lat="42.70292" lon="1.64274">
        <ele>1600.766</ele>
        <time>2021-06-13T11:45:09Z</time>
      </trkpt>
      <trkpt lat="42.70292" lon="1.64275">
        <ele>1601.336</ele>
        <time>2021-06-13T11:45:11Z</time>
      </trkpt>
      <trkpt lat="42.70292" lon="1.64277">
        <ele>1601.634</ele>
        <time>2021-06-13T11:45:13Z</time>
      </trkpt>
      <trkpt lat="42.70292" lon="1.64279">
        <ele>1602.009</ele>
        <time>2021-06-13T11:45:15Z</time>
      </trkpt>
      <trkpt lat="42.70293" lon="1.64281">
        <ele>1601.929</ele>
        <time>2021-06-13T11:45:17Z</time>
      </trkpt>
      <trkpt lat="42.70293" lon="1.64282">
        <ele>1601.984</ele>
        <time>2021-06-13T11:45:19Z</time>
      </trkpt>
      <trkpt lat="42.70294" lon="1.64284">
        <ele>1602.581</ele>
        <time>2021-06-13T11:45:21Z</time>
      </trkpt>
      <trkpt lat="42.70295" lon="1.64285">
        <ele>1602.503</ele>
        <time>2021-06-13T11:45:23Z</time>
      </trkpt>
      <trkpt lat="42.70295" lon="1.64287">
        <ele>1602.78</ele>
        <time>2021-06-13T11:45:25Z</time>
      </trkpt>
      <trkpt lat="42.70295" lon="1.64288">
        <ele>1602.731</ele>
        <time>2021-06-13T11:45:27Z</time>
      </trkpt>
      <trkpt lat="42.70296" lon="1.64289">
        <ele>1602.623</ele>
        <time>2021-06-13T11:45:29Z</time>
      </trkpt>
      <trkpt lat="42.70295" lon="1.64291">
        <ele>1603.116</ele>
        <time>2021-06-13T11:45:31Z</time>
      </trkpt>
      <trkpt lat="42.70295" lon="1.64292">
        <ele>1603.465</ele>
        <time>2021-06-13T11:45:33Z</time>
      </trkpt>
      <trkpt lat="42.70295" lon="1.64292">
        <ele>1603.427</ele>
        <time>2021-06-13T11:45:35Z</time>
      </trkpt>
      <trkpt lat="42.70295" lon="1.64293">
        <ele>1603.274</ele>
        <time>2021-06-13T11:45:37Z</time>
      </trkpt>
      <trkpt lat="42.70295" lon="1.64295">
        <ele>1603.285</ele>
        <time>2021-06-13T11:45:39Z</time>
      </trkpt>
      <trkpt lat="42.70295" lon="1.64297">
        <ele>1603.24</ele>
        <time>2021-06-13T11:45:41Z</time>
      </trkpt>
      <trkpt lat="42.70295" lon="1.64299">
        <ele>1603.616</ele>
        <time>2021-06-13T11:45:43Z</time>
      </trkpt>
      <trkpt lat="42.70295" lon="1.64301">
        <ele>1603.791</ele>
        <time>2021-06-13T11:45:45Z</time>
      </trkpt>
      <trkpt lat="42.70295" lon="1.64302">
        <ele>1604.75</ele>
        <time>2021-06-13T11:45:47Z</time>
      </trkpt>
      <trkpt lat="42.70294" lon="1.64302">
        <ele>1605.198</ele>
        <time>2021-06-13T11:45:49Z</time>
      </trkpt>
      <trkpt lat="42.70294" lon="1.64302">
        <ele>1605.195</ele>
        <time>2021-06-13T11:45:51Z</time>
      </trkpt>
      <trkpt lat="42.70294" lon="1.64303">
        <ele>1605.376</ele>
        <time>2021-06-13T11:45:53Z</time>
      </trkpt>
      <trkpt lat="42.70293" lon="1.64303">
        <ele>1606.28</ele>
        <time>2021-06-13T11:45:55Z</time>
      </trkpt>
      <trkpt lat="42.70293" lon="1.64304">
        <ele>1606.336</ele>
        <time>2021-06-13T11:45:57Z</time>
      </trkpt>
      <trkpt lat="42.70292" lon="1.64305">
        <ele>1606.532</ele>
        <time>2021-06-13T11:45:59Z</time>
      </trkpt>
      <trkpt lat="42.70292" lon="1.64306">
        <ele>1606.736</ele>
        <time>2021-06-13T11:46:01Z</time>
      </trkpt>
      <trkpt lat="42.70293" lon="1.64307">
        <ele>1607.072</ele>
        <time>2021-06-13T11:46:03Z</time>
      </trkpt>
      <trkpt lat="42.70293" lon="1.64309">
        <ele>1607.124</ele>
        <time>2021-06-13T11:46:05Z</time>
      </trkpt>
      <trkpt lat="42.70293" lon="1.64309">
        <ele>1607.023</ele>
        <time>2021-06-13T11:46:07Z</time>
      </trkpt>
      <trkpt lat="42.70293" lon="1.64311">
        <ele>1607.634</ele>
        <time>2021-06-13T11:46:09Z</time>
      </trkpt>
      <trkpt lat="42.70292" lon="1.64312">
        <ele>1607.677</ele>
        <time>2021-06-13T11:46:11Z</time>
      </trkpt>
      <trkpt lat="42.70292" lon="1.64314">
        <ele>1608.169</ele>
        <time>2021-06-13T11:46:13Z</time>
      </trkpt>
      <trkpt lat="42.70292" lon="1.64316">
        <ele>1608.149</ele>
        <time>2021-06-13T11:46:15Z</time>
      </trkpt>
      <trkpt lat="42.70292" lon="1.64316">
        <ele>1608.116</ele>
        <time>2021-06-13T11:46:17Z</time>
      </trkpt>
      <trkpt lat="42.70292" lon="1.64317">
        <ele>1608.448</ele>
        <time>2021-06-13T11:46:19Z</time>
      </trkpt>
      <trkpt lat="42.70292" lon="1.64318">
        <ele>1608.918</ele>
        <time>2021-06-13T11:46:21Z</time>
      </trkpt>
      <trkpt lat="42.70292" lon="1.6432">
        <ele>1609.533</ele>
        <time>2021-06-13T11:46:23Z</time>
      </trkpt>
      <trkpt lat="42.70291" lon="1.64321">
        <ele>1609.445</ele>
        <time>2021-06-13T11:46:25Z</time>
      </trkpt>
      <trkpt lat="42.70291" lon="1.64321">
        <ele>1609.835</ele>
        <time>2021-06-13T11:46:27Z</time>
      </trkpt>
      <trkpt lat="42.70291" lon="1.64323">
        <ele>1610.245</ele>
        <time>2021-06-13T11:46:29Z</time>
      </trkpt>
      <trkpt lat="42.7029" lon="1.64324">
        <ele>1610.752</ele>
        <time>2021-06-13T11:46:31Z</time>
      </trkpt>
      <trkpt lat="42.7029" lon="1.64326">
        <ele>1610.778</ele>
        <time>2021-06-13T11:46:33Z</time>
      </trkpt>
      <trkpt lat="42.7029" lon="1.64327">
        <ele>1610.685</ele>
        <time>2021-06-13T11:46:35Z</time>
      </trkpt>
      <trkpt lat="42.70289" lon="1.64328">
        <ele>1611.417</ele>
        <time>2021-06-13T11:46:37Z</time>
      </trkpt>
      <trkpt lat="42.70288" lon="1.64328">
        <ele>1611.644</ele>
        <time>2021-06-13T11:46:39Z</time>
      </trkpt>
      <trkpt lat="42.70287" lon="1.64329">
        <ele>1611.516</ele>
        <time>2021-06-13T11:46:41Z</time>
      </trkpt>
      <trkpt lat="42.70287" lon="1.64331">
        <ele>1611.485</ele>
        <time>2021-06-13T11:46:43Z</time>
      </trkpt>
      <trkpt lat="42.70286" lon="1.64332">
        <ele>1611.923</ele>
        <time>2021-06-13T11:46:45Z</time>
      </trkpt>
      <trkpt lat="42.70286" lon="1.64333">
        <ele>1612.719</ele>
        <time>2021-06-13T11:46:47Z</time>
      </trkpt>
      <trkpt lat="42.70285" lon="1.64333">
        <ele>1613.021</ele>
        <time>2021-06-13T11:46:49Z</time>
      </trkpt>
      <trkpt lat="42.70284" lon="1.64334">
        <ele>1613.229</ele>
        <time>2021-06-13T11:46:51Z</time>
      </trkpt>
      <trkpt lat="42.70283" lon="1.64335">
        <ele>1613.373</ele>
        <time>2021-06-13T11:46:53Z</time>
      </trkpt>
      <trkpt lat="42.70282" lon="1.64336">
        <ele>1614.301</ele>
        <time>2021-06-13T11:46:55Z</time>
      </trkpt>
      <trkpt lat="42.70282" lon="1.64337">
        <ele>1614.987</ele>
        <time>2021-06-13T11:46:57Z</time>
      </trkpt>
      <trkpt lat="42.70282" lon="1.64338">
        <ele>1615.137</ele>
        <time>2021-06-13T11:46:59Z</time>
      </trkpt>
      <trkpt lat="42.70281" lon="1.64341">
        <ele>1614.549</ele>
        <time>2021-06-13T11:47:01Z</time>
      </trkpt>
      <trkpt lat="42.70281" lon="1.64343">
        <ele>1615.01</ele>
        <time>2021-06-13T11:47:03Z</time>
      </trkpt>
      <trkpt lat="42.70281" lon="1.64344">
        <ele>1614.993</ele>
        <time>2021-06-13T11:47:05Z</time>
      </trkpt>
      <trkpt lat="42.70282" lon="1.64346">
        <ele>1615.041</ele>
        <time>2021-06-13T11:47:07Z</time>
      </trkpt>
      <trkpt lat="42.70282" lon="1.64348">
        <ele>1615.587</ele>
        <time>2021-06-13T11:47:09Z</time>
      </trkpt>
      <trkpt lat="42.70282" lon="1.64348">
        <ele>1615.867</ele>
        <time>2021-06-13T11:47:11Z</time>
      </trkpt>
      <trkpt lat="42.70282" lon="1.6435">
        <ele>1616.079</ele>
        <time>2021-06-13T11:47:13Z</time>
      </trkpt>
      <trkpt lat="42.70281" lon="1.64351">
        <ele>1616.639</ele>
        <time>2021-06-13T11:47:15Z</time>
      </trkpt>
      <trkpt lat="42.70281" lon="1.64353">
        <ele>1616.319</ele>
        <time>2021-06-13T11:47:17Z</time>
      </trkpt>
      <trkpt lat="42.70281" lon="1.64354">
        <ele>1616.792</ele>
        <time>2021-06-13T11:47:19Z</time>
      </trkpt>
      <trkpt lat="42.70281" lon="1.64356">
        <ele>1617.088</ele>
        <time>2021-06-13T11:47:21Z</time>
      </trkpt>
      <trkpt lat="42.70282" lon="1.64358">
        <ele>1616.868</ele>
        <time>2021-06-13T11:47:23Z</time>
      </trkpt>
      <trkpt lat="42.70282" lon="1.64359">
        <ele>1617.561</ele>
        <time>2021-06-13T11:47:25Z</time>
      </trkpt>
      <trkpt lat="42.70282" lon="1.64361">
        <ele>1617.815</ele>
        <time>2021-06-13T11:47:27Z</time>
      </trkpt>
      <trkpt lat="42.70282" lon="1.64362">
        <ele>1618.145</ele>
        <time>2021-06-13T11:47:29Z</time>
      </trkpt>
      <trkpt lat="42.70282" lon="1.64365">
        <ele>1617.866</ele>
        <time>2021-06-13T11:47:31Z</time>
      </trkpt>
      <trkpt lat="42.70282" lon="1.64367">
        <ele>1618.267</ele>
        <time>2021-06-13T11:47:33Z</time>
      </trkpt>
      <trkpt lat="42.70281" lon="1.64369">
        <ele>1618.242</ele>
        <time>2021-06-13T11:47:35Z</time>
      </trkpt>
      <trkpt lat="42.70281" lon="1.64371">
        <ele>1618.852</ele>
        <time>2021-06-13T11:47:37Z</time>
      </trkpt>
      <trkpt lat="42.70281" lon="1.64372">
        <ele>1620.325</ele>
        <time>2021-06-13T11:47:39Z</time>
      </trkpt>
      <trkpt lat="42.70281" lon="1.64374">
        <ele>1619.918</ele>
        <time>2021-06-13T11:47:41Z</time>
      </trkpt>
      <trkpt lat="42.70282" lon="1.64375">
        <ele>1620.886</ele>
        <time>2021-06-13T11:47:43Z</time>
      </trkpt>
      <trkpt lat="42.70282" lon="1.64377">
        <ele>1622.455</ele>
        <time>2021-06-13T11:47:45Z</time>
      </trkpt>
      <trkpt lat="42.70282" lon="1.64379">
        <ele>1622.85</ele>
        <time>2021-06-13T11:47:47Z</time>
      </trkpt>
      <trkpt lat="42.70282" lon="1.6438">
        <ele>1622.643</ele>
        <time>2021-06-13T11:47:49Z</time>
      </trkpt>
      <trkpt lat="42.70282" lon="1.64381">
        <ele>1622.767</ele>
        <time>2021-06-13T11:47:51Z</time>
      </trkpt>
      <trkpt lat="42.70282" lon="1.64382">
        <ele>1623.319</ele>
        <time>2021-06-13T11:47:53Z</time>
      </trkpt>
      <trkpt lat="42.70282" lon="1.64382">
        <ele>1623.308</ele>
        <time>2021-06-13T11:47:55Z</time>
      </trkpt>
      <trkpt lat="42.70282" lon="1.64382">
        <ele>1623.289</ele>
        <time>2021-06-13T11:47:57Z</time>
      </trkpt>
      <trkpt lat="42.70282" lon="1.64382">
        <ele>1623.375</ele>
        <time>2021-06-13T11:47:59Z</time>
      </trkpt>
      <trkpt lat="42.70282" lon="1.64384">
        <ele>1623.896</ele>
        <time>2021-06-13T11:48:01Z</time>
      </trkpt>
      <trkpt lat="42.70283" lon="1.64384">
        <ele>1621.865</ele>
        <time>2021-06-13T11:48:03Z</time>
      </trkpt>
      <trkpt lat="42.70283" lon="1.64385">
        <ele>1622.003</ele>
        <time>2021-06-13T11:48:05Z</time>
      </trkpt>
      <trkpt lat="42.70283" lon="1.64387">
        <ele>1621.801</ele>
        <time>2021-06-13T11:48:07Z</time>
      </trkpt>
      <trkpt lat="42.70283" lon="1.64388">
        <ele>1621.623</ele>
        <time>2021-06-13T11:48:09Z</time>
      </trkpt>
      <trkpt lat="42.70283" lon="1.64389">
        <ele>1621.648</ele>
        <time>2021-06-13T11:48:11Z</time>
      </trkpt>
      <trkpt lat="42.70283" lon="1.64391">
        <ele>1621.835</ele>
        <time>2021-06-13T11:48:13Z</time>
      </trkpt>
      <trkpt lat="42.70283" lon="1.64393">
        <ele>1622.983</ele>
        <time>2021-06-13T11:48:15Z</time>
      </trkpt>
      <trkpt lat="42.70282" lon="1.64394">
        <ele>1622.907</ele>
        <time>2021-06-13T11:48:17Z</time>
      </trkpt>
      <trkpt lat="42.70282" lon="1.64395">
        <ele>1623.113</ele>
        <time>2021-06-13T11:48:19Z</time>
      </trkpt>
      <trkpt lat="42.70282" lon="1.64396">
        <ele>1623.373</ele>
        <time>2021-06-13T11:48:21Z</time>
      </trkpt>
      <trkpt lat="42.70282" lon="1.64398">
        <ele>1623.831</ele>
        <time>2021-06-13T11:48:23Z</time>
      </trkpt>
      <trkpt lat="42.70283" lon="1.64399">
        <ele>1624.46</ele>
        <time>2021-06-13T11:48:25Z</time>
      </trkpt>
      <trkpt lat="42.70283" lon="1.64401">
        <ele>1624.504</ele>
        <time>2021-06-13T11:48:27Z</time>
      </trkpt>
      <trkpt lat="42.70284" lon="1.64402">
        <ele>1623.975</ele>
        <time>2021-06-13T11:48:29Z</time>
      </trkpt>
      <trkpt lat="42.70285" lon="1.64402">
        <ele>1623.314</ele>
        <time>2021-06-13T11:48:31Z</time>
      </trkpt>
      <trkpt lat="42.70286" lon="1.64403">
        <ele>1623.133</ele>
        <time>2021-06-13T11:48:33Z</time>
      </trkpt>
      <trkpt lat="42.70286" lon="1.64405">
        <ele>1623.908</ele>
        <time>2021-06-13T11:48:35Z</time>
      </trkpt>
      <trkpt lat="42.70287" lon="1.64406">
        <ele>1623.192</ele>
        <time>2021-06-13T11:48:37Z</time>
      </trkpt>
      <trkpt lat="42.70288" lon="1.64407">
        <ele>1621.54</ele>
        <time>2021-06-13T11:48:39Z</time>
      </trkpt>
      <trkpt lat="42.70289" lon="1.64408">
        <ele>1621.561</ele>
        <time>2021-06-13T11:48:41Z</time>
      </trkpt>
      <trkpt lat="42.7029" lon="1.6441">
        <ele>1622.13</ele>
        <time>2021-06-13T11:48:43Z</time>
      </trkpt>
      <trkpt lat="42.70291" lon="1.64411">
        <ele>1621.607</ele>
        <time>2021-06-13T11:48:45Z</time>
      </trkpt>
      <trkpt lat="42.70291" lon="1.64413">
        <ele>1621.68</ele>
        <time>2021-06-13T11:48:47Z</time>
      </trkpt>
      <trkpt lat="42.70292" lon="1.64414">
        <ele>1623.244</ele>
        <time>2021-06-13T11:48:49Z</time>
      </trkpt>
      <trkpt lat="42.70293" lon="1.64415">
        <ele>1622.905</ele>
        <time>2021-06-13T11:48:51Z</time>
      </trkpt>
      <trkpt lat="42.70295" lon="1.64415">
        <ele>1621.66</ele>
        <time>2021-06-13T11:48:53Z</time>
      </trkpt>
      <trkpt lat="42.70295" lon="1.64415">
        <ele>1621.611</ele>
        <time>2021-06-13T11:48:55Z</time>
      </trkpt>
      <trkpt lat="42.70296" lon="1.64416">
        <ele>1621.8</ele>
        <time>2021-06-13T11:48:57Z</time>
      </trkpt>
      <trkpt lat="42.70297" lon="1.64417">
        <ele>1623.019</ele>
        <time>2021-06-13T11:48:59Z</time>
      </trkpt>
      <trkpt lat="42.70297" lon="1.64418">
        <ele>1624.633</ele>
        <time>2021-06-13T11:49:01Z</time>
      </trkpt>
      <trkpt lat="42.70297" lon="1.6442">
        <ele>1624.284</ele>
        <time>2021-06-13T11:49:03Z</time>
      </trkpt>
      <trkpt lat="42.70296" lon="1.64422">
        <ele>1625.175</ele>
        <time>2021-06-13T11:49:05Z</time>
      </trkpt>
      <trkpt lat="42.70296" lon="1.64423">
        <ele>1625.623</ele>
        <time>2021-06-13T11:49:07Z</time>
      </trkpt>
      <trkpt lat="42.70297" lon="1.64424">
        <ele>1626.574</ele>
        <time>2021-06-13T11:49:09Z</time>
      </trkpt>
      <trkpt lat="42.70297" lon="1.64426">
        <ele>1628.148</ele>
        <time>2021-06-13T11:49:11Z</time>
      </trkpt>
      <trkpt lat="42.70297" lon="1.64427">
        <ele>1627.38</ele>
        <time>2021-06-13T11:49:13Z</time>
      </trkpt>
      <trkpt lat="42.70298" lon="1.64427">
        <ele>1627.109</ele>
        <time>2021-06-13T11:49:15Z</time>
      </trkpt>
      <trkpt lat="42.70299" lon="1.64427">
        <ele>1627.028</ele>
        <time>2021-06-13T11:49:17Z</time>
      </trkpt>
      <trkpt lat="42.70299" lon="1.64428">
        <ele>1626.552</ele>
        <time>2021-06-13T11:49:19Z</time>
      </trkpt>
      <trkpt lat="42.703" lon="1.64428">
        <ele>1626.089</ele>
        <time>2021-06-13T11:49:21Z</time>
      </trkpt>
      <trkpt lat="42.70301" lon="1.64428">
        <ele>1625.568</ele>
        <time>2021-06-13T11:49:23Z</time>
      </trkpt>
      <trkpt lat="42.70302" lon="1.64429">
        <ele>1625.291</ele>
        <time>2021-06-13T11:49:25Z</time>
      </trkpt>
      <trkpt lat="42.70304" lon="1.64429">
        <ele>1624.095</ele>
        <time>2021-06-13T11:49:27Z</time>
      </trkpt>
      <trkpt lat="42.70304" lon="1.6443">
        <ele>1624.224</ele>
        <time>2021-06-13T11:49:29Z</time>
      </trkpt>
      <trkpt lat="42.70304" lon="1.64431">
        <ele>1624.588</ele>
        <time>2021-06-13T11:49:31Z</time>
      </trkpt>
      <trkpt lat="42.70305" lon="1.64433">
        <ele>1625.695</ele>
        <time>2021-06-13T11:49:33Z</time>
      </trkpt>
      <trkpt lat="42.70306" lon="1.64434">
        <ele>1626.517</ele>
        <time>2021-06-13T11:49:35Z</time>
      </trkpt>
      <trkpt lat="42.70307" lon="1.64436">
        <ele>1626.983</ele>
        <time>2021-06-13T11:49:37Z</time>
      </trkpt>
      <trkpt lat="42.70308" lon="1.64437">
        <ele>1627.093</ele>
        <time>2021-06-13T11:49:39Z</time>
      </trkpt>
      <trkpt lat="42.70309" lon="1.64438">
        <ele>1625.586</ele>
        <time>2021-06-13T11:49:41Z</time>
      </trkpt>
      <trkpt lat="42.70309" lon="1.6444">
        <ele>1625.352</ele>
        <time>2021-06-13T11:49:43Z</time>
      </trkpt>
      <trkpt lat="42.7031" lon="1.64442">
        <ele>1626.546</ele>
        <time>2021-06-13T11:49:45Z</time>
      </trkpt>
      <trkpt lat="42.70311" lon="1.64443">
        <ele>1627.696</ele>
        <time>2021-06-13T11:49:47Z</time>
      </trkpt>
      <trkpt lat="42.70312" lon="1.64443">
        <ele>1628.677</ele>
        <time>2021-06-13T11:49:49Z</time>
      </trkpt>
      <trkpt lat="42.70314" lon="1.64444">
        <ele>1629.377</ele>
        <time>2021-06-13T11:49:51Z</time>
      </trkpt>
      <trkpt lat="42.70314" lon="1.64445">
        <ele>1630.617</ele>
        <time>2021-06-13T11:49:53Z</time>
      </trkpt>
      <trkpt lat="42.70315" lon="1.64447">
        <ele>1630.394</ele>
        <time>2021-06-13T11:49:55Z</time>
      </trkpt>
      <trkpt lat="42.70316" lon="1.64448">
        <ele>1630.374</ele>
        <time>2021-06-13T11:49:56Z</time>
      </trkpt>
      <trkpt lat="42.70317" lon="1.6445">
        <ele>1631.654</ele>
        <time>2021-06-13T11:49:59Z</time>
      </trkpt>
      <trkpt lat="42.70317" lon="1.64451">
        <ele>1632.864</ele>
        <time>2021-06-13T11:50:01Z</time>
      </trkpt>
      <trkpt lat="42.70318" lon="1.64453">
        <ele>1633.89</ele>
        <time>2021-06-13T11:50:03Z</time>
      </trkpt>
      <trkpt lat="42.70319" lon="1.64453">
        <ele>1633.839</ele>
        <time>2021-06-13T11:50:05Z</time>
      </trkpt>
      <trkpt lat="42.70319" lon="1.64453">
        <ele>1634.012</ele>
        <time>2021-06-13T11:50:07Z</time>
      </trkpt>
      <trkpt lat="42.70319" lon="1.64454">
        <ele>1633.967</ele>
        <time>2021-06-13T11:50:09Z</time>
      </trkpt>
      <trkpt lat="42.70319" lon="1.64455">
        <ele>1634.111</ele>
        <time>2021-06-13T11:50:11Z</time>
      </trkpt>
      <trkpt lat="42.70319" lon="1.64456">
        <ele>1633.753</ele>
        <time>2021-06-13T11:50:13Z</time>
      </trkpt>
      <trkpt lat="42.7032" lon="1.64458">
        <ele>1633.982</ele>
        <time>2021-06-13T11:50:15Z</time>
      </trkpt>
      <trkpt lat="42.7032" lon="1.6446">
        <ele>1632.342</ele>
        <time>2021-06-13T11:50:17Z</time>
      </trkpt>
      <trkpt lat="42.7032" lon="1.6446">
        <ele>1632.325</ele>
        <time>2021-06-13T11:50:19Z</time>
      </trkpt>
      <trkpt lat="42.7032" lon="1.6446">
        <ele>1632.311</ele>
        <time>2021-06-13T11:50:21Z</time>
      </trkpt>
      <trkpt lat="42.7032" lon="1.6446">
        <ele>1632.313</ele>
        <time>2021-06-13T11:50:23Z</time>
      </trkpt>
      <trkpt lat="42.7032" lon="1.6446">
        <ele>1632.326</ele>
        <time>2021-06-13T11:50:25Z</time>
      </trkpt>
      <trkpt lat="42.7032" lon="1.6446">
        <ele>1632.323</ele>
        <time>2021-06-13T11:50:26Z</time>
      </trkpt>
      <trkpt lat="42.7032" lon="1.6446">
        <ele>1632.293</ele>
        <time>2021-06-13T11:50:29Z</time>
      </trkpt>
      <trkpt lat="42.70319" lon="1.6446">
        <ele>1632.28</ele>
        <time>2021-06-13T11:50:31Z</time>
      </trkpt>
      <trkpt lat="42.70319" lon="1.6446">
        <ele>1632.271</ele>
        <time>2021-06-13T11:50:33Z</time>
      </trkpt>
      <trkpt lat="42.70319" lon="1.6446">
        <ele>1632.26</ele>
        <time>2021-06-13T11:50:35Z</time>
      </trkpt>
      <trkpt lat="42.70319" lon="1.6446">
        <ele>1632.253</ele>
        <time>2021-06-13T11:50:36Z</time>
      </trkpt>
      <trkpt lat="42.70319" lon="1.6446">
        <ele>1632.225</ele>
        <time>2021-06-13T11:50:39Z</time>
      </trkpt>
      <trkpt lat="42.70319" lon="1.6446">
        <ele>1632.222</ele>
        <time>2021-06-13T11:50:41Z</time>
      </trkpt>
      <trkpt lat="42.70319" lon="1.6446">
        <ele>1632.209</ele>
        <time>2021-06-13T11:50:43Z</time>
      </trkpt>
      <trkpt lat="42.70319" lon="1.6446">
        <ele>1632.211</ele>
        <time>2021-06-13T11:50:45Z</time>
      </trkpt>
      <trkpt lat="42.70319" lon="1.6446">
        <ele>1632.219</ele>
        <time>2021-06-13T11:50:46Z</time>
      </trkpt>
      <trkpt lat="42.70319" lon="1.6446">
        <ele>1632.212</ele>
        <time>2021-06-13T11:50:49Z</time>
      </trkpt>
      <trkpt lat="42.70319" lon="1.6446">
        <ele>1632.214</ele>
        <time>2021-06-13T11:50:51Z</time>
      </trkpt>
      <trkpt lat="42.70319" lon="1.6446">
        <ele>1632.221</ele>
        <time>2021-06-13T11:50:53Z</time>
      </trkpt>
      <trkpt lat="42.70319" lon="1.6446">
        <ele>1632.242</ele>
        <time>2021-06-13T11:50:55Z</time>
      </trkpt>
      <trkpt lat="42.70319" lon="1.6446">
        <ele>1632.237</ele>
        <time>2021-06-13T11:50:56Z</time>
      </trkpt>
      <trkpt lat="42.70319" lon="1.6446">
        <ele>1632.243</ele>
        <time>2021-06-13T11:50:59Z</time>
      </trkpt>
      <trkpt lat="42.70319" lon="1.6446">
        <ele>1632.272</ele>
        <time>2021-06-13T11:51:01Z</time>
      </trkpt>
      <trkpt lat="42.70319" lon="1.6446">
        <ele>1632.29</ele>
        <time>2021-06-13T11:51:03Z</time>
      </trkpt>
      <trkpt lat="42.70319" lon="1.6446">
        <ele>1632.295</ele>
        <time>2021-06-13T11:51:05Z</time>
      </trkpt>
      <trkpt lat="42.70319" lon="1.6446">
        <ele>1632.3</ele>
        <time>2021-06-13T11:51:06Z</time>
      </trkpt>
      <trkpt lat="42.70319" lon="1.6446">
        <ele>1632.32</ele>
        <time>2021-06-13T11:51:09Z</time>
      </trkpt>
      <trkpt lat="42.70319" lon="1.6446">
        <ele>1632.318</ele>
        <time>2021-06-13T11:51:11Z</time>
      </trkpt>
      <trkpt lat="42.70319" lon="1.6446">
        <ele>1632.319</ele>
        <time>2021-06-13T11:51:13Z</time>
      </trkpt>
      <trkpt lat="42.70319" lon="1.6446">
        <ele>1632.321</ele>
        <time>2021-06-13T11:51:15Z</time>
      </trkpt>
      <trkpt lat="42.70319" lon="1.6446">
        <ele>1632.332</ele>
        <time>2021-06-13T11:51:17Z</time>
      </trkpt>
      <trkpt lat="42.70319" lon="1.6446">
        <ele>1632.332</ele>
        <time>2021-06-13T11:51:19Z</time>
      </trkpt>
      <trkpt lat="42.70319" lon="1.6446">
        <ele>1632.331</ele>
        <time>2021-06-13T11:51:21Z</time>
      </trkpt>
      <trkpt lat="42.70319" lon="1.6446">
        <ele>1632.338</ele>
        <time>2021-06-13T11:51:23Z</time>
      </trkpt>
      <trkpt lat="42.70319" lon="1.6446">
        <ele>1632.335</ele>
        <time>2021-06-13T11:51:25Z</time>
      </trkpt>
      <trkpt lat="42.70319" lon="1.6446">
        <ele>1632.333</ele>
        <time>2021-06-13T11:51:26Z</time>
      </trkpt>
      <trkpt lat="42.70319" lon="1.6446">
        <ele>1632.316</ele>
        <time>2021-06-13T11:51:29Z</time>
      </trkpt>
      <trkpt lat="42.70319" lon="1.6446">
        <ele>1632.308</ele>
        <time>2021-06-13T11:51:31Z</time>
      </trkpt>
      <trkpt lat="42.70319" lon="1.6446">
        <ele>1632.301</ele>
        <time>2021-06-13T11:51:33Z</time>
      </trkpt>
      <trkpt lat="42.70319" lon="1.6446">
        <ele>1632.297</ele>
        <time>2021-06-13T11:51:35Z</time>
      </trkpt>
      <trkpt lat="42.70319" lon="1.6446">
        <ele>1632.285</ele>
        <time>2021-06-13T11:51:37Z</time>
      </trkpt>
      <trkpt lat="42.70319" lon="1.6446">
        <ele>1632.299</ele>
        <time>2021-06-13T11:51:39Z</time>
      </trkpt>
      <trkpt lat="42.70319" lon="1.6446">
        <ele>1632.302</ele>
        <time>2021-06-13T11:51:41Z</time>
      </trkpt>
      <trkpt lat="42.70319" lon="1.6446">
        <ele>1632.286</ele>
        <time>2021-06-13T11:51:43Z</time>
      </trkpt>
      <trkpt lat="42.70319" lon="1.6446">
        <ele>1632.296</ele>
        <time>2021-06-13T11:51:45Z</time>
      </trkpt>
      <trkpt lat="42.70319" lon="1.6446">
        <ele>1632.298</ele>
        <time>2021-06-13T11:51:47Z</time>
      </trkpt>
      <trkpt lat="42.70319" lon="1.6446">
        <ele>1632.312</ele>
        <time>2021-06-13T11:51:49Z</time>
      </trkpt>
      <trkpt lat="42.70319" lon="1.6446">
        <ele>1632.32</ele>
        <time>2021-06-13T11:51:51Z</time>
      </trkpt>
      <trkpt lat="42.70319" lon="1.6446">
        <ele>1632.329</ele>
        <time>2021-06-13T11:51:53Z</time>
      </trkpt>
      <trkpt lat="42.70319" lon="1.6446">
        <ele>1632.337</ele>
        <time>2021-06-13T11:51:55Z</time>
      </trkpt>
      <trkpt lat="42.70319" lon="1.6446">
        <ele>1632.342</ele>
        <time>2021-06-13T11:51:57Z</time>
      </trkpt>
      <trkpt lat="42.70319" lon="1.6446">
        <ele>1632.358</ele>
        <time>2021-06-13T11:51:59Z</time>
      </trkpt>
      <trkpt lat="42.70319" lon="1.6446">
        <ele>1632.365</ele>
        <time>2021-06-13T11:52:01Z</time>
      </trkpt>
      <trkpt lat="42.70319" lon="1.6446">
        <ele>1632.357</ele>
        <time>2021-06-13T11:52:03Z</time>
      </trkpt>
      <trkpt lat="42.70319" lon="1.6446">
        <ele>1632.625</ele>
        <time>2021-06-13T11:52:05Z</time>
      </trkpt>
      <trkpt lat="42.70319" lon="1.64461">
        <ele>1632.252</ele>
        <time>2021-06-13T11:52:07Z</time>
      </trkpt>
      <trkpt lat="42.70318" lon="1.64463">
        <ele>1631.87</ele>
        <time>2021-06-13T11:52:09Z</time>
      </trkpt>
      <trkpt lat="42.70317" lon="1.64465">
        <ele>1632.935</ele>
        <time>2021-06-13T11:52:11Z</time>
      </trkpt>
      <trkpt lat="42.70318" lon="1.64467">
        <ele>1632.698</ele>
        <time>2021-06-13T11:52:13Z</time>
      </trkpt>
      <trkpt lat="42.70318" lon="1.64469">
        <ele>1633.095</ele>
        <time>2021-06-13T11:52:15Z</time>
      </trkpt>
      <trkpt lat="42.70319" lon="1.64471">
        <ele>1634.036</ele>
        <time>2021-06-13T11:52:17Z</time>
      </trkpt>
      <trkpt lat="42.70318" lon="1.64474">
        <ele>1634.021</ele>
        <time>2021-06-13T11:52:19Z</time>
      </trkpt>
      <trkpt lat="42.70318" lon="1.64475">
        <ele>1635.069</ele>
        <time>2021-06-13T11:52:21Z</time>
      </trkpt>
      <trkpt lat="42.70319" lon="1.64477">
        <ele>1635.51</ele>
        <time>2021-06-13T11:52:23Z</time>
      </trkpt>
      <trkpt lat="42.70319" lon="1.64479">
        <ele>1636.849</ele>
        <time>2021-06-13T11:52:25Z</time>
      </trkpt>
      <trkpt lat="42.70319" lon="1.6448">
        <ele>1637.356</ele>
        <time>2021-06-13T11:52:27Z</time>
      </trkpt>
      <trkpt lat="42.70319" lon="1.64482">
        <ele>1637.189</ele>
        <time>2021-06-13T11:52:29Z</time>
      </trkpt>
      <trkpt lat="42.70319" lon="1.64484">
        <ele>1639.065</ele>
        <time>2021-06-13T11:52:31Z</time>
      </trkpt>
      <trkpt lat="42.7032" lon="1.64486">
        <ele>1638.688</ele>
        <time>2021-06-13T11:52:33Z</time>
      </trkpt>
      <trkpt lat="42.7032" lon="1.64487">
        <ele>1638.738</ele>
        <time>2021-06-13T11:52:35Z</time>
      </trkpt>
      <trkpt lat="42.70319" lon="1.64488">
        <ele>1637.573</ele>
        <time>2021-06-13T11:52:37Z</time>
      </trkpt>
      <trkpt lat="42.70318" lon="1.64488">
        <ele>1638.063</ele>
        <time>2021-06-13T11:52:39Z</time>
      </trkpt>
      <trkpt lat="42.70317" lon="1.64489">
        <ele>1638.566</ele>
        <time>2021-06-13T11:52:41Z</time>
      </trkpt>
      <trkpt lat="42.70316" lon="1.6449">
        <ele>1639.136</ele>
        <time>2021-06-13T11:52:43Z</time>
      </trkpt>
      <trkpt lat="42.70316" lon="1.6449">
        <ele>1639.136</ele>
        <time>2021-06-13T11:52:45Z</time>
      </trkpt>
      <trkpt lat="42.70315" lon="1.64491">
        <ele>1640.053</ele>
        <time>2021-06-13T11:52:47Z</time>
      </trkpt>
      <trkpt lat="42.70314" lon="1.64493">
        <ele>1641.419</ele>
        <time>2021-06-13T11:52:49Z</time>
      </trkpt>
      <trkpt lat="42.70315" lon="1.64494">
        <ele>1640.687</ele>
        <time>2021-06-13T11:52:51Z</time>
      </trkpt>
      <trkpt lat="42.70315" lon="1.64495">
        <ele>1641.741</ele>
        <time>2021-06-13T11:52:53Z</time>
      </trkpt>
      <trkpt lat="42.70315" lon="1.64496">
        <ele>1641.761</ele>
        <time>2021-06-13T11:52:55Z</time>
      </trkpt>
      <trkpt lat="42.70316" lon="1.64498">
        <ele>1643.347</ele>
        <time>2021-06-13T11:52:57Z</time>
      </trkpt>
      <trkpt lat="42.70316" lon="1.64499">
        <ele>1642.013</ele>
        <time>2021-06-13T11:52:59Z</time>
      </trkpt>
      <trkpt lat="42.70316" lon="1.645">
        <ele>1642</ele>
        <time>2021-06-13T11:53:01Z</time>
      </trkpt>
      <trkpt lat="42.70315" lon="1.64501">
        <ele>1642.754</ele>
        <time>2021-06-13T11:53:03Z</time>
      </trkpt>
      <trkpt lat="42.70315" lon="1.64502">
        <ele>1644.55</ele>
        <time>2021-06-13T11:53:05Z</time>
      </trkpt>
      <trkpt lat="42.70316" lon="1.64503">
        <ele>1645.214</ele>
        <time>2021-06-13T11:53:07Z</time>
      </trkpt>
      <trkpt lat="42.70316" lon="1.64503">
        <ele>1645.084</ele>
        <time>2021-06-13T11:53:09Z</time>
      </trkpt>
      <trkpt lat="42.70316" lon="1.64504">
        <ele>1645.287</ele>
        <time>2021-06-13T11:53:11Z</time>
      </trkpt>
      <trkpt lat="42.70317" lon="1.64505">
        <ele>1646.264</ele>
        <time>2021-06-13T11:53:13Z</time>
      </trkpt>
      <trkpt lat="42.70317" lon="1.64506">
        <ele>1646.337</ele>
        <time>2021-06-13T11:53:15Z</time>
      </trkpt>
      <trkpt lat="42.70317" lon="1.64507">
        <ele>1645.991</ele>
        <time>2021-06-13T11:53:17Z</time>
      </trkpt>
      <trkpt lat="42.70318" lon="1.64509">
        <ele>1646.615</ele>
        <time>2021-06-13T11:53:19Z</time>
      </trkpt>
      <trkpt lat="42.70318" lon="1.64511">
        <ele>1648.089</ele>
        <time>2021-06-13T11:53:21Z</time>
      </trkpt>
      <trkpt lat="42.70319" lon="1.64512">
        <ele>1647.219</ele>
        <time>2021-06-13T11:53:23Z</time>
      </trkpt>
      <trkpt lat="42.7032" lon="1.64512">
        <ele>1646.598</ele>
        <time>2021-06-13T11:53:25Z</time>
      </trkpt>
      <trkpt lat="42.70321" lon="1.64514">
        <ele>1643.84</ele>
        <time>2021-06-13T11:53:27Z</time>
      </trkpt>
      <trkpt lat="42.7032" lon="1.64514">
        <ele>1644.001</ele>
        <time>2021-06-13T11:53:29Z</time>
      </trkpt>
      <trkpt lat="42.7032" lon="1.64514">
        <ele>1644.008</ele>
        <time>2021-06-13T11:53:31Z</time>
      </trkpt>
      <trkpt lat="42.7032" lon="1.64514">
        <ele>1644.016</ele>
        <time>2021-06-13T11:53:33Z</time>
      </trkpt>
      <trkpt lat="42.7032" lon="1.64514">
        <ele>1644.018</ele>
        <time>2021-06-13T11:53:35Z</time>
      </trkpt>
      <trkpt lat="42.7032" lon="1.64514">
        <ele>1644.015</ele>
        <time>2021-06-13T11:53:37Z</time>
      </trkpt>
      <trkpt lat="42.7032" lon="1.64514">
        <ele>1644.012</ele>
        <time>2021-06-13T11:53:39Z</time>
      </trkpt>
      <trkpt lat="42.7032" lon="1.64514">
        <ele>1644.014</ele>
        <time>2021-06-13T11:53:41Z</time>
      </trkpt>
      <trkpt lat="42.7032" lon="1.64514">
        <ele>1644.019</ele>
        <time>2021-06-13T11:53:43Z</time>
      </trkpt>
      <trkpt lat="42.7032" lon="1.64514">
        <ele>1644.026</ele>
        <time>2021-06-13T11:53:45Z</time>
      </trkpt>
      <trkpt lat="42.7032" lon="1.64515">
        <ele>1644.196</ele>
        <time>2021-06-13T11:53:47Z</time>
      </trkpt>
      <trkpt lat="42.70319" lon="1.64516">
        <ele>1643.645</ele>
        <time>2021-06-13T11:53:49Z</time>
      </trkpt>
      <trkpt lat="42.70318" lon="1.64517">
        <ele>1643.161</ele>
        <time>2021-06-13T11:53:51Z</time>
      </trkpt>
      <trkpt lat="42.70318" lon="1.64519">
        <ele>1642.497</ele>
        <time>2021-06-13T11:53:53Z</time>
      </trkpt>
      <trkpt lat="42.70319" lon="1.64521">
        <ele>1640.881</ele>
        <time>2021-06-13T11:53:55Z</time>
      </trkpt>
      <trkpt lat="42.70319" lon="1.64522">
        <ele>1640.907</ele>
        <time>2021-06-13T11:53:57Z</time>
      </trkpt>
      <trkpt lat="42.7032" lon="1.64523">
        <ele>1641.16</ele>
        <time>2021-06-13T11:53:59Z</time>
      </trkpt>
      <trkpt lat="42.70321" lon="1.64525">
        <ele>1643.138</ele>
        <time>2021-06-13T11:54:01Z</time>
      </trkpt>
      <trkpt lat="42.70322" lon="1.64526">
        <ele>1642.282</ele>
        <time>2021-06-13T11:54:03Z</time>
      </trkpt>
      <trkpt lat="42.70322" lon="1.64528">
        <ele>1642.493</ele>
        <time>2021-06-13T11:54:05Z</time>
      </trkpt>
      <trkpt lat="42.70323" lon="1.64529">
        <ele>1641.883</ele>
        <time>2021-06-13T11:54:07Z</time>
      </trkpt>
      <trkpt lat="42.70323" lon="1.6453">
        <ele>1641.592</ele>
        <time>2021-06-13T11:54:09Z</time>
      </trkpt>
      <trkpt lat="42.70323" lon="1.64531">
        <ele>1642.584</ele>
        <time>2021-06-13T11:54:11Z</time>
      </trkpt>
      <trkpt lat="42.70323" lon="1.64532">
        <ele>1642.3</ele>
        <time>2021-06-13T11:54:13Z</time>
      </trkpt>
      <trkpt lat="42.70323" lon="1.64533">
        <ele>1643.14</ele>
        <time>2021-06-13T11:54:15Z</time>
      </trkpt>
      <trkpt lat="42.70323" lon="1.64534">
        <ele>1645.372</ele>
        <time>2021-06-13T11:54:17Z</time>
      </trkpt>
      <trkpt lat="42.70323" lon="1.64536">
        <ele>1645.918</ele>
        <time>2021-06-13T11:54:19Z</time>
      </trkpt>
      <trkpt lat="42.70323" lon="1.64537">
        <ele>1645.795</ele>
        <time>2021-06-13T11:54:21Z</time>
      </trkpt>
      <trkpt lat="42.70323" lon="1.64539">
        <ele>1645.835</ele>
        <time>2021-06-13T11:54:23Z</time>
      </trkpt>
      <trkpt lat="42.70323" lon="1.64539">
        <ele>1646.042</ele>
        <time>2021-06-13T11:54:25Z</time>
      </trkpt>
      <trkpt lat="42.70323" lon="1.6454">
        <ele>1646.32</ele>
        <time>2021-06-13T11:54:27Z</time>
      </trkpt>
      <trkpt lat="42.70323" lon="1.64542">
        <ele>1647.035</ele>
        <time>2021-06-13T11:54:29Z</time>
      </trkpt>
      <trkpt lat="42.70324" lon="1.64543">
        <ele>1648.33</ele>
        <time>2021-06-13T11:54:31Z</time>
      </trkpt>
      <trkpt lat="42.70324" lon="1.64543">
        <ele>1648.209</ele>
        <time>2021-06-13T11:54:33Z</time>
      </trkpt>
      <trkpt lat="42.70325" lon="1.64544">
        <ele>1648.587</ele>
        <time>2021-06-13T11:54:35Z</time>
      </trkpt>
      <trkpt lat="42.70325" lon="1.64545">
        <ele>1647.747</ele>
        <time>2021-06-13T11:54:37Z</time>
      </trkpt>
      <trkpt lat="42.70323" lon="1.64545">
        <ele>1647.949</ele>
        <time>2021-06-13T11:54:39Z</time>
      </trkpt>
      <trkpt lat="42.70322" lon="1.64545">
        <ele>1647.28</ele>
        <time>2021-06-13T11:54:41Z</time>
      </trkpt>
      <trkpt lat="42.7032" lon="1.64546">
        <ele>1647.094</ele>
        <time>2021-06-13T11:54:43Z</time>
      </trkpt>
      <trkpt lat="42.70319" lon="1.64547">
        <ele>1647.384</ele>
        <time>2021-06-13T11:54:45Z</time>
      </trkpt>
      <trkpt lat="42.70318" lon="1.64548">
        <ele>1647.535</ele>
        <time>2021-06-13T11:54:47Z</time>
      </trkpt>
      <trkpt lat="42.70318" lon="1.64549">
        <ele>1648.963</ele>
        <time>2021-06-13T11:54:49Z</time>
      </trkpt>
      <trkpt lat="42.70318" lon="1.6455">
        <ele>1650.056</ele>
        <time>2021-06-13T11:54:51Z</time>
      </trkpt>
      <trkpt lat="42.70317" lon="1.64551">
        <ele>1649.924</ele>
        <time>2021-06-13T11:54:53Z</time>
      </trkpt>
      <trkpt lat="42.70316" lon="1.64552">
        <ele>1650.226</ele>
        <time>2021-06-13T11:54:55Z</time>
      </trkpt>
      <trkpt lat="42.70315" lon="1.64554">
        <ele>1650.234</ele>
        <time>2021-06-13T11:54:57Z</time>
      </trkpt>
      <trkpt lat="42.70314" lon="1.64556">
        <ele>1651.13</ele>
        <time>2021-06-13T11:54:59Z</time>
      </trkpt>
      <trkpt lat="42.70314" lon="1.64557">
        <ele>1650.698</ele>
        <time>2021-06-13T11:55:01Z</time>
      </trkpt>
      <trkpt lat="42.70313" lon="1.64558">
        <ele>1650.997</ele>
        <time>2021-06-13T11:55:03Z</time>
      </trkpt>
      <trkpt lat="42.70311" lon="1.64559">
        <ele>1651.85</ele>
        <time>2021-06-13T11:55:05Z</time>
      </trkpt>
      <trkpt lat="42.7031" lon="1.64561">
        <ele>1652.014</ele>
        <time>2021-06-13T11:55:07Z</time>
      </trkpt>
      <trkpt lat="42.70309" lon="1.64562">
        <ele>1651.736</ele>
        <time>2021-06-13T11:55:09Z</time>
      </trkpt>
      <trkpt lat="42.70308" lon="1.64563">
        <ele>1652.997</ele>
        <time>2021-06-13T11:55:11Z</time>
      </trkpt>
      <trkpt lat="42.70307" lon="1.64565">
        <ele>1652.677</ele>
        <time>2021-06-13T11:55:13Z</time>
      </trkpt>
      <trkpt lat="42.70306" lon="1.64566">
        <ele>1653.749</ele>
        <time>2021-06-13T11:55:15Z</time>
      </trkpt>
      <trkpt lat="42.70305" lon="1.64567">
        <ele>1654.629</ele>
        <time>2021-06-13T11:55:17Z</time>
      </trkpt>
      <trkpt lat="42.70305" lon="1.64568">
        <ele>1655.065</ele>
        <time>2021-06-13T11:55:19Z</time>
      </trkpt>
      <trkpt lat="42.70305" lon="1.64568">
        <ele>1655.697</ele>
        <time>2021-06-13T11:55:21Z</time>
      </trkpt>
      <trkpt lat="42.70305" lon="1.64568">
        <ele>1655.697</ele>
        <time>2021-06-13T11:55:23Z</time>
      </trkpt>
      <trkpt lat="42.70304" lon="1.64569">
        <ele>1656.054</ele>
        <time>2021-06-13T11:55:25Z</time>
      </trkpt>
      <trkpt lat="42.70303" lon="1.6457">
        <ele>1655.397</ele>
        <time>2021-06-13T11:55:27Z</time>
      </trkpt>
      <trkpt lat="42.70303" lon="1.64571">
        <ele>1656.204</ele>
        <time>2021-06-13T11:55:29Z</time>
      </trkpt>
      <trkpt lat="42.70302" lon="1.64571">
        <ele>1656.95</ele>
        <time>2021-06-13T11:55:31Z</time>
      </trkpt>
      <trkpt lat="42.70301" lon="1.64572">
        <ele>1657.855</ele>
        <time>2021-06-13T11:55:33Z</time>
      </trkpt>
      <trkpt lat="42.703" lon="1.64573">
        <ele>1657.943</ele>
        <time>2021-06-13T11:55:35Z</time>
      </trkpt>
      <trkpt lat="42.70299" lon="1.64575">
        <ele>1658.81</ele>
        <time>2021-06-13T11:55:37Z</time>
      </trkpt>
      <trkpt lat="42.70299" lon="1.64577">
        <ele>1659.841</ele>
        <time>2021-06-13T11:55:39Z</time>
      </trkpt>
      <trkpt lat="42.70299" lon="1.64578">
        <ele>1660.69</ele>
        <time>2021-06-13T11:55:41Z</time>
      </trkpt>
      <trkpt lat="42.70299" lon="1.64578">
        <ele>1661.025</ele>
        <time>2021-06-13T11:55:43Z</time>
      </trkpt>
      <trkpt lat="42.70299" lon="1.64579">
        <ele>1661.235</ele>
        <time>2021-06-13T11:55:45Z</time>
      </trkpt>
      <trkpt lat="42.70299" lon="1.6458">
        <ele>1661.401</ele>
        <time>2021-06-13T11:55:47Z</time>
      </trkpt>
      <trkpt lat="42.70299" lon="1.64582">
        <ele>1661.589</ele>
        <time>2021-06-13T11:55:49Z</time>
      </trkpt>
      <trkpt lat="42.70299" lon="1.64583">
        <ele>1662.621</ele>
        <time>2021-06-13T11:55:51Z</time>
      </trkpt>
      <trkpt lat="42.70297" lon="1.64584">
        <ele>1663.508</ele>
        <time>2021-06-13T11:55:53Z</time>
      </trkpt>
      <trkpt lat="42.70296" lon="1.64586">
        <ele>1663.431</ele>
        <time>2021-06-13T11:55:55Z</time>
      </trkpt>
      <trkpt lat="42.70296" lon="1.64588">
        <ele>1663.656</ele>
        <time>2021-06-13T11:55:57Z</time>
      </trkpt>
      <trkpt lat="42.70297" lon="1.64588">
        <ele>1662.773</ele>
        <time>2021-06-13T11:55:59Z</time>
      </trkpt>
      <trkpt lat="42.70297" lon="1.64588">
        <ele>1662.794</ele>
        <time>2021-06-13T11:56:01Z</time>
      </trkpt>
      <trkpt lat="42.70297" lon="1.64588">
        <ele>1663.268</ele>
        <time>2021-06-13T11:56:03Z</time>
      </trkpt>
      <trkpt lat="42.70297" lon="1.64589">
        <ele>1663.279</ele>
        <time>2021-06-13T11:56:05Z</time>
      </trkpt>
      <trkpt lat="42.70297" lon="1.64589">
        <ele>1663.282</ele>
        <time>2021-06-13T11:56:07Z</time>
      </trkpt>
      <trkpt lat="42.70297" lon="1.64589">
        <ele>1663.29</ele>
        <time>2021-06-13T11:56:09Z</time>
      </trkpt>
      <trkpt lat="42.70297" lon="1.64589">
        <ele>1663.291</ele>
        <time>2021-06-13T11:56:11Z</time>
      </trkpt>
      <trkpt lat="42.70297" lon="1.64589">
        <ele>1663.296</ele>
        <time>2021-06-13T11:56:13Z</time>
      </trkpt>
      <trkpt lat="42.70297" lon="1.64588">
        <ele>1663.389</ele>
        <time>2021-06-13T11:56:15Z</time>
      </trkpt>
      <trkpt lat="42.70297" lon="1.64588">
        <ele>1663.394</ele>
        <time>2021-06-13T11:56:17Z</time>
      </trkpt>
      <trkpt lat="42.70297" lon="1.64588">
        <ele>1663.175</ele>
        <time>2021-06-13T11:56:19Z</time>
      </trkpt>
      <trkpt lat="42.70297" lon="1.64588">
        <ele>1663.353</ele>
        <time>2021-06-13T11:56:21Z</time>
      </trkpt>
      <trkpt lat="42.70297" lon="1.64588">
        <ele>1663.537</ele>
        <time>2021-06-13T11:56:23Z</time>
      </trkpt>
      <trkpt lat="42.70297" lon="1.64588">
        <ele>1663.538</ele>
        <time>2021-06-13T11:56:25Z</time>
      </trkpt>
      <trkpt lat="42.70297" lon="1.64588">
        <ele>1663.934</ele>
        <time>2021-06-13T11:56:27Z</time>
      </trkpt>
      <trkpt lat="42.70297" lon="1.64588">
        <ele>1663.938</ele>
        <time>2021-06-13T11:56:29Z</time>
      </trkpt>
      <trkpt lat="42.70297" lon="1.64588">
        <ele>1663.968</ele>
        <time>2021-06-13T11:56:31Z</time>
      </trkpt>
      <trkpt lat="42.70297" lon="1.64589">
        <ele>1663.731</ele>
        <time>2021-06-13T11:56:33Z</time>
      </trkpt>
      <trkpt lat="42.70296" lon="1.6459">
        <ele>1663.82</ele>
        <time>2021-06-13T11:56:35Z</time>
      </trkpt>
      <trkpt lat="42.70295" lon="1.64592">
        <ele>1664.387</ele>
        <time>2021-06-13T11:56:37Z</time>
      </trkpt>
      <trkpt lat="42.70294" lon="1.64593">
        <ele>1664.382</ele>
        <time>2021-06-13T11:56:39Z</time>
      </trkpt>
      <trkpt lat="42.70294" lon="1.64595">
        <ele>1663.84</ele>
        <time>2021-06-13T11:56:41Z</time>
      </trkpt>
      <trkpt lat="42.70294" lon="1.64596">
        <ele>1664.431</ele>
        <time>2021-06-13T11:56:43Z</time>
      </trkpt>
      <trkpt lat="42.70293" lon="1.64598">
        <ele>1664.652</ele>
        <time>2021-06-13T11:56:45Z</time>
      </trkpt>
      <trkpt lat="42.70293" lon="1.646">
        <ele>1665.649</ele>
        <time>2021-06-13T11:56:47Z</time>
      </trkpt>
      <trkpt lat="42.70292" lon="1.64601">
        <ele>1666.329</ele>
        <time>2021-06-13T11:56:49Z</time>
      </trkpt>
      <trkpt lat="42.70291" lon="1.64603">
        <ele>1666.297</ele>
        <time>2021-06-13T11:56:51Z</time>
      </trkpt>
      <trkpt lat="42.7029" lon="1.64604">
        <ele>1667.32</ele>
        <time>2021-06-13T11:56:53Z</time>
      </trkpt>
      <trkpt lat="42.70289" lon="1.64605">
        <ele>1668.247</ele>
        <time>2021-06-13T11:56:55Z</time>
      </trkpt>
      <trkpt lat="42.70288" lon="1.64606">
        <ele>1668.516</ele>
        <time>2021-06-13T11:56:57Z</time>
      </trkpt>
      <trkpt lat="42.70287" lon="1.64606">
        <ele>1669.662</ele>
        <time>2021-06-13T11:56:59Z</time>
      </trkpt>
      <trkpt lat="42.70286" lon="1.64608">
        <ele>1669.499</ele>
        <time>2021-06-13T11:57:01Z</time>
      </trkpt>
      <trkpt lat="42.70285" lon="1.64608">
        <ele>1669.763</ele>
        <time>2021-06-13T11:57:03Z</time>
      </trkpt>
      <trkpt lat="42.70285" lon="1.64609">
        <ele>1669.758</ele>
        <time>2021-06-13T11:57:05Z</time>
      </trkpt>
      <trkpt lat="42.70283" lon="1.64609">
        <ele>1669.564</ele>
        <time>2021-06-13T11:57:07Z</time>
      </trkpt>
      <trkpt lat="42.70282" lon="1.64609">
        <ele>1669.892</ele>
        <time>2021-06-13T11:57:09Z</time>
      </trkpt>
      <trkpt lat="42.70281" lon="1.6461">
        <ele>1669.797</ele>
        <time>2021-06-13T11:57:11Z</time>
      </trkpt>
      <trkpt lat="42.70281" lon="1.6461">
        <ele>1670.227</ele>
        <time>2021-06-13T11:57:13Z</time>
      </trkpt>
      <trkpt lat="42.7028" lon="1.64612">
        <ele>1670.745</ele>
        <time>2021-06-13T11:57:15Z</time>
      </trkpt>
      <trkpt lat="42.70279" lon="1.64613">
        <ele>1671.193</ele>
        <time>2021-06-13T11:57:17Z</time>
      </trkpt>
      <trkpt lat="42.70278" lon="1.64614">
        <ele>1671.641</ele>
        <time>2021-06-13T11:57:19Z</time>
      </trkpt>
      <trkpt lat="42.70277" lon="1.64615">
        <ele>1672.129</ele>
        <time>2021-06-13T11:57:21Z</time>
      </trkpt>
      <trkpt lat="42.70276" lon="1.64615">
        <ele>1672.506</ele>
        <time>2021-06-13T11:57:23Z</time>
      </trkpt>
      <trkpt lat="42.70275" lon="1.64616">
        <ele>1673.173</ele>
        <time>2021-06-13T11:57:25Z</time>
      </trkpt>
      <trkpt lat="42.70275" lon="1.64617">
        <ele>1673.627</ele>
        <time>2021-06-13T11:57:27Z</time>
      </trkpt>
      <trkpt lat="42.70275" lon="1.64617">
        <ele>1673.39</ele>
        <time>2021-06-13T11:57:29Z</time>
      </trkpt>
      <trkpt lat="42.70275" lon="1.64617">
        <ele>1673.358</ele>
        <time>2021-06-13T11:57:31Z</time>
      </trkpt>
      <trkpt lat="42.70275" lon="1.64617">
        <ele>1673.363</ele>
        <time>2021-06-13T11:57:33Z</time>
      </trkpt>
      <trkpt lat="42.70275" lon="1.64617">
        <ele>1673.365</ele>
        <time>2021-06-13T11:57:35Z</time>
      </trkpt>
      <trkpt lat="42.70275" lon="1.64617">
        <ele>1673.439</ele>
        <time>2021-06-13T11:57:37Z</time>
      </trkpt>
      <trkpt lat="42.70275" lon="1.64617">
        <ele>1673.44</ele>
        <time>2021-06-13T11:57:39Z</time>
      </trkpt>
      <trkpt lat="42.70275" lon="1.64617">
        <ele>1673.444</ele>
        <time>2021-06-13T11:57:41Z</time>
      </trkpt>
      <trkpt lat="42.70275" lon="1.64618">
        <ele>1673.802</ele>
        <time>2021-06-13T11:57:43Z</time>
      </trkpt>
      <trkpt lat="42.70275" lon="1.64619">
        <ele>1673.924</ele>
        <time>2021-06-13T11:57:45Z</time>
      </trkpt>
      <trkpt lat="42.70274" lon="1.64619">
        <ele>1674.537</ele>
        <time>2021-06-13T11:57:47Z</time>
      </trkpt>
      <trkpt lat="42.70274" lon="1.6462">
        <ele>1675.126</ele>
        <time>2021-06-13T11:57:49Z</time>
      </trkpt>
      <trkpt lat="42.70275" lon="1.64622">
        <ele>1675.515</ele>
        <time>2021-06-13T11:57:51Z</time>
      </trkpt>
      <trkpt lat="42.70274" lon="1.64623">
        <ele>1675.801</ele>
        <time>2021-06-13T11:57:53Z</time>
      </trkpt>
      <trkpt lat="42.70273" lon="1.64624">
        <ele>1675.711</ele>
        <time>2021-06-13T11:57:55Z</time>
      </trkpt>
      <trkpt lat="42.70273" lon="1.64625">
        <ele>1676.392</ele>
        <time>2021-06-13T11:57:57Z</time>
      </trkpt>
      <trkpt lat="42.70272" lon="1.64626">
        <ele>1676.221</ele>
        <time>2021-06-13T11:57:59Z</time>
      </trkpt>
      <trkpt lat="42.70272" lon="1.64628">
        <ele>1676.88</ele>
        <time>2021-06-13T11:58:01Z</time>
      </trkpt>
      <trkpt lat="42.70271" lon="1.64628">
        <ele>1677.07</ele>
        <time>2021-06-13T11:58:03Z</time>
      </trkpt>
      <trkpt lat="42.70271" lon="1.64629">
        <ele>1676.983</ele>
        <time>2021-06-13T11:58:05Z</time>
      </trkpt>
      <trkpt lat="42.7027" lon="1.6463">
        <ele>1677.422</ele>
        <time>2021-06-13T11:58:07Z</time>
      </trkpt>
      <trkpt lat="42.70269" lon="1.6463">
        <ele>1677.118</ele>
        <time>2021-06-13T11:58:09Z</time>
      </trkpt>
      <trkpt lat="42.70269" lon="1.6463">
        <ele>1677.153</ele>
        <time>2021-06-13T11:58:11Z</time>
      </trkpt>
      <trkpt lat="42.70268" lon="1.64631">
        <ele>1677.515</ele>
        <time>2021-06-13T11:58:13Z</time>
      </trkpt>
      <trkpt lat="42.70268" lon="1.64632">
        <ele>1677.373</ele>
        <time>2021-06-13T11:58:15Z</time>
      </trkpt>
      <trkpt lat="42.70267" lon="1.64633">
        <ele>1677.759</ele>
        <time>2021-06-13T11:58:17Z</time>
      </trkpt>
      <trkpt lat="42.70267" lon="1.64635">
        <ele>1678.362</ele>
        <time>2021-06-13T11:58:19Z</time>
      </trkpt>
      <trkpt lat="42.70266" lon="1.64636">
        <ele>1678.704</ele>
        <time>2021-06-13T11:58:21Z</time>
      </trkpt>
      <trkpt lat="42.70265" lon="1.64637">
        <ele>1678.829</ele>
        <time>2021-06-13T11:58:23Z</time>
      </trkpt>
      <trkpt lat="42.70265" lon="1.64638">
        <ele>1679.154</ele>
        <time>2021-06-13T11:58:25Z</time>
      </trkpt>
      <trkpt lat="42.70264" lon="1.6464">
        <ele>1679.642</ele>
        <time>2021-06-13T11:58:27Z</time>
      </trkpt>
      <trkpt lat="42.70264" lon="1.64641">
        <ele>1680.111</ele>
        <time>2021-06-13T11:58:29Z</time>
      </trkpt>
      <trkpt lat="42.70264" lon="1.64642">
        <ele>1680.263</ele>
        <time>2021-06-13T11:58:31Z</time>
      </trkpt>
      <trkpt lat="42.70264" lon="1.64643">
        <ele>1680.913</ele>
        <time>2021-06-13T11:58:33Z</time>
      </trkpt>
      <trkpt lat="42.70264" lon="1.64644">
        <ele>1681.015</ele>
        <time>2021-06-13T11:58:35Z</time>
      </trkpt>
      <trkpt lat="42.70263" lon="1.64645">
        <ele>1681.329</ele>
        <time>2021-06-13T11:58:37Z</time>
      </trkpt>
      <trkpt lat="42.70263" lon="1.64646">
        <ele>1681.558</ele>
        <time>2021-06-13T11:58:39Z</time>
      </trkpt>
      <trkpt lat="42.70263" lon="1.64648">
        <ele>1681.239</ele>
        <time>2021-06-13T11:58:41Z</time>
      </trkpt>
      <trkpt lat="42.70263" lon="1.64649">
        <ele>1682.097</ele>
        <time>2021-06-13T11:58:43Z</time>
      </trkpt>
      <trkpt lat="42.70262" lon="1.6465">
        <ele>1682.02</ele>
        <time>2021-06-13T11:58:45Z</time>
      </trkpt>
      <trkpt lat="42.70262" lon="1.64651">
        <ele>1682.336</ele>
        <time>2021-06-13T11:58:47Z</time>
      </trkpt>
      <trkpt lat="42.70261" lon="1.64653">
        <ele>1682.081</ele>
        <time>2021-06-13T11:58:49Z</time>
      </trkpt>
      <trkpt lat="42.70261" lon="1.64654">
        <ele>1682.638</ele>
        <time>2021-06-13T11:58:51Z</time>
      </trkpt>
      <trkpt lat="42.7026" lon="1.64656">
        <ele>1683.542</ele>
        <time>2021-06-13T11:58:53Z</time>
      </trkpt>
      <trkpt lat="42.70259" lon="1.64657">
        <ele>1683.643</ele>
        <time>2021-06-13T11:58:55Z</time>
      </trkpt>
      <trkpt lat="42.70258" lon="1.64658">
        <ele>1683.545</ele>
        <time>2021-06-13T11:58:57Z</time>
      </trkpt>
      <trkpt lat="42.70258" lon="1.6466">
        <ele>1684.172</ele>
        <time>2021-06-13T11:58:59Z</time>
      </trkpt>
      <trkpt lat="42.70257" lon="1.64662">
        <ele>1684.113</ele>
        <time>2021-06-13T11:59:01Z</time>
      </trkpt>
      <trkpt lat="42.70255" lon="1.64663">
        <ele>1684.138</ele>
        <time>2021-06-13T11:59:03Z</time>
      </trkpt>
      <trkpt lat="42.70254" lon="1.64664">
        <ele>1684.681</ele>
        <time>2021-06-13T11:59:05Z</time>
      </trkpt>
      <trkpt lat="42.70254" lon="1.64666">
        <ele>1685.065</ele>
        <time>2021-06-13T11:59:07Z</time>
      </trkpt>
      <trkpt lat="42.70253" lon="1.64667">
        <ele>1685.427</ele>
        <time>2021-06-13T11:59:09Z</time>
      </trkpt>
      <trkpt lat="42.70252" lon="1.64668">
        <ele>1685.425</ele>
        <time>2021-06-13T11:59:11Z</time>
      </trkpt>
      <trkpt lat="42.70251" lon="1.6467">
        <ele>1686.095</ele>
        <time>2021-06-13T11:59:13Z</time>
      </trkpt>
      <trkpt lat="42.7025" lon="1.64671">
        <ele>1685.966</ele>
        <time>2021-06-13T11:59:15Z</time>
      </trkpt>
      <trkpt lat="42.7025" lon="1.6467">
        <ele>1685.656</ele>
        <time>2021-06-13T11:59:17Z</time>
      </trkpt>
      <trkpt lat="42.70249" lon="1.6467">
        <ele>1685.887</ele>
        <time>2021-06-13T11:59:19Z</time>
      </trkpt>
      <trkpt lat="42.70247" lon="1.64669">
        <ele>1685.901</ele>
        <time>2021-06-13T11:59:21Z</time>
      </trkpt>
      <trkpt lat="42.70246" lon="1.64669">
        <ele>1686.038</ele>
        <time>2021-06-13T11:59:23Z</time>
      </trkpt>
      <trkpt lat="42.70244" lon="1.64668">
        <ele>1686.555</ele>
        <time>2021-06-13T11:59:25Z</time>
      </trkpt>
      <trkpt lat="42.70243" lon="1.64667">
        <ele>1687.038</ele>
        <time>2021-06-13T11:59:27Z</time>
      </trkpt>
      <trkpt lat="42.70241" lon="1.64665">
        <ele>1687.413</ele>
        <time>2021-06-13T11:59:29Z</time>
      </trkpt>
      <trkpt lat="42.70239" lon="1.64665">
        <ele>1687.826</ele>
        <time>2021-06-13T11:59:31Z</time>
      </trkpt>
      <trkpt lat="42.70237" lon="1.64664">
        <ele>1687.758</ele>
        <time>2021-06-13T11:59:33Z</time>
      </trkpt>
      <trkpt lat="42.70235" lon="1.64663">
        <ele>1687.808</ele>
        <time>2021-06-13T11:59:35Z</time>
      </trkpt>
      <trkpt lat="42.70234" lon="1.64663">
        <ele>1687.807</ele>
        <time>2021-06-13T11:59:37Z</time>
      </trkpt>
      <trkpt lat="42.70232" lon="1.64662">
        <ele>1687.952</ele>
        <time>2021-06-13T11:59:39Z</time>
      </trkpt>
      <trkpt lat="42.7023" lon="1.64661">
        <ele>1688.104</ele>
        <time>2021-06-13T11:59:41Z</time>
      </trkpt>
      <trkpt lat="42.70228" lon="1.64662">
        <ele>1687.773</ele>
        <time>2021-06-13T11:59:43Z</time>
      </trkpt>
      <trkpt lat="42.70227" lon="1.64661">
        <ele>1687.288</ele>
        <time>2021-06-13T11:59:45Z</time>
      </trkpt>
      <trkpt lat="42.70225" lon="1.6466">
        <ele>1687.425</ele>
        <time>2021-06-13T11:59:47Z</time>
      </trkpt>
      <trkpt lat="42.70223" lon="1.6466">
        <ele>1686.805</ele>
        <time>2021-06-13T11:59:49Z</time>
      </trkpt>
      <trkpt lat="42.70221" lon="1.64659">
        <ele>1685.697</ele>
        <time>2021-06-13T11:59:51Z</time>
      </trkpt>
      <trkpt lat="42.70221" lon="1.6466">
        <ele>1685.757</ele>
        <time>2021-06-13T11:59:53Z</time>
      </trkpt>
      <trkpt lat="42.70221" lon="1.6466">
        <ele>1685.688</ele>
        <time>2021-06-13T11:59:55Z</time>
      </trkpt>
      <trkpt lat="42.70221" lon="1.6466">
        <ele>1685.686</ele>
        <time>2021-06-13T11:59:57Z</time>
      </trkpt>
      <trkpt lat="42.70221" lon="1.6466">
        <ele>1685.675</ele>
        <time>2021-06-13T11:59:59Z</time>
      </trkpt>
      <trkpt lat="42.70221" lon="1.6466">
        <ele>1685.67</ele>
        <time>2021-06-13T12:00:01Z</time>
      </trkpt>
      <trkpt lat="42.70221" lon="1.6466">
        <ele>1685.671</ele>
        <time>2021-06-13T12:00:03Z</time>
      </trkpt>
      <trkpt lat="42.70221" lon="1.6466">
        <ele>1685.671</ele>
        <time>2021-06-13T12:00:05Z</time>
      </trkpt>
      <trkpt lat="42.70221" lon="1.6466">
        <ele>1685.572</ele>
        <time>2021-06-13T12:00:07Z</time>
      </trkpt>
      <trkpt lat="42.70221" lon="1.6466">
        <ele>1685.578</ele>
        <time>2021-06-13T12:00:09Z</time>
      </trkpt>
      <trkpt lat="42.7022" lon="1.6466">
        <ele>1685.581</ele>
        <time>2021-06-13T12:00:11Z</time>
      </trkpt>
      <trkpt lat="42.7022" lon="1.6466">
        <ele>1685.585</ele>
        <time>2021-06-13T12:00:13Z</time>
      </trkpt>
      <trkpt lat="42.7022" lon="1.6466">
        <ele>1685.593</ele>
        <time>2021-06-13T12:00:15Z</time>
      </trkpt>
      <trkpt lat="42.7022" lon="1.6466">
        <ele>1685.601</ele>
        <time>2021-06-13T12:00:17Z</time>
      </trkpt>
      <trkpt lat="42.7022" lon="1.6466">
        <ele>1685.592</ele>
        <time>2021-06-13T12:00:19Z</time>
      </trkpt>
      <trkpt lat="42.7022" lon="1.6466">
        <ele>1685.591</ele>
        <time>2021-06-13T12:00:21Z</time>
      </trkpt>
      <trkpt lat="42.7022" lon="1.6466">
        <ele>1685.588</ele>
        <time>2021-06-13T12:00:23Z</time>
      </trkpt>
      <trkpt lat="42.7022" lon="1.6466">
        <ele>1685.585</ele>
        <time>2021-06-13T12:00:25Z</time>
      </trkpt>
      <trkpt lat="42.7022" lon="1.6466">
        <ele>1685.576</ele>
        <time>2021-06-13T12:00:27Z</time>
      </trkpt>
      <trkpt lat="42.7022" lon="1.6466">
        <ele>1685.576</ele>
        <time>2021-06-13T12:00:29Z</time>
      </trkpt>
      <trkpt lat="42.7022" lon="1.6466">
        <ele>1685.569</ele>
        <time>2021-06-13T12:00:31Z</time>
      </trkpt>
      <trkpt lat="42.7022" lon="1.6466">
        <ele>1685.012</ele>
        <time>2021-06-13T12:00:33Z</time>
      </trkpt>
      <trkpt lat="42.70219" lon="1.64659">
        <ele>1685.197</ele>
        <time>2021-06-13T12:00:35Z</time>
      </trkpt>
      <trkpt lat="42.70219" lon="1.64658">
        <ele>1685.048</ele>
        <time>2021-06-13T12:00:37Z</time>
      </trkpt>
      <trkpt lat="42.70217" lon="1.64658">
        <ele>1685.183</ele>
        <time>2021-06-13T12:00:39Z</time>
      </trkpt>
      <trkpt lat="42.70216" lon="1.64657">
        <ele>1684.848</ele>
        <time>2021-06-13T12:00:41Z</time>
      </trkpt>
      <trkpt lat="42.70215" lon="1.64656">
        <ele>1684.908</ele>
        <time>2021-06-13T12:00:43Z</time>
      </trkpt>
      <trkpt lat="42.70214" lon="1.64655">
        <ele>1684.532</ele>
        <time>2021-06-13T12:00:45Z</time>
      </trkpt>
      <trkpt lat="42.70212" lon="1.64654">
        <ele>1684.956</ele>
        <time>2021-06-13T12:00:47Z</time>
      </trkpt>
      <trkpt lat="42.70211" lon="1.64653">
        <ele>1684.636</ele>
        <time>2021-06-13T12:00:49Z</time>
      </trkpt>
      <trkpt lat="42.7021" lon="1.64653">
        <ele>1684.476</ele>
        <time>2021-06-13T12:00:51Z</time>
      </trkpt>
      <trkpt lat="42.70209" lon="1.64653">
        <ele>1683.719</ele>
        <time>2021-06-13T12:00:53Z</time>
      </trkpt>
      <trkpt lat="42.70207" lon="1.64653">
        <ele>1683.521</ele>
        <time>2021-06-13T12:00:55Z</time>
      </trkpt>
      <trkpt lat="42.70206" lon="1.64652">
        <ele>1682.811</ele>
        <time>2021-06-13T12:00:57Z</time>
      </trkpt>
      <trkpt lat="42.70204" lon="1.64652">
        <ele>1682.507</ele>
        <time>2021-06-13T12:00:59Z</time>
      </trkpt>
      <trkpt lat="42.70203" lon="1.64652">
        <ele>1681.785</ele>
        <time>2021-06-13T12:01:01Z</time>
      </trkpt>
      <trkpt lat="42.70202" lon="1.64651">
        <ele>1681.737</ele>
        <time>2021-06-13T12:01:03Z</time>
      </trkpt>
      <trkpt lat="42.702" lon="1.6465">
        <ele>1681.113</ele>
        <time>2021-06-13T12:01:05Z</time>
      </trkpt>
      <trkpt lat="42.70198" lon="1.6465">
        <ele>1680.602</ele>
        <time>2021-06-13T12:01:07Z</time>
      </trkpt>
      <trkpt lat="42.70197" lon="1.6465">
        <ele>1680.21</ele>
        <time>2021-06-13T12:01:09Z</time>
      </trkpt>
      <trkpt lat="42.70196" lon="1.64649">
        <ele>1679.754</ele>
        <time>2021-06-13T12:01:11Z</time>
      </trkpt>
      <trkpt lat="42.70195" lon="1.64647">
        <ele>1679.68</ele>
        <time>2021-06-13T12:01:13Z</time>
      </trkpt>
      <trkpt lat="42.70194" lon="1.64646">
        <ele>1680.107</ele>
        <time>2021-06-13T12:01:15Z</time>
      </trkpt>
      <trkpt lat="42.70193" lon="1.64645">
        <ele>1679.581</ele>
        <time>2021-06-13T12:01:17Z</time>
      </trkpt>
      <trkpt lat="42.70192" lon="1.64644">
        <ele>1679.432</ele>
        <time>2021-06-13T12:01:19Z</time>
      </trkpt>
      <trkpt lat="42.7019" lon="1.64643">
        <ele>1679.119</ele>
        <time>2021-06-13T12:01:21Z</time>
      </trkpt>
      <trkpt lat="42.70189" lon="1.64641">
        <ele>1678.859</ele>
        <time>2021-06-13T12:01:23Z</time>
      </trkpt>
      <trkpt lat="42.70188" lon="1.6464">
        <ele>1678.727</ele>
        <time>2021-06-13T12:01:25Z</time>
      </trkpt>
      <trkpt lat="42.70186" lon="1.64639">
        <ele>1678.804</ele>
        <time>2021-06-13T12:01:27Z</time>
      </trkpt>
      <trkpt lat="42.70185" lon="1.64638">
        <ele>1679.504</ele>
        <time>2021-06-13T12:01:29Z</time>
      </trkpt>
      <trkpt lat="42.70183" lon="1.64637">
        <ele>1679.746</ele>
        <time>2021-06-13T12:01:31Z</time>
      </trkpt>
      <trkpt lat="42.70181" lon="1.64636">
        <ele>1679.352</ele>
        <time>2021-06-13T12:01:33Z</time>
      </trkpt>
      <trkpt lat="42.70179" lon="1.64636">
        <ele>1679.376</ele>
        <time>2021-06-13T12:01:35Z</time>
      </trkpt>
      <trkpt lat="42.70178" lon="1.64635">
        <ele>1679.514</ele>
        <time>2021-06-13T12:01:37Z</time>
      </trkpt>
      <trkpt lat="42.70176" lon="1.64636">
        <ele>1679.186</ele>
        <time>2021-06-13T12:01:39Z</time>
      </trkpt>
      <trkpt lat="42.70175" lon="1.64635">
        <ele>1678.952</ele>
        <time>2021-06-13T12:01:41Z</time>
      </trkpt>
      <trkpt lat="42.70176" lon="1.64635">
        <ele>1679.04</ele>
        <time>2021-06-13T12:01:43Z</time>
      </trkpt>
      <trkpt lat="42.70176" lon="1.64635">
        <ele>1679.037</ele>
        <time>2021-06-13T12:01:45Z</time>
      </trkpt>
      <trkpt lat="42.70176" lon="1.64635">
        <ele>1679.033</ele>
        <time>2021-06-13T12:01:47Z</time>
      </trkpt>
      <trkpt lat="42.70176" lon="1.64635">
        <ele>1679.029</ele>
        <time>2021-06-13T12:01:49Z</time>
      </trkpt>
      <trkpt lat="42.70176" lon="1.64635">
        <ele>1679.033</ele>
        <time>2021-06-13T12:01:51Z</time>
      </trkpt>
      <trkpt lat="42.70176" lon="1.64635">
        <ele>1679.039</ele>
        <time>2021-06-13T12:01:53Z</time>
      </trkpt>
      <trkpt lat="42.70176" lon="1.64635">
        <ele>1679.042</ele>
        <time>2021-06-13T12:01:55Z</time>
      </trkpt>
      <trkpt lat="42.70176" lon="1.64635">
        <ele>1679.048</ele>
        <time>2021-06-13T12:01:57Z</time>
      </trkpt>
      <trkpt lat="42.70175" lon="1.64635">
        <ele>1678.76</ele>
        <time>2021-06-13T12:01:59Z</time>
      </trkpt>
      <trkpt lat="42.70173" lon="1.64635">
        <ele>1678.652</ele>
        <time>2021-06-13T12:02:01Z</time>
      </trkpt>
      <trkpt lat="42.70171" lon="1.64634">
        <ele>1677.977</ele>
        <time>2021-06-13T12:02:03Z</time>
      </trkpt>
      <trkpt lat="42.70169" lon="1.64633">
        <ele>1677.861</ele>
        <time>2021-06-13T12:02:05Z</time>
      </trkpt>
      <trkpt lat="42.70167" lon="1.64633">
        <ele>1678.156</ele>
        <time>2021-06-13T12:02:07Z</time>
      </trkpt>
      <trkpt lat="42.70165" lon="1.64633">
        <ele>1678.397</ele>
        <time>2021-06-13T12:02:09Z</time>
      </trkpt>
      <trkpt lat="42.70163" lon="1.64631">
        <ele>1678.66</ele>
        <time>2021-06-13T12:02:11Z</time>
      </trkpt>
      <trkpt lat="42.7016" lon="1.64631">
        <ele>1678.062</ele>
        <time>2021-06-13T12:02:13Z</time>
      </trkpt>
      <trkpt lat="42.70159" lon="1.64631">
        <ele>1678.044</ele>
        <time>2021-06-13T12:02:15Z</time>
      </trkpt>
      <trkpt lat="42.70157" lon="1.64631">
        <ele>1678.794</ele>
        <time>2021-06-13T12:02:17Z</time>
      </trkpt>
      <trkpt lat="42.70156" lon="1.64632">
        <ele>1678.902</ele>
        <time>2021-06-13T12:02:19Z</time>
      </trkpt>
      <trkpt lat="42.70154" lon="1.64632">
        <ele>1679.3</ele>
        <time>2021-06-13T12:02:21Z</time>
      </trkpt>
      <trkpt lat="42.70152" lon="1.64632">
        <ele>1680.187</ele>
        <time>2021-06-13T12:02:23Z</time>
      </trkpt>
      <trkpt lat="42.70151" lon="1.64632">
        <ele>1680.367</ele>
        <time>2021-06-13T12:02:25Z</time>
      </trkpt>
      <trkpt lat="42.7015" lon="1.64633">
        <ele>1680.449</ele>
        <time>2021-06-13T12:02:27Z</time>
      </trkpt>
      <trkpt lat="42.7015" lon="1.64633">
        <ele>1680.447</ele>
        <time>2021-06-13T12:02:29Z</time>
      </trkpt>
      <trkpt lat="42.7015" lon="1.64633">
        <ele>1680.446</ele>
        <time>2021-06-13T12:02:31Z</time>
      </trkpt>
      <trkpt lat="42.70149" lon="1.64633">
        <ele>1680.194</ele>
        <time>2021-06-13T12:02:33Z</time>
      </trkpt>
      <trkpt lat="42.70147" lon="1.64634">
        <ele>1679.702</ele>
        <time>2021-06-13T12:02:35Z</time>
      </trkpt>
      <trkpt lat="42.70146" lon="1.64635">
        <ele>1679.352</ele>
        <time>2021-06-13T12:02:37Z</time>
      </trkpt>
      <trkpt lat="42.70145" lon="1.64636">
        <ele>1678.714</ele>
        <time>2021-06-13T12:02:39Z</time>
      </trkpt>
      <trkpt lat="42.70143" lon="1.64636">
        <ele>1678.887</ele>
        <time>2021-06-13T12:02:41Z</time>
      </trkpt>
      <trkpt lat="42.70142" lon="1.64637">
        <ele>1678.685</ele>
        <time>2021-06-13T12:02:43Z</time>
      </trkpt>
      <trkpt lat="42.7014" lon="1.64638">
        <ele>1678.033</ele>
        <time>2021-06-13T12:02:45Z</time>
      </trkpt>
      <trkpt lat="42.70139" lon="1.64638">
        <ele>1678.386</ele>
        <time>2021-06-13T12:02:47Z</time>
      </trkpt>
      <trkpt lat="42.70138" lon="1.64637">
        <ele>1677.634</ele>
        <time>2021-06-13T12:02:49Z</time>
      </trkpt>
      <trkpt lat="42.70136" lon="1.64637">
        <ele>1677.367</ele>
        <time>2021-06-13T12:02:51Z</time>
      </trkpt>
      <trkpt lat="42.70134" lon="1.64638">
        <ele>1677.474</ele>
        <time>2021-06-13T12:02:53Z</time>
      </trkpt>
      <trkpt lat="42.70133" lon="1.6464">
        <ele>1677.008</ele>
        <time>2021-06-13T12:02:55Z</time>
      </trkpt>
      <trkpt lat="42.70132" lon="1.64641">
        <ele>1676.917</ele>
        <time>2021-06-13T12:02:57Z</time>
      </trkpt>
      <trkpt lat="42.70133" lon="1.64643">
        <ele>1676.623</ele>
        <time>2021-06-13T12:02:59Z</time>
      </trkpt>
      <trkpt lat="42.70132" lon="1.64645">
        <ele>1676.511</ele>
        <time>2021-06-13T12:03:01Z</time>
      </trkpt>
      <trkpt lat="42.70131" lon="1.64647">
        <ele>1676.135</ele>
        <time>2021-06-13T12:03:03Z</time>
      </trkpt>
      <trkpt lat="42.7013" lon="1.64649">
        <ele>1676.944</ele>
        <time>2021-06-13T12:03:05Z</time>
      </trkpt>
      <trkpt lat="42.70129" lon="1.64651">
        <ele>1676.958</ele>
        <time>2021-06-13T12:03:07Z</time>
      </trkpt>
      <trkpt lat="42.70128" lon="1.64653">
        <ele>1677.019</ele>
        <time>2021-06-13T12:03:09Z</time>
      </trkpt>
      <trkpt lat="42.70127" lon="1.64654">
        <ele>1677.283</ele>
        <time>2021-06-13T12:03:11Z</time>
      </trkpt>
      <trkpt lat="42.70126" lon="1.64656">
        <ele>1677.221</ele>
        <time>2021-06-13T12:03:13Z</time>
      </trkpt>
      <trkpt lat="42.70126" lon="1.64656">
        <ele>1677.498</ele>
        <time>2021-06-13T12:03:15Z</time>
      </trkpt>
      <trkpt lat="42.70126" lon="1.64656">
        <ele>1677.499</ele>
        <time>2021-06-13T12:03:17Z</time>
      </trkpt>
      <trkpt lat="42.70126" lon="1.64656">
        <ele>1677.492</ele>
        <time>2021-06-13T12:03:19Z</time>
      </trkpt>
      <trkpt lat="42.70126" lon="1.64656">
        <ele>1677.485</ele>
        <time>2021-06-13T12:03:21Z</time>
      </trkpt>
      <trkpt lat="42.70126" lon="1.64656">
        <ele>1677.481</ele>
        <time>2021-06-13T12:03:23Z</time>
      </trkpt>
      <trkpt lat="42.70126" lon="1.64656">
        <ele>1677.484</ele>
        <time>2021-06-13T12:03:25Z</time>
      </trkpt>
      <trkpt lat="42.70126" lon="1.64656">
        <ele>1677.474</ele>
        <time>2021-06-13T12:03:27Z</time>
      </trkpt>
      <trkpt lat="42.70126" lon="1.64656">
        <ele>1677.48</ele>
        <time>2021-06-13T12:03:29Z</time>
      </trkpt>
      <trkpt lat="42.70126" lon="1.64656">
        <ele>1677.481</ele>
        <time>2021-06-13T12:03:31Z</time>
      </trkpt>
      <trkpt lat="42.70126" lon="1.64657">
        <ele>1677.332</ele>
        <time>2021-06-13T12:03:33Z</time>
      </trkpt>
      <trkpt lat="42.70125" lon="1.64657">
        <ele>1677.857</ele>
        <time>2021-06-13T12:03:35Z</time>
      </trkpt>
      <trkpt lat="42.70124" lon="1.64658">
        <ele>1677.831</ele>
        <time>2021-06-13T12:03:37Z</time>
      </trkpt>
      <trkpt lat="42.70123" lon="1.64658">
        <ele>1677.826</ele>
        <time>2021-06-13T12:03:39Z</time>
      </trkpt>
      <trkpt lat="42.70121" lon="1.64659">
        <ele>1677.917</ele>
        <time>2021-06-13T12:03:41Z</time>
      </trkpt>
      <trkpt lat="42.7012" lon="1.64659">
        <ele>1678.645</ele>
        <time>2021-06-13T12:03:43Z</time>
      </trkpt>
      <trkpt lat="42.7012" lon="1.64659">
        <ele>1678.509</ele>
        <time>2021-06-13T12:03:45Z</time>
      </trkpt>
      <trkpt lat="42.7012" lon="1.64659">
        <ele>1678.503</ele>
        <time>2021-06-13T12:03:47Z</time>
      </trkpt>
      <trkpt lat="42.70119" lon="1.6466">
        <ele>1678.621</ele>
        <time>2021-06-13T12:03:49Z</time>
      </trkpt>
      <trkpt lat="42.70119" lon="1.64661">
        <ele>1678.382</ele>
        <time>2021-06-13T12:03:51Z</time>
      </trkpt>
      <trkpt lat="42.7012" lon="1.64661">
        <ele>1678.343</ele>
        <time>2021-06-13T12:03:53Z</time>
      </trkpt>
      <trkpt lat="42.7012" lon="1.64661">
        <ele>1678.325</ele>
        <time>2021-06-13T12:03:55Z</time>
      </trkpt>
      <trkpt lat="42.7012" lon="1.64661">
        <ele>1678.325</ele>
        <time>2021-06-13T12:03:57Z</time>
      </trkpt>
      <trkpt lat="42.7012" lon="1.64661">
        <ele>1678.327</ele>
        <time>2021-06-13T12:03:59Z</time>
      </trkpt>
      <trkpt lat="42.7012" lon="1.64661">
        <ele>1678.324</ele>
        <time>2021-06-13T12:04:01Z</time>
      </trkpt>
      <trkpt lat="42.70119" lon="1.64662">
        <ele>1678.227</ele>
        <time>2021-06-13T12:04:03Z</time>
      </trkpt>
      <trkpt lat="42.70119" lon="1.64664">
        <ele>1677.686</ele>
        <time>2021-06-13T12:04:05Z</time>
      </trkpt>
      <trkpt lat="42.70119" lon="1.64665">
        <ele>1677.231</ele>
        <time>2021-06-13T12:04:07Z</time>
      </trkpt>
      <trkpt lat="42.70118" lon="1.64667">
        <ele>1676.706</ele>
        <time>2021-06-13T12:04:09Z</time>
      </trkpt>
      <trkpt lat="42.70118" lon="1.64669">
        <ele>1675.795</ele>
        <time>2021-06-13T12:04:11Z</time>
      </trkpt>
      <trkpt lat="42.70118" lon="1.6467">
        <ele>1674.89</ele>
        <time>2021-06-13T12:04:13Z</time>
      </trkpt>
      <trkpt lat="42.70117" lon="1.64672">
        <ele>1674.163</ele>
        <time>2021-06-13T12:04:15Z</time>
      </trkpt>
      <trkpt lat="42.70116" lon="1.64673">
        <ele>1674.068</ele>
        <time>2021-06-13T12:04:17Z</time>
      </trkpt>
      <trkpt lat="42.70116" lon="1.64674">
        <ele>1673.359</ele>
        <time>2021-06-13T12:04:19Z</time>
      </trkpt>
      <trkpt lat="42.70115" lon="1.64676">
        <ele>1672.62</ele>
        <time>2021-06-13T12:04:21Z</time>
      </trkpt>
      <trkpt lat="42.70114" lon="1.64677">
        <ele>1672.993</ele>
        <time>2021-06-13T12:04:23Z</time>
      </trkpt>
      <trkpt lat="42.70113" lon="1.64679">
        <ele>1673.31</ele>
        <time>2021-06-13T12:04:25Z</time>
      </trkpt>
      <trkpt lat="42.70112" lon="1.64681">
        <ele>1673.741</ele>
        <time>2021-06-13T12:04:27Z</time>
      </trkpt>
      <trkpt lat="42.70111" lon="1.64682">
        <ele>1674.15</ele>
        <time>2021-06-13T12:04:29Z</time>
      </trkpt>
      <trkpt lat="42.7011" lon="1.64684">
        <ele>1674.387</ele>
        <time>2021-06-13T12:04:31Z</time>
      </trkpt>
      <trkpt lat="42.70109" lon="1.64686">
        <ele>1674.22</ele>
        <time>2021-06-13T12:04:33Z</time>
      </trkpt>
      <trkpt lat="42.70109" lon="1.64688">
        <ele>1674.82</ele>
        <time>2021-06-13T12:04:35Z</time>
      </trkpt>
      <trkpt lat="42.70108" lon="1.64689">
        <ele>1674.652</ele>
        <time>2021-06-13T12:04:37Z</time>
      </trkpt>
      <trkpt lat="42.70106" lon="1.6469">
        <ele>1675.025</ele>
        <time>2021-06-13T12:04:39Z</time>
      </trkpt>
      <trkpt lat="42.70105" lon="1.6469">
        <ele>1674.975</ele>
        <time>2021-06-13T12:04:41Z</time>
      </trkpt>
      <trkpt lat="42.70104" lon="1.64692">
        <ele>1674.931</ele>
        <time>2021-06-13T12:04:43Z</time>
      </trkpt>
      <trkpt lat="42.70103" lon="1.64693">
        <ele>1675.252</ele>
        <time>2021-06-13T12:04:45Z</time>
      </trkpt>
      <trkpt lat="42.70102" lon="1.64695">
        <ele>1675.454</ele>
        <time>2021-06-13T12:04:47Z</time>
      </trkpt>
      <trkpt lat="42.70102" lon="1.64695">
        <ele>1675.189</ele>
        <time>2021-06-13T12:04:49Z</time>
      </trkpt>
      <trkpt lat="42.70102" lon="1.64695">
        <ele>1675.186</ele>
        <time>2021-06-13T12:04:51Z</time>
      </trkpt>
      <trkpt lat="42.70102" lon="1.64695">
        <ele>1675.186</ele>
        <time>2021-06-13T12:04:53Z</time>
      </trkpt>
      <trkpt lat="42.70102" lon="1.64695">
        <ele>1675.179</ele>
        <time>2021-06-13T12:04:55Z</time>
      </trkpt>
      <trkpt lat="42.70101" lon="1.64696">
        <ele>1676.157</ele>
        <time>2021-06-13T12:04:57Z</time>
      </trkpt>
      <trkpt lat="42.701" lon="1.64698">
        <ele>1675.765</ele>
        <time>2021-06-13T12:04:59Z</time>
      </trkpt>
      <trkpt lat="42.70098" lon="1.64698">
        <ele>1675.234</ele>
        <time>2021-06-13T12:05:01Z</time>
      </trkpt>
      <trkpt lat="42.70097" lon="1.647">
        <ele>1674.527</ele>
        <time>2021-06-13T12:05:03Z</time>
      </trkpt>
      <trkpt lat="42.70096" lon="1.64701">
        <ele>1675.706</ele>
        <time>2021-06-13T12:05:05Z</time>
      </trkpt>
      <trkpt lat="42.70095" lon="1.64703">
        <ele>1676.218</ele>
        <time>2021-06-13T12:05:07Z</time>
      </trkpt>
      <trkpt lat="42.70093" lon="1.64704">
        <ele>1676.104</ele>
        <time>2021-06-13T12:05:09Z</time>
      </trkpt>
      <trkpt lat="42.70092" lon="1.64705">
        <ele>1675.689</ele>
        <time>2021-06-13T12:05:11Z</time>
      </trkpt>
      <trkpt lat="42.70091" lon="1.64706">
        <ele>1675.326</ele>
        <time>2021-06-13T12:05:13Z</time>
      </trkpt>
      <trkpt lat="42.70089" lon="1.64708">
        <ele>1675.54</ele>
        <time>2021-06-13T12:05:15Z</time>
      </trkpt>
      <trkpt lat="42.70087" lon="1.64709">
        <ele>1675.992</ele>
        <time>2021-06-13T12:05:17Z</time>
      </trkpt>
      <trkpt lat="42.70086" lon="1.6471">
        <ele>1675.479</ele>
        <time>2021-06-13T12:05:19Z</time>
      </trkpt>
      <trkpt lat="42.70084" lon="1.64712">
        <ele>1674.832</ele>
        <time>2021-06-13T12:05:21Z</time>
      </trkpt>
      <trkpt lat="42.70082" lon="1.64714">
        <ele>1675.163</ele>
        <time>2021-06-13T12:05:23Z</time>
      </trkpt>
      <trkpt lat="42.70081" lon="1.64717">
        <ele>1677.592</ele>
        <time>2021-06-13T12:05:25Z</time>
      </trkpt>
      <trkpt lat="42.7008" lon="1.64719">
        <ele>1680.158</ele>
        <time>2021-06-13T12:05:27Z</time>
      </trkpt>
      <trkpt lat="42.70079" lon="1.64721">
        <ele>1681.772</ele>
        <time>2021-06-13T12:05:29Z</time>
      </trkpt>
      <trkpt lat="42.70078" lon="1.64723">
        <ele>1682.29</ele>
        <time>2021-06-13T12:05:31Z</time>
      </trkpt>
      <trkpt lat="42.70076" lon="1.64725">
        <ele>1681.729</ele>
        <time>2021-06-13T12:05:33Z</time>
      </trkpt>
      <trkpt lat="42.70075" lon="1.64727">
        <ele>1680.994</ele>
        <time>2021-06-13T12:05:35Z</time>
      </trkpt>
      <trkpt lat="42.70074" lon="1.64728">
        <ele>1679.524</ele>
        <time>2021-06-13T12:05:37Z</time>
      </trkpt>
      <trkpt lat="42.70073" lon="1.6473">
        <ele>1679.133</ele>
        <time>2021-06-13T12:05:39Z</time>
      </trkpt>
      <trkpt lat="42.70073" lon="1.64731">
        <ele>1679.439</ele>
        <time>2021-06-13T12:05:41Z</time>
      </trkpt>
      <trkpt lat="42.70071" lon="1.64733">
        <ele>1680.144</ele>
        <time>2021-06-13T12:05:43Z</time>
      </trkpt>
      <trkpt lat="42.7007" lon="1.64734">
        <ele>1679.176</ele>
        <time>2021-06-13T12:05:45Z</time>
      </trkpt>
      <trkpt lat="42.70069" lon="1.64736">
        <ele>1678.811</ele>
        <time>2021-06-13T12:05:47Z</time>
      </trkpt>
      <trkpt lat="42.70068" lon="1.64737">
        <ele>1678.204</ele>
        <time>2021-06-13T12:05:49Z</time>
      </trkpt>
      <trkpt lat="42.70068" lon="1.64738">
        <ele>1679.666</ele>
        <time>2021-06-13T12:05:51Z</time>
      </trkpt>
      <trkpt lat="42.70066" lon="1.6474">
        <ele>1679.06</ele>
        <time>2021-06-13T12:05:53Z</time>
      </trkpt>
      <trkpt lat="42.70065" lon="1.64739">
        <ele>1679.009</ele>
        <time>2021-06-13T12:05:55Z</time>
      </trkpt>
      <trkpt lat="42.70063" lon="1.6474">
        <ele>1678.481</ele>
        <time>2021-06-13T12:05:57Z</time>
      </trkpt>
      <trkpt lat="42.70061" lon="1.64739">
        <ele>1677.368</ele>
        <time>2021-06-13T12:05:59Z</time>
      </trkpt>
      <trkpt lat="42.7006" lon="1.64739">
        <ele>1677.141</ele>
        <time>2021-06-13T12:06:01Z</time>
      </trkpt>
      <trkpt lat="42.70059" lon="1.64739">
        <ele>1676.665</ele>
        <time>2021-06-13T12:06:03Z</time>
      </trkpt>
      <trkpt lat="42.70059" lon="1.64739">
        <ele>1676.651</ele>
        <time>2021-06-13T12:06:05Z</time>
      </trkpt>
      <trkpt lat="42.70058" lon="1.64739">
        <ele>1676.161</ele>
        <time>2021-06-13T12:06:07Z</time>
      </trkpt>
      <trkpt lat="42.70056" lon="1.6474">
        <ele>1675.768</ele>
        <time>2021-06-13T12:06:09Z</time>
      </trkpt>
      <trkpt lat="42.70054" lon="1.64739">
        <ele>1675.018</ele>
        <time>2021-06-13T12:06:11Z</time>
      </trkpt>
      <trkpt lat="42.70052" lon="1.64738">
        <ele>1674.74</ele>
        <time>2021-06-13T12:06:13Z</time>
      </trkpt>
      <trkpt lat="42.70051" lon="1.64738">
        <ele>1674.182</ele>
        <time>2021-06-13T12:06:15Z</time>
      </trkpt>
      <trkpt lat="42.7005" lon="1.6474">
        <ele>1674.266</ele>
        <time>2021-06-13T12:06:17Z</time>
      </trkpt>
      <trkpt lat="42.70049" lon="1.64741">
        <ele>1674.248</ele>
        <time>2021-06-13T12:06:19Z</time>
      </trkpt>
      <trkpt lat="42.70047" lon="1.64742">
        <ele>1673.582</ele>
        <time>2021-06-13T12:06:21Z</time>
      </trkpt>
      <trkpt lat="42.70047" lon="1.64741">
        <ele>1674.236</ele>
        <time>2021-06-13T12:06:23Z</time>
      </trkpt>
      <trkpt lat="42.70046" lon="1.6474">
        <ele>1674.717</ele>
        <time>2021-06-13T12:06:25Z</time>
      </trkpt>
      <trkpt lat="42.70045" lon="1.6474">
        <ele>1674.446</ele>
        <time>2021-06-13T12:06:27Z</time>
      </trkpt>
      <trkpt lat="42.70043" lon="1.6474">
        <ele>1674.7</ele>
        <time>2021-06-13T12:06:29Z</time>
      </trkpt>
      <trkpt lat="42.70042" lon="1.64739">
        <ele>1673.763</ele>
        <time>2021-06-13T12:06:31Z</time>
      </trkpt>
      <trkpt lat="42.7004" lon="1.64739">
        <ele>1673.535</ele>
        <time>2021-06-13T12:06:33Z</time>
      </trkpt>
      <trkpt lat="42.70039" lon="1.64739">
        <ele>1673.502</ele>
        <time>2021-06-13T12:06:35Z</time>
      </trkpt>
      <trkpt lat="42.70037" lon="1.64738">
        <ele>1673.51</ele>
        <time>2021-06-13T12:06:37Z</time>
      </trkpt>
      <trkpt lat="42.70036" lon="1.64737">
        <ele>1673.921</ele>
        <time>2021-06-13T12:06:39Z</time>
      </trkpt>
      <trkpt lat="42.70035" lon="1.64735">
        <ele>1673.971</ele>
        <time>2021-06-13T12:06:41Z</time>
      </trkpt>
      <trkpt lat="42.70034" lon="1.64735">
        <ele>1674.601</ele>
        <time>2021-06-13T12:06:43Z</time>
      </trkpt>
      <trkpt lat="42.70032" lon="1.64735">
        <ele>1674.422</ele>
        <time>2021-06-13T12:06:45Z</time>
      </trkpt>
      <trkpt lat="42.70031" lon="1.64735">
        <ele>1674.252</ele>
        <time>2021-06-13T12:06:47Z</time>
      </trkpt>
      <trkpt lat="42.7003" lon="1.64735">
        <ele>1673.853</ele>
        <time>2021-06-13T12:06:49Z</time>
      </trkpt>
      <trkpt lat="42.70029" lon="1.64735">
        <ele>1673.249</ele>
        <time>2021-06-13T12:06:51Z</time>
      </trkpt>
      <trkpt lat="42.70027" lon="1.64735">
        <ele>1673.563</ele>
        <time>2021-06-13T12:06:53Z</time>
      </trkpt>
      <trkpt lat="42.70026" lon="1.64735">
        <ele>1673.703</ele>
        <time>2021-06-13T12:06:55Z</time>
      </trkpt>
      <trkpt lat="42.70025" lon="1.64736">
        <ele>1673.137</ele>
        <time>2021-06-13T12:06:57Z</time>
      </trkpt>
      <trkpt lat="42.70024" lon="1.64737">
        <ele>1673.662</ele>
        <time>2021-06-13T12:06:59Z</time>
      </trkpt>
      <trkpt lat="42.70023" lon="1.64738">
        <ele>1674.467</ele>
        <time>2021-06-13T12:07:01Z</time>
      </trkpt>
      <trkpt lat="42.70022" lon="1.64738">
        <ele>1674.381</ele>
        <time>2021-06-13T12:07:03Z</time>
      </trkpt>
      <trkpt lat="42.70022" lon="1.64738">
        <ele>1674.395</ele>
        <time>2021-06-13T12:07:05Z</time>
      </trkpt>
      <trkpt lat="42.70022" lon="1.64738">
        <ele>1674.406</ele>
        <time>2021-06-13T12:07:07Z</time>
      </trkpt>
      <trkpt lat="42.70022" lon="1.64738">
        <ele>1674.413</ele>
        <time>2021-06-13T12:07:09Z</time>
      </trkpt>
      <trkpt lat="42.70022" lon="1.64738">
        <ele>1674.415</ele>
        <time>2021-06-13T12:07:11Z</time>
      </trkpt>
      <trkpt lat="42.70022" lon="1.64738">
        <ele>1674.424</ele>
        <time>2021-06-13T12:07:13Z</time>
      </trkpt>
      <trkpt lat="42.70022" lon="1.64738">
        <ele>1674.061</ele>
        <time>2021-06-13T12:07:15Z</time>
      </trkpt>
      <trkpt lat="42.70022" lon="1.64738">
        <ele>1674.062</ele>
        <time>2021-06-13T12:07:17Z</time>
      </trkpt>
      <trkpt lat="42.70022" lon="1.64738">
        <ele>1673.827</ele>
        <time>2021-06-13T12:07:19Z</time>
      </trkpt>
      <trkpt lat="42.70021" lon="1.64739">
        <ele>1674.123</ele>
        <time>2021-06-13T12:07:21Z</time>
      </trkpt>
      <trkpt lat="42.70019" lon="1.6474">
        <ele>1674.847</ele>
        <time>2021-06-13T12:07:23Z</time>
      </trkpt>
      <trkpt lat="42.70018" lon="1.64739">
        <ele>1674.73</ele>
        <time>2021-06-13T12:07:25Z</time>
      </trkpt>
      <trkpt lat="42.70017" lon="1.64739">
        <ele>1675.062</ele>
        <time>2021-06-13T12:07:27Z</time>
      </trkpt>
      <trkpt lat="42.70016" lon="1.64739">
        <ele>1674.753</ele>
        <time>2021-06-13T12:07:29Z</time>
      </trkpt>
      <trkpt lat="42.70015" lon="1.64739">
        <ele>1675.259</ele>
        <time>2021-06-13T12:07:31Z</time>
      </trkpt>
      <trkpt lat="42.70014" lon="1.64738">
        <ele>1674.709</ele>
        <time>2021-06-13T12:07:33Z</time>
      </trkpt>
      <trkpt lat="42.70013" lon="1.64737">
        <ele>1674.365</ele>
        <time>2021-06-13T12:07:35Z</time>
      </trkpt>
      <trkpt lat="42.70012" lon="1.64737">
        <ele>1675.147</ele>
        <time>2021-06-13T12:07:37Z</time>
      </trkpt>
      <trkpt lat="42.70011" lon="1.64737">
        <ele>1675.187</ele>
        <time>2021-06-13T12:07:39Z</time>
      </trkpt>
      <trkpt lat="42.7001" lon="1.64736">
        <ele>1675.724</ele>
        <time>2021-06-13T12:07:41Z</time>
      </trkpt>
      <trkpt lat="42.70009" lon="1.64736">
        <ele>1675.611</ele>
        <time>2021-06-13T12:07:43Z</time>
      </trkpt>
      <trkpt lat="42.70007" lon="1.64735">
        <ele>1675.684</ele>
        <time>2021-06-13T12:07:45Z</time>
      </trkpt>
      <trkpt lat="42.70006" lon="1.64735">
        <ele>1675.735</ele>
        <time>2021-06-13T12:07:47Z</time>
      </trkpt>
      <trkpt lat="42.70005" lon="1.64734">
        <ele>1675.686</ele>
        <time>2021-06-13T12:07:49Z</time>
      </trkpt>
      <trkpt lat="42.70005" lon="1.64732">
        <ele>1675.819</ele>
        <time>2021-06-13T12:07:51Z</time>
      </trkpt>
      <trkpt lat="42.70004" lon="1.64731">
        <ele>1676.497</ele>
        <time>2021-06-13T12:07:53Z</time>
      </trkpt>
      <trkpt lat="42.70003" lon="1.64731">
        <ele>1676.708</ele>
        <time>2021-06-13T12:07:55Z</time>
      </trkpt>
      <trkpt lat="42.70003" lon="1.64731">
        <ele>1676.704</ele>
        <time>2021-06-13T12:07:57Z</time>
      </trkpt>
      <trkpt lat="42.70002" lon="1.6473">
        <ele>1676.76</ele>
        <time>2021-06-13T12:07:59Z</time>
      </trkpt>
      <trkpt lat="42.70001" lon="1.6473">
        <ele>1676.941</ele>
        <time>2021-06-13T12:08:01Z</time>
      </trkpt>
      <trkpt lat="42.69999" lon="1.64729">
        <ele>1676.999</ele>
        <time>2021-06-13T12:08:03Z</time>
      </trkpt>
      <trkpt lat="42.69998" lon="1.64728">
        <ele>1676.72</ele>
        <time>2021-06-13T12:08:05Z</time>
      </trkpt>
      <trkpt lat="42.69997" lon="1.64727">
        <ele>1677.028</ele>
        <time>2021-06-13T12:08:07Z</time>
      </trkpt>
      <trkpt lat="42.69995" lon="1.64726">
        <ele>1676.474</ele>
        <time>2021-06-13T12:08:09Z</time>
      </trkpt>
      <trkpt lat="42.69994" lon="1.64725">
        <ele>1675.836</ele>
        <time>2021-06-13T12:08:11Z</time>
      </trkpt>
      <trkpt lat="42.69993" lon="1.64724">
        <ele>1675.977</ele>
        <time>2021-06-13T12:08:13Z</time>
      </trkpt>
      <trkpt lat="42.69991" lon="1.64723">
        <ele>1676.232</ele>
        <time>2021-06-13T12:08:15Z</time>
      </trkpt>
      <trkpt lat="42.6999" lon="1.64723">
        <ele>1676.253</ele>
        <time>2021-06-13T12:08:17Z</time>
      </trkpt>
      <trkpt lat="42.69988" lon="1.64722">
        <ele>1676.469</ele>
        <time>2021-06-13T12:08:19Z</time>
      </trkpt>
      <trkpt lat="42.69987" lon="1.64721">
        <ele>1676.897</ele>
        <time>2021-06-13T12:08:21Z</time>
      </trkpt>
      <trkpt lat="42.69985" lon="1.6472">
        <ele>1676.956</ele>
        <time>2021-06-13T12:08:23Z</time>
      </trkpt>
      <trkpt lat="42.69984" lon="1.64719">
        <ele>1677.848</ele>
        <time>2021-06-13T12:08:25Z</time>
      </trkpt>
      <trkpt lat="42.69982" lon="1.64718">
        <ele>1677.746</ele>
        <time>2021-06-13T12:08:27Z</time>
      </trkpt>
      <trkpt lat="42.69981" lon="1.64716">
        <ele>1677.74</ele>
        <time>2021-06-13T12:08:29Z</time>
      </trkpt>
      <trkpt lat="42.6998" lon="1.64716">
        <ele>1678.976</ele>
        <time>2021-06-13T12:08:31Z</time>
      </trkpt>
      <trkpt lat="42.69978" lon="1.64715">
        <ele>1679.284</ele>
        <time>2021-06-13T12:08:33Z</time>
      </trkpt>
      <trkpt lat="42.69977" lon="1.64715">
        <ele>1679.348</ele>
        <time>2021-06-13T12:08:35Z</time>
      </trkpt>
      <trkpt lat="42.69976" lon="1.64714">
        <ele>1679.223</ele>
        <time>2021-06-13T12:08:37Z</time>
      </trkpt>
      <trkpt lat="42.69975" lon="1.64713">
        <ele>1679.541</ele>
        <time>2021-06-13T12:08:39Z</time>
      </trkpt>
      <trkpt lat="42.69974" lon="1.64712">
        <ele>1680.21</ele>
        <time>2021-06-13T12:08:41Z</time>
      </trkpt>
      <trkpt lat="42.69973" lon="1.64711">
        <ele>1680.649</ele>
        <time>2021-06-13T12:08:43Z</time>
      </trkpt>
      <trkpt lat="42.69972" lon="1.6471">
        <ele>1680.847</ele>
        <time>2021-06-13T12:08:45Z</time>
      </trkpt>
      <trkpt lat="42.69971" lon="1.64709">
        <ele>1681.49</ele>
        <time>2021-06-13T12:08:47Z</time>
      </trkpt>
      <trkpt lat="42.69971" lon="1.64709">
        <ele>1681.3</ele>
        <time>2021-06-13T12:08:49Z</time>
      </trkpt>
      <trkpt lat="42.69971" lon="1.64709">
        <ele>1681.302</ele>
        <time>2021-06-13T12:08:51Z</time>
      </trkpt>
      <trkpt lat="42.69971" lon="1.64709">
        <ele>1681.316</ele>
        <time>2021-06-13T12:08:53Z</time>
      </trkpt>
      <trkpt lat="42.69971" lon="1.64709">
        <ele>1681.318</ele>
        <time>2021-06-13T12:08:55Z</time>
      </trkpt>
      <trkpt lat="42.69971" lon="1.64709">
        <ele>1681.464</ele>
        <time>2021-06-13T12:08:57Z</time>
      </trkpt>
      <trkpt lat="42.69971" lon="1.64709">
        <ele>1681.475</ele>
        <time>2021-06-13T12:08:59Z</time>
      </trkpt>
      <trkpt lat="42.69971" lon="1.64709">
        <ele>1681.485</ele>
        <time>2021-06-13T12:09:01Z</time>
      </trkpt>
      <trkpt lat="42.69971" lon="1.64709">
        <ele>1681.534</ele>
        <time>2021-06-13T12:09:03Z</time>
      </trkpt>
      <trkpt lat="42.69971" lon="1.64709">
        <ele>1681.54</ele>
        <time>2021-06-13T12:09:05Z</time>
      </trkpt>
      <trkpt lat="42.69971" lon="1.64709">
        <ele>1681.546</ele>
        <time>2021-06-13T12:09:07Z</time>
      </trkpt>
      <trkpt lat="42.69971" lon="1.64709">
        <ele>1681.556</ele>
        <time>2021-06-13T12:09:09Z</time>
      </trkpt>
      <trkpt lat="42.69971" lon="1.64709">
        <ele>1681.553</ele>
        <time>2021-06-13T12:09:11Z</time>
      </trkpt>
      <trkpt lat="42.69971" lon="1.64709">
        <ele>1681.555</ele>
        <time>2021-06-13T12:09:13Z</time>
      </trkpt>
      <trkpt lat="42.69971" lon="1.64709">
        <ele>1681.827</ele>
        <time>2021-06-13T12:09:15Z</time>
      </trkpt>
      <trkpt lat="42.69972" lon="1.6471">
        <ele>1682.628</ele>
        <time>2021-06-13T12:09:17Z</time>
      </trkpt>
      <trkpt lat="42.69974" lon="1.6471">
        <ele>1683.2</ele>
        <time>2021-06-13T12:09:19Z</time>
      </trkpt>
      <trkpt lat="42.69975" lon="1.64711">
        <ele>1683.625</ele>
        <time>2021-06-13T12:09:21Z</time>
      </trkpt>
      <trkpt lat="42.69976" lon="1.64712">
        <ele>1683.072</ele>
        <time>2021-06-13T12:09:23Z</time>
      </trkpt>
      <trkpt lat="42.69976" lon="1.64714">
        <ele>1683.689</ele>
        <time>2021-06-13T12:09:25Z</time>
      </trkpt>
      <trkpt lat="42.69976" lon="1.64716">
        <ele>1683.381</ele>
        <time>2021-06-13T12:09:27Z</time>
      </trkpt>
      <trkpt lat="42.69976" lon="1.64718">
        <ele>1682.759</ele>
        <time>2021-06-13T12:09:29Z</time>
      </trkpt>
      <trkpt lat="42.69976" lon="1.6472">
        <ele>1682.479</ele>
        <time>2021-06-13T12:09:31Z</time>
      </trkpt>
      <trkpt lat="42.69976" lon="1.64722">
        <ele>1682.109</ele>
        <time>2021-06-13T12:09:33Z</time>
      </trkpt>
      <trkpt lat="42.69976" lon="1.64724">
        <ele>1681.584</ele>
        <time>2021-06-13T12:09:35Z</time>
      </trkpt>
      <trkpt lat="42.69976" lon="1.64726">
        <ele>1681.407</ele>
        <time>2021-06-13T12:09:37Z</time>
      </trkpt>
      <trkpt lat="42.69976" lon="1.64728">
        <ele>1680.685</ele>
        <time>2021-06-13T12:09:39Z</time>
      </trkpt>
      <trkpt lat="42.69976" lon="1.64731">
        <ele>1681.193</ele>
        <time>2021-06-13T12:09:41Z</time>
      </trkpt>
      <trkpt lat="42.69975" lon="1.64733">
        <ele>1680.854</ele>
        <time>2021-06-13T12:09:43Z</time>
      </trkpt>
      <trkpt lat="42.69976" lon="1.64736">
        <ele>1680.96</ele>
        <time>2021-06-13T12:09:45Z</time>
      </trkpt>
      <trkpt lat="42.69976" lon="1.64738">
        <ele>1681.086</ele>
        <time>2021-06-13T12:09:47Z</time>
      </trkpt>
      <trkpt lat="42.69976" lon="1.64741">
        <ele>1681.595</ele>
        <time>2021-06-13T12:09:49Z</time>
      </trkpt>
      <trkpt lat="42.69976" lon="1.64741">
        <ele>1681.843</ele>
        <time>2021-06-13T12:09:51Z</time>
      </trkpt>
      <trkpt lat="42.69976" lon="1.64742">
        <ele>1681.82</ele>
        <time>2021-06-13T12:09:53Z</time>
      </trkpt>
      <trkpt lat="42.69974" lon="1.64743">
        <ele>1682.052</ele>
        <time>2021-06-13T12:09:55Z</time>
      </trkpt>
      <trkpt lat="42.69973" lon="1.64744">
        <ele>1681.58</ele>
        <time>2021-06-13T12:09:57Z</time>
      </trkpt>
      <trkpt lat="42.69972" lon="1.64743">
        <ele>1681.326</ele>
        <time>2021-06-13T12:09:59Z</time>
      </trkpt>
      <trkpt lat="42.6997" lon="1.64743">
        <ele>1680.264</ele>
        <time>2021-06-13T12:10:01Z</time>
      </trkpt>
      <trkpt lat="42.69969" lon="1.64743">
        <ele>1679.394</ele>
        <time>2021-06-13T12:10:03Z</time>
      </trkpt>
      <trkpt lat="42.69968" lon="1.64744">
        <ele>1678.738</ele>
        <time>2021-06-13T12:10:05Z</time>
      </trkpt>
      <trkpt lat="42.69967" lon="1.64745">
        <ele>1678.51</ele>
        <time>2021-06-13T12:10:07Z</time>
      </trkpt>
      <trkpt lat="42.69966" lon="1.64745">
        <ele>1677.561</ele>
        <time>2021-06-13T12:10:09Z</time>
      </trkpt>
      <trkpt lat="42.69965" lon="1.64744">
        <ele>1676.902</ele>
        <time>2021-06-13T12:10:11Z</time>
      </trkpt>
      <trkpt lat="42.69963" lon="1.64744">
        <ele>1676.946</ele>
        <time>2021-06-13T12:10:13Z</time>
      </trkpt>
      <trkpt lat="42.69962" lon="1.64742">
        <ele>1676.799</ele>
        <time>2021-06-13T12:10:15Z</time>
      </trkpt>
      <trkpt lat="42.6996" lon="1.64742">
        <ele>1676.869</ele>
        <time>2021-06-13T12:10:17Z</time>
      </trkpt>
      <trkpt lat="42.69958" lon="1.64742">
        <ele>1676.973</ele>
        <time>2021-06-13T12:10:19Z</time>
      </trkpt>
      <trkpt lat="42.69957" lon="1.64741">
        <ele>1676.625</ele>
        <time>2021-06-13T12:10:21Z</time>
      </trkpt>
      <trkpt lat="42.69956" lon="1.64741">
        <ele>1676.856</ele>
        <time>2021-06-13T12:10:23Z</time>
      </trkpt>
      <trkpt lat="42.69955" lon="1.6474">
        <ele>1676.769</ele>
        <time>2021-06-13T12:10:25Z</time>
      </trkpt>
      <trkpt lat="42.69953" lon="1.6474">
        <ele>1676.785</ele>
        <time>2021-06-13T12:10:27Z</time>
      </trkpt>
      <trkpt lat="42.69952" lon="1.64739">
        <ele>1676.591</ele>
        <time>2021-06-13T12:10:29Z</time>
      </trkpt>
      <trkpt lat="42.69951" lon="1.64738">
        <ele>1676.028</ele>
        <time>2021-06-13T12:10:31Z</time>
      </trkpt>
      <trkpt lat="42.69949" lon="1.64738">
        <ele>1675.997</ele>
        <time>2021-06-13T12:10:33Z</time>
      </trkpt>
      <trkpt lat="42.69948" lon="1.64738">
        <ele>1674.964</ele>
        <time>2021-06-13T12:10:35Z</time>
      </trkpt>
      <trkpt lat="42.69946" lon="1.64737">
        <ele>1675.307</ele>
        <time>2021-06-13T12:10:37Z</time>
      </trkpt>
      <trkpt lat="42.69944" lon="1.64737">
        <ele>1675.138</ele>
        <time>2021-06-13T12:10:39Z</time>
      </trkpt>
      <trkpt lat="42.69943" lon="1.64736">
        <ele>1674.721</ele>
        <time>2021-06-13T12:10:41Z</time>
      </trkpt>
      <trkpt lat="42.69942" lon="1.64734">
        <ele>1674.494</ele>
        <time>2021-06-13T12:10:43Z</time>
      </trkpt>
      <trkpt lat="42.69941" lon="1.64733">
        <ele>1674.335</ele>
        <time>2021-06-13T12:10:45Z</time>
      </trkpt>
      <trkpt lat="42.69939" lon="1.64733">
        <ele>1674.293</ele>
        <time>2021-06-13T12:10:47Z</time>
      </trkpt>
      <trkpt lat="42.69937" lon="1.64733">
        <ele>1674.621</ele>
        <time>2021-06-13T12:10:49Z</time>
      </trkpt>
      <trkpt lat="42.69935" lon="1.64732">
        <ele>1674.947</ele>
        <time>2021-06-13T12:10:51Z</time>
      </trkpt>
      <trkpt lat="42.69933" lon="1.6473">
        <ele>1675.999</ele>
        <time>2021-06-13T12:10:53Z</time>
      </trkpt>
      <trkpt lat="42.69932" lon="1.64728">
        <ele>1675.381</ele>
        <time>2021-06-13T12:10:55Z</time>
      </trkpt>
      <trkpt lat="42.6993" lon="1.64727">
        <ele>1674.575</ele>
        <time>2021-06-13T12:10:57Z</time>
      </trkpt>
      <trkpt lat="42.69929" lon="1.64727">
        <ele>1675.495</ele>
        <time>2021-06-13T12:10:59Z</time>
      </trkpt>
      <trkpt lat="42.69928" lon="1.64728">
        <ele>1675.223</ele>
        <time>2021-06-13T12:11:01Z</time>
      </trkpt>
      <trkpt lat="42.69927" lon="1.64729">
        <ele>1675.363</ele>
        <time>2021-06-13T12:11:03Z</time>
      </trkpt>
      <trkpt lat="42.69926" lon="1.64729">
        <ele>1676.009</ele>
        <time>2021-06-13T12:11:05Z</time>
      </trkpt>
      <trkpt lat="42.69924" lon="1.6473">
        <ele>1675.918</ele>
        <time>2021-06-13T12:11:07Z</time>
      </trkpt>
      <trkpt lat="42.69923" lon="1.64729">
        <ele>1677.018</ele>
        <time>2021-06-13T12:11:09Z</time>
      </trkpt>
      <trkpt lat="42.69922" lon="1.64728">
        <ele>1675.929</ele>
        <time>2021-06-13T12:11:11Z</time>
      </trkpt>
      <trkpt lat="42.69922" lon="1.64727">
        <ele>1674.929</ele>
        <time>2021-06-13T12:11:13Z</time>
      </trkpt>
      <trkpt lat="42.69921" lon="1.64726">
        <ele>1674.847</ele>
        <time>2021-06-13T12:11:15Z</time>
      </trkpt>
      <trkpt lat="42.6992" lon="1.64726">
        <ele>1673.688</ele>
        <time>2021-06-13T12:11:17Z</time>
      </trkpt>
      <trkpt lat="42.69919" lon="1.64726">
        <ele>1673.714</ele>
        <time>2021-06-13T12:11:19Z</time>
      </trkpt>
      <trkpt lat="42.69917" lon="1.64725">
        <ele>1674.08</ele>
        <time>2021-06-13T12:11:21Z</time>
      </trkpt>
      <trkpt lat="42.69916" lon="1.64723">
        <ele>1674.818</ele>
        <time>2021-06-13T12:11:23Z</time>
      </trkpt>
      <trkpt lat="42.69915" lon="1.64722">
        <ele>1676.69</ele>
        <time>2021-06-13T12:11:25Z</time>
      </trkpt>
      <trkpt lat="42.69914" lon="1.64721">
        <ele>1676.729</ele>
        <time>2021-06-13T12:11:27Z</time>
      </trkpt>
      <trkpt lat="42.69913" lon="1.6472">
        <ele>1677.081</ele>
        <time>2021-06-13T12:11:29Z</time>
      </trkpt>
      <trkpt lat="42.69911" lon="1.6472">
        <ele>1676.529</ele>
        <time>2021-06-13T12:11:31Z</time>
      </trkpt>
      <trkpt lat="42.6991" lon="1.64721">
        <ele>1675.689</ele>
        <time>2021-06-13T12:11:33Z</time>
      </trkpt>
      <trkpt lat="42.69909" lon="1.64721">
        <ele>1675.75</ele>
        <time>2021-06-13T12:11:35Z</time>
      </trkpt>
      <trkpt lat="42.69906" lon="1.6472">
        <ele>1675.291</ele>
        <time>2021-06-13T12:11:37Z</time>
      </trkpt>
      <trkpt lat="42.69904" lon="1.64719">
        <ele>1676.138</ele>
        <time>2021-06-13T12:11:39Z</time>
      </trkpt>
      <trkpt lat="42.69903" lon="1.64718">
        <ele>1676.178</ele>
        <time>2021-06-13T12:11:41Z</time>
      </trkpt>
      <trkpt lat="42.69902" lon="1.64716">
        <ele>1675.543</ele>
        <time>2021-06-13T12:11:43Z</time>
      </trkpt>
      <trkpt lat="42.69901" lon="1.64716">
        <ele>1675.354</ele>
        <time>2021-06-13T12:11:45Z</time>
      </trkpt>
      <trkpt lat="42.699" lon="1.64715">
        <ele>1674.757</ele>
        <time>2021-06-13T12:11:47Z</time>
      </trkpt>
      <trkpt lat="42.69899" lon="1.64713">
        <ele>1674.123</ele>
        <time>2021-06-13T12:11:49Z</time>
      </trkpt>
      <trkpt lat="42.69898" lon="1.64712">
        <ele>1673.741</ele>
        <time>2021-06-13T12:11:51Z</time>
      </trkpt>
      <trkpt lat="42.69896" lon="1.64712">
        <ele>1673.233</ele>
        <time>2021-06-13T12:11:53Z</time>
      </trkpt>
      <trkpt lat="42.69895" lon="1.64711">
        <ele>1673.17</ele>
        <time>2021-06-13T12:11:55Z</time>
      </trkpt>
      <trkpt lat="42.69894" lon="1.64709">
        <ele>1673.371</ele>
        <time>2021-06-13T12:11:57Z</time>
      </trkpt>
      <trkpt lat="42.69892" lon="1.64708">
        <ele>1673.77</ele>
        <time>2021-06-13T12:11:59Z</time>
      </trkpt>
      <trkpt lat="42.69891" lon="1.64707">
        <ele>1673.809</ele>
        <time>2021-06-13T12:12:01Z</time>
      </trkpt>
      <trkpt lat="42.69889" lon="1.64706">
        <ele>1673.749</ele>
        <time>2021-06-13T12:12:03Z</time>
      </trkpt>
      <trkpt lat="42.69888" lon="1.64707">
        <ele>1672.958</ele>
        <time>2021-06-13T12:12:05Z</time>
      </trkpt>
      <trkpt lat="42.69886" lon="1.64707">
        <ele>1672.373</ele>
        <time>2021-06-13T12:12:07Z</time>
      </trkpt>
      <trkpt lat="42.69885" lon="1.64706">
        <ele>1671.974</ele>
        <time>2021-06-13T12:12:09Z</time>
      </trkpt>
      <trkpt lat="42.69883" lon="1.64706">
        <ele>1672.005</ele>
        <time>2021-06-13T12:12:11Z</time>
      </trkpt>
      <trkpt lat="42.69882" lon="1.64705">
        <ele>1672.008</ele>
        <time>2021-06-13T12:12:13Z</time>
      </trkpt>
      <trkpt lat="42.69881" lon="1.64705">
        <ele>1670.686</ele>
        <time>2021-06-13T12:12:15Z</time>
      </trkpt>
      <trkpt lat="42.69879" lon="1.64705">
        <ele>1669.446</ele>
        <time>2021-06-13T12:12:17Z</time>
      </trkpt>
      <trkpt lat="42.69878" lon="1.64705">
        <ele>1668.716</ele>
        <time>2021-06-13T12:12:19Z</time>
      </trkpt>
      <trkpt lat="42.69876" lon="1.64704">
        <ele>1666.894</ele>
        <time>2021-06-13T12:12:21Z</time>
      </trkpt>
      <trkpt lat="42.69875" lon="1.64704">
        <ele>1666.152</ele>
        <time>2021-06-13T12:12:23Z</time>
      </trkpt>
      <trkpt lat="42.69874" lon="1.64704">
        <ele>1665.427</ele>
        <time>2021-06-13T12:12:25Z</time>
      </trkpt>
      <trkpt lat="42.69872" lon="1.64703">
        <ele>1665.731</ele>
        <time>2021-06-13T12:12:27Z</time>
      </trkpt>
      <trkpt lat="42.6987" lon="1.64702">
        <ele>1664.506</ele>
        <time>2021-06-13T12:12:29Z</time>
      </trkpt>
      <trkpt lat="42.69869" lon="1.64702">
        <ele>1664.55</ele>
        <time>2021-06-13T12:12:31Z</time>
      </trkpt>
      <trkpt lat="42.69868" lon="1.64701">
        <ele>1665.118</ele>
        <time>2021-06-13T12:12:33Z</time>
      </trkpt>
      <trkpt lat="42.69866" lon="1.64701">
        <ele>1664.271</ele>
        <time>2021-06-13T12:12:35Z</time>
      </trkpt>
      <trkpt lat="42.69865" lon="1.64699">
        <ele>1664.515</ele>
        <time>2021-06-13T12:12:37Z</time>
      </trkpt>
      <trkpt lat="42.69865" lon="1.64697">
        <ele>1664.269</ele>
        <time>2021-06-13T12:12:39Z</time>
      </trkpt>
      <trkpt lat="42.69863" lon="1.64696">
        <ele>1663.478</ele>
        <time>2021-06-13T12:12:41Z</time>
      </trkpt>
      <trkpt lat="42.69862" lon="1.64695">
        <ele>1662.827</ele>
        <time>2021-06-13T12:12:43Z</time>
      </trkpt>
      <trkpt lat="42.6986" lon="1.64694">
        <ele>1662.617</ele>
        <time>2021-06-13T12:12:45Z</time>
      </trkpt>
      <trkpt lat="42.69859" lon="1.64693">
        <ele>1663.341</ele>
        <time>2021-06-13T12:12:47Z</time>
      </trkpt>
      <trkpt lat="42.69857" lon="1.64691">
        <ele>1663.6</ele>
        <time>2021-06-13T12:12:49Z</time>
      </trkpt>
      <trkpt lat="42.69856" lon="1.6469">
        <ele>1663.994</ele>
        <time>2021-06-13T12:12:51Z</time>
      </trkpt>
      <trkpt lat="42.69855" lon="1.64689">
        <ele>1662.613</ele>
        <time>2021-06-13T12:12:53Z</time>
      </trkpt>
      <trkpt lat="42.69854" lon="1.64687">
        <ele>1661.967</ele>
        <time>2021-06-13T12:12:55Z</time>
      </trkpt>
      <trkpt lat="42.69853" lon="1.64686">
        <ele>1662.234</ele>
        <time>2021-06-13T12:12:57Z</time>
      </trkpt>
      <trkpt lat="42.69852" lon="1.64685">
        <ele>1661.701</ele>
        <time>2021-06-13T12:12:59Z</time>
      </trkpt>
      <trkpt lat="42.69851" lon="1.64683">
        <ele>1662.37</ele>
        <time>2021-06-13T12:13:01Z</time>
      </trkpt>
      <trkpt lat="42.6985" lon="1.64682">
        <ele>1661.841</ele>
        <time>2021-06-13T12:13:03Z</time>
      </trkpt>
      <trkpt lat="42.69849" lon="1.64681">
        <ele>1662.428</ele>
        <time>2021-06-13T12:13:05Z</time>
      </trkpt>
      <trkpt lat="42.69847" lon="1.6468">
        <ele>1662.476</ele>
        <time>2021-06-13T12:13:07Z</time>
      </trkpt>
      <trkpt lat="42.69846" lon="1.64679">
        <ele>1663.405</ele>
        <time>2021-06-13T12:13:09Z</time>
      </trkpt>
      <trkpt lat="42.69845" lon="1.64678">
        <ele>1663.604</ele>
        <time>2021-06-13T12:13:11Z</time>
      </trkpt>
      <trkpt lat="42.69844" lon="1.64676">
        <ele>1663.961</ele>
        <time>2021-06-13T12:13:13Z</time>
      </trkpt>
      <trkpt lat="42.69843" lon="1.64675">
        <ele>1664.221</ele>
        <time>2021-06-13T12:13:15Z</time>
      </trkpt>
      <trkpt lat="42.69841" lon="1.64675">
        <ele>1664.173</ele>
        <time>2021-06-13T12:13:17Z</time>
      </trkpt>
      <trkpt lat="42.6984" lon="1.64674">
        <ele>1664.69</ele>
        <time>2021-06-13T12:13:19Z</time>
      </trkpt>
      <trkpt lat="42.69839" lon="1.64674">
        <ele>1663.643</ele>
        <time>2021-06-13T12:13:21Z</time>
      </trkpt>
      <trkpt lat="42.69837" lon="1.64673">
        <ele>1663.658</ele>
        <time>2021-06-13T12:13:23Z</time>
      </trkpt>
      <trkpt lat="42.69837" lon="1.64671">
        <ele>1662.159</ele>
        <time>2021-06-13T12:13:25Z</time>
      </trkpt>
      <trkpt lat="42.69835" lon="1.6467">
        <ele>1664.605</ele>
        <time>2021-06-13T12:13:27Z</time>
      </trkpt>
      <trkpt lat="42.69834" lon="1.64668">
        <ele>1665.488</ele>
        <time>2021-06-13T12:13:29Z</time>
      </trkpt>
      <trkpt lat="42.69833" lon="1.64666">
        <ele>1666.171</ele>
        <time>2021-06-13T12:13:31Z</time>
      </trkpt>
      <trkpt lat="42.69832" lon="1.64665">
        <ele>1666.148</ele>
        <time>2021-06-13T12:13:33Z</time>
      </trkpt>
      <trkpt lat="42.69831" lon="1.64663">
        <ele>1665.551</ele>
        <time>2021-06-13T12:13:35Z</time>
      </trkpt>
      <trkpt lat="42.6983" lon="1.64661">
        <ele>1666.978</ele>
        <time>2021-06-13T12:13:37Z</time>
      </trkpt>
      <trkpt lat="42.69829" lon="1.64658">
        <ele>1667.211</ele>
        <time>2021-06-13T12:13:39Z</time>
      </trkpt>
      <trkpt lat="42.69828" lon="1.64656">
        <ele>1667.609</ele>
        <time>2021-06-13T12:13:41Z</time>
      </trkpt>
      <trkpt lat="42.69827" lon="1.64655">
        <ele>1667.669</ele>
        <time>2021-06-13T12:13:43Z</time>
      </trkpt>
      <trkpt lat="42.69827" lon="1.64653">
        <ele>1668.264</ele>
        <time>2021-06-13T12:13:45Z</time>
      </trkpt>
      <trkpt lat="42.69825" lon="1.64652">
        <ele>1668.723</ele>
        <time>2021-06-13T12:13:47Z</time>
      </trkpt>
      <trkpt lat="42.69825" lon="1.6465">
        <ele>1669.228</ele>
        <time>2021-06-13T12:13:49Z</time>
      </trkpt>
      <trkpt lat="42.69824" lon="1.64649">
        <ele>1669.06</ele>
        <time>2021-06-13T12:13:51Z</time>
      </trkpt>
      <trkpt lat="42.69823" lon="1.64648">
        <ele>1669.156</ele>
        <time>2021-06-13T12:13:53Z</time>
      </trkpt>
      <trkpt lat="42.69821" lon="1.64647">
        <ele>1668.229</ele>
        <time>2021-06-13T12:13:55Z</time>
      </trkpt>
      <trkpt lat="42.6982" lon="1.64646">
        <ele>1667.181</ele>
        <time>2021-06-13T12:13:57Z</time>
      </trkpt>
      <trkpt lat="42.69819" lon="1.64645">
        <ele>1666.42</ele>
        <time>2021-06-13T12:13:59Z</time>
      </trkpt>
      <trkpt lat="42.69817" lon="1.64644">
        <ele>1666.653</ele>
        <time>2021-06-13T12:14:01Z</time>
      </trkpt>
      <trkpt lat="42.69816" lon="1.64643">
        <ele>1666.338</ele>
        <time>2021-06-13T12:14:03Z</time>
      </trkpt>
      <trkpt lat="42.69815" lon="1.64641">
        <ele>1667.457</ele>
        <time>2021-06-13T12:14:05Z</time>
      </trkpt>
      <trkpt lat="42.69814" lon="1.6464">
        <ele>1667.214</ele>
        <time>2021-06-13T12:14:07Z</time>
      </trkpt>
      <trkpt lat="42.69813" lon="1.64639">
        <ele>1666.936</ele>
        <time>2021-06-13T12:14:09Z</time>
      </trkpt>
      <trkpt lat="42.69811" lon="1.64639">
        <ele>1666.115</ele>
        <time>2021-06-13T12:14:11Z</time>
      </trkpt>
      <trkpt lat="42.69809" lon="1.64638">
        <ele>1665.234</ele>
        <time>2021-06-13T12:14:13Z</time>
      </trkpt>
      <trkpt lat="42.69808" lon="1.64637">
        <ele>1664.235</ele>
        <time>2021-06-13T12:14:15Z</time>
      </trkpt>
      <trkpt lat="42.69806" lon="1.64635">
        <ele>1664.995</ele>
        <time>2021-06-13T12:14:17Z</time>
      </trkpt>
      <trkpt lat="42.69806" lon="1.64634">
        <ele>1665.386</ele>
        <time>2021-06-13T12:14:19Z</time>
      </trkpt>
      <trkpt lat="42.69805" lon="1.64632">
        <ele>1665.873</ele>
        <time>2021-06-13T12:14:21Z</time>
      </trkpt>
      <trkpt lat="42.69803" lon="1.64631">
        <ele>1666.052</ele>
        <time>2021-06-13T12:14:23Z</time>
      </trkpt>
      <trkpt lat="42.69802" lon="1.6463">
        <ele>1665.541</ele>
        <time>2021-06-13T12:14:25Z</time>
      </trkpt>
      <trkpt lat="42.698" lon="1.64628">
        <ele>1664.508</ele>
        <time>2021-06-13T12:14:27Z</time>
      </trkpt>
      <trkpt lat="42.69799" lon="1.64627">
        <ele>1664.937</ele>
        <time>2021-06-13T12:14:29Z</time>
      </trkpt>
      <trkpt lat="42.69798" lon="1.64625">
        <ele>1664.933</ele>
        <time>2021-06-13T12:14:31Z</time>
      </trkpt>
      <trkpt lat="42.69796" lon="1.64623">
        <ele>1664.776</ele>
        <time>2021-06-13T12:14:33Z</time>
      </trkpt>
      <trkpt lat="42.69795" lon="1.64621">
        <ele>1665.125</ele>
        <time>2021-06-13T12:14:35Z</time>
      </trkpt>
      <trkpt lat="42.69793" lon="1.64619">
        <ele>1665.22</ele>
        <time>2021-06-13T12:14:37Z</time>
      </trkpt>
      <trkpt lat="42.69792" lon="1.64618">
        <ele>1666.482</ele>
        <time>2021-06-13T12:14:39Z</time>
      </trkpt>
      <trkpt lat="42.6979" lon="1.64617">
        <ele>1667.682</ele>
        <time>2021-06-13T12:14:41Z</time>
      </trkpt>
      <trkpt lat="42.69789" lon="1.64617">
        <ele>1667.877</ele>
        <time>2021-06-13T12:14:43Z</time>
      </trkpt>
      <trkpt lat="42.69789" lon="1.64617">
        <ele>1667.875</ele>
        <time>2021-06-13T12:14:45Z</time>
      </trkpt>
      <trkpt lat="42.69789" lon="1.64617">
        <ele>1667.877</ele>
        <time>2021-06-13T12:14:47Z</time>
      </trkpt>
      <trkpt lat="42.6979" lon="1.64617">
        <ele>1667.739</ele>
        <time>2021-06-13T12:14:49Z</time>
      </trkpt>
      <trkpt lat="42.6979" lon="1.64617">
        <ele>1667.734</ele>
        <time>2021-06-13T12:14:51Z</time>
      </trkpt>
      <trkpt lat="42.6979" lon="1.64617">
        <ele>1667.737</ele>
        <time>2021-06-13T12:14:53Z</time>
      </trkpt>
      <trkpt lat="42.6979" lon="1.64617">
        <ele>1667.733</ele>
        <time>2021-06-13T12:14:55Z</time>
      </trkpt>
      <trkpt lat="42.6979" lon="1.64617">
        <ele>1667.74</ele>
        <time>2021-06-13T12:14:57Z</time>
      </trkpt>
      <trkpt lat="42.6979" lon="1.64617">
        <ele>1667.737</ele>
        <time>2021-06-13T12:14:59Z</time>
      </trkpt>
      <trkpt lat="42.6979" lon="1.64617">
        <ele>1667.751</ele>
        <time>2021-06-13T12:15:01Z</time>
      </trkpt>
      <trkpt lat="42.6979" lon="1.64617">
        <ele>1667.757</ele>
        <time>2021-06-13T12:15:03Z</time>
      </trkpt>
      <trkpt lat="42.6979" lon="1.64617">
        <ele>1667.768</ele>
        <time>2021-06-13T12:15:05Z</time>
      </trkpt>
      <trkpt lat="42.6979" lon="1.64617">
        <ele>1667.78</ele>
        <time>2021-06-13T12:15:07Z</time>
      </trkpt>
      <trkpt lat="42.6979" lon="1.64617">
        <ele>1667.781</ele>
        <time>2021-06-13T12:15:09Z</time>
      </trkpt>
      <trkpt lat="42.6979" lon="1.64617">
        <ele>1667.793</ele>
        <time>2021-06-13T12:15:11Z</time>
      </trkpt>
      <trkpt lat="42.6979" lon="1.64617">
        <ele>1667.783</ele>
        <time>2021-06-13T12:15:13Z</time>
      </trkpt>
      <trkpt lat="42.6979" lon="1.64617">
        <ele>1667.782</ele>
        <time>2021-06-13T12:15:15Z</time>
      </trkpt>
      <trkpt lat="42.6979" lon="1.64617">
        <ele>1667.787</ele>
        <time>2021-06-13T12:15:17Z</time>
      </trkpt>
      <trkpt lat="42.6979" lon="1.64617">
        <ele>1667.785</ele>
        <time>2021-06-13T12:15:19Z</time>
      </trkpt>
      <trkpt lat="42.6979" lon="1.64617">
        <ele>1667.785</ele>
        <time>2021-06-13T12:15:21Z</time>
      </trkpt>
      <trkpt lat="42.6979" lon="1.64617">
        <ele>1667.783</ele>
        <time>2021-06-13T12:15:23Z</time>
      </trkpt>
      <trkpt lat="42.6979" lon="1.64617">
        <ele>1667.783</ele>
        <time>2021-06-13T12:15:25Z</time>
      </trkpt>
      <trkpt lat="42.6979" lon="1.64617">
        <ele>1667.77</ele>
        <time>2021-06-13T12:15:27Z</time>
      </trkpt>
      <trkpt lat="42.6979" lon="1.64617">
        <ele>1667.762</ele>
        <time>2021-06-13T12:15:29Z</time>
      </trkpt>
      <trkpt lat="42.6979" lon="1.64617">
        <ele>1667.75</ele>
        <time>2021-06-13T12:15:31Z</time>
      </trkpt>
      <trkpt lat="42.6979" lon="1.64617">
        <ele>1667.753</ele>
        <time>2021-06-13T12:15:33Z</time>
      </trkpt>
      <trkpt lat="42.6979" lon="1.64617">
        <ele>1667.74</ele>
        <time>2021-06-13T12:15:35Z</time>
      </trkpt>
      <trkpt lat="42.6979" lon="1.64617">
        <ele>1667.737</ele>
        <time>2021-06-13T12:15:37Z</time>
      </trkpt>
      <trkpt lat="42.6979" lon="1.64617">
        <ele>1667.729</ele>
        <time>2021-06-13T12:15:39Z</time>
      </trkpt>
      <trkpt lat="42.6979" lon="1.64617">
        <ele>1667.727</ele>
        <time>2021-06-13T12:15:41Z</time>
      </trkpt>
      <trkpt lat="42.6979" lon="1.64617">
        <ele>1667.732</ele>
        <time>2021-06-13T12:15:43Z</time>
      </trkpt>
      <trkpt lat="42.6979" lon="1.64617">
        <ele>1667.752</ele>
        <time>2021-06-13T12:15:45Z</time>
      </trkpt>
      <trkpt lat="42.6979" lon="1.64617">
        <ele>1667.765</ele>
        <time>2021-06-13T12:15:47Z</time>
      </trkpt>
      <trkpt lat="42.6979" lon="1.64617">
        <ele>1667.761</ele>
        <time>2021-06-13T12:15:49Z</time>
      </trkpt>
      <trkpt lat="42.6979" lon="1.64617">
        <ele>1667.752</ele>
        <time>2021-06-13T12:15:51Z</time>
      </trkpt>
      <trkpt lat="42.6979" lon="1.64617">
        <ele>1667.767</ele>
        <time>2021-06-13T12:15:53Z</time>
      </trkpt>
      <trkpt lat="42.6979" lon="1.64617">
        <ele>1667.772</ele>
        <time>2021-06-13T12:15:55Z</time>
      </trkpt>
      <trkpt lat="42.6979" lon="1.64617">
        <ele>1667.763</ele>
        <time>2021-06-13T12:15:57Z</time>
      </trkpt>
      <trkpt lat="42.6979" lon="1.64617">
        <ele>1667.749</ele>
        <time>2021-06-13T12:15:59Z</time>
      </trkpt>
      <trkpt lat="42.6979" lon="1.64617">
        <ele>1667.738</ele>
        <time>2021-06-13T12:16:01Z</time>
      </trkpt>
      <trkpt lat="42.6979" lon="1.64617">
        <ele>1667.725</ele>
        <time>2021-06-13T12:16:03Z</time>
      </trkpt>
      <trkpt lat="42.6979" lon="1.64617">
        <ele>1667.726</ele>
        <time>2021-06-13T12:16:05Z</time>
      </trkpt>
      <trkpt lat="42.6979" lon="1.64617">
        <ele>1667.714</ele>
        <time>2021-06-13T12:16:07Z</time>
      </trkpt>
      <trkpt lat="42.6979" lon="1.64617">
        <ele>1667.08</ele>
        <time>2021-06-13T12:16:09Z</time>
      </trkpt>
      <trkpt lat="42.6979" lon="1.64617">
        <ele>1667.085</ele>
        <time>2021-06-13T12:16:11Z</time>
      </trkpt>
      <trkpt lat="42.6979" lon="1.64617">
        <ele>1667.084</ele>
        <time>2021-06-13T12:16:13Z</time>
      </trkpt>
      <trkpt lat="42.6979" lon="1.64617">
        <ele>1667.089</ele>
        <time>2021-06-13T12:16:15Z</time>
      </trkpt>
      <trkpt lat="42.6979" lon="1.64617">
        <ele>1667.095</ele>
        <time>2021-06-13T12:16:17Z</time>
      </trkpt>
      <trkpt lat="42.6979" lon="1.64617">
        <ele>1667.089</ele>
        <time>2021-06-13T12:16:19Z</time>
      </trkpt>
      <trkpt lat="42.6979" lon="1.64617">
        <ele>1667.09</ele>
        <time>2021-06-13T12:16:21Z</time>
      </trkpt>
      <trkpt lat="42.6979" lon="1.64617">
        <ele>1667.089</ele>
        <time>2021-06-13T12:16:23Z</time>
      </trkpt>
      <trkpt lat="42.6979" lon="1.64617">
        <ele>1667.088</ele>
        <time>2021-06-13T12:16:25Z</time>
      </trkpt>
      <trkpt lat="42.6979" lon="1.64617">
        <ele>1667.087</ele>
        <time>2021-06-13T12:16:27Z</time>
      </trkpt>
      <trkpt lat="42.6979" lon="1.64617">
        <ele>1667.085</ele>
        <time>2021-06-13T12:16:29Z</time>
      </trkpt>
      <trkpt lat="42.6979" lon="1.64617">
        <ele>1667.069</ele>
        <time>2021-06-13T12:16:31Z</time>
      </trkpt>
      <trkpt lat="42.6979" lon="1.64617">
        <ele>1667.054</ele>
        <time>2021-06-13T12:16:33Z</time>
      </trkpt>
      <trkpt lat="42.6979" lon="1.64617">
        <ele>1667.056</ele>
        <time>2021-06-13T12:16:35Z</time>
      </trkpt>
      <trkpt lat="42.6979" lon="1.64617">
        <ele>1667.049</ele>
        <time>2021-06-13T12:16:37Z</time>
      </trkpt>
      <trkpt lat="42.6979" lon="1.64617">
        <ele>1667.05</ele>
        <time>2021-06-13T12:16:39Z</time>
      </trkpt>
      <trkpt lat="42.6979" lon="1.64617">
        <ele>1667.041</ele>
        <time>2021-06-13T12:16:41Z</time>
      </trkpt>
      <trkpt lat="42.6979" lon="1.64617">
        <ele>1667.039</ele>
        <time>2021-06-13T12:16:43Z</time>
      </trkpt>
      <trkpt lat="42.6979" lon="1.64617">
        <ele>1667.032</ele>
        <time>2021-06-13T12:16:45Z</time>
      </trkpt>
      <trkpt lat="42.6979" lon="1.64617">
        <ele>1667.033</ele>
        <time>2021-06-13T12:16:47Z</time>
      </trkpt>
      <trkpt lat="42.6979" lon="1.64617">
        <ele>1667.033</ele>
        <time>2021-06-13T12:16:49Z</time>
      </trkpt>
      <trkpt lat="42.6979" lon="1.64617">
        <ele>1667.022</ele>
        <time>2021-06-13T12:16:51Z</time>
      </trkpt>
      <trkpt lat="42.6979" lon="1.64617">
        <ele>1667.012</ele>
        <time>2021-06-13T12:16:53Z</time>
      </trkpt>
      <trkpt lat="42.6979" lon="1.64617">
        <ele>1667</ele>
        <time>2021-06-13T12:16:55Z</time>
      </trkpt>
      <trkpt lat="42.6979" lon="1.64617">
        <ele>1666.993</ele>
        <time>2021-06-13T12:16:57Z</time>
      </trkpt>
      <trkpt lat="42.6979" lon="1.64617">
        <ele>1666.902</ele>
        <time>2021-06-13T12:16:59Z</time>
      </trkpt>
      <trkpt lat="42.69791" lon="1.64618">
        <ele>1666.415</ele>
        <time>2021-06-13T12:17:01Z</time>
      </trkpt>
      <trkpt lat="42.69791" lon="1.64622">
        <ele>1666.128</ele>
        <time>2021-06-13T12:17:03Z</time>
      </trkpt>
      <trkpt lat="42.6979" lon="1.64622">
        <ele>1666.265</ele>
        <time>2021-06-13T12:17:05Z</time>
      </trkpt>
      <trkpt lat="42.69792" lon="1.64624">
        <ele>1666.039</ele>
        <time>2021-06-13T12:17:07Z</time>
      </trkpt>
      <trkpt lat="42.69794" lon="1.64625">
        <ele>1665.822</ele>
        <time>2021-06-13T12:17:09Z</time>
      </trkpt>
      <trkpt lat="42.69795" lon="1.64626">
        <ele>1666.037</ele>
        <time>2021-06-13T12:17:11Z</time>
      </trkpt>
      <trkpt lat="42.69796" lon="1.64627">
        <ele>1665.573</ele>
        <time>2021-06-13T12:17:13Z</time>
      </trkpt>
      <trkpt lat="42.69798" lon="1.64629">
        <ele>1665.824</ele>
        <time>2021-06-13T12:17:15Z</time>
      </trkpt>
      <trkpt lat="42.69799" lon="1.64632">
        <ele>1666.438</ele>
        <time>2021-06-13T12:17:17Z</time>
      </trkpt>
      <trkpt lat="42.69801" lon="1.64633">
        <ele>1666.566</ele>
        <time>2021-06-13T12:17:19Z</time>
      </trkpt>
      <trkpt lat="42.69802" lon="1.64634">
        <ele>1667.608</ele>
        <time>2021-06-13T12:17:21Z</time>
      </trkpt>
      <trkpt lat="42.69804" lon="1.64635">
        <ele>1667.281</ele>
        <time>2021-06-13T12:17:23Z</time>
      </trkpt>
      <trkpt lat="42.69805" lon="1.64637">
        <ele>1667.355</ele>
        <time>2021-06-13T12:17:25Z</time>
      </trkpt>
      <trkpt lat="42.69807" lon="1.64638">
        <ele>1667.687</ele>
        <time>2021-06-13T12:17:27Z</time>
      </trkpt>
      <trkpt lat="42.69809" lon="1.64638">
        <ele>1667.594</ele>
        <time>2021-06-13T12:17:29Z</time>
      </trkpt>
      <trkpt lat="42.69811" lon="1.64639">
        <ele>1668.191</ele>
        <time>2021-06-13T12:17:31Z</time>
      </trkpt>
      <trkpt lat="42.69812" lon="1.6464">
        <ele>1668.473</ele>
        <time>2021-06-13T12:17:33Z</time>
      </trkpt>
      <trkpt lat="42.69813" lon="1.64641">
        <ele>1668.377</ele>
        <time>2021-06-13T12:17:35Z</time>
      </trkpt>
      <trkpt lat="42.69814" lon="1.64643">
        <ele>1669.039</ele>
        <time>2021-06-13T12:17:37Z</time>
      </trkpt>
      <trkpt lat="42.69815" lon="1.64645">
        <ele>1668.852</ele>
        <time>2021-06-13T12:17:39Z</time>
      </trkpt>
      <trkpt lat="42.69816" lon="1.64646">
        <ele>1668.589</ele>
        <time>2021-06-13T12:17:41Z</time>
      </trkpt>
      <trkpt lat="42.69817" lon="1.64647">
        <ele>1668.242</ele>
        <time>2021-06-13T12:17:43Z</time>
      </trkpt>
      <trkpt lat="42.69819" lon="1.64648">
        <ele>1668.796</ele>
        <time>2021-06-13T12:17:45Z</time>
      </trkpt>
      <trkpt lat="42.6982" lon="1.64649">
        <ele>1669.157</ele>
        <time>2021-06-13T12:17:47Z</time>
      </trkpt>
      <trkpt lat="42.69821" lon="1.6465">
        <ele>1668.401</ele>
        <time>2021-06-13T12:17:49Z</time>
      </trkpt>
      <trkpt lat="42.69823" lon="1.64652">
        <ele>1668.477</ele>
        <time>2021-06-13T12:17:51Z</time>
      </trkpt>
      <trkpt lat="42.69823" lon="1.64653">
        <ele>1668.393</ele>
        <time>2021-06-13T12:17:53Z</time>
      </trkpt>
      <trkpt lat="42.69824" lon="1.64655">
        <ele>1667.871</ele>
        <time>2021-06-13T12:17:55Z</time>
      </trkpt>
      <trkpt lat="42.69825" lon="1.64656">
        <ele>1667.8</ele>
        <time>2021-06-13T12:17:57Z</time>
      </trkpt>
      <trkpt lat="42.69826" lon="1.64658">
        <ele>1667.968</ele>
        <time>2021-06-13T12:17:59Z</time>
      </trkpt>
      <trkpt lat="42.69826" lon="1.6466">
        <ele>1667.721</ele>
        <time>2021-06-13T12:18:01Z</time>
      </trkpt>
      <trkpt lat="42.69827" lon="1.64661">
        <ele>1668.012</ele>
        <time>2021-06-13T12:18:03Z</time>
      </trkpt>
      <trkpt lat="42.69828" lon="1.64663">
        <ele>1667.38</ele>
        <time>2021-06-13T12:18:05Z</time>
      </trkpt>
      <trkpt lat="42.69829" lon="1.64664">
        <ele>1666.992</ele>
        <time>2021-06-13T12:18:07Z</time>
      </trkpt>
      <trkpt lat="42.6983" lon="1.64665">
        <ele>1667.217</ele>
        <time>2021-06-13T12:18:09Z</time>
      </trkpt>
      <trkpt lat="42.69831" lon="1.64667">
        <ele>1666.207</ele>
        <time>2021-06-13T12:18:11Z</time>
      </trkpt>
      <trkpt lat="42.69831" lon="1.64668">
        <ele>1666.88</ele>
        <time>2021-06-13T12:18:13Z</time>
      </trkpt>
      <trkpt lat="42.69833" lon="1.6467">
        <ele>1667.21</ele>
        <time>2021-06-13T12:18:15Z</time>
      </trkpt>
      <trkpt lat="42.69834" lon="1.64671">
        <ele>1668.625</ele>
        <time>2021-06-13T12:18:17Z</time>
      </trkpt>
      <trkpt lat="42.69835" lon="1.64673">
        <ele>1669.775</ele>
        <time>2021-06-13T12:18:19Z</time>
      </trkpt>
      <trkpt lat="42.69835" lon="1.64671">
        <ele>1668.766</ele>
        <time>2021-06-13T12:18:21Z</time>
      </trkpt>
      <trkpt lat="42.69835" lon="1.64671">
        <ele>1668.757</ele>
        <time>2021-06-13T12:18:23Z</time>
      </trkpt>
      <trkpt lat="42.69835" lon="1.64671">
        <ele>1668.761</ele>
        <time>2021-06-13T12:18:25Z</time>
      </trkpt>
      <trkpt lat="42.69835" lon="1.64671">
        <ele>1668.768</ele>
        <time>2021-06-13T12:18:27Z</time>
      </trkpt>
      <trkpt lat="42.69835" lon="1.64672">
        <ele>1668.851</ele>
        <time>2021-06-13T12:18:29Z</time>
      </trkpt>
      <trkpt lat="42.69837" lon="1.64673">
        <ele>1669.344</ele>
        <time>2021-06-13T12:18:31Z</time>
      </trkpt>
      <trkpt lat="42.69838" lon="1.64674">
        <ele>1669.803</ele>
        <time>2021-06-13T12:18:33Z</time>
      </trkpt>
      <trkpt lat="42.69839" lon="1.64676">
        <ele>1669.824</ele>
        <time>2021-06-13T12:18:35Z</time>
      </trkpt>
      <trkpt lat="42.6984" lon="1.64678">
        <ele>1669.795</ele>
        <time>2021-06-13T12:18:37Z</time>
      </trkpt>
      <trkpt lat="42.69841" lon="1.6468">
        <ele>1670.528</ele>
        <time>2021-06-13T12:18:39Z</time>
      </trkpt>
      <trkpt lat="42.69841" lon="1.64682">
        <ele>1669.602</ele>
        <time>2021-06-13T12:18:41Z</time>
      </trkpt>
      <trkpt lat="42.69842" lon="1.64683">
        <ele>1669.263</ele>
        <time>2021-06-13T12:18:43Z</time>
      </trkpt>
      <trkpt lat="42.69842" lon="1.64684">
        <ele>1669.051</ele>
        <time>2021-06-13T12:18:45Z</time>
      </trkpt>
      <trkpt lat="42.69843" lon="1.64685">
        <ele>1668.776</ele>
        <time>2021-06-13T12:18:47Z</time>
      </trkpt>
      <trkpt lat="42.69844" lon="1.64686">
        <ele>1668.366</ele>
        <time>2021-06-13T12:18:49Z</time>
      </trkpt>
      <trkpt lat="42.69845" lon="1.64687">
        <ele>1668.825</ele>
        <time>2021-06-13T12:18:51Z</time>
      </trkpt>
      <trkpt lat="42.69846" lon="1.64687">
        <ele>1668.248</ele>
        <time>2021-06-13T12:18:53Z</time>
      </trkpt>
      <trkpt lat="42.69847" lon="1.64688">
        <ele>1668.439</ele>
        <time>2021-06-13T12:18:55Z</time>
      </trkpt>
      <trkpt lat="42.69849" lon="1.64688">
        <ele>1668.433</ele>
        <time>2021-06-13T12:18:57Z</time>
      </trkpt>
      <trkpt lat="42.69851" lon="1.64689">
        <ele>1668.622</ele>
        <time>2021-06-13T12:18:59Z</time>
      </trkpt>
      <trkpt lat="42.69853" lon="1.64691">
        <ele>1668.417</ele>
        <time>2021-06-13T12:19:01Z</time>
      </trkpt>
      <trkpt lat="42.69854" lon="1.64692">
        <ele>1668.034</ele>
        <time>2021-06-13T12:19:03Z</time>
      </trkpt>
      <trkpt lat="42.69855" lon="1.64694">
        <ele>1668.038</ele>
        <time>2021-06-13T12:19:05Z</time>
      </trkpt>
      <trkpt lat="42.69856" lon="1.64695">
        <ele>1668.152</ele>
        <time>2021-06-13T12:19:07Z</time>
      </trkpt>
      <trkpt lat="42.69857" lon="1.64696">
        <ele>1667.61</ele>
        <time>2021-06-13T12:19:09Z</time>
      </trkpt>
      <trkpt lat="42.69858" lon="1.64697">
        <ele>1667.273</ele>
        <time>2021-06-13T12:19:11Z</time>
      </trkpt>
      <trkpt lat="42.69859" lon="1.64698">
        <ele>1667.006</ele>
        <time>2021-06-13T12:19:13Z</time>
      </trkpt>
      <trkpt lat="42.6986" lon="1.647">
        <ele>1667.358</ele>
        <time>2021-06-13T12:19:15Z</time>
      </trkpt>
      <trkpt lat="42.6986" lon="1.647">
        <ele>1665.846</ele>
        <time>2021-06-13T12:19:17Z</time>
      </trkpt>
      <trkpt lat="42.69859" lon="1.64702">
        <ele>1664.872</ele>
        <time>2021-06-13T12:19:19Z</time>
      </trkpt>
      <trkpt lat="42.69858" lon="1.64702">
        <ele>1664.711</ele>
        <time>2021-06-13T12:19:21Z</time>
      </trkpt>
      <trkpt lat="42.69857" lon="1.64703">
        <ele>1664.76</ele>
        <time>2021-06-13T12:19:23Z</time>
      </trkpt>
      <trkpt lat="42.69858" lon="1.64705">
        <ele>1664.485</ele>
        <time>2021-06-13T12:19:25Z</time>
      </trkpt>
      <trkpt lat="42.6986" lon="1.64705">
        <ele>1665.505</ele>
        <time>2021-06-13T12:19:27Z</time>
      </trkpt>
      <trkpt lat="42.69861" lon="1.64707">
        <ele>1664.903</ele>
        <time>2021-06-13T12:19:29Z</time>
      </trkpt>
      <trkpt lat="42.69862" lon="1.64708">
        <ele>1664.202</ele>
        <time>2021-06-13T12:19:31Z</time>
      </trkpt>
      <trkpt lat="42.69863" lon="1.6471">
        <ele>1664.226</ele>
        <time>2021-06-13T12:19:33Z</time>
      </trkpt>
      <trkpt lat="42.69865" lon="1.64712">
        <ele>1663.647</ele>
        <time>2021-06-13T12:19:35Z</time>
      </trkpt>
      <trkpt lat="42.69866" lon="1.64713">
        <ele>1663.56</ele>
        <time>2021-06-13T12:19:37Z</time>
      </trkpt>
      <trkpt lat="42.69867" lon="1.64714">
        <ele>1663.579</ele>
        <time>2021-06-13T12:19:39Z</time>
      </trkpt>
      <trkpt lat="42.69868" lon="1.64715">
        <ele>1663.478</ele>
        <time>2021-06-13T12:19:41Z</time>
      </trkpt>
      <trkpt lat="42.69869" lon="1.64717">
        <ele>1663.369</ele>
        <time>2021-06-13T12:19:43Z</time>
      </trkpt>
      <trkpt lat="42.6987" lon="1.64719">
        <ele>1662.863</ele>
        <time>2021-06-13T12:19:45Z</time>
      </trkpt>
      <trkpt lat="42.6987" lon="1.6472">
        <ele>1662.399</ele>
        <time>2021-06-13T12:19:47Z</time>
      </trkpt>
      <trkpt lat="42.6987" lon="1.64722">
        <ele>1661.817</ele>
        <time>2021-06-13T12:19:49Z</time>
      </trkpt>
      <trkpt lat="42.69871" lon="1.64723">
        <ele>1661.767</ele>
        <time>2021-06-13T12:19:51Z</time>
      </trkpt>
      <trkpt lat="42.69872" lon="1.64725">
        <ele>1661.44</ele>
        <time>2021-06-13T12:19:53Z</time>
      </trkpt>
      <trkpt lat="42.69871" lon="1.64726">
        <ele>1661.532</ele>
        <time>2021-06-13T12:19:55Z</time>
      </trkpt>
      <trkpt lat="42.69871" lon="1.64727">
        <ele>1661.215</ele>
        <time>2021-06-13T12:19:57Z</time>
      </trkpt>
      <trkpt lat="42.69871" lon="1.64729">
        <ele>1660.655</ele>
        <time>2021-06-13T12:19:59Z</time>
      </trkpt>
      <trkpt lat="42.69871" lon="1.6473">
        <ele>1660.257</ele>
        <time>2021-06-13T12:20:01Z</time>
      </trkpt>
      <trkpt lat="42.69871" lon="1.64731">
        <ele>1659.803</ele>
        <time>2021-06-13T12:20:03Z</time>
      </trkpt>
      <trkpt lat="42.69871" lon="1.64732">
        <ele>1659.08</ele>
        <time>2021-06-13T12:20:05Z</time>
      </trkpt>
      <trkpt lat="42.6987" lon="1.64734">
        <ele>1658.414</ele>
        <time>2021-06-13T12:20:07Z</time>
      </trkpt>
      <trkpt lat="42.6987" lon="1.64735">
        <ele>1657.881</ele>
        <time>2021-06-13T12:20:09Z</time>
      </trkpt>
      <trkpt lat="42.6987" lon="1.64736">
        <ele>1657.158</ele>
        <time>2021-06-13T12:20:11Z</time>
      </trkpt>
      <trkpt lat="42.69869" lon="1.64737">
        <ele>1656.598</ele>
        <time>2021-06-13T12:20:13Z</time>
      </trkpt>
      <trkpt lat="42.69867" lon="1.64737">
        <ele>1656.148</ele>
        <time>2021-06-13T12:20:15Z</time>
      </trkpt>
      <trkpt lat="42.69866" lon="1.64738">
        <ele>1655.782</ele>
        <time>2021-06-13T12:20:17Z</time>
      </trkpt>
      <trkpt lat="42.69865" lon="1.64739">
        <ele>1655.372</ele>
        <time>2021-06-13T12:20:19Z</time>
      </trkpt>
      <trkpt lat="42.69865" lon="1.64741">
        <ele>1654.971</ele>
        <time>2021-06-13T12:20:21Z</time>
      </trkpt>
      <trkpt lat="42.69865" lon="1.64743">
        <ele>1654.326</ele>
        <time>2021-06-13T12:20:23Z</time>
      </trkpt>
      <trkpt lat="42.69864" lon="1.64744">
        <ele>1653.599</ele>
        <time>2021-06-13T12:20:25Z</time>
      </trkpt>
      <trkpt lat="42.69863" lon="1.64745">
        <ele>1653.373</ele>
        <time>2021-06-13T12:20:27Z</time>
      </trkpt>
      <trkpt lat="42.69863" lon="1.64745">
        <ele>1652.805</ele>
        <time>2021-06-13T12:20:29Z</time>
      </trkpt>
      <trkpt lat="42.69862" lon="1.64747">
        <ele>1652.195</ele>
        <time>2021-06-13T12:20:31Z</time>
      </trkpt>
      <trkpt lat="42.69862" lon="1.64748">
        <ele>1652.055</ele>
        <time>2021-06-13T12:20:33Z</time>
      </trkpt>
      <trkpt lat="42.6986" lon="1.64749">
        <ele>1650.852</ele>
        <time>2021-06-13T12:20:35Z</time>
      </trkpt>
      <trkpt lat="42.69859" lon="1.64749">
        <ele>1650.872</ele>
        <time>2021-06-13T12:20:37Z</time>
      </trkpt>
      <trkpt lat="42.69858" lon="1.64749">
        <ele>1651.097</ele>
        <time>2021-06-13T12:20:39Z</time>
      </trkpt>
      <trkpt lat="42.69857" lon="1.64749">
        <ele>1651.094</ele>
        <time>2021-06-13T12:20:41Z</time>
      </trkpt>
      <trkpt lat="42.69856" lon="1.64749">
        <ele>1650.127</ele>
        <time>2021-06-13T12:20:43Z</time>
      </trkpt>
      <trkpt lat="42.69855" lon="1.6475">
        <ele>1650.039</ele>
        <time>2021-06-13T12:20:45Z</time>
      </trkpt>
      <trkpt lat="42.69854" lon="1.64751">
        <ele>1650.103</ele>
        <time>2021-06-13T12:20:47Z</time>
      </trkpt>
      <trkpt lat="42.69852" lon="1.64751">
        <ele>1650.047</ele>
        <time>2021-06-13T12:20:49Z</time>
      </trkpt>
      <trkpt lat="42.69851" lon="1.64752">
        <ele>1649.311</ele>
        <time>2021-06-13T12:20:51Z</time>
      </trkpt>
      <trkpt lat="42.6985" lon="1.64753">
        <ele>1648.66</ele>
        <time>2021-06-13T12:20:53Z</time>
      </trkpt>
      <trkpt lat="42.69849" lon="1.64751">
        <ele>1647.85</ele>
        <time>2021-06-13T12:20:55Z</time>
      </trkpt>
      <trkpt lat="42.69848" lon="1.64749">
        <ele>1647.9</ele>
        <time>2021-06-13T12:20:57Z</time>
      </trkpt>
      <trkpt lat="42.69848" lon="1.64747">
        <ele>1647.083</ele>
        <time>2021-06-13T12:20:59Z</time>
      </trkpt>
      <trkpt lat="42.69846" lon="1.64747">
        <ele>1646.641</ele>
        <time>2021-06-13T12:21:01Z</time>
      </trkpt>
      <trkpt lat="42.69845" lon="1.64747">
        <ele>1646.16</ele>
        <time>2021-06-13T12:21:03Z</time>
      </trkpt>
      <trkpt lat="42.69843" lon="1.64746">
        <ele>1646.032</ele>
        <time>2021-06-13T12:21:05Z</time>
      </trkpt>
      <trkpt lat="42.69841" lon="1.64746">
        <ele>1645.475</ele>
        <time>2021-06-13T12:21:07Z</time>
      </trkpt>
      <trkpt lat="42.6984" lon="1.64745">
        <ele>1644.927</ele>
        <time>2021-06-13T12:21:09Z</time>
      </trkpt>
      <trkpt lat="42.69838" lon="1.64744">
        <ele>1644.139</ele>
        <time>2021-06-13T12:21:11Z</time>
      </trkpt>
      <trkpt lat="42.69837" lon="1.64743">
        <ele>1643.736</ele>
        <time>2021-06-13T12:21:13Z</time>
      </trkpt>
      <trkpt lat="42.69836" lon="1.64741">
        <ele>1643.563</ele>
        <time>2021-06-13T12:21:15Z</time>
      </trkpt>
      <trkpt lat="42.69834" lon="1.6474">
        <ele>1643.106</ele>
        <time>2021-06-13T12:21:18Z</time>
      </trkpt>
      <trkpt lat="42.69832" lon="1.64739">
        <ele>1642.701</ele>
        <time>2021-06-13T12:21:20Z</time>
      </trkpt>
      <trkpt lat="42.69831" lon="1.64739">
        <ele>1643.067</ele>
        <time>2021-06-13T12:21:22Z</time>
      </trkpt>
      <trkpt lat="42.6983" lon="1.6474">
        <ele>1642.946</ele>
        <time>2021-06-13T12:21:24Z</time>
      </trkpt>
      <trkpt lat="42.69829" lon="1.64741">
        <ele>1642.877</ele>
        <time>2021-06-13T12:21:26Z</time>
      </trkpt>
      <trkpt lat="42.69828" lon="1.64742">
        <ele>1642.831</ele>
        <time>2021-06-13T12:21:28Z</time>
      </trkpt>
      <trkpt lat="42.69827" lon="1.64743">
        <ele>1642.52</ele>
        <time>2021-06-13T12:21:30Z</time>
      </trkpt>
      <trkpt lat="42.69826" lon="1.64744">
        <ele>1642.374</ele>
        <time>2021-06-13T12:21:32Z</time>
      </trkpt>
      <trkpt lat="42.69824" lon="1.64744">
        <ele>1642.326</ele>
        <time>2021-06-13T12:21:34Z</time>
      </trkpt>
      <trkpt lat="42.69823" lon="1.64744">
        <ele>1641.995</ele>
        <time>2021-06-13T12:21:36Z</time>
      </trkpt>
      <trkpt lat="42.69822" lon="1.64743">
        <ele>1642.191</ele>
        <time>2021-06-13T12:21:38Z</time>
      </trkpt>
      <trkpt lat="42.69821" lon="1.64742">
        <ele>1642.249</ele>
        <time>2021-06-13T12:21:40Z</time>
      </trkpt>
      <trkpt lat="42.69819" lon="1.64741">
        <ele>1641.438</ele>
        <time>2021-06-13T12:21:42Z</time>
      </trkpt>
      <trkpt lat="42.69819" lon="1.6474">
        <ele>1641.194</ele>
        <time>2021-06-13T12:21:44Z</time>
      </trkpt>
      <trkpt lat="42.69818" lon="1.64742">
        <ele>1640.402</ele>
        <time>2021-06-13T12:21:46Z</time>
      </trkpt>
      <trkpt lat="42.69818" lon="1.64742">
        <ele>1639.968</ele>
        <time>2021-06-13T12:21:48Z</time>
      </trkpt>
      <trkpt lat="42.69818" lon="1.64742">
        <ele>1639.966</ele>
        <time>2021-06-13T12:21:50Z</time>
      </trkpt>
      <trkpt lat="42.69818" lon="1.64742">
        <ele>1639.967</ele>
        <time>2021-06-13T12:21:52Z</time>
      </trkpt>
      <trkpt lat="42.69818" lon="1.64742">
        <ele>1639.957</ele>
        <time>2021-06-13T12:21:54Z</time>
      </trkpt>
      <trkpt lat="42.69818" lon="1.64742">
        <ele>1639.955</ele>
        <time>2021-06-13T12:21:56Z</time>
      </trkpt>
      <trkpt lat="42.69818" lon="1.64742">
        <ele>1639.95</ele>
        <time>2021-06-13T12:21:58Z</time>
      </trkpt>
      <trkpt lat="42.69818" lon="1.64742">
        <ele>1639.948</ele>
        <time>2021-06-13T12:22:00Z</time>
      </trkpt>
      <trkpt lat="42.69818" lon="1.64742">
        <ele>1639.954</ele>
        <time>2021-06-13T12:22:02Z</time>
      </trkpt>
      <trkpt lat="42.69818" lon="1.64742">
        <ele>1639.951</ele>
        <time>2021-06-13T12:22:04Z</time>
      </trkpt>
      <trkpt lat="42.69818" lon="1.64742">
        <ele>1639.947</ele>
        <time>2021-06-13T12:22:06Z</time>
      </trkpt>
      <trkpt lat="42.69818" lon="1.64742">
        <ele>1639.71</ele>
        <time>2021-06-13T12:22:08Z</time>
      </trkpt>
      <trkpt lat="42.69818" lon="1.64742">
        <ele>1639.715</ele>
        <time>2021-06-13T12:22:10Z</time>
      </trkpt>
      <trkpt lat="42.69818" lon="1.64742">
        <ele>1639.989</ele>
        <time>2021-06-13T12:22:12Z</time>
      </trkpt>
      <trkpt lat="42.69817" lon="1.64741">
        <ele>1640.202</ele>
        <time>2021-06-13T12:22:14Z</time>
      </trkpt>
      <trkpt lat="42.69816" lon="1.64741">
        <ele>1640.47</ele>
        <time>2021-06-13T12:22:16Z</time>
      </trkpt>
      <trkpt lat="42.69815" lon="1.64743">
        <ele>1641.419</ele>
        <time>2021-06-13T12:22:18Z</time>
      </trkpt>
      <trkpt lat="42.69813" lon="1.64744">
        <ele>1642.143</ele>
        <time>2021-06-13T12:22:20Z</time>
      </trkpt>
      <trkpt lat="42.69812" lon="1.64744">
        <ele>1641.383</ele>
        <time>2021-06-13T12:22:22Z</time>
      </trkpt>
      <trkpt lat="42.69811" lon="1.64743">
        <ele>1641.768</ele>
        <time>2021-06-13T12:22:24Z</time>
      </trkpt>
      <trkpt lat="42.6981" lon="1.64744">
        <ele>1643.13</ele>
        <time>2021-06-13T12:22:26Z</time>
      </trkpt>
      <trkpt lat="42.69808" lon="1.64744">
        <ele>1643.565</ele>
        <time>2021-06-13T12:22:28Z</time>
      </trkpt>
      <trkpt lat="42.69807" lon="1.64746">
        <ele>1643.777</ele>
        <time>2021-06-13T12:22:30Z</time>
      </trkpt>
      <trkpt lat="42.69806" lon="1.64746">
        <ele>1643.445</ele>
        <time>2021-06-13T12:22:32Z</time>
      </trkpt>
      <trkpt lat="42.69807" lon="1.64745">
        <ele>1643.427</ele>
        <time>2021-06-13T12:22:34Z</time>
      </trkpt>
      <trkpt lat="42.69807" lon="1.64745">
        <ele>1643.43</ele>
        <time>2021-06-13T12:22:36Z</time>
      </trkpt>
      <trkpt lat="42.69807" lon="1.64745">
        <ele>1644.152</ele>
        <time>2021-06-13T12:22:38Z</time>
      </trkpt>
      <trkpt lat="42.69807" lon="1.64745">
        <ele>1644.094</ele>
        <time>2021-06-13T12:22:40Z</time>
      </trkpt>
      <trkpt lat="42.69806" lon="1.64744">
        <ele>1645.164</ele>
        <time>2021-06-13T12:22:42Z</time>
      </trkpt>
      <trkpt lat="42.69806" lon="1.64744">
        <ele>1645.165</ele>
        <time>2021-06-13T12:22:44Z</time>
      </trkpt>
      <trkpt lat="42.69806" lon="1.64744">
        <ele>1645.153</ele>
        <time>2021-06-13T12:22:46Z</time>
      </trkpt>
      <trkpt lat="42.69806" lon="1.64745">
        <ele>1644.648</ele>
        <time>2021-06-13T12:22:48Z</time>
      </trkpt>
      <trkpt lat="42.69805" lon="1.64747">
        <ele>1642.724</ele>
        <time>2021-06-13T12:22:50Z</time>
      </trkpt>
      <trkpt lat="42.69806" lon="1.6475">
        <ele>1642.644</ele>
        <time>2021-06-13T12:22:52Z</time>
      </trkpt>
      <trkpt lat="42.69807" lon="1.64752">
        <ele>1640.87</ele>
        <time>2021-06-13T12:22:54Z</time>
      </trkpt>
      <trkpt lat="42.69808" lon="1.64753">
        <ele>1638.955</ele>
        <time>2021-06-13T12:22:56Z</time>
      </trkpt>
      <trkpt lat="42.69809" lon="1.64754">
        <ele>1638.463</ele>
        <time>2021-06-13T12:22:58Z</time>
      </trkpt>
      <trkpt lat="42.6981" lon="1.64756">
        <ele>1638.075</ele>
        <time>2021-06-13T12:23:00Z</time>
      </trkpt>
      <trkpt lat="42.69811" lon="1.64757">
        <ele>1637.79</ele>
        <time>2021-06-13T12:23:02Z</time>
      </trkpt>
      <trkpt lat="42.69812" lon="1.64759">
        <ele>1637.171</ele>
        <time>2021-06-13T12:23:04Z</time>
      </trkpt>
      <trkpt lat="42.69813" lon="1.64759">
        <ele>1635.706</ele>
        <time>2021-06-13T12:23:06Z</time>
      </trkpt>
      <trkpt lat="42.69815" lon="1.64762">
        <ele>1635.792</ele>
        <time>2021-06-13T12:23:08Z</time>
      </trkpt>
      <trkpt lat="42.69816" lon="1.64764">
        <ele>1635.925</ele>
        <time>2021-06-13T12:23:10Z</time>
      </trkpt>
      <trkpt lat="42.69817" lon="1.64767">
        <ele>1635.716</ele>
        <time>2021-06-13T12:23:12Z</time>
      </trkpt>
      <trkpt lat="42.69817" lon="1.64769">
        <ele>1635.654</ele>
        <time>2021-06-13T12:23:14Z</time>
      </trkpt>
      <trkpt lat="42.69817" lon="1.64772">
        <ele>1636.249</ele>
        <time>2021-06-13T12:23:16Z</time>
      </trkpt>
      <trkpt lat="42.69817" lon="1.64774">
        <ele>1636.461</ele>
        <time>2021-06-13T12:23:18Z</time>
      </trkpt>
      <trkpt lat="42.69816" lon="1.64777">
        <ele>1635.99</ele>
        <time>2021-06-13T12:23:20Z</time>
      </trkpt>
      <trkpt lat="42.69815" lon="1.64779">
        <ele>1636.473</ele>
        <time>2021-06-13T12:23:22Z</time>
      </trkpt>
      <trkpt lat="42.69815" lon="1.64782">
        <ele>1636.062</ele>
        <time>2021-06-13T12:23:24Z</time>
      </trkpt>
      <trkpt lat="42.69813" lon="1.64783">
        <ele>1635.68</ele>
        <time>2021-06-13T12:23:26Z</time>
      </trkpt>
      <trkpt lat="42.69812" lon="1.64784">
        <ele>1636.163</ele>
        <time>2021-06-13T12:23:28Z</time>
      </trkpt>
      <trkpt lat="42.69811" lon="1.64785">
        <ele>1634.404</ele>
        <time>2021-06-13T12:23:30Z</time>
      </trkpt>
      <trkpt lat="42.69811" lon="1.64782">
        <ele>1633.318</ele>
        <time>2021-06-13T12:23:32Z</time>
      </trkpt>
      <trkpt lat="42.69811" lon="1.64782">
        <ele>1633.312</ele>
        <time>2021-06-13T12:23:34Z</time>
      </trkpt>
      <trkpt lat="42.69811" lon="1.64782">
        <ele>1633.347</ele>
        <time>2021-06-13T12:23:36Z</time>
      </trkpt>
      <trkpt lat="42.6981" lon="1.64782">
        <ele>1633.466</ele>
        <time>2021-06-13T12:23:38Z</time>
      </trkpt>
      <trkpt lat="42.69809" lon="1.64781">
        <ele>1633.101</ele>
        <time>2021-06-13T12:23:40Z</time>
      </trkpt>
      <trkpt lat="42.69807" lon="1.64779">
        <ele>1633.186</ele>
        <time>2021-06-13T12:23:42Z</time>
      </trkpt>
      <trkpt lat="42.69805" lon="1.64778">
        <ele>1633.236</ele>
        <time>2021-06-13T12:23:44Z</time>
      </trkpt>
      <trkpt lat="42.69804" lon="1.64777">
        <ele>1633.369</ele>
        <time>2021-06-13T12:23:46Z</time>
      </trkpt>
      <trkpt lat="42.69802" lon="1.64778">
        <ele>1634.073</ele>
        <time>2021-06-13T12:23:48Z</time>
      </trkpt>
      <trkpt lat="42.69801" lon="1.64778">
        <ele>1632.916</ele>
        <time>2021-06-13T12:23:50Z</time>
      </trkpt>
      <trkpt lat="42.698" lon="1.64778">
        <ele>1633.537</ele>
        <time>2021-06-13T12:23:52Z</time>
      </trkpt>
      <trkpt lat="42.69798" lon="1.64777">
        <ele>1634.247</ele>
        <time>2021-06-13T12:23:54Z</time>
      </trkpt>
      <trkpt lat="42.69797" lon="1.64777">
        <ele>1634.804</ele>
        <time>2021-06-13T12:23:56Z</time>
      </trkpt>
      <trkpt lat="42.69796" lon="1.64777">
        <ele>1634.369</ele>
        <time>2021-06-13T12:23:58Z</time>
      </trkpt>
      <trkpt lat="42.69794" lon="1.64778">
        <ele>1634.861</ele>
        <time>2021-06-13T12:24:00Z</time>
      </trkpt>
      <trkpt lat="42.69792" lon="1.64777">
        <ele>1635.943</ele>
        <time>2021-06-13T12:24:02Z</time>
      </trkpt>
      <trkpt lat="42.69791" lon="1.64777">
        <ele>1636.392</ele>
        <time>2021-06-13T12:24:04Z</time>
      </trkpt>
      <trkpt lat="42.6979" lon="1.64776">
        <ele>1638.324</ele>
        <time>2021-06-13T12:24:06Z</time>
      </trkpt>
      <trkpt lat="42.69788" lon="1.64776">
        <ele>1637.082</ele>
        <time>2021-06-13T12:24:08Z</time>
      </trkpt>
      <trkpt lat="42.69787" lon="1.64776">
        <ele>1635.738</ele>
        <time>2021-06-13T12:24:10Z</time>
      </trkpt>
      <trkpt lat="42.69786" lon="1.64776">
        <ele>1635.135</ele>
        <time>2021-06-13T12:24:12Z</time>
      </trkpt>
      <trkpt lat="42.69784" lon="1.64776">
        <ele>1633.31</ele>
        <time>2021-06-13T12:24:14Z</time>
      </trkpt>
      <trkpt lat="42.69783" lon="1.64778">
        <ele>1632.838</ele>
        <time>2021-06-13T12:24:16Z</time>
      </trkpt>
      <trkpt lat="42.69781" lon="1.64779">
        <ele>1633.199</ele>
        <time>2021-06-13T12:24:18Z</time>
      </trkpt>
      <trkpt lat="42.69779" lon="1.6478">
        <ele>1635.45</ele>
        <time>2021-06-13T12:24:20Z</time>
      </trkpt>
      <trkpt lat="42.69779" lon="1.64779">
        <ele>1635.439</ele>
        <time>2021-06-13T12:24:22Z</time>
      </trkpt>
      <trkpt lat="42.69777" lon="1.64778">
        <ele>1635.134</ele>
        <time>2021-06-13T12:24:24Z</time>
      </trkpt>
      <trkpt lat="42.69776" lon="1.64776">
        <ele>1633.77</ele>
        <time>2021-06-13T12:24:26Z</time>
      </trkpt>
      <trkpt lat="42.69776" lon="1.64776">
        <ele>1633.001</ele>
        <time>2021-06-13T12:24:28Z</time>
      </trkpt>
      <trkpt lat="42.69774" lon="1.64776">
        <ele>1632.676</ele>
        <time>2021-06-13T12:24:30Z</time>
      </trkpt>
      <trkpt lat="42.69774" lon="1.64771">
        <ele>1632.863</ele>
        <time>2021-06-13T12:24:32Z</time>
      </trkpt>
      <trkpt lat="42.69777" lon="1.64771">
        <ele>1633.084</ele>
        <time>2021-06-13T12:24:33Z</time>
      </trkpt>
      <trkpt lat="42.69781" lon="1.6477">
        <ele>1634.04</ele>
        <time>2021-06-13T12:24:36Z</time>
      </trkpt>
      <trkpt lat="42.69784" lon="1.64768">
        <ele>1634.053</ele>
        <time>2021-06-13T12:24:38Z</time>
      </trkpt>
      <trkpt lat="42.69783" lon="1.64765">
        <ele>1633.39</ele>
        <time>2021-06-13T12:24:40Z</time>
      </trkpt>
      <trkpt lat="42.69783" lon="1.64761">
        <ele>1633.887</ele>
        <time>2021-06-13T12:24:42Z</time>
      </trkpt>
      <trkpt lat="42.69783" lon="1.64759">
        <ele>1633.349</ele>
        <time>2021-06-13T12:24:44Z</time>
      </trkpt>
      <trkpt lat="42.69783" lon="1.64757">
        <ele>1634.787</ele>
        <time>2021-06-13T12:24:46Z</time>
      </trkpt>
      <trkpt lat="42.69781" lon="1.64756">
        <ele>1634.368</ele>
        <time>2021-06-13T12:24:48Z</time>
      </trkpt>
      <trkpt lat="42.6978" lon="1.64755">
        <ele>1634.333</ele>
        <time>2021-06-13T12:24:50Z</time>
      </trkpt>
      <trkpt lat="42.69779" lon="1.64754">
        <ele>1632.84</ele>
        <time>2021-06-13T12:24:52Z</time>
      </trkpt>
      <trkpt lat="42.69777" lon="1.64753">
        <ele>1632.003</ele>
        <time>2021-06-13T12:24:54Z</time>
      </trkpt>
      <trkpt lat="42.69776" lon="1.64751">
        <ele>1632.761</ele>
        <time>2021-06-13T12:24:56Z</time>
      </trkpt>
      <trkpt lat="42.69775" lon="1.6475">
        <ele>1632.849</ele>
        <time>2021-06-13T12:24:58Z</time>
      </trkpt>
      <trkpt lat="42.69774" lon="1.64749">
        <ele>1632.882</ele>
        <time>2021-06-13T12:25:00Z</time>
      </trkpt>
      <trkpt lat="42.69772" lon="1.64748">
        <ele>1631.514</ele>
        <time>2021-06-13T12:25:02Z</time>
      </trkpt>
      <trkpt lat="42.69771" lon="1.64748">
        <ele>1630.41</ele>
        <time>2021-06-13T12:25:04Z</time>
      </trkpt>
      <trkpt lat="42.69769" lon="1.64747">
        <ele>1629.271</ele>
        <time>2021-06-13T12:25:06Z</time>
      </trkpt>
      <trkpt lat="42.69768" lon="1.64747">
        <ele>1627.56</ele>
        <time>2021-06-13T12:25:08Z</time>
      </trkpt>
      <trkpt lat="42.69766" lon="1.64746">
        <ele>1626.646</ele>
        <time>2021-06-13T12:25:10Z</time>
      </trkpt>
      <trkpt lat="42.69765" lon="1.64746">
        <ele>1626.443</ele>
        <time>2021-06-13T12:25:12Z</time>
      </trkpt>
      <trkpt lat="42.69764" lon="1.64746">
        <ele>1626.84</ele>
        <time>2021-06-13T12:25:14Z</time>
      </trkpt>
      <trkpt lat="42.69762" lon="1.64745">
        <ele>1627.732</ele>
        <time>2021-06-13T12:25:16Z</time>
      </trkpt>
      <trkpt lat="42.69762" lon="1.64747">
        <ele>1625.705</ele>
        <time>2021-06-13T12:25:18Z</time>
      </trkpt>
      <trkpt lat="42.69761" lon="1.64748">
        <ele>1627.068</ele>
        <time>2021-06-13T12:25:20Z</time>
      </trkpt>
      <trkpt lat="42.6976" lon="1.64749">
        <ele>1626.524</ele>
        <time>2021-06-13T12:25:22Z</time>
      </trkpt>
      <trkpt lat="42.69758" lon="1.6475">
        <ele>1628.015</ele>
        <time>2021-06-13T12:25:24Z</time>
      </trkpt>
      <trkpt lat="42.69757" lon="1.6475">
        <ele>1628.511</ele>
        <time>2021-06-13T12:25:26Z</time>
      </trkpt>
      <trkpt lat="42.69756" lon="1.64748">
        <ele>1628.019</ele>
        <time>2021-06-13T12:25:28Z</time>
      </trkpt>
      <trkpt lat="42.69756" lon="1.64748">
        <ele>1627.552</ele>
        <time>2021-06-13T12:25:30Z</time>
      </trkpt>
      <trkpt lat="42.69756" lon="1.64747">
        <ele>1626.896</ele>
        <time>2021-06-13T12:25:32Z</time>
      </trkpt>
      <trkpt lat="42.69754" lon="1.64746">
        <ele>1626.9</ele>
        <time>2021-06-13T12:25:34Z</time>
      </trkpt>
      <trkpt lat="42.69753" lon="1.64745">
        <ele>1626.931</ele>
        <time>2021-06-13T12:25:36Z</time>
      </trkpt>
      <trkpt lat="42.69753" lon="1.64744">
        <ele>1624.45</ele>
        <time>2021-06-13T12:25:38Z</time>
      </trkpt>
      <trkpt lat="42.69752" lon="1.64743">
        <ele>1623.797</ele>
        <time>2021-06-13T12:25:40Z</time>
      </trkpt>
      <trkpt lat="42.69752" lon="1.64744">
        <ele>1623.791</ele>
        <time>2021-06-13T12:25:42Z</time>
      </trkpt>
      <trkpt lat="42.69751" lon="1.64744">
        <ele>1622.889</ele>
        <time>2021-06-13T12:25:44Z</time>
      </trkpt>
      <trkpt lat="42.6975" lon="1.64746">
        <ele>1623.494</ele>
        <time>2021-06-13T12:25:46Z</time>
      </trkpt>
      <trkpt lat="42.69748" lon="1.64747">
        <ele>1622.952</ele>
        <time>2021-06-13T12:25:48Z</time>
      </trkpt>
      <trkpt lat="42.69747" lon="1.64747">
        <ele>1622.576</ele>
        <time>2021-06-13T12:25:50Z</time>
      </trkpt>
      <trkpt lat="42.69745" lon="1.64748">
        <ele>1622.008</ele>
        <time>2021-06-13T12:25:52Z</time>
      </trkpt>
      <trkpt lat="42.69744" lon="1.64747">
        <ele>1621.499</ele>
        <time>2021-06-13T12:25:54Z</time>
      </trkpt>
      <trkpt lat="42.69744" lon="1.64746">
        <ele>1621.47</ele>
        <time>2021-06-13T12:25:56Z</time>
      </trkpt>
      <trkpt lat="42.69742" lon="1.64745">
        <ele>1620.159</ele>
        <time>2021-06-13T12:25:58Z</time>
      </trkpt>
      <trkpt lat="42.69742" lon="1.64744">
        <ele>1619.854</ele>
        <time>2021-06-13T12:26:00Z</time>
      </trkpt>
      <trkpt lat="42.69742" lon="1.64743">
        <ele>1619.082</ele>
        <time>2021-06-13T12:26:02Z</time>
      </trkpt>
      <trkpt lat="42.69742" lon="1.64742">
        <ele>1619.187</ele>
        <time>2021-06-13T12:26:04Z</time>
      </trkpt>
      <trkpt lat="42.69741" lon="1.64741">
        <ele>1618.941</ele>
        <time>2021-06-13T12:26:06Z</time>
      </trkpt>
      <trkpt lat="42.6974" lon="1.6474">
        <ele>1618.54</ele>
        <time>2021-06-13T12:26:08Z</time>
      </trkpt>
      <trkpt lat="42.69739" lon="1.64738">
        <ele>1619.145</ele>
        <time>2021-06-13T12:26:10Z</time>
      </trkpt>
      <trkpt lat="42.69739" lon="1.64737">
        <ele>1617.037</ele>
        <time>2021-06-13T12:26:12Z</time>
      </trkpt>
      <trkpt lat="42.69738" lon="1.64735">
        <ele>1615.871</ele>
        <time>2021-06-13T12:26:14Z</time>
      </trkpt>
      <trkpt lat="42.69738" lon="1.64733">
        <ele>1614.818</ele>
        <time>2021-06-13T12:26:16Z</time>
      </trkpt>
      <trkpt lat="42.69739" lon="1.6473">
        <ele>1614.556</ele>
        <time>2021-06-13T12:26:18Z</time>
      </trkpt>
      <trkpt lat="42.69739" lon="1.64729">
        <ele>1612.593</ele>
        <time>2021-06-13T12:26:20Z</time>
      </trkpt>
      <trkpt lat="42.69739" lon="1.64728">
        <ele>1613.761</ele>
        <time>2021-06-13T12:26:22Z</time>
      </trkpt>
      <trkpt lat="42.69738" lon="1.64725">
        <ele>1611.721</ele>
        <time>2021-06-13T12:26:24Z</time>
      </trkpt>
      <trkpt lat="42.69737" lon="1.64725">
        <ele>1609.47</ele>
        <time>2021-06-13T12:26:26Z</time>
      </trkpt>
      <trkpt lat="42.69737" lon="1.6472">
        <ele>1609.206</ele>
        <time>2021-06-13T12:26:28Z</time>
      </trkpt>
      <trkpt lat="42.69736" lon="1.6472">
        <ele>1606.389</ele>
        <time>2021-06-13T12:26:30Z</time>
      </trkpt>
      <trkpt lat="42.69734" lon="1.64719">
        <ele>1605.889</ele>
        <time>2021-06-13T12:26:32Z</time>
      </trkpt>
      <trkpt lat="42.69732" lon="1.64719">
        <ele>1605.211</ele>
        <time>2021-06-13T12:26:34Z</time>
      </trkpt>
      <trkpt lat="42.6973" lon="1.64719">
        <ele>1604.828</ele>
        <time>2021-06-13T12:26:36Z</time>
      </trkpt>
      <trkpt lat="42.69728" lon="1.64719">
        <ele>1604.271</ele>
        <time>2021-06-13T12:26:38Z</time>
      </trkpt>
      <trkpt lat="42.69725" lon="1.64719">
        <ele>1604.682</ele>
        <time>2021-06-13T12:26:40Z</time>
      </trkpt>
      <trkpt lat="42.69723" lon="1.64719">
        <ele>1604.332</ele>
        <time>2021-06-13T12:26:42Z</time>
      </trkpt>
      <trkpt lat="42.69721" lon="1.64719">
        <ele>1604.4</ele>
        <time>2021-06-13T12:26:44Z</time>
      </trkpt>
      <trkpt lat="42.69719" lon="1.64718">
        <ele>1603.475</ele>
        <time>2021-06-13T12:26:46Z</time>
      </trkpt>
      <trkpt lat="42.69718" lon="1.64718">
        <ele>1601.82</ele>
        <time>2021-06-13T12:26:48Z</time>
      </trkpt>
      <trkpt lat="42.69717" lon="1.64717">
        <ele>1601.846</ele>
        <time>2021-06-13T12:26:50Z</time>
      </trkpt>
      <trkpt lat="42.69715" lon="1.64716">
        <ele>1601.234</ele>
        <time>2021-06-13T12:26:52Z</time>
      </trkpt>
      <trkpt lat="42.69714" lon="1.64715">
        <ele>1601.826</ele>
        <time>2021-06-13T12:26:54Z</time>
      </trkpt>
      <trkpt lat="42.69711" lon="1.64713">
        <ele>1603.329</ele>
        <time>2021-06-13T12:26:56Z</time>
      </trkpt>
      <trkpt lat="42.69711" lon="1.64711">
        <ele>1602.437</ele>
        <time>2021-06-13T12:26:58Z</time>
      </trkpt>
      <trkpt lat="42.69711" lon="1.6471">
        <ele>1603.608</ele>
        <time>2021-06-13T12:27:00Z</time>
      </trkpt>
      <trkpt lat="42.69709" lon="1.64708">
        <ele>1603.045</ele>
        <time>2021-06-13T12:27:02Z</time>
      </trkpt>
      <trkpt lat="42.69708" lon="1.64707">
        <ele>1603.091</ele>
        <time>2021-06-13T12:27:04Z</time>
      </trkpt>
      <trkpt lat="42.69707" lon="1.64706">
        <ele>1602.707</ele>
        <time>2021-06-13T12:27:06Z</time>
      </trkpt>
      <trkpt lat="42.69706" lon="1.64705">
        <ele>1603.94</ele>
        <time>2021-06-13T12:27:08Z</time>
      </trkpt>
      <trkpt lat="42.69706" lon="1.64704">
        <ele>1604.186</ele>
        <time>2021-06-13T12:27:10Z</time>
      </trkpt>
      <trkpt lat="42.69704" lon="1.64703">
        <ele>1604.962</ele>
        <time>2021-06-13T12:27:12Z</time>
      </trkpt>
      <trkpt lat="42.69703" lon="1.64703">
        <ele>1606.924</ele>
        <time>2021-06-13T12:27:14Z</time>
      </trkpt>
      <trkpt lat="42.69703" lon="1.64702">
        <ele>1605.212</ele>
        <time>2021-06-13T12:27:17Z</time>
      </trkpt>
      <trkpt lat="42.69702" lon="1.64701">
        <ele>1604.504</ele>
        <time>2021-06-13T12:27:19Z</time>
      </trkpt>
      <trkpt lat="42.69701" lon="1.647">
        <ele>1605.537</ele>
        <time>2021-06-13T12:27:21Z</time>
      </trkpt>
      <trkpt lat="42.697" lon="1.647">
        <ele>1605.279</ele>
        <time>2021-06-13T12:27:23Z</time>
      </trkpt>
      <trkpt lat="42.697" lon="1.647">
        <ele>1605.186</ele>
        <time>2021-06-13T12:27:25Z</time>
      </trkpt>
      <trkpt lat="42.69698" lon="1.64699">
        <ele>1606.148</ele>
        <time>2021-06-13T12:27:27Z</time>
      </trkpt>
      <trkpt lat="42.69698" lon="1.64697">
        <ele>1606.874</ele>
        <time>2021-06-13T12:27:29Z</time>
      </trkpt>
      <trkpt lat="42.69698" lon="1.64695">
        <ele>1606.52</ele>
        <time>2021-06-13T12:27:31Z</time>
      </trkpt>
      <trkpt lat="42.69698" lon="1.64694">
        <ele>1606.491</ele>
        <time>2021-06-13T12:27:33Z</time>
      </trkpt>
      <trkpt lat="42.69697" lon="1.64693">
        <ele>1606.372</ele>
        <time>2021-06-13T12:27:35Z</time>
      </trkpt>
      <trkpt lat="42.69696" lon="1.64692">
        <ele>1605.9</ele>
        <time>2021-06-13T12:27:37Z</time>
      </trkpt>
      <trkpt lat="42.69695" lon="1.64691">
        <ele>1604.604</ele>
        <time>2021-06-13T12:27:39Z</time>
      </trkpt>
      <trkpt lat="42.69695" lon="1.6469">
        <ele>1603.987</ele>
        <time>2021-06-13T12:27:41Z</time>
      </trkpt>
      <trkpt lat="42.69695" lon="1.64688">
        <ele>1603.231</ele>
        <time>2021-06-13T12:27:43Z</time>
      </trkpt>
      <trkpt lat="42.69694" lon="1.64687">
        <ele>1603.66</ele>
        <time>2021-06-13T12:27:45Z</time>
      </trkpt>
      <trkpt lat="42.69692" lon="1.64686">
        <ele>1601.909</ele>
        <time>2021-06-13T12:27:47Z</time>
      </trkpt>
      <trkpt lat="42.69691" lon="1.64686">
        <ele>1601.258</ele>
        <time>2021-06-13T12:27:49Z</time>
      </trkpt>
      <trkpt lat="42.6969" lon="1.64686">
        <ele>1599.778</ele>
        <time>2021-06-13T12:27:51Z</time>
      </trkpt>
      <trkpt lat="42.69689" lon="1.64685">
        <ele>1598.661</ele>
        <time>2021-06-13T12:27:53Z</time>
      </trkpt>
      <trkpt lat="42.69688" lon="1.64684">
        <ele>1597.302</ele>
        <time>2021-06-13T12:27:55Z</time>
      </trkpt>
      <trkpt lat="42.69687" lon="1.64684">
        <ele>1597.156</ele>
        <time>2021-06-13T12:27:57Z</time>
      </trkpt>
      <trkpt lat="42.69686" lon="1.64683">
        <ele>1596.331</ele>
        <time>2021-06-13T12:27:59Z</time>
      </trkpt>
      <trkpt lat="42.69685" lon="1.64682">
        <ele>1596.76</ele>
        <time>2021-06-13T12:28:01Z</time>
      </trkpt>
      <trkpt lat="42.69684" lon="1.64681">
        <ele>1595.956</ele>
        <time>2021-06-13T12:28:03Z</time>
      </trkpt>
      <trkpt lat="42.69683" lon="1.64681">
        <ele>1595.696</ele>
        <time>2021-06-13T12:28:04Z</time>
      </trkpt>
      <trkpt lat="42.69681" lon="1.64679">
        <ele>1594.945</ele>
        <time>2021-06-13T12:28:07Z</time>
      </trkpt>
      <trkpt lat="42.69679" lon="1.64678">
        <ele>1594.985</ele>
        <time>2021-06-13T12:28:09Z</time>
      </trkpt>
      <trkpt lat="42.69678" lon="1.64676">
        <ele>1595.602</ele>
        <time>2021-06-13T12:28:11Z</time>
      </trkpt>
      <trkpt lat="42.69677" lon="1.64675">
        <ele>1596.333</ele>
        <time>2021-06-13T12:28:13Z</time>
      </trkpt>
      <trkpt lat="42.69676" lon="1.64675">
        <ele>1596.898</ele>
        <time>2021-06-13T12:28:15Z</time>
      </trkpt>
      <trkpt lat="42.69676" lon="1.64675">
        <ele>1596.887</ele>
        <time>2021-06-13T12:28:17Z</time>
      </trkpt>
      <trkpt lat="42.69676" lon="1.64675">
        <ele>1596.879</ele>
        <time>2021-06-13T12:28:19Z</time>
      </trkpt>
      <trkpt lat="42.69675" lon="1.64676">
        <ele>1596.654</ele>
        <time>2021-06-13T12:28:21Z</time>
      </trkpt>
      <trkpt lat="42.69674" lon="1.64678">
        <ele>1596.827</ele>
        <time>2021-06-13T12:28:23Z</time>
      </trkpt>
      <trkpt lat="42.69674" lon="1.64681">
        <ele>1596.886</ele>
        <time>2021-06-13T12:28:25Z</time>
      </trkpt>
      <trkpt lat="42.69673" lon="1.64683">
        <ele>1595.583</ele>
        <time>2021-06-13T12:28:27Z</time>
      </trkpt>
      <trkpt lat="42.69671" lon="1.64684">
        <ele>1595.85</ele>
        <time>2021-06-13T12:28:29Z</time>
      </trkpt>
      <trkpt lat="42.6967" lon="1.64684">
        <ele>1597.206</ele>
        <time>2021-06-13T12:28:31Z</time>
      </trkpt>
      <trkpt lat="42.69668" lon="1.64683">
        <ele>1599.075</ele>
        <time>2021-06-13T12:28:33Z</time>
      </trkpt>
      <trkpt lat="42.69668" lon="1.64682">
        <ele>1599.831</ele>
        <time>2021-06-13T12:28:34Z</time>
      </trkpt>
      <trkpt lat="42.69669" lon="1.64681">
        <ele>1598.702</ele>
        <time>2021-06-13T12:28:37Z</time>
      </trkpt>
      <trkpt lat="42.69669" lon="1.64681">
        <ele>1598.699</ele>
        <time>2021-06-13T12:28:39Z</time>
      </trkpt>
      <trkpt lat="42.69669" lon="1.64681">
        <ele>1598.699</ele>
        <time>2021-06-13T12:28:41Z</time>
      </trkpt>
      <trkpt lat="42.69669" lon="1.64681">
        <ele>1598.699</ele>
        <time>2021-06-13T12:28:43Z</time>
      </trkpt>
      <trkpt lat="42.69669" lon="1.64681">
        <ele>1598.7</ele>
        <time>2021-06-13T12:28:44Z</time>
      </trkpt>
      <trkpt lat="42.69668" lon="1.64682">
        <ele>1599.612</ele>
        <time>2021-06-13T12:28:47Z</time>
      </trkpt>
      <trkpt lat="42.69667" lon="1.64682">
        <ele>1598.776</ele>
        <time>2021-06-13T12:28:49Z</time>
      </trkpt>
      <trkpt lat="42.69666" lon="1.64682">
        <ele>1598.268</ele>
        <time>2021-06-13T12:28:51Z</time>
      </trkpt>
      <trkpt lat="42.69666" lon="1.64681">
        <ele>1597.614</ele>
        <time>2021-06-13T12:28:53Z</time>
      </trkpt>
      <trkpt lat="42.69665" lon="1.6468">
        <ele>1597.433</ele>
        <time>2021-06-13T12:28:54Z</time>
      </trkpt>
      <trkpt lat="42.69664" lon="1.64679">
        <ele>1598.53</ele>
        <time>2021-06-13T12:28:57Z</time>
      </trkpt>
      <trkpt lat="42.69663" lon="1.64679">
        <ele>1599.647</ele>
        <time>2021-06-13T12:28:59Z</time>
      </trkpt>
      <trkpt lat="42.69663" lon="1.64679">
        <ele>1599.654</ele>
        <time>2021-06-13T12:29:01Z</time>
      </trkpt>
      <trkpt lat="42.69663" lon="1.64679">
        <ele>1599.646</ele>
        <time>2021-06-13T12:29:03Z</time>
      </trkpt>
      <trkpt lat="42.69663" lon="1.64679">
        <ele>1599.648</ele>
        <time>2021-06-13T12:29:04Z</time>
      </trkpt>
      <trkpt lat="42.69663" lon="1.64679">
        <ele>1599.648</ele>
        <time>2021-06-13T12:29:07Z</time>
      </trkpt>
      <trkpt lat="42.69663" lon="1.64679">
        <ele>1599.655</ele>
        <time>2021-06-13T12:29:09Z</time>
      </trkpt>
      <trkpt lat="42.69663" lon="1.64679">
        <ele>1599.66</ele>
        <time>2021-06-13T12:29:11Z</time>
      </trkpt>
      <trkpt lat="42.69663" lon="1.64679">
        <ele>1599.648</ele>
        <time>2021-06-13T12:29:13Z</time>
      </trkpt>
      <trkpt lat="42.69663" lon="1.64679">
        <ele>1599.648</ele>
        <time>2021-06-13T12:29:14Z</time>
      </trkpt>
      <trkpt lat="42.69663" lon="1.64679">
        <ele>1599.642</ele>
        <time>2021-06-13T12:29:17Z</time>
      </trkpt>
      <trkpt lat="42.69663" lon="1.64679">
        <ele>1599.636</ele>
        <time>2021-06-13T12:29:19Z</time>
      </trkpt>
      <trkpt lat="42.69663" lon="1.64679">
        <ele>1599.639</ele>
        <time>2021-06-13T12:29:21Z</time>
      </trkpt>
      <trkpt lat="42.69663" lon="1.64679">
        <ele>1599.628</ele>
        <time>2021-06-13T12:29:23Z</time>
      </trkpt>
      <trkpt lat="42.69663" lon="1.64679">
        <ele>1599.635</ele>
        <time>2021-06-13T12:29:24Z</time>
      </trkpt>
      <trkpt lat="42.69663" lon="1.64679">
        <ele>1599.657</ele>
        <time>2021-06-13T12:29:27Z</time>
      </trkpt>
      <trkpt lat="42.69663" lon="1.64679">
        <ele>1599.654</ele>
        <time>2021-06-13T12:29:29Z</time>
      </trkpt>
      <trkpt lat="42.69663" lon="1.64679">
        <ele>1599.649</ele>
        <time>2021-06-13T12:29:31Z</time>
      </trkpt>
      <trkpt lat="42.69663" lon="1.64679">
        <ele>1599.631</ele>
        <time>2021-06-13T12:29:33Z</time>
      </trkpt>
      <trkpt lat="42.69663" lon="1.64679">
        <ele>1599.621</ele>
        <time>2021-06-13T12:29:35Z</time>
      </trkpt>
      <trkpt lat="42.69663" lon="1.64679">
        <ele>1599.622</ele>
        <time>2021-06-13T12:29:37Z</time>
      </trkpt>
      <trkpt lat="42.69663" lon="1.64679">
        <ele>1599.626</ele>
        <time>2021-06-13T12:29:39Z</time>
      </trkpt>
      <trkpt lat="42.69663" lon="1.6468">
        <ele>1599.661</ele>
        <time>2021-06-13T12:29:41Z</time>
      </trkpt>
      <trkpt lat="42.69663" lon="1.6468">
        <ele>1600.552</ele>
        <time>2021-06-13T12:29:43Z</time>
      </trkpt>
      <trkpt lat="42.69663" lon="1.6468">
        <ele>1600.557</ele>
        <time>2021-06-13T12:29:45Z</time>
      </trkpt>
      <trkpt lat="42.69663" lon="1.6468">
        <ele>1600.558</ele>
        <time>2021-06-13T12:29:47Z</time>
      </trkpt>
      <trkpt lat="42.69663" lon="1.6468">
        <ele>1600.556</ele>
        <time>2021-06-13T12:29:49Z</time>
      </trkpt>
      <trkpt lat="42.69663" lon="1.6468">
        <ele>1600.535</ele>
        <time>2021-06-13T12:29:51Z</time>
      </trkpt>
      <trkpt lat="42.69663" lon="1.6468">
        <ele>1600.521</ele>
        <time>2021-06-13T12:29:53Z</time>
      </trkpt>
      <trkpt lat="42.69663" lon="1.6468">
        <ele>1600.499</ele>
        <time>2021-06-13T12:29:55Z</time>
      </trkpt>
      <trkpt lat="42.69663" lon="1.6468">
        <ele>1600.495</ele>
        <time>2021-06-13T12:29:57Z</time>
      </trkpt>
      <trkpt lat="42.69664" lon="1.6468">
        <ele>1600.757</ele>
        <time>2021-06-13T12:29:59Z</time>
      </trkpt>
      <trkpt lat="42.69663" lon="1.6468">
        <ele>1600</ele>
        <time>2021-06-13T12:30:01Z</time>
      </trkpt>
      <trkpt lat="42.69662" lon="1.64682">
        <ele>1599.666</ele>
        <time>2021-06-13T12:30:03Z</time>
      </trkpt>
      <trkpt lat="42.69661" lon="1.64682">
        <ele>1599.368</ele>
        <time>2021-06-13T12:30:05Z</time>
      </trkpt>
      <trkpt lat="42.6966" lon="1.64684">
        <ele>1598.475</ele>
        <time>2021-06-13T12:30:07Z</time>
      </trkpt>
      <trkpt lat="42.69659" lon="1.64685">
        <ele>1597.821</ele>
        <time>2021-06-13T12:30:09Z</time>
      </trkpt>
      <trkpt lat="42.69658" lon="1.64686">
        <ele>1597.75</ele>
        <time>2021-06-13T12:30:11Z</time>
      </trkpt>
      <trkpt lat="42.69659" lon="1.64686">
        <ele>1597.75</ele>
        <time>2021-06-13T12:30:13Z</time>
      </trkpt>
      <trkpt lat="42.69659" lon="1.64686">
        <ele>1597.764</ele>
        <time>2021-06-13T12:30:15Z</time>
      </trkpt>
      <trkpt lat="42.69659" lon="1.64686">
        <ele>1597.751</ele>
        <time>2021-06-13T12:30:17Z</time>
      </trkpt>
      <trkpt lat="42.69659" lon="1.64686">
        <ele>1597.746</ele>
        <time>2021-06-13T12:30:19Z</time>
      </trkpt>
      <trkpt lat="42.69659" lon="1.64686">
        <ele>1597.747</ele>
        <time>2021-06-13T12:30:21Z</time>
      </trkpt>
      <trkpt lat="42.69658" lon="1.64687">
        <ele>1597.54</ele>
        <time>2021-06-13T12:30:23Z</time>
      </trkpt>
      <trkpt lat="42.69657" lon="1.64687">
        <ele>1597.04</ele>
        <time>2021-06-13T12:30:25Z</time>
      </trkpt>
      <trkpt lat="42.69657" lon="1.64687">
        <ele>1597.05</ele>
        <time>2021-06-13T12:30:27Z</time>
      </trkpt>
      <trkpt lat="42.69657" lon="1.64687">
        <ele>1597.059</ele>
        <time>2021-06-13T12:30:29Z</time>
      </trkpt>
      <trkpt lat="42.69657" lon="1.64687">
        <ele>1597.059</ele>
        <time>2021-06-13T12:30:31Z</time>
      </trkpt>
      <trkpt lat="42.69657" lon="1.64687">
        <ele>1597.049</ele>
        <time>2021-06-13T12:30:33Z</time>
      </trkpt>
      <trkpt lat="42.69657" lon="1.64687">
        <ele>1597.043</ele>
        <time>2021-06-13T12:30:35Z</time>
      </trkpt>
      <trkpt lat="42.69657" lon="1.64687">
        <ele>1597.046</ele>
        <time>2021-06-13T12:30:37Z</time>
      </trkpt>
      <trkpt lat="42.69657" lon="1.64687">
        <ele>1597.054</ele>
        <time>2021-06-13T12:30:39Z</time>
      </trkpt>
      <trkpt lat="42.69657" lon="1.64687">
        <ele>1597.068</ele>
        <time>2021-06-13T12:30:41Z</time>
      </trkpt>
      <trkpt lat="42.69657" lon="1.64687">
        <ele>1597.067</ele>
        <time>2021-06-13T12:30:43Z</time>
      </trkpt>
      <trkpt lat="42.69657" lon="1.64687">
        <ele>1597.101</ele>
        <time>2021-06-13T12:30:45Z</time>
      </trkpt>
      <trkpt lat="42.69657" lon="1.64687">
        <ele>1597.122</ele>
        <time>2021-06-13T12:30:47Z</time>
      </trkpt>
      <trkpt lat="42.69657" lon="1.64687">
        <ele>1597.129</ele>
        <time>2021-06-13T12:30:49Z</time>
      </trkpt>
      <trkpt lat="42.69657" lon="1.64687">
        <ele>1597.133</ele>
        <time>2021-06-13T12:30:51Z</time>
      </trkpt>
      <trkpt lat="42.69657" lon="1.64687">
        <ele>1597.138</ele>
        <time>2021-06-13T12:30:53Z</time>
      </trkpt>
      <trkpt lat="42.69657" lon="1.64687">
        <ele>1597.148</ele>
        <time>2021-06-13T12:30:55Z</time>
      </trkpt>
      <trkpt lat="42.69657" lon="1.64687">
        <ele>1597.146</ele>
        <time>2021-06-13T12:30:57Z</time>
      </trkpt>
      <trkpt lat="42.69657" lon="1.64687">
        <ele>1597.131</ele>
        <time>2021-06-13T12:30:59Z</time>
      </trkpt>
      <trkpt lat="42.69657" lon="1.64687">
        <ele>1597.125</ele>
        <time>2021-06-13T12:31:01Z</time>
      </trkpt>
      <trkpt lat="42.69657" lon="1.64687">
        <ele>1597.127</ele>
        <time>2021-06-13T12:31:03Z</time>
      </trkpt>
      <trkpt lat="42.69657" lon="1.64687">
        <ele>1597.113</ele>
        <time>2021-06-13T12:31:05Z</time>
      </trkpt>
      <trkpt lat="42.69657" lon="1.64687">
        <ele>1597.108</ele>
        <time>2021-06-13T12:31:07Z</time>
      </trkpt>
      <trkpt lat="42.69657" lon="1.64687">
        <ele>1597.097</ele>
        <time>2021-06-13T12:31:09Z</time>
      </trkpt>
      <trkpt lat="42.69657" lon="1.64687">
        <ele>1597.09</ele>
        <time>2021-06-13T12:31:11Z</time>
      </trkpt>
      <trkpt lat="42.69657" lon="1.64687">
        <ele>1597.089</ele>
        <time>2021-06-13T12:31:13Z</time>
      </trkpt>
      <trkpt lat="42.69657" lon="1.64687">
        <ele>1597.097</ele>
        <time>2021-06-13T12:31:15Z</time>
      </trkpt>
      <trkpt lat="42.69657" lon="1.64687">
        <ele>1597.096</ele>
        <time>2021-06-13T12:31:17Z</time>
      </trkpt>
      <trkpt lat="42.69657" lon="1.64687">
        <ele>1597.124</ele>
        <time>2021-06-13T12:31:19Z</time>
      </trkpt>
      <trkpt lat="42.69657" lon="1.64687">
        <ele>1597.133</ele>
        <time>2021-06-13T12:31:21Z</time>
      </trkpt>
      <trkpt lat="42.69657" lon="1.64687">
        <ele>1597.147</ele>
        <time>2021-06-13T12:31:23Z</time>
      </trkpt>
      <trkpt lat="42.69657" lon="1.64687">
        <ele>1597.155</ele>
        <time>2021-06-13T12:31:25Z</time>
      </trkpt>
      <trkpt lat="42.69657" lon="1.64687">
        <ele>1595.911</ele>
        <time>2021-06-13T12:31:27Z</time>
      </trkpt>
      <trkpt lat="42.69655" lon="1.64686">
        <ele>1596.26</ele>
        <time>2021-06-13T12:31:29Z</time>
      </trkpt>
      <trkpt lat="42.69653" lon="1.64686">
        <ele>1595.342</ele>
        <time>2021-06-13T12:31:31Z</time>
      </trkpt>
      <trkpt lat="42.69652" lon="1.64687">
        <ele>1594.942</ele>
        <time>2021-06-13T12:31:33Z</time>
      </trkpt>
      <trkpt lat="42.6965" lon="1.64688">
        <ele>1594.839</ele>
        <time>2021-06-13T12:31:35Z</time>
      </trkpt>
      <trkpt lat="42.69648" lon="1.64688">
        <ele>1594.551</ele>
        <time>2021-06-13T12:31:37Z</time>
      </trkpt>
      <trkpt lat="42.69647" lon="1.64689">
        <ele>1594.838</ele>
        <time>2021-06-13T12:31:39Z</time>
      </trkpt>
      <trkpt lat="42.69646" lon="1.64688">
        <ele>1594.147</ele>
        <time>2021-06-13T12:31:41Z</time>
      </trkpt>
      <trkpt lat="42.69645" lon="1.64687">
        <ele>1593.689</ele>
        <time>2021-06-13T12:31:43Z</time>
      </trkpt>
      <trkpt lat="42.69643" lon="1.64687">
        <ele>1593.791</ele>
        <time>2021-06-13T12:31:45Z</time>
      </trkpt>
      <trkpt lat="42.69642" lon="1.64687">
        <ele>1593.724</ele>
        <time>2021-06-13T12:31:47Z</time>
      </trkpt>
      <trkpt lat="42.6964" lon="1.64686">
        <ele>1593.5</ele>
        <time>2021-06-13T12:31:49Z</time>
      </trkpt>
      <trkpt lat="42.69638" lon="1.64684">
        <ele>1594.226</ele>
        <time>2021-06-13T12:31:51Z</time>
      </trkpt>
      <trkpt lat="42.69635" lon="1.64684">
        <ele>1594.172</ele>
        <time>2021-06-13T12:31:53Z</time>
      </trkpt>
      <trkpt lat="42.69634" lon="1.64682">
        <ele>1594.024</ele>
        <time>2021-06-13T12:31:55Z</time>
      </trkpt>
      <trkpt lat="42.69633" lon="1.64682">
        <ele>1592.833</ele>
        <time>2021-06-13T12:31:57Z</time>
      </trkpt>
      <trkpt lat="42.69631" lon="1.64681">
        <ele>1592.661</ele>
        <time>2021-06-13T12:31:59Z</time>
      </trkpt>
      <trkpt lat="42.69628" lon="1.64681">
        <ele>1593.119</ele>
        <time>2021-06-13T12:32:01Z</time>
      </trkpt>
      <trkpt lat="42.69626" lon="1.64681">
        <ele>1592.376</ele>
        <time>2021-06-13T12:32:03Z</time>
      </trkpt>
      <trkpt lat="42.69623" lon="1.64682">
        <ele>1592.657</ele>
        <time>2021-06-13T12:32:05Z</time>
      </trkpt>
      <trkpt lat="42.69622" lon="1.64685">
        <ele>1590.985</ele>
        <time>2021-06-13T12:32:07Z</time>
      </trkpt>
      <trkpt lat="42.6962" lon="1.64688">
        <ele>1587.394</ele>
        <time>2021-06-13T12:32:10Z</time>
      </trkpt>
      <trkpt lat="42.69619" lon="1.64689">
        <ele>1586.153</ele>
        <time>2021-06-13T12:32:12Z</time>
      </trkpt>
      <trkpt lat="42.69617" lon="1.64689">
        <ele>1585.656</ele>
        <time>2021-06-13T12:32:14Z</time>
      </trkpt>
      <trkpt lat="42.69614" lon="1.64688">
        <ele>1585.882</ele>
        <time>2021-06-13T12:32:16Z</time>
      </trkpt>
      <trkpt lat="42.69612" lon="1.64688">
        <ele>1584.273</ele>
        <time>2021-06-13T12:32:18Z</time>
      </trkpt>
      <trkpt lat="42.6961" lon="1.64687">
        <ele>1583.706</ele>
        <time>2021-06-13T12:32:20Z</time>
      </trkpt>
      <trkpt lat="42.69609" lon="1.64686">
        <ele>1583.397</ele>
        <time>2021-06-13T12:32:22Z</time>
      </trkpt>
      <trkpt lat="42.69607" lon="1.64686">
        <ele>1583.068</ele>
        <time>2021-06-13T12:32:24Z</time>
      </trkpt>
      <trkpt lat="42.69605" lon="1.64687">
        <ele>1582.393</ele>
        <time>2021-06-13T12:32:26Z</time>
      </trkpt>
      <trkpt lat="42.69603" lon="1.64687">
        <ele>1582.495</ele>
        <time>2021-06-13T12:32:28Z</time>
      </trkpt>
      <trkpt lat="42.69601" lon="1.64687">
        <ele>1582.803</ele>
        <time>2021-06-13T12:32:30Z</time>
      </trkpt>
      <trkpt lat="42.69598" lon="1.64688">
        <ele>1582.578</ele>
        <time>2021-06-13T12:32:32Z</time>
      </trkpt>
      <trkpt lat="42.69597" lon="1.6469">
        <ele>1581.945</ele>
        <time>2021-06-13T12:32:34Z</time>
      </trkpt>
      <trkpt lat="42.69595" lon="1.64691">
        <ele>1581.72</ele>
        <time>2021-06-13T12:32:36Z</time>
      </trkpt>
      <trkpt lat="42.69593" lon="1.64692">
        <ele>1582.949</ele>
        <time>2021-06-13T12:32:38Z</time>
      </trkpt>
      <trkpt lat="42.69591" lon="1.64693">
        <ele>1583.24</ele>
        <time>2021-06-13T12:32:40Z</time>
      </trkpt>
      <trkpt lat="42.69588" lon="1.64694">
        <ele>1583.864</ele>
        <time>2021-06-13T12:32:42Z</time>
      </trkpt>
      <trkpt lat="42.69586" lon="1.64694">
        <ele>1583.461</ele>
        <time>2021-06-13T12:32:44Z</time>
      </trkpt>
      <trkpt lat="42.69585" lon="1.64694">
        <ele>1583.271</ele>
        <time>2021-06-13T12:32:46Z</time>
      </trkpt>
      <trkpt lat="42.69583" lon="1.64693">
        <ele>1582.735</ele>
        <time>2021-06-13T12:32:48Z</time>
      </trkpt>
      <trkpt lat="42.69581" lon="1.64693">
        <ele>1582.577</ele>
        <time>2021-06-13T12:32:50Z</time>
      </trkpt>
      <trkpt lat="42.69579" lon="1.64693">
        <ele>1582.764</ele>
        <time>2021-06-13T12:32:52Z</time>
      </trkpt>
      <trkpt lat="42.69578" lon="1.64693">
        <ele>1582.337</ele>
        <time>2021-06-13T12:32:54Z</time>
      </trkpt>
      <trkpt lat="42.69576" lon="1.64694">
        <ele>1582.143</ele>
        <time>2021-06-13T12:32:56Z</time>
      </trkpt>
      <trkpt lat="42.69574" lon="1.64695">
        <ele>1581.933</ele>
        <time>2021-06-13T12:32:58Z</time>
      </trkpt>
      <trkpt lat="42.69572" lon="1.64695">
        <ele>1581.371</ele>
        <time>2021-06-13T12:33:00Z</time>
      </trkpt>
      <trkpt lat="42.69571" lon="1.64694">
        <ele>1580.63</ele>
        <time>2021-06-13T12:33:02Z</time>
      </trkpt>
      <trkpt lat="42.69569" lon="1.64694">
        <ele>1579.799</ele>
        <time>2021-06-13T12:33:04Z</time>
      </trkpt>
      <trkpt lat="42.69566" lon="1.64694">
        <ele>1580.184</ele>
        <time>2021-06-13T12:33:06Z</time>
      </trkpt>
      <trkpt lat="42.69564" lon="1.64695">
        <ele>1580.588</ele>
        <time>2021-06-13T12:33:08Z</time>
      </trkpt>
      <trkpt lat="42.69562" lon="1.64695">
        <ele>1580.38</ele>
        <time>2021-06-13T12:33:10Z</time>
      </trkpt>
      <trkpt lat="42.6956" lon="1.64696">
        <ele>1580.682</ele>
        <time>2021-06-13T12:33:12Z</time>
      </trkpt>
      <trkpt lat="42.69558" lon="1.64695">
        <ele>1580.774</ele>
        <time>2021-06-13T12:33:14Z</time>
      </trkpt>
      <trkpt lat="42.69555" lon="1.64695">
        <ele>1581.428</ele>
        <time>2021-06-13T12:33:16Z</time>
      </trkpt>
      <trkpt lat="42.69553" lon="1.64696">
        <ele>1581.377</ele>
        <time>2021-06-13T12:33:18Z</time>
      </trkpt>
      <trkpt lat="42.69552" lon="1.64696">
        <ele>1581.839</ele>
        <time>2021-06-13T12:33:20Z</time>
      </trkpt>
      <trkpt lat="42.6955" lon="1.64696">
        <ele>1582.633</ele>
        <time>2021-06-13T12:33:22Z</time>
      </trkpt>
      <trkpt lat="42.69548" lon="1.64696">
        <ele>1583.079</ele>
        <time>2021-06-13T12:33:24Z</time>
      </trkpt>
      <trkpt lat="42.69546" lon="1.64697">
        <ele>1583.344</ele>
        <time>2021-06-13T12:33:26Z</time>
      </trkpt>
      <trkpt lat="42.69545" lon="1.64697">
        <ele>1583.079</ele>
        <time>2021-06-13T12:33:28Z</time>
      </trkpt>
      <trkpt lat="42.69543" lon="1.64696">
        <ele>1582.444</ele>
        <time>2021-06-13T12:33:30Z</time>
      </trkpt>
      <trkpt lat="42.69541" lon="1.64696">
        <ele>1583.413</ele>
        <time>2021-06-13T12:33:32Z</time>
      </trkpt>
      <trkpt lat="42.69539" lon="1.64695">
        <ele>1583.609</ele>
        <time>2021-06-13T12:33:34Z</time>
      </trkpt>
      <trkpt lat="42.69537" lon="1.64694">
        <ele>1583.606</ele>
        <time>2021-06-13T12:33:36Z</time>
      </trkpt>
      <trkpt lat="42.69536" lon="1.64693">
        <ele>1583.132</ele>
        <time>2021-06-13T12:33:38Z</time>
      </trkpt>
      <trkpt lat="42.69534" lon="1.64691">
        <ele>1582.093</ele>
        <time>2021-06-13T12:33:40Z</time>
      </trkpt>
      <trkpt lat="42.69533" lon="1.64689">
        <ele>1582.151</ele>
        <time>2021-06-13T12:33:42Z</time>
      </trkpt>
      <trkpt lat="42.69532" lon="1.64687">
        <ele>1581.476</ele>
        <time>2021-06-13T12:33:44Z</time>
      </trkpt>
      <trkpt lat="42.69531" lon="1.64685">
        <ele>1581.953</ele>
        <time>2021-06-13T12:33:46Z</time>
      </trkpt>
      <trkpt lat="42.69529" lon="1.64684">
        <ele>1582.258</ele>
        <time>2021-06-13T12:33:48Z</time>
      </trkpt>
      <trkpt lat="42.69528" lon="1.64682">
        <ele>1582.584</ele>
        <time>2021-06-13T12:33:50Z</time>
      </trkpt>
      <trkpt lat="42.69526" lon="1.64681">
        <ele>1582.939</ele>
        <time>2021-06-13T12:33:52Z</time>
      </trkpt>
      <trkpt lat="42.69525" lon="1.6468">
        <ele>1583.232</ele>
        <time>2021-06-13T12:33:54Z</time>
      </trkpt>
      <trkpt lat="42.69523" lon="1.64679">
        <ele>1582.914</ele>
        <time>2021-06-13T12:33:56Z</time>
      </trkpt>
      <trkpt lat="42.69522" lon="1.64679">
        <ele>1583.328</ele>
        <time>2021-06-13T12:33:58Z</time>
      </trkpt>
      <trkpt lat="42.6952" lon="1.64678">
        <ele>1583.408</ele>
        <time>2021-06-13T12:34:00Z</time>
      </trkpt>
      <trkpt lat="42.69519" lon="1.64677">
        <ele>1582.726</ele>
        <time>2021-06-13T12:34:02Z</time>
      </trkpt>
      <trkpt lat="42.69518" lon="1.64676">
        <ele>1581.784</ele>
        <time>2021-06-13T12:34:04Z</time>
      </trkpt>
      <trkpt lat="42.69516" lon="1.64675">
        <ele>1580.612</ele>
        <time>2021-06-13T12:34:06Z</time>
      </trkpt>
      <trkpt lat="42.69514" lon="1.64675">
        <ele>1580.083</ele>
        <time>2021-06-13T12:34:08Z</time>
      </trkpt>
      <trkpt lat="42.69512" lon="1.64674">
        <ele>1580.092</ele>
        <time>2021-06-13T12:34:10Z</time>
      </trkpt>
      <trkpt lat="42.69511" lon="1.64673">
        <ele>1579.402</ele>
        <time>2021-06-13T12:34:12Z</time>
      </trkpt>
      <trkpt lat="42.6951" lon="1.64672">
        <ele>1579.407</ele>
        <time>2021-06-13T12:34:14Z</time>
      </trkpt>
      <trkpt lat="42.69508" lon="1.64671">
        <ele>1579.686</ele>
        <time>2021-06-13T12:34:16Z</time>
      </trkpt>
      <trkpt lat="42.69506" lon="1.64672">
        <ele>1580.486</ele>
        <time>2021-06-13T12:34:18Z</time>
      </trkpt>
      <trkpt lat="42.69504" lon="1.64671">
        <ele>1580.477</ele>
        <time>2021-06-13T12:34:20Z</time>
      </trkpt>
      <trkpt lat="42.69502" lon="1.6467">
        <ele>1580.789</ele>
        <time>2021-06-13T12:34:22Z</time>
      </trkpt>
      <trkpt lat="42.695" lon="1.64668">
        <ele>1580.273</ele>
        <time>2021-06-13T12:34:24Z</time>
      </trkpt>
      <trkpt lat="42.69497" lon="1.64667">
        <ele>1581.108</ele>
        <time>2021-06-13T12:34:26Z</time>
      </trkpt>
      <trkpt lat="42.69495" lon="1.64666">
        <ele>1581.251</ele>
        <time>2021-06-13T12:34:28Z</time>
      </trkpt>
      <trkpt lat="42.69493" lon="1.64665">
        <ele>1581.997</ele>
        <time>2021-06-13T12:34:30Z</time>
      </trkpt>
      <trkpt lat="42.69491" lon="1.64666">
        <ele>1581.499</ele>
        <time>2021-06-13T12:34:32Z</time>
      </trkpt>
      <trkpt lat="42.69489" lon="1.64665">
        <ele>1581.812</ele>
        <time>2021-06-13T12:34:34Z</time>
      </trkpt>
      <trkpt lat="42.69487" lon="1.64665">
        <ele>1581.308</ele>
        <time>2021-06-13T12:34:36Z</time>
      </trkpt>
      <trkpt lat="42.69485" lon="1.64664">
        <ele>1581.327</ele>
        <time>2021-06-13T12:34:38Z</time>
      </trkpt>
      <trkpt lat="42.69484" lon="1.64663">
        <ele>1581.512</ele>
        <time>2021-06-13T12:34:40Z</time>
      </trkpt>
      <trkpt lat="42.69482" lon="1.64663">
        <ele>1581.214</ele>
        <time>2021-06-13T12:34:42Z</time>
      </trkpt>
      <trkpt lat="42.6948" lon="1.64662">
        <ele>1581.248</ele>
        <time>2021-06-13T12:34:44Z</time>
      </trkpt>
      <trkpt lat="42.69478" lon="1.64661">
        <ele>1581.669</ele>
        <time>2021-06-13T12:34:46Z</time>
      </trkpt>
      <trkpt lat="42.69476" lon="1.64661">
        <ele>1581.413</ele>
        <time>2021-06-13T12:34:48Z</time>
      </trkpt>
      <trkpt lat="42.69474" lon="1.6466">
        <ele>1581.684</ele>
        <time>2021-06-13T12:34:50Z</time>
      </trkpt>
      <trkpt lat="42.69471" lon="1.64659">
        <ele>1583.88</ele>
        <time>2021-06-13T12:34:52Z</time>
      </trkpt>
      <trkpt lat="42.69469" lon="1.64658">
        <ele>1584.567</ele>
        <time>2021-06-13T12:34:54Z</time>
      </trkpt>
      <trkpt lat="42.69467" lon="1.64658">
        <ele>1584.584</ele>
        <time>2021-06-13T12:34:56Z</time>
      </trkpt>
      <trkpt lat="42.69466" lon="1.64658">
        <ele>1585.423</ele>
        <time>2021-06-13T12:34:58Z</time>
      </trkpt>
      <trkpt lat="42.69462" lon="1.64656">
        <ele>1586.186</ele>
        <time>2021-06-13T12:35:00Z</time>
      </trkpt>
      <trkpt lat="42.69459" lon="1.64654">
        <ele>1586.907</ele>
        <time>2021-06-13T12:35:02Z</time>
      </trkpt>
      <trkpt lat="42.69456" lon="1.64651">
        <ele>1589.187</ele>
        <time>2021-06-13T12:35:04Z</time>
      </trkpt>
      <trkpt lat="42.69453" lon="1.64649">
        <ele>1591.315</ele>
        <time>2021-06-13T12:35:06Z</time>
      </trkpt>
      <trkpt lat="42.69452" lon="1.64645">
        <ele>1594.954</ele>
        <time>2021-06-13T12:35:08Z</time>
      </trkpt>
      <trkpt lat="42.6945" lon="1.64643">
        <ele>1596.364</ele>
        <time>2021-06-13T12:35:10Z</time>
      </trkpt>
      <trkpt lat="42.69447" lon="1.64643">
        <ele>1596.744</ele>
        <time>2021-06-13T12:35:12Z</time>
      </trkpt>
      <trkpt lat="42.69445" lon="1.64643">
        <ele>1596.721</ele>
        <time>2021-06-13T12:35:14Z</time>
      </trkpt>
      <trkpt lat="42.69444" lon="1.64643">
        <ele>1596.856</ele>
        <time>2021-06-13T12:35:16Z</time>
      </trkpt>
      <trkpt lat="42.69442" lon="1.64642">
        <ele>1596.628</ele>
        <time>2021-06-13T12:35:18Z</time>
      </trkpt>
      <trkpt lat="42.69441" lon="1.64641">
        <ele>1595.759</ele>
        <time>2021-06-13T12:35:20Z</time>
      </trkpt>
      <trkpt lat="42.6944" lon="1.64642">
        <ele>1595.385</ele>
        <time>2021-06-13T12:35:22Z</time>
      </trkpt>
      <trkpt lat="42.69438" lon="1.64643">
        <ele>1594.309</ele>
        <time>2021-06-13T12:35:24Z</time>
      </trkpt>
      <trkpt lat="42.69437" lon="1.64644">
        <ele>1592.697</ele>
        <time>2021-06-13T12:35:26Z</time>
      </trkpt>
      <trkpt lat="42.69436" lon="1.64646">
        <ele>1591.117</ele>
        <time>2021-06-13T12:35:28Z</time>
      </trkpt>
      <trkpt lat="42.69434" lon="1.64647">
        <ele>1589.896</ele>
        <time>2021-06-13T12:35:30Z</time>
      </trkpt>
      <trkpt lat="42.69433" lon="1.6465">
        <ele>1588.219</ele>
        <time>2021-06-13T12:35:32Z</time>
      </trkpt>
      <trkpt lat="42.69431" lon="1.64651">
        <ele>1587.699</ele>
        <time>2021-06-13T12:35:34Z</time>
      </trkpt>
      <trkpt lat="42.69429" lon="1.64652">
        <ele>1586.511</ele>
        <time>2021-06-13T12:35:36Z</time>
      </trkpt>
      <trkpt lat="42.69428" lon="1.64653">
        <ele>1586.675</ele>
        <time>2021-06-13T12:35:38Z</time>
      </trkpt>
      <trkpt lat="42.69427" lon="1.64653">
        <ele>1585.233</ele>
        <time>2021-06-13T12:35:40Z</time>
      </trkpt>
      <trkpt lat="42.69427" lon="1.64652">
        <ele>1585.855</ele>
        <time>2021-06-13T12:35:42Z</time>
      </trkpt>
      <trkpt lat="42.69428" lon="1.64652">
        <ele>1585.856</ele>
        <time>2021-06-13T12:35:44Z</time>
      </trkpt>
      <trkpt lat="42.69428" lon="1.64651">
        <ele>1586.685</ele>
        <time>2021-06-13T12:35:46Z</time>
      </trkpt>
      <trkpt lat="42.69428" lon="1.64649">
        <ele>1587.022</ele>
        <time>2021-06-13T12:35:48Z</time>
      </trkpt>
      <trkpt lat="42.69429" lon="1.64648">
        <ele>1584.238</ele>
        <time>2021-06-13T12:35:50Z</time>
      </trkpt>
      <trkpt lat="42.6943" lon="1.64647">
        <ele>1582.6</ele>
        <time>2021-06-13T12:35:52Z</time>
      </trkpt>
      <trkpt lat="42.69432" lon="1.64646">
        <ele>1581.786</ele>
        <time>2021-06-13T12:35:54Z</time>
      </trkpt>
      <trkpt lat="42.69433" lon="1.64644">
        <ele>1580.974</ele>
        <time>2021-06-13T12:35:56Z</time>
      </trkpt>
      <trkpt lat="42.69434" lon="1.64642">
        <ele>1580.926</ele>
        <time>2021-06-13T12:35:58Z</time>
      </trkpt>
      <trkpt lat="42.69433" lon="1.64639">
        <ele>1581.172</ele>
        <time>2021-06-13T12:36:00Z</time>
      </trkpt>
      <trkpt lat="42.69433" lon="1.64638">
        <ele>1580.508</ele>
        <time>2021-06-13T12:36:02Z</time>
      </trkpt>
      <trkpt lat="42.69432" lon="1.64636">
        <ele>1580.991</ele>
        <time>2021-06-13T12:36:04Z</time>
      </trkpt>
      <trkpt lat="42.69431" lon="1.64636">
        <ele>1580.431</ele>
        <time>2021-06-13T12:36:06Z</time>
      </trkpt>
      <trkpt lat="42.69429" lon="1.64635">
        <ele>1580.294</ele>
        <time>2021-06-13T12:36:08Z</time>
      </trkpt>
      <trkpt lat="42.69428" lon="1.64634">
        <ele>1580.074</ele>
        <time>2021-06-13T12:36:10Z</time>
      </trkpt>
      <trkpt lat="42.69427" lon="1.64633">
        <ele>1580.922</ele>
        <time>2021-06-13T12:36:12Z</time>
      </trkpt>
      <trkpt lat="42.69426" lon="1.64631">
        <ele>1580.547</ele>
        <time>2021-06-13T12:36:14Z</time>
      </trkpt>
      <trkpt lat="42.69425" lon="1.64628">
        <ele>1580.531</ele>
        <time>2021-06-13T12:36:16Z</time>
      </trkpt>
      <trkpt lat="42.69425" lon="1.64625">
        <ele>1581.066</ele>
        <time>2021-06-13T12:36:18Z</time>
      </trkpt>
      <trkpt lat="42.69424" lon="1.64622">
        <ele>1581.935</ele>
        <time>2021-06-13T12:36:20Z</time>
      </trkpt>
      <trkpt lat="42.69423" lon="1.64619">
        <ele>1582.507</ele>
        <time>2021-06-13T12:36:22Z</time>
      </trkpt>
      <trkpt lat="42.69422" lon="1.64617">
        <ele>1583.811</ele>
        <time>2021-06-13T12:36:24Z</time>
      </trkpt>
      <trkpt lat="42.69422" lon="1.64614">
        <ele>1582.652</ele>
        <time>2021-06-13T12:36:26Z</time>
      </trkpt>
      <trkpt lat="42.69423" lon="1.64615">
        <ele>1582.229</ele>
        <time>2021-06-13T12:36:28Z</time>
      </trkpt>
      <trkpt lat="42.69423" lon="1.64615">
        <ele>1582.182</ele>
        <time>2021-06-13T12:36:30Z</time>
      </trkpt>
      <trkpt lat="42.69423" lon="1.64615">
        <ele>1582.172</ele>
        <time>2021-06-13T12:36:32Z</time>
      </trkpt>
      <trkpt lat="42.69423" lon="1.64615">
        <ele>1582.161</ele>
        <time>2021-06-13T12:36:34Z</time>
      </trkpt>
      <trkpt lat="42.69423" lon="1.64615">
        <ele>1582.122</ele>
        <time>2021-06-13T12:36:36Z</time>
      </trkpt>
      <trkpt lat="42.69423" lon="1.64615">
        <ele>1582.091</ele>
        <time>2021-06-13T12:36:38Z</time>
      </trkpt>
      <trkpt lat="42.69423" lon="1.64615">
        <ele>1582.048</ele>
        <time>2021-06-13T12:36:41Z</time>
      </trkpt>
      <trkpt lat="42.69423" lon="1.64615">
        <ele>1581.992</ele>
        <time>2021-06-13T12:36:43Z</time>
      </trkpt>
      <trkpt lat="42.69423" lon="1.64615">
        <ele>1581.981</ele>
        <time>2021-06-13T12:36:45Z</time>
      </trkpt>
      <trkpt lat="42.69423" lon="1.64615">
        <ele>1581.943</ele>
        <time>2021-06-13T12:36:47Z</time>
      </trkpt>
      <trkpt lat="42.69423" lon="1.64615">
        <ele>1581.892</ele>
        <time>2021-06-13T12:36:49Z</time>
      </trkpt>
      <trkpt lat="42.69423" lon="1.64615">
        <ele>1581.842</ele>
        <time>2021-06-13T12:36:51Z</time>
      </trkpt>
      <trkpt lat="42.69423" lon="1.64615">
        <ele>1581.804</ele>
        <time>2021-06-13T12:36:53Z</time>
      </trkpt>
      <trkpt lat="42.69423" lon="1.64615">
        <ele>1581.791</ele>
        <time>2021-06-13T12:36:55Z</time>
      </trkpt>
      <trkpt lat="42.69423" lon="1.64615">
        <ele>1581.747</ele>
        <time>2021-06-13T12:36:57Z</time>
      </trkpt>
      <trkpt lat="42.69423" lon="1.64615">
        <ele>1579.203</ele>
        <time>2021-06-13T12:36:59Z</time>
      </trkpt>
      <trkpt lat="42.69423" lon="1.64615">
        <ele>1578.753</ele>
        <time>2021-06-13T12:37:01Z</time>
      </trkpt>
      <trkpt lat="42.69423" lon="1.64616">
        <ele>1577.429</ele>
        <time>2021-06-13T12:37:03Z</time>
      </trkpt>
      <trkpt lat="42.69423" lon="1.64616">
        <ele>1577.219</ele>
        <time>2021-06-13T12:37:05Z</time>
      </trkpt>
      <trkpt lat="42.69423" lon="1.64616">
        <ele>1577.228</ele>
        <time>2021-06-13T12:37:07Z</time>
      </trkpt>
      <trkpt lat="42.69423" lon="1.64616">
        <ele>1577.218</ele>
        <time>2021-06-13T12:37:09Z</time>
      </trkpt>
      <trkpt lat="42.69423" lon="1.64616">
        <ele>1577.297</ele>
        <time>2021-06-13T12:37:11Z</time>
      </trkpt>
      <trkpt lat="42.69423" lon="1.64616">
        <ele>1577.376</ele>
        <time>2021-06-13T12:37:13Z</time>
      </trkpt>
      <trkpt lat="42.69423" lon="1.64616">
        <ele>1577.365</ele>
        <time>2021-06-13T12:37:15Z</time>
      </trkpt>
      <trkpt lat="42.69423" lon="1.64616">
        <ele>1577.379</ele>
        <time>2021-06-13T12:37:17Z</time>
      </trkpt>
      <trkpt lat="42.69423" lon="1.64616">
        <ele>1577.373</ele>
        <time>2021-06-13T12:37:19Z</time>
      </trkpt>
      <trkpt lat="42.69423" lon="1.64616">
        <ele>1577.374</ele>
        <time>2021-06-13T12:37:21Z</time>
      </trkpt>
      <trkpt lat="42.69423" lon="1.64616">
        <ele>1577.35</ele>
        <time>2021-06-13T12:37:23Z</time>
      </trkpt>
      <trkpt lat="42.69423" lon="1.64616">
        <ele>1577.364</ele>
        <time>2021-06-13T12:37:25Z</time>
      </trkpt>
      <trkpt lat="42.69423" lon="1.64616">
        <ele>1577.36</ele>
        <time>2021-06-13T12:37:27Z</time>
      </trkpt>
      <trkpt lat="42.69423" lon="1.64616">
        <ele>1577.331</ele>
        <time>2021-06-13T12:37:29Z</time>
      </trkpt>
      <trkpt lat="42.69423" lon="1.64616">
        <ele>1577.323</ele>
        <time>2021-06-13T12:37:31Z</time>
      </trkpt>
      <trkpt lat="42.69423" lon="1.64616">
        <ele>1577.326</ele>
        <time>2021-06-13T12:37:33Z</time>
      </trkpt>
      <trkpt lat="42.69423" lon="1.64616">
        <ele>1577.324</ele>
        <time>2021-06-13T12:37:35Z</time>
      </trkpt>
      <trkpt lat="42.69423" lon="1.64616">
        <ele>1577.331</ele>
        <time>2021-06-13T12:37:37Z</time>
      </trkpt>
      <trkpt lat="42.69423" lon="1.64616">
        <ele>1577.295</ele>
        <time>2021-06-13T12:37:39Z</time>
      </trkpt>
      <trkpt lat="42.69423" lon="1.64616">
        <ele>1577.273</ele>
        <time>2021-06-13T12:37:41Z</time>
      </trkpt>
      <trkpt lat="42.69423" lon="1.64616">
        <ele>1577.236</ele>
        <time>2021-06-13T12:37:43Z</time>
      </trkpt>
      <trkpt lat="42.69423" lon="1.64616">
        <ele>1577.215</ele>
        <time>2021-06-13T12:37:45Z</time>
      </trkpt>
      <trkpt lat="42.69423" lon="1.64616">
        <ele>1577.196</ele>
        <time>2021-06-13T12:37:47Z</time>
      </trkpt>
      <trkpt lat="42.69423" lon="1.64616">
        <ele>1577.187</ele>
        <time>2021-06-13T12:37:49Z</time>
      </trkpt>
      <trkpt lat="42.69423" lon="1.64616">
        <ele>1577.17</ele>
        <time>2021-06-13T12:37:51Z</time>
      </trkpt>
      <trkpt lat="42.69423" lon="1.64616">
        <ele>1577.164</ele>
        <time>2021-06-13T12:37:53Z</time>
      </trkpt>
      <trkpt lat="42.69423" lon="1.64616">
        <ele>1577.166</ele>
        <time>2021-06-13T12:37:55Z</time>
      </trkpt>
      <trkpt lat="42.69424" lon="1.64615">
        <ele>1577.731</ele>
        <time>2021-06-13T12:37:57Z</time>
      </trkpt>
      <trkpt lat="42.69424" lon="1.64613">
        <ele>1578.458</ele>
        <time>2021-06-13T12:37:59Z</time>
      </trkpt>
      <trkpt lat="42.69423" lon="1.64612">
        <ele>1577.465</ele>
        <time>2021-06-13T12:38:01Z</time>
      </trkpt>
      <trkpt lat="42.69423" lon="1.64612">
        <ele>1577.485</ele>
        <time>2021-06-13T12:38:03Z</time>
      </trkpt>
      <trkpt lat="42.69423" lon="1.64612">
        <ele>1577.463</ele>
        <time>2021-06-13T12:38:05Z</time>
      </trkpt>
      <trkpt lat="42.69423" lon="1.64612">
        <ele>1577.406</ele>
        <time>2021-06-13T12:38:07Z</time>
      </trkpt>
      <trkpt lat="42.69423" lon="1.64612">
        <ele>1577.367</ele>
        <time>2021-06-13T12:38:09Z</time>
      </trkpt>
      <trkpt lat="42.69423" lon="1.64612">
        <ele>1577.371</ele>
        <time>2021-06-13T12:38:11Z</time>
      </trkpt>
      <trkpt lat="42.69423" lon="1.64612">
        <ele>1577.371</ele>
        <time>2021-06-13T12:38:13Z</time>
      </trkpt>
      <trkpt lat="42.69423" lon="1.64612">
        <ele>1577.358</ele>
        <time>2021-06-13T12:38:15Z</time>
      </trkpt>
      <trkpt lat="42.69423" lon="1.64612">
        <ele>1577.342</ele>
        <time>2021-06-13T12:38:17Z</time>
      </trkpt>
      <trkpt lat="42.69423" lon="1.64612">
        <ele>1577.316</ele>
        <time>2021-06-13T12:38:19Z</time>
      </trkpt>
      <trkpt lat="42.69423" lon="1.64612">
        <ele>1577.313</ele>
        <time>2021-06-13T12:38:21Z</time>
      </trkpt>
      <trkpt lat="42.69423" lon="1.64612">
        <ele>1577.313</ele>
        <time>2021-06-13T12:38:23Z</time>
      </trkpt>
      <trkpt lat="42.69423" lon="1.64612">
        <ele>1577.811</ele>
        <time>2021-06-13T12:38:25Z</time>
      </trkpt>
      <trkpt lat="42.69424" lon="1.64612">
        <ele>1578.657</ele>
        <time>2021-06-13T12:38:27Z</time>
      </trkpt>
      <trkpt lat="42.69425" lon="1.6461">
        <ele>1578.176</ele>
        <time>2021-06-13T12:38:29Z</time>
      </trkpt>
      <trkpt lat="42.69425" lon="1.64608">
        <ele>1577.603</ele>
        <time>2021-06-13T12:38:31Z</time>
      </trkpt>
      <trkpt lat="42.69425" lon="1.64606">
        <ele>1577.629</ele>
        <time>2021-06-13T12:38:33Z</time>
      </trkpt>
      <trkpt lat="42.69425" lon="1.64603">
        <ele>1577.414</ele>
        <time>2021-06-13T12:38:35Z</time>
      </trkpt>
      <trkpt lat="42.69424" lon="1.64601">
        <ele>1576.218</ele>
        <time>2021-06-13T12:38:37Z</time>
      </trkpt>
      <trkpt lat="42.69423" lon="1.646">
        <ele>1575.954</ele>
        <time>2021-06-13T12:38:39Z</time>
      </trkpt>
      <trkpt lat="42.69424" lon="1.64598">
        <ele>1575.818</ele>
        <time>2021-06-13T12:38:41Z</time>
      </trkpt>
      <trkpt lat="42.69424" lon="1.64595">
        <ele>1577.13</ele>
        <time>2021-06-13T12:38:43Z</time>
      </trkpt>
      <trkpt lat="42.69424" lon="1.64593">
        <ele>1577.726</ele>
        <time>2021-06-13T12:38:45Z</time>
      </trkpt>
      <trkpt lat="42.69424" lon="1.64591">
        <ele>1578.226</ele>
        <time>2021-06-13T12:38:47Z</time>
      </trkpt>
      <trkpt lat="42.69424" lon="1.64588">
        <ele>1578.104</ele>
        <time>2021-06-13T12:38:49Z</time>
      </trkpt>
      <trkpt lat="42.69424" lon="1.64585">
        <ele>1578.064</ele>
        <time>2021-06-13T12:38:51Z</time>
      </trkpt>
      <trkpt lat="42.69423" lon="1.64583">
        <ele>1578.139</ele>
        <time>2021-06-13T12:38:53Z</time>
      </trkpt>
      <trkpt lat="42.69423" lon="1.64581">
        <ele>1577.761</ele>
        <time>2021-06-13T12:38:55Z</time>
      </trkpt>
      <trkpt lat="42.69423" lon="1.64578">
        <ele>1577.321</ele>
        <time>2021-06-13T12:38:57Z</time>
      </trkpt>
      <trkpt lat="42.69423" lon="1.64576">
        <ele>1577.12</ele>
        <time>2021-06-13T12:38:59Z</time>
      </trkpt>
      <trkpt lat="42.69423" lon="1.64574">
        <ele>1577.624</ele>
        <time>2021-06-13T12:39:01Z</time>
      </trkpt>
      <trkpt lat="42.69423" lon="1.64571">
        <ele>1578.826</ele>
        <time>2021-06-13T12:39:03Z</time>
      </trkpt>
      <trkpt lat="42.69423" lon="1.64569">
        <ele>1579.57</ele>
        <time>2021-06-13T12:39:05Z</time>
      </trkpt>
      <trkpt lat="42.69423" lon="1.64567">
        <ele>1579.212</ele>
        <time>2021-06-13T12:39:07Z</time>
      </trkpt>
      <trkpt lat="42.69423" lon="1.64564">
        <ele>1580.146</ele>
        <time>2021-06-13T12:39:09Z</time>
      </trkpt>
      <trkpt lat="42.69423" lon="1.64562">
        <ele>1580.16</ele>
        <time>2021-06-13T12:39:11Z</time>
      </trkpt>
      <trkpt lat="42.69423" lon="1.6456">
        <ele>1579.823</ele>
        <time>2021-06-13T12:39:13Z</time>
      </trkpt>
      <trkpt lat="42.69423" lon="1.64558">
        <ele>1581.02</ele>
        <time>2021-06-13T12:39:15Z</time>
      </trkpt>
      <trkpt lat="42.69423" lon="1.64556">
        <ele>1580.742</ele>
        <time>2021-06-13T12:39:17Z</time>
      </trkpt>
      <trkpt lat="42.69424" lon="1.64554">
        <ele>1581.371</ele>
        <time>2021-06-13T12:39:19Z</time>
      </trkpt>
      <trkpt lat="42.69424" lon="1.64553">
        <ele>1581.747</ele>
        <time>2021-06-13T12:39:21Z</time>
      </trkpt>
      <trkpt lat="42.69424" lon="1.64551">
        <ele>1581.074</ele>
        <time>2021-06-13T12:39:23Z</time>
      </trkpt>
      <trkpt lat="42.69423" lon="1.64549">
        <ele>1582.868</ele>
        <time>2021-06-13T12:39:25Z</time>
      </trkpt>
      <trkpt lat="42.69422" lon="1.64547">
        <ele>1583.058</ele>
        <time>2021-06-13T12:39:27Z</time>
      </trkpt>
      <trkpt lat="42.69422" lon="1.64546">
        <ele>1583.742</ele>
        <time>2021-06-13T12:39:29Z</time>
      </trkpt>
      <trkpt lat="42.69421" lon="1.64545">
        <ele>1584.195</ele>
        <time>2021-06-13T12:39:31Z</time>
      </trkpt>
      <trkpt lat="42.69421" lon="1.64543">
        <ele>1584.04</ele>
        <time>2021-06-13T12:39:33Z</time>
      </trkpt>
      <trkpt lat="42.6942" lon="1.64541">
        <ele>1583.837</ele>
        <time>2021-06-13T12:39:35Z</time>
      </trkpt>
      <trkpt lat="42.6942" lon="1.64539">
        <ele>1585.725</ele>
        <time>2021-06-13T12:39:37Z</time>
      </trkpt>
      <trkpt lat="42.69419" lon="1.64537">
        <ele>1585.662</ele>
        <time>2021-06-13T12:39:39Z</time>
      </trkpt>
      <trkpt lat="42.69419" lon="1.64535">
        <ele>1585.67</ele>
        <time>2021-06-13T12:39:41Z</time>
      </trkpt>
      <trkpt lat="42.69418" lon="1.64533">
        <ele>1585.743</ele>
        <time>2021-06-13T12:39:43Z</time>
      </trkpt>
      <trkpt lat="42.69418" lon="1.64531">
        <ele>1585.546</ele>
        <time>2021-06-13T12:39:45Z</time>
      </trkpt>
      <trkpt lat="42.69418" lon="1.64529">
        <ele>1586.236</ele>
        <time>2021-06-13T12:39:47Z</time>
      </trkpt>
      <trkpt lat="42.69418" lon="1.64527">
        <ele>1587.08</ele>
        <time>2021-06-13T12:39:49Z</time>
      </trkpt>
      <trkpt lat="42.69419" lon="1.64525">
        <ele>1587.017</ele>
        <time>2021-06-13T12:39:51Z</time>
      </trkpt>
      <trkpt lat="42.69418" lon="1.64523">
        <ele>1587.255</ele>
        <time>2021-06-13T12:39:53Z</time>
      </trkpt>
      <trkpt lat="42.69418" lon="1.64522">
        <ele>1588.138</ele>
        <time>2021-06-13T12:39:55Z</time>
      </trkpt>
      <trkpt lat="42.69418" lon="1.6452">
        <ele>1588.024</ele>
        <time>2021-06-13T12:39:57Z</time>
      </trkpt>
      <trkpt lat="42.69418" lon="1.64518">
        <ele>1588.799</ele>
        <time>2021-06-13T12:39:59Z</time>
      </trkpt>
      <trkpt lat="42.69419" lon="1.64518">
        <ele>1589.696</ele>
        <time>2021-06-13T12:40:01Z</time>
      </trkpt>
      <trkpt lat="42.69419" lon="1.64518">
        <ele>1589.832</ele>
        <time>2021-06-13T12:40:03Z</time>
      </trkpt>
      <trkpt lat="42.69419" lon="1.64518">
        <ele>1589.826</ele>
        <time>2021-06-13T12:40:05Z</time>
      </trkpt>
      <trkpt lat="42.69419" lon="1.64518">
        <ele>1589.821</ele>
        <time>2021-06-13T12:40:07Z</time>
      </trkpt>
      <trkpt lat="42.69419" lon="1.64518">
        <ele>1589.816</ele>
        <time>2021-06-13T12:40:09Z</time>
      </trkpt>
      <trkpt lat="42.69418" lon="1.64517">
        <ele>1589.324</ele>
        <time>2021-06-13T12:40:11Z</time>
      </trkpt>
      <trkpt lat="42.69416" lon="1.64517">
        <ele>1589.719</ele>
        <time>2021-06-13T12:40:13Z</time>
      </trkpt>
      <trkpt lat="42.69414" lon="1.64517">
        <ele>1589.661</ele>
        <time>2021-06-13T12:40:15Z</time>
      </trkpt>
      <trkpt lat="42.69412" lon="1.64516">
        <ele>1589.861</ele>
        <time>2021-06-13T12:40:17Z</time>
      </trkpt>
      <trkpt lat="42.6941" lon="1.64516">
        <ele>1589.888</ele>
        <time>2021-06-13T12:40:19Z</time>
      </trkpt>
      <trkpt lat="42.69409" lon="1.64515">
        <ele>1590.042</ele>
        <time>2021-06-13T12:40:21Z</time>
      </trkpt>
      <trkpt lat="42.69407" lon="1.64515">
        <ele>1590.769</ele>
        <time>2021-06-13T12:40:23Z</time>
      </trkpt>
      <trkpt lat="42.69406" lon="1.64515">
        <ele>1590.497</ele>
        <time>2021-06-13T12:40:25Z</time>
      </trkpt>
      <trkpt lat="42.69405" lon="1.64516">
        <ele>1590.946</ele>
        <time>2021-06-13T12:40:27Z</time>
      </trkpt>
      <trkpt lat="42.69403" lon="1.64517">
        <ele>1590.988</ele>
        <time>2021-06-13T12:40:29Z</time>
      </trkpt>
      <trkpt lat="42.69402" lon="1.64518">
        <ele>1591.764</ele>
        <time>2021-06-13T12:40:31Z</time>
      </trkpt>
      <trkpt lat="42.694" lon="1.64518">
        <ele>1590.658</ele>
        <time>2021-06-13T12:40:33Z</time>
      </trkpt>
      <trkpt lat="42.69398" lon="1.64519">
        <ele>1592.327</ele>
        <time>2021-06-13T12:40:35Z</time>
      </trkpt>
      <trkpt lat="42.69396" lon="1.64519">
        <ele>1594.019</ele>
        <time>2021-06-13T12:40:37Z</time>
      </trkpt>
      <trkpt lat="42.69395" lon="1.64519">
        <ele>1594.587</ele>
        <time>2021-06-13T12:40:39Z</time>
      </trkpt>
      <trkpt lat="42.69393" lon="1.64518">
        <ele>1595.026</ele>
        <time>2021-06-13T12:40:41Z</time>
      </trkpt>
      <trkpt lat="42.69392" lon="1.64516">
        <ele>1594.38</ele>
        <time>2021-06-13T12:40:43Z</time>
      </trkpt>
      <trkpt lat="42.6939" lon="1.64513">
        <ele>1593.469</ele>
        <time>2021-06-13T12:40:45Z</time>
      </trkpt>
      <trkpt lat="42.69389" lon="1.64511">
        <ele>1592.881</ele>
        <time>2021-06-13T12:40:47Z</time>
      </trkpt>
      <trkpt lat="42.69389" lon="1.64509">
        <ele>1592.245</ele>
        <time>2021-06-13T12:40:49Z</time>
      </trkpt>
      <trkpt lat="42.69388" lon="1.64508">
        <ele>1591.338</ele>
        <time>2021-06-13T12:40:51Z</time>
      </trkpt>
      <trkpt lat="42.69386" lon="1.64507">
        <ele>1592.119</ele>
        <time>2021-06-13T12:40:53Z</time>
      </trkpt>
      <trkpt lat="42.69384" lon="1.64507">
        <ele>1591.526</ele>
        <time>2021-06-13T12:40:55Z</time>
      </trkpt>
      <trkpt lat="42.69382" lon="1.64507">
        <ele>1591.613</ele>
        <time>2021-06-13T12:40:57Z</time>
      </trkpt>
      <trkpt lat="42.69381" lon="1.64508">
        <ele>1591.351</ele>
        <time>2021-06-13T12:40:59Z</time>
      </trkpt>
      <trkpt lat="42.69379" lon="1.64508">
        <ele>1590.652</ele>
        <time>2021-06-13T12:41:01Z</time>
      </trkpt>
      <trkpt lat="42.69378" lon="1.64507">
        <ele>1588.388</ele>
        <time>2021-06-13T12:41:03Z</time>
      </trkpt>
      <trkpt lat="42.69376" lon="1.64507">
        <ele>1586.86</ele>
        <time>2021-06-13T12:41:05Z</time>
      </trkpt>
      <trkpt lat="42.69375" lon="1.64507">
        <ele>1588.135</ele>
        <time>2021-06-13T12:41:07Z</time>
      </trkpt>
      <trkpt lat="42.69374" lon="1.64509">
        <ele>1588.253</ele>
        <time>2021-06-13T12:41:09Z</time>
      </trkpt>
      <trkpt lat="42.69372" lon="1.64509">
        <ele>1590.684</ele>
        <time>2021-06-13T12:41:12Z</time>
      </trkpt>
      <trkpt lat="42.69371" lon="1.64509">
        <ele>1591.688</ele>
        <time>2021-06-13T12:41:14Z</time>
      </trkpt>
      <trkpt lat="42.6937" lon="1.64508">
        <ele>1591.132</ele>
        <time>2021-06-13T12:41:16Z</time>
      </trkpt>
      <trkpt lat="42.69369" lon="1.64506">
        <ele>1591.194</ele>
        <time>2021-06-13T12:41:18Z</time>
      </trkpt>
      <trkpt lat="42.69368" lon="1.64505">
        <ele>1590.603</ele>
        <time>2021-06-13T12:41:20Z</time>
      </trkpt>
      <trkpt lat="42.69366" lon="1.64504">
        <ele>1590.077</ele>
        <time>2021-06-13T12:41:22Z</time>
      </trkpt>
      <trkpt lat="42.69365" lon="1.64503">
        <ele>1589.028</ele>
        <time>2021-06-13T12:41:24Z</time>
      </trkpt>
      <trkpt lat="42.69365" lon="1.64503">
        <ele>1589.117</ele>
        <time>2021-06-13T12:41:26Z</time>
      </trkpt>
      <trkpt lat="42.69365" lon="1.64503">
        <ele>1589.074</ele>
        <time>2021-06-13T12:41:28Z</time>
      </trkpt>
      <trkpt lat="42.69364" lon="1.64501">
        <ele>1590.102</ele>
        <time>2021-06-13T12:41:30Z</time>
      </trkpt>
      <trkpt lat="42.69364" lon="1.64499">
        <ele>1589.619</ele>
        <time>2021-06-13T12:41:32Z</time>
      </trkpt>
      <trkpt lat="42.69364" lon="1.64497">
        <ele>1588.816</ele>
        <time>2021-06-13T12:41:34Z</time>
      </trkpt>
      <trkpt lat="42.69363" lon="1.64496">
        <ele>1589.441</ele>
        <time>2021-06-13T12:41:36Z</time>
      </trkpt>
      <trkpt lat="42.69363" lon="1.64495">
        <ele>1588.688</ele>
        <time>2021-06-13T12:41:38Z</time>
      </trkpt>
      <trkpt lat="42.69362" lon="1.64494">
        <ele>1589.508</ele>
        <time>2021-06-13T12:41:40Z</time>
      </trkpt>
      <trkpt lat="42.69362" lon="1.64493">
        <ele>1590.291</ele>
        <time>2021-06-13T12:41:42Z</time>
      </trkpt>
      <trkpt lat="42.69361" lon="1.64493">
        <ele>1588.633</ele>
        <time>2021-06-13T12:41:44Z</time>
      </trkpt>
      <trkpt lat="42.69359" lon="1.64492">
        <ele>1587.939</ele>
        <time>2021-06-13T12:41:46Z</time>
      </trkpt>
      <trkpt lat="42.69359" lon="1.64491">
        <ele>1589.266</ele>
        <time>2021-06-13T12:41:48Z</time>
      </trkpt>
      <trkpt lat="42.69358" lon="1.6449">
        <ele>1591.241</ele>
        <time>2021-06-13T12:41:50Z</time>
      </trkpt>
      <trkpt lat="42.69357" lon="1.64489">
        <ele>1591.528</ele>
        <time>2021-06-13T12:41:52Z</time>
      </trkpt>
      <trkpt lat="42.69356" lon="1.64489">
        <ele>1592.611</ele>
        <time>2021-06-13T12:41:54Z</time>
      </trkpt>
      <trkpt lat="42.69355" lon="1.64489">
        <ele>1592.403</ele>
        <time>2021-06-13T12:41:56Z</time>
      </trkpt>
      <trkpt lat="42.69354" lon="1.6449">
        <ele>1593.083</ele>
        <time>2021-06-13T12:41:58Z</time>
      </trkpt>
      <trkpt lat="42.69353" lon="1.64491">
        <ele>1593.267</ele>
        <time>2021-06-13T12:42:00Z</time>
      </trkpt>
      <trkpt lat="42.69351" lon="1.64491">
        <ele>1595.003</ele>
        <time>2021-06-13T12:42:02Z</time>
      </trkpt>
      <trkpt lat="42.6935" lon="1.64491">
        <ele>1596.465</ele>
        <time>2021-06-13T12:42:04Z</time>
      </trkpt>
      <trkpt lat="42.69349" lon="1.64491">
        <ele>1597.945</ele>
        <time>2021-06-13T12:42:06Z</time>
      </trkpt>
      <trkpt lat="42.69349" lon="1.64489">
        <ele>1598.12</ele>
        <time>2021-06-13T12:42:08Z</time>
      </trkpt>
      <trkpt lat="42.69348" lon="1.64488">
        <ele>1598.298</ele>
        <time>2021-06-13T12:42:10Z</time>
      </trkpt>
      <trkpt lat="42.69347" lon="1.64487">
        <ele>1597.59</ele>
        <time>2021-06-13T12:42:12Z</time>
      </trkpt>
      <trkpt lat="42.69347" lon="1.64487">
        <ele>1597.288</ele>
        <time>2021-06-13T12:42:14Z</time>
      </trkpt>
      <trkpt lat="42.69346" lon="1.64487">
        <ele>1598.324</ele>
        <time>2021-06-13T12:42:16Z</time>
      </trkpt>
      <trkpt lat="42.69345" lon="1.64487">
        <ele>1599.86</ele>
        <time>2021-06-13T12:42:18Z</time>
      </trkpt>
      <trkpt lat="42.69344" lon="1.64487">
        <ele>1601.484</ele>
        <time>2021-06-13T12:42:20Z</time>
      </trkpt>
      <trkpt lat="42.69343" lon="1.64488">
        <ele>1600.542</ele>
        <time>2021-06-13T12:42:22Z</time>
      </trkpt>
      <trkpt lat="42.69342" lon="1.64487">
        <ele>1600.57</ele>
        <time>2021-06-13T12:42:24Z</time>
      </trkpt>
      <trkpt lat="42.69342" lon="1.64486">
        <ele>1600.809</ele>
        <time>2021-06-13T12:42:26Z</time>
      </trkpt>
      <trkpt lat="42.69341" lon="1.64485">
        <ele>1599.467</ele>
        <time>2021-06-13T12:42:28Z</time>
      </trkpt>
      <trkpt lat="42.6934" lon="1.64485">
        <ele>1599.549</ele>
        <time>2021-06-13T12:42:30Z</time>
      </trkpt>
      <trkpt lat="42.69339" lon="1.64485">
        <ele>1599.28</ele>
        <time>2021-06-13T12:42:32Z</time>
      </trkpt>
      <trkpt lat="42.69338" lon="1.64485">
        <ele>1600.623</ele>
        <time>2021-06-13T12:42:34Z</time>
      </trkpt>
      <trkpt lat="42.69337" lon="1.64485">
        <ele>1600.522</ele>
        <time>2021-06-13T12:42:36Z</time>
      </trkpt>
      <trkpt lat="42.69336" lon="1.64485">
        <ele>1601.932</ele>
        <time>2021-06-13T12:42:38Z</time>
      </trkpt>
      <trkpt lat="42.69334" lon="1.64485">
        <ele>1602.627</ele>
        <time>2021-06-13T12:42:40Z</time>
      </trkpt>
      <trkpt lat="42.69333" lon="1.64485">
        <ele>1603.085</ele>
        <time>2021-06-13T12:42:42Z</time>
      </trkpt>
      <trkpt lat="42.69332" lon="1.64485">
        <ele>1604.239</ele>
        <time>2021-06-13T12:42:44Z</time>
      </trkpt>
      <trkpt lat="42.69332" lon="1.64485">
        <ele>1604.579</ele>
        <time>2021-06-13T12:42:46Z</time>
      </trkpt>
      <trkpt lat="42.69331" lon="1.64484">
        <ele>1604.941</ele>
        <time>2021-06-13T12:42:48Z</time>
      </trkpt>
      <trkpt lat="42.6933" lon="1.64484">
        <ele>1605.488</ele>
        <time>2021-06-13T12:42:50Z</time>
      </trkpt>
      <trkpt lat="42.69329" lon="1.64484">
        <ele>1607.295</ele>
        <time>2021-06-13T12:42:52Z</time>
      </trkpt>
      <trkpt lat="42.69328" lon="1.64483">
        <ele>1609.473</ele>
        <time>2021-06-13T12:42:54Z</time>
      </trkpt>
      <trkpt lat="42.69327" lon="1.64483">
        <ele>1608.149</ele>
        <time>2021-06-13T12:42:56Z</time>
      </trkpt>
      <trkpt lat="42.69326" lon="1.64483">
        <ele>1608.538</ele>
        <time>2021-06-13T12:42:58Z</time>
      </trkpt>
      <trkpt lat="42.69325" lon="1.64483">
        <ele>1609.31</ele>
        <time>2021-06-13T12:43:00Z</time>
      </trkpt>
      <trkpt lat="42.69324" lon="1.64482">
        <ele>1610.138</ele>
        <time>2021-06-13T12:43:02Z</time>
      </trkpt>
      <trkpt lat="42.69324" lon="1.64481">
        <ele>1610.145</ele>
        <time>2021-06-13T12:43:04Z</time>
      </trkpt>
      <trkpt lat="42.69323" lon="1.6448">
        <ele>1611.016</ele>
        <time>2021-06-13T12:43:06Z</time>
      </trkpt>
      <trkpt lat="42.69322" lon="1.64479">
        <ele>1612.612</ele>
        <time>2021-06-13T12:43:08Z</time>
      </trkpt>
      <trkpt lat="42.69321" lon="1.64479">
        <ele>1613.208</ele>
        <time>2021-06-13T12:43:10Z</time>
      </trkpt>
      <trkpt lat="42.69321" lon="1.64478">
        <ele>1614.046</ele>
        <time>2021-06-13T12:43:12Z</time>
      </trkpt>
      <trkpt lat="42.6932" lon="1.64479">
        <ele>1615.385</ele>
        <time>2021-06-13T12:43:14Z</time>
      </trkpt>
      <trkpt lat="42.6932" lon="1.64479">
        <ele>1615.271</ele>
        <time>2021-06-13T12:43:16Z</time>
      </trkpt>
      <trkpt lat="42.6932" lon="1.64479">
        <ele>1615.264</ele>
        <time>2021-06-13T12:43:18Z</time>
      </trkpt>
      <trkpt lat="42.6932" lon="1.64479">
        <ele>1616.143</ele>
        <time>2021-06-13T12:43:20Z</time>
      </trkpt>
      <trkpt lat="42.69319" lon="1.64479">
        <ele>1615.32</ele>
        <time>2021-06-13T12:43:22Z</time>
      </trkpt>
      <trkpt lat="42.69319" lon="1.64479">
        <ele>1614.499</ele>
        <time>2021-06-13T12:43:24Z</time>
      </trkpt>
      <trkpt lat="42.69319" lon="1.64479">
        <ele>1614.478</ele>
        <time>2021-06-13T12:43:26Z</time>
      </trkpt>
      <trkpt lat="42.69319" lon="1.64479">
        <ele>1614.478</ele>
        <time>2021-06-13T12:43:28Z</time>
      </trkpt>
      <trkpt lat="42.69319" lon="1.64479">
        <ele>1614.478</ele>
        <time>2021-06-13T12:43:30Z</time>
      </trkpt>
      <trkpt lat="42.69319" lon="1.64479">
        <ele>1614.476</ele>
        <time>2021-06-13T12:43:32Z</time>
      </trkpt>
      <trkpt lat="42.69319" lon="1.64479">
        <ele>1614.743</ele>
        <time>2021-06-13T12:43:34Z</time>
      </trkpt>
      <trkpt lat="42.69318" lon="1.64479">
        <ele>1614.894</ele>
        <time>2021-06-13T12:43:36Z</time>
      </trkpt>
      <trkpt lat="42.69318" lon="1.6448">
        <ele>1614.811</ele>
        <time>2021-06-13T12:43:38Z</time>
      </trkpt>
      <trkpt lat="42.69318" lon="1.6448">
        <ele>1613.834</ele>
        <time>2021-06-13T12:43:40Z</time>
      </trkpt>
      <trkpt lat="42.69318" lon="1.64479">
        <ele>1613.451</ele>
        <time>2021-06-13T12:43:42Z</time>
      </trkpt>
      <trkpt lat="42.6932" lon="1.64478">
        <ele>1614.319</ele>
        <time>2021-06-13T12:43:44Z</time>
      </trkpt>
      <trkpt lat="42.69321" lon="1.64477">
        <ele>1613.637</ele>
        <time>2021-06-13T12:43:46Z</time>
      </trkpt>
      <trkpt lat="42.69323" lon="1.64476">
        <ele>1614.831</ele>
        <time>2021-06-13T12:43:48Z</time>
      </trkpt>
      <trkpt lat="42.69323" lon="1.64475">
        <ele>1615.017</ele>
        <time>2021-06-13T12:43:50Z</time>
      </trkpt>
      <trkpt lat="42.69323" lon="1.64473">
        <ele>1615.077</ele>
        <time>2021-06-13T12:43:52Z</time>
      </trkpt>
      <trkpt lat="42.69323" lon="1.64472">
        <ele>1614.594</ele>
        <time>2021-06-13T12:43:54Z</time>
      </trkpt>
      <trkpt lat="42.69322" lon="1.64472">
        <ele>1615.91</ele>
        <time>2021-06-13T12:43:56Z</time>
      </trkpt>
      <trkpt lat="42.69322" lon="1.64471">
        <ele>1616.841</ele>
        <time>2021-06-13T12:43:58Z</time>
      </trkpt>
      <trkpt lat="42.69321" lon="1.6447">
        <ele>1618.58</ele>
        <time>2021-06-13T12:44:00Z</time>
      </trkpt>
      <trkpt lat="42.69321" lon="1.6447">
        <ele>1618.865</ele>
        <time>2021-06-13T12:44:02Z</time>
      </trkpt>
      <trkpt lat="42.6932" lon="1.64468">
        <ele>1616.732</ele>
        <time>2021-06-13T12:44:04Z</time>
      </trkpt>
      <trkpt lat="42.69319" lon="1.64467">
        <ele>1617.127</ele>
        <time>2021-06-13T12:44:06Z</time>
      </trkpt>
      <trkpt lat="42.69318" lon="1.64468">
        <ele>1617.248</ele>
        <time>2021-06-13T12:44:08Z</time>
      </trkpt>
      <trkpt lat="42.69317" lon="1.64468">
        <ele>1618.227</ele>
        <time>2021-06-13T12:44:10Z</time>
      </trkpt>
      <trkpt lat="42.69316" lon="1.64469">
        <ele>1617.995</ele>
        <time>2021-06-13T12:44:12Z</time>
      </trkpt>
      <trkpt lat="42.69316" lon="1.64469">
        <ele>1617.045</ele>
        <time>2021-06-13T12:44:14Z</time>
      </trkpt>
      <trkpt lat="42.69315" lon="1.64471">
        <ele>1616.843</ele>
        <time>2021-06-13T12:44:16Z</time>
      </trkpt>
      <trkpt lat="42.69314" lon="1.64473">
        <ele>1617.355</ele>
        <time>2021-06-13T12:44:18Z</time>
      </trkpt>
      <trkpt lat="42.69313" lon="1.64474">
        <ele>1617.229</ele>
        <time>2021-06-13T12:44:20Z</time>
      </trkpt>
      <trkpt lat="42.69312" lon="1.64475">
        <ele>1617.066</ele>
        <time>2021-06-13T12:44:22Z</time>
      </trkpt>
      <trkpt lat="42.69311" lon="1.64476">
        <ele>1617.2</ele>
        <time>2021-06-13T12:44:24Z</time>
      </trkpt>
      <trkpt lat="42.69312" lon="1.64474">
        <ele>1616.597</ele>
        <time>2021-06-13T12:44:26Z</time>
      </trkpt>
      <trkpt lat="42.69311" lon="1.64474">
        <ele>1616.798</ele>
        <time>2021-06-13T12:44:28Z</time>
      </trkpt>
      <trkpt lat="42.6931" lon="1.64473">
        <ele>1616.938</ele>
        <time>2021-06-13T12:44:30Z</time>
      </trkpt>
      <trkpt lat="42.69308" lon="1.64474">
        <ele>1616.51</ele>
        <time>2021-06-13T12:44:32Z</time>
      </trkpt>
      <trkpt lat="42.69308" lon="1.64474">
        <ele>1617.018</ele>
        <time>2021-06-13T12:44:34Z</time>
      </trkpt>
      <trkpt lat="42.69307" lon="1.64475">
        <ele>1617.197</ele>
        <time>2021-06-13T12:44:36Z</time>
      </trkpt>
      <trkpt lat="42.69307" lon="1.64474">
        <ele>1617.949</ele>
        <time>2021-06-13T12:44:38Z</time>
      </trkpt>
      <trkpt lat="42.69306" lon="1.64474">
        <ele>1617.705</ele>
        <time>2021-06-13T12:44:40Z</time>
      </trkpt>
      <trkpt lat="42.69305" lon="1.64474">
        <ele>1617.568</ele>
        <time>2021-06-13T12:44:42Z</time>
      </trkpt>
      <trkpt lat="42.69305" lon="1.64474">
        <ele>1617.558</ele>
        <time>2021-06-13T12:44:44Z</time>
      </trkpt>
      <trkpt lat="42.69305" lon="1.64473">
        <ele>1617.155</ele>
        <time>2021-06-13T12:44:46Z</time>
      </trkpt>
      <trkpt lat="42.69304" lon="1.64472">
        <ele>1614.73</ele>
        <time>2021-06-13T12:44:48Z</time>
      </trkpt>
      <trkpt lat="42.69303" lon="1.64471">
        <ele>1612.553</ele>
        <time>2021-06-13T12:44:50Z</time>
      </trkpt>
      <trkpt lat="42.69304" lon="1.6447">
        <ele>1613.186</ele>
        <time>2021-06-13T12:44:52Z</time>
      </trkpt>
      <trkpt lat="42.69304" lon="1.6447">
        <ele>1613.195</ele>
        <time>2021-06-13T12:44:54Z</time>
      </trkpt>
      <trkpt lat="42.69304" lon="1.6447">
        <ele>1613.215</ele>
        <time>2021-06-13T12:44:56Z</time>
      </trkpt>
      <trkpt lat="42.69304" lon="1.6447">
        <ele>1613.23</ele>
        <time>2021-06-13T12:44:58Z</time>
      </trkpt>
      <trkpt lat="42.69304" lon="1.6447">
        <ele>1613.238</ele>
        <time>2021-06-13T12:45:00Z</time>
      </trkpt>
      <trkpt lat="42.69304" lon="1.6447">
        <ele>1613.246</ele>
        <time>2021-06-13T12:45:02Z</time>
      </trkpt>
      <trkpt lat="42.69304" lon="1.6447">
        <ele>1613.258</ele>
        <time>2021-06-13T12:45:04Z</time>
      </trkpt>
      <trkpt lat="42.69303" lon="1.6447">
        <ele>1613.27</ele>
        <time>2021-06-13T12:45:06Z</time>
      </trkpt>
      <trkpt lat="42.69303" lon="1.6447">
        <ele>1613.275</ele>
        <time>2021-06-13T12:45:08Z</time>
      </trkpt>
      <trkpt lat="42.69303" lon="1.6447">
        <ele>1613.291</ele>
        <time>2021-06-13T12:45:10Z</time>
      </trkpt>
      <trkpt lat="42.69303" lon="1.64469">
        <ele>1613.373</ele>
        <time>2021-06-13T12:45:12Z</time>
      </trkpt>
      <trkpt lat="42.69302" lon="1.6447">
        <ele>1614.205</ele>
        <time>2021-06-13T12:45:14Z</time>
      </trkpt>
      <trkpt lat="42.69302" lon="1.64469">
        <ele>1611.372</ele>
        <time>2021-06-13T12:45:16Z</time>
      </trkpt>
      <trkpt lat="42.69301" lon="1.64467">
        <ele>1611.323</ele>
        <time>2021-06-13T12:45:18Z</time>
      </trkpt>
      <trkpt lat="42.693" lon="1.64467">
        <ele>1611.838</ele>
        <time>2021-06-13T12:45:20Z</time>
      </trkpt>
      <trkpt lat="42.693" lon="1.64467">
        <ele>1611.836</ele>
        <time>2021-06-13T12:45:22Z</time>
      </trkpt>
      <trkpt lat="42.693" lon="1.64467">
        <ele>1611.844</ele>
        <time>2021-06-13T12:45:24Z</time>
      </trkpt>
      <trkpt lat="42.693" lon="1.64467">
        <ele>1611.845</ele>
        <time>2021-06-13T12:45:26Z</time>
      </trkpt>
      <trkpt lat="42.693" lon="1.64467">
        <ele>1611.845</ele>
        <time>2021-06-13T12:45:28Z</time>
      </trkpt>
      <trkpt lat="42.693" lon="1.64467">
        <ele>1611.844</ele>
        <time>2021-06-13T12:45:30Z</time>
      </trkpt>
      <trkpt lat="42.693" lon="1.64467">
        <ele>1611.843</ele>
        <time>2021-06-13T12:45:32Z</time>
      </trkpt>
      <trkpt lat="42.693" lon="1.64467">
        <ele>1611.84</ele>
        <time>2021-06-13T12:45:34Z</time>
      </trkpt>
      <trkpt lat="42.69299" lon="1.64468">
        <ele>1613.127</ele>
        <time>2021-06-13T12:45:36Z</time>
      </trkpt>
      <trkpt lat="42.69298" lon="1.64469">
        <ele>1613.293</ele>
        <time>2021-06-13T12:45:38Z</time>
      </trkpt>
      <trkpt lat="42.69298" lon="1.64469">
        <ele>1613.257</ele>
        <time>2021-06-13T12:45:40Z</time>
      </trkpt>
      <trkpt lat="42.69298" lon="1.64469">
        <ele>1613.26</ele>
        <time>2021-06-13T12:45:42Z</time>
      </trkpt>
      <trkpt lat="42.69298" lon="1.64469">
        <ele>1613.655</ele>
        <time>2021-06-13T12:45:44Z</time>
      </trkpt>
      <trkpt lat="42.69298" lon="1.64469">
        <ele>1613.623</ele>
        <time>2021-06-13T12:45:46Z</time>
      </trkpt>
      <trkpt lat="42.69297" lon="1.64469">
        <ele>1616.43</ele>
        <time>2021-06-13T12:45:48Z</time>
      </trkpt>
      <trkpt lat="42.69297" lon="1.64469">
        <ele>1617.841</ele>
        <time>2021-06-13T12:45:50Z</time>
      </trkpt>
      <trkpt lat="42.69296" lon="1.64468">
        <ele>1617.204</ele>
        <time>2021-06-13T12:45:52Z</time>
      </trkpt>
      <trkpt lat="42.69296" lon="1.64467">
        <ele>1615.876</ele>
        <time>2021-06-13T12:45:54Z</time>
      </trkpt>
      <trkpt lat="42.69296" lon="1.64466">
        <ele>1616.678</ele>
        <time>2021-06-13T12:45:56Z</time>
      </trkpt>
      <trkpt lat="42.69297" lon="1.64465">
        <ele>1614.971</ele>
        <time>2021-06-13T12:45:58Z</time>
      </trkpt>
      <trkpt lat="42.69296" lon="1.64463">
        <ele>1613.392</ele>
        <time>2021-06-13T12:46:00Z</time>
      </trkpt>
      <trkpt lat="42.69296" lon="1.64462">
        <ele>1613.004</ele>
        <time>2021-06-13T12:46:02Z</time>
      </trkpt>
      <trkpt lat="42.69295" lon="1.64462">
        <ele>1614.002</ele>
        <time>2021-06-13T12:46:04Z</time>
      </trkpt>
      <trkpt lat="42.69295" lon="1.64462">
        <ele>1613.889</ele>
        <time>2021-06-13T12:46:06Z</time>
      </trkpt>
      <trkpt lat="42.69293" lon="1.64462">
        <ele>1614.357</ele>
        <time>2021-06-13T12:46:08Z</time>
      </trkpt>
      <trkpt lat="42.69291" lon="1.64462">
        <ele>1614.028</ele>
        <time>2021-06-13T12:46:10Z</time>
      </trkpt>
      <trkpt lat="42.6929" lon="1.64461">
        <ele>1614.08</ele>
        <time>2021-06-13T12:46:12Z</time>
      </trkpt>
      <trkpt lat="42.69289" lon="1.6446">
        <ele>1613.888</ele>
        <time>2021-06-13T12:46:14Z</time>
      </trkpt>
      <trkpt lat="42.69287" lon="1.6446">
        <ele>1610.742</ele>
        <time>2021-06-13T12:46:16Z</time>
      </trkpt>
      <trkpt lat="42.69286" lon="1.6446">
        <ele>1611.765</ele>
        <time>2021-06-13T12:46:18Z</time>
      </trkpt>
      <trkpt lat="42.69285" lon="1.6446">
        <ele>1612.754</ele>
        <time>2021-06-13T12:46:20Z</time>
      </trkpt>
      <trkpt lat="42.69284" lon="1.64459">
        <ele>1613.003</ele>
        <time>2021-06-13T12:46:22Z</time>
      </trkpt>
      <trkpt lat="42.69284" lon="1.64458">
        <ele>1612.515</ele>
        <time>2021-06-13T12:46:24Z</time>
      </trkpt>
      <trkpt lat="42.69283" lon="1.64458">
        <ele>1615.204</ele>
        <time>2021-06-13T12:46:26Z</time>
      </trkpt>
      <trkpt lat="42.69283" lon="1.64458">
        <ele>1616.325</ele>
        <time>2021-06-13T12:46:28Z</time>
      </trkpt>
      <trkpt lat="42.69282" lon="1.64458">
        <ele>1617.587</ele>
        <time>2021-06-13T12:46:30Z</time>
      </trkpt>
      <trkpt lat="42.69282" lon="1.64459">
        <ele>1619.595</ele>
        <time>2021-06-13T12:46:32Z</time>
      </trkpt>
      <trkpt lat="42.69281" lon="1.64458">
        <ele>1619.75</ele>
        <time>2021-06-13T12:46:34Z</time>
      </trkpt>
      <trkpt lat="42.6928" lon="1.64458">
        <ele>1618.605</ele>
        <time>2021-06-13T12:46:36Z</time>
      </trkpt>
      <trkpt lat="42.69279" lon="1.64457">
        <ele>1619.309</ele>
        <time>2021-06-13T12:46:38Z</time>
      </trkpt>
      <trkpt lat="42.69278" lon="1.64459">
        <ele>1620.103</ele>
        <time>2021-06-13T12:46:40Z</time>
      </trkpt>
      <trkpt lat="42.69278" lon="1.64461">
        <ele>1621.944</ele>
        <time>2021-06-13T12:46:42Z</time>
      </trkpt>
      <trkpt lat="42.69277" lon="1.64461">
        <ele>1621.342</ele>
        <time>2021-06-13T12:46:44Z</time>
      </trkpt>
      <trkpt lat="42.69276" lon="1.64462">
        <ele>1622.516</ele>
        <time>2021-06-13T12:46:46Z</time>
      </trkpt>
      <trkpt lat="42.69275" lon="1.64462">
        <ele>1624.574</ele>
        <time>2021-06-13T12:46:48Z</time>
      </trkpt>
      <trkpt lat="42.69274" lon="1.64462">
        <ele>1625.247</ele>
        <time>2021-06-13T12:46:50Z</time>
      </trkpt>
      <trkpt lat="42.69273" lon="1.64462">
        <ele>1626.877</ele>
        <time>2021-06-13T12:46:52Z</time>
      </trkpt>
      <trkpt lat="42.69272" lon="1.6446">
        <ele>1627.183</ele>
        <time>2021-06-13T12:46:54Z</time>
      </trkpt>
      <trkpt lat="42.69272" lon="1.64459">
        <ele>1626.784</ele>
        <time>2021-06-13T12:46:56Z</time>
      </trkpt>
      <trkpt lat="42.69271" lon="1.64459">
        <ele>1627.086</ele>
        <time>2021-06-13T12:46:58Z</time>
      </trkpt>
      <trkpt lat="42.6927" lon="1.64457">
        <ele>1627.085</ele>
        <time>2021-06-13T12:47:00Z</time>
      </trkpt>
      <trkpt lat="42.6927" lon="1.64455">
        <ele>1627.627</ele>
        <time>2021-06-13T12:47:02Z</time>
      </trkpt>
      <trkpt lat="42.69268" lon="1.64454">
        <ele>1630.341</ele>
        <time>2021-06-13T12:47:04Z</time>
      </trkpt>
      <trkpt lat="42.69267" lon="1.64454">
        <ele>1630.37</ele>
        <time>2021-06-13T12:47:06Z</time>
      </trkpt>
      <trkpt lat="42.69267" lon="1.64453">
        <ele>1630.108</ele>
        <time>2021-06-13T12:47:08Z</time>
      </trkpt>
      <trkpt lat="42.69265" lon="1.64452">
        <ele>1630.115</ele>
        <time>2021-06-13T12:47:10Z</time>
      </trkpt>
      <trkpt lat="42.69265" lon="1.64453">
        <ele>1627.82</ele>
        <time>2021-06-13T12:47:12Z</time>
      </trkpt>
      <trkpt lat="42.69264" lon="1.64453">
        <ele>1629.173</ele>
        <time>2021-06-13T12:47:14Z</time>
      </trkpt>
      <trkpt lat="42.69263" lon="1.64452">
        <ele>1628.416</ele>
        <time>2021-06-13T12:47:16Z</time>
      </trkpt>
      <trkpt lat="42.69262" lon="1.64451">
        <ele>1627.255</ele>
        <time>2021-06-13T12:47:18Z</time>
      </trkpt>
      <trkpt lat="42.6926" lon="1.64451">
        <ele>1628.401</ele>
        <time>2021-06-13T12:47:20Z</time>
      </trkpt>
      <trkpt lat="42.69259" lon="1.6445">
        <ele>1629.275</ele>
        <time>2021-06-13T12:47:22Z</time>
      </trkpt>
      <trkpt lat="42.69258" lon="1.64449">
        <ele>1628.368</ele>
        <time>2021-06-13T12:47:24Z</time>
      </trkpt>
      <trkpt lat="42.69257" lon="1.64448">
        <ele>1627.466</ele>
        <time>2021-06-13T12:47:26Z</time>
      </trkpt>
      <trkpt lat="42.69257" lon="1.64446">
        <ele>1626.919</ele>
        <time>2021-06-13T12:47:28Z</time>
      </trkpt>
      <trkpt lat="42.69256" lon="1.64445">
        <ele>1627.311</ele>
        <time>2021-06-13T12:47:30Z</time>
      </trkpt>
      <trkpt lat="42.69255" lon="1.64444">
        <ele>1628.194</ele>
        <time>2021-06-13T12:47:32Z</time>
      </trkpt>
      <trkpt lat="42.69254" lon="1.64444">
        <ele>1629.052</ele>
        <time>2021-06-13T12:47:34Z</time>
      </trkpt>
      <trkpt lat="42.69252" lon="1.64443">
        <ele>1629.657</ele>
        <time>2021-06-13T12:47:36Z</time>
      </trkpt>
      <trkpt lat="42.6925" lon="1.64442">
        <ele>1628.577</ele>
        <time>2021-06-13T12:47:38Z</time>
      </trkpt>
      <trkpt lat="42.69249" lon="1.64441">
        <ele>1628.364</ele>
        <time>2021-06-13T12:47:40Z</time>
      </trkpt>
      <trkpt lat="42.69248" lon="1.6444">
        <ele>1628.822</ele>
        <time>2021-06-13T12:47:42Z</time>
      </trkpt>
      <trkpt lat="42.69246" lon="1.64438">
        <ele>1626.857</ele>
        <time>2021-06-13T12:47:44Z</time>
      </trkpt>
      <trkpt lat="42.69245" lon="1.64435">
        <ele>1628.18</ele>
        <time>2021-06-13T12:47:46Z</time>
      </trkpt>
      <trkpt lat="42.69244" lon="1.64434">
        <ele>1628.961</ele>
        <time>2021-06-13T12:47:48Z</time>
      </trkpt>
      <trkpt lat="42.69242" lon="1.64432">
        <ele>1629.317</ele>
        <time>2021-06-13T12:47:50Z</time>
      </trkpt>
      <trkpt lat="42.69241" lon="1.64431">
        <ele>1628.585</ele>
        <time>2021-06-13T12:47:52Z</time>
      </trkpt>
      <trkpt lat="42.6924" lon="1.64431">
        <ele>1629.156</ele>
        <time>2021-06-13T12:47:54Z</time>
      </trkpt>
      <trkpt lat="42.69239" lon="1.6443">
        <ele>1628.04</ele>
        <time>2021-06-13T12:47:56Z</time>
      </trkpt>
      <trkpt lat="42.69238" lon="1.64429">
        <ele>1628.386</ele>
        <time>2021-06-13T12:47:58Z</time>
      </trkpt>
      <trkpt lat="42.69238" lon="1.64427">
        <ele>1628.291</ele>
        <time>2021-06-13T12:48:00Z</time>
      </trkpt>
      <trkpt lat="42.69237" lon="1.64426">
        <ele>1629.207</ele>
        <time>2021-06-13T12:48:02Z</time>
      </trkpt>
      <trkpt lat="42.69236" lon="1.64426">
        <ele>1629.038</ele>
        <time>2021-06-13T12:48:04Z</time>
      </trkpt>
      <trkpt lat="42.69234" lon="1.64426">
        <ele>1628.931</ele>
        <time>2021-06-13T12:48:06Z</time>
      </trkpt>
      <trkpt lat="42.69233" lon="1.64426">
        <ele>1627.8</ele>
        <time>2021-06-13T12:48:08Z</time>
      </trkpt>
      <trkpt lat="42.69233" lon="1.64424">
        <ele>1627.449</ele>
        <time>2021-06-13T12:48:10Z</time>
      </trkpt>
      <trkpt lat="42.69233" lon="1.64424">
        <ele>1627.336</ele>
        <time>2021-06-13T12:48:12Z</time>
      </trkpt>
      <trkpt lat="42.69233" lon="1.64424">
        <ele>1627.343</ele>
        <time>2021-06-13T12:48:13Z</time>
      </trkpt>
      <trkpt lat="42.69233" lon="1.64424">
        <ele>1627.363</ele>
        <time>2021-06-13T12:48:16Z</time>
      </trkpt>
      <trkpt lat="42.69233" lon="1.64424">
        <ele>1627.366</ele>
        <time>2021-06-13T12:48:18Z</time>
      </trkpt>
      <trkpt lat="42.69233" lon="1.64424">
        <ele>1627.375</ele>
        <time>2021-06-13T12:48:20Z</time>
      </trkpt>
      <trkpt lat="42.69233" lon="1.64424">
        <ele>1627.372</ele>
        <time>2021-06-13T12:48:22Z</time>
      </trkpt>
      <trkpt lat="42.69233" lon="1.64424">
        <ele>1627.364</ele>
        <time>2021-06-13T12:48:24Z</time>
      </trkpt>
      <trkpt lat="42.69232" lon="1.64424">
        <ele>1627.781</ele>
        <time>2021-06-13T12:48:26Z</time>
      </trkpt>
      <trkpt lat="42.69232" lon="1.64424">
        <ele>1627.83</ele>
        <time>2021-06-13T12:48:27Z</time>
      </trkpt>
      <trkpt lat="42.69232" lon="1.64424">
        <ele>1627.861</ele>
        <time>2021-06-13T12:48:30Z</time>
      </trkpt>
      <trkpt lat="42.69232" lon="1.64424">
        <ele>1627.882</ele>
        <time>2021-06-13T12:48:32Z</time>
      </trkpt>
      <trkpt lat="42.69232" lon="1.64424">
        <ele>1627.89</ele>
        <time>2021-06-13T12:48:34Z</time>
      </trkpt>
      <trkpt lat="42.69232" lon="1.64424">
        <ele>1627.897</ele>
        <time>2021-06-13T12:48:36Z</time>
      </trkpt>
      <trkpt lat="42.69232" lon="1.64424">
        <ele>1627.909</ele>
        <time>2021-06-13T12:48:38Z</time>
      </trkpt>
      <trkpt lat="42.69232" lon="1.64424">
        <ele>1627.926</ele>
        <time>2021-06-13T12:48:40Z</time>
      </trkpt>
      <trkpt lat="42.69232" lon="1.64424">
        <ele>1627.939</ele>
        <time>2021-06-13T12:48:42Z</time>
      </trkpt>
      <trkpt lat="42.69232" lon="1.64424">
        <ele>1627.95</ele>
        <time>2021-06-13T12:48:44Z</time>
      </trkpt>
      <trkpt lat="42.69232" lon="1.64424">
        <ele>1627.967</ele>
        <time>2021-06-13T12:48:46Z</time>
      </trkpt>
      <trkpt lat="42.69232" lon="1.64424">
        <ele>1627.976</ele>
        <time>2021-06-13T12:48:47Z</time>
      </trkpt>
      <trkpt lat="42.69232" lon="1.64424">
        <ele>1627.99</ele>
        <time>2021-06-13T12:48:50Z</time>
      </trkpt>
      <trkpt lat="42.69232" lon="1.64424">
        <ele>1627.994</ele>
        <time>2021-06-13T12:48:52Z</time>
      </trkpt>
      <trkpt lat="42.69232" lon="1.64424">
        <ele>1627.999</ele>
        <time>2021-06-13T12:48:54Z</time>
      </trkpt>
      <trkpt lat="42.69232" lon="1.64424">
        <ele>1627.999</ele>
        <time>2021-06-13T12:48:56Z</time>
      </trkpt>
      <trkpt lat="42.69232" lon="1.64424">
        <ele>1628.13</ele>
        <time>2021-06-13T12:48:59Z</time>
      </trkpt>
      <trkpt lat="42.69232" lon="1.64423">
        <ele>1628.027</ele>
        <time>2021-06-13T12:49:01Z</time>
      </trkpt>
      <trkpt lat="42.69232" lon="1.64423">
        <ele>1628.037</ele>
        <time>2021-06-13T12:49:03Z</time>
      </trkpt>
      <trkpt lat="42.69232" lon="1.64423">
        <ele>1628.041</ele>
        <time>2021-06-13T12:49:05Z</time>
      </trkpt>
      <trkpt lat="42.69232" lon="1.64423">
        <ele>1628.056</ele>
        <time>2021-06-13T12:49:07Z</time>
      </trkpt>
      <trkpt lat="42.69232" lon="1.64423">
        <ele>1628.072</ele>
        <time>2021-06-13T12:49:09Z</time>
      </trkpt>
      <trkpt lat="42.69232" lon="1.64423">
        <ele>1628.079</ele>
        <time>2021-06-13T12:49:11Z</time>
      </trkpt>
      <trkpt lat="42.69232" lon="1.64423">
        <ele>1628.076</ele>
        <time>2021-06-13T12:49:13Z</time>
      </trkpt>
      <trkpt lat="42.69232" lon="1.64423">
        <ele>1628.088</ele>
        <time>2021-06-13T12:49:15Z</time>
      </trkpt>
      <trkpt lat="42.69232" lon="1.64423">
        <ele>1628.096</ele>
        <time>2021-06-13T12:49:17Z</time>
      </trkpt>
      <trkpt lat="42.69232" lon="1.64423">
        <ele>1628.101</ele>
        <time>2021-06-13T12:49:20Z</time>
      </trkpt>
      <trkpt lat="42.69232" lon="1.64423">
        <ele>1627.515</ele>
        <time>2021-06-13T12:49:22Z</time>
      </trkpt>
      <trkpt lat="42.69232" lon="1.64423">
        <ele>1627.548</ele>
        <time>2021-06-13T12:49:24Z</time>
      </trkpt>
      <trkpt lat="42.69231" lon="1.64423">
        <ele>1626.439</ele>
        <time>2021-06-13T12:49:26Z</time>
      </trkpt>
      <trkpt lat="42.69231" lon="1.64423">
        <ele>1626.402</ele>
        <time>2021-06-13T12:49:28Z</time>
      </trkpt>
      <trkpt lat="42.69231" lon="1.64423">
        <ele>1626.413</ele>
        <time>2021-06-13T12:49:30Z</time>
      </trkpt>
      <trkpt lat="42.69231" lon="1.64423">
        <ele>1626.279</ele>
        <time>2021-06-13T12:49:32Z</time>
      </trkpt>
      <trkpt lat="42.69229" lon="1.64423">
        <ele>1626.033</ele>
        <time>2021-06-13T12:49:34Z</time>
      </trkpt>
      <trkpt lat="42.69227" lon="1.64423">
        <ele>1625.974</ele>
        <time>2021-06-13T12:49:36Z</time>
      </trkpt>
      <trkpt lat="42.69225" lon="1.64422">
        <ele>1627.477</ele>
        <time>2021-06-13T12:49:38Z</time>
      </trkpt>
      <trkpt lat="42.69224" lon="1.64423">
        <ele>1627.402</ele>
        <time>2021-06-13T12:49:40Z</time>
      </trkpt>
      <trkpt lat="42.69223" lon="1.64423">
        <ele>1626.485</ele>
        <time>2021-06-13T12:49:42Z</time>
      </trkpt>
      <trkpt lat="42.69221" lon="1.64421">
        <ele>1626.696</ele>
        <time>2021-06-13T12:49:44Z</time>
      </trkpt>
      <trkpt lat="42.6922" lon="1.64419">
        <ele>1626.877</ele>
        <time>2021-06-13T12:49:46Z</time>
      </trkpt>
      <trkpt lat="42.69218" lon="1.64418">
        <ele>1627.298</ele>
        <time>2021-06-13T12:49:48Z</time>
      </trkpt>
      <trkpt lat="42.69216" lon="1.64415">
        <ele>1627.609</ele>
        <time>2021-06-13T12:49:50Z</time>
      </trkpt>
      <trkpt lat="42.69215" lon="1.64414">
        <ele>1628.867</ele>
        <time>2021-06-13T12:49:52Z</time>
      </trkpt>
      <trkpt lat="42.69213" lon="1.64415">
        <ele>1630.944</ele>
        <time>2021-06-13T12:49:54Z</time>
      </trkpt>
      <trkpt lat="42.69212" lon="1.64413">
        <ele>1632.215</ele>
        <time>2021-06-13T12:49:56Z</time>
      </trkpt>
      <trkpt lat="42.6921" lon="1.64412">
        <ele>1632.173</ele>
        <time>2021-06-13T12:49:58Z</time>
      </trkpt>
      <trkpt lat="42.69209" lon="1.6441">
        <ele>1631.964</ele>
        <time>2021-06-13T12:50:00Z</time>
      </trkpt>
      <trkpt lat="42.69208" lon="1.64408">
        <ele>1632.53</ele>
        <time>2021-06-13T12:50:02Z</time>
      </trkpt>
      <trkpt lat="42.69206" lon="1.64408">
        <ele>1632.63</ele>
        <time>2021-06-13T12:50:04Z</time>
      </trkpt>
      <trkpt lat="42.69205" lon="1.64407">
        <ele>1633.464</ele>
        <time>2021-06-13T12:50:06Z</time>
      </trkpt>
      <trkpt lat="42.69204" lon="1.64407">
        <ele>1633.858</ele>
        <time>2021-06-13T12:50:08Z</time>
      </trkpt>
      <trkpt lat="42.69203" lon="1.64405">
        <ele>1633.688</ele>
        <time>2021-06-13T12:50:10Z</time>
      </trkpt>
      <trkpt lat="42.69202" lon="1.64404">
        <ele>1634.486</ele>
        <time>2021-06-13T12:50:12Z</time>
      </trkpt>
      <trkpt lat="42.692" lon="1.64404">
        <ele>1635.035</ele>
        <time>2021-06-13T12:50:14Z</time>
      </trkpt>
      <trkpt lat="42.69198" lon="1.64403">
        <ele>1634.531</ele>
        <time>2021-06-13T12:50:16Z</time>
      </trkpt>
      <trkpt lat="42.69197" lon="1.64403">
        <ele>1633.143</ele>
        <time>2021-06-13T12:50:18Z</time>
      </trkpt>
      <trkpt lat="42.69195" lon="1.64402">
        <ele>1632.285</ele>
        <time>2021-06-13T12:50:20Z</time>
      </trkpt>
      <trkpt lat="42.69193" lon="1.64402">
        <ele>1633.249</ele>
        <time>2021-06-13T12:50:22Z</time>
      </trkpt>
      <trkpt lat="42.69191" lon="1.64401">
        <ele>1634.334</ele>
        <time>2021-06-13T12:50:24Z</time>
      </trkpt>
      <trkpt lat="42.6919" lon="1.644">
        <ele>1634.193</ele>
        <time>2021-06-13T12:50:26Z</time>
      </trkpt>
      <trkpt lat="42.69188" lon="1.64398">
        <ele>1633.933</ele>
        <time>2021-06-13T12:50:28Z</time>
      </trkpt>
      <trkpt lat="42.69187" lon="1.64398">
        <ele>1634.928</ele>
        <time>2021-06-13T12:50:30Z</time>
      </trkpt>
      <trkpt lat="42.69185" lon="1.64397">
        <ele>1634.358</ele>
        <time>2021-06-13T12:50:32Z</time>
      </trkpt>
      <trkpt lat="42.69184" lon="1.64395">
        <ele>1635.309</ele>
        <time>2021-06-13T12:50:34Z</time>
      </trkpt>
      <trkpt lat="42.69181" lon="1.64391">
        <ele>1636.357</ele>
        <time>2021-06-13T12:50:37Z</time>
      </trkpt>
      <trkpt lat="42.69182" lon="1.64388">
        <ele>1634.585</ele>
        <time>2021-06-13T12:50:39Z</time>
      </trkpt>
      <trkpt lat="42.69181" lon="1.64386">
        <ele>1633.964</ele>
        <time>2021-06-13T12:50:41Z</time>
      </trkpt>
      <trkpt lat="42.69179" lon="1.64386">
        <ele>1634.037</ele>
        <time>2021-06-13T12:50:43Z</time>
      </trkpt>
      <trkpt lat="42.69178" lon="1.64385">
        <ele>1632.591</ele>
        <time>2021-06-13T12:50:45Z</time>
      </trkpt>
      <trkpt lat="42.69177" lon="1.64384">
        <ele>1632.626</ele>
        <time>2021-06-13T12:50:47Z</time>
      </trkpt>
      <trkpt lat="42.69176" lon="1.64382">
        <ele>1631.391</ele>
        <time>2021-06-13T12:50:49Z</time>
      </trkpt>
      <trkpt lat="42.69174" lon="1.64381">
        <ele>1633.384</ele>
        <time>2021-06-13T12:50:51Z</time>
      </trkpt>
      <trkpt lat="42.69172" lon="1.6438">
        <ele>1633.229</ele>
        <time>2021-06-13T12:50:53Z</time>
      </trkpt>
      <trkpt lat="42.69171" lon="1.6438">
        <ele>1631.839</ele>
        <time>2021-06-13T12:50:55Z</time>
      </trkpt>
      <trkpt lat="42.69168" lon="1.6438">
        <ele>1631.066</ele>
        <time>2021-06-13T12:50:57Z</time>
      </trkpt>
      <trkpt lat="42.69167" lon="1.64377">
        <ele>1632.593</ele>
        <time>2021-06-13T12:50:59Z</time>
      </trkpt>
      <trkpt lat="42.69166" lon="1.64375">
        <ele>1633.278</ele>
        <time>2021-06-13T12:51:01Z</time>
      </trkpt>
      <trkpt lat="42.69165" lon="1.64373">
        <ele>1634.24</ele>
        <time>2021-06-13T12:51:03Z</time>
      </trkpt>
      <trkpt lat="42.69164" lon="1.64371">
        <ele>1634.941</ele>
        <time>2021-06-13T12:51:05Z</time>
      </trkpt>
      <trkpt lat="42.69163" lon="1.6437">
        <ele>1635.259</ele>
        <time>2021-06-13T12:51:07Z</time>
      </trkpt>
      <trkpt lat="42.69161" lon="1.6437">
        <ele>1635.603</ele>
        <time>2021-06-13T12:51:09Z</time>
      </trkpt>
      <trkpt lat="42.69159" lon="1.64369">
        <ele>1635.246</ele>
        <time>2021-06-13T12:51:11Z</time>
      </trkpt>
      <trkpt lat="42.69158" lon="1.64367">
        <ele>1636</ele>
        <time>2021-06-13T12:51:13Z</time>
      </trkpt>
      <trkpt lat="42.69157" lon="1.64363">
        <ele>1637.03</ele>
        <time>2021-06-13T12:51:15Z</time>
      </trkpt>
      <trkpt lat="42.69156" lon="1.64361">
        <ele>1636.587</ele>
        <time>2021-06-13T12:51:17Z</time>
      </trkpt>
      <trkpt lat="42.69154" lon="1.6436">
        <ele>1634.261</ele>
        <time>2021-06-13T12:51:19Z</time>
      </trkpt>
      <trkpt lat="42.69154" lon="1.64358">
        <ele>1632.792</ele>
        <time>2021-06-13T12:51:21Z</time>
      </trkpt>
      <trkpt lat="42.69153" lon="1.64357">
        <ele>1631.691</ele>
        <time>2021-06-13T12:51:23Z</time>
      </trkpt>
      <trkpt lat="42.69153" lon="1.64355">
        <ele>1632.534</ele>
        <time>2021-06-13T12:51:25Z</time>
      </trkpt>
      <trkpt lat="42.69152" lon="1.64352">
        <ele>1634.282</ele>
        <time>2021-06-13T12:51:27Z</time>
      </trkpt>
      <trkpt lat="42.6915" lon="1.64349">
        <ele>1635.59</ele>
        <time>2021-06-13T12:51:29Z</time>
      </trkpt>
      <trkpt lat="42.69151" lon="1.64349">
        <ele>1633.059</ele>
        <time>2021-06-13T12:51:31Z</time>
      </trkpt>
      <trkpt lat="42.69151" lon="1.64347">
        <ele>1633.244</ele>
        <time>2021-06-13T12:51:33Z</time>
      </trkpt>
      <trkpt lat="42.6915" lon="1.64343">
        <ele>1633.953</ele>
        <time>2021-06-13T12:51:35Z</time>
      </trkpt>
      <trkpt lat="42.6915" lon="1.6434">
        <ele>1635.238</ele>
        <time>2021-06-13T12:51:37Z</time>
      </trkpt>
      <trkpt lat="42.69148" lon="1.64338">
        <ele>1636.593</ele>
        <time>2021-06-13T12:51:39Z</time>
      </trkpt>
      <trkpt lat="42.69147" lon="1.64338">
        <ele>1636.119</ele>
        <time>2021-06-13T12:51:41Z</time>
      </trkpt>
      <trkpt lat="42.69145" lon="1.64336">
        <ele>1638.19</ele>
        <time>2021-06-13T12:51:43Z</time>
      </trkpt>
      <trkpt lat="42.69144" lon="1.64334">
        <ele>1638.739</ele>
        <time>2021-06-13T12:51:45Z</time>
      </trkpt>
      <trkpt lat="42.69143" lon="1.64332">
        <ele>1639.192</ele>
        <time>2021-06-13T12:51:47Z</time>
      </trkpt>
      <trkpt lat="42.69144" lon="1.6433">
        <ele>1639.368</ele>
        <time>2021-06-13T12:51:49Z</time>
      </trkpt>
      <trkpt lat="42.69145" lon="1.64328">
        <ele>1639.089</ele>
        <time>2021-06-13T12:51:51Z</time>
      </trkpt>
      <trkpt lat="42.69145" lon="1.64326">
        <ele>1638.85</ele>
        <time>2021-06-13T12:51:53Z</time>
      </trkpt>
      <trkpt lat="42.69144" lon="1.64325">
        <ele>1637.47</ele>
        <time>2021-06-13T12:51:55Z</time>
      </trkpt>
      <trkpt lat="42.69146" lon="1.64321">
        <ele>1639.16</ele>
        <time>2021-06-13T12:51:57Z</time>
      </trkpt>
      <trkpt lat="42.69146" lon="1.64319">
        <ele>1639.013</ele>
        <time>2021-06-13T12:51:59Z</time>
      </trkpt>
      <trkpt lat="42.69147" lon="1.64318">
        <ele>1639.174</ele>
        <time>2021-06-13T12:52:01Z</time>
      </trkpt>
      <trkpt lat="42.69147" lon="1.64317">
        <ele>1640.347</ele>
        <time>2021-06-13T12:52:03Z</time>
      </trkpt>
      <trkpt lat="42.69146" lon="1.64316">
        <ele>1642.19</ele>
        <time>2021-06-13T12:52:05Z</time>
      </trkpt>
      <trkpt lat="42.69146" lon="1.64314">
        <ele>1643.314</ele>
        <time>2021-06-13T12:52:07Z</time>
      </trkpt>
      <trkpt lat="42.69146" lon="1.64313">
        <ele>1643.39</ele>
        <time>2021-06-13T12:52:09Z</time>
      </trkpt>
      <trkpt lat="42.69147" lon="1.64312">
        <ele>1643.816</ele>
        <time>2021-06-13T12:52:11Z</time>
      </trkpt>
      <trkpt lat="42.69147" lon="1.6431">
        <ele>1644.15</ele>
        <time>2021-06-13T12:52:13Z</time>
      </trkpt>
      <trkpt lat="42.69148" lon="1.64309">
        <ele>1643.141</ele>
        <time>2021-06-13T12:52:15Z</time>
      </trkpt>
      <trkpt lat="42.69148" lon="1.64308">
        <ele>1644.074</ele>
        <time>2021-06-13T12:52:17Z</time>
      </trkpt>
      <trkpt lat="42.69148" lon="1.64308">
        <ele>1644.134</ele>
        <time>2021-06-13T12:52:19Z</time>
      </trkpt>
      <trkpt lat="42.69148" lon="1.64307">
        <ele>1644.072</ele>
        <time>2021-06-13T12:52:21Z</time>
      </trkpt>
      <trkpt lat="42.69148" lon="1.64307">
        <ele>1643.818</ele>
        <time>2021-06-13T12:52:23Z</time>
      </trkpt>
      <trkpt lat="42.69148" lon="1.64306">
        <ele>1644.109</ele>
        <time>2021-06-13T12:52:25Z</time>
      </trkpt>
      <trkpt lat="42.69148" lon="1.64306">
        <ele>1643.991</ele>
        <time>2021-06-13T12:52:27Z</time>
      </trkpt>
      <trkpt lat="42.69148" lon="1.64306">
        <ele>1643.993</ele>
        <time>2021-06-13T12:52:29Z</time>
      </trkpt>
      <trkpt lat="42.69148" lon="1.64306">
        <ele>1643.993</ele>
        <time>2021-06-13T12:52:31Z</time>
      </trkpt>
      <trkpt lat="42.69148" lon="1.64306">
        <ele>1644.002</ele>
        <time>2021-06-13T12:52:33Z</time>
      </trkpt>
      <trkpt lat="42.69148" lon="1.64306">
        <ele>1643.988</ele>
        <time>2021-06-13T12:52:35Z</time>
      </trkpt>
      <trkpt lat="42.69148" lon="1.64306">
        <ele>1643.985</ele>
        <time>2021-06-13T12:52:37Z</time>
      </trkpt>
      <trkpt lat="42.69148" lon="1.64306">
        <ele>1643.978</ele>
        <time>2021-06-13T12:52:39Z</time>
      </trkpt>
      <trkpt lat="42.69148" lon="1.64306">
        <ele>1643.971</ele>
        <time>2021-06-13T12:52:41Z</time>
      </trkpt>
      <trkpt lat="42.69148" lon="1.64306">
        <ele>1643.984</ele>
        <time>2021-06-13T12:52:43Z</time>
      </trkpt>
      <trkpt lat="42.69149" lon="1.64306">
        <ele>1643.907</ele>
        <time>2021-06-13T12:52:45Z</time>
      </trkpt>
      <trkpt lat="42.69149" lon="1.64306">
        <ele>1643.889</ele>
        <time>2021-06-13T12:52:47Z</time>
      </trkpt>
      <trkpt lat="42.69149" lon="1.64306">
        <ele>1643.777</ele>
        <time>2021-06-13T12:52:49Z</time>
      </trkpt>
      <trkpt lat="42.69149" lon="1.64306">
        <ele>1643.77</ele>
        <time>2021-06-13T12:52:51Z</time>
      </trkpt>
      <trkpt lat="42.6915" lon="1.64306">
        <ele>1643.327</ele>
        <time>2021-06-13T12:52:53Z</time>
      </trkpt>
      <trkpt lat="42.69151" lon="1.64306">
        <ele>1643.243</ele>
        <time>2021-06-13T12:52:55Z</time>
      </trkpt>
      <trkpt lat="42.69153" lon="1.64305">
        <ele>1643.702</ele>
        <time>2021-06-13T12:52:57Z</time>
      </trkpt>
      <trkpt lat="42.69153" lon="1.64305">
        <ele>1643.254</ele>
        <time>2021-06-13T12:52:59Z</time>
      </trkpt>
      <trkpt lat="42.69154" lon="1.64305">
        <ele>1643.671</ele>
        <time>2021-06-13T12:53:01Z</time>
      </trkpt>
      <trkpt lat="42.69155" lon="1.64307">
        <ele>1643.096</ele>
        <time>2021-06-13T12:53:03Z</time>
      </trkpt>
      <trkpt lat="42.69157" lon="1.64308">
        <ele>1643.894</ele>
        <time>2021-06-13T12:53:05Z</time>
      </trkpt>
      <trkpt lat="42.69158" lon="1.64308">
        <ele>1644.384</ele>
        <time>2021-06-13T12:53:07Z</time>
      </trkpt>
      <trkpt lat="42.6916" lon="1.64308">
        <ele>1645.16</ele>
        <time>2021-06-13T12:53:09Z</time>
      </trkpt>
      <trkpt lat="42.69161" lon="1.64308">
        <ele>1646.542</ele>
        <time>2021-06-13T12:53:11Z</time>
      </trkpt>
      <trkpt lat="42.69162" lon="1.64307">
        <ele>1646.393</ele>
        <time>2021-06-13T12:53:13Z</time>
      </trkpt>
      <trkpt lat="42.69163" lon="1.64306">
        <ele>1646.318</ele>
        <time>2021-06-13T12:53:15Z</time>
      </trkpt>
      <trkpt lat="42.69164" lon="1.64306">
        <ele>1646.106</ele>
        <time>2021-06-13T12:53:17Z</time>
      </trkpt>
      <trkpt lat="42.69165" lon="1.64306">
        <ele>1646.522</ele>
        <time>2021-06-13T12:53:19Z</time>
      </trkpt>
      <trkpt lat="42.69166" lon="1.64307">
        <ele>1647.418</ele>
        <time>2021-06-13T12:53:21Z</time>
      </trkpt>
      <trkpt lat="42.69167" lon="1.64305">
        <ele>1647.631</ele>
        <time>2021-06-13T12:53:23Z</time>
      </trkpt>
      <trkpt lat="42.69167" lon="1.64304">
        <ele>1648.288</ele>
        <time>2021-06-13T12:53:25Z</time>
      </trkpt>
      <trkpt lat="42.69167" lon="1.64303">
        <ele>1648.098</ele>
        <time>2021-06-13T12:53:27Z</time>
      </trkpt>
      <trkpt lat="42.69167" lon="1.64301">
        <ele>1646.874</ele>
        <time>2021-06-13T12:53:29Z</time>
      </trkpt>
      <trkpt lat="42.69169" lon="1.643">
        <ele>1647.127</ele>
        <time>2021-06-13T12:53:31Z</time>
      </trkpt>
      <trkpt lat="42.69169" lon="1.64299">
        <ele>1647.437</ele>
        <time>2021-06-13T12:53:33Z</time>
      </trkpt>
      <trkpt lat="42.6917" lon="1.64297">
        <ele>1647.931</ele>
        <time>2021-06-13T12:53:35Z</time>
      </trkpt>
      <trkpt lat="42.69171" lon="1.64296">
        <ele>1648.486</ele>
        <time>2021-06-13T12:53:37Z</time>
      </trkpt>
      <trkpt lat="42.6917" lon="1.64294">
        <ele>1648.972</ele>
        <time>2021-06-13T12:53:39Z</time>
      </trkpt>
      <trkpt lat="42.69171" lon="1.64293">
        <ele>1650.13</ele>
        <time>2021-06-13T12:53:41Z</time>
      </trkpt>
      <trkpt lat="42.69171" lon="1.64291">
        <ele>1649.859</ele>
        <time>2021-06-13T12:53:43Z</time>
      </trkpt>
      <trkpt lat="42.69172" lon="1.6429">
        <ele>1649.753</ele>
        <time>2021-06-13T12:53:45Z</time>
      </trkpt>
      <trkpt lat="42.69173" lon="1.6429">
        <ele>1650.285</ele>
        <time>2021-06-13T12:53:47Z</time>
      </trkpt>
      <trkpt lat="42.69174" lon="1.6429">
        <ele>1650.891</ele>
        <time>2021-06-13T12:53:49Z</time>
      </trkpt>
      <trkpt lat="42.69175" lon="1.64289">
        <ele>1651.554</ele>
        <time>2021-06-13T12:53:51Z</time>
      </trkpt>
      <trkpt lat="42.69177" lon="1.64288">
        <ele>1651.674</ele>
        <time>2021-06-13T12:53:53Z</time>
      </trkpt>
      <trkpt lat="42.69177" lon="1.64286">
        <ele>1651.355</ele>
        <time>2021-06-13T12:53:55Z</time>
      </trkpt>
      <trkpt lat="42.69177" lon="1.64285">
        <ele>1653.322</ele>
        <time>2021-06-13T12:53:57Z</time>
      </trkpt>
      <trkpt lat="42.69177" lon="1.64285">
        <ele>1653.994</ele>
        <time>2021-06-13T12:53:59Z</time>
      </trkpt>
      <trkpt lat="42.6918" lon="1.64287">
        <ele>1655.466</ele>
        <time>2021-06-13T12:54:01Z</time>
      </trkpt>
      <trkpt lat="42.69182" lon="1.64287">
        <ele>1655.482</ele>
        <time>2021-06-13T12:54:03Z</time>
      </trkpt>
      <trkpt lat="42.69183" lon="1.64287">
        <ele>1654.603</ele>
        <time>2021-06-13T12:54:05Z</time>
      </trkpt>
      <trkpt lat="42.69184" lon="1.64285">
        <ele>1654.832</ele>
        <time>2021-06-13T12:54:07Z</time>
      </trkpt>
      <trkpt lat="42.69184" lon="1.64283">
        <ele>1655.791</ele>
        <time>2021-06-13T12:54:09Z</time>
      </trkpt>
      <trkpt lat="42.69183" lon="1.64282">
        <ele>1656.551</ele>
        <time>2021-06-13T12:54:11Z</time>
      </trkpt>
      <trkpt lat="42.69182" lon="1.6428">
        <ele>1657.803</ele>
        <time>2021-06-13T12:54:13Z</time>
      </trkpt>
      <trkpt lat="42.69182" lon="1.64279">
        <ele>1657.079</ele>
        <time>2021-06-13T12:54:15Z</time>
      </trkpt>
      <trkpt lat="42.69182" lon="1.64279">
        <ele>1657.001</ele>
        <time>2021-06-13T12:54:17Z</time>
      </trkpt>
      <trkpt lat="42.69183" lon="1.64279">
        <ele>1657.9</ele>
        <time>2021-06-13T12:54:19Z</time>
      </trkpt>
      <trkpt lat="42.69184" lon="1.64278">
        <ele>1657.706</ele>
        <time>2021-06-13T12:54:21Z</time>
      </trkpt>
      <trkpt lat="42.69185" lon="1.64278">
        <ele>1658.321</ele>
        <time>2021-06-13T12:54:23Z</time>
      </trkpt>
      <trkpt lat="42.69186" lon="1.64277">
        <ele>1658.989</ele>
        <time>2021-06-13T12:54:25Z</time>
      </trkpt>
      <trkpt lat="42.69187" lon="1.64276">
        <ele>1658.591</ele>
        <time>2021-06-13T12:54:27Z</time>
      </trkpt>
      <trkpt lat="42.69188" lon="1.64275">
        <ele>1658.503</ele>
        <time>2021-06-13T12:54:29Z</time>
      </trkpt>
      <trkpt lat="42.69189" lon="1.64275">
        <ele>1659.172</ele>
        <time>2021-06-13T12:54:31Z</time>
      </trkpt>
      <trkpt lat="42.69189" lon="1.64274">
        <ele>1658.824</ele>
        <time>2021-06-13T12:54:33Z</time>
      </trkpt>
      <trkpt lat="42.69189" lon="1.64273">
        <ele>1658.133</ele>
        <time>2021-06-13T12:54:35Z</time>
      </trkpt>
      <trkpt lat="42.6919" lon="1.64272">
        <ele>1658.698</ele>
        <time>2021-06-13T12:54:37Z</time>
      </trkpt>
      <trkpt lat="42.69191" lon="1.64271">
        <ele>1659.184</ele>
        <time>2021-06-13T12:54:39Z</time>
      </trkpt>
      <trkpt lat="42.69192" lon="1.6427">
        <ele>1659.512</ele>
        <time>2021-06-13T12:54:41Z</time>
      </trkpt>
      <trkpt lat="42.69192" lon="1.64269">
        <ele>1659.668</ele>
        <time>2021-06-13T12:54:43Z</time>
      </trkpt>
      <trkpt lat="42.69193" lon="1.64269">
        <ele>1659.631</ele>
        <time>2021-06-13T12:54:45Z</time>
      </trkpt>
      <trkpt lat="42.69193" lon="1.64269">
        <ele>1659.627</ele>
        <time>2021-06-13T12:54:47Z</time>
      </trkpt>
      <trkpt lat="42.69193" lon="1.64269">
        <ele>1659.621</ele>
        <time>2021-06-13T12:54:49Z</time>
      </trkpt>
      <trkpt lat="42.69193" lon="1.64268">
        <ele>1659.722</ele>
        <time>2021-06-13T12:54:51Z</time>
      </trkpt>
      <trkpt lat="42.69193" lon="1.64268">
        <ele>1659.712</ele>
        <time>2021-06-13T12:54:53Z</time>
      </trkpt>
      <trkpt lat="42.69193" lon="1.64268">
        <ele>1659.721</ele>
        <time>2021-06-13T12:54:55Z</time>
      </trkpt>
      <trkpt lat="42.69193" lon="1.64268">
        <ele>1659.717</ele>
        <time>2021-06-13T12:54:57Z</time>
      </trkpt>
      <trkpt lat="42.69192" lon="1.64268">
        <ele>1659.716</ele>
        <time>2021-06-13T12:54:59Z</time>
      </trkpt>
      <trkpt lat="42.69192" lon="1.64268">
        <ele>1660.319</ele>
        <time>2021-06-13T12:55:01Z</time>
      </trkpt>
      <trkpt lat="42.69192" lon="1.64268">
        <ele>1660.326</ele>
        <time>2021-06-13T12:55:03Z</time>
      </trkpt>
      <trkpt lat="42.69192" lon="1.64268">
        <ele>1660.332</ele>
        <time>2021-06-13T12:55:05Z</time>
      </trkpt>
      <trkpt lat="42.69192" lon="1.64268">
        <ele>1660.337</ele>
        <time>2021-06-13T12:55:07Z</time>
      </trkpt>
      <trkpt lat="42.69192" lon="1.64268">
        <ele>1660.344</ele>
        <time>2021-06-13T12:55:09Z</time>
      </trkpt>
      <trkpt lat="42.69192" lon="1.64268">
        <ele>1660.347</ele>
        <time>2021-06-13T12:55:11Z</time>
      </trkpt>
      <trkpt lat="42.69192" lon="1.64268">
        <ele>1660.346</ele>
        <time>2021-06-13T12:55:13Z</time>
      </trkpt>
      <trkpt lat="42.69192" lon="1.64268">
        <ele>1660.342</ele>
        <time>2021-06-13T12:55:15Z</time>
      </trkpt>
      <trkpt lat="42.69192" lon="1.64268">
        <ele>1660.341</ele>
        <time>2021-06-13T12:55:17Z</time>
      </trkpt>
      <trkpt lat="42.69192" lon="1.64268">
        <ele>1660.655</ele>
        <time>2021-06-13T12:55:19Z</time>
      </trkpt>
      <trkpt lat="42.69192" lon="1.64268">
        <ele>1660.664</ele>
        <time>2021-06-13T12:55:21Z</time>
      </trkpt>
      <trkpt lat="42.69192" lon="1.64268">
        <ele>1660.674</ele>
        <time>2021-06-13T12:55:23Z</time>
      </trkpt>
      <trkpt lat="42.69192" lon="1.64268">
        <ele>1660.68</ele>
        <time>2021-06-13T12:55:25Z</time>
      </trkpt>
      <trkpt lat="42.69192" lon="1.64268">
        <ele>1660.688</ele>
        <time>2021-06-13T12:55:27Z</time>
      </trkpt>
      <trkpt lat="42.69192" lon="1.64268">
        <ele>1660.692</ele>
        <time>2021-06-13T12:55:29Z</time>
      </trkpt>
      <trkpt lat="42.69192" lon="1.64268">
        <ele>1660.699</ele>
        <time>2021-06-13T12:55:31Z</time>
      </trkpt>
      <trkpt lat="42.69192" lon="1.64268">
        <ele>1660.71</ele>
        <time>2021-06-13T12:55:33Z</time>
      </trkpt>
      <trkpt lat="42.69192" lon="1.64268">
        <ele>1660.714</ele>
        <time>2021-06-13T12:55:35Z</time>
      </trkpt>
      <trkpt lat="42.69192" lon="1.64268">
        <ele>1660.713</ele>
        <time>2021-06-13T12:55:37Z</time>
      </trkpt>
      <trkpt lat="42.69192" lon="1.64268">
        <ele>1660.886</ele>
        <time>2021-06-13T12:55:39Z</time>
      </trkpt>
      <trkpt lat="42.69192" lon="1.64268">
        <ele>1660.881</ele>
        <time>2021-06-13T12:55:41Z</time>
      </trkpt>
      <trkpt lat="42.69192" lon="1.64268">
        <ele>1660.884</ele>
        <time>2021-06-13T12:55:43Z</time>
      </trkpt>
      <trkpt lat="42.69192" lon="1.64268">
        <ele>1660.883</ele>
        <time>2021-06-13T12:55:45Z</time>
      </trkpt>
      <trkpt lat="42.69192" lon="1.64268">
        <ele>1660.883</ele>
        <time>2021-06-13T12:55:47Z</time>
      </trkpt>
      <trkpt lat="42.69192" lon="1.64268">
        <ele>1660.881</ele>
        <time>2021-06-13T12:55:49Z</time>
      </trkpt>
      <trkpt lat="42.69192" lon="1.64268">
        <ele>1660.882</ele>
        <time>2021-06-13T12:55:51Z</time>
      </trkpt>
      <trkpt lat="42.69192" lon="1.64268">
        <ele>1660.879</ele>
        <time>2021-06-13T12:55:53Z</time>
      </trkpt>
      <trkpt lat="42.69192" lon="1.64268">
        <ele>1660.88</ele>
        <time>2021-06-13T12:55:55Z</time>
      </trkpt>
      <trkpt lat="42.69192" lon="1.64268">
        <ele>1660.878</ele>
        <time>2021-06-13T12:55:57Z</time>
      </trkpt>
      <trkpt lat="42.69192" lon="1.64268">
        <ele>1660.879</ele>
        <time>2021-06-13T12:55:59Z</time>
      </trkpt>
      <trkpt lat="42.69192" lon="1.64268">
        <ele>1660.878</ele>
        <time>2021-06-13T12:56:01Z</time>
      </trkpt>
      <trkpt lat="42.69192" lon="1.64268">
        <ele>1660.891</ele>
        <time>2021-06-13T12:56:03Z</time>
      </trkpt>
      <trkpt lat="42.69192" lon="1.64268">
        <ele>1660.889</ele>
        <time>2021-06-13T12:56:05Z</time>
      </trkpt>
      <trkpt lat="42.69192" lon="1.64268">
        <ele>1660.886</ele>
        <time>2021-06-13T12:56:07Z</time>
      </trkpt>
      <trkpt lat="42.69192" lon="1.64268">
        <ele>1660.882</ele>
        <time>2021-06-13T12:56:09Z</time>
      </trkpt>
      <trkpt lat="42.69192" lon="1.64268">
        <ele>1660.878</ele>
        <time>2021-06-13T12:56:11Z</time>
      </trkpt>
      <trkpt lat="42.69192" lon="1.64268">
        <ele>1660.883</ele>
        <time>2021-06-13T12:56:13Z</time>
      </trkpt>
      <trkpt lat="42.69192" lon="1.64268">
        <ele>1660.887</ele>
        <time>2021-06-13T12:56:15Z</time>
      </trkpt>
      <trkpt lat="42.69192" lon="1.64268">
        <ele>1660.889</ele>
        <time>2021-06-13T12:56:17Z</time>
      </trkpt>
      <trkpt lat="42.69192" lon="1.64268">
        <ele>1660.89</ele>
        <time>2021-06-13T12:56:19Z</time>
      </trkpt>
      <trkpt lat="42.69192" lon="1.64268">
        <ele>1660.888</ele>
        <time>2021-06-13T12:56:21Z</time>
      </trkpt>
      <trkpt lat="42.69192" lon="1.64268">
        <ele>1660.885</ele>
        <time>2021-06-13T12:56:23Z</time>
      </trkpt>
      <trkpt lat="42.69192" lon="1.64268">
        <ele>1660.886</ele>
        <time>2021-06-13T12:56:25Z</time>
      </trkpt>
      <trkpt lat="42.69192" lon="1.64268">
        <ele>1661.075</ele>
        <time>2021-06-13T12:56:27Z</time>
      </trkpt>
      <trkpt lat="42.69192" lon="1.64266">
        <ele>1660.928</ele>
        <time>2021-06-13T12:56:29Z</time>
      </trkpt>
      <trkpt lat="42.69192" lon="1.64265">
        <ele>1660.816</ele>
        <time>2021-06-13T12:56:31Z</time>
      </trkpt>
      <trkpt lat="42.69192" lon="1.64265">
        <ele>1660.801</ele>
        <time>2021-06-13T12:56:33Z</time>
      </trkpt>
      <trkpt lat="42.69192" lon="1.64265">
        <ele>1660.808</ele>
        <time>2021-06-13T12:56:35Z</time>
      </trkpt>
      <trkpt lat="42.69192" lon="1.64265">
        <ele>1660.803</ele>
        <time>2021-06-13T12:56:37Z</time>
      </trkpt>
      <trkpt lat="42.69192" lon="1.64265">
        <ele>1660.81</ele>
        <time>2021-06-13T12:56:39Z</time>
      </trkpt>
      <trkpt lat="42.69192" lon="1.64265">
        <ele>1660.809</ele>
        <time>2021-06-13T12:56:41Z</time>
      </trkpt>
      <trkpt lat="42.69191" lon="1.64265">
        <ele>1660.813</ele>
        <time>2021-06-13T12:56:43Z</time>
      </trkpt>
      <trkpt lat="42.69191" lon="1.64265">
        <ele>1660.809</ele>
        <time>2021-06-13T12:56:45Z</time>
      </trkpt>
      <trkpt lat="42.69191" lon="1.64265">
        <ele>1660.809</ele>
        <time>2021-06-13T12:56:47Z</time>
      </trkpt>
      <trkpt lat="42.69191" lon="1.64265">
        <ele>1660.81</ele>
        <time>2021-06-13T12:56:49Z</time>
      </trkpt>
      <trkpt lat="42.69191" lon="1.64265">
        <ele>1660.819</ele>
        <time>2021-06-13T12:56:51Z</time>
      </trkpt>
      <trkpt lat="42.69191" lon="1.64265">
        <ele>1660.813</ele>
        <time>2021-06-13T12:56:53Z</time>
      </trkpt>
      <trkpt lat="42.69191" lon="1.64265">
        <ele>1660.812</ele>
        <time>2021-06-13T12:56:55Z</time>
      </trkpt>
      <trkpt lat="42.69191" lon="1.64265">
        <ele>1660.81</ele>
        <time>2021-06-13T12:56:57Z</time>
      </trkpt>
      <trkpt lat="42.69191" lon="1.64265">
        <ele>1660.805</ele>
        <time>2021-06-13T12:56:59Z</time>
      </trkpt>
      <trkpt lat="42.69191" lon="1.64265">
        <ele>1660.807</ele>
        <time>2021-06-13T12:57:01Z</time>
      </trkpt>
      <trkpt lat="42.69191" lon="1.64265">
        <ele>1660.806</ele>
        <time>2021-06-13T12:57:03Z</time>
      </trkpt>
      <trkpt lat="42.69191" lon="1.64265">
        <ele>1660.806</ele>
        <time>2021-06-13T12:57:05Z</time>
      </trkpt>
      <trkpt lat="42.69191" lon="1.64265">
        <ele>1660.807</ele>
        <time>2021-06-13T12:57:07Z</time>
      </trkpt>
      <trkpt lat="42.69191" lon="1.64265">
        <ele>1660.808</ele>
        <time>2021-06-13T12:57:09Z</time>
      </trkpt>
      <trkpt lat="42.69191" lon="1.64265">
        <ele>1660.815</ele>
        <time>2021-06-13T12:57:11Z</time>
      </trkpt>
      <trkpt lat="42.69191" lon="1.64265">
        <ele>1660.82</ele>
        <time>2021-06-13T12:57:13Z</time>
      </trkpt>
      <trkpt lat="42.69191" lon="1.64265">
        <ele>1661.289</ele>
        <time>2021-06-13T12:57:15Z</time>
      </trkpt>
      <trkpt lat="42.69191" lon="1.64265">
        <ele>1661.285</ele>
        <time>2021-06-13T12:57:17Z</time>
      </trkpt>
      <trkpt lat="42.69191" lon="1.64265">
        <ele>1661.286</ele>
        <time>2021-06-13T12:57:19Z</time>
      </trkpt>
      <trkpt lat="42.69191" lon="1.64265">
        <ele>1661.292</ele>
        <time>2021-06-13T12:57:21Z</time>
      </trkpt>
      <trkpt lat="42.69191" lon="1.64265">
        <ele>1661.293</ele>
        <time>2021-06-13T12:57:23Z</time>
      </trkpt>
      <trkpt lat="42.69191" lon="1.64265">
        <ele>1661.293</ele>
        <time>2021-06-13T12:57:25Z</time>
      </trkpt>
      <trkpt lat="42.69191" lon="1.64265">
        <ele>1661.291</ele>
        <time>2021-06-13T12:57:27Z</time>
      </trkpt>
      <trkpt lat="42.69191" lon="1.64265">
        <ele>1661.288</ele>
        <time>2021-06-13T12:57:29Z</time>
      </trkpt>
      <trkpt lat="42.69191" lon="1.64265">
        <ele>1661.29</ele>
        <time>2021-06-13T12:57:31Z</time>
      </trkpt>
      <trkpt lat="42.69191" lon="1.64265">
        <ele>1661.294</ele>
        <time>2021-06-13T12:57:33Z</time>
      </trkpt>
      <trkpt lat="42.69191" lon="1.64265">
        <ele>1661.299</ele>
        <time>2021-06-13T12:57:35Z</time>
      </trkpt>
      <trkpt lat="42.69191" lon="1.64265">
        <ele>1661.3</ele>
        <time>2021-06-13T12:57:37Z</time>
      </trkpt>
      <trkpt lat="42.69191" lon="1.64265">
        <ele>1661.304</ele>
        <time>2021-06-13T12:57:39Z</time>
      </trkpt>
      <trkpt lat="42.69191" lon="1.64265">
        <ele>1661.304</ele>
        <time>2021-06-13T12:57:41Z</time>
      </trkpt>
      <trkpt lat="42.69191" lon="1.64265">
        <ele>1661.309</ele>
        <time>2021-06-13T12:57:43Z</time>
      </trkpt>
      <trkpt lat="42.69191" lon="1.64265">
        <ele>1661.317</ele>
        <time>2021-06-13T12:57:45Z</time>
      </trkpt>
      <trkpt lat="42.69191" lon="1.64265">
        <ele>1661.331</ele>
        <time>2021-06-13T12:57:47Z</time>
      </trkpt>
      <trkpt lat="42.69191" lon="1.64265">
        <ele>1661.355</ele>
        <time>2021-06-13T12:57:49Z</time>
      </trkpt>
      <trkpt lat="42.69191" lon="1.64265">
        <ele>1661.365</ele>
        <time>2021-06-13T12:57:51Z</time>
      </trkpt>
      <trkpt lat="42.69191" lon="1.64265">
        <ele>1661.369</ele>
        <time>2021-06-13T12:57:53Z</time>
      </trkpt>
      <trkpt lat="42.69191" lon="1.64265">
        <ele>1661.373</ele>
        <time>2021-06-13T12:57:55Z</time>
      </trkpt>
      <trkpt lat="42.69191" lon="1.64265">
        <ele>1661.376</ele>
        <time>2021-06-13T12:57:57Z</time>
      </trkpt>
      <trkpt lat="42.69191" lon="1.64265">
        <ele>1661.38</ele>
        <time>2021-06-13T12:57:59Z</time>
      </trkpt>
      <trkpt lat="42.69191" lon="1.64265">
        <ele>1661.383</ele>
        <time>2021-06-13T12:58:01Z</time>
      </trkpt>
      <trkpt lat="42.69191" lon="1.64265">
        <ele>1661.387</ele>
        <time>2021-06-13T12:58:03Z</time>
      </trkpt>
      <trkpt lat="42.69191" lon="1.64265">
        <ele>1661.386</ele>
        <time>2021-06-13T12:58:05Z</time>
      </trkpt>
      <trkpt lat="42.69191" lon="1.64265">
        <ele>1661.389</ele>
        <time>2021-06-13T12:58:07Z</time>
      </trkpt>
      <trkpt lat="42.69191" lon="1.64265">
        <ele>1661.393</ele>
        <time>2021-06-13T12:58:09Z</time>
      </trkpt>
      <trkpt lat="42.69191" lon="1.64265">
        <ele>1661.395</ele>
        <time>2021-06-13T12:58:11Z</time>
      </trkpt>
      <trkpt lat="42.69191" lon="1.64265">
        <ele>1661.387</ele>
        <time>2021-06-13T12:58:13Z</time>
      </trkpt>
      <trkpt lat="42.69191" lon="1.64265">
        <ele>1661.382</ele>
        <time>2021-06-13T12:58:15Z</time>
      </trkpt>
      <trkpt lat="42.69191" lon="1.64265">
        <ele>1661.464</ele>
        <time>2021-06-13T12:58:17Z</time>
      </trkpt>
      <trkpt lat="42.69191" lon="1.64266">
        <ele>1661.466</ele>
        <time>2021-06-13T12:58:19Z</time>
      </trkpt>
      <trkpt lat="42.69191" lon="1.64265">
        <ele>1661.469</ele>
        <time>2021-06-13T12:58:21Z</time>
      </trkpt>
      <trkpt lat="42.69191" lon="1.64265">
        <ele>1661.469</ele>
        <time>2021-06-13T12:58:23Z</time>
      </trkpt>
      <trkpt lat="42.69191" lon="1.64266">
        <ele>1661.471</ele>
        <time>2021-06-13T12:58:25Z</time>
      </trkpt>
      <trkpt lat="42.69191" lon="1.64265">
        <ele>1661.721</ele>
        <time>2021-06-13T12:58:27Z</time>
      </trkpt>
      <trkpt lat="42.69191" lon="1.64265">
        <ele>1661.722</ele>
        <time>2021-06-13T12:58:29Z</time>
      </trkpt>
      <trkpt lat="42.69191" lon="1.64265">
        <ele>1661.724</ele>
        <time>2021-06-13T12:58:31Z</time>
      </trkpt>
      <trkpt lat="42.69191" lon="1.64265">
        <ele>1661.732</ele>
        <time>2021-06-13T12:58:33Z</time>
      </trkpt>
      <trkpt lat="42.69191" lon="1.64265">
        <ele>1661.741</ele>
        <time>2021-06-13T12:58:35Z</time>
      </trkpt>
      <trkpt lat="42.69191" lon="1.64265">
        <ele>1661.776</ele>
        <time>2021-06-13T12:58:37Z</time>
      </trkpt>
      <trkpt lat="42.69191" lon="1.64265">
        <ele>1661.782</ele>
        <time>2021-06-13T12:58:39Z</time>
      </trkpt>
      <trkpt lat="42.69191" lon="1.64265">
        <ele>1661.638</ele>
        <time>2021-06-13T12:58:41Z</time>
      </trkpt>
      <trkpt lat="42.69191" lon="1.64265">
        <ele>1661.622</ele>
        <time>2021-06-13T12:58:43Z</time>
      </trkpt>
      <trkpt lat="42.69191" lon="1.64265">
        <ele>1661.63</ele>
        <time>2021-06-13T12:58:45Z</time>
      </trkpt>
      <trkpt lat="42.69191" lon="1.64265">
        <ele>1662.049</ele>
        <time>2021-06-13T12:58:47Z</time>
      </trkpt>
      <trkpt lat="42.69191" lon="1.64264">
        <ele>1662.496</ele>
        <time>2021-06-13T12:58:49Z</time>
      </trkpt>
      <trkpt lat="42.69191" lon="1.64262">
        <ele>1662.166</ele>
        <time>2021-06-13T12:58:51Z</time>
      </trkpt>
      <trkpt lat="42.6919" lon="1.64262">
        <ele>1662.12</ele>
        <time>2021-06-13T12:58:53Z</time>
      </trkpt>
      <trkpt lat="42.6919" lon="1.64261">
        <ele>1662.377</ele>
        <time>2021-06-13T12:58:55Z</time>
      </trkpt>
      <trkpt lat="42.6919" lon="1.64259">
        <ele>1662.772</ele>
        <time>2021-06-13T12:58:57Z</time>
      </trkpt>
      <trkpt lat="42.6919" lon="1.64257">
        <ele>1663.21</ele>
        <time>2021-06-13T12:58:59Z</time>
      </trkpt>
      <trkpt lat="42.69192" lon="1.64253">
        <ele>1663.242</ele>
        <time>2021-06-13T12:59:01Z</time>
      </trkpt>
      <trkpt lat="42.69187" lon="1.64255">
        <ele>1663.449</ele>
        <time>2021-06-13T12:59:03Z</time>
      </trkpt>
      <trkpt lat="42.69185" lon="1.64254">
        <ele>1663.889</ele>
        <time>2021-06-13T12:59:05Z</time>
      </trkpt>
      <trkpt lat="42.69184" lon="1.64253">
        <ele>1663.653</ele>
        <time>2021-06-13T12:59:07Z</time>
      </trkpt>
      <trkpt lat="42.69183" lon="1.64252">
        <ele>1662.904</ele>
        <time>2021-06-13T12:59:09Z</time>
      </trkpt>
      <trkpt lat="42.69181" lon="1.64251">
        <ele>1662.439</ele>
        <time>2021-06-13T12:59:11Z</time>
      </trkpt>
      <trkpt lat="42.6918" lon="1.6425">
        <ele>1663.512</ele>
        <time>2021-06-13T12:59:13Z</time>
      </trkpt>
      <trkpt lat="42.69178" lon="1.64249">
        <ele>1663.55</ele>
        <time>2021-06-13T12:59:15Z</time>
      </trkpt>
      <trkpt lat="42.69177" lon="1.64247">
        <ele>1662.858</ele>
        <time>2021-06-13T12:59:17Z</time>
      </trkpt>
      <trkpt lat="42.69176" lon="1.64246">
        <ele>1662.401</ele>
        <time>2021-06-13T12:59:19Z</time>
      </trkpt>
      <trkpt lat="42.69175" lon="1.64245">
        <ele>1662.289</ele>
        <time>2021-06-13T12:59:21Z</time>
      </trkpt>
      <trkpt lat="42.69173" lon="1.64244">
        <ele>1661.985</ele>
        <time>2021-06-13T12:59:23Z</time>
      </trkpt>
      <trkpt lat="42.69172" lon="1.64243">
        <ele>1661.807</ele>
        <time>2021-06-13T12:59:25Z</time>
      </trkpt>
      <trkpt lat="42.6917" lon="1.64242">
        <ele>1662.094</ele>
        <time>2021-06-13T12:59:27Z</time>
      </trkpt>
      <trkpt lat="42.69169" lon="1.6424">
        <ele>1662.747</ele>
        <time>2021-06-13T12:59:29Z</time>
      </trkpt>
      <trkpt lat="42.69167" lon="1.64238">
        <ele>1664.619</ele>
        <time>2021-06-13T12:59:31Z</time>
      </trkpt>
      <trkpt lat="42.69166" lon="1.64236">
        <ele>1664.002</ele>
        <time>2021-06-13T12:59:33Z</time>
      </trkpt>
      <trkpt lat="42.69165" lon="1.64234">
        <ele>1664.072</ele>
        <time>2021-06-13T12:59:35Z</time>
      </trkpt>
      <trkpt lat="42.69164" lon="1.64232">
        <ele>1663.205</ele>
        <time>2021-06-13T12:59:37Z</time>
      </trkpt>
      <trkpt lat="42.69164" lon="1.6423">
        <ele>1663.302</ele>
        <time>2021-06-13T12:59:39Z</time>
      </trkpt>
      <trkpt lat="42.69163" lon="1.64229">
        <ele>1662.547</ele>
        <time>2021-06-13T12:59:41Z</time>
      </trkpt>
      <trkpt lat="42.69163" lon="1.64228">
        <ele>1661.493</ele>
        <time>2021-06-13T12:59:43Z</time>
      </trkpt>
      <trkpt lat="42.69162" lon="1.64226">
        <ele>1658.766</ele>
        <time>2021-06-13T12:59:45Z</time>
      </trkpt>
      <trkpt lat="42.69162" lon="1.64225">
        <ele>1658.748</ele>
        <time>2021-06-13T12:59:47Z</time>
      </trkpt>
      <trkpt lat="42.69163" lon="1.64225">
        <ele>1658.748</ele>
        <time>2021-06-13T12:59:49Z</time>
      </trkpt>
      <trkpt lat="42.69163" lon="1.64224">
        <ele>1658.657</ele>
        <time>2021-06-13T12:59:51Z</time>
      </trkpt>
      <trkpt lat="42.69163" lon="1.64222">
        <ele>1657.496</ele>
        <time>2021-06-13T12:59:53Z</time>
      </trkpt>
      <trkpt lat="42.69163" lon="1.6422">
        <ele>1658.363</ele>
        <time>2021-06-13T12:59:55Z</time>
      </trkpt>
      <trkpt lat="42.69162" lon="1.64219">
        <ele>1659.195</ele>
        <time>2021-06-13T12:59:57Z</time>
      </trkpt>
      <trkpt lat="42.69162" lon="1.64217">
        <ele>1659.06</ele>
        <time>2021-06-13T12:59:59Z</time>
      </trkpt>
      <trkpt lat="42.69161" lon="1.64215">
        <ele>1659.78</ele>
        <time>2021-06-13T13:00:01Z</time>
      </trkpt>
      <trkpt lat="42.69161" lon="1.64215">
        <ele>1659.7</ele>
        <time>2021-06-13T13:00:03Z</time>
      </trkpt>
      <trkpt lat="42.69161" lon="1.64214">
        <ele>1659.905</ele>
        <time>2021-06-13T13:00:05Z</time>
      </trkpt>
      <trkpt lat="42.6916" lon="1.64213">
        <ele>1660.486</ele>
        <time>2021-06-13T13:00:07Z</time>
      </trkpt>
      <trkpt lat="42.69159" lon="1.64212">
        <ele>1661.283</ele>
        <time>2021-06-13T13:00:09Z</time>
      </trkpt>
      <trkpt lat="42.69158" lon="1.6421">
        <ele>1661.608</ele>
        <time>2021-06-13T13:00:11Z</time>
      </trkpt>
      <trkpt lat="42.69157" lon="1.64209">
        <ele>1662.254</ele>
        <time>2021-06-13T13:00:13Z</time>
      </trkpt>
      <trkpt lat="42.69156" lon="1.6421">
        <ele>1661.949</ele>
        <time>2021-06-13T13:00:15Z</time>
      </trkpt>
      <trkpt lat="42.69155" lon="1.64211">
        <ele>1661.297</ele>
        <time>2021-06-13T13:00:17Z</time>
      </trkpt>
      <trkpt lat="42.69153" lon="1.6421">
        <ele>1660.766</ele>
        <time>2021-06-13T13:00:19Z</time>
      </trkpt>
      <trkpt lat="42.69152" lon="1.6421">
        <ele>1661.084</ele>
        <time>2021-06-13T13:00:21Z</time>
      </trkpt>
      <trkpt lat="42.69151" lon="1.6421">
        <ele>1659.553</ele>
        <time>2021-06-13T13:00:23Z</time>
      </trkpt>
      <trkpt lat="42.69149" lon="1.64211">
        <ele>1659.022</ele>
        <time>2021-06-13T13:00:25Z</time>
      </trkpt>
      <trkpt lat="42.69148" lon="1.64212">
        <ele>1659.227</ele>
        <time>2021-06-13T13:00:27Z</time>
      </trkpt>
      <trkpt lat="42.69147" lon="1.64212">
        <ele>1659.511</ele>
        <time>2021-06-13T13:00:29Z</time>
      </trkpt>
      <trkpt lat="42.69146" lon="1.64213">
        <ele>1660.256</ele>
        <time>2021-06-13T13:00:31Z</time>
      </trkpt>
      <trkpt lat="42.69144" lon="1.64213">
        <ele>1658.598</ele>
        <time>2021-06-13T13:00:33Z</time>
      </trkpt>
      <trkpt lat="42.69143" lon="1.64214">
        <ele>1656.448</ele>
        <time>2021-06-13T13:00:35Z</time>
      </trkpt>
      <trkpt lat="42.69141" lon="1.64215">
        <ele>1655.301</ele>
        <time>2021-06-13T13:00:37Z</time>
      </trkpt>
      <trkpt lat="42.6914" lon="1.64216">
        <ele>1655.291</ele>
        <time>2021-06-13T13:00:39Z</time>
      </trkpt>
      <trkpt lat="42.69138" lon="1.64216">
        <ele>1654.867</ele>
        <time>2021-06-13T13:00:41Z</time>
      </trkpt>
      <trkpt lat="42.69137" lon="1.64217">
        <ele>1653.503</ele>
        <time>2021-06-13T13:00:43Z</time>
      </trkpt>
      <trkpt lat="42.69135" lon="1.64218">
        <ele>1653.149</ele>
        <time>2021-06-13T13:00:45Z</time>
      </trkpt>
      <trkpt lat="42.69133" lon="1.64218">
        <ele>1652.865</ele>
        <time>2021-06-13T13:00:47Z</time>
      </trkpt>
      <trkpt lat="42.69131" lon="1.64218">
        <ele>1654.207</ele>
        <time>2021-06-13T13:00:49Z</time>
      </trkpt>
      <trkpt lat="42.69128" lon="1.64217">
        <ele>1654.078</ele>
        <time>2021-06-13T13:00:51Z</time>
      </trkpt>
      <trkpt lat="42.69126" lon="1.64217">
        <ele>1655.456</ele>
        <time>2021-06-13T13:00:53Z</time>
      </trkpt>
      <trkpt lat="42.69125" lon="1.64216">
        <ele>1655.643</ele>
        <time>2021-06-13T13:00:55Z</time>
      </trkpt>
      <trkpt lat="42.69123" lon="1.64215">
        <ele>1655.482</ele>
        <time>2021-06-13T13:00:57Z</time>
      </trkpt>
      <trkpt lat="42.69121" lon="1.64215">
        <ele>1654.907</ele>
        <time>2021-06-13T13:00:59Z</time>
      </trkpt>
      <trkpt lat="42.69119" lon="1.64215">
        <ele>1655.04</ele>
        <time>2021-06-13T13:01:01Z</time>
      </trkpt>
      <trkpt lat="42.69117" lon="1.64213">
        <ele>1655.652</ele>
        <time>2021-06-13T13:01:03Z</time>
      </trkpt>
      <trkpt lat="42.69115" lon="1.64213">
        <ele>1655.061</ele>
        <time>2021-06-13T13:01:05Z</time>
      </trkpt>
      <trkpt lat="42.69113" lon="1.64212">
        <ele>1654.229</ele>
        <time>2021-06-13T13:01:07Z</time>
      </trkpt>
      <trkpt lat="42.69111" lon="1.64212">
        <ele>1654.136</ele>
        <time>2021-06-13T13:01:09Z</time>
      </trkpt>
      <trkpt lat="42.69109" lon="1.64212">
        <ele>1653.562</ele>
        <time>2021-06-13T13:01:11Z</time>
      </trkpt>
      <trkpt lat="42.69107" lon="1.64212">
        <ele>1653.146</ele>
        <time>2021-06-13T13:01:13Z</time>
      </trkpt>
      <trkpt lat="42.69105" lon="1.64213">
        <ele>1653.416</ele>
        <time>2021-06-13T13:01:15Z</time>
      </trkpt>
      <trkpt lat="42.69103" lon="1.64213">
        <ele>1653.635</ele>
        <time>2021-06-13T13:01:17Z</time>
      </trkpt>
      <trkpt lat="42.69101" lon="1.64214">
        <ele>1653.6</ele>
        <time>2021-06-13T13:01:19Z</time>
      </trkpt>
      <trkpt lat="42.691" lon="1.64213">
        <ele>1653.418</ele>
        <time>2021-06-13T13:01:21Z</time>
      </trkpt>
      <trkpt lat="42.69098" lon="1.64212">
        <ele>1653.406</ele>
        <time>2021-06-13T13:01:23Z</time>
      </trkpt>
      <trkpt lat="42.69095" lon="1.64212">
        <ele>1653.698</ele>
        <time>2021-06-13T13:01:25Z</time>
      </trkpt>
      <trkpt lat="42.69093" lon="1.64211">
        <ele>1653.677</ele>
        <time>2021-06-13T13:01:27Z</time>
      </trkpt>
      <trkpt lat="42.69091" lon="1.6421">
        <ele>1653.494</ele>
        <time>2021-06-13T13:01:29Z</time>
      </trkpt>
      <trkpt lat="42.69089" lon="1.6421">
        <ele>1653.104</ele>
        <time>2021-06-13T13:01:31Z</time>
      </trkpt>
      <trkpt lat="42.69087" lon="1.64209">
        <ele>1653.433</ele>
        <time>2021-06-13T13:01:33Z</time>
      </trkpt>
      <trkpt lat="42.69085" lon="1.64208">
        <ele>1654.222</ele>
        <time>2021-06-13T13:01:35Z</time>
      </trkpt>
      <trkpt lat="42.69083" lon="1.64207">
        <ele>1654.352</ele>
        <time>2021-06-13T13:01:37Z</time>
      </trkpt>
      <trkpt lat="42.69081" lon="1.64206">
        <ele>1654.562</ele>
        <time>2021-06-13T13:01:39Z</time>
      </trkpt>
      <trkpt lat="42.69079" lon="1.64205">
        <ele>1655.155</ele>
        <time>2021-06-13T13:01:41Z</time>
      </trkpt>
      <trkpt lat="42.69077" lon="1.64205">
        <ele>1655.542</ele>
        <time>2021-06-13T13:01:43Z</time>
      </trkpt>
      <trkpt lat="42.69074" lon="1.64206">
        <ele>1656.357</ele>
        <time>2021-06-13T13:01:45Z</time>
      </trkpt>
      <trkpt lat="42.69073" lon="1.64208">
        <ele>1657.313</ele>
        <time>2021-06-13T13:01:47Z</time>
      </trkpt>
      <trkpt lat="42.69071" lon="1.6421">
        <ele>1657.205</ele>
        <time>2021-06-13T13:01:49Z</time>
      </trkpt>
      <trkpt lat="42.69069" lon="1.6421">
        <ele>1657.245</ele>
        <time>2021-06-13T13:01:51Z</time>
      </trkpt>
      <trkpt lat="42.69067" lon="1.64211">
        <ele>1657.215</ele>
        <time>2021-06-13T13:01:53Z</time>
      </trkpt>
      <trkpt lat="42.69066" lon="1.64211">
        <ele>1657.565</ele>
        <time>2021-06-13T13:01:55Z</time>
      </trkpt>
      <trkpt lat="42.69064" lon="1.64212">
        <ele>1658.217</ele>
        <time>2021-06-13T13:01:57Z</time>
      </trkpt>
      <trkpt lat="42.69064" lon="1.64212">
        <ele>1657.712</ele>
        <time>2021-06-13T13:01:59Z</time>
      </trkpt>
      <trkpt lat="42.69062" lon="1.64214">
        <ele>1659.402</ele>
        <time>2021-06-13T13:02:01Z</time>
      </trkpt>
      <trkpt lat="42.69061" lon="1.64215">
        <ele>1660.018</ele>
        <time>2021-06-13T13:02:03Z</time>
      </trkpt>
      <trkpt lat="42.6906" lon="1.64216">
        <ele>1660.235</ele>
        <time>2021-06-13T13:02:05Z</time>
      </trkpt>
      <trkpt lat="42.6906" lon="1.64216">
        <ele>1660.223</ele>
        <time>2021-06-13T13:02:07Z</time>
      </trkpt>
      <trkpt lat="42.6906" lon="1.64216">
        <ele>1660.228</ele>
        <time>2021-06-13T13:02:09Z</time>
      </trkpt>
      <trkpt lat="42.6906" lon="1.64216">
        <ele>1661.172</ele>
        <time>2021-06-13T13:02:11Z</time>
      </trkpt>
      <trkpt lat="42.6906" lon="1.64216">
        <ele>1661.178</ele>
        <time>2021-06-13T13:02:13Z</time>
      </trkpt>
      <trkpt lat="42.6906" lon="1.64216">
        <ele>1661.178</ele>
        <time>2021-06-13T13:02:15Z</time>
      </trkpt>
      <trkpt lat="42.6906" lon="1.64216">
        <ele>1661.179</ele>
        <time>2021-06-13T13:02:17Z</time>
      </trkpt>
      <trkpt lat="42.6906" lon="1.64216">
        <ele>1661.171</ele>
        <time>2021-06-13T13:02:19Z</time>
      </trkpt>
      <trkpt lat="42.6906" lon="1.64216">
        <ele>1661.161</ele>
        <time>2021-06-13T13:02:21Z</time>
      </trkpt>
      <trkpt lat="42.6906" lon="1.64216">
        <ele>1661.159</ele>
        <time>2021-06-13T13:02:23Z</time>
      </trkpt>
      <trkpt lat="42.6906" lon="1.64216">
        <ele>1661.165</ele>
        <time>2021-06-13T13:02:25Z</time>
      </trkpt>
      <trkpt lat="42.6906" lon="1.64216">
        <ele>1661.168</ele>
        <time>2021-06-13T13:02:27Z</time>
      </trkpt>
      <trkpt lat="42.6906" lon="1.64216">
        <ele>1661.199</ele>
        <time>2021-06-13T13:02:29Z</time>
      </trkpt>
      <trkpt lat="42.6906" lon="1.64216">
        <ele>1661.188</ele>
        <time>2021-06-13T13:02:31Z</time>
      </trkpt>
      <trkpt lat="42.69059" lon="1.64216">
        <ele>1661.094</ele>
        <time>2021-06-13T13:02:33Z</time>
      </trkpt>
      <trkpt lat="42.69058" lon="1.64217">
        <ele>1660.874</ele>
        <time>2021-06-13T13:02:35Z</time>
      </trkpt>
      <trkpt lat="42.69056" lon="1.64217">
        <ele>1659.665</ele>
        <time>2021-06-13T13:02:37Z</time>
      </trkpt>
      <trkpt lat="42.69054" lon="1.64218">
        <ele>1659.5</ele>
        <time>2021-06-13T13:02:39Z</time>
      </trkpt>
      <trkpt lat="42.69052" lon="1.64218">
        <ele>1659.791</ele>
        <time>2021-06-13T13:02:41Z</time>
      </trkpt>
      <trkpt lat="42.69051" lon="1.64219">
        <ele>1659.9</ele>
        <time>2021-06-13T13:02:43Z</time>
      </trkpt>
      <trkpt lat="42.6905" lon="1.6422">
        <ele>1659.667</ele>
        <time>2021-06-13T13:02:45Z</time>
      </trkpt>
      <trkpt lat="42.69048" lon="1.6422">
        <ele>1659.718</ele>
        <time>2021-06-13T13:02:47Z</time>
      </trkpt>
      <trkpt lat="42.69046" lon="1.64221">
        <ele>1659.524</ele>
        <time>2021-06-13T13:02:49Z</time>
      </trkpt>
      <trkpt lat="42.69045" lon="1.64221">
        <ele>1658.859</ele>
        <time>2021-06-13T13:02:51Z</time>
      </trkpt>
      <trkpt lat="42.69043" lon="1.64221">
        <ele>1658.307</ele>
        <time>2021-06-13T13:02:53Z</time>
      </trkpt>
      <trkpt lat="42.69041" lon="1.64222">
        <ele>1658.165</ele>
        <time>2021-06-13T13:02:55Z</time>
      </trkpt>
      <trkpt lat="42.69039" lon="1.64223">
        <ele>1658.253</ele>
        <time>2021-06-13T13:02:57Z</time>
      </trkpt>
      <trkpt lat="42.69038" lon="1.64224">
        <ele>1659.031</ele>
        <time>2021-06-13T13:02:59Z</time>
      </trkpt>
      <trkpt lat="42.69036" lon="1.64224">
        <ele>1658.756</ele>
        <time>2021-06-13T13:03:01Z</time>
      </trkpt>
      <trkpt lat="42.69035" lon="1.64225">
        <ele>1659.234</ele>
        <time>2021-06-13T13:03:03Z</time>
      </trkpt>
      <trkpt lat="42.69034" lon="1.64226">
        <ele>1660.6</ele>
        <time>2021-06-13T13:03:05Z</time>
      </trkpt>
      <trkpt lat="42.69033" lon="1.64227">
        <ele>1659.875</ele>
        <time>2021-06-13T13:03:07Z</time>
      </trkpt>
      <trkpt lat="42.69031" lon="1.64228">
        <ele>1659.949</ele>
        <time>2021-06-13T13:03:09Z</time>
      </trkpt>
      <trkpt lat="42.6903" lon="1.6423">
        <ele>1659.261</ele>
        <time>2021-06-13T13:03:11Z</time>
      </trkpt>
      <trkpt lat="42.69029" lon="1.64231">
        <ele>1659.444</ele>
        <time>2021-06-13T13:03:13Z</time>
      </trkpt>
      <trkpt lat="42.69027" lon="1.64235">
        <ele>1659.744</ele>
        <time>2021-06-13T13:03:16Z</time>
      </trkpt>
      <trkpt lat="42.69026" lon="1.64237">
        <ele>1660.392</ele>
        <time>2021-06-13T13:03:18Z</time>
      </trkpt>
      <trkpt lat="42.69025" lon="1.64238">
        <ele>1661.096</ele>
        <time>2021-06-13T13:03:20Z</time>
      </trkpt>
      <trkpt lat="42.69024" lon="1.6424">
        <ele>1661.501</ele>
        <time>2021-06-13T13:03:22Z</time>
      </trkpt>
      <trkpt lat="42.69023" lon="1.64242">
        <ele>1661.87</ele>
        <time>2021-06-13T13:03:24Z</time>
      </trkpt>
      <trkpt lat="42.69021" lon="1.64243">
        <ele>1662.131</ele>
        <time>2021-06-13T13:03:26Z</time>
      </trkpt>
      <trkpt lat="42.6902" lon="1.64244">
        <ele>1661.972</ele>
        <time>2021-06-13T13:03:28Z</time>
      </trkpt>
      <trkpt lat="42.69019" lon="1.64245">
        <ele>1661.739</ele>
        <time>2021-06-13T13:03:30Z</time>
      </trkpt>
      <trkpt lat="42.69018" lon="1.64246">
        <ele>1661.943</ele>
        <time>2021-06-13T13:03:32Z</time>
      </trkpt>
      <trkpt lat="42.69017" lon="1.64248">
        <ele>1662.391</ele>
        <time>2021-06-13T13:03:34Z</time>
      </trkpt>
      <trkpt lat="42.69016" lon="1.64249">
        <ele>1662.879</ele>
        <time>2021-06-13T13:03:36Z</time>
      </trkpt>
      <trkpt lat="42.69014" lon="1.64251">
        <ele>1662.889</ele>
        <time>2021-06-13T13:03:38Z</time>
      </trkpt>
      <trkpt lat="42.69012" lon="1.64252">
        <ele>1662.513</ele>
        <time>2021-06-13T13:03:40Z</time>
      </trkpt>
      <trkpt lat="42.6901" lon="1.64252">
        <ele>1662.524</ele>
        <time>2021-06-13T13:03:42Z</time>
      </trkpt>
      <trkpt lat="42.69008" lon="1.64254">
        <ele>1663.641</ele>
        <time>2021-06-13T13:03:44Z</time>
      </trkpt>
      <trkpt lat="42.69007" lon="1.64255">
        <ele>1664.092</ele>
        <time>2021-06-13T13:03:46Z</time>
      </trkpt>
      <trkpt lat="42.69006" lon="1.64256">
        <ele>1664.081</ele>
        <time>2021-06-13T13:03:48Z</time>
      </trkpt>
      <trkpt lat="42.69005" lon="1.64258">
        <ele>1664.774</ele>
        <time>2021-06-13T13:03:50Z</time>
      </trkpt>
      <trkpt lat="42.69003" lon="1.6426">
        <ele>1665.076</ele>
        <time>2021-06-13T13:03:52Z</time>
      </trkpt>
      <trkpt lat="42.69002" lon="1.6426">
        <ele>1666.428</ele>
        <time>2021-06-13T13:03:54Z</time>
      </trkpt>
      <trkpt lat="42.69" lon="1.6426">
        <ele>1666.125</ele>
        <time>2021-06-13T13:03:56Z</time>
      </trkpt>
      <trkpt lat="42.68999" lon="1.64261">
        <ele>1666.87</ele>
        <time>2021-06-13T13:03:58Z</time>
      </trkpt>
      <trkpt lat="42.68998" lon="1.64262">
        <ele>1667.392</ele>
        <time>2021-06-13T13:04:00Z</time>
      </trkpt>
      <trkpt lat="42.68996" lon="1.64263">
        <ele>1667.597</ele>
        <time>2021-06-13T13:04:02Z</time>
      </trkpt>
      <trkpt lat="42.68995" lon="1.64264">
        <ele>1668.05</ele>
        <time>2021-06-13T13:04:04Z</time>
      </trkpt>
      <trkpt lat="42.68994" lon="1.64265">
        <ele>1668.528</ele>
        <time>2021-06-13T13:04:06Z</time>
      </trkpt>
      <trkpt lat="42.68992" lon="1.64265">
        <ele>1669.16</ele>
        <time>2021-06-13T13:04:08Z</time>
      </trkpt>
      <trkpt lat="42.6899" lon="1.64266">
        <ele>1668.943</ele>
        <time>2021-06-13T13:04:10Z</time>
      </trkpt>
      <trkpt lat="42.68989" lon="1.64267">
        <ele>1670.039</ele>
        <time>2021-06-13T13:04:12Z</time>
      </trkpt>
      <trkpt lat="42.68988" lon="1.64268">
        <ele>1670.152</ele>
        <time>2021-06-13T13:04:14Z</time>
      </trkpt>
      <trkpt lat="42.68987" lon="1.64268">
        <ele>1669.781</ele>
        <time>2021-06-13T13:04:16Z</time>
      </trkpt>
      <trkpt lat="42.68986" lon="1.64268">
        <ele>1669.874</ele>
        <time>2021-06-13T13:04:18Z</time>
      </trkpt>
      <trkpt lat="42.68984" lon="1.64269">
        <ele>1669.915</ele>
        <time>2021-06-13T13:04:20Z</time>
      </trkpt>
      <trkpt lat="42.68982" lon="1.64268">
        <ele>1669.869</ele>
        <time>2021-06-13T13:04:22Z</time>
      </trkpt>
      <trkpt lat="42.68981" lon="1.64268">
        <ele>1670.083</ele>
        <time>2021-06-13T13:04:24Z</time>
      </trkpt>
      <trkpt lat="42.6898" lon="1.64268">
        <ele>1670.254</ele>
        <time>2021-06-13T13:04:26Z</time>
      </trkpt>
      <trkpt lat="42.68978" lon="1.64267">
        <ele>1669.646</ele>
        <time>2021-06-13T13:04:28Z</time>
      </trkpt>
      <trkpt lat="42.68977" lon="1.64269">
        <ele>1669.27</ele>
        <time>2021-06-13T13:04:30Z</time>
      </trkpt>
      <trkpt lat="42.68976" lon="1.6427">
        <ele>1669.69</ele>
        <time>2021-06-13T13:04:32Z</time>
      </trkpt>
      <trkpt lat="42.68975" lon="1.64271">
        <ele>1670.683</ele>
        <time>2021-06-13T13:04:34Z</time>
      </trkpt>
      <trkpt lat="42.68974" lon="1.64271">
        <ele>1670.863</ele>
        <time>2021-06-13T13:04:36Z</time>
      </trkpt>
      <trkpt lat="42.68973" lon="1.6427">
        <ele>1670.526</ele>
        <time>2021-06-13T13:04:38Z</time>
      </trkpt>
      <trkpt lat="42.68971" lon="1.6427">
        <ele>1670.039</ele>
        <time>2021-06-13T13:04:40Z</time>
      </trkpt>
      <trkpt lat="42.6897" lon="1.64271">
        <ele>1669.353</ele>
        <time>2021-06-13T13:04:42Z</time>
      </trkpt>
      <trkpt lat="42.68969" lon="1.64272">
        <ele>1668.616</ele>
        <time>2021-06-13T13:04:44Z</time>
      </trkpt>
      <trkpt lat="42.68968" lon="1.64272">
        <ele>1667.978</ele>
        <time>2021-06-13T13:04:46Z</time>
      </trkpt>
      <trkpt lat="42.68966" lon="1.64273">
        <ele>1667.707</ele>
        <time>2021-06-13T13:04:48Z</time>
      </trkpt>
      <trkpt lat="42.68965" lon="1.64273">
        <ele>1667.422</ele>
        <time>2021-06-13T13:04:50Z</time>
      </trkpt>
      <trkpt lat="42.68963" lon="1.64274">
        <ele>1667.227</ele>
        <time>2021-06-13T13:04:52Z</time>
      </trkpt>
      <trkpt lat="42.68962" lon="1.64274">
        <ele>1667.017</ele>
        <time>2021-06-13T13:04:54Z</time>
      </trkpt>
      <trkpt lat="42.68961" lon="1.64275">
        <ele>1667.709</ele>
        <time>2021-06-13T13:04:56Z</time>
      </trkpt>
      <trkpt lat="42.6896" lon="1.64276">
        <ele>1667.843</ele>
        <time>2021-06-13T13:04:58Z</time>
      </trkpt>
      <trkpt lat="42.68959" lon="1.64276">
        <ele>1667.763</ele>
        <time>2021-06-13T13:05:00Z</time>
      </trkpt>
      <trkpt lat="42.68957" lon="1.64274">
        <ele>1669.133</ele>
        <time>2021-06-13T13:05:02Z</time>
      </trkpt>
      <trkpt lat="42.68955" lon="1.64273">
        <ele>1671.045</ele>
        <time>2021-06-13T13:05:04Z</time>
      </trkpt>
      <trkpt lat="42.68952" lon="1.64274">
        <ele>1671.33</ele>
        <time>2021-06-13T13:05:06Z</time>
      </trkpt>
      <trkpt lat="42.68951" lon="1.64275">
        <ele>1672.326</ele>
        <time>2021-06-13T13:05:08Z</time>
      </trkpt>
      <trkpt lat="42.68949" lon="1.64277">
        <ele>1672.425</ele>
        <time>2021-06-13T13:05:10Z</time>
      </trkpt>
      <trkpt lat="42.68948" lon="1.64279">
        <ele>1671.634</ele>
        <time>2021-06-13T13:05:12Z</time>
      </trkpt>
      <trkpt lat="42.68947" lon="1.64282">
        <ele>1671.144</ele>
        <time>2021-06-13T13:05:14Z</time>
      </trkpt>
      <trkpt lat="42.68945" lon="1.64284">
        <ele>1672.003</ele>
        <time>2021-06-13T13:05:16Z</time>
      </trkpt>
      <trkpt lat="42.68944" lon="1.64285">
        <ele>1673.163</ele>
        <time>2021-06-13T13:05:18Z</time>
      </trkpt>
      <trkpt lat="42.68941" lon="1.64284">
        <ele>1673.464</ele>
        <time>2021-06-13T13:05:20Z</time>
      </trkpt>
      <trkpt lat="42.6894" lon="1.64282">
        <ele>1672.937</ele>
        <time>2021-06-13T13:05:22Z</time>
      </trkpt>
      <trkpt lat="42.68939" lon="1.64281">
        <ele>1673.198</ele>
        <time>2021-06-13T13:05:24Z</time>
      </trkpt>
      <trkpt lat="42.68939" lon="1.6428">
        <ele>1672.795</ele>
        <time>2021-06-13T13:05:26Z</time>
      </trkpt>
      <trkpt lat="42.68939" lon="1.6428">
        <ele>1672.783</ele>
        <time>2021-06-13T13:05:28Z</time>
      </trkpt>
      <trkpt lat="42.68939" lon="1.64281">
        <ele>1672.389</ele>
        <time>2021-06-13T13:05:30Z</time>
      </trkpt>
      <trkpt lat="42.68939" lon="1.64281">
        <ele>1672.394</ele>
        <time>2021-06-13T13:05:32Z</time>
      </trkpt>
      <trkpt lat="42.68939" lon="1.64281">
        <ele>1672.388</ele>
        <time>2021-06-13T13:05:34Z</time>
      </trkpt>
      <trkpt lat="42.68939" lon="1.64281">
        <ele>1672.387</ele>
        <time>2021-06-13T13:05:36Z</time>
      </trkpt>
      <trkpt lat="42.68939" lon="1.64281">
        <ele>1672.384</ele>
        <time>2021-06-13T13:05:38Z</time>
      </trkpt>
      <trkpt lat="42.68939" lon="1.64281">
        <ele>1672.373</ele>
        <time>2021-06-13T13:05:40Z</time>
      </trkpt>
      <trkpt lat="42.68939" lon="1.64281">
        <ele>1672.352</ele>
        <time>2021-06-13T13:05:42Z</time>
      </trkpt>
      <trkpt lat="42.68939" lon="1.64281">
        <ele>1672.351</ele>
        <time>2021-06-13T13:05:44Z</time>
      </trkpt>
      <trkpt lat="42.68939" lon="1.64281">
        <ele>1672.366</ele>
        <time>2021-06-13T13:05:46Z</time>
      </trkpt>
      <trkpt lat="42.68939" lon="1.64281">
        <ele>1672.367</ele>
        <time>2021-06-13T13:05:48Z</time>
      </trkpt>
      <trkpt lat="42.68939" lon="1.64281">
        <ele>1672.365</ele>
        <time>2021-06-13T13:05:50Z</time>
      </trkpt>
      <trkpt lat="42.68939" lon="1.64281">
        <ele>1672.351</ele>
        <time>2021-06-13T13:05:52Z</time>
      </trkpt>
      <trkpt lat="42.68939" lon="1.64281">
        <ele>1672.35</ele>
        <time>2021-06-13T13:05:54Z</time>
      </trkpt>
      <trkpt lat="42.68939" lon="1.64281">
        <ele>1672.357</ele>
        <time>2021-06-13T13:05:56Z</time>
      </trkpt>
      <trkpt lat="42.68939" lon="1.64281">
        <ele>1672.341</ele>
        <time>2021-06-13T13:05:58Z</time>
      </trkpt>
      <trkpt lat="42.68939" lon="1.64281">
        <ele>1672.341</ele>
        <time>2021-06-13T13:06:00Z</time>
      </trkpt>
      <trkpt lat="42.68939" lon="1.64281">
        <ele>1672.34</ele>
        <time>2021-06-13T13:06:02Z</time>
      </trkpt>
      <trkpt lat="42.68939" lon="1.64281">
        <ele>1672.33</ele>
        <time>2021-06-13T13:06:04Z</time>
      </trkpt>
      <trkpt lat="42.68939" lon="1.64281">
        <ele>1672.327</ele>
        <time>2021-06-13T13:06:06Z</time>
      </trkpt>
      <trkpt lat="42.68939" lon="1.64281">
        <ele>1672.326</ele>
        <time>2021-06-13T13:06:08Z</time>
      </trkpt>
      <trkpt lat="42.68939" lon="1.64281">
        <ele>1672.319</ele>
        <time>2021-06-13T13:06:10Z</time>
      </trkpt>
      <trkpt lat="42.68939" lon="1.64281">
        <ele>1672.301</ele>
        <time>2021-06-13T13:06:12Z</time>
      </trkpt>
      <trkpt lat="42.68939" lon="1.64281">
        <ele>1672.282</ele>
        <time>2021-06-13T13:06:14Z</time>
      </trkpt>
      <trkpt lat="42.68939" lon="1.64281">
        <ele>1672.559</ele>
        <time>2021-06-13T13:06:16Z</time>
      </trkpt>
      <trkpt lat="42.68939" lon="1.6428">
        <ele>1672.869</ele>
        <time>2021-06-13T13:06:18Z</time>
      </trkpt>
      <trkpt lat="42.6894" lon="1.64281">
        <ele>1672.007</ele>
        <time>2021-06-13T13:06:20Z</time>
      </trkpt>
      <trkpt lat="42.6894" lon="1.64281">
        <ele>1672.009</ele>
        <time>2021-06-13T13:06:22Z</time>
      </trkpt>
      <trkpt lat="42.6894" lon="1.64281">
        <ele>1672.008</ele>
        <time>2021-06-13T13:06:24Z</time>
      </trkpt>
      <trkpt lat="42.6894" lon="1.64281">
        <ele>1671.993</ele>
        <time>2021-06-13T13:06:26Z</time>
      </trkpt>
      <trkpt lat="42.6894" lon="1.64281">
        <ele>1671.974</ele>
        <time>2021-06-13T13:06:28Z</time>
      </trkpt>
      <trkpt lat="42.6894" lon="1.64281">
        <ele>1671.966</ele>
        <time>2021-06-13T13:06:30Z</time>
      </trkpt>
      <trkpt lat="42.6894" lon="1.64281">
        <ele>1671.953</ele>
        <time>2021-06-13T13:06:32Z</time>
      </trkpt>
      <trkpt lat="42.6894" lon="1.64281">
        <ele>1671.947</ele>
        <time>2021-06-13T13:06:34Z</time>
      </trkpt>
      <trkpt lat="42.6894" lon="1.64281">
        <ele>1671.931</ele>
        <time>2021-06-13T13:06:36Z</time>
      </trkpt>
      <trkpt lat="42.6894" lon="1.64281">
        <ele>1671.54</ele>
        <time>2021-06-13T13:06:38Z</time>
      </trkpt>
      <trkpt lat="42.6894" lon="1.64282">
        <ele>1671.564</ele>
        <time>2021-06-13T13:06:40Z</time>
      </trkpt>
      <trkpt lat="42.6894" lon="1.64282">
        <ele>1671.558</ele>
        <time>2021-06-13T13:06:42Z</time>
      </trkpt>
      <trkpt lat="42.6894" lon="1.64282">
        <ele>1671.558</ele>
        <time>2021-06-13T13:06:44Z</time>
      </trkpt>
      <trkpt lat="42.6894" lon="1.64282">
        <ele>1671.558</ele>
        <time>2021-06-13T13:06:46Z</time>
      </trkpt>
      <trkpt lat="42.6894" lon="1.64282">
        <ele>1671.562</ele>
        <time>2021-06-13T13:06:48Z</time>
      </trkpt>
      <trkpt lat="42.6894" lon="1.64282">
        <ele>1671.567</ele>
        <time>2021-06-13T13:06:50Z</time>
      </trkpt>
      <trkpt lat="42.6894" lon="1.64282">
        <ele>1671.574</ele>
        <time>2021-06-13T13:06:52Z</time>
      </trkpt>
      <trkpt lat="42.6894" lon="1.64282">
        <ele>1671.584</ele>
        <time>2021-06-13T13:06:54Z</time>
      </trkpt>
      <trkpt lat="42.6894" lon="1.64282">
        <ele>1671.575</ele>
        <time>2021-06-13T13:06:56Z</time>
      </trkpt>
      <trkpt lat="42.6894" lon="1.64282">
        <ele>1671.575</ele>
        <time>2021-06-13T13:06:58Z</time>
      </trkpt>
      <trkpt lat="42.6894" lon="1.64282">
        <ele>1671.591</ele>
        <time>2021-06-13T13:07:00Z</time>
      </trkpt>
      <trkpt lat="42.6894" lon="1.64282">
        <ele>1671.599</ele>
        <time>2021-06-13T13:07:02Z</time>
      </trkpt>
      <trkpt lat="42.6894" lon="1.64282">
        <ele>1671.612</ele>
        <time>2021-06-13T13:07:04Z</time>
      </trkpt>
      <trkpt lat="42.6894" lon="1.64282">
        <ele>1671.613</ele>
        <time>2021-06-13T13:07:06Z</time>
      </trkpt>
      <trkpt lat="42.6894" lon="1.64282">
        <ele>1671.622</ele>
        <time>2021-06-13T13:07:08Z</time>
      </trkpt>
      <trkpt lat="42.6894" lon="1.64282">
        <ele>1671.621</ele>
        <time>2021-06-13T13:07:10Z</time>
      </trkpt>
      <trkpt lat="42.6894" lon="1.64282">
        <ele>1671.632</ele>
        <time>2021-06-13T13:07:12Z</time>
      </trkpt>
      <trkpt lat="42.6894" lon="1.64282">
        <ele>1671.645</ele>
        <time>2021-06-13T13:07:14Z</time>
      </trkpt>
      <trkpt lat="42.6894" lon="1.64282">
        <ele>1671.647</ele>
        <time>2021-06-13T13:07:16Z</time>
      </trkpt>
      <trkpt lat="42.6894" lon="1.64282">
        <ele>1671.659</ele>
        <time>2021-06-13T13:07:18Z</time>
      </trkpt>
      <trkpt lat="42.6894" lon="1.64281">
        <ele>1671.671</ele>
        <time>2021-06-13T13:07:20Z</time>
      </trkpt>
      <trkpt lat="42.6894" lon="1.64281">
        <ele>1671.694</ele>
        <time>2021-06-13T13:07:22Z</time>
      </trkpt>
      <trkpt lat="42.6894" lon="1.64281">
        <ele>1671.705</ele>
        <time>2021-06-13T13:07:24Z</time>
      </trkpt>
      <trkpt lat="42.6894" lon="1.64281">
        <ele>1671.166</ele>
        <time>2021-06-13T13:07:26Z</time>
      </trkpt>
      <trkpt lat="42.6894" lon="1.6428">
        <ele>1671.118</ele>
        <time>2021-06-13T13:07:28Z</time>
      </trkpt>
      <trkpt lat="42.68939" lon="1.6428">
        <ele>1669.748</ele>
        <time>2021-06-13T13:07:30Z</time>
      </trkpt>
      <trkpt lat="42.68939" lon="1.6428">
        <ele>1668.823</ele>
        <time>2021-06-13T13:07:32Z</time>
      </trkpt>
      <trkpt lat="42.68939" lon="1.6428">
        <ele>1667.384</ele>
        <time>2021-06-13T13:07:34Z</time>
      </trkpt>
      <trkpt lat="42.68938" lon="1.6428">
        <ele>1668.035</ele>
        <time>2021-06-13T13:07:36Z</time>
      </trkpt>
      <trkpt lat="42.68938" lon="1.64281">
        <ele>1667.402</ele>
        <time>2021-06-13T13:07:38Z</time>
      </trkpt>
      <trkpt lat="42.68936" lon="1.64281">
        <ele>1667.497</ele>
        <time>2021-06-13T13:07:40Z</time>
      </trkpt>
      <trkpt lat="42.68935" lon="1.64281">
        <ele>1666.311</ele>
        <time>2021-06-13T13:07:42Z</time>
      </trkpt>
      <trkpt lat="42.68934" lon="1.64281">
        <ele>1666.511</ele>
        <time>2021-06-13T13:07:44Z</time>
      </trkpt>
      <trkpt lat="42.68933" lon="1.6428">
        <ele>1666.69</ele>
        <time>2021-06-13T13:07:46Z</time>
      </trkpt>
      <trkpt lat="42.68932" lon="1.6428">
        <ele>1667.714</ele>
        <time>2021-06-13T13:07:48Z</time>
      </trkpt>
      <trkpt lat="42.6893" lon="1.64281">
        <ele>1667.877</ele>
        <time>2021-06-13T13:07:50Z</time>
      </trkpt>
      <trkpt lat="42.68929" lon="1.64282">
        <ele>1666.525</ele>
        <time>2021-06-13T13:07:52Z</time>
      </trkpt>
      <trkpt lat="42.68928" lon="1.64281">
        <ele>1666.204</ele>
        <time>2021-06-13T13:07:54Z</time>
      </trkpt>
      <trkpt lat="42.68927" lon="1.64282">
        <ele>1665.756</ele>
        <time>2021-06-13T13:07:56Z</time>
      </trkpt>
      <trkpt lat="42.68925" lon="1.6428">
        <ele>1663.315</ele>
        <time>2021-06-13T13:07:58Z</time>
      </trkpt>
      <trkpt lat="42.68925" lon="1.64279">
        <ele>1660.969</ele>
        <time>2021-06-13T13:08:00Z</time>
      </trkpt>
      <trkpt lat="42.68923" lon="1.64279">
        <ele>1660.223</ele>
        <time>2021-06-13T13:08:02Z</time>
      </trkpt>
      <trkpt lat="42.68922" lon="1.64279">
        <ele>1661.018</ele>
        <time>2021-06-13T13:08:04Z</time>
      </trkpt>
      <trkpt lat="42.6892" lon="1.6428">
        <ele>1661.427</ele>
        <time>2021-06-13T13:08:06Z</time>
      </trkpt>
      <trkpt lat="42.68918" lon="1.64279">
        <ele>1660.44</ele>
        <time>2021-06-13T13:08:08Z</time>
      </trkpt>
      <trkpt lat="42.68916" lon="1.64279">
        <ele>1659.457</ele>
        <time>2021-06-13T13:08:10Z</time>
      </trkpt>
      <trkpt lat="42.68914" lon="1.64281">
        <ele>1660.798</ele>
        <time>2021-06-13T13:08:12Z</time>
      </trkpt>
      <trkpt lat="42.68912" lon="1.64282">
        <ele>1661.979</ele>
        <time>2021-06-13T13:08:14Z</time>
      </trkpt>
      <trkpt lat="42.6891" lon="1.64283">
        <ele>1662.318</ele>
        <time>2021-06-13T13:08:16Z</time>
      </trkpt>
      <trkpt lat="42.68909" lon="1.64284">
        <ele>1661.183</ele>
        <time>2021-06-13T13:08:18Z</time>
      </trkpt>
      <trkpt lat="42.68907" lon="1.64286">
        <ele>1662.214</ele>
        <time>2021-06-13T13:08:20Z</time>
      </trkpt>
      <trkpt lat="42.68905" lon="1.64288">
        <ele>1661.223</ele>
        <time>2021-06-13T13:08:22Z</time>
      </trkpt>
      <trkpt lat="42.68904" lon="1.64289">
        <ele>1660.765</ele>
        <time>2021-06-13T13:08:24Z</time>
      </trkpt>
      <trkpt lat="42.68901" lon="1.6429">
        <ele>1659.221</ele>
        <time>2021-06-13T13:08:26Z</time>
      </trkpt>
      <trkpt lat="42.689" lon="1.64291">
        <ele>1658.318</ele>
        <time>2021-06-13T13:08:28Z</time>
      </trkpt>
      <trkpt lat="42.68898" lon="1.64292">
        <ele>1658.355</ele>
        <time>2021-06-13T13:08:30Z</time>
      </trkpt>
      <trkpt lat="42.68896" lon="1.64292">
        <ele>1657.199</ele>
        <time>2021-06-13T13:08:32Z</time>
      </trkpt>
      <trkpt lat="42.68894" lon="1.64293">
        <ele>1656.857</ele>
        <time>2021-06-13T13:08:34Z</time>
      </trkpt>
      <trkpt lat="42.68893" lon="1.64294">
        <ele>1657.966</ele>
        <time>2021-06-13T13:08:36Z</time>
      </trkpt>
      <trkpt lat="42.68891" lon="1.64294">
        <ele>1660.023</ele>
        <time>2021-06-13T13:08:38Z</time>
      </trkpt>
      <trkpt lat="42.68888" lon="1.64295">
        <ele>1660.284</ele>
        <time>2021-06-13T13:08:40Z</time>
      </trkpt>
      <trkpt lat="42.68886" lon="1.64296">
        <ele>1659.646</ele>
        <time>2021-06-13T13:08:42Z</time>
      </trkpt>
      <trkpt lat="42.68885" lon="1.64296">
        <ele>1659.969</ele>
        <time>2021-06-13T13:08:44Z</time>
      </trkpt>
      <trkpt lat="42.68883" lon="1.64296">
        <ele>1660.166</ele>
        <time>2021-06-13T13:08:46Z</time>
      </trkpt>
      <trkpt lat="42.68881" lon="1.64296">
        <ele>1657.964</ele>
        <time>2021-06-13T13:08:48Z</time>
      </trkpt>
      <trkpt lat="42.6888" lon="1.64294">
        <ele>1655.381</ele>
        <time>2021-06-13T13:08:50Z</time>
      </trkpt>
      <trkpt lat="42.68879" lon="1.64295">
        <ele>1654.416</ele>
        <time>2021-06-13T13:08:52Z</time>
      </trkpt>
      <trkpt lat="42.68877" lon="1.64295">
        <ele>1655.3</ele>
        <time>2021-06-13T13:08:54Z</time>
      </trkpt>
      <trkpt lat="42.68876" lon="1.64294">
        <ele>1654.303</ele>
        <time>2021-06-13T13:08:56Z</time>
      </trkpt>
      <trkpt lat="42.68874" lon="1.64293">
        <ele>1653.735</ele>
        <time>2021-06-13T13:08:58Z</time>
      </trkpt>
      <trkpt lat="42.68872" lon="1.64293">
        <ele>1654.927</ele>
        <time>2021-06-13T13:09:00Z</time>
      </trkpt>
      <trkpt lat="42.6887" lon="1.64294">
        <ele>1656.943</ele>
        <time>2021-06-13T13:09:02Z</time>
      </trkpt>
      <trkpt lat="42.68869" lon="1.64295">
        <ele>1656.478</ele>
        <time>2021-06-13T13:09:04Z</time>
      </trkpt>
      <trkpt lat="42.68868" lon="1.64295">
        <ele>1656.549</ele>
        <time>2021-06-13T13:09:06Z</time>
      </trkpt>
      <trkpt lat="42.68867" lon="1.64297">
        <ele>1657.586</ele>
        <time>2021-06-13T13:09:08Z</time>
      </trkpt>
      <trkpt lat="42.68866" lon="1.64297">
        <ele>1657.614</ele>
        <time>2021-06-13T13:09:10Z</time>
      </trkpt>
      <trkpt lat="42.68865" lon="1.64298">
        <ele>1657.424</ele>
        <time>2021-06-13T13:09:12Z</time>
      </trkpt>
      <trkpt lat="42.68864" lon="1.64297">
        <ele>1657.485</ele>
        <time>2021-06-13T13:09:14Z</time>
      </trkpt>
      <trkpt lat="42.68864" lon="1.64297">
        <ele>1657.512</ele>
        <time>2021-06-13T13:09:16Z</time>
      </trkpt>
      <trkpt lat="42.68864" lon="1.64297">
        <ele>1657.545</ele>
        <time>2021-06-13T13:09:18Z</time>
      </trkpt>
      <trkpt lat="42.68864" lon="1.64297">
        <ele>1657.574</ele>
        <time>2021-06-13T13:09:20Z</time>
      </trkpt>
      <trkpt lat="42.68864" lon="1.64297">
        <ele>1657.602</ele>
        <time>2021-06-13T13:09:22Z</time>
      </trkpt>
      <trkpt lat="42.68864" lon="1.64297">
        <ele>1657.603</ele>
        <time>2021-06-13T13:09:24Z</time>
      </trkpt>
      <trkpt lat="42.68864" lon="1.64297">
        <ele>1657.615</ele>
        <time>2021-06-13T13:09:26Z</time>
      </trkpt>
      <trkpt lat="42.68864" lon="1.64298">
        <ele>1657.416</ele>
        <time>2021-06-13T13:09:28Z</time>
      </trkpt>
      <trkpt lat="42.68865" lon="1.64299">
        <ele>1657.135</ele>
        <time>2021-06-13T13:09:30Z</time>
      </trkpt>
      <trkpt lat="42.68865" lon="1.643">
        <ele>1657.885</ele>
        <time>2021-06-13T13:09:32Z</time>
      </trkpt>
      <trkpt lat="42.68864" lon="1.64302">
        <ele>1658.059</ele>
        <time>2021-06-13T13:09:34Z</time>
      </trkpt>
      <trkpt lat="42.68864" lon="1.64303">
        <ele>1657.542</ele>
        <time>2021-06-13T13:09:36Z</time>
      </trkpt>
      <trkpt lat="42.68864" lon="1.64304">
        <ele>1656.963</ele>
        <time>2021-06-13T13:09:38Z</time>
      </trkpt>
      <trkpt lat="42.68863" lon="1.64306">
        <ele>1657.249</ele>
        <time>2021-06-13T13:09:40Z</time>
      </trkpt>
      <trkpt lat="42.68861" lon="1.64307">
        <ele>1655.775</ele>
        <time>2021-06-13T13:09:42Z</time>
      </trkpt>
      <trkpt lat="42.6886" lon="1.64308">
        <ele>1656.508</ele>
        <time>2021-06-13T13:09:44Z</time>
      </trkpt>
      <trkpt lat="42.6886" lon="1.64309">
        <ele>1656.17</ele>
        <time>2021-06-13T13:09:46Z</time>
      </trkpt>
      <trkpt lat="42.68858" lon="1.64312">
        <ele>1658.599</ele>
        <time>2021-06-13T13:09:48Z</time>
      </trkpt>
      <trkpt lat="42.68858" lon="1.64315">
        <ele>1659.82</ele>
        <time>2021-06-13T13:09:50Z</time>
      </trkpt>
      <trkpt lat="42.68859" lon="1.64317">
        <ele>1658.544</ele>
        <time>2021-06-13T13:09:52Z</time>
      </trkpt>
      <trkpt lat="42.68859" lon="1.64317">
        <ele>1656.387</ele>
        <time>2021-06-13T13:09:54Z</time>
      </trkpt>
      <trkpt lat="42.68859" lon="1.64318">
        <ele>1657.469</ele>
        <time>2021-06-13T13:09:56Z</time>
      </trkpt>
      <trkpt lat="42.68859" lon="1.64318">
        <ele>1657.594</ele>
        <time>2021-06-13T13:09:58Z</time>
      </trkpt>
      <trkpt lat="42.68859" lon="1.6432">
        <ele>1659.166</ele>
        <time>2021-06-13T13:10:00Z</time>
      </trkpt>
      <trkpt lat="42.6886" lon="1.64322">
        <ele>1658.899</ele>
        <time>2021-06-13T13:10:02Z</time>
      </trkpt>
      <trkpt lat="42.68858" lon="1.64324">
        <ele>1657.848</ele>
        <time>2021-06-13T13:10:04Z</time>
      </trkpt>
      <trkpt lat="42.68856" lon="1.64326">
        <ele>1659.304</ele>
        <time>2021-06-13T13:10:06Z</time>
      </trkpt>
      <trkpt lat="42.68855" lon="1.64327">
        <ele>1657.154</ele>
        <time>2021-06-13T13:10:08Z</time>
      </trkpt>
      <trkpt lat="42.68853" lon="1.64329">
        <ele>1657.905</ele>
        <time>2021-06-13T13:10:10Z</time>
      </trkpt>
      <trkpt lat="42.68851" lon="1.64331">
        <ele>1657.603</ele>
        <time>2021-06-13T13:10:12Z</time>
      </trkpt>
      <trkpt lat="42.68849" lon="1.64332">
        <ele>1657.214</ele>
        <time>2021-06-13T13:10:14Z</time>
      </trkpt>
      <trkpt lat="42.68847" lon="1.64331">
        <ele>1655.451</ele>
        <time>2021-06-13T13:10:16Z</time>
      </trkpt>
      <trkpt lat="42.68845" lon="1.6433">
        <ele>1655.149</ele>
        <time>2021-06-13T13:10:18Z</time>
      </trkpt>
      <trkpt lat="42.68843" lon="1.64331">
        <ele>1655.728</ele>
        <time>2021-06-13T13:10:20Z</time>
      </trkpt>
      <trkpt lat="42.68841" lon="1.64331">
        <ele>1656.021</ele>
        <time>2021-06-13T13:10:22Z</time>
      </trkpt>
      <trkpt lat="42.68839" lon="1.64332">
        <ele>1656.596</ele>
        <time>2021-06-13T13:10:24Z</time>
      </trkpt>
      <trkpt lat="42.68837" lon="1.64334">
        <ele>1656.308</ele>
        <time>2021-06-13T13:10:26Z</time>
      </trkpt>
      <trkpt lat="42.68835" lon="1.64335">
        <ele>1658.053</ele>
        <time>2021-06-13T13:10:28Z</time>
      </trkpt>
      <trkpt lat="42.68834" lon="1.64334">
        <ele>1656.773</ele>
        <time>2021-06-13T13:10:30Z</time>
      </trkpt>
      <trkpt lat="42.68833" lon="1.64332">
        <ele>1656.058</ele>
        <time>2021-06-13T13:10:32Z</time>
      </trkpt>
      <trkpt lat="42.68832" lon="1.6433">
        <ele>1654.855</ele>
        <time>2021-06-13T13:10:34Z</time>
      </trkpt>
      <trkpt lat="42.6883" lon="1.64329">
        <ele>1654.384</ele>
        <time>2021-06-13T13:10:36Z</time>
      </trkpt>
      <trkpt lat="42.68828" lon="1.64329">
        <ele>1655.689</ele>
        <time>2021-06-13T13:10:38Z</time>
      </trkpt>
      <trkpt lat="42.68827" lon="1.6433">
        <ele>1655.153</ele>
        <time>2021-06-13T13:10:40Z</time>
      </trkpt>
      <trkpt lat="42.68826" lon="1.64329">
        <ele>1655.206</ele>
        <time>2021-06-13T13:10:42Z</time>
      </trkpt>
      <trkpt lat="42.68824" lon="1.6433">
        <ele>1655.13</ele>
        <time>2021-06-13T13:10:44Z</time>
      </trkpt>
      <trkpt lat="42.68823" lon="1.64331">
        <ele>1655.939</ele>
        <time>2021-06-13T13:10:46Z</time>
      </trkpt>
      <trkpt lat="42.68821" lon="1.64333">
        <ele>1656.842</ele>
        <time>2021-06-13T13:10:48Z</time>
      </trkpt>
      <trkpt lat="42.68819" lon="1.64335">
        <ele>1658.936</ele>
        <time>2021-06-13T13:10:50Z</time>
      </trkpt>
      <trkpt lat="42.68818" lon="1.64335">
        <ele>1656.612</ele>
        <time>2021-06-13T13:10:52Z</time>
      </trkpt>
      <trkpt lat="42.68816" lon="1.64337">
        <ele>1657.291</ele>
        <time>2021-06-13T13:10:54Z</time>
      </trkpt>
      <trkpt lat="42.68815" lon="1.64338">
        <ele>1657.179</ele>
        <time>2021-06-13T13:10:56Z</time>
      </trkpt>
      <trkpt lat="42.68814" lon="1.6434">
        <ele>1657.171</ele>
        <time>2021-06-13T13:10:58Z</time>
      </trkpt>
      <trkpt lat="42.68812" lon="1.64338">
        <ele>1654.549</ele>
        <time>2021-06-13T13:11:00Z</time>
      </trkpt>
      <trkpt lat="42.6881" lon="1.64339">
        <ele>1653.673</ele>
        <time>2021-06-13T13:11:02Z</time>
      </trkpt>
      <trkpt lat="42.68808" lon="1.64338">
        <ele>1653.372</ele>
        <time>2021-06-13T13:11:04Z</time>
      </trkpt>
      <trkpt lat="42.68806" lon="1.64339">
        <ele>1654.297</ele>
        <time>2021-06-13T13:11:06Z</time>
      </trkpt>
      <trkpt lat="42.68804" lon="1.6434">
        <ele>1652.894</ele>
        <time>2021-06-13T13:11:08Z</time>
      </trkpt>
      <trkpt lat="42.68802" lon="1.64341">
        <ele>1651.893</ele>
        <time>2021-06-13T13:11:10Z</time>
      </trkpt>
      <trkpt lat="42.68801" lon="1.64343">
        <ele>1651.236</ele>
        <time>2021-06-13T13:11:12Z</time>
      </trkpt>
      <trkpt lat="42.68799" lon="1.64344">
        <ele>1651.473</ele>
        <time>2021-06-13T13:11:14Z</time>
      </trkpt>
      <trkpt lat="42.68797" lon="1.64344">
        <ele>1650.111</ele>
        <time>2021-06-13T13:11:16Z</time>
      </trkpt>
      <trkpt lat="42.68795" lon="1.64344">
        <ele>1649.806</ele>
        <time>2021-06-13T13:11:18Z</time>
      </trkpt>
      <trkpt lat="42.68794" lon="1.64344">
        <ele>1649.118</ele>
        <time>2021-06-13T13:11:20Z</time>
      </trkpt>
      <trkpt lat="42.68792" lon="1.64343">
        <ele>1648.427</ele>
        <time>2021-06-13T13:11:22Z</time>
      </trkpt>
      <trkpt lat="42.68791" lon="1.64342">
        <ele>1649.953</ele>
        <time>2021-06-13T13:11:24Z</time>
      </trkpt>
      <trkpt lat="42.68789" lon="1.64342">
        <ele>1650.002</ele>
        <time>2021-06-13T13:11:26Z</time>
      </trkpt>
      <trkpt lat="42.68787" lon="1.64343">
        <ele>1649.857</ele>
        <time>2021-06-13T13:11:28Z</time>
      </trkpt>
      <trkpt lat="42.68785" lon="1.64342">
        <ele>1648.359</ele>
        <time>2021-06-13T13:11:30Z</time>
      </trkpt>
      <trkpt lat="42.68783" lon="1.64342">
        <ele>1646.643</ele>
        <time>2021-06-13T13:11:32Z</time>
      </trkpt>
      <trkpt lat="42.68782" lon="1.64341">
        <ele>1647.858</ele>
        <time>2021-06-13T13:11:34Z</time>
      </trkpt>
      <trkpt lat="42.6878" lon="1.64341">
        <ele>1648.972</ele>
        <time>2021-06-13T13:11:36Z</time>
      </trkpt>
      <trkpt lat="42.68778" lon="1.64342">
        <ele>1650.353</ele>
        <time>2021-06-13T13:11:38Z</time>
      </trkpt>
      <trkpt lat="42.68776" lon="1.64342">
        <ele>1647.477</ele>
        <time>2021-06-13T13:11:40Z</time>
      </trkpt>
      <trkpt lat="42.68775" lon="1.64342">
        <ele>1647.864</ele>
        <time>2021-06-13T13:11:42Z</time>
      </trkpt>
      <trkpt lat="42.68774" lon="1.64343">
        <ele>1648.711</ele>
        <time>2021-06-13T13:11:44Z</time>
      </trkpt>
      <trkpt lat="42.68773" lon="1.64344">
        <ele>1648.33</ele>
        <time>2021-06-13T13:11:46Z</time>
      </trkpt>
      <trkpt lat="42.68772" lon="1.64345">
        <ele>1646.547</ele>
        <time>2021-06-13T13:11:48Z</time>
      </trkpt>
      <trkpt lat="42.68771" lon="1.64345">
        <ele>1645.302</ele>
        <time>2021-06-13T13:11:50Z</time>
      </trkpt>
      <trkpt lat="42.68772" lon="1.64345">
        <ele>1646.16</ele>
        <time>2021-06-13T13:11:52Z</time>
      </trkpt>
      <trkpt lat="42.68771" lon="1.64347">
        <ele>1646.694</ele>
        <time>2021-06-13T13:11:54Z</time>
      </trkpt>
      <trkpt lat="42.68769" lon="1.64349">
        <ele>1646.786</ele>
        <time>2021-06-13T13:11:56Z</time>
      </trkpt>
      <trkpt lat="42.68767" lon="1.6435">
        <ele>1647.464</ele>
        <time>2021-06-13T13:11:58Z</time>
      </trkpt>
      <trkpt lat="42.68767" lon="1.6435">
        <ele>1647.78</ele>
        <time>2021-06-13T13:12:00Z</time>
      </trkpt>
      <trkpt lat="42.68765" lon="1.64347">
        <ele>1647.054</ele>
        <time>2021-06-13T13:12:02Z</time>
      </trkpt>
      <trkpt lat="42.68764" lon="1.64349">
        <ele>1647.546</ele>
        <time>2021-06-13T13:12:04Z</time>
      </trkpt>
      <trkpt lat="42.68763" lon="1.64349">
        <ele>1647.505</ele>
        <time>2021-06-13T13:12:06Z</time>
      </trkpt>
      <trkpt lat="42.68763" lon="1.64349">
        <ele>1647.498</ele>
        <time>2021-06-13T13:12:08Z</time>
      </trkpt>
      <trkpt lat="42.68763" lon="1.64349">
        <ele>1647.454</ele>
        <time>2021-06-13T13:12:10Z</time>
      </trkpt>
      <trkpt lat="42.68763" lon="1.64349">
        <ele>1647.384</ele>
        <time>2021-06-13T13:12:12Z</time>
      </trkpt>
      <trkpt lat="42.68763" lon="1.64349">
        <ele>1647.355</ele>
        <time>2021-06-13T13:12:14Z</time>
      </trkpt>
      <trkpt lat="42.68763" lon="1.64349">
        <ele>1647.322</ele>
        <time>2021-06-13T13:12:16Z</time>
      </trkpt>
      <trkpt lat="42.68763" lon="1.64349">
        <ele>1647.278</ele>
        <time>2021-06-13T13:12:18Z</time>
      </trkpt>
      <trkpt lat="42.68763" lon="1.64349">
        <ele>1647.245</ele>
        <time>2021-06-13T13:12:20Z</time>
      </trkpt>
      <trkpt lat="42.68763" lon="1.64349">
        <ele>1647.226</ele>
        <time>2021-06-13T13:12:22Z</time>
      </trkpt>
      <trkpt lat="42.68763" lon="1.64349">
        <ele>1647.237</ele>
        <time>2021-06-13T13:12:24Z</time>
      </trkpt>
      <trkpt lat="42.68763" lon="1.64349">
        <ele>1647.222</ele>
        <time>2021-06-13T13:12:26Z</time>
      </trkpt>
      <trkpt lat="42.68763" lon="1.64349">
        <ele>1647.221</ele>
        <time>2021-06-13T13:12:28Z</time>
      </trkpt>
      <trkpt lat="42.68763" lon="1.64349">
        <ele>1647.221</ele>
        <time>2021-06-13T13:12:30Z</time>
      </trkpt>
      <trkpt lat="42.68763" lon="1.64349">
        <ele>1647.211</ele>
        <time>2021-06-13T13:12:32Z</time>
      </trkpt>
      <trkpt lat="42.68763" lon="1.64349">
        <ele>1646.643</ele>
        <time>2021-06-13T13:12:34Z</time>
      </trkpt>
      <trkpt lat="42.68763" lon="1.64349">
        <ele>1646.679</ele>
        <time>2021-06-13T13:12:36Z</time>
      </trkpt>
      <trkpt lat="42.68763" lon="1.64349">
        <ele>1646.868</ele>
        <time>2021-06-13T13:12:38Z</time>
      </trkpt>
      <trkpt lat="42.68764" lon="1.6435">
        <ele>1646.207</ele>
        <time>2021-06-13T13:12:40Z</time>
      </trkpt>
      <trkpt lat="42.68764" lon="1.6435">
        <ele>1646.127</ele>
        <time>2021-06-13T13:12:42Z</time>
      </trkpt>
      <trkpt lat="42.68766" lon="1.64353">
        <ele>1646.658</ele>
        <time>2021-06-13T13:12:44Z</time>
      </trkpt>
      <trkpt lat="42.68765" lon="1.64353">
        <ele>1646.428</ele>
        <time>2021-06-13T13:12:46Z</time>
      </trkpt>
      <trkpt lat="42.68765" lon="1.64353">
        <ele>1646.418</ele>
        <time>2021-06-13T13:12:48Z</time>
      </trkpt>
      <trkpt lat="42.68765" lon="1.64353">
        <ele>1646.416</ele>
        <time>2021-06-13T13:12:50Z</time>
      </trkpt>
      <trkpt lat="42.68765" lon="1.64353">
        <ele>1646.408</ele>
        <time>2021-06-13T13:12:52Z</time>
      </trkpt>
      <trkpt lat="42.68765" lon="1.64354">
        <ele>1646.389</ele>
        <time>2021-06-13T13:12:54Z</time>
      </trkpt>
      <trkpt lat="42.68765" lon="1.64354">
        <ele>1646.374</ele>
        <time>2021-06-13T13:12:56Z</time>
      </trkpt>
      <trkpt lat="42.68765" lon="1.64354">
        <ele>1646.36</ele>
        <time>2021-06-13T13:12:58Z</time>
      </trkpt>
      <trkpt lat="42.68765" lon="1.64354">
        <ele>1646.345</ele>
        <time>2021-06-13T13:13:00Z</time>
      </trkpt>
      <trkpt lat="42.68765" lon="1.64354">
        <ele>1646.335</ele>
        <time>2021-06-13T13:13:02Z</time>
      </trkpt>
      <trkpt lat="42.68765" lon="1.64354">
        <ele>1646.331</ele>
        <time>2021-06-13T13:13:04Z</time>
      </trkpt>
      <trkpt lat="42.68765" lon="1.64354">
        <ele>1646.33</ele>
        <time>2021-06-13T13:13:06Z</time>
      </trkpt>
      <trkpt lat="42.68766" lon="1.64354">
        <ele>1646.06</ele>
        <time>2021-06-13T13:13:08Z</time>
      </trkpt>
      <trkpt lat="42.68766" lon="1.64354">
        <ele>1646.063</ele>
        <time>2021-06-13T13:13:10Z</time>
      </trkpt>
      <trkpt lat="42.68766" lon="1.64354">
        <ele>1646.076</ele>
        <time>2021-06-13T13:13:12Z</time>
      </trkpt>
      <trkpt lat="42.68766" lon="1.64354">
        <ele>1646.077</ele>
        <time>2021-06-13T13:13:14Z</time>
      </trkpt>
      <trkpt lat="42.68766" lon="1.64354">
        <ele>1646.079</ele>
        <time>2021-06-13T13:13:16Z</time>
      </trkpt>
      <trkpt lat="42.68766" lon="1.64354">
        <ele>1646.076</ele>
        <time>2021-06-13T13:13:18Z</time>
      </trkpt>
      <trkpt lat="42.68766" lon="1.64354">
        <ele>1646.084</ele>
        <time>2021-06-13T13:13:20Z</time>
      </trkpt>
      <trkpt lat="42.68766" lon="1.64354">
        <ele>1646.084</ele>
        <time>2021-06-13T13:13:22Z</time>
      </trkpt>
      <trkpt lat="42.68766" lon="1.64354">
        <ele>1646.088</ele>
        <time>2021-06-13T13:13:24Z</time>
      </trkpt>
      <trkpt lat="42.68766" lon="1.64354">
        <ele>1646.089</ele>
        <time>2021-06-13T13:13:26Z</time>
      </trkpt>
      <trkpt lat="42.68766" lon="1.64354">
        <ele>1646.096</ele>
        <time>2021-06-13T13:13:28Z</time>
      </trkpt>
      <trkpt lat="42.68766" lon="1.64354">
        <ele>1646.1</ele>
        <time>2021-06-13T13:13:30Z</time>
      </trkpt>
      <trkpt lat="42.68766" lon="1.64354">
        <ele>1646.105</ele>
        <time>2021-06-13T13:13:32Z</time>
      </trkpt>
      <trkpt lat="42.68766" lon="1.64354">
        <ele>1646.106</ele>
        <time>2021-06-13T13:13:34Z</time>
      </trkpt>
      <trkpt lat="42.68766" lon="1.64354">
        <ele>1646.11</ele>
        <time>2021-06-13T13:13:36Z</time>
      </trkpt>
      <trkpt lat="42.68766" lon="1.64354">
        <ele>1646.115</ele>
        <time>2021-06-13T13:13:38Z</time>
      </trkpt>
      <trkpt lat="42.68766" lon="1.64354">
        <ele>1646.123</ele>
        <time>2021-06-13T13:13:40Z</time>
      </trkpt>
      <trkpt lat="42.68766" lon="1.64354">
        <ele>1646.116</ele>
        <time>2021-06-13T13:13:42Z</time>
      </trkpt>
      <trkpt lat="42.68766" lon="1.64354">
        <ele>1646.122</ele>
        <time>2021-06-13T13:13:44Z</time>
      </trkpt>
      <trkpt lat="42.68766" lon="1.64354">
        <ele>1646.128</ele>
        <time>2021-06-13T13:13:46Z</time>
      </trkpt>
      <trkpt lat="42.68766" lon="1.64354">
        <ele>1646.152</ele>
        <time>2021-06-13T13:13:48Z</time>
      </trkpt>
      <trkpt lat="42.68766" lon="1.64354">
        <ele>1646.15</ele>
        <time>2021-06-13T13:13:50Z</time>
      </trkpt>
      <trkpt lat="42.68766" lon="1.64354">
        <ele>1646.155</ele>
        <time>2021-06-13T13:13:52Z</time>
      </trkpt>
      <trkpt lat="42.68766" lon="1.64354">
        <ele>1646.129</ele>
        <time>2021-06-13T13:13:54Z</time>
      </trkpt>
      <trkpt lat="42.68767" lon="1.64353">
        <ele>1645.747</ele>
        <time>2021-06-13T13:13:56Z</time>
      </trkpt>
      <trkpt lat="42.68767" lon="1.64352">
        <ele>1645.291</ele>
        <time>2021-06-13T13:13:58Z</time>
      </trkpt>
      <trkpt lat="42.68768" lon="1.64351">
        <ele>1644.891</ele>
        <time>2021-06-13T13:14:00Z</time>
      </trkpt>
      <trkpt lat="42.68771" lon="1.64351">
        <ele>1644.786</ele>
        <time>2021-06-13T13:14:02Z</time>
      </trkpt>
      <trkpt lat="42.68771" lon="1.64351">
        <ele>1644.797</ele>
        <time>2021-06-13T13:14:04Z</time>
      </trkpt>
      <trkpt lat="42.68771" lon="1.64351">
        <ele>1644.803</ele>
        <time>2021-06-13T13:14:06Z</time>
      </trkpt>
      <trkpt lat="42.68771" lon="1.64351">
        <ele>1644.799</ele>
        <time>2021-06-13T13:14:08Z</time>
      </trkpt>
      <trkpt lat="42.68771" lon="1.64351">
        <ele>1644.796</ele>
        <time>2021-06-13T13:14:10Z</time>
      </trkpt>
      <trkpt lat="42.68771" lon="1.64351">
        <ele>1644.795</ele>
        <time>2021-06-13T13:14:12Z</time>
      </trkpt>
      <trkpt lat="42.68771" lon="1.64351">
        <ele>1644.788</ele>
        <time>2021-06-13T13:14:14Z</time>
      </trkpt>
      <trkpt lat="42.68771" lon="1.64351">
        <ele>1644.78</ele>
        <time>2021-06-13T13:14:16Z</time>
      </trkpt>
      <trkpt lat="42.68771" lon="1.64351">
        <ele>1644.777</ele>
        <time>2021-06-13T13:14:18Z</time>
      </trkpt>
      <trkpt lat="42.68771" lon="1.64351">
        <ele>1644.774</ele>
        <time>2021-06-13T13:14:20Z</time>
      </trkpt>
      <trkpt lat="42.68771" lon="1.64351">
        <ele>1644.771</ele>
        <time>2021-06-13T13:14:22Z</time>
      </trkpt>
      <trkpt lat="42.68771" lon="1.64351">
        <ele>1644.771</ele>
        <time>2021-06-13T13:14:24Z</time>
      </trkpt>
      <trkpt lat="42.68771" lon="1.64351">
        <ele>1644.779</ele>
        <time>2021-06-13T13:14:26Z</time>
      </trkpt>
      <trkpt lat="42.68771" lon="1.64351">
        <ele>1644.78</ele>
        <time>2021-06-13T13:14:28Z</time>
      </trkpt>
      <trkpt lat="42.68771" lon="1.64351">
        <ele>1644.782</ele>
        <time>2021-06-13T13:14:30Z</time>
      </trkpt>
      <trkpt lat="42.68771" lon="1.64351">
        <ele>1644.787</ele>
        <time>2021-06-13T13:14:32Z</time>
      </trkpt>
      <trkpt lat="42.68771" lon="1.64351">
        <ele>1645.066</ele>
        <time>2021-06-13T13:14:34Z</time>
      </trkpt>
      <trkpt lat="42.68771" lon="1.64351">
        <ele>1644.687</ele>
        <time>2021-06-13T13:14:36Z</time>
      </trkpt>
      <trkpt lat="42.68772" lon="1.64352">
        <ele>1644.578</ele>
        <time>2021-06-13T13:14:38Z</time>
      </trkpt>
      <trkpt lat="42.68773" lon="1.64351">
        <ele>1644.251</ele>
        <time>2021-06-13T13:14:40Z</time>
      </trkpt>
      <trkpt lat="42.68775" lon="1.64352">
        <ele>1646.374</ele>
        <time>2021-06-13T13:14:42Z</time>
      </trkpt>
      <trkpt lat="42.68777" lon="1.64353">
        <ele>1646.192</ele>
        <time>2021-06-13T13:14:44Z</time>
      </trkpt>
      <trkpt lat="42.68778" lon="1.64353">
        <ele>1646.346</ele>
        <time>2021-06-13T13:14:46Z</time>
      </trkpt>
      <trkpt lat="42.68778" lon="1.64353">
        <ele>1646.326</ele>
        <time>2021-06-13T13:14:48Z</time>
      </trkpt>
      <trkpt lat="42.68778" lon="1.64353">
        <ele>1646.343</ele>
        <time>2021-06-13T13:14:50Z</time>
      </trkpt>
      <trkpt lat="42.68778" lon="1.64353">
        <ele>1646.343</ele>
        <time>2021-06-13T13:14:52Z</time>
      </trkpt>
      <trkpt lat="42.68778" lon="1.64353">
        <ele>1646.542</ele>
        <time>2021-06-13T13:14:54Z</time>
      </trkpt>
      <trkpt lat="42.68778" lon="1.64353">
        <ele>1646.545</ele>
        <time>2021-06-13T13:14:56Z</time>
      </trkpt>
      <trkpt lat="42.68778" lon="1.64353">
        <ele>1646.55</ele>
        <time>2021-06-13T13:14:58Z</time>
      </trkpt>
      <trkpt lat="42.68778" lon="1.64353">
        <ele>1646.551</ele>
        <time>2021-06-13T13:15:00Z</time>
      </trkpt>
      <trkpt lat="42.68778" lon="1.64353">
        <ele>1645.563</ele>
        <time>2021-06-13T13:15:02Z</time>
      </trkpt>
      <trkpt lat="42.68778" lon="1.64353">
        <ele>1645.586</ele>
        <time>2021-06-13T13:15:04Z</time>
      </trkpt>
      <trkpt lat="42.68776" lon="1.64355">
        <ele>1645.49</ele>
        <time>2021-06-13T13:15:06Z</time>
      </trkpt>
      <trkpt lat="42.68775" lon="1.64357">
        <ele>1644.991</ele>
        <time>2021-06-13T13:15:08Z</time>
      </trkpt>
      <trkpt lat="42.68774" lon="1.64357">
        <ele>1643.528</ele>
        <time>2021-06-13T13:15:10Z</time>
      </trkpt>
      <trkpt lat="42.68774" lon="1.64359">
        <ele>1643.932</ele>
        <time>2021-06-13T13:15:12Z</time>
      </trkpt>
      <trkpt lat="42.68774" lon="1.64358">
        <ele>1642.729</ele>
        <time>2021-06-13T13:15:14Z</time>
      </trkpt>
      <trkpt lat="42.68776" lon="1.64358">
        <ele>1643.328</ele>
        <time>2021-06-13T13:15:16Z</time>
      </trkpt>
      <trkpt lat="42.68777" lon="1.64359">
        <ele>1643.926</ele>
        <time>2021-06-13T13:15:18Z</time>
      </trkpt>
      <trkpt lat="42.68779" lon="1.6436">
        <ele>1644.43</ele>
        <time>2021-06-13T13:15:20Z</time>
      </trkpt>
      <trkpt lat="42.68778" lon="1.6436">
        <ele>1644.104</ele>
        <time>2021-06-13T13:15:22Z</time>
      </trkpt>
      <trkpt lat="42.68778" lon="1.6436">
        <ele>1644.106</ele>
        <time>2021-06-13T13:15:24Z</time>
      </trkpt>
      <trkpt lat="42.68778" lon="1.64359">
        <ele>1644.263</ele>
        <time>2021-06-13T13:15:26Z</time>
      </trkpt>
      <trkpt lat="42.68779" lon="1.6436">
        <ele>1644.806</ele>
        <time>2021-06-13T13:15:28Z</time>
      </trkpt>
      <trkpt lat="42.68779" lon="1.6436">
        <ele>1644.799</ele>
        <time>2021-06-13T13:15:30Z</time>
      </trkpt>
      <trkpt lat="42.68779" lon="1.6436">
        <ele>1644.8</ele>
        <time>2021-06-13T13:15:32Z</time>
      </trkpt>
      <trkpt lat="42.68779" lon="1.6436">
        <ele>1644.806</ele>
        <time>2021-06-13T13:15:34Z</time>
      </trkpt>
      <trkpt lat="42.68779" lon="1.6436">
        <ele>1644.807</ele>
        <time>2021-06-13T13:15:36Z</time>
      </trkpt>
      <trkpt lat="42.68779" lon="1.6436">
        <ele>1644.809</ele>
        <time>2021-06-13T13:15:38Z</time>
      </trkpt>
      <trkpt lat="42.68779" lon="1.6436">
        <ele>1644.808</ele>
        <time>2021-06-13T13:15:40Z</time>
      </trkpt>
      <trkpt lat="42.68779" lon="1.6436">
        <ele>1644.809</ele>
        <time>2021-06-13T13:15:42Z</time>
      </trkpt>
      <trkpt lat="42.68779" lon="1.6436">
        <ele>1644.807</ele>
        <time>2021-06-13T13:15:44Z</time>
      </trkpt>
      <trkpt lat="42.68779" lon="1.6436">
        <ele>1644.8</ele>
        <time>2021-06-13T13:15:46Z</time>
      </trkpt>
      <trkpt lat="42.68779" lon="1.6436">
        <ele>1644.797</ele>
        <time>2021-06-13T13:15:48Z</time>
      </trkpt>
      <trkpt lat="42.68779" lon="1.6436">
        <ele>1644.802</ele>
        <time>2021-06-13T13:15:50Z</time>
      </trkpt>
      <trkpt lat="42.68779" lon="1.6436">
        <ele>1644.805</ele>
        <time>2021-06-13T13:15:52Z</time>
      </trkpt>
      <trkpt lat="42.68779" lon="1.6436">
        <ele>1644.806</ele>
        <time>2021-06-13T13:15:54Z</time>
      </trkpt>
      <trkpt lat="42.68779" lon="1.6436">
        <ele>1644.816</ele>
        <time>2021-06-13T13:15:56Z</time>
      </trkpt>
      <trkpt lat="42.68779" lon="1.6436">
        <ele>1644.823</ele>
        <time>2021-06-13T13:15:58Z</time>
      </trkpt>
      <trkpt lat="42.68779" lon="1.6436">
        <ele>1644.827</ele>
        <time>2021-06-13T13:16:00Z</time>
      </trkpt>
      <trkpt lat="42.68779" lon="1.6436">
        <ele>1644.839</ele>
        <time>2021-06-13T13:16:02Z</time>
      </trkpt>
      <trkpt lat="42.68779" lon="1.6436">
        <ele>1644.849</ele>
        <time>2021-06-13T13:16:04Z</time>
      </trkpt>
      <trkpt lat="42.68779" lon="1.6436">
        <ele>1644.845</ele>
        <time>2021-06-13T13:16:06Z</time>
      </trkpt>
      <trkpt lat="42.68779" lon="1.6436">
        <ele>1644.919</ele>
        <time>2021-06-13T13:16:08Z</time>
      </trkpt>
      <trkpt lat="42.68779" lon="1.6436">
        <ele>1644.214</ele>
        <time>2021-06-13T13:16:10Z</time>
      </trkpt>
      <trkpt lat="42.68778" lon="1.6436">
        <ele>1644.063</ele>
        <time>2021-06-13T13:16:12Z</time>
      </trkpt>
      <trkpt lat="42.68778" lon="1.6436">
        <ele>1643.849</ele>
        <time>2021-06-13T13:16:14Z</time>
      </trkpt>
      <trkpt lat="42.68775" lon="1.64361">
        <ele>1643.462</ele>
        <time>2021-06-13T13:16:16Z</time>
      </trkpt>
      <trkpt lat="42.68775" lon="1.64363">
        <ele>1643.03</ele>
        <time>2021-06-13T13:16:18Z</time>
      </trkpt>
      <trkpt lat="42.68777" lon="1.64364">
        <ele>1643.19</ele>
        <time>2021-06-13T13:16:20Z</time>
      </trkpt>
      <trkpt lat="42.68778" lon="1.64365">
        <ele>1643.223</ele>
        <time>2021-06-13T13:16:22Z</time>
      </trkpt>
      <trkpt lat="42.68779" lon="1.64365">
        <ele>1642.885</ele>
        <time>2021-06-13T13:16:24Z</time>
      </trkpt>
      <trkpt lat="42.68781" lon="1.64366">
        <ele>1643.663</ele>
        <time>2021-06-13T13:16:26Z</time>
      </trkpt>
      <trkpt lat="42.68782" lon="1.64367">
        <ele>1643.645</ele>
        <time>2021-06-13T13:16:28Z</time>
      </trkpt>
      <trkpt lat="42.68783" lon="1.64368">
        <ele>1644.013</ele>
        <time>2021-06-13T13:16:30Z</time>
      </trkpt>
      <trkpt lat="42.68783" lon="1.64368">
        <ele>1643.897</ele>
        <time>2021-06-13T13:16:32Z</time>
      </trkpt>
      <trkpt lat="42.68784" lon="1.64369">
        <ele>1643.467</ele>
        <time>2021-06-13T13:16:34Z</time>
      </trkpt>
      <trkpt lat="42.68786" lon="1.64371">
        <ele>1645.38</ele>
        <time>2021-06-13T13:16:36Z</time>
      </trkpt>
      <trkpt lat="42.68787" lon="1.64372">
        <ele>1646.133</ele>
        <time>2021-06-13T13:16:38Z</time>
      </trkpt>
      <trkpt lat="42.68786" lon="1.6437">
        <ele>1643.558</ele>
        <time>2021-06-13T13:16:40Z</time>
      </trkpt>
      <trkpt lat="42.68788" lon="1.64371">
        <ele>1642.882</ele>
        <time>2021-06-13T13:16:42Z</time>
      </trkpt>
      <trkpt lat="42.6879" lon="1.64371">
        <ele>1644.114</ele>
        <time>2021-06-13T13:16:44Z</time>
      </trkpt>
      <trkpt lat="42.6879" lon="1.64372">
        <ele>1643.269</ele>
        <time>2021-06-13T13:16:46Z</time>
      </trkpt>
      <trkpt lat="42.68789" lon="1.64372">
        <ele>1642.978</ele>
        <time>2021-06-13T13:16:48Z</time>
      </trkpt>
      <trkpt lat="42.68789" lon="1.64372">
        <ele>1642.561</ele>
        <time>2021-06-13T13:16:50Z</time>
      </trkpt>
      <trkpt lat="42.68789" lon="1.64372">
        <ele>1642.522</ele>
        <time>2021-06-13T13:16:52Z</time>
      </trkpt>
      <trkpt lat="42.6879" lon="1.64372">
        <ele>1640.906</ele>
        <time>2021-06-13T13:16:54Z</time>
      </trkpt>
      <trkpt lat="42.68792" lon="1.64374">
        <ele>1642.568</ele>
        <time>2021-06-13T13:16:56Z</time>
      </trkpt>
      <trkpt lat="42.68792" lon="1.64375">
        <ele>1640.524</ele>
        <time>2021-06-13T13:16:58Z</time>
      </trkpt>
      <trkpt lat="42.68791" lon="1.64376">
        <ele>1639.859</ele>
        <time>2021-06-13T13:17:00Z</time>
      </trkpt>
      <trkpt lat="42.6879" lon="1.64378">
        <ele>1639.755</ele>
        <time>2021-06-13T13:17:02Z</time>
      </trkpt>
      <trkpt lat="42.68787" lon="1.64376">
        <ele>1639.356</ele>
        <time>2021-06-13T13:17:04Z</time>
      </trkpt>
      <trkpt lat="42.68785" lon="1.64375">
        <ele>1638.736</ele>
        <time>2021-06-13T13:17:06Z</time>
      </trkpt>
      <trkpt lat="42.68783" lon="1.64376">
        <ele>1636.79</ele>
        <time>2021-06-13T13:17:08Z</time>
      </trkpt>
      <trkpt lat="42.6878" lon="1.64374">
        <ele>1635.56</ele>
        <time>2021-06-13T13:17:10Z</time>
      </trkpt>
      <trkpt lat="42.68782" lon="1.64373">
        <ele>1635.147</ele>
        <time>2021-06-13T13:17:12Z</time>
      </trkpt>
      <trkpt lat="42.68781" lon="1.64374">
        <ele>1636.074</ele>
        <time>2021-06-13T13:17:14Z</time>
      </trkpt>
      <trkpt lat="42.68779" lon="1.64374">
        <ele>1633.89</ele>
        <time>2021-06-13T13:17:16Z</time>
      </trkpt>
      <trkpt lat="42.68778" lon="1.64375">
        <ele>1633.725</ele>
        <time>2021-06-13T13:17:18Z</time>
      </trkpt>
      <trkpt lat="42.68777" lon="1.64376">
        <ele>1634.827</ele>
        <time>2021-06-13T13:17:20Z</time>
      </trkpt>
      <trkpt lat="42.68775" lon="1.64377">
        <ele>1634.869</ele>
        <time>2021-06-13T13:17:22Z</time>
      </trkpt>
      <trkpt lat="42.68776" lon="1.64376">
        <ele>1634.132</ele>
        <time>2021-06-13T13:17:24Z</time>
      </trkpt>
      <trkpt lat="42.68776" lon="1.64377">
        <ele>1632.806</ele>
        <time>2021-06-13T13:17:26Z</time>
      </trkpt>
      <trkpt lat="42.68778" lon="1.64378">
        <ele>1632.356</ele>
        <time>2021-06-13T13:17:28Z</time>
      </trkpt>
      <trkpt lat="42.68779" lon="1.64379">
        <ele>1631.589</ele>
        <time>2021-06-13T13:17:30Z</time>
      </trkpt>
      <trkpt lat="42.68779" lon="1.64381">
        <ele>1631.86</ele>
        <time>2021-06-13T13:17:32Z</time>
      </trkpt>
      <trkpt lat="42.68778" lon="1.64382">
        <ele>1632.005</ele>
        <time>2021-06-13T13:17:34Z</time>
      </trkpt>
      <trkpt lat="42.68777" lon="1.64381">
        <ele>1632.208</ele>
        <time>2021-06-13T13:17:36Z</time>
      </trkpt>
      <trkpt lat="42.68776" lon="1.64382">
        <ele>1631.427</ele>
        <time>2021-06-13T13:17:38Z</time>
      </trkpt>
      <trkpt lat="42.68775" lon="1.64382">
        <ele>1631.252</ele>
        <time>2021-06-13T13:17:40Z</time>
      </trkpt>
      <trkpt lat="42.68773" lon="1.64383">
        <ele>1631.857</ele>
        <time>2021-06-13T13:17:42Z</time>
      </trkpt>
      <trkpt lat="42.68772" lon="1.64384">
        <ele>1630.181</ele>
        <time>2021-06-13T13:17:44Z</time>
      </trkpt>
      <trkpt lat="42.68772" lon="1.64386">
        <ele>1629.189</ele>
        <time>2021-06-13T13:17:46Z</time>
      </trkpt>
      <trkpt lat="42.68773" lon="1.64387">
        <ele>1628.144</ele>
        <time>2021-06-13T13:17:48Z</time>
      </trkpt>
      <trkpt lat="42.68775" lon="1.64389">
        <ele>1628.152</ele>
        <time>2021-06-13T13:17:50Z</time>
      </trkpt>
      <trkpt lat="42.68777" lon="1.64391">
        <ele>1627.809</ele>
        <time>2021-06-13T13:17:52Z</time>
      </trkpt>
      <trkpt lat="42.68778" lon="1.64392">
        <ele>1627.957</ele>
        <time>2021-06-13T13:17:54Z</time>
      </trkpt>
      <trkpt lat="42.68779" lon="1.64393">
        <ele>1627.857</ele>
        <time>2021-06-13T13:17:56Z</time>
      </trkpt>
      <trkpt lat="42.68777" lon="1.64395">
        <ele>1627.093</ele>
        <time>2021-06-13T13:17:58Z</time>
      </trkpt>
      <trkpt lat="42.68776" lon="1.64395">
        <ele>1625.834</ele>
        <time>2021-06-13T13:18:00Z</time>
      </trkpt>
      <trkpt lat="42.68774" lon="1.64395">
        <ele>1623.675</ele>
        <time>2021-06-13T13:18:02Z</time>
      </trkpt>
      <trkpt lat="42.68773" lon="1.64395">
        <ele>1622.463</ele>
        <time>2021-06-13T13:18:04Z</time>
      </trkpt>
      <trkpt lat="42.68772" lon="1.64396">
        <ele>1622.286</ele>
        <time>2021-06-13T13:18:06Z</time>
      </trkpt>
      <trkpt lat="42.68771" lon="1.64397">
        <ele>1622.012</ele>
        <time>2021-06-13T13:18:08Z</time>
      </trkpt>
      <trkpt lat="42.6877" lon="1.64397">
        <ele>1619.72</ele>
        <time>2021-06-13T13:18:10Z</time>
      </trkpt>
      <trkpt lat="42.68769" lon="1.64398">
        <ele>1619.328</ele>
        <time>2021-06-13T13:18:12Z</time>
      </trkpt>
      <trkpt lat="42.68769" lon="1.64398">
        <ele>1617.866</ele>
        <time>2021-06-13T13:18:13Z</time>
      </trkpt>
      <trkpt lat="42.6877" lon="1.64398">
        <ele>1617.83</ele>
        <time>2021-06-13T13:18:16Z</time>
      </trkpt>
      <trkpt lat="42.68771" lon="1.64398">
        <ele>1617.691</ele>
        <time>2021-06-13T13:18:18Z</time>
      </trkpt>
      <trkpt lat="42.68772" lon="1.64397">
        <ele>1616.894</ele>
        <time>2021-06-13T13:18:20Z</time>
      </trkpt>
      <trkpt lat="42.68775" lon="1.644">
        <ele>1618.873</ele>
        <time>2021-06-13T13:18:22Z</time>
      </trkpt>
      <trkpt lat="42.68775" lon="1.64401">
        <ele>1619.177</ele>
        <time>2021-06-13T13:18:24Z</time>
      </trkpt>
      <trkpt lat="42.68776" lon="1.64403">
        <ele>1618.955</ele>
        <time>2021-06-13T13:18:26Z</time>
      </trkpt>
      <trkpt lat="42.68778" lon="1.64404">
        <ele>1618.046</ele>
        <time>2021-06-13T13:18:28Z</time>
      </trkpt>
      <trkpt lat="42.6878" lon="1.64405">
        <ele>1618.686</ele>
        <time>2021-06-13T13:18:30Z</time>
      </trkpt>
      <trkpt lat="42.68781" lon="1.64407">
        <ele>1620.11</ele>
        <time>2021-06-13T13:18:32Z</time>
      </trkpt>
      <trkpt lat="42.68783" lon="1.64408">
        <ele>1622.158</ele>
        <time>2021-06-13T13:18:34Z</time>
      </trkpt>
      <trkpt lat="42.68785" lon="1.64408">
        <ele>1621.008</ele>
        <time>2021-06-13T13:18:36Z</time>
      </trkpt>
      <trkpt lat="42.68787" lon="1.64408">
        <ele>1620.287</ele>
        <time>2021-06-13T13:18:38Z</time>
      </trkpt>
      <trkpt lat="42.68786" lon="1.64411">
        <ele>1618.599</ele>
        <time>2021-06-13T13:18:40Z</time>
      </trkpt>
      <trkpt lat="42.68784" lon="1.64413">
        <ele>1619.624</ele>
        <time>2021-06-13T13:18:42Z</time>
      </trkpt>
      <trkpt lat="42.68782" lon="1.64414">
        <ele>1619.697</ele>
        <time>2021-06-13T13:18:44Z</time>
      </trkpt>
      <trkpt lat="42.68781" lon="1.64416">
        <ele>1620.355</ele>
        <time>2021-06-13T13:18:46Z</time>
      </trkpt>
      <trkpt lat="42.68779" lon="1.64417">
        <ele>1620.688</ele>
        <time>2021-06-13T13:18:48Z</time>
      </trkpt>
      <trkpt lat="42.68778" lon="1.64417">
        <ele>1619.044</ele>
        <time>2021-06-13T13:18:50Z</time>
      </trkpt>
      <trkpt lat="42.68776" lon="1.64419">
        <ele>1618.597</ele>
        <time>2021-06-13T13:18:52Z</time>
      </trkpt>
      <trkpt lat="42.68774" lon="1.6442">
        <ele>1617.955</ele>
        <time>2021-06-13T13:18:54Z</time>
      </trkpt>
      <trkpt lat="42.68772" lon="1.64421">
        <ele>1617.469</ele>
        <time>2021-06-13T13:18:56Z</time>
      </trkpt>
      <trkpt lat="42.68771" lon="1.64423">
        <ele>1618.013</ele>
        <time>2021-06-13T13:18:58Z</time>
      </trkpt>
      <trkpt lat="42.68771" lon="1.64426">
        <ele>1616.713</ele>
        <time>2021-06-13T13:19:00Z</time>
      </trkpt>
      <trkpt lat="42.68774" lon="1.64425">
        <ele>1612.669</ele>
        <time>2021-06-13T13:19:02Z</time>
      </trkpt>
      <trkpt lat="42.68777" lon="1.64424">
        <ele>1613.965</ele>
        <time>2021-06-13T13:19:04Z</time>
      </trkpt>
      <trkpt lat="42.68779" lon="1.64424">
        <ele>1610.587</ele>
        <time>2021-06-13T13:19:06Z</time>
      </trkpt>
      <trkpt lat="42.68781" lon="1.64425">
        <ele>1610.707</ele>
        <time>2021-06-13T13:19:08Z</time>
      </trkpt>
      <trkpt lat="42.68783" lon="1.64426">
        <ele>1609.468</ele>
        <time>2021-06-13T13:19:10Z</time>
      </trkpt>
      <trkpt lat="42.68781" lon="1.64429">
        <ele>1610.324</ele>
        <time>2021-06-13T13:19:12Z</time>
      </trkpt>
      <trkpt lat="42.6878" lon="1.64431">
        <ele>1610.052</ele>
        <time>2021-06-13T13:19:14Z</time>
      </trkpt>
      <trkpt lat="42.68779" lon="1.64432">
        <ele>1609.413</ele>
        <time>2021-06-13T13:19:16Z</time>
      </trkpt>
      <trkpt lat="42.68777" lon="1.64433">
        <ele>1606.271</ele>
        <time>2021-06-13T13:19:18Z</time>
      </trkpt>
      <trkpt lat="42.68776" lon="1.64434">
        <ele>1606.449</ele>
        <time>2021-06-13T13:19:20Z</time>
      </trkpt>
      <trkpt lat="42.68775" lon="1.64435">
        <ele>1606.322</ele>
        <time>2021-06-13T13:19:22Z</time>
      </trkpt>
      <trkpt lat="42.68774" lon="1.64436">
        <ele>1606.806</ele>
        <time>2021-06-13T13:19:24Z</time>
      </trkpt>
      <trkpt lat="42.68773" lon="1.64437">
        <ele>1605.444</ele>
        <time>2021-06-13T13:19:26Z</time>
      </trkpt>
      <trkpt lat="42.68771" lon="1.64438">
        <ele>1604.232</ele>
        <time>2021-06-13T13:19:28Z</time>
      </trkpt>
      <trkpt lat="42.6877" lon="1.64438">
        <ele>1603.967</ele>
        <time>2021-06-13T13:19:30Z</time>
      </trkpt>
      <trkpt lat="42.68768" lon="1.64439">
        <ele>1605.455</ele>
        <time>2021-06-13T13:19:32Z</time>
      </trkpt>
      <trkpt lat="42.68766" lon="1.64438">
        <ele>1605.316</ele>
        <time>2021-06-13T13:19:34Z</time>
      </trkpt>
      <trkpt lat="42.68765" lon="1.64438">
        <ele>1603.545</ele>
        <time>2021-06-13T13:19:36Z</time>
      </trkpt>
      <trkpt lat="42.68764" lon="1.6444">
        <ele>1604.815</ele>
        <time>2021-06-13T13:19:38Z</time>
      </trkpt>
      <trkpt lat="42.68763" lon="1.64441">
        <ele>1605.317</ele>
        <time>2021-06-13T13:19:40Z</time>
      </trkpt>
      <trkpt lat="42.68762" lon="1.64442">
        <ele>1604.744</ele>
        <time>2021-06-13T13:19:42Z</time>
      </trkpt>
      <trkpt lat="42.68761" lon="1.64443">
        <ele>1601.241</ele>
        <time>2021-06-13T13:19:44Z</time>
      </trkpt>
      <trkpt lat="42.68761" lon="1.64445">
        <ele>1598.338</ele>
        <time>2021-06-13T13:19:46Z</time>
      </trkpt>
      <trkpt lat="42.6876" lon="1.64446">
        <ele>1598.032</ele>
        <time>2021-06-13T13:19:48Z</time>
      </trkpt>
      <trkpt lat="42.6876" lon="1.64446">
        <ele>1597.808</ele>
        <time>2021-06-13T13:19:50Z</time>
      </trkpt>
      <trkpt lat="42.68761" lon="1.64445">
        <ele>1597.803</ele>
        <time>2021-06-13T13:19:52Z</time>
      </trkpt>
      <trkpt lat="42.68761" lon="1.64445">
        <ele>1597.807</ele>
        <time>2021-06-13T13:19:54Z</time>
      </trkpt>
      <trkpt lat="42.68761" lon="1.64445">
        <ele>1597.817</ele>
        <time>2021-06-13T13:19:56Z</time>
      </trkpt>
      <trkpt lat="42.68761" lon="1.64445">
        <ele>1597.821</ele>
        <time>2021-06-13T13:19:58Z</time>
      </trkpt>
      <trkpt lat="42.68761" lon="1.64445">
        <ele>1597.829</ele>
        <time>2021-06-13T13:20:00Z</time>
      </trkpt>
      <trkpt lat="42.68761" lon="1.64445">
        <ele>1597.829</ele>
        <time>2021-06-13T13:20:02Z</time>
      </trkpt>
      <trkpt lat="42.68761" lon="1.64445">
        <ele>1597.827</ele>
        <time>2021-06-13T13:20:04Z</time>
      </trkpt>
      <trkpt lat="42.68761" lon="1.64445">
        <ele>1597.831</ele>
        <time>2021-06-13T13:20:06Z</time>
      </trkpt>
      <trkpt lat="42.68761" lon="1.64445">
        <ele>1597.83</ele>
        <time>2021-06-13T13:20:08Z</time>
      </trkpt>
      <trkpt lat="42.68761" lon="1.64445">
        <ele>1597.845</ele>
        <time>2021-06-13T13:20:10Z</time>
      </trkpt>
      <trkpt lat="42.68761" lon="1.64445">
        <ele>1597.859</ele>
        <time>2021-06-13T13:20:12Z</time>
      </trkpt>
      <trkpt lat="42.68761" lon="1.64445">
        <ele>1597.87</ele>
        <time>2021-06-13T13:20:14Z</time>
      </trkpt>
      <trkpt lat="42.6876" lon="1.64446">
        <ele>1598.505</ele>
        <time>2021-06-13T13:20:16Z</time>
      </trkpt>
      <trkpt lat="42.6876" lon="1.64446">
        <ele>1598.755</ele>
        <time>2021-06-13T13:20:18Z</time>
      </trkpt>
      <trkpt lat="42.6876" lon="1.64446">
        <ele>1598.755</ele>
        <time>2021-06-13T13:20:20Z</time>
      </trkpt>
      <trkpt lat="42.6876" lon="1.64446">
        <ele>1598.755</ele>
        <time>2021-06-13T13:20:22Z</time>
      </trkpt>
      <trkpt lat="42.6876" lon="1.64446">
        <ele>1598.761</ele>
        <time>2021-06-13T13:20:24Z</time>
      </trkpt>
      <trkpt lat="42.6876" lon="1.64446">
        <ele>1598.758</ele>
        <time>2021-06-13T13:20:26Z</time>
      </trkpt>
      <trkpt lat="42.6876" lon="1.64446">
        <ele>1599.009</ele>
        <time>2021-06-13T13:20:28Z</time>
      </trkpt>
      <trkpt lat="42.6876" lon="1.64446">
        <ele>1599.045</ele>
        <time>2021-06-13T13:20:30Z</time>
      </trkpt>
      <trkpt lat="42.6876" lon="1.64446">
        <ele>1599.052</ele>
        <time>2021-06-13T13:20:32Z</time>
      </trkpt>
      <trkpt lat="42.6876" lon="1.64446">
        <ele>1599.049</ele>
        <time>2021-06-13T13:20:34Z</time>
      </trkpt>
      <trkpt lat="42.6876" lon="1.64446">
        <ele>1599.058</ele>
        <time>2021-06-13T13:20:36Z</time>
      </trkpt>
      <trkpt lat="42.6876" lon="1.64447">
        <ele>1598.945</ele>
        <time>2021-06-13T13:20:38Z</time>
      </trkpt>
      <trkpt lat="42.6876" lon="1.64447">
        <ele>1598.934</ele>
        <time>2021-06-13T13:20:40Z</time>
      </trkpt>
      <trkpt lat="42.6876" lon="1.64447">
        <ele>1598.932</ele>
        <time>2021-06-13T13:20:42Z</time>
      </trkpt>
      <trkpt lat="42.6876" lon="1.64447">
        <ele>1598.933</ele>
        <time>2021-06-13T13:20:44Z</time>
      </trkpt>
      <trkpt lat="42.6876" lon="1.64447">
        <ele>1598.926</ele>
        <time>2021-06-13T13:20:46Z</time>
      </trkpt>
      <trkpt lat="42.6876" lon="1.64447">
        <ele>1598.915</ele>
        <time>2021-06-13T13:20:48Z</time>
      </trkpt>
      <trkpt lat="42.6876" lon="1.64447">
        <ele>1598.909</ele>
        <time>2021-06-13T13:20:50Z</time>
      </trkpt>
      <trkpt lat="42.6876" lon="1.64447">
        <ele>1598.909</ele>
        <time>2021-06-13T13:20:52Z</time>
      </trkpt>
      <trkpt lat="42.6876" lon="1.64447">
        <ele>1598.911</ele>
        <time>2021-06-13T13:20:54Z</time>
      </trkpt>
      <trkpt lat="42.6876" lon="1.64448">
        <ele>1599.211</ele>
        <time>2021-06-13T13:20:56Z</time>
      </trkpt>
      <trkpt lat="42.68759" lon="1.6445">
        <ele>1599.364</ele>
        <time>2021-06-13T13:20:58Z</time>
      </trkpt>
      <trkpt lat="42.68759" lon="1.6445">
        <ele>1599.246</ele>
        <time>2021-06-13T13:21:00Z</time>
      </trkpt>
      <trkpt lat="42.68757" lon="1.64454">
        <ele>1599.244</ele>
        <time>2021-06-13T13:21:02Z</time>
      </trkpt>
      <trkpt lat="42.68756" lon="1.64456">
        <ele>1599.679</ele>
        <time>2021-06-13T13:21:04Z</time>
      </trkpt>
      <trkpt lat="42.68755" lon="1.64456">
        <ele>1600.675</ele>
        <time>2021-06-13T13:21:06Z</time>
      </trkpt>
      <trkpt lat="42.68754" lon="1.64457">
        <ele>1601.616</ele>
        <time>2021-06-13T13:21:08Z</time>
      </trkpt>
      <trkpt lat="42.68752" lon="1.64458">
        <ele>1601.795</ele>
        <time>2021-06-13T13:21:10Z</time>
      </trkpt>
      <trkpt lat="42.68751" lon="1.64459">
        <ele>1602.617</ele>
        <time>2021-06-13T13:21:12Z</time>
      </trkpt>
      <trkpt lat="42.6875" lon="1.64459">
        <ele>1602.39</ele>
        <time>2021-06-13T13:21:14Z</time>
      </trkpt>
      <trkpt lat="42.68751" lon="1.64459">
        <ele>1602.196</ele>
        <time>2021-06-13T13:21:16Z</time>
      </trkpt>
      <trkpt lat="42.68751" lon="1.64459">
        <ele>1602.192</ele>
        <time>2021-06-13T13:21:18Z</time>
      </trkpt>
      <trkpt lat="42.6875" lon="1.64458">
        <ele>1601.87</ele>
        <time>2021-06-13T13:21:20Z</time>
      </trkpt>
      <trkpt lat="42.6875" lon="1.64458">
        <ele>1601.679</ele>
        <time>2021-06-13T13:21:22Z</time>
      </trkpt>
      <trkpt lat="42.6875" lon="1.64457">
        <ele>1601.661</ele>
        <time>2021-06-13T13:21:23Z</time>
      </trkpt>
      <trkpt lat="42.6875" lon="1.64457">
        <ele>1601.637</ele>
        <time>2021-06-13T13:21:26Z</time>
      </trkpt>
      <trkpt lat="42.6875" lon="1.64457">
        <ele>1601.631</ele>
        <time>2021-06-13T13:21:28Z</time>
      </trkpt>
      <trkpt lat="42.6875" lon="1.64457">
        <ele>1601.622</ele>
        <time>2021-06-13T13:21:30Z</time>
      </trkpt>
      <trkpt lat="42.6875" lon="1.64457">
        <ele>1601.618</ele>
        <time>2021-06-13T13:21:32Z</time>
      </trkpt>
      <trkpt lat="42.6875" lon="1.64457">
        <ele>1601.612</ele>
        <time>2021-06-13T13:21:34Z</time>
      </trkpt>
      <trkpt lat="42.68749" lon="1.64457">
        <ele>1601.382</ele>
        <time>2021-06-13T13:21:36Z</time>
      </trkpt>
      <trkpt lat="42.68749" lon="1.64458">
        <ele>1601.382</ele>
        <time>2021-06-13T13:21:38Z</time>
      </trkpt>
      <trkpt lat="42.68749" lon="1.64458">
        <ele>1601.458</ele>
        <time>2021-06-13T13:21:40Z</time>
      </trkpt>
      <trkpt lat="42.68749" lon="1.64458">
        <ele>1601.524</ele>
        <time>2021-06-13T13:21:42Z</time>
      </trkpt>
      <trkpt lat="42.68749" lon="1.64458">
        <ele>1601.571</ele>
        <time>2021-06-13T13:21:44Z</time>
      </trkpt>
      <trkpt lat="42.68749" lon="1.64458">
        <ele>1601.606</ele>
        <time>2021-06-13T13:21:46Z</time>
      </trkpt>
      <trkpt lat="42.68749" lon="1.64458">
        <ele>1601.595</ele>
        <time>2021-06-13T13:21:48Z</time>
      </trkpt>
      <trkpt lat="42.68749" lon="1.64458">
        <ele>1601.588</ele>
        <time>2021-06-13T13:21:50Z</time>
      </trkpt>
      <trkpt lat="42.68749" lon="1.64457">
        <ele>1601.666</ele>
        <time>2021-06-13T13:21:52Z</time>
      </trkpt>
      <trkpt lat="42.68748" lon="1.64457">
        <ele>1601.505</ele>
        <time>2021-06-13T13:21:54Z</time>
      </trkpt>
      <trkpt lat="42.68747" lon="1.64456">
        <ele>1601.309</ele>
        <time>2021-06-13T13:21:56Z</time>
      </trkpt>
      <trkpt lat="42.68747" lon="1.64454">
        <ele>1602.284</ele>
        <time>2021-06-13T13:21:58Z</time>
      </trkpt>
      <trkpt lat="42.68746" lon="1.64452">
        <ele>1603.342</ele>
        <time>2021-06-13T13:22:00Z</time>
      </trkpt>
      <trkpt lat="42.68745" lon="1.64451">
        <ele>1604.66</ele>
        <time>2021-06-13T13:22:02Z</time>
      </trkpt>
      <trkpt lat="42.68744" lon="1.64451">
        <ele>1604.895</ele>
        <time>2021-06-13T13:22:04Z</time>
      </trkpt>
      <trkpt lat="42.68741" lon="1.64451">
        <ele>1603.557</ele>
        <time>2021-06-13T13:22:06Z</time>
      </trkpt>
      <trkpt lat="42.68741" lon="1.64451">
        <ele>1603.109</ele>
        <time>2021-06-13T13:22:08Z</time>
      </trkpt>
      <trkpt lat="42.6874" lon="1.64452">
        <ele>1602.798</ele>
        <time>2021-06-13T13:22:10Z</time>
      </trkpt>
      <trkpt lat="42.68739" lon="1.64453">
        <ele>1601.79</ele>
        <time>2021-06-13T13:22:12Z</time>
      </trkpt>
      <trkpt lat="42.68738" lon="1.64453">
        <ele>1601.812</ele>
        <time>2021-06-13T13:22:14Z</time>
      </trkpt>
      <trkpt lat="42.68738" lon="1.64453">
        <ele>1601.762</ele>
        <time>2021-06-13T13:22:16Z</time>
      </trkpt>
      <trkpt lat="42.68738" lon="1.64453">
        <ele>1601.746</ele>
        <time>2021-06-13T13:22:18Z</time>
      </trkpt>
      <trkpt lat="42.68737" lon="1.64452">
        <ele>1601.921</ele>
        <time>2021-06-13T13:22:20Z</time>
      </trkpt>
      <trkpt lat="42.68736" lon="1.64451">
        <ele>1602.099</ele>
        <time>2021-06-13T13:22:22Z</time>
      </trkpt>
      <trkpt lat="42.68736" lon="1.64451">
        <ele>1603.189</ele>
        <time>2021-06-13T13:22:24Z</time>
      </trkpt>
      <trkpt lat="42.68736" lon="1.64451">
        <ele>1603.2</ele>
        <time>2021-06-13T13:22:26Z</time>
      </trkpt>
      <trkpt lat="42.68736" lon="1.64451">
        <ele>1603.185</ele>
        <time>2021-06-13T13:22:28Z</time>
      </trkpt>
      <trkpt lat="42.68736" lon="1.64451">
        <ele>1603.168</ele>
        <time>2021-06-13T13:22:30Z</time>
      </trkpt>
      <trkpt lat="42.68736" lon="1.64452">
        <ele>1603.506</ele>
        <time>2021-06-13T13:22:32Z</time>
      </trkpt>
      <trkpt lat="42.68736" lon="1.64453">
        <ele>1601.351</ele>
        <time>2021-06-13T13:22:34Z</time>
      </trkpt>
      <trkpt lat="42.68734" lon="1.64455">
        <ele>1601.033</ele>
        <time>2021-06-13T13:22:36Z</time>
      </trkpt>
      <trkpt lat="42.68733" lon="1.64456">
        <ele>1600.324</ele>
        <time>2021-06-13T13:22:38Z</time>
      </trkpt>
      <trkpt lat="42.68731" lon="1.64458">
        <ele>1600.627</ele>
        <time>2021-06-13T13:22:40Z</time>
      </trkpt>
      <trkpt lat="42.6873" lon="1.6446">
        <ele>1600.98</ele>
        <time>2021-06-13T13:22:42Z</time>
      </trkpt>
      <trkpt lat="42.68729" lon="1.64461">
        <ele>1600.379</ele>
        <time>2021-06-13T13:22:44Z</time>
      </trkpt>
      <trkpt lat="42.68728" lon="1.64462">
        <ele>1600.844</ele>
        <time>2021-06-13T13:22:46Z</time>
      </trkpt>
      <trkpt lat="42.68727" lon="1.64464">
        <ele>1602.319</ele>
        <time>2021-06-13T13:22:48Z</time>
      </trkpt>
      <trkpt lat="42.68725" lon="1.64464">
        <ele>1600.915</ele>
        <time>2021-06-13T13:22:50Z</time>
      </trkpt>
      <trkpt lat="42.68724" lon="1.64466">
        <ele>1601.264</ele>
        <time>2021-06-13T13:22:52Z</time>
      </trkpt>
      <trkpt lat="42.68723" lon="1.64467">
        <ele>1602.171</ele>
        <time>2021-06-13T13:22:54Z</time>
      </trkpt>
      <trkpt lat="42.68722" lon="1.64468">
        <ele>1603.637</ele>
        <time>2021-06-13T13:22:56Z</time>
      </trkpt>
      <trkpt lat="42.68722" lon="1.64467">
        <ele>1603.121</ele>
        <time>2021-06-13T13:22:58Z</time>
      </trkpt>
      <trkpt lat="42.68722" lon="1.64468">
        <ele>1602.583</ele>
        <time>2021-06-13T13:23:00Z</time>
      </trkpt>
      <trkpt lat="42.68721" lon="1.6447">
        <ele>1602.729</ele>
        <time>2021-06-13T13:23:02Z</time>
      </trkpt>
      <trkpt lat="42.68721" lon="1.6447">
        <ele>1602.709</ele>
        <time>2021-06-13T13:23:04Z</time>
      </trkpt>
      <trkpt lat="42.68721" lon="1.64469">
        <ele>1602.608</ele>
        <time>2021-06-13T13:23:06Z</time>
      </trkpt>
      <trkpt lat="42.68721" lon="1.64469">
        <ele>1602.62</ele>
        <time>2021-06-13T13:23:08Z</time>
      </trkpt>
      <trkpt lat="42.68721" lon="1.64469">
        <ele>1602.614</ele>
        <time>2021-06-13T13:23:10Z</time>
      </trkpt>
      <trkpt lat="42.68721" lon="1.64469">
        <ele>1602.621</ele>
        <time>2021-06-13T13:23:12Z</time>
      </trkpt>
      <trkpt lat="42.68721" lon="1.64469">
        <ele>1602.622</ele>
        <time>2021-06-13T13:23:14Z</time>
      </trkpt>
      <trkpt lat="42.68721" lon="1.64469">
        <ele>1602.624</ele>
        <time>2021-06-13T13:23:16Z</time>
      </trkpt>
      <trkpt lat="42.68721" lon="1.64469">
        <ele>1602.51</ele>
        <time>2021-06-13T13:23:18Z</time>
      </trkpt>
      <trkpt lat="42.68721" lon="1.64469">
        <ele>1602.521</ele>
        <time>2021-06-13T13:23:20Z</time>
      </trkpt>
      <trkpt lat="42.68721" lon="1.64469">
        <ele>1602.531</ele>
        <time>2021-06-13T13:23:22Z</time>
      </trkpt>
      <trkpt lat="42.68721" lon="1.64469">
        <ele>1602.534</ele>
        <time>2021-06-13T13:23:24Z</time>
      </trkpt>
      <trkpt lat="42.68721" lon="1.64469">
        <ele>1602.762</ele>
        <time>2021-06-13T13:23:26Z</time>
      </trkpt>
      <trkpt lat="42.68721" lon="1.64469">
        <ele>1602.768</ele>
        <time>2021-06-13T13:23:28Z</time>
      </trkpt>
      <trkpt lat="42.68721" lon="1.64469">
        <ele>1602.766</ele>
        <time>2021-06-13T13:23:30Z</time>
      </trkpt>
      <trkpt lat="42.68721" lon="1.64469">
        <ele>1602.716</ele>
        <time>2021-06-13T13:23:32Z</time>
      </trkpt>
      <trkpt lat="42.68721" lon="1.6447">
        <ele>1602.719</ele>
        <time>2021-06-13T13:23:34Z</time>
      </trkpt>
      <trkpt lat="42.68721" lon="1.6447">
        <ele>1602.716</ele>
        <time>2021-06-13T13:23:36Z</time>
      </trkpt>
      <trkpt lat="42.68721" lon="1.6447">
        <ele>1602.711</ele>
        <time>2021-06-13T13:23:38Z</time>
      </trkpt>
      <trkpt lat="42.68721" lon="1.6447">
        <ele>1602.61</ele>
        <time>2021-06-13T13:23:40Z</time>
      </trkpt>
      <trkpt lat="42.68721" lon="1.6447">
        <ele>1602.598</ele>
        <time>2021-06-13T13:23:42Z</time>
      </trkpt>
      <trkpt lat="42.6872" lon="1.6447">
        <ele>1602.222</ele>
        <time>2021-06-13T13:23:44Z</time>
      </trkpt>
      <trkpt lat="42.6872" lon="1.64471">
        <ele>1601.256</ele>
        <time>2021-06-13T13:23:46Z</time>
      </trkpt>
      <trkpt lat="42.6872" lon="1.64471">
        <ele>1601.08</ele>
        <time>2021-06-13T13:23:48Z</time>
      </trkpt>
      <trkpt lat="42.6872" lon="1.64471">
        <ele>1601.084</ele>
        <time>2021-06-13T13:23:50Z</time>
      </trkpt>
      <trkpt lat="42.6872" lon="1.64471">
        <ele>1601.087</ele>
        <time>2021-06-13T13:23:52Z</time>
      </trkpt>
      <trkpt lat="42.6872" lon="1.64471">
        <ele>1601.093</ele>
        <time>2021-06-13T13:23:54Z</time>
      </trkpt>
      <trkpt lat="42.6872" lon="1.64471">
        <ele>1601.091</ele>
        <time>2021-06-13T13:23:56Z</time>
      </trkpt>
      <trkpt lat="42.6872" lon="1.64471">
        <ele>1601.098</ele>
        <time>2021-06-13T13:23:58Z</time>
      </trkpt>
      <trkpt lat="42.6872" lon="1.64471">
        <ele>1601.105</ele>
        <time>2021-06-13T13:24:00Z</time>
      </trkpt>
      <trkpt lat="42.6872" lon="1.64471">
        <ele>1601.114</ele>
        <time>2021-06-13T13:24:02Z</time>
      </trkpt>
      <trkpt lat="42.6872" lon="1.64471">
        <ele>1601.114</ele>
        <time>2021-06-13T13:24:04Z</time>
      </trkpt>
      <trkpt lat="42.6872" lon="1.64471">
        <ele>1601.109</ele>
        <time>2021-06-13T13:24:06Z</time>
      </trkpt>
      <trkpt lat="42.6872" lon="1.64471">
        <ele>1601.108</ele>
        <time>2021-06-13T13:24:08Z</time>
      </trkpt>
      <trkpt lat="42.6872" lon="1.64471">
        <ele>1601.11</ele>
        <time>2021-06-13T13:24:10Z</time>
      </trkpt>
      <trkpt lat="42.6872" lon="1.64471">
        <ele>1601.108</ele>
        <time>2021-06-13T13:24:12Z</time>
      </trkpt>
      <trkpt lat="42.6872" lon="1.64471">
        <ele>1601.116</ele>
        <time>2021-06-13T13:24:14Z</time>
      </trkpt>
      <trkpt lat="42.6872" lon="1.64471">
        <ele>1601.128</ele>
        <time>2021-06-13T13:24:16Z</time>
      </trkpt>
      <trkpt lat="42.6872" lon="1.64471">
        <ele>1601.143</ele>
        <time>2021-06-13T13:24:18Z</time>
      </trkpt>
      <trkpt lat="42.6872" lon="1.64471">
        <ele>1601.155</ele>
        <time>2021-06-13T13:24:20Z</time>
      </trkpt>
      <trkpt lat="42.6872" lon="1.64471">
        <ele>1601.167</ele>
        <time>2021-06-13T13:24:22Z</time>
      </trkpt>
      <trkpt lat="42.6872" lon="1.64471">
        <ele>1601.177</ele>
        <time>2021-06-13T13:24:24Z</time>
      </trkpt>
      <trkpt lat="42.6872" lon="1.64471">
        <ele>1601.193</ele>
        <time>2021-06-13T13:24:26Z</time>
      </trkpt>
      <trkpt lat="42.6872" lon="1.64471">
        <ele>1601.195</ele>
        <time>2021-06-13T13:24:28Z</time>
      </trkpt>
      <trkpt lat="42.6872" lon="1.64471">
        <ele>1601.199</ele>
        <time>2021-06-13T13:24:30Z</time>
      </trkpt>
      <trkpt lat="42.6872" lon="1.64471">
        <ele>1601.206</ele>
        <time>2021-06-13T13:24:32Z</time>
      </trkpt>
      <trkpt lat="42.6872" lon="1.64471">
        <ele>1601.21</ele>
        <time>2021-06-13T13:24:34Z</time>
      </trkpt>
      <trkpt lat="42.6872" lon="1.64471">
        <ele>1601.2</ele>
        <time>2021-06-13T13:24:36Z</time>
      </trkpt>
      <trkpt lat="42.6872" lon="1.64471">
        <ele>1601.191</ele>
        <time>2021-06-13T13:24:38Z</time>
      </trkpt>
      <trkpt lat="42.6872" lon="1.64471">
        <ele>1601.19</ele>
        <time>2021-06-13T13:24:40Z</time>
      </trkpt>
      <trkpt lat="42.68721" lon="1.64471">
        <ele>1601.535</ele>
        <time>2021-06-13T13:24:42Z</time>
      </trkpt>
      <trkpt lat="42.68721" lon="1.64471">
        <ele>1601.517</ele>
        <time>2021-06-13T13:24:44Z</time>
      </trkpt>
      <trkpt lat="42.68721" lon="1.64471">
        <ele>1601.521</ele>
        <time>2021-06-13T13:24:46Z</time>
      </trkpt>
      <trkpt lat="42.68721" lon="1.64471">
        <ele>1601.533</ele>
        <time>2021-06-13T13:24:48Z</time>
      </trkpt>
      <trkpt lat="42.68721" lon="1.64471">
        <ele>1601.535</ele>
        <time>2021-06-13T13:24:50Z</time>
      </trkpt>
      <trkpt lat="42.68721" lon="1.64471">
        <ele>1601.534</ele>
        <time>2021-06-13T13:24:52Z</time>
      </trkpt>
      <trkpt lat="42.68721" lon="1.64471">
        <ele>1601.525</ele>
        <time>2021-06-13T13:24:54Z</time>
      </trkpt>
      <trkpt lat="42.68721" lon="1.64472">
        <ele>1601.25</ele>
        <time>2021-06-13T13:24:56Z</time>
      </trkpt>
      <trkpt lat="42.68721" lon="1.64472">
        <ele>1601.245</ele>
        <time>2021-06-13T13:24:58Z</time>
      </trkpt>
      <trkpt lat="42.68721" lon="1.64471">
        <ele>1600.634</ele>
        <time>2021-06-13T13:25:00Z</time>
      </trkpt>
      <trkpt lat="42.68721" lon="1.64471">
        <ele>1599.81</ele>
        <time>2021-06-13T13:25:02Z</time>
      </trkpt>
      <trkpt lat="42.6872" lon="1.64471">
        <ele>1599.922</ele>
        <time>2021-06-13T13:25:04Z</time>
      </trkpt>
      <trkpt lat="42.6872" lon="1.64471">
        <ele>1599.923</ele>
        <time>2021-06-13T13:25:06Z</time>
      </trkpt>
      <trkpt lat="42.6872" lon="1.64471">
        <ele>1599.645</ele>
        <time>2021-06-13T13:25:08Z</time>
      </trkpt>
      <trkpt lat="42.68719" lon="1.64472">
        <ele>1598.856</ele>
        <time>2021-06-13T13:25:10Z</time>
      </trkpt>
      <trkpt lat="42.68719" lon="1.64472">
        <ele>1597.29</ele>
        <time>2021-06-13T13:25:12Z</time>
      </trkpt>
      <trkpt lat="42.68717" lon="1.64473">
        <ele>1596.272</ele>
        <time>2021-06-13T13:25:14Z</time>
      </trkpt>
      <trkpt lat="42.68716" lon="1.64475">
        <ele>1596.173</ele>
        <time>2021-06-13T13:25:16Z</time>
      </trkpt>
      <trkpt lat="42.68715" lon="1.64476">
        <ele>1595.94</ele>
        <time>2021-06-13T13:25:18Z</time>
      </trkpt>
      <trkpt lat="42.68714" lon="1.64478">
        <ele>1596.29</ele>
        <time>2021-06-13T13:25:20Z</time>
      </trkpt>
      <trkpt lat="42.68712" lon="1.6448">
        <ele>1596.936</ele>
        <time>2021-06-13T13:25:22Z</time>
      </trkpt>
      <trkpt lat="42.6871" lon="1.64482">
        <ele>1597.762</ele>
        <time>2021-06-13T13:25:24Z</time>
      </trkpt>
      <trkpt lat="42.68708" lon="1.64484">
        <ele>1597.938</ele>
        <time>2021-06-13T13:25:26Z</time>
      </trkpt>
      <trkpt lat="42.68707" lon="1.64486">
        <ele>1598.533</ele>
        <time>2021-06-13T13:25:28Z</time>
      </trkpt>
      <trkpt lat="42.68706" lon="1.64488">
        <ele>1597.927</ele>
        <time>2021-06-13T13:25:30Z</time>
      </trkpt>
      <trkpt lat="42.68705" lon="1.64491">
        <ele>1598.552</ele>
        <time>2021-06-13T13:25:32Z</time>
      </trkpt>
      <trkpt lat="42.68703" lon="1.64492">
        <ele>1597.443</ele>
        <time>2021-06-13T13:25:34Z</time>
      </trkpt>
      <trkpt lat="42.68702" lon="1.64495">
        <ele>1598.815</ele>
        <time>2021-06-13T13:25:36Z</time>
      </trkpt>
      <trkpt lat="42.687" lon="1.64497">
        <ele>1600.23</ele>
        <time>2021-06-13T13:25:38Z</time>
      </trkpt>
      <trkpt lat="42.68699" lon="1.645">
        <ele>1600.392</ele>
        <time>2021-06-13T13:25:40Z</time>
      </trkpt>
      <trkpt lat="42.68697" lon="1.64502">
        <ele>1599.869</ele>
        <time>2021-06-13T13:25:42Z</time>
      </trkpt>
      <trkpt lat="42.68696" lon="1.64504">
        <ele>1599.156</ele>
        <time>2021-06-13T13:25:44Z</time>
      </trkpt>
      <trkpt lat="42.68696" lon="1.64507">
        <ele>1600.405</ele>
        <time>2021-06-13T13:25:46Z</time>
      </trkpt>
      <trkpt lat="42.68695" lon="1.6451">
        <ele>1599.508</ele>
        <time>2021-06-13T13:25:48Z</time>
      </trkpt>
      <trkpt lat="42.68694" lon="1.64512">
        <ele>1599.272</ele>
        <time>2021-06-13T13:25:50Z</time>
      </trkpt>
      <trkpt lat="42.68693" lon="1.64515">
        <ele>1599.436</ele>
        <time>2021-06-13T13:25:52Z</time>
      </trkpt>
      <trkpt lat="42.68692" lon="1.64518">
        <ele>1598.797</ele>
        <time>2021-06-13T13:25:54Z</time>
      </trkpt>
      <trkpt lat="42.68692" lon="1.6452">
        <ele>1596.887</ele>
        <time>2021-06-13T13:25:56Z</time>
      </trkpt>
      <trkpt lat="42.6869" lon="1.64522">
        <ele>1597.42</ele>
        <time>2021-06-13T13:25:58Z</time>
      </trkpt>
      <trkpt lat="42.68689" lon="1.64524">
        <ele>1595.597</ele>
        <time>2021-06-13T13:26:00Z</time>
      </trkpt>
      <trkpt lat="42.68688" lon="1.64526">
        <ele>1594.809</ele>
        <time>2021-06-13T13:26:02Z</time>
      </trkpt>
      <trkpt lat="42.68686" lon="1.64527">
        <ele>1594.254</ele>
        <time>2021-06-13T13:26:04Z</time>
      </trkpt>
      <trkpt lat="42.68685" lon="1.64529">
        <ele>1594.045</ele>
        <time>2021-06-13T13:26:06Z</time>
      </trkpt>
      <trkpt lat="42.68684" lon="1.64531">
        <ele>1593.184</ele>
        <time>2021-06-13T13:26:08Z</time>
      </trkpt>
      <trkpt lat="42.68682" lon="1.64532">
        <ele>1592.698</ele>
        <time>2021-06-13T13:26:10Z</time>
      </trkpt>
      <trkpt lat="42.6868" lon="1.64533">
        <ele>1592.133</ele>
        <time>2021-06-13T13:26:12Z</time>
      </trkpt>
      <trkpt lat="42.68677" lon="1.64534">
        <ele>1591.627</ele>
        <time>2021-06-13T13:26:14Z</time>
      </trkpt>
      <trkpt lat="42.68675" lon="1.64535">
        <ele>1590.853</ele>
        <time>2021-06-13T13:26:16Z</time>
      </trkpt>
      <trkpt lat="42.68673" lon="1.64536">
        <ele>1590.239</ele>
        <time>2021-06-13T13:26:18Z</time>
      </trkpt>
      <trkpt lat="42.6867" lon="1.64536">
        <ele>1589.873</ele>
        <time>2021-06-13T13:26:20Z</time>
      </trkpt>
      <trkpt lat="42.68668" lon="1.64536">
        <ele>1589.165</ele>
        <time>2021-06-13T13:26:22Z</time>
      </trkpt>
      <trkpt lat="42.68665" lon="1.64537">
        <ele>1588.4</ele>
        <time>2021-06-13T13:26:24Z</time>
      </trkpt>
      <trkpt lat="42.68664" lon="1.64538">
        <ele>1587.636</ele>
        <time>2021-06-13T13:26:26Z</time>
      </trkpt>
      <trkpt lat="42.68661" lon="1.64538">
        <ele>1586.982</ele>
        <time>2021-06-13T13:26:28Z</time>
      </trkpt>
      <trkpt lat="42.68659" lon="1.64538">
        <ele>1586.474</ele>
        <time>2021-06-13T13:26:30Z</time>
      </trkpt>
      <trkpt lat="42.68657" lon="1.64539">
        <ele>1586.021</ele>
        <time>2021-06-13T13:26:32Z</time>
      </trkpt>
      <trkpt lat="42.68655" lon="1.64539">
        <ele>1585.861</ele>
        <time>2021-06-13T13:26:34Z</time>
      </trkpt>
      <trkpt lat="42.68653" lon="1.64541">
        <ele>1585.242</ele>
        <time>2021-06-13T13:26:36Z</time>
      </trkpt>
      <trkpt lat="42.6865" lon="1.64542">
        <ele>1586.566</ele>
        <time>2021-06-13T13:26:38Z</time>
      </trkpt>
      <trkpt lat="42.68648" lon="1.64542">
        <ele>1586.269</ele>
        <time>2021-06-13T13:26:40Z</time>
      </trkpt>
      <trkpt lat="42.68646" lon="1.64543">
        <ele>1584.715</ele>
        <time>2021-06-13T13:26:42Z</time>
      </trkpt>
      <trkpt lat="42.68643" lon="1.64544">
        <ele>1584.862</ele>
        <time>2021-06-13T13:26:44Z</time>
      </trkpt>
      <trkpt lat="42.68641" lon="1.64545">
        <ele>1584.255</ele>
        <time>2021-06-13T13:26:46Z</time>
      </trkpt>
      <trkpt lat="42.68639" lon="1.64546">
        <ele>1582.68</ele>
        <time>2021-06-13T13:26:48Z</time>
      </trkpt>
      <trkpt lat="42.68637" lon="1.64546">
        <ele>1582.87</ele>
        <time>2021-06-13T13:26:50Z</time>
      </trkpt>
      <trkpt lat="42.68635" lon="1.64547">
        <ele>1582.05</ele>
        <time>2021-06-13T13:26:52Z</time>
      </trkpt>
      <trkpt lat="42.68632" lon="1.64547">
        <ele>1581.969</ele>
        <time>2021-06-13T13:26:54Z</time>
      </trkpt>
      <trkpt lat="42.6863" lon="1.64547">
        <ele>1581.749</ele>
        <time>2021-06-13T13:26:56Z</time>
      </trkpt>
      <trkpt lat="42.68627" lon="1.64547">
        <ele>1580.875</ele>
        <time>2021-06-13T13:26:58Z</time>
      </trkpt>
      <trkpt lat="42.68625" lon="1.64547">
        <ele>1580.765</ele>
        <time>2021-06-13T13:27:00Z</time>
      </trkpt>
      <trkpt lat="42.68622" lon="1.64546">
        <ele>1579.86</ele>
        <time>2021-06-13T13:27:02Z</time>
      </trkpt>
      <trkpt lat="42.6862" lon="1.64546">
        <ele>1579.298</ele>
        <time>2021-06-13T13:27:04Z</time>
      </trkpt>
      <trkpt lat="42.68617" lon="1.64546">
        <ele>1579.946</ele>
        <time>2021-06-13T13:27:06Z</time>
      </trkpt>
      <trkpt lat="42.68614" lon="1.64546">
        <ele>1580.878</ele>
        <time>2021-06-13T13:27:08Z</time>
      </trkpt>
      <trkpt lat="42.68612" lon="1.64546">
        <ele>1581.336</ele>
        <time>2021-06-13T13:27:10Z</time>
      </trkpt>
      <trkpt lat="42.68609" lon="1.64547">
        <ele>1581.572</ele>
        <time>2021-06-13T13:27:12Z</time>
      </trkpt>
      <trkpt lat="42.68607" lon="1.64547">
        <ele>1581.794</ele>
        <time>2021-06-13T13:27:14Z</time>
      </trkpt>
      <trkpt lat="42.68604" lon="1.64547">
        <ele>1580.271</ele>
        <time>2021-06-13T13:27:16Z</time>
      </trkpt>
      <trkpt lat="42.68602" lon="1.64547">
        <ele>1579.868</ele>
        <time>2021-06-13T13:27:18Z</time>
      </trkpt>
      <trkpt lat="42.68599" lon="1.64547">
        <ele>1580.301</ele>
        <time>2021-06-13T13:27:20Z</time>
      </trkpt>
      <trkpt lat="42.68597" lon="1.64548">
        <ele>1581.218</ele>
        <time>2021-06-13T13:27:22Z</time>
      </trkpt>
      <trkpt lat="42.68594" lon="1.64548">
        <ele>1580.391</ele>
        <time>2021-06-13T13:27:24Z</time>
      </trkpt>
      <trkpt lat="42.68592" lon="1.64548">
        <ele>1580.791</ele>
        <time>2021-06-13T13:27:26Z</time>
      </trkpt>
      <trkpt lat="42.68589" lon="1.64547">
        <ele>1581.366</ele>
        <time>2021-06-13T13:27:28Z</time>
      </trkpt>
      <trkpt lat="42.68587" lon="1.64547">
        <ele>1580.267</ele>
        <time>2021-06-13T13:27:30Z</time>
      </trkpt>
      <trkpt lat="42.68584" lon="1.64547">
        <ele>1581.959</ele>
        <time>2021-06-13T13:27:32Z</time>
      </trkpt>
      <trkpt lat="42.68582" lon="1.64548">
        <ele>1581.678</ele>
        <time>2021-06-13T13:27:34Z</time>
      </trkpt>
      <trkpt lat="42.68579" lon="1.64549">
        <ele>1582.19</ele>
        <time>2021-06-13T13:27:36Z</time>
      </trkpt>
      <trkpt lat="42.68577" lon="1.6455">
        <ele>1580.995</ele>
        <time>2021-06-13T13:27:38Z</time>
      </trkpt>
      <trkpt lat="42.68575" lon="1.64551">
        <ele>1579.474</ele>
        <time>2021-06-13T13:27:40Z</time>
      </trkpt>
      <trkpt lat="42.68573" lon="1.64552">
        <ele>1579.912</ele>
        <time>2021-06-13T13:27:42Z</time>
      </trkpt>
      <trkpt lat="42.6857" lon="1.64552">
        <ele>1578.702</ele>
        <time>2021-06-13T13:27:44Z</time>
      </trkpt>
      <trkpt lat="42.68568" lon="1.64553">
        <ele>1578.87</ele>
        <time>2021-06-13T13:27:46Z</time>
      </trkpt>
      <trkpt lat="42.68565" lon="1.64552">
        <ele>1576.705</ele>
        <time>2021-06-13T13:27:48Z</time>
      </trkpt>
      <trkpt lat="42.68562" lon="1.64551">
        <ele>1577.661</ele>
        <time>2021-06-13T13:27:50Z</time>
      </trkpt>
      <trkpt lat="42.68559" lon="1.6455">
        <ele>1578.397</ele>
        <time>2021-06-13T13:27:52Z</time>
      </trkpt>
      <trkpt lat="42.68557" lon="1.64548">
        <ele>1578.609</ele>
        <time>2021-06-13T13:27:54Z</time>
      </trkpt>
      <trkpt lat="42.68554" lon="1.64546">
        <ele>1579.065</ele>
        <time>2021-06-13T13:27:56Z</time>
      </trkpt>
      <trkpt lat="42.68552" lon="1.64546">
        <ele>1579.732</ele>
        <time>2021-06-13T13:27:58Z</time>
      </trkpt>
      <trkpt lat="42.6855" lon="1.64545">
        <ele>1580.171</ele>
        <time>2021-06-13T13:28:00Z</time>
      </trkpt>
      <trkpt lat="42.68548" lon="1.64545">
        <ele>1581.771</ele>
        <time>2021-06-13T13:28:02Z</time>
      </trkpt>
      <trkpt lat="42.68548" lon="1.64546">
        <ele>1581.725</ele>
        <time>2021-06-13T13:28:04Z</time>
      </trkpt>
      <trkpt lat="42.68548" lon="1.64546">
        <ele>1581.709</ele>
        <time>2021-06-13T13:28:06Z</time>
      </trkpt>
      <trkpt lat="42.68548" lon="1.64546">
        <ele>1581.714</ele>
        <time>2021-06-13T13:28:08Z</time>
      </trkpt>
      <trkpt lat="42.68548" lon="1.64546">
        <ele>1581.711</ele>
        <time>2021-06-13T13:28:10Z</time>
      </trkpt>
      <trkpt lat="42.68548" lon="1.64546">
        <ele>1581.711</ele>
        <time>2021-06-13T13:28:11Z</time>
      </trkpt>
      <trkpt lat="42.68548" lon="1.64546">
        <ele>1581.719</ele>
        <time>2021-06-13T13:28:14Z</time>
      </trkpt>
      <trkpt lat="42.68548" lon="1.64546">
        <ele>1581.722</ele>
        <time>2021-06-13T13:28:16Z</time>
      </trkpt>
      <trkpt lat="42.68548" lon="1.64546">
        <ele>1581.718</ele>
        <time>2021-06-13T13:28:18Z</time>
      </trkpt>
      <trkpt lat="42.68548" lon="1.64546">
        <ele>1581.698</ele>
        <time>2021-06-13T13:28:20Z</time>
      </trkpt>
      <trkpt lat="42.68548" lon="1.64546">
        <ele>1581.702</ele>
        <time>2021-06-13T13:28:22Z</time>
      </trkpt>
      <trkpt lat="42.68548" lon="1.64546">
        <ele>1581.705</ele>
        <time>2021-06-13T13:28:24Z</time>
      </trkpt>
      <trkpt lat="42.68548" lon="1.64546">
        <ele>1581.704</ele>
        <time>2021-06-13T13:28:26Z</time>
      </trkpt>
      <trkpt lat="42.68548" lon="1.64546">
        <ele>1581.692</ele>
        <time>2021-06-13T13:28:28Z</time>
      </trkpt>
      <trkpt lat="42.68548" lon="1.64546">
        <ele>1581.697</ele>
        <time>2021-06-13T13:28:30Z</time>
      </trkpt>
      <trkpt lat="42.68548" lon="1.64546">
        <ele>1581.699</ele>
        <time>2021-06-13T13:28:32Z</time>
      </trkpt>
      <trkpt lat="42.68548" lon="1.64546">
        <ele>1581.703</ele>
        <time>2021-06-13T13:28:34Z</time>
      </trkpt>
      <trkpt lat="42.68548" lon="1.64546">
        <ele>1581.717</ele>
        <time>2021-06-13T13:28:36Z</time>
      </trkpt>
      <trkpt lat="42.68548" lon="1.64546">
        <ele>1581.731</ele>
        <time>2021-06-13T13:28:38Z</time>
      </trkpt>
      <trkpt lat="42.68548" lon="1.64546">
        <ele>1581.732</ele>
        <time>2021-06-13T13:28:40Z</time>
      </trkpt>
      <trkpt lat="42.68548" lon="1.64546">
        <ele>1581.742</ele>
        <time>2021-06-13T13:28:42Z</time>
      </trkpt>
      <trkpt lat="42.68548" lon="1.64546">
        <ele>1581.76</ele>
        <time>2021-06-13T13:28:44Z</time>
      </trkpt>
      <trkpt lat="42.68548" lon="1.64546">
        <ele>1581.77</ele>
        <time>2021-06-13T13:28:46Z</time>
      </trkpt>
      <trkpt lat="42.68548" lon="1.64546">
        <ele>1581.755</ele>
        <time>2021-06-13T13:28:48Z</time>
      </trkpt>
      <trkpt lat="42.68548" lon="1.64545">
        <ele>1581.554</ele>
        <time>2021-06-13T13:28:50Z</time>
      </trkpt>
      <trkpt lat="42.68549" lon="1.64545">
        <ele>1581.302</ele>
        <time>2021-06-13T13:28:52Z</time>
      </trkpt>
      <trkpt lat="42.68549" lon="1.64545">
        <ele>1581.131</ele>
        <time>2021-06-13T13:28:54Z</time>
      </trkpt>
      <trkpt lat="42.68549" lon="1.64545">
        <ele>1581.149</ele>
        <time>2021-06-13T13:28:56Z</time>
      </trkpt>
      <trkpt lat="42.68549" lon="1.64545">
        <ele>1581.169</ele>
        <time>2021-06-13T13:28:58Z</time>
      </trkpt>
      <trkpt lat="42.68549" lon="1.64545">
        <ele>1581.182</ele>
        <time>2021-06-13T13:29:00Z</time>
      </trkpt>
      <trkpt lat="42.68549" lon="1.64545">
        <ele>1581.475</ele>
        <time>2021-06-13T13:29:02Z</time>
      </trkpt>
      <trkpt lat="42.68548" lon="1.64545">
        <ele>1581.922</ele>
        <time>2021-06-13T13:29:04Z</time>
      </trkpt>
      <trkpt lat="42.68548" lon="1.64545">
        <ele>1581.932</ele>
        <time>2021-06-13T13:29:06Z</time>
      </trkpt>
      <trkpt lat="42.68548" lon="1.64545">
        <ele>1581.948</ele>
        <time>2021-06-13T13:29:08Z</time>
      </trkpt>
      <trkpt lat="42.68548" lon="1.64545">
        <ele>1581.957</ele>
        <time>2021-06-13T13:29:10Z</time>
      </trkpt>
      <trkpt lat="42.68548" lon="1.64545">
        <ele>1581.955</ele>
        <time>2021-06-13T13:29:12Z</time>
      </trkpt>
      <trkpt lat="42.68548" lon="1.64545">
        <ele>1581.939</ele>
        <time>2021-06-13T13:29:14Z</time>
      </trkpt>
      <trkpt lat="42.68548" lon="1.64545">
        <ele>1581.915</ele>
        <time>2021-06-13T13:29:16Z</time>
      </trkpt>
      <trkpt lat="42.68548" lon="1.64545">
        <ele>1581.903</ele>
        <time>2021-06-13T13:29:18Z</time>
      </trkpt>
      <trkpt lat="42.68549" lon="1.64545">
        <ele>1582.346</ele>
        <time>2021-06-13T13:29:20Z</time>
      </trkpt>
      <trkpt lat="42.68549" lon="1.64545">
        <ele>1582.343</ele>
        <time>2021-06-13T13:29:22Z</time>
      </trkpt>
      <trkpt lat="42.68549" lon="1.64545">
        <ele>1583.38</ele>
        <time>2021-06-13T13:29:24Z</time>
      </trkpt>
      <trkpt lat="42.6855" lon="1.64546">
        <ele>1583.388</ele>
        <time>2021-06-13T13:29:26Z</time>
      </trkpt>
      <trkpt lat="42.6855" lon="1.64549">
        <ele>1583.586</ele>
        <time>2021-06-13T13:29:28Z</time>
      </trkpt>
      <trkpt lat="42.68551" lon="1.6455">
        <ele>1583.26</ele>
        <time>2021-06-13T13:29:30Z</time>
      </trkpt>
      <trkpt lat="42.68552" lon="1.6455">
        <ele>1583.295</ele>
        <time>2021-06-13T13:29:32Z</time>
      </trkpt>
      <trkpt lat="42.68554" lon="1.64551">
        <ele>1583.403</ele>
        <time>2021-06-13T13:29:34Z</time>
      </trkpt>
      <trkpt lat="42.68555" lon="1.64553">
        <ele>1583.879</ele>
        <time>2021-06-13T13:29:36Z</time>
      </trkpt>
      <trkpt lat="42.68557" lon="1.64554">
        <ele>1586.036</ele>
        <time>2021-06-13T13:29:38Z</time>
      </trkpt>
      <trkpt lat="42.68558" lon="1.64553">
        <ele>1583.975</ele>
        <time>2021-06-13T13:29:40Z</time>
      </trkpt>
      <trkpt lat="42.6856" lon="1.64556">
        <ele>1584.683</ele>
        <time>2021-06-13T13:29:42Z</time>
      </trkpt>
      <trkpt lat="42.68561" lon="1.64556">
        <ele>1586.027</ele>
        <time>2021-06-13T13:29:44Z</time>
      </trkpt>
      <trkpt lat="42.68563" lon="1.64556">
        <ele>1586.176</ele>
        <time>2021-06-13T13:29:46Z</time>
      </trkpt>
      <trkpt lat="42.68565" lon="1.64555">
        <ele>1587.778</ele>
        <time>2021-06-13T13:29:48Z</time>
      </trkpt>
      <trkpt lat="42.68567" lon="1.64554">
        <ele>1588.016</ele>
        <time>2021-06-13T13:29:50Z</time>
      </trkpt>
      <trkpt lat="42.68569" lon="1.64553">
        <ele>1589.173</ele>
        <time>2021-06-13T13:29:52Z</time>
      </trkpt>
      <trkpt lat="42.68572" lon="1.64551">
        <ele>1588.341</ele>
        <time>2021-06-13T13:29:54Z</time>
      </trkpt>
      <trkpt lat="42.68573" lon="1.64549">
        <ele>1588.829</ele>
        <time>2021-06-13T13:29:56Z</time>
      </trkpt>
      <trkpt lat="42.68575" lon="1.64549">
        <ele>1589.639</ele>
        <time>2021-06-13T13:29:58Z</time>
      </trkpt>
      <trkpt lat="42.68576" lon="1.64548">
        <ele>1589.48</ele>
        <time>2021-06-13T13:30:00Z</time>
      </trkpt>
      <trkpt lat="42.68578" lon="1.64547">
        <ele>1591.345</ele>
        <time>2021-06-13T13:30:02Z</time>
      </trkpt>
      <trkpt lat="42.6858" lon="1.64547">
        <ele>1591.576</ele>
        <time>2021-06-13T13:30:04Z</time>
      </trkpt>
      <trkpt lat="42.68582" lon="1.64546">
        <ele>1591.245</ele>
        <time>2021-06-13T13:30:06Z</time>
      </trkpt>
      <trkpt lat="42.68584" lon="1.64545">
        <ele>1590.804</ele>
        <time>2021-06-13T13:30:08Z</time>
      </trkpt>
      <trkpt lat="42.68585" lon="1.64545">
        <ele>1590.524</ele>
        <time>2021-06-13T13:30:10Z</time>
      </trkpt>
      <trkpt lat="42.68588" lon="1.64545">
        <ele>1590.581</ele>
        <time>2021-06-13T13:30:12Z</time>
      </trkpt>
      <trkpt lat="42.6859" lon="1.64545">
        <ele>1590.109</ele>
        <time>2021-06-13T13:30:14Z</time>
      </trkpt>
      <trkpt lat="42.68593" lon="1.64544">
        <ele>1590.231</ele>
        <time>2021-06-13T13:30:16Z</time>
      </trkpt>
      <trkpt lat="42.68595" lon="1.64545">
        <ele>1592.017</ele>
        <time>2021-06-13T13:30:18Z</time>
      </trkpt>
      <trkpt lat="42.68597" lon="1.64545">
        <ele>1591.559</ele>
        <time>2021-06-13T13:30:20Z</time>
      </trkpt>
      <trkpt lat="42.68599" lon="1.64546">
        <ele>1592.321</ele>
        <time>2021-06-13T13:30:22Z</time>
      </trkpt>
      <trkpt lat="42.68601" lon="1.64546">
        <ele>1592.293</ele>
        <time>2021-06-13T13:30:24Z</time>
      </trkpt>
      <trkpt lat="42.68602" lon="1.64547">
        <ele>1594.545</ele>
        <time>2021-06-13T13:30:26Z</time>
      </trkpt>
      <trkpt lat="42.68602" lon="1.6455">
        <ele>1596.811</ele>
        <time>2021-06-13T13:30:28Z</time>
      </trkpt>
      <trkpt lat="42.686" lon="1.64551">
        <ele>1594.687</ele>
        <time>2021-06-13T13:30:30Z</time>
      </trkpt>
      <trkpt lat="42.68601" lon="1.64552">
        <ele>1594.993</ele>
        <time>2021-06-13T13:30:32Z</time>
      </trkpt>
      <trkpt lat="42.68601" lon="1.64552">
        <ele>1595.033</ele>
        <time>2021-06-13T13:30:34Z</time>
      </trkpt>
      <trkpt lat="42.68601" lon="1.64552">
        <ele>1595.024</ele>
        <time>2021-06-13T13:30:36Z</time>
      </trkpt>
      <trkpt lat="42.68601" lon="1.64552">
        <ele>1595.019</ele>
        <time>2021-06-13T13:30:38Z</time>
      </trkpt>
      <trkpt lat="42.68601" lon="1.64552">
        <ele>1595.018</ele>
        <time>2021-06-13T13:30:40Z</time>
      </trkpt>
      <trkpt lat="42.68601" lon="1.64552">
        <ele>1595.018</ele>
        <time>2021-06-13T13:30:42Z</time>
      </trkpt>
      <trkpt lat="42.68601" lon="1.64552">
        <ele>1595.253</ele>
        <time>2021-06-13T13:30:44Z</time>
      </trkpt>
      <trkpt lat="42.68602" lon="1.64551">
        <ele>1594.423</ele>
        <time>2021-06-13T13:30:46Z</time>
      </trkpt>
      <trkpt lat="42.68604" lon="1.64551">
        <ele>1594.152</ele>
        <time>2021-06-13T13:30:47Z</time>
      </trkpt>
      <trkpt lat="42.68607" lon="1.64551">
        <ele>1592.645</ele>
        <time>2021-06-13T13:30:50Z</time>
      </trkpt>
      <trkpt lat="42.68609" lon="1.6455">
        <ele>1593.432</ele>
        <time>2021-06-13T13:30:52Z</time>
      </trkpt>
      <trkpt lat="42.68611" lon="1.6455">
        <ele>1592.502</ele>
        <time>2021-06-13T13:30:54Z</time>
      </trkpt>
      <trkpt lat="42.68613" lon="1.64549">
        <ele>1591.919</ele>
        <time>2021-06-13T13:30:56Z</time>
      </trkpt>
      <trkpt lat="42.68613" lon="1.64548">
        <ele>1591.412</ele>
        <time>2021-06-13T13:30:58Z</time>
      </trkpt>
      <trkpt lat="42.68616" lon="1.64547">
        <ele>1591.293</ele>
        <time>2021-06-13T13:31:00Z</time>
      </trkpt>
      <trkpt lat="42.68618" lon="1.64547">
        <ele>1591.343</ele>
        <time>2021-06-13T13:31:02Z</time>
      </trkpt>
      <trkpt lat="42.6862" lon="1.64546">
        <ele>1592.149</ele>
        <time>2021-06-13T13:31:04Z</time>
      </trkpt>
      <trkpt lat="42.68621" lon="1.64546">
        <ele>1591.443</ele>
        <time>2021-06-13T13:31:06Z</time>
      </trkpt>
      <trkpt lat="42.68623" lon="1.64546">
        <ele>1592.041</ele>
        <time>2021-06-13T13:31:08Z</time>
      </trkpt>
      <trkpt lat="42.68625" lon="1.64545">
        <ele>1592.141</ele>
        <time>2021-06-13T13:31:10Z</time>
      </trkpt>
      <trkpt lat="42.68627" lon="1.64544">
        <ele>1592.224</ele>
        <time>2021-06-13T13:31:12Z</time>
      </trkpt>
      <trkpt lat="42.68629" lon="1.64544">
        <ele>1592.51</ele>
        <time>2021-06-13T13:31:14Z</time>
      </trkpt>
      <trkpt lat="42.68631" lon="1.64543">
        <ele>1592.874</ele>
        <time>2021-06-13T13:31:16Z</time>
      </trkpt>
      <trkpt lat="42.68633" lon="1.64544">
        <ele>1593.354</ele>
        <time>2021-06-13T13:31:18Z</time>
      </trkpt>
      <trkpt lat="42.68632" lon="1.64545">
        <ele>1590.268</ele>
        <time>2021-06-13T13:31:20Z</time>
      </trkpt>
      <trkpt lat="42.68636" lon="1.64544">
        <ele>1593.171</ele>
        <time>2021-06-13T13:31:22Z</time>
      </trkpt>
      <trkpt lat="42.68638" lon="1.64543">
        <ele>1592.443</ele>
        <time>2021-06-13T13:31:24Z</time>
      </trkpt>
      <trkpt lat="42.6864" lon="1.64543">
        <ele>1591.939</ele>
        <time>2021-06-13T13:31:26Z</time>
      </trkpt>
      <trkpt lat="42.68642" lon="1.64542">
        <ele>1591.955</ele>
        <time>2021-06-13T13:31:28Z</time>
      </trkpt>
      <trkpt lat="42.68643" lon="1.64542">
        <ele>1592.044</ele>
        <time>2021-06-13T13:31:30Z</time>
      </trkpt>
      <trkpt lat="42.68645" lon="1.64542">
        <ele>1592.73</ele>
        <time>2021-06-13T13:31:32Z</time>
      </trkpt>
      <trkpt lat="42.68647" lon="1.64542">
        <ele>1593.417</ele>
        <time>2021-06-13T13:31:34Z</time>
      </trkpt>
      <trkpt lat="42.68647" lon="1.64544">
        <ele>1593.445</ele>
        <time>2021-06-13T13:31:36Z</time>
      </trkpt>
      <trkpt lat="42.68646" lon="1.64544">
        <ele>1593.225</ele>
        <time>2021-06-13T13:31:38Z</time>
      </trkpt>
      <trkpt lat="42.68646" lon="1.64544">
        <ele>1593.22</ele>
        <time>2021-06-13T13:31:40Z</time>
      </trkpt>
      <trkpt lat="42.68646" lon="1.64544">
        <ele>1593.22</ele>
        <time>2021-06-13T13:31:42Z</time>
      </trkpt>
      <trkpt lat="42.68647" lon="1.64544">
        <ele>1593.591</ele>
        <time>2021-06-13T13:31:44Z</time>
      </trkpt>
      <trkpt lat="42.6865" lon="1.64547">
        <ele>1594.31</ele>
        <time>2021-06-13T13:31:46Z</time>
      </trkpt>
      <trkpt lat="42.68651" lon="1.64545">
        <ele>1593.62</ele>
        <time>2021-06-13T13:31:48Z</time>
      </trkpt>
      <trkpt lat="42.68653" lon="1.64544">
        <ele>1593.766</ele>
        <time>2021-06-13T13:31:50Z</time>
      </trkpt>
      <trkpt lat="42.68655" lon="1.64543">
        <ele>1594.703</ele>
        <time>2021-06-13T13:31:52Z</time>
      </trkpt>
      <trkpt lat="42.68657" lon="1.64543">
        <ele>1595.981</ele>
        <time>2021-06-13T13:31:54Z</time>
      </trkpt>
      <trkpt lat="42.68658" lon="1.64541">
        <ele>1595.851</ele>
        <time>2021-06-13T13:31:56Z</time>
      </trkpt>
      <trkpt lat="42.68658" lon="1.64536">
        <ele>1594.369</ele>
        <time>2021-06-13T13:31:58Z</time>
      </trkpt>
      <trkpt lat="42.68659" lon="1.64535">
        <ele>1593.96</ele>
        <time>2021-06-13T13:32:00Z</time>
      </trkpt>
      <trkpt lat="42.68661" lon="1.64535">
        <ele>1592.512</ele>
        <time>2021-06-13T13:32:02Z</time>
      </trkpt>
      <trkpt lat="42.68664" lon="1.64535">
        <ele>1593.119</ele>
        <time>2021-06-13T13:32:04Z</time>
      </trkpt>
      <trkpt lat="42.68666" lon="1.64535">
        <ele>1592.537</ele>
        <time>2021-06-13T13:32:06Z</time>
      </trkpt>
      <trkpt lat="42.68667" lon="1.64535">
        <ele>1592.206</ele>
        <time>2021-06-13T13:32:07Z</time>
      </trkpt>
      <trkpt lat="42.68669" lon="1.64536">
        <ele>1593.156</ele>
        <time>2021-06-13T13:32:10Z</time>
      </trkpt>
      <trkpt lat="42.6867" lon="1.64536">
        <ele>1593.185</ele>
        <time>2021-06-13T13:32:12Z</time>
      </trkpt>
      <trkpt lat="42.68672" lon="1.64537">
        <ele>1592.516</ele>
        <time>2021-06-13T13:32:14Z</time>
      </trkpt>
      <trkpt lat="42.68674" lon="1.64536">
        <ele>1591.947</ele>
        <time>2021-06-13T13:32:16Z</time>
      </trkpt>
      <trkpt lat="42.68675" lon="1.64536">
        <ele>1592.069</ele>
        <time>2021-06-13T13:32:18Z</time>
      </trkpt>
      <trkpt lat="42.68677" lon="1.64535">
        <ele>1591.964</ele>
        <time>2021-06-13T13:32:20Z</time>
      </trkpt>
      <trkpt lat="42.68679" lon="1.64534">
        <ele>1591.025</ele>
        <time>2021-06-13T13:32:22Z</time>
      </trkpt>
      <trkpt lat="42.68681" lon="1.64532">
        <ele>1591.028</ele>
        <time>2021-06-13T13:32:24Z</time>
      </trkpt>
      <trkpt lat="42.68682" lon="1.6453">
        <ele>1591.02</ele>
        <time>2021-06-13T13:32:26Z</time>
      </trkpt>
      <trkpt lat="42.68684" lon="1.64528">
        <ele>1590.437</ele>
        <time>2021-06-13T13:32:28Z</time>
      </trkpt>
      <trkpt lat="42.68686" lon="1.64527">
        <ele>1590.062</ele>
        <time>2021-06-13T13:32:30Z</time>
      </trkpt>
      <trkpt lat="42.68687" lon="1.64525">
        <ele>1590.11</ele>
        <time>2021-06-13T13:32:32Z</time>
      </trkpt>
      <trkpt lat="42.68688" lon="1.64524">
        <ele>1591.059</ele>
        <time>2021-06-13T13:32:34Z</time>
      </trkpt>
      <trkpt lat="42.6869" lon="1.64522">
        <ele>1591.914</ele>
        <time>2021-06-13T13:32:36Z</time>
      </trkpt>
      <trkpt lat="42.6869" lon="1.64519">
        <ele>1592.455</ele>
        <time>2021-06-13T13:32:38Z</time>
      </trkpt>
      <trkpt lat="42.6869" lon="1.64517">
        <ele>1591.889</ele>
        <time>2021-06-13T13:32:40Z</time>
      </trkpt>
      <trkpt lat="42.6869" lon="1.64514">
        <ele>1591.435</ele>
        <time>2021-06-13T13:32:42Z</time>
      </trkpt>
      <trkpt lat="42.68691" lon="1.64512">
        <ele>1591.56</ele>
        <time>2021-06-13T13:32:44Z</time>
      </trkpt>
      <trkpt lat="42.68692" lon="1.64509">
        <ele>1592.19</ele>
        <time>2021-06-13T13:32:46Z</time>
      </trkpt>
      <trkpt lat="42.68692" lon="1.64508">
        <ele>1592.314</ele>
        <time>2021-06-13T13:32:47Z</time>
      </trkpt>
      <trkpt lat="42.68694" lon="1.64504">
        <ele>1593.681</ele>
        <time>2021-06-13T13:32:50Z</time>
      </trkpt>
      <trkpt lat="42.68695" lon="1.64501">
        <ele>1593.681</ele>
        <time>2021-06-13T13:32:52Z</time>
      </trkpt>
      <trkpt lat="42.68696" lon="1.64499">
        <ele>1593.908</ele>
        <time>2021-06-13T13:32:54Z</time>
      </trkpt>
      <trkpt lat="42.68696" lon="1.64496">
        <ele>1592.747</ele>
        <time>2021-06-13T13:32:56Z</time>
      </trkpt>
      <trkpt lat="42.68697" lon="1.64495">
        <ele>1591.711</ele>
        <time>2021-06-13T13:32:58Z</time>
      </trkpt>
      <trkpt lat="42.68697" lon="1.64493">
        <ele>1591.417</ele>
        <time>2021-06-13T13:33:00Z</time>
      </trkpt>
      <trkpt lat="42.68698" lon="1.64491">
        <ele>1591.224</ele>
        <time>2021-06-13T13:33:02Z</time>
      </trkpt>
      <trkpt lat="42.68699" lon="1.64488">
        <ele>1589.765</ele>
        <time>2021-06-13T13:33:04Z</time>
      </trkpt>
      <trkpt lat="42.68699" lon="1.64486">
        <ele>1589.21</ele>
        <time>2021-06-13T13:33:06Z</time>
      </trkpt>
      <trkpt lat="42.68699" lon="1.64484">
        <ele>1588.501</ele>
        <time>2021-06-13T13:33:07Z</time>
      </trkpt>
      <trkpt lat="42.68701" lon="1.64482">
        <ele>1588.546</ele>
        <time>2021-06-13T13:33:10Z</time>
      </trkpt>
      <trkpt lat="42.68701" lon="1.6448">
        <ele>1587.925</ele>
        <time>2021-06-13T13:33:12Z</time>
      </trkpt>
      <trkpt lat="42.68702" lon="1.64479">
        <ele>1589.126</ele>
        <time>2021-06-13T13:33:13Z</time>
      </trkpt>
      <trkpt lat="42.68703" lon="1.64477">
        <ele>1590.016</ele>
        <time>2021-06-13T13:33:16Z</time>
      </trkpt>
      <trkpt lat="42.68703" lon="1.64475">
        <ele>1590.331</ele>
        <time>2021-06-13T13:33:18Z</time>
      </trkpt>
      <trkpt lat="42.68705" lon="1.64473">
        <ele>1588.979</ele>
        <time>2021-06-13T13:33:20Z</time>
      </trkpt>
      <trkpt lat="42.68705" lon="1.64471">
        <ele>1589.418</ele>
        <time>2021-06-13T13:33:22Z</time>
      </trkpt>
      <trkpt lat="42.68707" lon="1.6447">
        <ele>1588.554</ele>
        <time>2021-06-13T13:33:24Z</time>
      </trkpt>
      <trkpt lat="42.68708" lon="1.64468">
        <ele>1589.144</ele>
        <time>2021-06-13T13:33:26Z</time>
      </trkpt>
      <trkpt lat="42.6871" lon="1.64468">
        <ele>1590.754</ele>
        <time>2021-06-13T13:33:28Z</time>
      </trkpt>
      <trkpt lat="42.68711" lon="1.64467">
        <ele>1590.264</ele>
        <time>2021-06-13T13:33:30Z</time>
      </trkpt>
      <trkpt lat="42.68716" lon="1.64468">
        <ele>1592.688</ele>
        <time>2021-06-13T13:33:32Z</time>
      </trkpt>
      <trkpt lat="42.68718" lon="1.6447">
        <ele>1594.285</ele>
        <time>2021-06-13T13:33:34Z</time>
      </trkpt>
      <trkpt lat="42.6872" lon="1.64472">
        <ele>1596.835</ele>
        <time>2021-06-13T13:33:36Z</time>
      </trkpt>
      <trkpt lat="42.68721" lon="1.64475">
        <ele>1597.639</ele>
        <time>2021-06-13T13:33:38Z</time>
      </trkpt>
      <trkpt lat="42.6872" lon="1.64479">
        <ele>1599.312</ele>
        <time>2021-06-13T13:33:40Z</time>
      </trkpt>
      <trkpt lat="42.68718" lon="1.6448">
        <ele>1598.382</ele>
        <time>2021-06-13T13:33:42Z</time>
      </trkpt>
      <trkpt lat="42.68717" lon="1.64482">
        <ele>1597.738</ele>
        <time>2021-06-13T13:33:44Z</time>
      </trkpt>
      <trkpt lat="42.68715" lon="1.64483">
        <ele>1597.381</ele>
        <time>2021-06-13T13:33:46Z</time>
      </trkpt>
      <trkpt lat="42.68714" lon="1.64485">
        <ele>1597.22</ele>
        <time>2021-06-13T13:33:48Z</time>
      </trkpt>
      <trkpt lat="42.68712" lon="1.64486">
        <ele>1597.49</ele>
        <time>2021-06-13T13:33:50Z</time>
      </trkpt>
      <trkpt lat="42.68711" lon="1.64487">
        <ele>1597.305</ele>
        <time>2021-06-13T13:33:52Z</time>
      </trkpt>
      <trkpt lat="42.6871" lon="1.64488">
        <ele>1596.755</ele>
        <time>2021-06-13T13:33:54Z</time>
      </trkpt>
      <trkpt lat="42.68708" lon="1.64489">
        <ele>1597.064</ele>
        <time>2021-06-13T13:33:56Z</time>
      </trkpt>
      <trkpt lat="42.68707" lon="1.64492">
        <ele>1596.973</ele>
        <time>2021-06-13T13:33:58Z</time>
      </trkpt>
      <trkpt lat="42.68705" lon="1.64492">
        <ele>1596.655</ele>
        <time>2021-06-13T13:34:00Z</time>
      </trkpt>
      <trkpt lat="42.68705" lon="1.64492">
        <ele>1596.025</ele>
        <time>2021-06-13T13:34:02Z</time>
      </trkpt>
      <trkpt lat="42.68703" lon="1.64492">
        <ele>1595.28</ele>
        <time>2021-06-13T13:34:04Z</time>
      </trkpt>
      <trkpt lat="42.68703" lon="1.64494">
        <ele>1595.023</ele>
        <time>2021-06-13T13:34:06Z</time>
      </trkpt>
      <trkpt lat="42.68704" lon="1.64493">
        <ele>1594.949</ele>
        <time>2021-06-13T13:34:08Z</time>
      </trkpt>
      <trkpt lat="42.68706" lon="1.64491">
        <ele>1595.013</ele>
        <time>2021-06-13T13:34:10Z</time>
      </trkpt>
      <trkpt lat="42.68707" lon="1.64489">
        <ele>1595.331</ele>
        <time>2021-06-13T13:34:12Z</time>
      </trkpt>
      <trkpt lat="42.68706" lon="1.64489">
        <ele>1593.994</ele>
        <time>2021-06-13T13:34:14Z</time>
      </trkpt>
      <trkpt lat="42.68706" lon="1.64489">
        <ele>1593.979</ele>
        <time>2021-06-13T13:34:16Z</time>
      </trkpt>
      <trkpt lat="42.68706" lon="1.64489">
        <ele>1593.971</ele>
        <time>2021-06-13T13:34:18Z</time>
      </trkpt>
      <trkpt lat="42.68706" lon="1.64489">
        <ele>1594.016</ele>
        <time>2021-06-13T13:34:20Z</time>
      </trkpt>
      <trkpt lat="42.68706" lon="1.64489">
        <ele>1594.053</ele>
        <time>2021-06-13T13:34:22Z</time>
      </trkpt>
      <trkpt lat="42.68706" lon="1.64489">
        <ele>1594.052</ele>
        <time>2021-06-13T13:34:24Z</time>
      </trkpt>
      <trkpt lat="42.68706" lon="1.64489">
        <ele>1594.075</ele>
        <time>2021-06-13T13:34:26Z</time>
      </trkpt>
      <trkpt lat="42.68706" lon="1.64489">
        <ele>1594.085</ele>
        <time>2021-06-13T13:34:28Z</time>
      </trkpt>
      <trkpt lat="42.68706" lon="1.64489">
        <ele>1594.107</ele>
        <time>2021-06-13T13:34:30Z</time>
      </trkpt>
      <trkpt lat="42.68706" lon="1.64489">
        <ele>1594.116</ele>
        <time>2021-06-13T13:34:32Z</time>
      </trkpt>
      <trkpt lat="42.68707" lon="1.64489">
        <ele>1594.125</ele>
        <time>2021-06-13T13:34:34Z</time>
      </trkpt>
      <trkpt lat="42.68707" lon="1.64489">
        <ele>1594.123</ele>
        <time>2021-06-13T13:34:36Z</time>
      </trkpt>
      <trkpt lat="42.68707" lon="1.64489">
        <ele>1594.116</ele>
        <time>2021-06-13T13:34:38Z</time>
      </trkpt>
      <trkpt lat="42.68707" lon="1.64489">
        <ele>1594.126</ele>
        <time>2021-06-13T13:34:40Z</time>
      </trkpt>
      <trkpt lat="42.68707" lon="1.64489">
        <ele>1594.126</ele>
        <time>2021-06-13T13:34:42Z</time>
      </trkpt>
      <trkpt lat="42.68707" lon="1.64489">
        <ele>1594.129</ele>
        <time>2021-06-13T13:34:44Z</time>
      </trkpt>
      <trkpt lat="42.68707" lon="1.64489">
        <ele>1594.402</ele>
        <time>2021-06-13T13:34:46Z</time>
      </trkpt>
      <trkpt lat="42.68707" lon="1.6449">
        <ele>1594.311</ele>
        <time>2021-06-13T13:34:48Z</time>
      </trkpt>
      <trkpt lat="42.68706" lon="1.64491">
        <ele>1594.486</ele>
        <time>2021-06-13T13:34:50Z</time>
      </trkpt>
      <trkpt lat="42.68705" lon="1.64492">
        <ele>1593.372</ele>
        <time>2021-06-13T13:34:52Z</time>
      </trkpt>
      <trkpt lat="42.68705" lon="1.64493">
        <ele>1594.377</ele>
        <time>2021-06-13T13:34:54Z</time>
      </trkpt>
      <trkpt lat="42.68707" lon="1.64493">
        <ele>1593.446</ele>
        <time>2021-06-13T13:34:56Z</time>
      </trkpt>
      <trkpt lat="42.68704" lon="1.64491">
        <ele>1593.779</ele>
        <time>2021-06-13T13:34:58Z</time>
      </trkpt>
      <trkpt lat="42.68702" lon="1.64492">
        <ele>1595.757</ele>
        <time>2021-06-13T13:35:00Z</time>
      </trkpt>
      <trkpt lat="42.68703" lon="1.64494">
        <ele>1595.787</ele>
        <time>2021-06-13T13:35:02Z</time>
      </trkpt>
      <trkpt lat="42.68704" lon="1.64495">
        <ele>1595.668</ele>
        <time>2021-06-13T13:35:04Z</time>
      </trkpt>
      <trkpt lat="42.68704" lon="1.64495">
        <ele>1595.663</ele>
        <time>2021-06-13T13:35:06Z</time>
      </trkpt>
      <trkpt lat="42.68704" lon="1.64495">
        <ele>1595.669</ele>
        <time>2021-06-13T13:35:08Z</time>
      </trkpt>
      <trkpt lat="42.68704" lon="1.64495">
        <ele>1595.35</ele>
        <time>2021-06-13T13:35:10Z</time>
      </trkpt>
      <trkpt lat="42.68702" lon="1.64496">
        <ele>1594.514</ele>
        <time>2021-06-13T13:35:12Z</time>
      </trkpt>
      <trkpt lat="42.68701" lon="1.64498">
        <ele>1593.785</ele>
        <time>2021-06-13T13:35:14Z</time>
      </trkpt>
      <trkpt lat="42.68699" lon="1.645">
        <ele>1593.826</ele>
        <time>2021-06-13T13:35:16Z</time>
      </trkpt>
      <trkpt lat="42.68698" lon="1.64502">
        <ele>1592.389</ele>
        <time>2021-06-13T13:35:18Z</time>
      </trkpt>
      <trkpt lat="42.68698" lon="1.64504">
        <ele>1593.34</ele>
        <time>2021-06-13T13:35:20Z</time>
      </trkpt>
      <trkpt lat="42.68697" lon="1.64506">
        <ele>1593.612</ele>
        <time>2021-06-13T13:35:22Z</time>
      </trkpt>
      <trkpt lat="42.68696" lon="1.64508">
        <ele>1593.449</ele>
        <time>2021-06-13T13:35:24Z</time>
      </trkpt>
      <trkpt lat="42.68696" lon="1.64511">
        <ele>1592.497</ele>
        <time>2021-06-13T13:35:26Z</time>
      </trkpt>
      <trkpt lat="42.68695" lon="1.64513">
        <ele>1592.246</ele>
        <time>2021-06-13T13:35:28Z</time>
      </trkpt>
      <trkpt lat="42.68694" lon="1.64515">
        <ele>1591.305</ele>
        <time>2021-06-13T13:35:30Z</time>
      </trkpt>
      <trkpt lat="42.68693" lon="1.64517">
        <ele>1590.341</ele>
        <time>2021-06-13T13:35:32Z</time>
      </trkpt>
      <trkpt lat="42.68692" lon="1.64519">
        <ele>1590.23</ele>
        <time>2021-06-13T13:35:34Z</time>
      </trkpt>
      <trkpt lat="42.6869" lon="1.64521">
        <ele>1590.284</ele>
        <time>2021-06-13T13:35:36Z</time>
      </trkpt>
      <trkpt lat="42.68689" lon="1.64522">
        <ele>1589.96</ele>
        <time>2021-06-13T13:35:38Z</time>
      </trkpt>
      <trkpt lat="42.68687" lon="1.64525">
        <ele>1590.165</ele>
        <time>2021-06-13T13:35:40Z</time>
      </trkpt>
      <trkpt lat="42.68686" lon="1.64527">
        <ele>1589.911</ele>
        <time>2021-06-13T13:35:42Z</time>
      </trkpt>
      <trkpt lat="42.68684" lon="1.64528">
        <ele>1589.248</ele>
        <time>2021-06-13T13:35:44Z</time>
      </trkpt>
      <trkpt lat="42.68682" lon="1.6453">
        <ele>1588.54</ele>
        <time>2021-06-13T13:35:46Z</time>
      </trkpt>
      <trkpt lat="42.6868" lon="1.64531">
        <ele>1588.772</ele>
        <time>2021-06-13T13:35:48Z</time>
      </trkpt>
      <trkpt lat="42.68677" lon="1.64532">
        <ele>1587.56</ele>
        <time>2021-06-13T13:35:50Z</time>
      </trkpt>
      <trkpt lat="42.68675" lon="1.64533">
        <ele>1587.516</ele>
        <time>2021-06-13T13:35:52Z</time>
      </trkpt>
      <trkpt lat="42.68673" lon="1.64534">
        <ele>1586.334</ele>
        <time>2021-06-13T13:35:54Z</time>
      </trkpt>
      <trkpt lat="42.6867" lon="1.64534">
        <ele>1585</ele>
        <time>2021-06-13T13:35:56Z</time>
      </trkpt>
      <trkpt lat="42.68668" lon="1.64534">
        <ele>1586.573</ele>
        <time>2021-06-13T13:35:58Z</time>
      </trkpt>
      <trkpt lat="42.68665" lon="1.64535">
        <ele>1584.589</ele>
        <time>2021-06-13T13:36:00Z</time>
      </trkpt>
      <trkpt lat="42.68663" lon="1.64536">
        <ele>1583.512</ele>
        <time>2021-06-13T13:36:02Z</time>
      </trkpt>
      <trkpt lat="42.68661" lon="1.64537">
        <ele>1583.903</ele>
        <time>2021-06-13T13:36:04Z</time>
      </trkpt>
      <trkpt lat="42.6866" lon="1.64537">
        <ele>1583.288</ele>
        <time>2021-06-13T13:36:05Z</time>
      </trkpt>
      <trkpt lat="42.68656" lon="1.64536">
        <ele>1583.895</ele>
        <time>2021-06-13T13:36:08Z</time>
      </trkpt>
      <trkpt lat="42.68654" lon="1.64537">
        <ele>1582.819</ele>
        <time>2021-06-13T13:36:10Z</time>
      </trkpt>
      <trkpt lat="42.68652" lon="1.64537">
        <ele>1584.023</ele>
        <time>2021-06-13T13:36:12Z</time>
      </trkpt>
      <trkpt lat="42.68649" lon="1.64538">
        <ele>1584.578</ele>
        <time>2021-06-13T13:36:14Z</time>
      </trkpt>
      <trkpt lat="42.68648" lon="1.64538">
        <ele>1583.968</ele>
        <time>2021-06-13T13:36:15Z</time>
      </trkpt>
      <trkpt lat="42.68644" lon="1.64538">
        <ele>1581.642</ele>
        <time>2021-06-13T13:36:18Z</time>
      </trkpt>
      <trkpt lat="42.68642" lon="1.6454">
        <ele>1579.449</ele>
        <time>2021-06-13T13:36:20Z</time>
      </trkpt>
      <trkpt lat="42.68639" lon="1.6454">
        <ele>1581.67</ele>
        <time>2021-06-13T13:36:22Z</time>
      </trkpt>
      <trkpt lat="42.68636" lon="1.64541">
        <ele>1580.69</ele>
        <time>2021-06-13T13:36:24Z</time>
      </trkpt>
      <trkpt lat="42.68635" lon="1.64541">
        <ele>1580.236</ele>
        <time>2021-06-13T13:36:25Z</time>
      </trkpt>
      <trkpt lat="42.68632" lon="1.64543">
        <ele>1581.584</ele>
        <time>2021-06-13T13:36:28Z</time>
      </trkpt>
      <trkpt lat="42.6863" lon="1.64544">
        <ele>1580.396</ele>
        <time>2021-06-13T13:36:30Z</time>
      </trkpt>
      <trkpt lat="42.68627" lon="1.64544">
        <ele>1580.393</ele>
        <time>2021-06-13T13:36:32Z</time>
      </trkpt>
      <trkpt lat="42.68625" lon="1.64544">
        <ele>1580.333</ele>
        <time>2021-06-13T13:36:34Z</time>
      </trkpt>
      <trkpt lat="42.68622" lon="1.64545">
        <ele>1581.182</ele>
        <time>2021-06-13T13:36:36Z</time>
      </trkpt>
      <trkpt lat="42.6862" lon="1.64545">
        <ele>1580.738</ele>
        <time>2021-06-13T13:36:38Z</time>
      </trkpt>
      <trkpt lat="42.68618" lon="1.64546">
        <ele>1578.74</ele>
        <time>2021-06-13T13:36:40Z</time>
      </trkpt>
      <trkpt lat="42.68616" lon="1.64546">
        <ele>1579.258</ele>
        <time>2021-06-13T13:36:42Z</time>
      </trkpt>
      <trkpt lat="42.68613" lon="1.64547">
        <ele>1578.322</ele>
        <time>2021-06-13T13:36:44Z</time>
      </trkpt>
      <trkpt lat="42.68611" lon="1.64546">
        <ele>1579.003</ele>
        <time>2021-06-13T13:36:46Z</time>
      </trkpt>
      <trkpt lat="42.68608" lon="1.64546">
        <ele>1578.688</ele>
        <time>2021-06-13T13:36:48Z</time>
      </trkpt>
      <trkpt lat="42.68606" lon="1.64546">
        <ele>1578.25</ele>
        <time>2021-06-13T13:36:50Z</time>
      </trkpt>
      <trkpt lat="42.68603" lon="1.64547">
        <ele>1578.573</ele>
        <time>2021-06-13T13:36:52Z</time>
      </trkpt>
      <trkpt lat="42.686" lon="1.64547">
        <ele>1578.401</ele>
        <time>2021-06-13T13:36:54Z</time>
      </trkpt>
      <trkpt lat="42.68598" lon="1.64547">
        <ele>1577.595</ele>
        <time>2021-06-13T13:36:56Z</time>
      </trkpt>
      <trkpt lat="42.68595" lon="1.64547">
        <ele>1577.612</ele>
        <time>2021-06-13T13:36:58Z</time>
      </trkpt>
      <trkpt lat="42.68593" lon="1.64547">
        <ele>1577.827</ele>
        <time>2021-06-13T13:37:00Z</time>
      </trkpt>
      <trkpt lat="42.68591" lon="1.64548">
        <ele>1577.649</ele>
        <time>2021-06-13T13:37:02Z</time>
      </trkpt>
      <trkpt lat="42.68588" lon="1.64548">
        <ele>1577.758</ele>
        <time>2021-06-13T13:37:04Z</time>
      </trkpt>
      <trkpt lat="42.68586" lon="1.64548">
        <ele>1577.52</ele>
        <time>2021-06-13T13:37:06Z</time>
      </trkpt>
      <trkpt lat="42.68583" lon="1.6455">
        <ele>1577.192</ele>
        <time>2021-06-13T13:37:08Z</time>
      </trkpt>
      <trkpt lat="42.68581" lon="1.6455">
        <ele>1575.526</ele>
        <time>2021-06-13T13:37:10Z</time>
      </trkpt>
      <trkpt lat="42.68579" lon="1.64551">
        <ele>1575.854</ele>
        <time>2021-06-13T13:37:12Z</time>
      </trkpt>
      <trkpt lat="42.68577" lon="1.64552">
        <ele>1574.398</ele>
        <time>2021-06-13T13:37:14Z</time>
      </trkpt>
      <trkpt lat="42.68574" lon="1.64552">
        <ele>1573.501</ele>
        <time>2021-06-13T13:37:16Z</time>
      </trkpt>
      <trkpt lat="42.68572" lon="1.64553">
        <ele>1573.402</ele>
        <time>2021-06-13T13:37:18Z</time>
      </trkpt>
      <trkpt lat="42.68569" lon="1.64554">
        <ele>1573.459</ele>
        <time>2021-06-13T13:37:20Z</time>
      </trkpt>
      <trkpt lat="42.68567" lon="1.64554">
        <ele>1573.179</ele>
        <time>2021-06-13T13:37:22Z</time>
      </trkpt>
      <trkpt lat="42.68564" lon="1.64554">
        <ele>1572.597</ele>
        <time>2021-06-13T13:37:24Z</time>
      </trkpt>
      <trkpt lat="42.68562" lon="1.64553">
        <ele>1572.97</ele>
        <time>2021-06-13T13:37:26Z</time>
      </trkpt>
      <trkpt lat="42.6856" lon="1.64552">
        <ele>1572.345</ele>
        <time>2021-06-13T13:37:28Z</time>
      </trkpt>
      <trkpt lat="42.68557" lon="1.6455">
        <ele>1574.158</ele>
        <time>2021-06-13T13:37:30Z</time>
      </trkpt>
      <trkpt lat="42.68554" lon="1.64548">
        <ele>1576.145</ele>
        <time>2021-06-13T13:37:32Z</time>
      </trkpt>
      <trkpt lat="42.68552" lon="1.64548">
        <ele>1578.205</ele>
        <time>2021-06-13T13:37:34Z</time>
      </trkpt>
      <trkpt lat="42.6855" lon="1.64548">
        <ele>1578.19</ele>
        <time>2021-06-13T13:37:36Z</time>
      </trkpt>
      <trkpt lat="42.68548" lon="1.64547">
        <ele>1580.169</ele>
        <time>2021-06-13T13:37:38Z</time>
      </trkpt>
      <trkpt lat="42.68546" lon="1.64547">
        <ele>1583.084</ele>
        <time>2021-06-13T13:37:40Z</time>
      </trkpt>
      <trkpt lat="42.68543" lon="1.64546">
        <ele>1585.287</ele>
        <time>2021-06-13T13:37:42Z</time>
      </trkpt>
      <trkpt lat="42.68541" lon="1.64545">
        <ele>1585.608</ele>
        <time>2021-06-13T13:37:44Z</time>
      </trkpt>
      <trkpt lat="42.6854" lon="1.64545">
        <ele>1586.314</ele>
        <time>2021-06-13T13:37:46Z</time>
      </trkpt>
      <trkpt lat="42.68538" lon="1.64545">
        <ele>1587.425</ele>
        <time>2021-06-13T13:37:48Z</time>
      </trkpt>
      <trkpt lat="42.68536" lon="1.64544">
        <ele>1586.793</ele>
        <time>2021-06-13T13:37:50Z</time>
      </trkpt>
      <trkpt lat="42.68534" lon="1.64545">
        <ele>1586.399</ele>
        <time>2021-06-13T13:37:52Z</time>
      </trkpt>
      <trkpt lat="42.68532" lon="1.64545">
        <ele>1588.919</ele>
        <time>2021-06-13T13:37:54Z</time>
      </trkpt>
      <trkpt lat="42.68531" lon="1.64546">
        <ele>1590.888</ele>
        <time>2021-06-13T13:37:56Z</time>
      </trkpt>
      <trkpt lat="42.6853" lon="1.64549">
        <ele>1592.077</ele>
        <time>2021-06-13T13:37:58Z</time>
      </trkpt>
      <trkpt lat="42.68531" lon="1.6455">
        <ele>1592.176</ele>
        <time>2021-06-13T13:38:00Z</time>
      </trkpt>
      <trkpt lat="42.68531" lon="1.64549">
        <ele>1591.655</ele>
        <time>2021-06-13T13:38:02Z</time>
      </trkpt>
      <trkpt lat="42.68531" lon="1.64549">
        <ele>1591.644</ele>
        <time>2021-06-13T13:38:04Z</time>
      </trkpt>
      <trkpt lat="42.68531" lon="1.64549">
        <ele>1590.929</ele>
        <time>2021-06-13T13:38:06Z</time>
      </trkpt>
      <trkpt lat="42.68533" lon="1.64548">
        <ele>1589.879</ele>
        <time>2021-06-13T13:38:08Z</time>
      </trkpt>
      <trkpt lat="42.68534" lon="1.64547">
        <ele>1589.473</ele>
        <time>2021-06-13T13:38:10Z</time>
      </trkpt>
      <trkpt lat="42.68538" lon="1.64546">
        <ele>1591.583</ele>
        <time>2021-06-13T13:38:12Z</time>
      </trkpt>
      <trkpt lat="42.68542" lon="1.64546">
        <ele>1592.521</ele>
        <time>2021-06-13T13:38:14Z</time>
      </trkpt>
      <trkpt lat="42.68545" lon="1.64546">
        <ele>1592.503</ele>
        <time>2021-06-13T13:38:16Z</time>
      </trkpt>
      <trkpt lat="42.68547" lon="1.64547">
        <ele>1594.124</ele>
        <time>2021-06-13T13:38:18Z</time>
      </trkpt>
      <trkpt lat="42.68549" lon="1.64547">
        <ele>1594.009</ele>
        <time>2021-06-13T13:38:20Z</time>
      </trkpt>
      <trkpt lat="42.6855" lon="1.64548">
        <ele>1594.558</ele>
        <time>2021-06-13T13:38:22Z</time>
      </trkpt>
      <trkpt lat="42.68551" lon="1.64549">
        <ele>1594.409</ele>
        <time>2021-06-13T13:38:24Z</time>
      </trkpt>
      <trkpt lat="42.6855" lon="1.6455">
        <ele>1593.682</ele>
        <time>2021-06-13T13:38:26Z</time>
      </trkpt>
      <trkpt lat="42.6855" lon="1.64551">
        <ele>1593.449</ele>
        <time>2021-06-13T13:38:28Z</time>
      </trkpt>
      <trkpt lat="42.68551" lon="1.64551">
        <ele>1593.429</ele>
        <time>2021-06-13T13:38:30Z</time>
      </trkpt>
      <trkpt lat="42.68552" lon="1.64551">
        <ele>1592.798</ele>
        <time>2021-06-13T13:38:32Z</time>
      </trkpt>
      <trkpt lat="42.68553" lon="1.64552">
        <ele>1591.763</ele>
        <time>2021-06-13T13:38:34Z</time>
      </trkpt>
      <trkpt lat="42.68555" lon="1.64553">
        <ele>1591.24</ele>
        <time>2021-06-13T13:38:36Z</time>
      </trkpt>
      <trkpt lat="42.68556" lon="1.64554">
        <ele>1591.006</ele>
        <time>2021-06-13T13:38:38Z</time>
      </trkpt>
      <trkpt lat="42.68557" lon="1.64555">
        <ele>1590.129</ele>
        <time>2021-06-13T13:38:40Z</time>
      </trkpt>
      <trkpt lat="42.68558" lon="1.64555">
        <ele>1590.377</ele>
        <time>2021-06-13T13:38:42Z</time>
      </trkpt>
      <trkpt lat="42.6856" lon="1.64555">
        <ele>1590.673</ele>
        <time>2021-06-13T13:38:44Z</time>
      </trkpt>
      <trkpt lat="42.68561" lon="1.64554">
        <ele>1591.033</ele>
        <time>2021-06-13T13:38:46Z</time>
      </trkpt>
      <trkpt lat="42.68563" lon="1.64554">
        <ele>1590.586</ele>
        <time>2021-06-13T13:38:48Z</time>
      </trkpt>
      <trkpt lat="42.68563" lon="1.64553">
        <ele>1589.304</ele>
        <time>2021-06-13T13:38:50Z</time>
      </trkpt>
      <trkpt lat="42.68565" lon="1.64552">
        <ele>1590.131</ele>
        <time>2021-06-13T13:38:52Z</time>
      </trkpt>
      <trkpt lat="42.68567" lon="1.64551">
        <ele>1590.191</ele>
        <time>2021-06-13T13:38:54Z</time>
      </trkpt>
      <trkpt lat="42.68569" lon="1.6455">
        <ele>1590.14</ele>
        <time>2021-06-13T13:38:56Z</time>
      </trkpt>
      <trkpt lat="42.6857" lon="1.64549">
        <ele>1588.534</ele>
        <time>2021-06-13T13:38:58Z</time>
      </trkpt>
      <trkpt lat="42.68572" lon="1.64554">
        <ele>1588.105</ele>
        <time>2021-06-13T13:39:00Z</time>
      </trkpt>
      <trkpt lat="42.68568" lon="1.64557">
        <ele>1587.473</ele>
        <time>2021-06-13T13:39:02Z</time>
      </trkpt>
      <trkpt lat="42.68566" lon="1.64556">
        <ele>1586.926</ele>
        <time>2021-06-13T13:39:04Z</time>
      </trkpt>
      <trkpt lat="42.68564" lon="1.64556">
        <ele>1587.465</ele>
        <time>2021-06-13T13:39:06Z</time>
      </trkpt>
      <trkpt lat="42.68563" lon="1.64557">
        <ele>1589.087</ele>
        <time>2021-06-13T13:39:08Z</time>
      </trkpt>
      <trkpt lat="42.68562" lon="1.64558">
        <ele>1590.009</ele>
        <time>2021-06-13T13:39:10Z</time>
      </trkpt>
      <trkpt lat="42.68562" lon="1.64558">
        <ele>1590.731</ele>
        <time>2021-06-13T13:39:12Z</time>
      </trkpt>
      <trkpt lat="42.68561" lon="1.64559">
        <ele>1590.726</ele>
        <time>2021-06-13T13:39:14Z</time>
      </trkpt>
      <trkpt lat="42.68562" lon="1.64558">
        <ele>1589.567</ele>
        <time>2021-06-13T13:39:16Z</time>
      </trkpt>
      <trkpt lat="42.68564" lon="1.64556">
        <ele>1588.741</ele>
        <time>2021-06-13T13:39:18Z</time>
      </trkpt>
      <trkpt lat="42.68565" lon="1.64554">
        <ele>1589.103</ele>
        <time>2021-06-13T13:39:20Z</time>
      </trkpt>
      <trkpt lat="42.68567" lon="1.64552">
        <ele>1589.035</ele>
        <time>2021-06-13T13:39:22Z</time>
      </trkpt>
      <trkpt lat="42.68569" lon="1.64551">
        <ele>1589.574</ele>
        <time>2021-06-13T13:39:24Z</time>
      </trkpt>
      <trkpt lat="42.68571" lon="1.6455">
        <ele>1589.768</ele>
        <time>2021-06-13T13:39:26Z</time>
      </trkpt>
      <trkpt lat="42.68572" lon="1.64549">
        <ele>1589.39</ele>
        <time>2021-06-13T13:39:28Z</time>
      </trkpt>
      <trkpt lat="42.68574" lon="1.64549">
        <ele>1589.529</ele>
        <time>2021-06-13T13:39:30Z</time>
      </trkpt>
      <trkpt lat="42.68576" lon="1.64549">
        <ele>1589.112</ele>
        <time>2021-06-13T13:39:32Z</time>
      </trkpt>
      <trkpt lat="42.68577" lon="1.6455">
        <ele>1588.58</ele>
        <time>2021-06-13T13:39:34Z</time>
      </trkpt>
      <trkpt lat="42.68577" lon="1.6455">
        <ele>1588.578</ele>
        <time>2021-06-13T13:39:36Z</time>
      </trkpt>
      <trkpt lat="42.68577" lon="1.6455">
        <ele>1588.577</ele>
        <time>2021-06-13T13:39:38Z</time>
      </trkpt>
      <trkpt lat="42.68577" lon="1.6455">
        <ele>1588.841</ele>
        <time>2021-06-13T13:39:40Z</time>
      </trkpt>
      <trkpt lat="42.68577" lon="1.64549">
        <ele>1589.056</ele>
        <time>2021-06-13T13:39:42Z</time>
      </trkpt>
      <trkpt lat="42.6858" lon="1.64547">
        <ele>1588.988</ele>
        <time>2021-06-13T13:39:44Z</time>
      </trkpt>
      <trkpt lat="42.68582" lon="1.64548">
        <ele>1590.552</ele>
        <time>2021-06-13T13:39:46Z</time>
      </trkpt>
      <trkpt lat="42.68583" lon="1.64549">
        <ele>1593.204</ele>
        <time>2021-06-13T13:39:48Z</time>
      </trkpt>
      <trkpt lat="42.68584" lon="1.64548">
        <ele>1593.261</ele>
        <time>2021-06-13T13:39:50Z</time>
      </trkpt>
      <trkpt lat="42.68586" lon="1.64547">
        <ele>1592.099</ele>
        <time>2021-06-13T13:39:52Z</time>
      </trkpt>
      <trkpt lat="42.68586" lon="1.64548">
        <ele>1592.046</ele>
        <time>2021-06-13T13:39:54Z</time>
      </trkpt>
      <trkpt lat="42.68586" lon="1.6455">
        <ele>1592.617</ele>
        <time>2021-06-13T13:39:56Z</time>
      </trkpt>
      <trkpt lat="42.68586" lon="1.64551">
        <ele>1591.647</ele>
        <time>2021-06-13T13:39:58Z</time>
      </trkpt>
      <trkpt lat="42.68586" lon="1.64553">
        <ele>1590.918</ele>
        <time>2021-06-13T13:40:00Z</time>
      </trkpt>
      <trkpt lat="42.68585" lon="1.64554">
        <ele>1592.466</ele>
        <time>2021-06-13T13:40:02Z</time>
      </trkpt>
      <trkpt lat="42.68583" lon="1.64554">
        <ele>1594.821</ele>
        <time>2021-06-13T13:40:04Z</time>
      </trkpt>
      <trkpt lat="42.68581" lon="1.64555">
        <ele>1595.237</ele>
        <time>2021-06-13T13:40:06Z</time>
      </trkpt>
      <trkpt lat="42.68581" lon="1.64555">
        <ele>1594.833</ele>
        <time>2021-06-13T13:40:08Z</time>
      </trkpt>
      <trkpt lat="42.68581" lon="1.64555">
        <ele>1594.821</ele>
        <time>2021-06-13T13:40:10Z</time>
      </trkpt>
      <trkpt lat="42.68582" lon="1.64555">
        <ele>1594.92</ele>
        <time>2021-06-13T13:40:12Z</time>
      </trkpt>
      <trkpt lat="42.68582" lon="1.64555">
        <ele>1594.241</ele>
        <time>2021-06-13T13:40:14Z</time>
      </trkpt>
      <trkpt lat="42.68582" lon="1.64555">
        <ele>1593.778</ele>
        <time>2021-06-13T13:40:16Z</time>
      </trkpt>
      <trkpt lat="42.68581" lon="1.64558">
        <ele>1595.131</ele>
        <time>2021-06-13T13:40:18Z</time>
      </trkpt>
      <trkpt lat="42.68582" lon="1.6456">
        <ele>1591.816</ele>
        <time>2021-06-13T13:40:20Z</time>
      </trkpt>
      <trkpt lat="42.68584" lon="1.64562">
        <ele>1590.343</ele>
        <time>2021-06-13T13:40:22Z</time>
      </trkpt>
      <trkpt lat="42.68586" lon="1.64563">
        <ele>1589.323</ele>
        <time>2021-06-13T13:40:24Z</time>
      </trkpt>
      <trkpt lat="42.68587" lon="1.64564">
        <ele>1588.874</ele>
        <time>2021-06-13T13:40:26Z</time>
      </trkpt>
      <trkpt lat="42.68588" lon="1.64566">
        <ele>1588</ele>
        <time>2021-06-13T13:40:28Z</time>
      </trkpt>
      <trkpt lat="42.68588" lon="1.64568">
        <ele>1587.843</ele>
        <time>2021-06-13T13:40:30Z</time>
      </trkpt>
      <trkpt lat="42.68586" lon="1.6457">
        <ele>1588.06</ele>
        <time>2021-06-13T13:40:32Z</time>
      </trkpt>
      <trkpt lat="42.68585" lon="1.6457">
        <ele>1588.271</ele>
        <time>2021-06-13T13:40:34Z</time>
      </trkpt>
      <trkpt lat="42.68583" lon="1.64569">
        <ele>1589.056</ele>
        <time>2021-06-13T13:40:36Z</time>
      </trkpt>
      <trkpt lat="42.68582" lon="1.6457">
        <ele>1588.962</ele>
        <time>2021-06-13T13:40:38Z</time>
      </trkpt>
      <trkpt lat="42.68581" lon="1.64571">
        <ele>1589.193</ele>
        <time>2021-06-13T13:40:40Z</time>
      </trkpt>
      <trkpt lat="42.6858" lon="1.64572">
        <ele>1589.248</ele>
        <time>2021-06-13T13:40:42Z</time>
      </trkpt>
      <trkpt lat="42.68579" lon="1.64571">
        <ele>1587.504</ele>
        <time>2021-06-13T13:40:44Z</time>
      </trkpt>
      <trkpt lat="42.68578" lon="1.64571">
        <ele>1587.107</ele>
        <time>2021-06-13T13:40:46Z</time>
      </trkpt>
      <trkpt lat="42.68577" lon="1.64571">
        <ele>1586.036</ele>
        <time>2021-06-13T13:40:48Z</time>
      </trkpt>
      <trkpt lat="42.68576" lon="1.64572">
        <ele>1586.814</ele>
        <time>2021-06-13T13:40:50Z</time>
      </trkpt>
      <trkpt lat="42.68575" lon="1.64572">
        <ele>1585.572</ele>
        <time>2021-06-13T13:40:52Z</time>
      </trkpt>
      <trkpt lat="42.68573" lon="1.64572">
        <ele>1586.851</ele>
        <time>2021-06-13T13:40:54Z</time>
      </trkpt>
      <trkpt lat="42.68573" lon="1.64571">
        <ele>1586.33</ele>
        <time>2021-06-13T13:40:56Z</time>
      </trkpt>
      <trkpt lat="42.68573" lon="1.64571">
        <ele>1586</ele>
        <time>2021-06-13T13:40:58Z</time>
      </trkpt>
      <trkpt lat="42.68571" lon="1.64572">
        <ele>1585.71</ele>
        <time>2021-06-13T13:41:00Z</time>
      </trkpt>
      <trkpt lat="42.6857" lon="1.64571">
        <ele>1586.428</ele>
        <time>2021-06-13T13:41:02Z</time>
      </trkpt>
      <trkpt lat="42.6857" lon="1.64571">
        <ele>1584.22</ele>
        <time>2021-06-13T13:41:04Z</time>
      </trkpt>
      <trkpt lat="42.68568" lon="1.64572">
        <ele>1584.675</ele>
        <time>2021-06-13T13:41:06Z</time>
      </trkpt>
      <trkpt lat="42.68567" lon="1.64571">
        <ele>1584.578</ele>
        <time>2021-06-13T13:41:08Z</time>
      </trkpt>
      <trkpt lat="42.68567" lon="1.64572">
        <ele>1584.907</ele>
        <time>2021-06-13T13:41:10Z</time>
      </trkpt>
      <trkpt lat="42.68565" lon="1.64572">
        <ele>1586.209</ele>
        <time>2021-06-13T13:41:12Z</time>
      </trkpt>
      <trkpt lat="42.68564" lon="1.64572">
        <ele>1585.063</ele>
        <time>2021-06-13T13:41:14Z</time>
      </trkpt>
      <trkpt lat="42.68563" lon="1.64572">
        <ele>1584.407</ele>
        <time>2021-06-13T13:41:16Z</time>
      </trkpt>
      <trkpt lat="42.68562" lon="1.64573">
        <ele>1583.473</ele>
        <time>2021-06-13T13:41:18Z</time>
      </trkpt>
      <trkpt lat="42.68562" lon="1.64574">
        <ele>1583.142</ele>
        <time>2021-06-13T13:41:20Z</time>
      </trkpt>
      <trkpt lat="42.68562" lon="1.64575">
        <ele>1582.646</ele>
        <time>2021-06-13T13:41:22Z</time>
      </trkpt>
      <trkpt lat="42.68561" lon="1.64576">
        <ele>1582.657</ele>
        <time>2021-06-13T13:41:24Z</time>
      </trkpt>
      <trkpt lat="42.68561" lon="1.64578">
        <ele>1582.733</ele>
        <time>2021-06-13T13:41:26Z</time>
      </trkpt>
      <trkpt lat="42.68562" lon="1.64579">
        <ele>1582.007</ele>
        <time>2021-06-13T13:41:28Z</time>
      </trkpt>
      <trkpt lat="42.68562" lon="1.64581">
        <ele>1581.411</ele>
        <time>2021-06-13T13:41:30Z</time>
      </trkpt>
      <trkpt lat="42.68563" lon="1.64582">
        <ele>1580.941</ele>
        <time>2021-06-13T13:41:32Z</time>
      </trkpt>
      <trkpt lat="42.68563" lon="1.64583">
        <ele>1579.353</ele>
        <time>2021-06-13T13:41:34Z</time>
      </trkpt>
      <trkpt lat="42.68563" lon="1.64584">
        <ele>1578.396</ele>
        <time>2021-06-13T13:41:36Z</time>
      </trkpt>
      <trkpt lat="42.68563" lon="1.64584">
        <ele>1577.208</ele>
        <time>2021-06-13T13:41:38Z</time>
      </trkpt>
      <trkpt lat="42.68563" lon="1.64585">
        <ele>1576.806</ele>
        <time>2021-06-13T13:41:40Z</time>
      </trkpt>
      <trkpt lat="42.68563" lon="1.64586">
        <ele>1576.424</ele>
        <time>2021-06-13T13:41:42Z</time>
      </trkpt>
      <trkpt lat="42.68564" lon="1.64588">
        <ele>1575.334</ele>
        <time>2021-06-13T13:41:44Z</time>
      </trkpt>
      <trkpt lat="42.68564" lon="1.64589">
        <ele>1575.408</ele>
        <time>2021-06-13T13:41:46Z</time>
      </trkpt>
      <trkpt lat="42.68564" lon="1.6459">
        <ele>1575.496</ele>
        <time>2021-06-13T13:41:48Z</time>
      </trkpt>
      <trkpt lat="42.68565" lon="1.64591">
        <ele>1574.574</ele>
        <time>2021-06-13T13:41:50Z</time>
      </trkpt>
      <trkpt lat="42.68566" lon="1.64593">
        <ele>1573.177</ele>
        <time>2021-06-13T13:41:52Z</time>
      </trkpt>
      <trkpt lat="42.68567" lon="1.64593">
        <ele>1572.949</ele>
        <time>2021-06-13T13:41:54Z</time>
      </trkpt>
      <trkpt lat="42.68567" lon="1.64593">
        <ele>1572.946</ele>
        <time>2021-06-13T13:41:56Z</time>
      </trkpt>
      <trkpt lat="42.68567" lon="1.64593">
        <ele>1572.943</ele>
        <time>2021-06-13T13:41:58Z</time>
      </trkpt>
      <trkpt lat="42.68567" lon="1.64593">
        <ele>1572.935</ele>
        <time>2021-06-13T13:42:00Z</time>
      </trkpt>
      <trkpt lat="42.68567" lon="1.64593">
        <ele>1572.927</ele>
        <time>2021-06-13T13:42:02Z</time>
      </trkpt>
      <trkpt lat="42.68567" lon="1.64593">
        <ele>1572.907</ele>
        <time>2021-06-13T13:42:04Z</time>
      </trkpt>
      <trkpt lat="42.68567" lon="1.64593">
        <ele>1572.88</ele>
        <time>2021-06-13T13:42:06Z</time>
      </trkpt>
      <trkpt lat="42.68567" lon="1.64593">
        <ele>1572.874</ele>
        <time>2021-06-13T13:42:08Z</time>
      </trkpt>
      <trkpt lat="42.68567" lon="1.64593">
        <ele>1572.866</ele>
        <time>2021-06-13T13:42:10Z</time>
      </trkpt>
      <trkpt lat="42.68567" lon="1.64593">
        <ele>1572.41</ele>
        <time>2021-06-13T13:42:12Z</time>
      </trkpt>
      <trkpt lat="42.68569" lon="1.64593">
        <ele>1571.676</ele>
        <time>2021-06-13T13:42:14Z</time>
      </trkpt>
      <trkpt lat="42.6857" lon="1.64595">
        <ele>1570.965</ele>
        <time>2021-06-13T13:42:16Z</time>
      </trkpt>
      <trkpt lat="42.6857" lon="1.64597">
        <ele>1570.445</ele>
        <time>2021-06-13T13:42:18Z</time>
      </trkpt>
      <trkpt lat="42.6857" lon="1.64599">
        <ele>1569.813</ele>
        <time>2021-06-13T13:42:20Z</time>
      </trkpt>
      <trkpt lat="42.6857" lon="1.646">
        <ele>1569.79</ele>
        <time>2021-06-13T13:42:22Z</time>
      </trkpt>
      <trkpt lat="42.6857" lon="1.64603">
        <ele>1569.307</ele>
        <time>2021-06-13T13:42:24Z</time>
      </trkpt>
      <trkpt lat="42.68569" lon="1.64604">
        <ele>1569.167</ele>
        <time>2021-06-13T13:42:26Z</time>
      </trkpt>
      <trkpt lat="42.68568" lon="1.64606">
        <ele>1568.346</ele>
        <time>2021-06-13T13:42:28Z</time>
      </trkpt>
      <trkpt lat="42.68568" lon="1.64607">
        <ele>1568.507</ele>
        <time>2021-06-13T13:42:30Z</time>
      </trkpt>
      <trkpt lat="42.68568" lon="1.64609">
        <ele>1569.158</ele>
        <time>2021-06-13T13:42:32Z</time>
      </trkpt>
      <trkpt lat="42.68566" lon="1.6461">
        <ele>1568.191</ele>
        <time>2021-06-13T13:42:34Z</time>
      </trkpt>
      <trkpt lat="42.68565" lon="1.64611">
        <ele>1568.53</ele>
        <time>2021-06-13T13:42:36Z</time>
      </trkpt>
      <trkpt lat="42.68564" lon="1.64611">
        <ele>1569.138</ele>
        <time>2021-06-13T13:42:38Z</time>
      </trkpt>
      <trkpt lat="42.68564" lon="1.64612">
        <ele>1568.206</ele>
        <time>2021-06-13T13:42:40Z</time>
      </trkpt>
      <trkpt lat="42.68564" lon="1.64612">
        <ele>1568.211</ele>
        <time>2021-06-13T13:42:42Z</time>
      </trkpt>
      <trkpt lat="42.68564" lon="1.64612">
        <ele>1568.211</ele>
        <time>2021-06-13T13:42:44Z</time>
      </trkpt>
      <trkpt lat="42.68564" lon="1.64612">
        <ele>1568.217</ele>
        <time>2021-06-13T13:42:46Z</time>
      </trkpt>
      <trkpt lat="42.68563" lon="1.64612">
        <ele>1568.167</ele>
        <time>2021-06-13T13:42:48Z</time>
      </trkpt>
      <trkpt lat="42.68562" lon="1.64613">
        <ele>1568.418</ele>
        <time>2021-06-13T13:42:50Z</time>
      </trkpt>
      <trkpt lat="42.68561" lon="1.64614">
        <ele>1568.973</ele>
        <time>2021-06-13T13:42:52Z</time>
      </trkpt>
      <trkpt lat="42.6856" lon="1.64614">
        <ele>1569.259</ele>
        <time>2021-06-13T13:42:54Z</time>
      </trkpt>
      <trkpt lat="42.68559" lon="1.64615">
        <ele>1569.566</ele>
        <time>2021-06-13T13:42:56Z</time>
      </trkpt>
      <trkpt lat="42.68559" lon="1.64615">
        <ele>1569.348</ele>
        <time>2021-06-13T13:42:58Z</time>
      </trkpt>
      <trkpt lat="42.68559" lon="1.64615">
        <ele>1569.347</ele>
        <time>2021-06-13T13:43:00Z</time>
      </trkpt>
      <trkpt lat="42.68559" lon="1.64615">
        <ele>1569.335</ele>
        <time>2021-06-13T13:43:02Z</time>
      </trkpt>
      <trkpt lat="42.68559" lon="1.64615">
        <ele>1569.342</ele>
        <time>2021-06-13T13:43:04Z</time>
      </trkpt>
      <trkpt lat="42.68558" lon="1.64615">
        <ele>1568.786</ele>
        <time>2021-06-13T13:43:06Z</time>
      </trkpt>
      <trkpt lat="42.68557" lon="1.64615">
        <ele>1567.904</ele>
        <time>2021-06-13T13:43:08Z</time>
      </trkpt>
      <trkpt lat="42.68556" lon="1.64617">
        <ele>1568.262</ele>
        <time>2021-06-13T13:43:10Z</time>
      </trkpt>
      <trkpt lat="42.68556" lon="1.64615">
        <ele>1566.4</ele>
        <time>2021-06-13T13:43:12Z</time>
      </trkpt>
      <trkpt lat="42.68555" lon="1.64616">
        <ele>1566.529</ele>
        <time>2021-06-13T13:43:14Z</time>
      </trkpt>
      <trkpt lat="42.68554" lon="1.64617">
        <ele>1566.83</ele>
        <time>2021-06-13T13:43:16Z</time>
      </trkpt>
      <trkpt lat="42.68553" lon="1.64618">
        <ele>1566.963</ele>
        <time>2021-06-13T13:43:18Z</time>
      </trkpt>
      <trkpt lat="42.68552" lon="1.64619">
        <ele>1567.014</ele>
        <time>2021-06-13T13:43:20Z</time>
      </trkpt>
      <trkpt lat="42.68551" lon="1.64621">
        <ele>1567.222</ele>
        <time>2021-06-13T13:43:22Z</time>
      </trkpt>
      <trkpt lat="42.6855" lon="1.64622">
        <ele>1568.307</ele>
        <time>2021-06-13T13:43:24Z</time>
      </trkpt>
      <trkpt lat="42.68549" lon="1.64623">
        <ele>1568.629</ele>
        <time>2021-06-13T13:43:26Z</time>
      </trkpt>
      <trkpt lat="42.68548" lon="1.64623">
        <ele>1568.359</ele>
        <time>2021-06-13T13:43:28Z</time>
      </trkpt>
      <trkpt lat="42.68547" lon="1.64624">
        <ele>1568.707</ele>
        <time>2021-06-13T13:43:30Z</time>
      </trkpt>
      <trkpt lat="42.68547" lon="1.64624">
        <ele>1568.842</ele>
        <time>2021-06-13T13:43:32Z</time>
      </trkpt>
      <trkpt lat="42.68546" lon="1.64625">
        <ele>1569.105</ele>
        <time>2021-06-13T13:43:34Z</time>
      </trkpt>
      <trkpt lat="42.68546" lon="1.64627">
        <ele>1569.111</ele>
        <time>2021-06-13T13:43:36Z</time>
      </trkpt>
      <trkpt lat="42.68546" lon="1.64628">
        <ele>1569.585</ele>
        <time>2021-06-13T13:43:38Z</time>
      </trkpt>
      <trkpt lat="42.68546" lon="1.64629">
        <ele>1569.658</ele>
        <time>2021-06-13T13:43:40Z</time>
      </trkpt>
      <trkpt lat="42.68546" lon="1.64629">
        <ele>1569.638</ele>
        <time>2021-06-13T13:43:42Z</time>
      </trkpt>
      <trkpt lat="42.68546" lon="1.64629">
        <ele>1569.639</ele>
        <time>2021-06-13T13:43:44Z</time>
      </trkpt>
      <trkpt lat="42.68546" lon="1.64627">
        <ele>1568.069</ele>
        <time>2021-06-13T13:43:46Z</time>
      </trkpt>
      <trkpt lat="42.68546" lon="1.64626">
        <ele>1567.58</ele>
        <time>2021-06-13T13:43:48Z</time>
      </trkpt>
      <trkpt lat="42.68546" lon="1.64626">
        <ele>1567.745</ele>
        <time>2021-06-13T13:43:50Z</time>
      </trkpt>
      <trkpt lat="42.68546" lon="1.64626">
        <ele>1567.728</ele>
        <time>2021-06-13T13:43:52Z</time>
      </trkpt>
      <trkpt lat="42.68546" lon="1.64626">
        <ele>1567.718</ele>
        <time>2021-06-13T13:43:54Z</time>
      </trkpt>
      <trkpt lat="42.68546" lon="1.64626">
        <ele>1567.733</ele>
        <time>2021-06-13T13:43:56Z</time>
      </trkpt>
      <trkpt lat="42.68546" lon="1.64626">
        <ele>1567.73</ele>
        <time>2021-06-13T13:43:58Z</time>
      </trkpt>
      <trkpt lat="42.68546" lon="1.64626">
        <ele>1567.581</ele>
        <time>2021-06-13T13:44:00Z</time>
      </trkpt>
      <trkpt lat="42.68546" lon="1.64628">
        <ele>1566.465</ele>
        <time>2021-06-13T13:44:02Z</time>
      </trkpt>
      <trkpt lat="42.68547" lon="1.64629">
        <ele>1565.638</ele>
        <time>2021-06-13T13:44:04Z</time>
      </trkpt>
      <trkpt lat="42.68547" lon="1.64631">
        <ele>1565.216</ele>
        <time>2021-06-13T13:44:06Z</time>
      </trkpt>
      <trkpt lat="42.68548" lon="1.64632">
        <ele>1564.197</ele>
        <time>2021-06-13T13:44:08Z</time>
      </trkpt>
      <trkpt lat="42.68549" lon="1.64633">
        <ele>1563.205</ele>
        <time>2021-06-13T13:44:10Z</time>
      </trkpt>
      <trkpt lat="42.68549" lon="1.64635">
        <ele>1562.832</ele>
        <time>2021-06-13T13:44:12Z</time>
      </trkpt>
      <trkpt lat="42.68549" lon="1.64637">
        <ele>1561.52</ele>
        <time>2021-06-13T13:44:14Z</time>
      </trkpt>
      <trkpt lat="42.6855" lon="1.64638">
        <ele>1561.268</ele>
        <time>2021-06-13T13:44:16Z</time>
      </trkpt>
      <trkpt lat="42.68551" lon="1.6464">
        <ele>1561.931</ele>
        <time>2021-06-13T13:44:18Z</time>
      </trkpt>
      <trkpt lat="42.68551" lon="1.64641">
        <ele>1561.428</ele>
        <time>2021-06-13T13:44:20Z</time>
      </trkpt>
      <trkpt lat="42.68552" lon="1.64642">
        <ele>1560.75</ele>
        <time>2021-06-13T13:44:22Z</time>
      </trkpt>
      <trkpt lat="42.68553" lon="1.64644">
        <ele>1560.429</ele>
        <time>2021-06-13T13:44:24Z</time>
      </trkpt>
      <trkpt lat="42.68553" lon="1.64645">
        <ele>1559.941</ele>
        <time>2021-06-13T13:44:26Z</time>
      </trkpt>
      <trkpt lat="42.68553" lon="1.64646">
        <ele>1559.504</ele>
        <time>2021-06-13T13:44:28Z</time>
      </trkpt>
      <trkpt lat="42.68552" lon="1.64647">
        <ele>1559.177</ele>
        <time>2021-06-13T13:44:30Z</time>
      </trkpt>
      <trkpt lat="42.68552" lon="1.64648">
        <ele>1558.613</ele>
        <time>2021-06-13T13:44:32Z</time>
      </trkpt>
      <trkpt lat="42.68552" lon="1.6465">
        <ele>1558.377</ele>
        <time>2021-06-13T13:44:34Z</time>
      </trkpt>
      <trkpt lat="42.68552" lon="1.6465">
        <ele>1557.832</ele>
        <time>2021-06-13T13:44:36Z</time>
      </trkpt>
      <trkpt lat="42.68552" lon="1.64651">
        <ele>1557.699</ele>
        <time>2021-06-13T13:44:38Z</time>
      </trkpt>
      <trkpt lat="42.68552" lon="1.64653">
        <ele>1558.052</ele>
        <time>2021-06-13T13:44:40Z</time>
      </trkpt>
      <trkpt lat="42.68552" lon="1.64653">
        <ele>1557.748</ele>
        <time>2021-06-13T13:44:42Z</time>
      </trkpt>
      <trkpt lat="42.68551" lon="1.64655">
        <ele>1557.526</ele>
        <time>2021-06-13T13:44:44Z</time>
      </trkpt>
      <trkpt lat="42.68551" lon="1.64656">
        <ele>1557.599</ele>
        <time>2021-06-13T13:44:46Z</time>
      </trkpt>
      <trkpt lat="42.68551" lon="1.64657">
        <ele>1556.678</ele>
        <time>2021-06-13T13:44:48Z</time>
      </trkpt>
      <trkpt lat="42.68551" lon="1.64658">
        <ele>1557.014</ele>
        <time>2021-06-13T13:44:50Z</time>
      </trkpt>
      <trkpt lat="42.6855" lon="1.6466">
        <ele>1556.683</ele>
        <time>2021-06-13T13:44:52Z</time>
      </trkpt>
      <trkpt lat="42.68549" lon="1.64661">
        <ele>1555.974</ele>
        <time>2021-06-13T13:44:54Z</time>
      </trkpt>
      <trkpt lat="42.68548" lon="1.64662">
        <ele>1555.923</ele>
        <time>2021-06-13T13:44:56Z</time>
      </trkpt>
      <trkpt lat="42.68547" lon="1.64664">
        <ele>1555.414</ele>
        <time>2021-06-13T13:44:58Z</time>
      </trkpt>
      <trkpt lat="42.68546" lon="1.64665">
        <ele>1555.314</ele>
        <time>2021-06-13T13:45:00Z</time>
      </trkpt>
      <trkpt lat="42.68545" lon="1.64666">
        <ele>1555.181</ele>
        <time>2021-06-13T13:45:02Z</time>
      </trkpt>
      <trkpt lat="42.68545" lon="1.64667">
        <ele>1554.422</ele>
        <time>2021-06-13T13:45:04Z</time>
      </trkpt>
      <trkpt lat="42.68544" lon="1.64669">
        <ele>1554.738</ele>
        <time>2021-06-13T13:45:06Z</time>
      </trkpt>
      <trkpt lat="42.68544" lon="1.64669">
        <ele>1554.795</ele>
        <time>2021-06-13T13:45:08Z</time>
      </trkpt>
      <trkpt lat="42.68544" lon="1.64669">
        <ele>1554.799</ele>
        <time>2021-06-13T13:45:10Z</time>
      </trkpt>
      <trkpt lat="42.68544" lon="1.64669">
        <ele>1554.806</ele>
        <time>2021-06-13T13:45:12Z</time>
      </trkpt>
      <trkpt lat="42.68544" lon="1.64669">
        <ele>1554.805</ele>
        <time>2021-06-13T13:45:14Z</time>
      </trkpt>
      <trkpt lat="42.68544" lon="1.64669">
        <ele>1554.805</ele>
        <time>2021-06-13T13:45:16Z</time>
      </trkpt>
      <trkpt lat="42.68544" lon="1.64669">
        <ele>1554.811</ele>
        <time>2021-06-13T13:45:18Z</time>
      </trkpt>
      <trkpt lat="42.68544" lon="1.64669">
        <ele>1554.808</ele>
        <time>2021-06-13T13:45:20Z</time>
      </trkpt>
      <trkpt lat="42.68544" lon="1.64669">
        <ele>1554.821</ele>
        <time>2021-06-13T13:45:22Z</time>
      </trkpt>
      <trkpt lat="42.68544" lon="1.64669">
        <ele>1554.817</ele>
        <time>2021-06-13T13:45:24Z</time>
      </trkpt>
      <trkpt lat="42.68544" lon="1.64669">
        <ele>1554.818</ele>
        <time>2021-06-13T13:45:26Z</time>
      </trkpt>
      <trkpt lat="42.68544" lon="1.64669">
        <ele>1554.803</ele>
        <time>2021-06-13T13:45:28Z</time>
      </trkpt>
      <trkpt lat="42.68544" lon="1.64669">
        <ele>1554.89</ele>
        <time>2021-06-13T13:45:30Z</time>
      </trkpt>
      <trkpt lat="42.68544" lon="1.6467">
        <ele>1554.821</ele>
        <time>2021-06-13T13:45:32Z</time>
      </trkpt>
      <trkpt lat="42.68544" lon="1.64671">
        <ele>1554.783</ele>
        <time>2021-06-13T13:45:34Z</time>
      </trkpt>
      <trkpt lat="42.68544" lon="1.64671">
        <ele>1554.788</ele>
        <time>2021-06-13T13:45:36Z</time>
      </trkpt>
      <trkpt lat="42.68544" lon="1.64671">
        <ele>1554.784</ele>
        <time>2021-06-13T13:45:38Z</time>
      </trkpt>
      <trkpt lat="42.68544" lon="1.64671">
        <ele>1554.783</ele>
        <time>2021-06-13T13:45:40Z</time>
      </trkpt>
      <trkpt lat="42.68544" lon="1.64671">
        <ele>1554.779</ele>
        <time>2021-06-13T13:45:42Z</time>
      </trkpt>
      <trkpt lat="42.68544" lon="1.64671">
        <ele>1554.778</ele>
        <time>2021-06-13T13:45:44Z</time>
      </trkpt>
      <trkpt lat="42.68544" lon="1.64671">
        <ele>1554.775</ele>
        <time>2021-06-13T13:45:46Z</time>
      </trkpt>
      <trkpt lat="42.68544" lon="1.64671">
        <ele>1554.767</ele>
        <time>2021-06-13T13:45:48Z</time>
      </trkpt>
      <trkpt lat="42.68544" lon="1.64671">
        <ele>1554.781</ele>
        <time>2021-06-13T13:45:50Z</time>
      </trkpt>
      <trkpt lat="42.68544" lon="1.64671">
        <ele>1554.785</ele>
        <time>2021-06-13T13:45:52Z</time>
      </trkpt>
      <trkpt lat="42.68544" lon="1.64671">
        <ele>1554.792</ele>
        <time>2021-06-13T13:45:54Z</time>
      </trkpt>
      <trkpt lat="42.68544" lon="1.64671">
        <ele>1554.78</ele>
        <time>2021-06-13T13:45:56Z</time>
      </trkpt>
      <trkpt lat="42.68544" lon="1.64671">
        <ele>1554.774</ele>
        <time>2021-06-13T13:45:58Z</time>
      </trkpt>
      <trkpt lat="42.68544" lon="1.64671">
        <ele>1554.771</ele>
        <time>2021-06-13T13:46:00Z</time>
      </trkpt>
      <trkpt lat="42.68544" lon="1.64671">
        <ele>1554.772</ele>
        <time>2021-06-13T13:46:02Z</time>
      </trkpt>
      <trkpt lat="42.68544" lon="1.64671">
        <ele>1554.781</ele>
        <time>2021-06-13T13:46:04Z</time>
      </trkpt>
      <trkpt lat="42.68544" lon="1.64671">
        <ele>1554.776</ele>
        <time>2021-06-13T13:46:06Z</time>
      </trkpt>
      <trkpt lat="42.68544" lon="1.64671">
        <ele>1554.779</ele>
        <time>2021-06-13T13:46:08Z</time>
      </trkpt>
      <trkpt lat="42.68544" lon="1.64671">
        <ele>1554.769</ele>
        <time>2021-06-13T13:46:10Z</time>
      </trkpt>
      <trkpt lat="42.68544" lon="1.64671">
        <ele>1554.769</ele>
        <time>2021-06-13T13:46:12Z</time>
      </trkpt>
      <trkpt lat="42.68544" lon="1.64671">
        <ele>1554.776</ele>
        <time>2021-06-13T13:46:14Z</time>
      </trkpt>
      <trkpt lat="42.68544" lon="1.64671">
        <ele>1554.777</ele>
        <time>2021-06-13T13:46:16Z</time>
      </trkpt>
      <trkpt lat="42.68544" lon="1.64671">
        <ele>1554.777</ele>
        <time>2021-06-13T13:46:18Z</time>
      </trkpt>
      <trkpt lat="42.68544" lon="1.64671">
        <ele>1554.783</ele>
        <time>2021-06-13T13:46:20Z</time>
      </trkpt>
      <trkpt lat="42.68544" lon="1.64671">
        <ele>1554.789</ele>
        <time>2021-06-13T13:46:22Z</time>
      </trkpt>
      <trkpt lat="42.68544" lon="1.64671">
        <ele>1554.794</ele>
        <time>2021-06-13T13:46:24Z</time>
      </trkpt>
      <trkpt lat="42.68544" lon="1.64671">
        <ele>1554.791</ele>
        <time>2021-06-13T13:46:26Z</time>
      </trkpt>
      <trkpt lat="42.68544" lon="1.64672">
        <ele>1554.109</ele>
        <time>2021-06-13T13:46:28Z</time>
      </trkpt>
      <trkpt lat="42.68543" lon="1.64674">
        <ele>1554.638</ele>
        <time>2021-06-13T13:46:30Z</time>
      </trkpt>
      <trkpt lat="42.68542" lon="1.64675">
        <ele>1554.154</ele>
        <time>2021-06-13T13:46:32Z</time>
      </trkpt>
      <trkpt lat="42.68542" lon="1.64677">
        <ele>1553.935</ele>
        <time>2021-06-13T13:46:34Z</time>
      </trkpt>
      <trkpt lat="42.68541" lon="1.64678">
        <ele>1553.7</ele>
        <time>2021-06-13T13:46:36Z</time>
      </trkpt>
      <trkpt lat="42.68541" lon="1.6468">
        <ele>1553.657</ele>
        <time>2021-06-13T13:46:38Z</time>
      </trkpt>
      <trkpt lat="42.68539" lon="1.64681">
        <ele>1554.454</ele>
        <time>2021-06-13T13:46:40Z</time>
      </trkpt>
      <trkpt lat="42.68538" lon="1.64682">
        <ele>1554.679</ele>
        <time>2021-06-13T13:46:42Z</time>
      </trkpt>
      <trkpt lat="42.68537" lon="1.64683">
        <ele>1554.22</ele>
        <time>2021-06-13T13:46:44Z</time>
      </trkpt>
      <trkpt lat="42.68536" lon="1.64683">
        <ele>1553.592</ele>
        <time>2021-06-13T13:46:46Z</time>
      </trkpt>
      <trkpt lat="42.68535" lon="1.64684">
        <ele>1552.931</ele>
        <time>2021-06-13T13:46:48Z</time>
      </trkpt>
      <trkpt lat="42.68535" lon="1.64686">
        <ele>1552.747</ele>
        <time>2021-06-13T13:46:50Z</time>
      </trkpt>
      <trkpt lat="42.68534" lon="1.64686">
        <ele>1552.73</ele>
        <time>2021-06-13T13:46:52Z</time>
      </trkpt>
      <trkpt lat="42.68533" lon="1.64687">
        <ele>1552.733</ele>
        <time>2021-06-13T13:46:54Z</time>
      </trkpt>
      <trkpt lat="42.68531" lon="1.64688">
        <ele>1552.866</ele>
        <time>2021-06-13T13:46:56Z</time>
      </trkpt>
      <trkpt lat="42.68531" lon="1.64689">
        <ele>1552.991</ele>
        <time>2021-06-13T13:46:58Z</time>
      </trkpt>
      <trkpt lat="42.6853" lon="1.6469">
        <ele>1553.084</ele>
        <time>2021-06-13T13:47:00Z</time>
      </trkpt>
      <trkpt lat="42.68529" lon="1.64691">
        <ele>1553.619</ele>
        <time>2021-06-13T13:47:02Z</time>
      </trkpt>
      <trkpt lat="42.68529" lon="1.64693">
        <ele>1553.3</ele>
        <time>2021-06-13T13:47:04Z</time>
      </trkpt>
      <trkpt lat="42.68529" lon="1.64694">
        <ele>1552.735</ele>
        <time>2021-06-13T13:47:06Z</time>
      </trkpt>
      <trkpt lat="42.68529" lon="1.64696">
        <ele>1553.304</ele>
        <time>2021-06-13T13:47:08Z</time>
      </trkpt>
      <trkpt lat="42.68529" lon="1.64698">
        <ele>1552.365</ele>
        <time>2021-06-13T13:47:10Z</time>
      </trkpt>
      <trkpt lat="42.68529" lon="1.647">
        <ele>1552.402</ele>
        <time>2021-06-13T13:47:12Z</time>
      </trkpt>
      <trkpt lat="42.68529" lon="1.64701">
        <ele>1552.455</ele>
        <time>2021-06-13T13:47:14Z</time>
      </trkpt>
      <trkpt lat="42.68529" lon="1.64703">
        <ele>1552.334</ele>
        <time>2021-06-13T13:47:16Z</time>
      </trkpt>
      <trkpt lat="42.68528" lon="1.64704">
        <ele>1552.914</ele>
        <time>2021-06-13T13:47:18Z</time>
      </trkpt>
      <trkpt lat="42.68528" lon="1.64706">
        <ele>1552.862</ele>
        <time>2021-06-13T13:47:20Z</time>
      </trkpt>
      <trkpt lat="42.68528" lon="1.64707">
        <ele>1553.404</ele>
        <time>2021-06-13T13:47:22Z</time>
      </trkpt>
      <trkpt lat="42.68528" lon="1.64707">
        <ele>1553.414</ele>
        <time>2021-06-13T13:47:24Z</time>
      </trkpt>
      <trkpt lat="42.68528" lon="1.64707">
        <ele>1553.419</ele>
        <time>2021-06-13T13:47:26Z</time>
      </trkpt>
      <trkpt lat="42.68528" lon="1.64707">
        <ele>1553.423</ele>
        <time>2021-06-13T13:47:28Z</time>
      </trkpt>
      <trkpt lat="42.68528" lon="1.64707">
        <ele>1553.499</ele>
        <time>2021-06-13T13:47:30Z</time>
      </trkpt>
      <trkpt lat="42.68528" lon="1.64707">
        <ele>1552.608</ele>
        <time>2021-06-13T13:47:32Z</time>
      </trkpt>
      <trkpt lat="42.68528" lon="1.64708">
        <ele>1552.545</ele>
        <time>2021-06-13T13:47:34Z</time>
      </trkpt>
      <trkpt lat="42.68528" lon="1.64708">
        <ele>1552.54</ele>
        <time>2021-06-13T13:47:36Z</time>
      </trkpt>
      <trkpt lat="42.68528" lon="1.64708">
        <ele>1552.538</ele>
        <time>2021-06-13T13:47:38Z</time>
      </trkpt>
      <trkpt lat="42.68528" lon="1.64708">
        <ele>1552.534</ele>
        <time>2021-06-13T13:47:40Z</time>
      </trkpt>
      <trkpt lat="42.68528" lon="1.64708">
        <ele>1552.537</ele>
        <time>2021-06-13T13:47:42Z</time>
      </trkpt>
      <trkpt lat="42.68528" lon="1.64708">
        <ele>1552.534</ele>
        <time>2021-06-13T13:47:44Z</time>
      </trkpt>
      <trkpt lat="42.68528" lon="1.64708">
        <ele>1552.535</ele>
        <time>2021-06-13T13:47:46Z</time>
      </trkpt>
      <trkpt lat="42.68528" lon="1.64708">
        <ele>1552.534</ele>
        <time>2021-06-13T13:47:48Z</time>
      </trkpt>
      <trkpt lat="42.68528" lon="1.64708">
        <ele>1552.528</ele>
        <time>2021-06-13T13:47:50Z</time>
      </trkpt>
      <trkpt lat="42.68528" lon="1.64708">
        <ele>1552.236</ele>
        <time>2021-06-13T13:47:52Z</time>
      </trkpt>
      <trkpt lat="42.68528" lon="1.64708">
        <ele>1552.239</ele>
        <time>2021-06-13T13:47:54Z</time>
      </trkpt>
      <trkpt lat="42.68528" lon="1.64708">
        <ele>1552.241</ele>
        <time>2021-06-13T13:47:56Z</time>
      </trkpt>
      <trkpt lat="42.68528" lon="1.64708">
        <ele>1552.244</ele>
        <time>2021-06-13T13:47:58Z</time>
      </trkpt>
      <trkpt lat="42.68528" lon="1.64708">
        <ele>1552.251</ele>
        <time>2021-06-13T13:48:00Z</time>
      </trkpt>
      <trkpt lat="42.68528" lon="1.64708">
        <ele>1552.259</ele>
        <time>2021-06-13T13:48:02Z</time>
      </trkpt>
      <trkpt lat="42.68528" lon="1.64708">
        <ele>1552.264</ele>
        <time>2021-06-13T13:48:04Z</time>
      </trkpt>
      <trkpt lat="42.68528" lon="1.64708">
        <ele>1552.262</ele>
        <time>2021-06-13T13:48:06Z</time>
      </trkpt>
      <trkpt lat="42.68526" lon="1.64709">
        <ele>1553.437</ele>
        <time>2021-06-13T13:48:08Z</time>
      </trkpt>
      <trkpt lat="42.68526" lon="1.6471">
        <ele>1552.886</ele>
        <time>2021-06-13T13:48:10Z</time>
      </trkpt>
      <trkpt lat="42.68525" lon="1.64711">
        <ele>1552.848</ele>
        <time>2021-06-13T13:48:12Z</time>
      </trkpt>
      <trkpt lat="42.68524" lon="1.64712">
        <ele>1552.728</ele>
        <time>2021-06-13T13:48:14Z</time>
      </trkpt>
      <trkpt lat="42.68523" lon="1.64714">
        <ele>1553.051</ele>
        <time>2021-06-13T13:48:16Z</time>
      </trkpt>
      <trkpt lat="42.68522" lon="1.64715">
        <ele>1552.778</ele>
        <time>2021-06-13T13:48:18Z</time>
      </trkpt>
      <trkpt lat="42.68521" lon="1.64715">
        <ele>1553.56</ele>
        <time>2021-06-13T13:48:20Z</time>
      </trkpt>
      <trkpt lat="42.6852" lon="1.64715">
        <ele>1553.181</ele>
        <time>2021-06-13T13:48:22Z</time>
      </trkpt>
      <trkpt lat="42.68518" lon="1.64714">
        <ele>1552.015</ele>
        <time>2021-06-13T13:48:24Z</time>
      </trkpt>
      <trkpt lat="42.68517" lon="1.64715">
        <ele>1551.737</ele>
        <time>2021-06-13T13:48:26Z</time>
      </trkpt>
      <trkpt lat="42.68516" lon="1.64715">
        <ele>1550.525</ele>
        <time>2021-06-13T13:48:28Z</time>
      </trkpt>
      <trkpt lat="42.68515" lon="1.64714">
        <ele>1549.877</ele>
        <time>2021-06-13T13:48:30Z</time>
      </trkpt>
      <trkpt lat="42.68513" lon="1.64714">
        <ele>1547.961</ele>
        <time>2021-06-13T13:48:32Z</time>
      </trkpt>
      <trkpt lat="42.68512" lon="1.64714">
        <ele>1546.629</ele>
        <time>2021-06-13T13:48:34Z</time>
      </trkpt>
      <trkpt lat="42.6851" lon="1.64715">
        <ele>1546.485</ele>
        <time>2021-06-13T13:48:36Z</time>
      </trkpt>
      <trkpt lat="42.68508" lon="1.64716">
        <ele>1545.207</ele>
        <time>2021-06-13T13:48:38Z</time>
      </trkpt>
      <trkpt lat="42.68507" lon="1.64716">
        <ele>1544.389</ele>
        <time>2021-06-13T13:48:40Z</time>
      </trkpt>
      <trkpt lat="42.68505" lon="1.64717">
        <ele>1545.281</ele>
        <time>2021-06-13T13:48:42Z</time>
      </trkpt>
      <trkpt lat="42.68504" lon="1.64719">
        <ele>1545.218</ele>
        <time>2021-06-13T13:48:44Z</time>
      </trkpt>
      <trkpt lat="42.68502" lon="1.6472">
        <ele>1545.269</ele>
        <time>2021-06-13T13:48:46Z</time>
      </trkpt>
      <trkpt lat="42.685" lon="1.6472">
        <ele>1544.959</ele>
        <time>2021-06-13T13:48:48Z</time>
      </trkpt>
      <trkpt lat="42.68498" lon="1.64721">
        <ele>1543.923</ele>
        <time>2021-06-13T13:48:50Z</time>
      </trkpt>
      <trkpt lat="42.68496" lon="1.64722">
        <ele>1544.449</ele>
        <time>2021-06-13T13:48:52Z</time>
      </trkpt>
      <trkpt lat="42.68494" lon="1.64723">
        <ele>1545.923</ele>
        <time>2021-06-13T13:48:54Z</time>
      </trkpt>
      <trkpt lat="42.68492" lon="1.64723">
        <ele>1545.362</ele>
        <time>2021-06-13T13:48:56Z</time>
      </trkpt>
      <trkpt lat="42.6849" lon="1.64724">
        <ele>1545.973</ele>
        <time>2021-06-13T13:48:58Z</time>
      </trkpt>
      <trkpt lat="42.68488" lon="1.64725">
        <ele>1545.852</ele>
        <time>2021-06-13T13:49:00Z</time>
      </trkpt>
      <trkpt lat="42.68486" lon="1.64725">
        <ele>1545.28</ele>
        <time>2021-06-13T13:49:02Z</time>
      </trkpt>
      <trkpt lat="42.68484" lon="1.64726">
        <ele>1544.521</ele>
        <time>2021-06-13T13:49:04Z</time>
      </trkpt>
      <trkpt lat="42.68482" lon="1.64728">
        <ele>1545.138</ele>
        <time>2021-06-13T13:49:06Z</time>
      </trkpt>
      <trkpt lat="42.68482" lon="1.64731">
        <ele>1543.652</ele>
        <time>2021-06-13T13:49:08Z</time>
      </trkpt>
      <trkpt lat="42.68481" lon="1.64733">
        <ele>1543.885</ele>
        <time>2021-06-13T13:49:10Z</time>
      </trkpt>
      <trkpt lat="42.6848" lon="1.64735">
        <ele>1544.532</ele>
        <time>2021-06-13T13:49:12Z</time>
      </trkpt>
      <trkpt lat="42.68479" lon="1.64738">
        <ele>1545.36</ele>
        <time>2021-06-13T13:49:14Z</time>
      </trkpt>
      <trkpt lat="42.68479" lon="1.64741">
        <ele>1545.107</ele>
        <time>2021-06-13T13:49:16Z</time>
      </trkpt>
      <trkpt lat="42.68479" lon="1.64744">
        <ele>1545.39</ele>
        <time>2021-06-13T13:49:18Z</time>
      </trkpt>
      <trkpt lat="42.68479" lon="1.64747">
        <ele>1546.3</ele>
        <time>2021-06-13T13:49:20Z</time>
      </trkpt>
      <trkpt lat="42.6848" lon="1.64749">
        <ele>1545.916</ele>
        <time>2021-06-13T13:49:22Z</time>
      </trkpt>
      <trkpt lat="42.68481" lon="1.64751">
        <ele>1545.59</ele>
        <time>2021-06-13T13:49:24Z</time>
      </trkpt>
      <trkpt lat="42.68482" lon="1.64754">
        <ele>1544.373</ele>
        <time>2021-06-13T13:49:26Z</time>
      </trkpt>
      <trkpt lat="42.68482" lon="1.64756">
        <ele>1543.568</ele>
        <time>2021-06-13T13:49:28Z</time>
      </trkpt>
      <trkpt lat="42.68483" lon="1.64758">
        <ele>1543.476</ele>
        <time>2021-06-13T13:49:30Z</time>
      </trkpt>
      <trkpt lat="42.68484" lon="1.64761">
        <ele>1543.066</ele>
        <time>2021-06-13T13:49:32Z</time>
      </trkpt>
      <trkpt lat="42.68485" lon="1.64763">
        <ele>1543.39</ele>
        <time>2021-06-13T13:49:34Z</time>
      </trkpt>
      <trkpt lat="42.68486" lon="1.64766">
        <ele>1543.76</ele>
        <time>2021-06-13T13:49:36Z</time>
      </trkpt>
      <trkpt lat="42.68487" lon="1.64768">
        <ele>1544.761</ele>
        <time>2021-06-13T13:49:38Z</time>
      </trkpt>
      <trkpt lat="42.68487" lon="1.64771">
        <ele>1545.798</ele>
        <time>2021-06-13T13:49:40Z</time>
      </trkpt>
      <trkpt lat="42.68487" lon="1.64771">
        <ele>1545.613</ele>
        <time>2021-06-13T13:49:42Z</time>
      </trkpt>
      <trkpt lat="42.68487" lon="1.64771">
        <ele>1545.613</ele>
        <time>2021-06-13T13:49:44Z</time>
      </trkpt>
      <trkpt lat="42.68487" lon="1.64771">
        <ele>1545.607</ele>
        <time>2021-06-13T13:49:46Z</time>
      </trkpt>
      <trkpt lat="42.68487" lon="1.64771">
        <ele>1545.607</ele>
        <time>2021-06-13T13:49:48Z</time>
      </trkpt>
      <trkpt lat="42.68487" lon="1.64771">
        <ele>1545.604</ele>
        <time>2021-06-13T13:49:50Z</time>
      </trkpt>
      <trkpt lat="42.68487" lon="1.64771">
        <ele>1545.801</ele>
        <time>2021-06-13T13:49:52Z</time>
      </trkpt>
      <trkpt lat="42.68488" lon="1.64771">
        <ele>1546.435</ele>
        <time>2021-06-13T13:49:54Z</time>
      </trkpt>
      <trkpt lat="42.68489" lon="1.64774">
        <ele>1547.324</ele>
        <time>2021-06-13T13:49:56Z</time>
      </trkpt>
      <trkpt lat="42.68489" lon="1.64777">
        <ele>1547.554</ele>
        <time>2021-06-13T13:49:58Z</time>
      </trkpt>
      <trkpt lat="42.68489" lon="1.64779">
        <ele>1547.677</ele>
        <time>2021-06-13T13:50:00Z</time>
      </trkpt>
      <trkpt lat="42.68491" lon="1.64781">
        <ele>1547.676</ele>
        <time>2021-06-13T13:50:02Z</time>
      </trkpt>
      <trkpt lat="42.68492" lon="1.64782">
        <ele>1547.334</ele>
        <time>2021-06-13T13:50:04Z</time>
      </trkpt>
      <trkpt lat="42.68494" lon="1.64784">
        <ele>1547.215</ele>
        <time>2021-06-13T13:50:06Z</time>
      </trkpt>
      <trkpt lat="42.68496" lon="1.64785">
        <ele>1546.609</ele>
        <time>2021-06-13T13:50:08Z</time>
      </trkpt>
      <trkpt lat="42.68497" lon="1.64787">
        <ele>1545.703</ele>
        <time>2021-06-13T13:50:10Z</time>
      </trkpt>
      <trkpt lat="42.68499" lon="1.64789">
        <ele>1545.184</ele>
        <time>2021-06-13T13:50:12Z</time>
      </trkpt>
      <trkpt lat="42.68501" lon="1.6479">
        <ele>1544.492</ele>
        <time>2021-06-13T13:50:14Z</time>
      </trkpt>
      <trkpt lat="42.68502" lon="1.64793">
        <ele>1543.857</ele>
        <time>2021-06-13T13:50:16Z</time>
      </trkpt>
      <trkpt lat="42.68504" lon="1.64795">
        <ele>1543.057</ele>
        <time>2021-06-13T13:50:18Z</time>
      </trkpt>
      <trkpt lat="42.68505" lon="1.64797">
        <ele>1541.964</ele>
        <time>2021-06-13T13:50:20Z</time>
      </trkpt>
      <trkpt lat="42.68506" lon="1.64799">
        <ele>1541.745</ele>
        <time>2021-06-13T13:50:22Z</time>
      </trkpt>
      <trkpt lat="42.68506" lon="1.64801">
        <ele>1541.073</ele>
        <time>2021-06-13T13:50:24Z</time>
      </trkpt>
      <trkpt lat="42.68507" lon="1.64804">
        <ele>1540.403</ele>
        <time>2021-06-13T13:50:26Z</time>
      </trkpt>
      <trkpt lat="42.68508" lon="1.64805">
        <ele>1540.494</ele>
        <time>2021-06-13T13:50:28Z</time>
      </trkpt>
      <trkpt lat="42.6851" lon="1.64808">
        <ele>1540.772</ele>
        <time>2021-06-13T13:50:30Z</time>
      </trkpt>
      <trkpt lat="42.6851" lon="1.64811">
        <ele>1540.704</ele>
        <time>2021-06-13T13:50:32Z</time>
      </trkpt>
      <trkpt lat="42.68511" lon="1.64814">
        <ele>1540.619</ele>
        <time>2021-06-13T13:50:34Z</time>
      </trkpt>
      <trkpt lat="42.68512" lon="1.64816">
        <ele>1539.638</ele>
        <time>2021-06-13T13:50:36Z</time>
      </trkpt>
      <trkpt lat="42.68513" lon="1.64819">
        <ele>1539.617</ele>
        <time>2021-06-13T13:50:38Z</time>
      </trkpt>
      <trkpt lat="42.68514" lon="1.64822">
        <ele>1539.305</ele>
        <time>2021-06-13T13:50:40Z</time>
      </trkpt>
      <trkpt lat="42.68516" lon="1.64825">
        <ele>1538.29</ele>
        <time>2021-06-13T13:50:42Z</time>
      </trkpt>
      <trkpt lat="42.68517" lon="1.64827">
        <ele>1538.187</ele>
        <time>2021-06-13T13:50:44Z</time>
      </trkpt>
      <trkpt lat="42.68518" lon="1.64829">
        <ele>1537.532</ele>
        <time>2021-06-13T13:50:46Z</time>
      </trkpt>
      <trkpt lat="42.6852" lon="1.64832">
        <ele>1536.681</ele>
        <time>2021-06-13T13:50:48Z</time>
      </trkpt>
      <trkpt lat="42.68521" lon="1.64834">
        <ele>1535.677</ele>
        <time>2021-06-13T13:50:50Z</time>
      </trkpt>
      <trkpt lat="42.68523" lon="1.64836">
        <ele>1535.176</ele>
        <time>2021-06-13T13:50:52Z</time>
      </trkpt>
      <trkpt lat="42.68524" lon="1.64838">
        <ele>1535.107</ele>
        <time>2021-06-13T13:50:54Z</time>
      </trkpt>
      <trkpt lat="42.68526" lon="1.6484">
        <ele>1535.171</ele>
        <time>2021-06-13T13:50:56Z</time>
      </trkpt>
      <trkpt lat="42.68528" lon="1.64842">
        <ele>1533.961</ele>
        <time>2021-06-13T13:50:58Z</time>
      </trkpt>
      <trkpt lat="42.68529" lon="1.64844">
        <ele>1532.888</ele>
        <time>2021-06-13T13:51:00Z</time>
      </trkpt>
      <trkpt lat="42.6853" lon="1.64847">
        <ele>1532.78</ele>
        <time>2021-06-13T13:51:02Z</time>
      </trkpt>
      <trkpt lat="42.68532" lon="1.64849">
        <ele>1532.984</ele>
        <time>2021-06-13T13:51:04Z</time>
      </trkpt>
      <trkpt lat="42.68533" lon="1.64852">
        <ele>1532.125</ele>
        <time>2021-06-13T13:51:06Z</time>
      </trkpt>
      <trkpt lat="42.68533" lon="1.64855">
        <ele>1531.06</ele>
        <time>2021-06-13T13:51:08Z</time>
      </trkpt>
      <trkpt lat="42.68534" lon="1.64858">
        <ele>1530.677</ele>
        <time>2021-06-13T13:51:10Z</time>
      </trkpt>
      <trkpt lat="42.68535" lon="1.64861">
        <ele>1530.152</ele>
        <time>2021-06-13T13:51:12Z</time>
      </trkpt>
      <trkpt lat="42.68535" lon="1.64864">
        <ele>1530.123</ele>
        <time>2021-06-13T13:51:14Z</time>
      </trkpt>
      <trkpt lat="42.68535" lon="1.64867">
        <ele>1530.148</ele>
        <time>2021-06-13T13:51:16Z</time>
      </trkpt>
      <trkpt lat="42.68534" lon="1.6487">
        <ele>1529.69</ele>
        <time>2021-06-13T13:51:18Z</time>
      </trkpt>
      <trkpt lat="42.68532" lon="1.64872">
        <ele>1529.761</ele>
        <time>2021-06-13T13:51:20Z</time>
      </trkpt>
      <trkpt lat="42.68532" lon="1.64874">
        <ele>1530.297</ele>
        <time>2021-06-13T13:51:22Z</time>
      </trkpt>
      <trkpt lat="42.68532" lon="1.64876">
        <ele>1530.241</ele>
        <time>2021-06-13T13:51:24Z</time>
      </trkpt>
      <trkpt lat="42.68531" lon="1.64876">
        <ele>1529.917</ele>
        <time>2021-06-13T13:51:26Z</time>
      </trkpt>
      <trkpt lat="42.68529" lon="1.64876">
        <ele>1531.643</ele>
        <time>2021-06-13T13:51:28Z</time>
      </trkpt>
      <trkpt lat="42.68528" lon="1.64876">
        <ele>1531.532</ele>
        <time>2021-06-13T13:51:30Z</time>
      </trkpt>
      <trkpt lat="42.68527" lon="1.64876">
        <ele>1532.097</ele>
        <time>2021-06-13T13:51:32Z</time>
      </trkpt>
      <trkpt lat="42.68525" lon="1.64878">
        <ele>1533.244</ele>
        <time>2021-06-13T13:51:34Z</time>
      </trkpt>
      <trkpt lat="42.68522" lon="1.64881">
        <ele>1536.716</ele>
        <time>2021-06-13T13:51:36Z</time>
      </trkpt>
      <trkpt lat="42.68522" lon="1.64881">
        <ele>1535.863</ele>
        <time>2021-06-13T13:51:38Z</time>
      </trkpt>
      <trkpt lat="42.68522" lon="1.64881">
        <ele>1535.863</ele>
        <time>2021-06-13T13:51:39Z</time>
      </trkpt>
      <trkpt lat="42.68523" lon="1.64878">
        <ele>1535.381</ele>
        <time>2021-06-13T13:51:45Z</time>
      </trkpt>
      <trkpt lat="42.68523" lon="1.64878">
        <ele>1535.383</ele>
        <time>2021-06-13T13:51:47Z</time>
      </trkpt>
      <trkpt lat="42.68523" lon="1.64878">
        <ele>1535.381</ele>
        <time>2021-06-13T13:51:48Z</time>
      </trkpt>
      <trkpt lat="42.68525" lon="1.64878">
        <ele>1535.083</ele>
        <time>2021-06-13T13:51:55Z</time>
      </trkpt>
      <trkpt lat="42.68525" lon="1.64878">
        <ele>1535.085</ele>
        <time>2021-06-13T13:51:57Z</time>
      </trkpt>
      <trkpt lat="42.68525" lon="1.64878">
        <ele>1534.946</ele>
        <time>2021-06-13T13:51:59Z</time>
      </trkpt>
      <trkpt lat="42.68525" lon="1.64877">
        <ele>1534.555</ele>
        <time>2021-06-13T13:52:01Z</time>
      </trkpt>
      <trkpt lat="42.68525" lon="1.64875">
        <ele>1533.585</ele>
        <time>2021-06-13T13:52:03Z</time>
      </trkpt>
      <trkpt lat="42.68525" lon="1.64874">
        <ele>1533.165</ele>
        <time>2021-06-13T13:52:05Z</time>
      </trkpt>
      <trkpt lat="42.68525" lon="1.64872">
        <ele>1532.641</ele>
        <time>2021-06-13T13:52:07Z</time>
      </trkpt>
      <trkpt lat="42.68525" lon="1.64871">
        <ele>1532.448</ele>
        <time>2021-06-13T13:52:09Z</time>
      </trkpt>
      <trkpt lat="42.68524" lon="1.64871">
        <ele>1532.87</ele>
        <time>2021-06-13T13:52:11Z</time>
      </trkpt>
      <trkpt lat="42.68523" lon="1.6487">
        <ele>1533.436</ele>
        <time>2021-06-13T13:52:13Z</time>
      </trkpt>
      <trkpt lat="42.68522" lon="1.64869">
        <ele>1532.588</ele>
        <time>2021-06-13T13:52:15Z</time>
      </trkpt>
      <trkpt lat="42.6852" lon="1.64867">
        <ele>1532.178</ele>
        <time>2021-06-13T13:52:17Z</time>
      </trkpt>
      <trkpt lat="42.68519" lon="1.64865">
        <ele>1531.742</ele>
        <time>2021-06-13T13:52:19Z</time>
      </trkpt>
      <trkpt lat="42.68518" lon="1.64863">
        <ele>1531.434</ele>
        <time>2021-06-13T13:52:21Z</time>
      </trkpt>
      <trkpt lat="42.68517" lon="1.64861">
        <ele>1529.693</ele>
        <time>2021-06-13T13:52:23Z</time>
      </trkpt>
      <trkpt lat="42.68516" lon="1.64859">
        <ele>1528.298</ele>
        <time>2021-06-13T13:52:25Z</time>
      </trkpt>
      <trkpt lat="42.68515" lon="1.64857">
        <ele>1527.905</ele>
        <time>2021-06-13T13:52:27Z</time>
      </trkpt>
      <trkpt lat="42.68514" lon="1.64857">
        <ele>1527.567</ele>
        <time>2021-06-13T13:52:28Z</time>
      </trkpt>
      <trkpt lat="42.68509" lon="1.64851">
        <ele>1526.19</ele>
        <time>2021-06-13T13:52:34Z</time>
      </trkpt>
      <trkpt lat="42.68507" lon="1.6485">
        <ele>1525.909</ele>
        <time>2021-06-13T13:52:36Z</time>
      </trkpt>
      <trkpt lat="42.68505" lon="1.64849">
        <ele>1525.994</ele>
        <time>2021-06-13T13:52:38Z</time>
      </trkpt>
      <trkpt lat="42.68504" lon="1.64848">
        <ele>1525.768</ele>
        <time>2021-06-13T13:52:40Z</time>
      </trkpt>
      <trkpt lat="42.68502" lon="1.64846">
        <ele>1525.769</ele>
        <time>2021-06-13T13:52:42Z</time>
      </trkpt>
      <trkpt lat="42.68501" lon="1.64845">
        <ele>1525.162</ele>
        <time>2021-06-13T13:52:44Z</time>
      </trkpt>
      <trkpt lat="42.68499" lon="1.64843">
        <ele>1525.388</ele>
        <time>2021-06-13T13:52:46Z</time>
      </trkpt>
      <trkpt lat="42.68498" lon="1.64842">
        <ele>1524.389</ele>
        <time>2021-06-13T13:52:48Z</time>
      </trkpt>
      <trkpt lat="42.68496" lon="1.6484">
        <ele>1525.063</ele>
        <time>2021-06-13T13:52:50Z</time>
      </trkpt>
      <trkpt lat="42.68494" lon="1.64839">
        <ele>1524.205</ele>
        <time>2021-06-13T13:52:52Z</time>
      </trkpt>
      <trkpt lat="42.68492" lon="1.64839">
        <ele>1524.356</ele>
        <time>2021-06-13T13:52:54Z</time>
      </trkpt>
      <trkpt lat="42.68491" lon="1.64838">
        <ele>1524.329</ele>
        <time>2021-06-13T13:52:56Z</time>
      </trkpt>
      <trkpt lat="42.6849" lon="1.64837">
        <ele>1523.805</ele>
        <time>2021-06-13T13:52:58Z</time>
      </trkpt>
      <trkpt lat="42.68488" lon="1.64836">
        <ele>1523.756</ele>
        <time>2021-06-13T13:53:00Z</time>
      </trkpt>
      <trkpt lat="42.68486" lon="1.64834">
        <ele>1523.146</ele>
        <time>2021-06-13T13:53:02Z</time>
      </trkpt>
      <trkpt lat="42.68484" lon="1.64833">
        <ele>1521.814</ele>
        <time>2021-06-13T13:53:04Z</time>
      </trkpt>
      <trkpt lat="42.68483" lon="1.64831">
        <ele>1520.703</ele>
        <time>2021-06-13T13:53:06Z</time>
      </trkpt>
      <trkpt lat="42.68481" lon="1.64829">
        <ele>1520.344</ele>
        <time>2021-06-13T13:53:08Z</time>
      </trkpt>
      <trkpt lat="42.68479" lon="1.64827">
        <ele>1519.518</ele>
        <time>2021-06-13T13:53:10Z</time>
      </trkpt>
      <trkpt lat="42.68477" lon="1.64825">
        <ele>1519.209</ele>
        <time>2021-06-13T13:53:12Z</time>
      </trkpt>
      <trkpt lat="42.68475" lon="1.64824">
        <ele>1518.101</ele>
        <time>2021-06-13T13:53:14Z</time>
      </trkpt>
      <trkpt lat="42.68474" lon="1.64822">
        <ele>1516.737</ele>
        <time>2021-06-13T13:53:16Z</time>
      </trkpt>
      <trkpt lat="42.68473" lon="1.6482">
        <ele>1516.743</ele>
        <time>2021-06-13T13:53:18Z</time>
      </trkpt>
      <trkpt lat="42.68472" lon="1.64819">
        <ele>1515.394</ele>
        <time>2021-06-13T13:53:20Z</time>
      </trkpt>
      <trkpt lat="42.6847" lon="1.64818">
        <ele>1516.203</ele>
        <time>2021-06-13T13:53:22Z</time>
      </trkpt>
      <trkpt lat="42.68467" lon="1.64817">
        <ele>1516.172</ele>
        <time>2021-06-13T13:53:24Z</time>
      </trkpt>
      <trkpt lat="42.68464" lon="1.64817">
        <ele>1516.267</ele>
        <time>2021-06-13T13:53:26Z</time>
      </trkpt>
      <trkpt lat="42.68461" lon="1.64816">
        <ele>1515.541</ele>
        <time>2021-06-13T13:53:28Z</time>
      </trkpt>
      <trkpt lat="42.68458" lon="1.64816">
        <ele>1514.391</ele>
        <time>2021-06-13T13:53:30Z</time>
      </trkpt>
      <trkpt lat="42.68456" lon="1.64815">
        <ele>1513.799</ele>
        <time>2021-06-13T13:53:32Z</time>
      </trkpt>
      <trkpt lat="42.68454" lon="1.64814">
        <ele>1514.698</ele>
        <time>2021-06-13T13:53:34Z</time>
      </trkpt>
      <trkpt lat="42.68451" lon="1.64813">
        <ele>1515.559</ele>
        <time>2021-06-13T13:53:36Z</time>
      </trkpt>
      <trkpt lat="42.68449" lon="1.64813">
        <ele>1513.763</ele>
        <time>2021-06-13T13:53:38Z</time>
      </trkpt>
      <trkpt lat="42.68447" lon="1.64812">
        <ele>1511.447</ele>
        <time>2021-06-13T13:53:40Z</time>
      </trkpt>
      <trkpt lat="42.68445" lon="1.6481">
        <ele>1511.652</ele>
        <time>2021-06-13T13:53:42Z</time>
      </trkpt>
      <trkpt lat="42.68444" lon="1.64808">
        <ele>1511.738</ele>
        <time>2021-06-13T13:53:44Z</time>
      </trkpt>
      <trkpt lat="42.68443" lon="1.64807">
        <ele>1511.627</ele>
        <time>2021-06-13T13:53:46Z</time>
      </trkpt>
      <trkpt lat="42.68443" lon="1.64807">
        <ele>1511.434</ele>
        <time>2021-06-13T13:53:48Z</time>
      </trkpt>
      <trkpt lat="42.68442" lon="1.64806">
        <ele>1511.354</ele>
        <time>2021-06-13T13:53:50Z</time>
      </trkpt>
      <trkpt lat="42.68442" lon="1.64806">
        <ele>1511.415</ele>
        <time>2021-06-13T13:53:52Z</time>
      </trkpt>
      <trkpt lat="42.68442" lon="1.64806">
        <ele>1511.44</ele>
        <time>2021-06-13T13:53:54Z</time>
      </trkpt>
      <trkpt lat="42.68442" lon="1.64806">
        <ele>1511.487</ele>
        <time>2021-06-13T13:53:56Z</time>
      </trkpt>
      <trkpt lat="42.68442" lon="1.64806">
        <ele>1511.513</ele>
        <time>2021-06-13T13:53:58Z</time>
      </trkpt>
      <trkpt lat="42.68442" lon="1.64806">
        <ele>1511.508</ele>
        <time>2021-06-13T13:54:00Z</time>
      </trkpt>
      <trkpt lat="42.68441" lon="1.64806">
        <ele>1511.478</ele>
        <time>2021-06-13T13:54:02Z</time>
      </trkpt>
      <trkpt lat="42.68441" lon="1.64807">
        <ele>1511.376</ele>
        <time>2021-06-13T13:54:04Z</time>
      </trkpt>
      <trkpt lat="42.68441" lon="1.64807">
        <ele>1511.01</ele>
        <time>2021-06-13T13:54:06Z</time>
      </trkpt>
      <trkpt lat="42.68441" lon="1.64808">
        <ele>1511.712</ele>
        <time>2021-06-13T13:54:08Z</time>
      </trkpt>
      <trkpt lat="42.6844" lon="1.64809">
        <ele>1511.609</ele>
        <time>2021-06-13T13:54:10Z</time>
      </trkpt>
      <trkpt lat="42.68439" lon="1.6481">
        <ele>1511.035</ele>
        <time>2021-06-13T13:54:12Z</time>
      </trkpt>
      <trkpt lat="42.68438" lon="1.64811">
        <ele>1511.492</ele>
        <time>2021-06-13T13:54:14Z</time>
      </trkpt>
      <trkpt lat="42.68436" lon="1.64813">
        <ele>1511.548</ele>
        <time>2021-06-13T13:54:16Z</time>
      </trkpt>
      <trkpt lat="42.68436" lon="1.64816">
        <ele>1511.282</ele>
        <time>2021-06-13T13:54:18Z</time>
      </trkpt>
      <trkpt lat="42.68436" lon="1.64818">
        <ele>1510.419</ele>
        <time>2021-06-13T13:54:20Z</time>
      </trkpt>
      <trkpt lat="42.68436" lon="1.64819">
        <ele>1510.514</ele>
        <time>2021-06-13T13:54:22Z</time>
      </trkpt>
      <trkpt lat="42.68437" lon="1.64821">
        <ele>1511.242</ele>
        <time>2021-06-13T13:54:24Z</time>
      </trkpt>
      <trkpt lat="42.68437" lon="1.64823">
        <ele>1511.148</ele>
        <time>2021-06-13T13:54:26Z</time>
      </trkpt>
      <trkpt lat="42.68436" lon="1.64827">
        <ele>1512.359</ele>
        <time>2021-06-13T13:54:32Z</time>
      </trkpt>
      <trkpt lat="42.68437" lon="1.64828">
        <ele>1512.384</ele>
        <time>2021-06-13T13:54:34Z</time>
      </trkpt>
      <trkpt lat="42.68437" lon="1.64828">
        <ele>1512.733</ele>
        <time>2021-06-13T13:54:36Z</time>
      </trkpt>
      <trkpt lat="42.68437" lon="1.64828">
        <ele>1513.336</ele>
        <time>2021-06-13T13:54:38Z</time>
      </trkpt>
      <trkpt lat="42.68437" lon="1.64829">
        <ele>1513.359</ele>
        <time>2021-06-13T13:54:40Z</time>
      </trkpt>
      <trkpt lat="42.68437" lon="1.64829">
        <ele>1513.366</ele>
        <time>2021-06-13T13:54:42Z</time>
      </trkpt>
      <trkpt lat="42.68438" lon="1.64829">
        <ele>1512.892</ele>
        <time>2021-06-13T13:54:44Z</time>
      </trkpt>
      <trkpt lat="42.68439" lon="1.64829">
        <ele>1513.698</ele>
        <time>2021-06-13T13:54:46Z</time>
      </trkpt>
      <trkpt lat="42.68441" lon="1.64829">
        <ele>1513.106</ele>
        <time>2021-06-13T13:54:48Z</time>
      </trkpt>
      <trkpt lat="42.68442" lon="1.64828">
        <ele>1513.095</ele>
        <time>2021-06-13T13:54:49Z</time>
      </trkpt>
      <trkpt lat="42.68443" lon="1.64831">
        <ele>1510.286</ele>
        <time>2021-06-13T13:54:55Z</time>
      </trkpt>
      <trkpt lat="42.68443" lon="1.64834">
        <ele>1511.824</ele>
        <time>2021-06-13T13:54:57Z</time>
      </trkpt>
      <trkpt lat="42.68442" lon="1.64837">
        <ele>1512.367</ele>
        <time>2021-06-13T13:54:59Z</time>
      </trkpt>
      <trkpt lat="42.68441" lon="1.64839">
        <ele>1512.425</ele>
        <time>2021-06-13T13:55:01Z</time>
      </trkpt>
      <trkpt lat="42.68441" lon="1.64841">
        <ele>1512.416</ele>
        <time>2021-06-13T13:55:03Z</time>
      </trkpt>
      <trkpt lat="42.68441" lon="1.64842">
        <ele>1511.26</ele>
        <time>2021-06-13T13:55:05Z</time>
      </trkpt>
      <trkpt lat="42.68441" lon="1.64841">
        <ele>1511.293</ele>
        <time>2021-06-13T13:55:07Z</time>
      </trkpt>
      <trkpt lat="42.68441" lon="1.64841">
        <ele>1511.298</ele>
        <time>2021-06-13T13:55:09Z</time>
      </trkpt>
      <trkpt lat="42.68441" lon="1.64841">
        <ele>1511.317</ele>
        <time>2021-06-13T13:55:11Z</time>
      </trkpt>
      <trkpt lat="42.68441" lon="1.64841">
        <ele>1511.329</ele>
        <time>2021-06-13T13:55:13Z</time>
      </trkpt>
      <trkpt lat="42.68441" lon="1.64841">
        <ele>1511.355</ele>
        <time>2021-06-13T13:55:15Z</time>
      </trkpt>
      <trkpt lat="42.68441" lon="1.64841">
        <ele>1511.361</ele>
        <time>2021-06-13T13:55:17Z</time>
      </trkpt>
      <trkpt lat="42.6844" lon="1.64842">
        <ele>1511.256</ele>
        <time>2021-06-13T13:55:19Z</time>
      </trkpt>
      <trkpt lat="42.68439" lon="1.64843">
        <ele>1512.099</ele>
        <time>2021-06-13T13:55:21Z</time>
      </trkpt>
      <trkpt lat="42.68438" lon="1.64845">
        <ele>1511.869</ele>
        <time>2021-06-13T13:55:23Z</time>
      </trkpt>
      <trkpt lat="42.68436" lon="1.64846">
        <ele>1511.218</ele>
        <time>2021-06-13T13:55:25Z</time>
      </trkpt>
      <trkpt lat="42.68434" lon="1.64847">
        <ele>1511.051</ele>
        <time>2021-06-13T13:55:27Z</time>
      </trkpt>
      <trkpt lat="42.68433" lon="1.64849">
        <ele>1511.564</ele>
        <time>2021-06-13T13:55:29Z</time>
      </trkpt>
      <trkpt lat="42.68431" lon="1.64851">
        <ele>1512.27</ele>
        <time>2021-06-13T13:55:31Z</time>
      </trkpt>
      <trkpt lat="42.6843" lon="1.64852">
        <ele>1511.546</ele>
        <time>2021-06-13T13:55:33Z</time>
      </trkpt>
      <trkpt lat="42.68429" lon="1.64853">
        <ele>1512.656</ele>
        <time>2021-06-13T13:55:35Z</time>
      </trkpt>
      <trkpt lat="42.68427" lon="1.64854">
        <ele>1514.849</ele>
        <time>2021-06-13T13:55:37Z</time>
      </trkpt>
      <trkpt lat="42.68426" lon="1.64855">
        <ele>1515.303</ele>
        <time>2021-06-13T13:55:39Z</time>
      </trkpt>
      <trkpt lat="42.68425" lon="1.64855">
        <ele>1517.118</ele>
        <time>2021-06-13T13:55:41Z</time>
      </trkpt>
      <trkpt lat="42.68425" lon="1.64855">
        <ele>1515.657</ele>
        <time>2021-06-13T13:55:43Z</time>
      </trkpt>
      <trkpt lat="42.68425" lon="1.64855">
        <ele>1516.017</ele>
        <time>2021-06-13T13:55:45Z</time>
      </trkpt>
      <trkpt lat="42.68425" lon="1.64855">
        <ele>1516.008</ele>
        <time>2021-06-13T13:55:47Z</time>
      </trkpt>
      <trkpt lat="42.68425" lon="1.64855">
        <ele>1516.003</ele>
        <time>2021-06-13T13:55:49Z</time>
      </trkpt>
      <trkpt lat="42.68425" lon="1.64854">
        <ele>1515.606</ele>
        <time>2021-06-13T13:55:51Z</time>
      </trkpt>
      <trkpt lat="42.68424" lon="1.64853">
        <ele>1516.064</ele>
        <time>2021-06-13T13:55:53Z</time>
      </trkpt>
      <trkpt lat="42.68422" lon="1.64853">
        <ele>1516.153</ele>
        <time>2021-06-13T13:55:55Z</time>
      </trkpt>
      <trkpt lat="42.68421" lon="1.64852">
        <ele>1516.592</ele>
        <time>2021-06-13T13:55:57Z</time>
      </trkpt>
      <trkpt lat="42.68422" lon="1.6485">
        <ele>1514.785</ele>
        <time>2021-06-13T13:55:59Z</time>
      </trkpt>
      <trkpt lat="42.68422" lon="1.6485">
        <ele>1514.806</ele>
        <time>2021-06-13T13:56:01Z</time>
      </trkpt>
      <trkpt lat="42.68422" lon="1.6485">
        <ele>1514.798</ele>
        <time>2021-06-13T13:56:03Z</time>
      </trkpt>
      <trkpt lat="42.68422" lon="1.6485">
        <ele>1514.786</ele>
        <time>2021-06-13T13:56:05Z</time>
      </trkpt>
      <trkpt lat="42.68423" lon="1.6485">
        <ele>1514.773</ele>
        <time>2021-06-13T13:56:07Z</time>
      </trkpt>
      <trkpt lat="42.68423" lon="1.6485">
        <ele>1514.758</ele>
        <time>2021-06-13T13:56:09Z</time>
      </trkpt>
      <trkpt lat="42.68423" lon="1.6485">
        <ele>1514.756</ele>
        <time>2021-06-13T13:56:11Z</time>
      </trkpt>
      <trkpt lat="42.68423" lon="1.6485">
        <ele>1514.736</ele>
        <time>2021-06-13T13:56:13Z</time>
      </trkpt>
      <trkpt lat="42.68423" lon="1.6485">
        <ele>1514.725</ele>
        <time>2021-06-13T13:56:15Z</time>
      </trkpt>
      <trkpt lat="42.68423" lon="1.6485">
        <ele>1514.707</ele>
        <time>2021-06-13T13:56:17Z</time>
      </trkpt>
      <trkpt lat="42.68423" lon="1.6485">
        <ele>1514.686</ele>
        <time>2021-06-13T13:56:19Z</time>
      </trkpt>
      <trkpt lat="42.68423" lon="1.6485">
        <ele>1514.638</ele>
        <time>2021-06-13T13:56:21Z</time>
      </trkpt>
      <trkpt lat="42.68423" lon="1.6485">
        <ele>1514.625</ele>
        <time>2021-06-13T13:56:23Z</time>
      </trkpt>
      <trkpt lat="42.68423" lon="1.6485">
        <ele>1514.607</ele>
        <time>2021-06-13T13:56:25Z</time>
      </trkpt>
      <trkpt lat="42.68423" lon="1.6485">
        <ele>1514.617</ele>
        <time>2021-06-13T13:56:27Z</time>
      </trkpt>
      <trkpt lat="42.68423" lon="1.6485">
        <ele>1514.622</ele>
        <time>2021-06-13T13:56:29Z</time>
      </trkpt>
      <trkpt lat="42.68423" lon="1.6485">
        <ele>1514.621</ele>
        <time>2021-06-13T13:56:31Z</time>
      </trkpt>
      <trkpt lat="42.68423" lon="1.6485">
        <ele>1514.622</ele>
        <time>2021-06-13T13:56:33Z</time>
      </trkpt>
      <trkpt lat="42.68423" lon="1.6485">
        <ele>1514.623</ele>
        <time>2021-06-13T13:56:35Z</time>
      </trkpt>
      <trkpt lat="42.68423" lon="1.6485">
        <ele>1514.626</ele>
        <time>2021-06-13T13:56:37Z</time>
      </trkpt>
      <trkpt lat="42.68423" lon="1.6485">
        <ele>1514.652</ele>
        <time>2021-06-13T13:56:39Z</time>
      </trkpt>
      <trkpt lat="42.68423" lon="1.6485">
        <ele>1514.657</ele>
        <time>2021-06-13T13:56:41Z</time>
      </trkpt>
      <trkpt lat="42.68423" lon="1.6485">
        <ele>1514.43</ele>
        <time>2021-06-13T13:56:43Z</time>
      </trkpt>
      <trkpt lat="42.68422" lon="1.64849">
        <ele>1514.08</ele>
        <time>2021-06-13T13:56:45Z</time>
      </trkpt>
      <trkpt lat="42.68422" lon="1.64849">
        <ele>1514.156</ele>
        <time>2021-06-13T13:56:47Z</time>
      </trkpt>
      <trkpt lat="42.68422" lon="1.64849">
        <ele>1514.153</ele>
        <time>2021-06-13T13:56:49Z</time>
      </trkpt>
      <trkpt lat="42.68422" lon="1.64849">
        <ele>1514.154</ele>
        <time>2021-06-13T13:56:51Z</time>
      </trkpt>
      <trkpt lat="42.68422" lon="1.64849">
        <ele>1514.151</ele>
        <time>2021-06-13T13:56:53Z</time>
      </trkpt>
      <trkpt lat="42.68422" lon="1.64849">
        <ele>1514.136</ele>
        <time>2021-06-13T13:56:55Z</time>
      </trkpt>
      <trkpt lat="42.68422" lon="1.64849">
        <ele>1514.124</ele>
        <time>2021-06-13T13:56:57Z</time>
      </trkpt>
      <trkpt lat="42.68422" lon="1.64849">
        <ele>1514.112</ele>
        <time>2021-06-13T13:56:59Z</time>
      </trkpt>
      <trkpt lat="42.68422" lon="1.64849">
        <ele>1514.106</ele>
        <time>2021-06-13T13:57:01Z</time>
      </trkpt>
      <trkpt lat="42.68422" lon="1.64849">
        <ele>1514.098</ele>
        <time>2021-06-13T13:57:03Z</time>
      </trkpt>
      <trkpt lat="42.68422" lon="1.64849">
        <ele>1514.092</ele>
        <time>2021-06-13T13:57:05Z</time>
      </trkpt>
      <trkpt lat="42.68422" lon="1.64849">
        <ele>1514.082</ele>
        <time>2021-06-13T13:57:07Z</time>
      </trkpt>
      <trkpt lat="42.68422" lon="1.64849">
        <ele>1514.062</ele>
        <time>2021-06-13T13:57:09Z</time>
      </trkpt>
      <trkpt lat="42.68422" lon="1.64849">
        <ele>1514.035</ele>
        <time>2021-06-13T13:57:11Z</time>
      </trkpt>
      <trkpt lat="42.68422" lon="1.64849">
        <ele>1514.041</ele>
        <time>2021-06-13T13:57:13Z</time>
      </trkpt>
      <trkpt lat="42.68423" lon="1.64849">
        <ele>1514.015</ele>
        <time>2021-06-13T13:57:15Z</time>
      </trkpt>
      <trkpt lat="42.68423" lon="1.64849">
        <ele>1513.955</ele>
        <time>2021-06-13T13:57:17Z</time>
      </trkpt>
      <trkpt lat="42.68423" lon="1.64849">
        <ele>1513.939</ele>
        <time>2021-06-13T13:57:19Z</time>
      </trkpt>
      <trkpt lat="42.68423" lon="1.64849">
        <ele>1513.945</ele>
        <time>2021-06-13T13:57:21Z</time>
      </trkpt>
      <trkpt lat="42.68423" lon="1.64849">
        <ele>1513.92</ele>
        <time>2021-06-13T13:57:23Z</time>
      </trkpt>
      <trkpt lat="42.68423" lon="1.64849">
        <ele>1513.919</ele>
        <time>2021-06-13T13:57:25Z</time>
      </trkpt>
      <trkpt lat="42.68423" lon="1.64849">
        <ele>1513.903</ele>
        <time>2021-06-13T13:57:27Z</time>
      </trkpt>
      <trkpt lat="42.68423" lon="1.64849">
        <ele>1513.893</ele>
        <time>2021-06-13T13:57:29Z</time>
      </trkpt>
      <trkpt lat="42.68423" lon="1.6485">
        <ele>1513.872</ele>
        <time>2021-06-13T13:57:31Z</time>
      </trkpt>
      <trkpt lat="42.68422" lon="1.64857">
        <ele>1514.227</ele>
        <time>2021-06-13T13:57:33Z</time>
      </trkpt>
      <trkpt lat="42.68421" lon="1.64858">
        <ele>1514.198</ele>
        <time>2021-06-13T13:57:35Z</time>
      </trkpt>
      <trkpt lat="42.6842" lon="1.64857">
        <ele>1514.023</ele>
        <time>2021-06-13T13:57:37Z</time>
      </trkpt>
      <trkpt lat="42.68419" lon="1.64857">
        <ele>1514.138</ele>
        <time>2021-06-13T13:57:39Z</time>
      </trkpt>
      <trkpt lat="42.68418" lon="1.64856">
        <ele>1514.096</ele>
        <time>2021-06-13T13:57:41Z</time>
      </trkpt>
      <trkpt lat="42.68416" lon="1.64855">
        <ele>1514.73</ele>
        <time>2021-06-13T13:57:43Z</time>
      </trkpt>
      <trkpt lat="42.68415" lon="1.64853">
        <ele>1514.982</ele>
        <time>2021-06-13T13:57:45Z</time>
      </trkpt>
      <trkpt lat="42.68413" lon="1.64852">
        <ele>1515.225</ele>
        <time>2021-06-13T13:57:47Z</time>
      </trkpt>
      <trkpt lat="42.68411" lon="1.64852">
        <ele>1514.006</ele>
        <time>2021-06-13T13:57:49Z</time>
      </trkpt>
      <trkpt lat="42.68409" lon="1.64851">
        <ele>1515.104</ele>
        <time>2021-06-13T13:57:51Z</time>
      </trkpt>
      <trkpt lat="42.68406" lon="1.6485">
        <ele>1516.291</ele>
        <time>2021-06-13T13:57:53Z</time>
      </trkpt>
      <trkpt lat="42.68404" lon="1.6485">
        <ele>1516.847</ele>
        <time>2021-06-13T13:57:55Z</time>
      </trkpt>
      <trkpt lat="42.68402" lon="1.6485">
        <ele>1517.11</ele>
        <time>2021-06-13T13:57:57Z</time>
      </trkpt>
      <trkpt lat="42.68401" lon="1.64851">
        <ele>1516.543</ele>
        <time>2021-06-13T13:57:59Z</time>
      </trkpt>
      <trkpt lat="42.684" lon="1.64853">
        <ele>1516.773</ele>
        <time>2021-06-13T13:58:01Z</time>
      </trkpt>
      <trkpt lat="42.68398" lon="1.64855">
        <ele>1517.001</ele>
        <time>2021-06-13T13:58:03Z</time>
      </trkpt>
      <trkpt lat="42.68398" lon="1.64857">
        <ele>1517.894</ele>
        <time>2021-06-13T13:58:05Z</time>
      </trkpt>
      <trkpt lat="42.68397" lon="1.64859">
        <ele>1517.662</ele>
        <time>2021-06-13T13:58:07Z</time>
      </trkpt>
      <trkpt lat="42.68396" lon="1.64861">
        <ele>1518.998</ele>
        <time>2021-06-13T13:58:09Z</time>
      </trkpt>
      <trkpt lat="42.68396" lon="1.64863">
        <ele>1519.785</ele>
        <time>2021-06-13T13:58:11Z</time>
      </trkpt>
      <trkpt lat="42.68395" lon="1.64865">
        <ele>1520.533</ele>
        <time>2021-06-13T13:58:13Z</time>
      </trkpt>
      <trkpt lat="42.68395" lon="1.64867">
        <ele>1519.174</ele>
        <time>2021-06-13T13:58:15Z</time>
      </trkpt>
      <trkpt lat="42.68394" lon="1.64869">
        <ele>1520.849</ele>
        <time>2021-06-13T13:58:17Z</time>
      </trkpt>
      <trkpt lat="42.68394" lon="1.64869">
        <ele>1519.885</ele>
        <time>2021-06-13T13:58:19Z</time>
      </trkpt>
      <trkpt lat="42.68394" lon="1.64869">
        <ele>1519.873</ele>
        <time>2021-06-13T13:58:21Z</time>
      </trkpt>
      <trkpt lat="42.68394" lon="1.6487">
        <ele>1520.34</ele>
        <time>2021-06-13T13:58:23Z</time>
      </trkpt>
      <trkpt lat="42.68393" lon="1.64872">
        <ele>1520.562</ele>
        <time>2021-06-13T13:58:25Z</time>
      </trkpt>
      <trkpt lat="42.68394" lon="1.64872">
        <ele>1519.588</ele>
        <time>2021-06-13T13:58:27Z</time>
      </trkpt>
      <trkpt lat="42.68394" lon="1.64872">
        <ele>1519.591</ele>
        <time>2021-06-13T13:58:29Z</time>
      </trkpt>
      <trkpt lat="42.68394" lon="1.64873">
        <ele>1518.978</ele>
        <time>2021-06-13T13:58:31Z</time>
      </trkpt>
      <trkpt lat="42.68395" lon="1.64875">
        <ele>1518.145</ele>
        <time>2021-06-13T13:58:33Z</time>
      </trkpt>
      <trkpt lat="42.68395" lon="1.64877">
        <ele>1519.068</ele>
        <time>2021-06-13T13:58:35Z</time>
      </trkpt>
      <trkpt lat="42.68398" lon="1.64878">
        <ele>1518.466</ele>
        <time>2021-06-13T13:58:37Z</time>
      </trkpt>
      <trkpt lat="42.684" lon="1.64878">
        <ele>1517.228</ele>
        <time>2021-06-13T13:58:39Z</time>
      </trkpt>
      <trkpt lat="42.68401" lon="1.64881">
        <ele>1516.867</ele>
        <time>2021-06-13T13:58:41Z</time>
      </trkpt>
      <trkpt lat="42.68402" lon="1.64883">
        <ele>1516.441</ele>
        <time>2021-06-13T13:58:43Z</time>
      </trkpt>
      <trkpt lat="42.68404" lon="1.64885">
        <ele>1516.028</ele>
        <time>2021-06-13T13:58:45Z</time>
      </trkpt>
      <trkpt lat="42.68405" lon="1.64888">
        <ele>1515.708</ele>
        <time>2021-06-13T13:58:47Z</time>
      </trkpt>
      <trkpt lat="42.68407" lon="1.6489">
        <ele>1516.16</ele>
        <time>2021-06-13T13:58:49Z</time>
      </trkpt>
      <trkpt lat="42.68408" lon="1.64891">
        <ele>1516.389</ele>
        <time>2021-06-13T13:58:51Z</time>
      </trkpt>
      <trkpt lat="42.6841" lon="1.64893">
        <ele>1515.949</ele>
        <time>2021-06-13T13:58:53Z</time>
      </trkpt>
      <trkpt lat="42.68412" lon="1.64894">
        <ele>1516.366</ele>
        <time>2021-06-13T13:58:55Z</time>
      </trkpt>
      <trkpt lat="42.68414" lon="1.64896">
        <ele>1516.279</ele>
        <time>2021-06-13T13:58:57Z</time>
      </trkpt>
      <trkpt lat="42.68415" lon="1.64898">
        <ele>1515.293</ele>
        <time>2021-06-13T13:58:59Z</time>
      </trkpt>
      <trkpt lat="42.68416" lon="1.649">
        <ele>1514.639</ele>
        <time>2021-06-13T13:59:01Z</time>
      </trkpt>
      <trkpt lat="42.68418" lon="1.64901">
        <ele>1514.269</ele>
        <time>2021-06-13T13:59:03Z</time>
      </trkpt>
      <trkpt lat="42.6842" lon="1.64902">
        <ele>1514.436</ele>
        <time>2021-06-13T13:59:05Z</time>
      </trkpt>
      <trkpt lat="42.68422" lon="1.64903">
        <ele>1514.647</ele>
        <time>2021-06-13T13:59:07Z</time>
      </trkpt>
      <trkpt lat="42.68424" lon="1.64904">
        <ele>1513.592</ele>
        <time>2021-06-13T13:59:09Z</time>
      </trkpt>
      <trkpt lat="42.68425" lon="1.64906">
        <ele>1512.86</ele>
        <time>2021-06-13T13:59:11Z</time>
      </trkpt>
      <trkpt lat="42.68426" lon="1.64908">
        <ele>1513.135</ele>
        <time>2021-06-13T13:59:13Z</time>
      </trkpt>
      <trkpt lat="42.68427" lon="1.64911">
        <ele>1512.936</ele>
        <time>2021-06-13T13:59:15Z</time>
      </trkpt>
      <trkpt lat="42.68428" lon="1.64914">
        <ele>1512.558</ele>
        <time>2021-06-13T13:59:17Z</time>
      </trkpt>
      <trkpt lat="42.68429" lon="1.64917">
        <ele>1512.706</ele>
        <time>2021-06-13T13:59:19Z</time>
      </trkpt>
      <trkpt lat="42.6843" lon="1.64919">
        <ele>1512.019</ele>
        <time>2021-06-13T13:59:21Z</time>
      </trkpt>
      <trkpt lat="42.6843" lon="1.64922">
        <ele>1511.887</ele>
        <time>2021-06-13T13:59:23Z</time>
      </trkpt>
      <trkpt lat="42.6843" lon="1.64923">
        <ele>1510.927</ele>
        <time>2021-06-13T13:59:25Z</time>
      </trkpt>
      <trkpt lat="42.6843" lon="1.64925">
        <ele>1510.37</ele>
        <time>2021-06-13T13:59:27Z</time>
      </trkpt>
      <trkpt lat="42.68431" lon="1.64927">
        <ele>1509.822</ele>
        <time>2021-06-13T13:59:29Z</time>
      </trkpt>
      <trkpt lat="42.68433" lon="1.64928">
        <ele>1509.791</ele>
        <time>2021-06-13T13:59:31Z</time>
      </trkpt>
      <trkpt lat="42.68434" lon="1.6493">
        <ele>1508.478</ele>
        <time>2021-06-13T13:59:33Z</time>
      </trkpt>
      <trkpt lat="42.68434" lon="1.64932">
        <ele>1508.138</ele>
        <time>2021-06-13T13:59:35Z</time>
      </trkpt>
      <trkpt lat="42.68435" lon="1.64934">
        <ele>1507.959</ele>
        <time>2021-06-13T13:59:37Z</time>
      </trkpt>
      <trkpt lat="42.68435" lon="1.64936">
        <ele>1508.044</ele>
        <time>2021-06-13T13:59:39Z</time>
      </trkpt>
      <trkpt lat="42.68435" lon="1.64938">
        <ele>1507.684</ele>
        <time>2021-06-13T13:59:41Z</time>
      </trkpt>
      <trkpt lat="42.68435" lon="1.6494">
        <ele>1507.39</ele>
        <time>2021-06-13T13:59:43Z</time>
      </trkpt>
      <trkpt lat="42.68436" lon="1.64942">
        <ele>1507.71</ele>
        <time>2021-06-13T13:59:45Z</time>
      </trkpt>
      <trkpt lat="42.68436" lon="1.64944">
        <ele>1507.467</ele>
        <time>2021-06-13T13:59:47Z</time>
      </trkpt>
      <trkpt lat="42.68436" lon="1.64946">
        <ele>1506.79</ele>
        <time>2021-06-13T13:59:49Z</time>
      </trkpt>
      <trkpt lat="42.68437" lon="1.64948">
        <ele>1506.19</ele>
        <time>2021-06-13T13:59:51Z</time>
      </trkpt>
      <trkpt lat="42.68439" lon="1.64948">
        <ele>1505.162</ele>
        <time>2021-06-13T13:59:53Z</time>
      </trkpt>
      <trkpt lat="42.68439" lon="1.6495">
        <ele>1505.662</ele>
        <time>2021-06-13T13:59:55Z</time>
      </trkpt>
      <trkpt lat="42.68441" lon="1.64952">
        <ele>1505.637</ele>
        <time>2021-06-13T13:59:57Z</time>
      </trkpt>
      <trkpt lat="42.68441" lon="1.64951">
        <ele>1505.449</ele>
        <time>2021-06-13T13:59:59Z</time>
      </trkpt>
      <trkpt lat="42.68441" lon="1.64951">
        <ele>1505.442</ele>
        <time>2021-06-13T14:00:01Z</time>
      </trkpt>
      <trkpt lat="42.68441" lon="1.64951">
        <ele>1505.434</ele>
        <time>2021-06-13T14:00:03Z</time>
      </trkpt>
      <trkpt lat="42.68441" lon="1.64951">
        <ele>1505.434</ele>
        <time>2021-06-13T14:00:05Z</time>
      </trkpt>
      <trkpt lat="42.68441" lon="1.64951">
        <ele>1505.43</ele>
        <time>2021-06-13T14:00:07Z</time>
      </trkpt>
      <trkpt lat="42.68441" lon="1.64951">
        <ele>1505.43</ele>
        <time>2021-06-13T14:00:09Z</time>
      </trkpt>
      <trkpt lat="42.68441" lon="1.64951">
        <ele>1505.425</ele>
        <time>2021-06-13T14:00:11Z</time>
      </trkpt>
      <trkpt lat="42.68442" lon="1.64952">
        <ele>1505.224</ele>
        <time>2021-06-13T14:00:13Z</time>
      </trkpt>
      <trkpt lat="42.68444" lon="1.64952">
        <ele>1504.708</ele>
        <time>2021-06-13T14:00:15Z</time>
      </trkpt>
      <trkpt lat="42.68445" lon="1.64954">
        <ele>1503.697</ele>
        <time>2021-06-13T14:00:17Z</time>
      </trkpt>
      <trkpt lat="42.68446" lon="1.64955">
        <ele>1502.796</ele>
        <time>2021-06-13T14:00:19Z</time>
      </trkpt>
      <trkpt lat="42.68446" lon="1.64957">
        <ele>1502.951</ele>
        <time>2021-06-13T14:00:21Z</time>
      </trkpt>
      <trkpt lat="42.68447" lon="1.6496">
        <ele>1503.435</ele>
        <time>2021-06-13T14:00:23Z</time>
      </trkpt>
      <trkpt lat="42.68447" lon="1.64962">
        <ele>1503.136</ele>
        <time>2021-06-13T14:00:25Z</time>
      </trkpt>
      <trkpt lat="42.68447" lon="1.64964">
        <ele>1502.664</ele>
        <time>2021-06-13T14:00:27Z</time>
      </trkpt>
      <trkpt lat="42.68448" lon="1.64967">
        <ele>1502.879</ele>
        <time>2021-06-13T14:00:29Z</time>
      </trkpt>
      <trkpt lat="42.68448" lon="1.6497">
        <ele>1502.719</ele>
        <time>2021-06-13T14:00:31Z</time>
      </trkpt>
      <trkpt lat="42.68448" lon="1.64971">
        <ele>1502.086</ele>
        <time>2021-06-13T14:00:33Z</time>
      </trkpt>
      <trkpt lat="42.68448" lon="1.64973">
        <ele>1502.282</ele>
        <time>2021-06-13T14:00:35Z</time>
      </trkpt>
      <trkpt lat="42.6845" lon="1.64974">
        <ele>1502.064</ele>
        <time>2021-06-13T14:00:37Z</time>
      </trkpt>
      <trkpt lat="42.68451" lon="1.64974">
        <ele>1502.995</ele>
        <time>2021-06-13T14:00:39Z</time>
      </trkpt>
      <trkpt lat="42.68452" lon="1.64973">
        <ele>1501.842</ele>
        <time>2021-06-13T14:00:41Z</time>
      </trkpt>
      <trkpt lat="42.6845" lon="1.6497">
        <ele>1501.944</ele>
        <time>2021-06-13T14:00:43Z</time>
      </trkpt>
      <trkpt lat="42.68449" lon="1.64969">
        <ele>1502.3</ele>
        <time>2021-06-13T14:00:45Z</time>
      </trkpt>
      <trkpt lat="42.68448" lon="1.64968">
        <ele>1502.462</ele>
        <time>2021-06-13T14:00:47Z</time>
      </trkpt>
      <trkpt lat="42.68445" lon="1.64969">
        <ele>1502.806</ele>
        <time>2021-06-13T14:00:49Z</time>
      </trkpt>
      <trkpt lat="42.68444" lon="1.64968">
        <ele>1503.059</ele>
        <time>2021-06-13T14:00:51Z</time>
      </trkpt>
      <trkpt lat="42.68444" lon="1.64968">
        <ele>1503.045</ele>
        <time>2021-06-13T14:00:57Z</time>
      </trkpt>
      <trkpt lat="42.68444" lon="1.64968">
        <ele>1503.067</ele>
        <time>2021-06-13T14:00:59Z</time>
      </trkpt>
      <trkpt lat="42.68444" lon="1.64968">
        <ele>1503.077</ele>
        <time>2021-06-13T14:01:01Z</time>
      </trkpt>
      <trkpt lat="42.68444" lon="1.64968">
        <ele>1503.072</ele>
        <time>2021-06-13T14:01:03Z</time>
      </trkpt>
      <trkpt lat="42.68444" lon="1.64968">
        <ele>1503.738</ele>
        <time>2021-06-13T14:01:05Z</time>
      </trkpt>
      <trkpt lat="42.68444" lon="1.64968">
        <ele>1503.518</ele>
        <time>2021-06-13T14:01:07Z</time>
      </trkpt>
      <trkpt lat="42.68443" lon="1.64968">
        <ele>1503.253</ele>
        <time>2021-06-13T14:01:09Z</time>
      </trkpt>
      <trkpt lat="42.68443" lon="1.64969">
        <ele>1503.254</ele>
        <time>2021-06-13T14:01:11Z</time>
      </trkpt>
      <trkpt lat="42.68443" lon="1.64969">
        <ele>1503.262</ele>
        <time>2021-06-13T14:01:13Z</time>
      </trkpt>
      <trkpt lat="42.68443" lon="1.64969">
        <ele>1503.54</ele>
        <time>2021-06-13T14:01:15Z</time>
      </trkpt>
      <trkpt lat="42.68444" lon="1.64969">
        <ele>1503.503</ele>
        <time>2021-06-13T14:01:17Z</time>
      </trkpt>
      <trkpt lat="42.68444" lon="1.6497">
        <ele>1503.501</ele>
        <time>2021-06-13T14:01:19Z</time>
      </trkpt>
      <trkpt lat="42.68444" lon="1.6497">
        <ele>1503.49</ele>
        <time>2021-06-13T14:01:21Z</time>
      </trkpt>
      <trkpt lat="42.68444" lon="1.6497">
        <ele>1503.258</ele>
        <time>2021-06-13T14:01:23Z</time>
      </trkpt>
      <trkpt lat="42.68444" lon="1.6497">
        <ele>1503.24</ele>
        <time>2021-06-13T14:01:25Z</time>
      </trkpt>
      <trkpt lat="42.68444" lon="1.6497">
        <ele>1503.241</ele>
        <time>2021-06-13T14:01:27Z</time>
      </trkpt>
      <trkpt lat="42.68444" lon="1.6497">
        <ele>1503.226</ele>
        <time>2021-06-13T14:01:29Z</time>
      </trkpt>
      <trkpt lat="42.68444" lon="1.64971">
        <ele>1503.337</ele>
        <time>2021-06-13T14:01:31Z</time>
      </trkpt>
      <trkpt lat="42.68444" lon="1.6497">
        <ele>1503.638</ele>
        <time>2021-06-13T14:01:33Z</time>
      </trkpt>
      <trkpt lat="42.68444" lon="1.64969">
        <ele>1502.965</ele>
        <time>2021-06-13T14:01:35Z</time>
      </trkpt>
      <trkpt lat="42.68444" lon="1.64969">
        <ele>1502.928</ele>
        <time>2021-06-13T14:01:37Z</time>
      </trkpt>
      <trkpt lat="42.68444" lon="1.64969">
        <ele>1502.917</ele>
        <time>2021-06-13T14:01:39Z</time>
      </trkpt>
      <trkpt lat="42.68444" lon="1.64969">
        <ele>1502.918</ele>
        <time>2021-06-13T14:01:41Z</time>
      </trkpt>
      <trkpt lat="42.68444" lon="1.64969">
        <ele>1502.927</ele>
        <time>2021-06-13T14:01:43Z</time>
      </trkpt>
      <trkpt lat="42.68444" lon="1.6497">
        <ele>1502.27</ele>
        <time>2021-06-13T14:01:45Z</time>
      </trkpt>
      <trkpt lat="42.68446" lon="1.64971">
        <ele>1501.833</ele>
        <time>2021-06-13T14:01:47Z</time>
      </trkpt>
      <trkpt lat="42.68447" lon="1.64973">
        <ele>1502.203</ele>
        <time>2021-06-13T14:01:49Z</time>
      </trkpt>
      <trkpt lat="42.68448" lon="1.64973">
        <ele>1502.394</ele>
        <time>2021-06-13T14:01:51Z</time>
      </trkpt>
      <trkpt lat="42.68449" lon="1.64974">
        <ele>1502.099</ele>
        <time>2021-06-13T14:01:53Z</time>
      </trkpt>
      <trkpt lat="42.6845" lon="1.64974">
        <ele>1501.997</ele>
        <time>2021-06-13T14:01:55Z</time>
      </trkpt>
      <trkpt lat="42.68451" lon="1.64974">
        <ele>1501.57</ele>
        <time>2021-06-13T14:01:57Z</time>
      </trkpt>
      <trkpt lat="42.68452" lon="1.64974">
        <ele>1501.83</ele>
        <time>2021-06-13T14:01:59Z</time>
      </trkpt>
      <trkpt lat="42.68454" lon="1.64975">
        <ele>1502.032</ele>
        <time>2021-06-13T14:02:01Z</time>
      </trkpt>
      <trkpt lat="42.68455" lon="1.64976">
        <ele>1501.358</ele>
        <time>2021-06-13T14:02:03Z</time>
      </trkpt>
      <trkpt lat="42.68458" lon="1.64977">
        <ele>1500.66</ele>
        <time>2021-06-13T14:02:05Z</time>
      </trkpt>
      <trkpt lat="42.6846" lon="1.64978">
        <ele>1500.442</ele>
        <time>2021-06-13T14:02:07Z</time>
      </trkpt>
      <trkpt lat="42.68462" lon="1.64978">
        <ele>1500.082</ele>
        <time>2021-06-13T14:02:09Z</time>
      </trkpt>
      <trkpt lat="42.68464" lon="1.64978">
        <ele>1500</ele>
        <time>2021-06-13T14:02:11Z</time>
      </trkpt>
      <trkpt lat="42.6847" lon="1.64979">
        <ele>1499.956</ele>
        <time>2021-06-13T14:02:17Z</time>
      </trkpt>
      <trkpt lat="42.68471" lon="1.64981">
        <ele>1499.636</ele>
        <time>2021-06-13T14:02:19Z</time>
      </trkpt>
      <trkpt lat="42.68473" lon="1.64983">
        <ele>1499.658</ele>
        <time>2021-06-13T14:02:21Z</time>
      </trkpt>
      <trkpt lat="42.68474" lon="1.64985">
        <ele>1499.802</ele>
        <time>2021-06-13T14:02:23Z</time>
      </trkpt>
      <trkpt lat="42.68476" lon="1.64987">
        <ele>1500.188</ele>
        <time>2021-06-13T14:02:25Z</time>
      </trkpt>
      <trkpt lat="42.68477" lon="1.6499">
        <ele>1501.145</ele>
        <time>2021-06-13T14:02:27Z</time>
      </trkpt>
      <trkpt lat="42.68478" lon="1.64993">
        <ele>1501.961</ele>
        <time>2021-06-13T14:02:29Z</time>
      </trkpt>
      <trkpt lat="42.68479" lon="1.64995">
        <ele>1501.705</ele>
        <time>2021-06-13T14:02:31Z</time>
      </trkpt>
      <trkpt lat="42.6848" lon="1.64994">
        <ele>1501.478</ele>
        <time>2021-06-13T14:02:33Z</time>
      </trkpt>
      <trkpt lat="42.6848" lon="1.64994">
        <ele>1501.486</ele>
        <time>2021-06-13T14:02:35Z</time>
      </trkpt>
      <trkpt lat="42.6848" lon="1.64994">
        <ele>1501.484</ele>
        <time>2021-06-13T14:02:37Z</time>
      </trkpt>
      <trkpt lat="42.6848" lon="1.64994">
        <ele>1501.495</ele>
        <time>2021-06-13T14:02:39Z</time>
      </trkpt>
      <trkpt lat="42.6848" lon="1.64993">
        <ele>1501.412</ele>
        <time>2021-06-13T14:02:41Z</time>
      </trkpt>
      <trkpt lat="42.6848" lon="1.64993">
        <ele>1501.113</ele>
        <time>2021-06-13T14:02:43Z</time>
      </trkpt>
      <trkpt lat="42.6848" lon="1.64993">
        <ele>1501.102</ele>
        <time>2021-06-13T14:02:45Z</time>
      </trkpt>
      <trkpt lat="42.6848" lon="1.64993">
        <ele>1500.898</ele>
        <time>2021-06-13T14:02:47Z</time>
      </trkpt>
      <trkpt lat="42.6848" lon="1.64994">
        <ele>1501.365</ele>
        <time>2021-06-13T14:02:49Z</time>
      </trkpt>
      <trkpt lat="42.6848" lon="1.64994">
        <ele>1501.337</ele>
        <time>2021-06-13T14:02:51Z</time>
      </trkpt>
      <trkpt lat="42.6848" lon="1.64994">
        <ele>1501.324</ele>
        <time>2021-06-13T14:02:53Z</time>
      </trkpt>
      <trkpt lat="42.6848" lon="1.64994">
        <ele>1501.316</ele>
        <time>2021-06-13T14:02:55Z</time>
      </trkpt>
      <trkpt lat="42.6848" lon="1.64994">
        <ele>1501.317</ele>
        <time>2021-06-13T14:02:57Z</time>
      </trkpt>
      <trkpt lat="42.6848" lon="1.64994">
        <ele>1501.313</ele>
        <time>2021-06-13T14:02:59Z</time>
      </trkpt>
      <trkpt lat="42.6848" lon="1.64994">
        <ele>1501.307</ele>
        <time>2021-06-13T14:03:06Z</time>
      </trkpt>
      <trkpt lat="42.6848" lon="1.64994">
        <ele>1501.321</ele>
        <time>2021-06-13T14:03:08Z</time>
      </trkpt>
      <trkpt lat="42.6848" lon="1.64994">
        <ele>1501.304</ele>
        <time>2021-06-13T14:03:10Z</time>
      </trkpt>
      <trkpt lat="42.6848" lon="1.64994">
        <ele>1501.306</ele>
        <time>2021-06-13T14:03:12Z</time>
      </trkpt>
      <trkpt lat="42.6848" lon="1.64994">
        <ele>1501.307</ele>
        <time>2021-06-13T14:03:14Z</time>
      </trkpt>
      <trkpt lat="42.6848" lon="1.64994">
        <ele>1501.299</ele>
        <time>2021-06-13T14:03:16Z</time>
      </trkpt>
      <trkpt lat="42.6848" lon="1.64994">
        <ele>1501.285</ele>
        <time>2021-06-13T14:03:18Z</time>
      </trkpt>
      <trkpt lat="42.68481" lon="1.64995">
        <ele>1500.735</ele>
        <time>2021-06-13T14:03:20Z</time>
      </trkpt>
      <trkpt lat="42.68482" lon="1.64996">
        <ele>1500.965</ele>
        <time>2021-06-13T14:03:22Z</time>
      </trkpt>
      <trkpt lat="42.68483" lon="1.64998">
        <ele>1501.73</ele>
        <time>2021-06-13T14:03:24Z</time>
      </trkpt>
      <trkpt lat="42.68484" lon="1.65">
        <ele>1502.668</ele>
        <time>2021-06-13T14:03:26Z</time>
      </trkpt>
      <trkpt lat="42.68485" lon="1.65002">
        <ele>1503.179</ele>
        <time>2021-06-13T14:03:28Z</time>
      </trkpt>
      <trkpt lat="42.68487" lon="1.65003">
        <ele>1502.429</ele>
        <time>2021-06-13T14:03:30Z</time>
      </trkpt>
      <trkpt lat="42.68488" lon="1.65004">
        <ele>1503.251</ele>
        <time>2021-06-13T14:03:31Z</time>
      </trkpt>
      <trkpt lat="42.68491" lon="1.65004">
        <ele>1501.553</ele>
        <time>2021-06-13T14:03:34Z</time>
      </trkpt>
      <trkpt lat="42.68493" lon="1.65003">
        <ele>1502.057</ele>
        <time>2021-06-13T14:03:36Z</time>
      </trkpt>
      <trkpt lat="42.68499" lon="1.65006">
        <ele>1503.679</ele>
        <time>2021-06-13T14:03:43Z</time>
      </trkpt>
      <trkpt lat="42.685" lon="1.65007">
        <ele>1503.43</ele>
        <time>2021-06-13T14:03:45Z</time>
      </trkpt>
      <trkpt lat="42.68502" lon="1.65008">
        <ele>1502.298</ele>
        <time>2021-06-13T14:03:47Z</time>
      </trkpt>
      <trkpt lat="42.68504" lon="1.65009">
        <ele>1502.175</ele>
        <time>2021-06-13T14:03:49Z</time>
      </trkpt>
      <trkpt lat="42.68506" lon="1.6501">
        <ele>1501.943</ele>
        <time>2021-06-13T14:03:51Z</time>
      </trkpt>
      <trkpt lat="42.68508" lon="1.65011">
        <ele>1501.048</ele>
        <time>2021-06-13T14:03:53Z</time>
      </trkpt>
      <trkpt lat="42.6851" lon="1.65013">
        <ele>1501.455</ele>
        <time>2021-06-13T14:03:55Z</time>
      </trkpt>
      <trkpt lat="42.68512" lon="1.65014">
        <ele>1501.542</ele>
        <time>2021-06-13T14:03:57Z</time>
      </trkpt>
      <trkpt lat="42.68514" lon="1.65016">
        <ele>1501.769</ele>
        <time>2021-06-13T14:03:59Z</time>
      </trkpt>
      <trkpt lat="42.68516" lon="1.65018">
        <ele>1501.879</ele>
        <time>2021-06-13T14:04:01Z</time>
      </trkpt>
      <trkpt lat="42.68518" lon="1.65018">
        <ele>1502.494</ele>
        <time>2021-06-13T14:04:03Z</time>
      </trkpt>
      <trkpt lat="42.68519" lon="1.6502">
        <ele>1501.603</ele>
        <time>2021-06-13T14:04:05Z</time>
      </trkpt>
      <trkpt lat="42.68521" lon="1.65022">
        <ele>1502.527</ele>
        <time>2021-06-13T14:04:07Z</time>
      </trkpt>
      <trkpt lat="42.68523" lon="1.65023">
        <ele>1502.601</ele>
        <time>2021-06-13T14:04:09Z</time>
      </trkpt>
      <trkpt lat="42.68524" lon="1.65023">
        <ele>1502.585</ele>
        <time>2021-06-13T14:04:11Z</time>
      </trkpt>
      <trkpt lat="42.68526" lon="1.65023">
        <ele>1502.02</ele>
        <time>2021-06-13T14:04:13Z</time>
      </trkpt>
      <trkpt lat="42.68527" lon="1.65023">
        <ele>1500.499</ele>
        <time>2021-06-13T14:04:15Z</time>
      </trkpt>
      <trkpt lat="42.68529" lon="1.65021">
        <ele>1500.581</ele>
        <time>2021-06-13T14:04:17Z</time>
      </trkpt>
      <trkpt lat="42.6853" lon="1.65022">
        <ele>1499.931</ele>
        <time>2021-06-13T14:04:19Z</time>
      </trkpt>
      <trkpt lat="42.68532" lon="1.65023">
        <ele>1499.735</ele>
        <time>2021-06-13T14:04:21Z</time>
      </trkpt>
      <trkpt lat="42.68533" lon="1.65026">
        <ele>1499.113</ele>
        <time>2021-06-13T14:04:23Z</time>
      </trkpt>
      <trkpt lat="42.68535" lon="1.65027">
        <ele>1499.019</ele>
        <time>2021-06-13T14:04:25Z</time>
      </trkpt>
      <trkpt lat="42.68537" lon="1.65028">
        <ele>1498.154</ele>
        <time>2021-06-13T14:04:27Z</time>
      </trkpt>
      <trkpt lat="42.68539" lon="1.6503">
        <ele>1498.09</ele>
        <time>2021-06-13T14:04:29Z</time>
      </trkpt>
      <trkpt lat="42.68541" lon="1.65031">
        <ele>1497.008</ele>
        <time>2021-06-13T14:04:31Z</time>
      </trkpt>
      <trkpt lat="42.68543" lon="1.65031">
        <ele>1496.857</ele>
        <time>2021-06-13T14:04:33Z</time>
      </trkpt>
      <trkpt lat="42.68545" lon="1.65032">
        <ele>1495.042</ele>
        <time>2021-06-13T14:04:35Z</time>
      </trkpt>
      <trkpt lat="42.68547" lon="1.65034">
        <ele>1494.242</ele>
        <time>2021-06-13T14:04:37Z</time>
      </trkpt>
      <trkpt lat="42.68549" lon="1.65035">
        <ele>1494.011</ele>
        <time>2021-06-13T14:04:39Z</time>
      </trkpt>
      <trkpt lat="42.68551" lon="1.65036">
        <ele>1493.775</ele>
        <time>2021-06-13T14:04:41Z</time>
      </trkpt>
      <trkpt lat="42.68552" lon="1.65037">
        <ele>1493.052</ele>
        <time>2021-06-13T14:04:43Z</time>
      </trkpt>
      <trkpt lat="42.68553" lon="1.65039">
        <ele>1491.819</ele>
        <time>2021-06-13T14:04:45Z</time>
      </trkpt>
      <trkpt lat="42.68554" lon="1.65041">
        <ele>1491.008</ele>
        <time>2021-06-13T14:04:47Z</time>
      </trkpt>
      <trkpt lat="42.68555" lon="1.65042">
        <ele>1491.318</ele>
        <time>2021-06-13T14:04:49Z</time>
      </trkpt>
      <trkpt lat="42.68557" lon="1.65042">
        <ele>1491.666</ele>
        <time>2021-06-13T14:04:51Z</time>
      </trkpt>
      <trkpt lat="42.68558" lon="1.65044">
        <ele>1492.127</ele>
        <time>2021-06-13T14:04:53Z</time>
      </trkpt>
      <trkpt lat="42.68559" lon="1.65045">
        <ele>1491.41</ele>
        <time>2021-06-13T14:04:55Z</time>
      </trkpt>
      <trkpt lat="42.68561" lon="1.65045">
        <ele>1491.744</ele>
        <time>2021-06-13T14:04:57Z</time>
      </trkpt>
      <trkpt lat="42.68563" lon="1.65045">
        <ele>1491.726</ele>
        <time>2021-06-13T14:04:59Z</time>
      </trkpt>
      <trkpt lat="42.68564" lon="1.65045">
        <ele>1491.792</ele>
        <time>2021-06-13T14:05:01Z</time>
      </trkpt>
      <trkpt lat="42.68565" lon="1.65046">
        <ele>1492.297</ele>
        <time>2021-06-13T14:05:03Z</time>
      </trkpt>
      <trkpt lat="42.68567" lon="1.65044">
        <ele>1492.857</ele>
        <time>2021-06-13T14:05:05Z</time>
      </trkpt>
      <trkpt lat="42.68568" lon="1.65043">
        <ele>1493.319</ele>
        <time>2021-06-13T14:05:07Z</time>
      </trkpt>
      <trkpt lat="42.6857" lon="1.65042">
        <ele>1492.633</ele>
        <time>2021-06-13T14:05:09Z</time>
      </trkpt>
      <trkpt lat="42.68578" lon="1.65042">
        <ele>1491.327</ele>
        <time>2021-06-13T14:05:16Z</time>
      </trkpt>
      <trkpt lat="42.68579" lon="1.65042">
        <ele>1491.746</ele>
        <time>2021-06-13T14:05:18Z</time>
      </trkpt>
      <trkpt lat="42.6858" lon="1.65042">
        <ele>1492.964</ele>
        <time>2021-06-13T14:05:20Z</time>
      </trkpt>
      <trkpt lat="42.68583" lon="1.65043">
        <ele>1493.456</ele>
        <time>2021-06-13T14:05:22Z</time>
      </trkpt>
      <trkpt lat="42.68585" lon="1.65044">
        <ele>1494.279</ele>
        <time>2021-06-13T14:05:24Z</time>
      </trkpt>
      <trkpt lat="42.68587" lon="1.65044">
        <ele>1495.256</ele>
        <time>2021-06-13T14:05:26Z</time>
      </trkpt>
      <trkpt lat="42.68589" lon="1.65044">
        <ele>1495.562</ele>
        <time>2021-06-13T14:05:28Z</time>
      </trkpt>
      <trkpt lat="42.68591" lon="1.65045">
        <ele>1495.57</ele>
        <time>2021-06-13T14:05:30Z</time>
      </trkpt>
      <trkpt lat="42.68592" lon="1.65045">
        <ele>1495.07</ele>
        <time>2021-06-13T14:05:32Z</time>
      </trkpt>
      <trkpt lat="42.68593" lon="1.65046">
        <ele>1494.438</ele>
        <time>2021-06-13T14:05:34Z</time>
      </trkpt>
      <trkpt lat="42.68594" lon="1.65046">
        <ele>1494.737</ele>
        <time>2021-06-13T14:05:36Z</time>
      </trkpt>
      <trkpt lat="42.68596" lon="1.65046">
        <ele>1493.932</ele>
        <time>2021-06-13T14:05:38Z</time>
      </trkpt>
      <trkpt lat="42.68597" lon="1.65046">
        <ele>1493.139</ele>
        <time>2021-06-13T14:05:40Z</time>
      </trkpt>
      <trkpt lat="42.68599" lon="1.65046">
        <ele>1493.155</ele>
        <time>2021-06-13T14:05:42Z</time>
      </trkpt>
      <trkpt lat="42.686" lon="1.65046">
        <ele>1491.9</ele>
        <time>2021-06-13T14:05:44Z</time>
      </trkpt>
      <trkpt lat="42.68601" lon="1.65046">
        <ele>1491.912</ele>
        <time>2021-06-13T14:05:45Z</time>
      </trkpt>
      <trkpt lat="42.68604" lon="1.65046">
        <ele>1490.405</ele>
        <time>2021-06-13T14:05:51Z</time>
      </trkpt>
      <trkpt lat="42.68605" lon="1.65046">
        <ele>1489.802</ele>
        <time>2021-06-13T14:05:53Z</time>
      </trkpt>
      <trkpt lat="42.68606" lon="1.65047">
        <ele>1489.585</ele>
        <time>2021-06-13T14:05:55Z</time>
      </trkpt>
      <trkpt lat="42.68608" lon="1.65047">
        <ele>1490.32</ele>
        <time>2021-06-13T14:05:57Z</time>
      </trkpt>
      <trkpt lat="42.68608" lon="1.65045">
        <ele>1487.655</ele>
        <time>2021-06-13T14:05:59Z</time>
      </trkpt>
      <trkpt lat="42.68609" lon="1.65043">
        <ele>1486.238</ele>
        <time>2021-06-13T14:06:01Z</time>
      </trkpt>
      <trkpt lat="42.6861" lon="1.65041">
        <ele>1485.487</ele>
        <time>2021-06-13T14:06:03Z</time>
      </trkpt>
      <trkpt lat="42.68611" lon="1.6504">
        <ele>1484.716</ele>
        <time>2021-06-13T14:06:05Z</time>
      </trkpt>
      <trkpt lat="42.68613" lon="1.65039">
        <ele>1484.622</ele>
        <time>2021-06-13T14:06:07Z</time>
      </trkpt>
      <trkpt lat="42.68615" lon="1.6504">
        <ele>1485.099</ele>
        <time>2021-06-13T14:06:09Z</time>
      </trkpt>
      <trkpt lat="42.68616" lon="1.6504">
        <ele>1484.236</ele>
        <time>2021-06-13T14:06:11Z</time>
      </trkpt>
      <trkpt lat="42.68617" lon="1.65038">
        <ele>1483.827</ele>
        <time>2021-06-13T14:06:13Z</time>
      </trkpt>
      <trkpt lat="42.68618" lon="1.65037">
        <ele>1483.017</ele>
        <time>2021-06-13T14:06:15Z</time>
      </trkpt>
      <trkpt lat="42.6862" lon="1.65036">
        <ele>1483.732</ele>
        <time>2021-06-13T14:06:17Z</time>
      </trkpt>
      <trkpt lat="42.68621" lon="1.65036">
        <ele>1483.637</ele>
        <time>2021-06-13T14:06:19Z</time>
      </trkpt>
      <trkpt lat="42.68622" lon="1.65036">
        <ele>1483.681</ele>
        <time>2021-06-13T14:06:21Z</time>
      </trkpt>
      <trkpt lat="42.68624" lon="1.65036">
        <ele>1483.247</ele>
        <time>2021-06-13T14:06:23Z</time>
      </trkpt>
      <trkpt lat="42.68625" lon="1.65034">
        <ele>1483.167</ele>
        <time>2021-06-13T14:06:25Z</time>
      </trkpt>
      <trkpt lat="42.68626" lon="1.65032">
        <ele>1483.28</ele>
        <time>2021-06-13T14:06:27Z</time>
      </trkpt>
      <trkpt lat="42.68628" lon="1.65031">
        <ele>1483.577</ele>
        <time>2021-06-13T14:06:29Z</time>
      </trkpt>
      <trkpt lat="42.6863" lon="1.6503">
        <ele>1483.478</ele>
        <time>2021-06-13T14:06:31Z</time>
      </trkpt>
      <trkpt lat="42.68633" lon="1.6503">
        <ele>1484.557</ele>
        <time>2021-06-13T14:06:33Z</time>
      </trkpt>
      <trkpt lat="42.68634" lon="1.6503">
        <ele>1484.645</ele>
        <time>2021-06-13T14:06:35Z</time>
      </trkpt>
      <trkpt lat="42.68636" lon="1.65029">
        <ele>1484.58</ele>
        <time>2021-06-13T14:06:37Z</time>
      </trkpt>
      <trkpt lat="42.68639" lon="1.65029">
        <ele>1484.386</ele>
        <time>2021-06-13T14:06:39Z</time>
      </trkpt>
      <trkpt lat="42.68642" lon="1.65029">
        <ele>1485.258</ele>
        <time>2021-06-13T14:06:41Z</time>
      </trkpt>
      <trkpt lat="42.68644" lon="1.65029">
        <ele>1484.732</ele>
        <time>2021-06-13T14:06:43Z</time>
      </trkpt>
      <trkpt lat="42.68647" lon="1.6503">
        <ele>1484.861</ele>
        <time>2021-06-13T14:06:45Z</time>
      </trkpt>
      <trkpt lat="42.6865" lon="1.6503">
        <ele>1484.681</ele>
        <time>2021-06-13T14:06:47Z</time>
      </trkpt>
      <trkpt lat="42.68653" lon="1.65031">
        <ele>1485.733</ele>
        <time>2021-06-13T14:06:49Z</time>
      </trkpt>
      <trkpt lat="42.68654" lon="1.65032">
        <ele>1485.5</ele>
        <time>2021-06-13T14:06:51Z</time>
      </trkpt>
      <trkpt lat="42.68655" lon="1.65033">
        <ele>1484.627</ele>
        <time>2021-06-13T14:06:53Z</time>
      </trkpt>
      <trkpt lat="42.68656" lon="1.65033">
        <ele>1484.628</ele>
        <time>2021-06-13T14:06:55Z</time>
      </trkpt>
      <trkpt lat="42.68658" lon="1.65033">
        <ele>1483.369</ele>
        <time>2021-06-13T14:06:57Z</time>
      </trkpt>
      <trkpt lat="42.68658" lon="1.65032">
        <ele>1482.129</ele>
        <time>2021-06-13T14:06:59Z</time>
      </trkpt>
      <trkpt lat="42.6866" lon="1.65032">
        <ele>1482.668</ele>
        <time>2021-06-13T14:07:01Z</time>
      </trkpt>
      <trkpt lat="42.68662" lon="1.65032">
        <ele>1482.631</ele>
        <time>2021-06-13T14:07:03Z</time>
      </trkpt>
      <trkpt lat="42.68663" lon="1.65032">
        <ele>1479.508</ele>
        <time>2021-06-13T14:07:05Z</time>
      </trkpt>
      <trkpt lat="42.68664" lon="1.65031">
        <ele>1478.99</ele>
        <time>2021-06-13T14:07:07Z</time>
      </trkpt>
      <trkpt lat="42.68666" lon="1.6503">
        <ele>1478.88</ele>
        <time>2021-06-13T14:07:09Z</time>
      </trkpt>
      <trkpt lat="42.68666" lon="1.6503">
        <ele>1478.524</ele>
        <time>2021-06-13T14:07:11Z</time>
      </trkpt>
      <trkpt lat="42.68668" lon="1.6503">
        <ele>1478.385</ele>
        <time>2021-06-13T14:07:13Z</time>
      </trkpt>
      <trkpt lat="42.68669" lon="1.65031">
        <ele>1476.988</ele>
        <time>2021-06-13T14:07:15Z</time>
      </trkpt>
      <trkpt lat="42.6867" lon="1.6503">
        <ele>1476.769</ele>
        <time>2021-06-13T14:07:17Z</time>
      </trkpt>
      <trkpt lat="42.68671" lon="1.6503">
        <ele>1477.238</ele>
        <time>2021-06-13T14:07:19Z</time>
      </trkpt>
      <trkpt lat="42.68671" lon="1.6503">
        <ele>1476.478</ele>
        <time>2021-06-13T14:07:21Z</time>
      </trkpt>
      <trkpt lat="42.68672" lon="1.6503">
        <ele>1476.578</ele>
        <time>2021-06-13T14:07:23Z</time>
      </trkpt>
      <trkpt lat="42.68673" lon="1.6503">
        <ele>1476.086</ele>
        <time>2021-06-13T14:07:25Z</time>
      </trkpt>
      <trkpt lat="42.68675" lon="1.65029">
        <ele>1476.807</ele>
        <time>2021-06-13T14:07:27Z</time>
      </trkpt>
      <trkpt lat="42.68677" lon="1.65029">
        <ele>1475.485</ele>
        <time>2021-06-13T14:07:29Z</time>
      </trkpt>
      <trkpt lat="42.68678" lon="1.6503">
        <ele>1475.447</ele>
        <time>2021-06-13T14:07:31Z</time>
      </trkpt>
      <trkpt lat="42.68679" lon="1.6503">
        <ele>1474.99</ele>
        <time>2021-06-13T14:07:33Z</time>
      </trkpt>
      <trkpt lat="42.68681" lon="1.65029">
        <ele>1475.566</ele>
        <time>2021-06-13T14:07:35Z</time>
      </trkpt>
      <trkpt lat="42.68683" lon="1.65029">
        <ele>1475.786</ele>
        <time>2021-06-13T14:07:37Z</time>
      </trkpt>
      <trkpt lat="42.68685" lon="1.6503">
        <ele>1476.067</ele>
        <time>2021-06-13T14:07:39Z</time>
      </trkpt>
      <trkpt lat="42.68688" lon="1.65029">
        <ele>1475.892</ele>
        <time>2021-06-13T14:07:41Z</time>
      </trkpt>
      <trkpt lat="42.68688" lon="1.65029">
        <ele>1474.737</ele>
        <time>2021-06-13T14:07:43Z</time>
      </trkpt>
      <trkpt lat="42.68689" lon="1.65028">
        <ele>1474.078</ele>
        <time>2021-06-13T14:07:45Z</time>
      </trkpt>
      <trkpt lat="42.6869" lon="1.65028">
        <ele>1474.252</ele>
        <time>2021-06-13T14:07:47Z</time>
      </trkpt>
      <trkpt lat="42.68692" lon="1.65027">
        <ele>1474.192</ele>
        <time>2021-06-13T14:07:49Z</time>
      </trkpt>
      <trkpt lat="42.68693" lon="1.65027">
        <ele>1475.705</ele>
        <time>2021-06-13T14:07:51Z</time>
      </trkpt>
      <trkpt lat="42.68696" lon="1.65027">
        <ele>1475.49</ele>
        <time>2021-06-13T14:07:53Z</time>
      </trkpt>
      <trkpt lat="42.68698" lon="1.65026">
        <ele>1474.58</ele>
        <time>2021-06-13T14:07:55Z</time>
      </trkpt>
      <trkpt lat="42.687" lon="1.65024">
        <ele>1474.392</ele>
        <time>2021-06-13T14:07:57Z</time>
      </trkpt>
      <trkpt lat="42.68702" lon="1.65024">
        <ele>1474.742</ele>
        <time>2021-06-13T14:07:59Z</time>
      </trkpt>
      <trkpt lat="42.68704" lon="1.65023">
        <ele>1473.945</ele>
        <time>2021-06-13T14:08:01Z</time>
      </trkpt>
      <trkpt lat="42.68705" lon="1.65022">
        <ele>1473.376</ele>
        <time>2021-06-13T14:08:03Z</time>
      </trkpt>
      <trkpt lat="42.68707" lon="1.65021">
        <ele>1474.687</ele>
        <time>2021-06-13T14:08:05Z</time>
      </trkpt>
      <trkpt lat="42.68709" lon="1.65021">
        <ele>1473.861</ele>
        <time>2021-06-13T14:08:07Z</time>
      </trkpt>
      <trkpt lat="42.68711" lon="1.65021">
        <ele>1473.563</ele>
        <time>2021-06-13T14:08:09Z</time>
      </trkpt>
      <trkpt lat="42.68712" lon="1.6502">
        <ele>1473.037</ele>
        <time>2021-06-13T14:08:11Z</time>
      </trkpt>
      <trkpt lat="42.68713" lon="1.6502">
        <ele>1473.484</ele>
        <time>2021-06-13T14:08:12Z</time>
      </trkpt>
      <trkpt lat="42.68716" lon="1.65019">
        <ele>1471.899</ele>
        <time>2021-06-13T14:08:15Z</time>
      </trkpt>
      <trkpt lat="42.68718" lon="1.65019">
        <ele>1471.216</ele>
        <time>2021-06-13T14:08:17Z</time>
      </trkpt>
      <trkpt lat="42.6872" lon="1.65019">
        <ele>1470.869</ele>
        <time>2021-06-13T14:08:19Z</time>
      </trkpt>
      <trkpt lat="42.68722" lon="1.6502">
        <ele>1470.871</ele>
        <time>2021-06-13T14:08:21Z</time>
      </trkpt>
      <trkpt lat="42.68724" lon="1.65021">
        <ele>1470.406</ele>
        <time>2021-06-13T14:08:23Z</time>
      </trkpt>
      <trkpt lat="42.68726" lon="1.65022">
        <ele>1470.672</ele>
        <time>2021-06-13T14:08:25Z</time>
      </trkpt>
      <trkpt lat="42.68728" lon="1.65023">
        <ele>1472.336</ele>
        <time>2021-06-13T14:08:27Z</time>
      </trkpt>
      <trkpt lat="42.6873" lon="1.65024">
        <ele>1472.179</ele>
        <time>2021-06-13T14:08:29Z</time>
      </trkpt>
      <trkpt lat="42.68732" lon="1.65025">
        <ele>1471.775</ele>
        <time>2021-06-13T14:08:31Z</time>
      </trkpt>
      <trkpt lat="42.68734" lon="1.65025">
        <ele>1472.195</ele>
        <time>2021-06-13T14:08:33Z</time>
      </trkpt>
      <trkpt lat="42.68735" lon="1.65025">
        <ele>1472.309</ele>
        <time>2021-06-13T14:08:35Z</time>
      </trkpt>
      <trkpt lat="42.68737" lon="1.65026">
        <ele>1472.582</ele>
        <time>2021-06-13T14:08:37Z</time>
      </trkpt>
      <trkpt lat="42.68739" lon="1.65025">
        <ele>1473.112</ele>
        <time>2021-06-13T14:08:39Z</time>
      </trkpt>
      <trkpt lat="42.68741" lon="1.65024">
        <ele>1472.473</ele>
        <time>2021-06-13T14:08:41Z</time>
      </trkpt>
      <trkpt lat="42.68742" lon="1.65023">
        <ele>1472.226</ele>
        <time>2021-06-13T14:08:43Z</time>
      </trkpt>
      <trkpt lat="42.68744" lon="1.65022">
        <ele>1471.054</ele>
        <time>2021-06-13T14:08:45Z</time>
      </trkpt>
      <trkpt lat="42.68746" lon="1.65022">
        <ele>1471.168</ele>
        <time>2021-06-13T14:08:47Z</time>
      </trkpt>
      <trkpt lat="42.68748" lon="1.65022">
        <ele>1469.095</ele>
        <time>2021-06-13T14:08:49Z</time>
      </trkpt>
      <trkpt lat="42.68749" lon="1.65022">
        <ele>1468.729</ele>
        <time>2021-06-13T14:08:51Z</time>
      </trkpt>
      <trkpt lat="42.68751" lon="1.65023">
        <ele>1469.249</ele>
        <time>2021-06-13T14:08:53Z</time>
      </trkpt>
      <trkpt lat="42.68753" lon="1.65023">
        <ele>1468.694</ele>
        <time>2021-06-13T14:08:55Z</time>
      </trkpt>
      <trkpt lat="42.68754" lon="1.65024">
        <ele>1468.531</ele>
        <time>2021-06-13T14:08:57Z</time>
      </trkpt>
      <trkpt lat="42.68756" lon="1.65024">
        <ele>1469.441</ele>
        <time>2021-06-13T14:08:59Z</time>
      </trkpt>
      <trkpt lat="42.68758" lon="1.65025">
        <ele>1470.575</ele>
        <time>2021-06-13T14:09:01Z</time>
      </trkpt>
      <trkpt lat="42.68759" lon="1.65024">
        <ele>1470.415</ele>
        <time>2021-06-13T14:09:03Z</time>
      </trkpt>
      <trkpt lat="42.68761" lon="1.65024">
        <ele>1470.371</ele>
        <time>2021-06-13T14:09:05Z</time>
      </trkpt>
      <trkpt lat="42.68763" lon="1.65023">
        <ele>1471.53</ele>
        <time>2021-06-13T14:09:07Z</time>
      </trkpt>
      <trkpt lat="42.68765" lon="1.65023">
        <ele>1470.928</ele>
        <time>2021-06-13T14:09:09Z</time>
      </trkpt>
      <trkpt lat="42.68766" lon="1.65022">
        <ele>1469.418</ele>
        <time>2021-06-13T14:09:11Z</time>
      </trkpt>
      <trkpt lat="42.68768" lon="1.65021">
        <ele>1468.428</ele>
        <time>2021-06-13T14:09:13Z</time>
      </trkpt>
      <trkpt lat="42.68769" lon="1.6502">
        <ele>1468.584</ele>
        <time>2021-06-13T14:09:15Z</time>
      </trkpt>
      <trkpt lat="42.68769" lon="1.65018">
        <ele>1469.387</ele>
        <time>2021-06-13T14:09:17Z</time>
      </trkpt>
      <trkpt lat="42.6877" lon="1.65016">
        <ele>1469.269</ele>
        <time>2021-06-13T14:09:19Z</time>
      </trkpt>
      <trkpt lat="42.68771" lon="1.65015">
        <ele>1468.213</ele>
        <time>2021-06-13T14:09:21Z</time>
      </trkpt>
      <trkpt lat="42.68773" lon="1.65013">
        <ele>1467.436</ele>
        <time>2021-06-13T14:09:23Z</time>
      </trkpt>
      <trkpt lat="42.68774" lon="1.65011">
        <ele>1465.861</ele>
        <time>2021-06-13T14:09:25Z</time>
      </trkpt>
      <trkpt lat="42.68775" lon="1.6501">
        <ele>1465.872</ele>
        <time>2021-06-13T14:09:27Z</time>
      </trkpt>
      <trkpt lat="42.68777" lon="1.65009">
        <ele>1465.308</ele>
        <time>2021-06-13T14:09:29Z</time>
      </trkpt>
      <trkpt lat="42.6878" lon="1.6501">
        <ele>1462.749</ele>
        <time>2021-06-13T14:09:31Z</time>
      </trkpt>
      <trkpt lat="42.68782" lon="1.6501">
        <ele>1462.323</ele>
        <time>2021-06-13T14:09:33Z</time>
      </trkpt>
      <trkpt lat="42.68783" lon="1.65009">
        <ele>1461.795</ele>
        <time>2021-06-13T14:09:35Z</time>
      </trkpt>
      <trkpt lat="42.68785" lon="1.65008">
        <ele>1461.011</ele>
        <time>2021-06-13T14:09:37Z</time>
      </trkpt>
      <trkpt lat="42.68786" lon="1.65006">
        <ele>1460.377</ele>
        <time>2021-06-13T14:09:39Z</time>
      </trkpt>
      <trkpt lat="42.68788" lon="1.65005">
        <ele>1461.139</ele>
        <time>2021-06-13T14:09:41Z</time>
      </trkpt>
      <trkpt lat="42.68791" lon="1.65004">
        <ele>1461.911</ele>
        <time>2021-06-13T14:09:43Z</time>
      </trkpt>
      <trkpt lat="42.68793" lon="1.65005">
        <ele>1460.636</ele>
        <time>2021-06-13T14:09:45Z</time>
      </trkpt>
      <trkpt lat="42.68795" lon="1.65005">
        <ele>1460.355</ele>
        <time>2021-06-13T14:09:47Z</time>
      </trkpt>
      <trkpt lat="42.68797" lon="1.65005">
        <ele>1460.428</ele>
        <time>2021-06-13T14:09:49Z</time>
      </trkpt>
      <trkpt lat="42.68798" lon="1.65005">
        <ele>1460.682</ele>
        <time>2021-06-13T14:09:51Z</time>
      </trkpt>
      <trkpt lat="42.68799" lon="1.65005">
        <ele>1460.275</ele>
        <time>2021-06-13T14:09:53Z</time>
      </trkpt>
      <trkpt lat="42.68801" lon="1.65005">
        <ele>1458.893</ele>
        <time>2021-06-13T14:09:55Z</time>
      </trkpt>
      <trkpt lat="42.68803" lon="1.65005">
        <ele>1459.375</ele>
        <time>2021-06-13T14:09:57Z</time>
      </trkpt>
      <trkpt lat="42.68805" lon="1.65005">
        <ele>1459.406</ele>
        <time>2021-06-13T14:09:59Z</time>
      </trkpt>
      <trkpt lat="42.68806" lon="1.65003">
        <ele>1458.417</ele>
        <time>2021-06-13T14:10:01Z</time>
      </trkpt>
      <trkpt lat="42.68808" lon="1.65003">
        <ele>1457.993</ele>
        <time>2021-06-13T14:10:03Z</time>
      </trkpt>
      <trkpt lat="42.68811" lon="1.65002">
        <ele>1457.765</ele>
        <time>2021-06-13T14:10:05Z</time>
      </trkpt>
      <trkpt lat="42.68813" lon="1.65001">
        <ele>1458.24</ele>
        <time>2021-06-13T14:10:07Z</time>
      </trkpt>
      <trkpt lat="42.68815" lon="1.65001">
        <ele>1458.779</ele>
        <time>2021-06-13T14:10:09Z</time>
      </trkpt>
      <trkpt lat="42.68817" lon="1.65">
        <ele>1458.053</ele>
        <time>2021-06-13T14:10:11Z</time>
      </trkpt>
      <trkpt lat="42.68819" lon="1.64999">
        <ele>1458.235</ele>
        <time>2021-06-13T14:10:13Z</time>
      </trkpt>
      <trkpt lat="42.6882" lon="1.64998">
        <ele>1457.629</ele>
        <time>2021-06-13T14:10:15Z</time>
      </trkpt>
      <trkpt lat="42.68822" lon="1.64997">
        <ele>1458.184</ele>
        <time>2021-06-13T14:10:17Z</time>
      </trkpt>
      <trkpt lat="42.68824" lon="1.64996">
        <ele>1458.198</ele>
        <time>2021-06-13T14:10:19Z</time>
      </trkpt>
      <trkpt lat="42.68823" lon="1.64995">
        <ele>1456.311</ele>
        <time>2021-06-13T14:10:21Z</time>
      </trkpt>
      <trkpt lat="42.68825" lon="1.64994">
        <ele>1456.58</ele>
        <time>2021-06-13T14:10:23Z</time>
      </trkpt>
      <trkpt lat="42.68827" lon="1.64994">
        <ele>1456.943</ele>
        <time>2021-06-13T14:10:25Z</time>
      </trkpt>
      <trkpt lat="42.68829" lon="1.64992">
        <ele>1456.657</ele>
        <time>2021-06-13T14:10:27Z</time>
      </trkpt>
      <trkpt lat="42.6883" lon="1.64991">
        <ele>1455.451</ele>
        <time>2021-06-13T14:10:29Z</time>
      </trkpt>
      <trkpt lat="42.68831" lon="1.6499">
        <ele>1455.359</ele>
        <time>2021-06-13T14:10:31Z</time>
      </trkpt>
      <trkpt lat="42.68834" lon="1.64989">
        <ele>1456.389</ele>
        <time>2021-06-13T14:10:33Z</time>
      </trkpt>
      <trkpt lat="42.68836" lon="1.64989">
        <ele>1456.504</ele>
        <time>2021-06-13T14:10:35Z</time>
      </trkpt>
      <trkpt lat="42.68837" lon="1.64989">
        <ele>1456.419</ele>
        <time>2021-06-13T14:10:36Z</time>
      </trkpt>
      <trkpt lat="42.68845" lon="1.64988">
        <ele>1457.23</ele>
        <time>2021-06-13T14:10:43Z</time>
      </trkpt>
      <trkpt lat="42.68847" lon="1.64988">
        <ele>1457.684</ele>
        <time>2021-06-13T14:10:45Z</time>
      </trkpt>
      <trkpt lat="42.68849" lon="1.64989">
        <ele>1457.197</ele>
        <time>2021-06-13T14:10:47Z</time>
      </trkpt>
      <trkpt lat="42.6885" lon="1.6499">
        <ele>1457.229</ele>
        <time>2021-06-13T14:10:49Z</time>
      </trkpt>
      <trkpt lat="42.68852" lon="1.6499">
        <ele>1456.449</ele>
        <time>2021-06-13T14:10:51Z</time>
      </trkpt>
      <trkpt lat="42.68852" lon="1.64991">
        <ele>1455.668</ele>
        <time>2021-06-13T14:10:53Z</time>
      </trkpt>
      <trkpt lat="42.68854" lon="1.64991">
        <ele>1455.673</ele>
        <time>2021-06-13T14:10:55Z</time>
      </trkpt>
      <trkpt lat="42.68857" lon="1.64991">
        <ele>1456.309</ele>
        <time>2021-06-13T14:10:57Z</time>
      </trkpt>
      <trkpt lat="42.68859" lon="1.64991">
        <ele>1456.725</ele>
        <time>2021-06-13T14:10:59Z</time>
      </trkpt>
      <trkpt lat="42.68862" lon="1.6499">
        <ele>1457.323</ele>
        <time>2021-06-13T14:11:01Z</time>
      </trkpt>
      <trkpt lat="42.68864" lon="1.64989">
        <ele>1457.652</ele>
        <time>2021-06-13T14:11:03Z</time>
      </trkpt>
      <trkpt lat="42.68865" lon="1.64988">
        <ele>1458.818</ele>
        <time>2021-06-13T14:11:05Z</time>
      </trkpt>
      <trkpt lat="42.68866" lon="1.64988">
        <ele>1458.833</ele>
        <time>2021-06-13T14:11:06Z</time>
      </trkpt>
      <trkpt lat="42.68873" lon="1.6499">
        <ele>1461.125</ele>
        <time>2021-06-13T14:11:13Z</time>
      </trkpt>
      <trkpt lat="42.68875" lon="1.6499">
        <ele>1461.692</ele>
        <time>2021-06-13T14:11:15Z</time>
      </trkpt>
      <trkpt lat="42.68877" lon="1.6499">
        <ele>1462.822</ele>
        <time>2021-06-13T14:11:17Z</time>
      </trkpt>
      <trkpt lat="42.68879" lon="1.6499">
        <ele>1461.772</ele>
        <time>2021-06-13T14:11:19Z</time>
      </trkpt>
      <trkpt lat="42.6888" lon="1.64989">
        <ele>1462.343</ele>
        <time>2021-06-13T14:11:20Z</time>
      </trkpt>
      <trkpt lat="42.68888" lon="1.6499">
        <ele>1462.648</ele>
        <time>2021-06-13T14:11:27Z</time>
      </trkpt>
      <trkpt lat="42.6889" lon="1.64989">
        <ele>1462.763</ele>
        <time>2021-06-13T14:11:29Z</time>
      </trkpt>
      <trkpt lat="42.68891" lon="1.64989">
        <ele>1462.131</ele>
        <time>2021-06-13T14:11:31Z</time>
      </trkpt>
      <trkpt lat="42.68893" lon="1.64989">
        <ele>1462.669</ele>
        <time>2021-06-13T14:11:33Z</time>
      </trkpt>
      <trkpt lat="42.68896" lon="1.64989">
        <ele>1462.682</ele>
        <time>2021-06-13T14:11:35Z</time>
      </trkpt>
      <trkpt lat="42.68898" lon="1.64989">
        <ele>1462.797</ele>
        <time>2021-06-13T14:11:37Z</time>
      </trkpt>
      <trkpt lat="42.68899" lon="1.64988">
        <ele>1462.855</ele>
        <time>2021-06-13T14:11:39Z</time>
      </trkpt>
      <trkpt lat="42.68901" lon="1.64987">
        <ele>1463.08</ele>
        <time>2021-06-13T14:11:41Z</time>
      </trkpt>
      <trkpt lat="42.68903" lon="1.64986">
        <ele>1464.765</ele>
        <time>2021-06-13T14:11:43Z</time>
      </trkpt>
      <trkpt lat="42.68905" lon="1.64986">
        <ele>1464.851</ele>
        <time>2021-06-13T14:11:45Z</time>
      </trkpt>
      <trkpt lat="42.68907" lon="1.64984">
        <ele>1462.945</ele>
        <time>2021-06-13T14:11:47Z</time>
      </trkpt>
      <trkpt lat="42.68908" lon="1.64983">
        <ele>1463.416</ele>
        <time>2021-06-13T14:11:49Z</time>
      </trkpt>
      <trkpt lat="42.6891" lon="1.64983">
        <ele>1462.788</ele>
        <time>2021-06-13T14:11:51Z</time>
      </trkpt>
      <trkpt lat="42.68912" lon="1.64984">
        <ele>1461.888</ele>
        <time>2021-06-13T14:11:53Z</time>
      </trkpt>
      <trkpt lat="42.68923" lon="1.64984">
        <ele>1459.403</ele>
        <time>2021-06-13T14:12:00Z</time>
      </trkpt>
      <trkpt lat="42.68925" lon="1.64985">
        <ele>1459.108</ele>
        <time>2021-06-13T14:12:02Z</time>
      </trkpt>
      <trkpt lat="42.68926" lon="1.64987">
        <ele>1459.546</ele>
        <time>2021-06-13T14:12:04Z</time>
      </trkpt>
      <trkpt lat="42.68928" lon="1.64989">
        <ele>1459.279</ele>
        <time>2021-06-13T14:12:06Z</time>
      </trkpt>
      <trkpt lat="42.6893" lon="1.6499">
        <ele>1459.748</ele>
        <time>2021-06-13T14:12:08Z</time>
      </trkpt>
      <trkpt lat="42.68932" lon="1.6499">
        <ele>1459.669</ele>
        <time>2021-06-13T14:12:10Z</time>
      </trkpt>
      <trkpt lat="42.68934" lon="1.6499">
        <ele>1460.093</ele>
        <time>2021-06-13T14:12:12Z</time>
      </trkpt>
      <trkpt lat="42.68937" lon="1.64992">
        <ele>1459.601</ele>
        <time>2021-06-13T14:12:14Z</time>
      </trkpt>
      <trkpt lat="42.68939" lon="1.64992">
        <ele>1459.922</ele>
        <time>2021-06-13T14:12:16Z</time>
      </trkpt>
      <trkpt lat="42.6894" lon="1.64993">
        <ele>1460.241</ele>
        <time>2021-06-13T14:12:18Z</time>
      </trkpt>
      <trkpt lat="42.68942" lon="1.64994">
        <ele>1459.948</ele>
        <time>2021-06-13T14:12:20Z</time>
      </trkpt>
      <trkpt lat="42.68944" lon="1.64994">
        <ele>1458.49</ele>
        <time>2021-06-13T14:12:22Z</time>
      </trkpt>
      <trkpt lat="42.68946" lon="1.64995">
        <ele>1458.614</ele>
        <time>2021-06-13T14:12:24Z</time>
      </trkpt>
      <trkpt lat="42.68947" lon="1.64997">
        <ele>1458.782</ele>
        <time>2021-06-13T14:12:26Z</time>
      </trkpt>
      <trkpt lat="42.68954" lon="1.64999">
        <ele>1458.65</ele>
        <time>2021-06-13T14:12:33Z</time>
      </trkpt>
      <trkpt lat="42.68955" lon="1.65">
        <ele>1458.298</ele>
        <time>2021-06-13T14:12:35Z</time>
      </trkpt>
      <trkpt lat="42.68957" lon="1.65002">
        <ele>1457.643</ele>
        <time>2021-06-13T14:12:37Z</time>
      </trkpt>
      <trkpt lat="42.68959" lon="1.65003">
        <ele>1457.529</ele>
        <time>2021-06-13T14:12:39Z</time>
      </trkpt>
      <trkpt lat="42.6896" lon="1.65004">
        <ele>1456.799</ele>
        <time>2021-06-13T14:12:41Z</time>
      </trkpt>
      <trkpt lat="42.68962" lon="1.65006">
        <ele>1456.619</ele>
        <time>2021-06-13T14:12:43Z</time>
      </trkpt>
      <trkpt lat="42.68964" lon="1.65008">
        <ele>1456.375</ele>
        <time>2021-06-13T14:12:45Z</time>
      </trkpt>
      <trkpt lat="42.68965" lon="1.6501">
        <ele>1455.979</ele>
        <time>2021-06-13T14:12:47Z</time>
      </trkpt>
      <trkpt lat="42.68967" lon="1.65012">
        <ele>1456.484</ele>
        <time>2021-06-13T14:12:49Z</time>
      </trkpt>
      <trkpt lat="42.68969" lon="1.65013">
        <ele>1458.118</ele>
        <time>2021-06-13T14:12:51Z</time>
      </trkpt>
      <trkpt lat="42.68971" lon="1.65015">
        <ele>1457.88</ele>
        <time>2021-06-13T14:12:53Z</time>
      </trkpt>
      <trkpt lat="42.68973" lon="1.65015">
        <ele>1458.527</ele>
        <time>2021-06-13T14:12:55Z</time>
      </trkpt>
      <trkpt lat="42.68975" lon="1.65015">
        <ele>1458.487</ele>
        <time>2021-06-13T14:12:57Z</time>
      </trkpt>
      <trkpt lat="42.68977" lon="1.65016">
        <ele>1459.927</ele>
        <time>2021-06-13T14:12:59Z</time>
      </trkpt>
      <trkpt lat="42.68979" lon="1.65016">
        <ele>1461.148</ele>
        <time>2021-06-13T14:13:01Z</time>
      </trkpt>
      <trkpt lat="42.6898" lon="1.65018">
        <ele>1462.338</ele>
        <time>2021-06-13T14:13:03Z</time>
      </trkpt>
      <trkpt lat="42.68982" lon="1.65019">
        <ele>1462.397</ele>
        <time>2021-06-13T14:13:05Z</time>
      </trkpt>
      <trkpt lat="42.68983" lon="1.65021">
        <ele>1462.303</ele>
        <time>2021-06-13T14:13:07Z</time>
      </trkpt>
      <trkpt lat="42.68985" lon="1.65022">
        <ele>1461.55</ele>
        <time>2021-06-13T14:13:09Z</time>
      </trkpt>
      <trkpt lat="42.68986" lon="1.65023">
        <ele>1460.752</ele>
        <time>2021-06-13T14:13:11Z</time>
      </trkpt>
      <trkpt lat="42.68988" lon="1.65024">
        <ele>1459.027</ele>
        <time>2021-06-13T14:13:13Z</time>
      </trkpt>
      <trkpt lat="42.6899" lon="1.65025">
        <ele>1458.715</ele>
        <time>2021-06-13T14:13:15Z</time>
      </trkpt>
      <trkpt lat="42.68992" lon="1.65027">
        <ele>1459.086</ele>
        <time>2021-06-13T14:13:17Z</time>
      </trkpt>
      <trkpt lat="42.68994" lon="1.65028">
        <ele>1459.215</ele>
        <time>2021-06-13T14:13:19Z</time>
      </trkpt>
      <trkpt lat="42.68995" lon="1.65029">
        <ele>1459.202</ele>
        <time>2021-06-13T14:13:21Z</time>
      </trkpt>
      <trkpt lat="42.68997" lon="1.65031">
        <ele>1459.086</ele>
        <time>2021-06-13T14:13:23Z</time>
      </trkpt>
      <trkpt lat="42.68998" lon="1.65031">
        <ele>1458.586</ele>
        <time>2021-06-13T14:13:25Z</time>
      </trkpt>
      <trkpt lat="42.69" lon="1.65032">
        <ele>1458.561</ele>
        <time>2021-06-13T14:13:27Z</time>
      </trkpt>
      <trkpt lat="42.69002" lon="1.65032">
        <ele>1458.757</ele>
        <time>2021-06-13T14:13:29Z</time>
      </trkpt>
      <trkpt lat="42.69004" lon="1.65032">
        <ele>1458.47</ele>
        <time>2021-06-13T14:13:31Z</time>
      </trkpt>
      <trkpt lat="42.69006" lon="1.65032">
        <ele>1459.267</ele>
        <time>2021-06-13T14:13:33Z</time>
      </trkpt>
      <trkpt lat="42.69008" lon="1.65033">
        <ele>1459.028</ele>
        <time>2021-06-13T14:13:35Z</time>
      </trkpt>
      <trkpt lat="42.6901" lon="1.65034">
        <ele>1459.949</ele>
        <time>2021-06-13T14:13:37Z</time>
      </trkpt>
      <trkpt lat="42.69011" lon="1.65034">
        <ele>1460.913</ele>
        <time>2021-06-13T14:13:39Z</time>
      </trkpt>
      <trkpt lat="42.69013" lon="1.65034">
        <ele>1461.273</ele>
        <time>2021-06-13T14:13:41Z</time>
      </trkpt>
      <trkpt lat="42.69015" lon="1.65034">
        <ele>1461.105</ele>
        <time>2021-06-13T14:13:43Z</time>
      </trkpt>
      <trkpt lat="42.69018" lon="1.65033">
        <ele>1461.355</ele>
        <time>2021-06-13T14:13:45Z</time>
      </trkpt>
      <trkpt lat="42.6902" lon="1.65034">
        <ele>1461.012</ele>
        <time>2021-06-13T14:13:47Z</time>
      </trkpt>
      <trkpt lat="42.69021" lon="1.65035">
        <ele>1461.051</ele>
        <time>2021-06-13T14:13:49Z</time>
      </trkpt>
      <trkpt lat="42.69023" lon="1.65037">
        <ele>1460.133</ele>
        <time>2021-06-13T14:13:51Z</time>
      </trkpt>
      <trkpt lat="42.69024" lon="1.65038">
        <ele>1458.388</ele>
        <time>2021-06-13T14:13:53Z</time>
      </trkpt>
      <trkpt lat="42.69026" lon="1.65039">
        <ele>1458.809</ele>
        <time>2021-06-13T14:13:55Z</time>
      </trkpt>
      <trkpt lat="42.69027" lon="1.65039">
        <ele>1459.464</ele>
        <time>2021-06-13T14:13:57Z</time>
      </trkpt>
      <trkpt lat="42.69029" lon="1.6504">
        <ele>1459.81</ele>
        <time>2021-06-13T14:13:59Z</time>
      </trkpt>
      <trkpt lat="42.69031" lon="1.65041">
        <ele>1459.907</ele>
        <time>2021-06-13T14:14:01Z</time>
      </trkpt>
      <trkpt lat="42.69033" lon="1.65041">
        <ele>1460.874</ele>
        <time>2021-06-13T14:14:03Z</time>
      </trkpt>
      <trkpt lat="42.69035" lon="1.65041">
        <ele>1462.028</ele>
        <time>2021-06-13T14:14:05Z</time>
      </trkpt>
      <trkpt lat="42.69037" lon="1.65042">
        <ele>1462.977</ele>
        <time>2021-06-13T14:14:07Z</time>
      </trkpt>
      <trkpt lat="42.69039" lon="1.65043">
        <ele>1462.131</ele>
        <time>2021-06-13T14:14:09Z</time>
      </trkpt>
      <trkpt lat="42.69041" lon="1.65043">
        <ele>1461.489</ele>
        <time>2021-06-13T14:14:11Z</time>
      </trkpt>
      <trkpt lat="42.69043" lon="1.65043">
        <ele>1461.482</ele>
        <time>2021-06-13T14:14:13Z</time>
      </trkpt>
      <trkpt lat="42.69046" lon="1.65043">
        <ele>1461.941</ele>
        <time>2021-06-13T14:14:15Z</time>
      </trkpt>
      <trkpt lat="42.69048" lon="1.65044">
        <ele>1462.458</ele>
        <time>2021-06-13T14:14:17Z</time>
      </trkpt>
      <trkpt lat="42.6905" lon="1.65044">
        <ele>1462.067</ele>
        <time>2021-06-13T14:14:19Z</time>
      </trkpt>
      <trkpt lat="42.69052" lon="1.65045">
        <ele>1464.279</ele>
        <time>2021-06-13T14:14:21Z</time>
      </trkpt>
      <trkpt lat="42.69054" lon="1.65045">
        <ele>1463.613</ele>
        <time>2021-06-13T14:14:23Z</time>
      </trkpt>
      <trkpt lat="42.69056" lon="1.65046">
        <ele>1464.054</ele>
        <time>2021-06-13T14:14:25Z</time>
      </trkpt>
      <trkpt lat="42.69058" lon="1.65047">
        <ele>1464.642</ele>
        <time>2021-06-13T14:14:27Z</time>
      </trkpt>
      <trkpt lat="42.6906" lon="1.65048">
        <ele>1463.498</ele>
        <time>2021-06-13T14:14:29Z</time>
      </trkpt>
      <trkpt lat="42.69062" lon="1.65048">
        <ele>1463.448</ele>
        <time>2021-06-13T14:14:31Z</time>
      </trkpt>
      <trkpt lat="42.69062" lon="1.65049">
        <ele>1463.357</ele>
        <time>2021-06-13T14:14:33Z</time>
      </trkpt>
      <trkpt lat="42.69062" lon="1.65049">
        <ele>1463.356</ele>
        <time>2021-06-13T14:14:35Z</time>
      </trkpt>
      <trkpt lat="42.69062" lon="1.65049">
        <ele>1463.359</ele>
        <time>2021-06-13T14:14:37Z</time>
      </trkpt>
      <trkpt lat="42.69062" lon="1.65049">
        <ele>1463.363</ele>
        <time>2021-06-13T14:14:39Z</time>
      </trkpt>
      <trkpt lat="42.69062" lon="1.65049">
        <ele>1463.157</ele>
        <time>2021-06-13T14:14:41Z</time>
      </trkpt>
      <trkpt lat="42.69063" lon="1.65049">
        <ele>1463.173</ele>
        <time>2021-06-13T14:14:43Z</time>
      </trkpt>
      <trkpt lat="42.69065" lon="1.65048">
        <ele>1463.957</ele>
        <time>2021-06-13T14:14:45Z</time>
      </trkpt>
      <trkpt lat="42.69067" lon="1.65048">
        <ele>1463.791</ele>
        <time>2021-06-13T14:14:47Z</time>
      </trkpt>
      <trkpt lat="42.69068" lon="1.65048">
        <ele>1464.03</ele>
        <time>2021-06-13T14:14:49Z</time>
      </trkpt>
      <trkpt lat="42.6907" lon="1.65047">
        <ele>1463.732</ele>
        <time>2021-06-13T14:14:51Z</time>
      </trkpt>
      <trkpt lat="42.69071" lon="1.65046">
        <ele>1463.535</ele>
        <time>2021-06-13T14:14:53Z</time>
      </trkpt>
      <trkpt lat="42.69073" lon="1.65045">
        <ele>1463.657</ele>
        <time>2021-06-13T14:14:55Z</time>
      </trkpt>
      <trkpt lat="42.69074" lon="1.65045">
        <ele>1464.314</ele>
        <time>2021-06-13T14:14:57Z</time>
      </trkpt>
      <trkpt lat="42.69076" lon="1.65046">
        <ele>1464.878</ele>
        <time>2021-06-13T14:14:59Z</time>
      </trkpt>
      <trkpt lat="42.69077" lon="1.65047">
        <ele>1465.604</ele>
        <time>2021-06-13T14:15:01Z</time>
      </trkpt>
      <trkpt lat="42.69078" lon="1.65047">
        <ele>1466.885</ele>
        <time>2021-06-13T14:15:03Z</time>
      </trkpt>
      <trkpt lat="42.6908" lon="1.65047">
        <ele>1467.198</ele>
        <time>2021-06-13T14:15:05Z</time>
      </trkpt>
      <trkpt lat="42.6908" lon="1.65049">
        <ele>1466.892</ele>
        <time>2021-06-13T14:15:07Z</time>
      </trkpt>
      <trkpt lat="42.69081" lon="1.6505">
        <ele>1466.924</ele>
        <time>2021-06-13T14:15:09Z</time>
      </trkpt>
      <trkpt lat="42.69082" lon="1.6505">
        <ele>1466.285</ele>
        <time>2021-06-13T14:15:11Z</time>
      </trkpt>
      <trkpt lat="42.69083" lon="1.6505">
        <ele>1466.773</ele>
        <time>2021-06-13T14:15:13Z</time>
      </trkpt>
      <trkpt lat="42.69084" lon="1.6505">
        <ele>1466.788</ele>
        <time>2021-06-13T14:15:15Z</time>
      </trkpt>
      <trkpt lat="42.69085" lon="1.6505">
        <ele>1466.001</ele>
        <time>2021-06-13T14:15:17Z</time>
      </trkpt>
      <trkpt lat="42.69086" lon="1.6505">
        <ele>1465.872</ele>
        <time>2021-06-13T14:15:19Z</time>
      </trkpt>
      <trkpt lat="42.69086" lon="1.65049">
        <ele>1466.549</ele>
        <time>2021-06-13T14:15:21Z</time>
      </trkpt>
      <trkpt lat="42.69087" lon="1.65048">
        <ele>1466.191</ele>
        <time>2021-06-13T14:15:23Z</time>
      </trkpt>
      <trkpt lat="42.69088" lon="1.65047">
        <ele>1465.565</ele>
        <time>2021-06-13T14:15:25Z</time>
      </trkpt>
      <trkpt lat="42.69089" lon="1.65046">
        <ele>1465.388</ele>
        <time>2021-06-13T14:15:27Z</time>
      </trkpt>
      <trkpt lat="42.69089" lon="1.65045">
        <ele>1465.481</ele>
        <time>2021-06-13T14:15:29Z</time>
      </trkpt>
      <trkpt lat="42.69089" lon="1.65045">
        <ele>1465.493</ele>
        <time>2021-06-13T14:15:31Z</time>
      </trkpt>
      <trkpt lat="42.69089" lon="1.65045">
        <ele>1465.474</ele>
        <time>2021-06-13T14:15:33Z</time>
      </trkpt>
      <trkpt lat="42.69089" lon="1.65045">
        <ele>1465.474</ele>
        <time>2021-06-13T14:15:35Z</time>
      </trkpt>
      <trkpt lat="42.69089" lon="1.65045">
        <ele>1465.482</ele>
        <time>2021-06-13T14:15:37Z</time>
      </trkpt>
      <trkpt lat="42.69089" lon="1.65045">
        <ele>1464.771</ele>
        <time>2021-06-13T14:15:39Z</time>
      </trkpt>
      <trkpt lat="42.69092" lon="1.65045">
        <ele>1465.152</ele>
        <time>2021-06-13T14:15:41Z</time>
      </trkpt>
      <trkpt lat="42.69091" lon="1.65042">
        <ele>1463.816</ele>
        <time>2021-06-13T14:15:43Z</time>
      </trkpt>
      <trkpt lat="42.69092" lon="1.6504">
        <ele>1463.575</ele>
        <time>2021-06-13T14:15:45Z</time>
      </trkpt>
      <trkpt lat="42.69093" lon="1.65039">
        <ele>1463.9</ele>
        <time>2021-06-13T14:15:47Z</time>
      </trkpt>
      <trkpt lat="42.69094" lon="1.65039">
        <ele>1463.257</ele>
        <time>2021-06-13T14:15:49Z</time>
      </trkpt>
      <trkpt lat="42.69095" lon="1.6504">
        <ele>1462.215</ele>
        <time>2021-06-13T14:15:51Z</time>
      </trkpt>
      <trkpt lat="42.69096" lon="1.6504">
        <ele>1463.022</ele>
        <time>2021-06-13T14:15:53Z</time>
      </trkpt>
      <trkpt lat="42.69098" lon="1.65041">
        <ele>1462.955</ele>
        <time>2021-06-13T14:15:55Z</time>
      </trkpt>
      <trkpt lat="42.69099" lon="1.6504">
        <ele>1462.516</ele>
        <time>2021-06-13T14:15:57Z</time>
      </trkpt>
      <trkpt lat="42.69101" lon="1.6504">
        <ele>1461.369</ele>
        <time>2021-06-13T14:15:59Z</time>
      </trkpt>
      <trkpt lat="42.69102" lon="1.6504">
        <ele>1458.207</ele>
        <time>2021-06-13T14:16:01Z</time>
      </trkpt>
      <trkpt lat="42.691" lon="1.6504">
        <ele>1459.344</ele>
        <time>2021-06-13T14:16:02Z</time>
      </trkpt>
      <trkpt lat="42.691" lon="1.6504">
        <ele>1457.656</ele>
        <time>2021-06-13T14:16:08Z</time>
      </trkpt>
      <trkpt lat="42.69099" lon="1.65042">
        <ele>1456.263</ele>
        <time>2021-06-13T14:16:10Z</time>
      </trkpt>
      <trkpt lat="42.691" lon="1.65041">
        <ele>1456.936</ele>
        <time>2021-06-13T14:16:12Z</time>
      </trkpt>
      <trkpt lat="42.691" lon="1.65042">
        <ele>1456.698</ele>
        <time>2021-06-13T14:16:14Z</time>
      </trkpt>
      <trkpt lat="42.69101" lon="1.65042">
        <ele>1456.649</ele>
        <time>2021-06-13T14:16:16Z</time>
      </trkpt>
      <trkpt lat="42.69102" lon="1.65044">
        <ele>1456.769</ele>
        <time>2021-06-13T14:16:18Z</time>
      </trkpt>
      <trkpt lat="42.69104" lon="1.65044">
        <ele>1457.884</ele>
        <time>2021-06-13T14:16:20Z</time>
      </trkpt>
      <trkpt lat="42.69105" lon="1.65046">
        <ele>1458.05</ele>
        <time>2021-06-13T14:16:22Z</time>
      </trkpt>
      <trkpt lat="42.69104" lon="1.65046">
        <ele>1457.892</ele>
        <time>2021-06-13T14:16:24Z</time>
      </trkpt>
      <trkpt lat="42.69104" lon="1.65046">
        <ele>1457.817</ele>
        <time>2021-06-13T14:16:26Z</time>
      </trkpt>
      <trkpt lat="42.69105" lon="1.65047">
        <ele>1458.094</ele>
        <time>2021-06-13T14:16:28Z</time>
      </trkpt>
      <trkpt lat="42.69105" lon="1.65047">
        <ele>1458.067</ele>
        <time>2021-06-13T14:16:30Z</time>
      </trkpt>
      <trkpt lat="42.69105" lon="1.65047">
        <ele>1458.061</ele>
        <time>2021-06-13T14:16:32Z</time>
      </trkpt>
      <trkpt lat="42.69105" lon="1.65047">
        <ele>1458.058</ele>
        <time>2021-06-13T14:16:34Z</time>
      </trkpt>
      <trkpt lat="42.69105" lon="1.65047">
        <ele>1458.054</ele>
        <time>2021-06-13T14:16:36Z</time>
      </trkpt>
      <trkpt lat="42.69105" lon="1.65048">
        <ele>1458.068</ele>
        <time>2021-06-13T14:16:38Z</time>
      </trkpt>
      <trkpt lat="42.69105" lon="1.65048">
        <ele>1458.075</ele>
        <time>2021-06-13T14:16:40Z</time>
      </trkpt>
      <trkpt lat="42.69105" lon="1.65048">
        <ele>1458.074</ele>
        <time>2021-06-13T14:16:42Z</time>
      </trkpt>
      <trkpt lat="42.69105" lon="1.65048">
        <ele>1458.16</ele>
        <time>2021-06-13T14:16:44Z</time>
      </trkpt>
      <trkpt lat="42.69106" lon="1.65049">
        <ele>1457.607</ele>
        <time>2021-06-13T14:16:46Z</time>
      </trkpt>
      <trkpt lat="42.69107" lon="1.6505">
        <ele>1457.487</ele>
        <time>2021-06-13T14:16:48Z</time>
      </trkpt>
      <trkpt lat="42.69109" lon="1.65051">
        <ele>1457.799</ele>
        <time>2021-06-13T14:16:50Z</time>
      </trkpt>
      <trkpt lat="42.6911" lon="1.65051">
        <ele>1457.478</ele>
        <time>2021-06-13T14:16:52Z</time>
      </trkpt>
      <trkpt lat="42.69111" lon="1.65051">
        <ele>1456.839</ele>
        <time>2021-06-13T14:16:54Z</time>
      </trkpt>
      <trkpt lat="42.69111" lon="1.65052">
        <ele>1456.735</ele>
        <time>2021-06-13T14:16:56Z</time>
      </trkpt>
      <trkpt lat="42.69112" lon="1.65054">
        <ele>1456.592</ele>
        <time>2021-06-13T14:16:58Z</time>
      </trkpt>
      <trkpt lat="42.69113" lon="1.65055">
        <ele>1455.61</ele>
        <time>2021-06-13T14:17:00Z</time>
      </trkpt>
      <trkpt lat="42.69114" lon="1.65056">
        <ele>1455.635</ele>
        <time>2021-06-13T14:17:02Z</time>
      </trkpt>
      <trkpt lat="42.69114" lon="1.65056">
        <ele>1454.38</ele>
        <time>2021-06-13T14:17:04Z</time>
      </trkpt>
      <trkpt lat="42.69115" lon="1.65055">
        <ele>1454.298</ele>
        <time>2021-06-13T14:17:06Z</time>
      </trkpt>
      <trkpt lat="42.69117" lon="1.65056">
        <ele>1454.326</ele>
        <time>2021-06-13T14:17:08Z</time>
      </trkpt>
      <trkpt lat="42.69117" lon="1.65057">
        <ele>1454.163</ele>
        <time>2021-06-13T14:17:10Z</time>
      </trkpt>
      <trkpt lat="42.69118" lon="1.65057">
        <ele>1454.411</ele>
        <time>2021-06-13T14:17:12Z</time>
      </trkpt>
      <trkpt lat="42.69119" lon="1.65058">
        <ele>1453.855</ele>
        <time>2021-06-13T14:17:14Z</time>
      </trkpt>
      <trkpt lat="42.69119" lon="1.65058">
        <ele>1453.699</ele>
        <time>2021-06-13T14:17:16Z</time>
      </trkpt>
      <trkpt lat="42.6912" lon="1.65059">
        <ele>1452.629</ele>
        <time>2021-06-13T14:17:18Z</time>
      </trkpt>
      <trkpt lat="42.69121" lon="1.65059">
        <ele>1453.049</ele>
        <time>2021-06-13T14:17:20Z</time>
      </trkpt>
      <trkpt lat="42.69123" lon="1.6506">
        <ele>1449.93</ele>
        <time>2021-06-13T14:17:22Z</time>
      </trkpt>
      <trkpt lat="42.69124" lon="1.65061">
        <ele>1449.065</ele>
        <time>2021-06-13T14:17:24Z</time>
      </trkpt>
      <trkpt lat="42.69126" lon="1.65062">
        <ele>1448.58</ele>
        <time>2021-06-13T14:17:26Z</time>
      </trkpt>
      <trkpt lat="42.69127" lon="1.65063">
        <ele>1447.307</ele>
        <time>2021-06-13T14:17:28Z</time>
      </trkpt>
      <trkpt lat="42.69128" lon="1.65064">
        <ele>1446.419</ele>
        <time>2021-06-13T14:17:30Z</time>
      </trkpt>
      <trkpt lat="42.69133" lon="1.6507">
        <ele>1446.614</ele>
        <time>2021-06-13T14:17:37Z</time>
      </trkpt>
      <trkpt lat="42.69136" lon="1.65071">
        <ele>1447.383</ele>
        <time>2021-06-13T14:17:39Z</time>
      </trkpt>
      <trkpt lat="42.69138" lon="1.65071">
        <ele>1448.056</ele>
        <time>2021-06-13T14:17:41Z</time>
      </trkpt>
      <trkpt lat="42.6914" lon="1.6507">
        <ele>1447.736</ele>
        <time>2021-06-13T14:17:43Z</time>
      </trkpt>
      <trkpt lat="42.69142" lon="1.65069">
        <ele>1445.883</ele>
        <time>2021-06-13T14:17:45Z</time>
      </trkpt>
      <trkpt lat="42.69143" lon="1.6507">
        <ele>1444.825</ele>
        <time>2021-06-13T14:17:47Z</time>
      </trkpt>
      <trkpt lat="42.69145" lon="1.6507">
        <ele>1443.969</ele>
        <time>2021-06-13T14:17:49Z</time>
      </trkpt>
      <trkpt lat="42.69146" lon="1.65068">
        <ele>1443.575</ele>
        <time>2021-06-13T14:17:51Z</time>
      </trkpt>
      <trkpt lat="42.69148" lon="1.65068">
        <ele>1443.59</ele>
        <time>2021-06-13T14:17:53Z</time>
      </trkpt>
      <trkpt lat="42.69149" lon="1.65069">
        <ele>1443.615</ele>
        <time>2021-06-13T14:17:55Z</time>
      </trkpt>
      <trkpt lat="42.69151" lon="1.65069">
        <ele>1443.799</ele>
        <time>2021-06-13T14:17:57Z</time>
      </trkpt>
      <trkpt lat="42.69153" lon="1.65069">
        <ele>1444.036</ele>
        <time>2021-06-13T14:17:59Z</time>
      </trkpt>
      <trkpt lat="42.69155" lon="1.6507">
        <ele>1444.17</ele>
        <time>2021-06-13T14:18:01Z</time>
      </trkpt>
      <trkpt lat="42.69157" lon="1.6507">
        <ele>1444.718</ele>
        <time>2021-06-13T14:18:03Z</time>
      </trkpt>
      <trkpt lat="42.69159" lon="1.65071">
        <ele>1445.133</ele>
        <time>2021-06-13T14:18:05Z</time>
      </trkpt>
      <trkpt lat="42.69159" lon="1.65073">
        <ele>1445.169</ele>
        <time>2021-06-13T14:18:07Z</time>
      </trkpt>
      <trkpt lat="42.6916" lon="1.65074">
        <ele>1444.176</ele>
        <time>2021-06-13T14:18:09Z</time>
      </trkpt>
      <trkpt lat="42.69161" lon="1.65075">
        <ele>1443.539</ele>
        <time>2021-06-13T14:18:11Z</time>
      </trkpt>
      <trkpt lat="42.69162" lon="1.65073">
        <ele>1441.834</ele>
        <time>2021-06-13T14:18:13Z</time>
      </trkpt>
      <trkpt lat="42.69163" lon="1.65073">
        <ele>1440.698</ele>
        <time>2021-06-13T14:18:15Z</time>
      </trkpt>
      <trkpt lat="42.69165" lon="1.65074">
        <ele>1441.564</ele>
        <time>2021-06-13T14:18:17Z</time>
      </trkpt>
      <trkpt lat="42.69166" lon="1.65075">
        <ele>1439.656</ele>
        <time>2021-06-13T14:18:19Z</time>
      </trkpt>
      <trkpt lat="42.69168" lon="1.65075">
        <ele>1437.231</ele>
        <time>2021-06-13T14:18:21Z</time>
      </trkpt>
      <trkpt lat="42.69169" lon="1.65076">
        <ele>1437.487</ele>
        <time>2021-06-13T14:18:23Z</time>
      </trkpt>
      <trkpt lat="42.69171" lon="1.65076">
        <ele>1436.3</ele>
        <time>2021-06-13T14:18:25Z</time>
      </trkpt>
      <trkpt lat="42.69173" lon="1.65076">
        <ele>1435.999</ele>
        <time>2021-06-13T14:18:27Z</time>
      </trkpt>
      <trkpt lat="42.69175" lon="1.65076">
        <ele>1434.893</ele>
        <time>2021-06-13T14:18:29Z</time>
      </trkpt>
      <trkpt lat="42.69176" lon="1.65077">
        <ele>1435.473</ele>
        <time>2021-06-13T14:18:31Z</time>
      </trkpt>
      <trkpt lat="42.69178" lon="1.65078">
        <ele>1434.766</ele>
        <time>2021-06-13T14:18:33Z</time>
      </trkpt>
      <trkpt lat="42.6918" lon="1.65079">
        <ele>1433.539</ele>
        <time>2021-06-13T14:18:35Z</time>
      </trkpt>
      <trkpt lat="42.69182" lon="1.65079">
        <ele>1433.352</ele>
        <time>2021-06-13T14:18:37Z</time>
      </trkpt>
      <trkpt lat="42.69185" lon="1.65081">
        <ele>1432.524</ele>
        <time>2021-06-13T14:18:39Z</time>
      </trkpt>
      <trkpt lat="42.69187" lon="1.65082">
        <ele>1436.059</ele>
        <time>2021-06-13T14:18:41Z</time>
      </trkpt>
      <trkpt lat="42.69189" lon="1.65085">
        <ele>1436.03</ele>
        <time>2021-06-13T14:18:43Z</time>
      </trkpt>
      <trkpt lat="42.6919" lon="1.65087">
        <ele>1435.918</ele>
        <time>2021-06-13T14:18:45Z</time>
      </trkpt>
      <trkpt lat="42.69191" lon="1.65089">
        <ele>1436.372</ele>
        <time>2021-06-13T14:18:47Z</time>
      </trkpt>
      <trkpt lat="42.69192" lon="1.65091">
        <ele>1436.142</ele>
        <time>2021-06-13T14:18:49Z</time>
      </trkpt>
      <trkpt lat="42.69194" lon="1.65091">
        <ele>1436.657</ele>
        <time>2021-06-13T14:18:51Z</time>
      </trkpt>
      <trkpt lat="42.69196" lon="1.65091">
        <ele>1437.041</ele>
        <time>2021-06-13T14:18:53Z</time>
      </trkpt>
      <trkpt lat="42.69197" lon="1.65092">
        <ele>1435.79</ele>
        <time>2021-06-13T14:18:55Z</time>
      </trkpt>
      <trkpt lat="42.69199" lon="1.65094">
        <ele>1435.683</ele>
        <time>2021-06-13T14:18:57Z</time>
      </trkpt>
      <trkpt lat="42.69201" lon="1.65096">
        <ele>1435.675</ele>
        <time>2021-06-13T14:18:59Z</time>
      </trkpt>
      <trkpt lat="42.69202" lon="1.65098">
        <ele>1435.257</ele>
        <time>2021-06-13T14:19:01Z</time>
      </trkpt>
      <trkpt lat="42.69204" lon="1.65101">
        <ele>1436.358</ele>
        <time>2021-06-13T14:19:03Z</time>
      </trkpt>
      <trkpt lat="42.69205" lon="1.65103">
        <ele>1436.496</ele>
        <time>2021-06-13T14:19:05Z</time>
      </trkpt>
      <trkpt lat="42.69207" lon="1.65103">
        <ele>1436.325</ele>
        <time>2021-06-13T14:19:07Z</time>
      </trkpt>
      <trkpt lat="42.69209" lon="1.65104">
        <ele>1436.464</ele>
        <time>2021-06-13T14:19:09Z</time>
      </trkpt>
      <trkpt lat="42.69211" lon="1.65106">
        <ele>1436.792</ele>
        <time>2021-06-13T14:19:11Z</time>
      </trkpt>
      <trkpt lat="42.69213" lon="1.65106">
        <ele>1436.935</ele>
        <time>2021-06-13T14:19:13Z</time>
      </trkpt>
      <trkpt lat="42.69215" lon="1.65108">
        <ele>1435.474</ele>
        <time>2021-06-13T14:19:15Z</time>
      </trkpt>
      <trkpt lat="42.69216" lon="1.65109">
        <ele>1435.934</ele>
        <time>2021-06-13T14:19:17Z</time>
      </trkpt>
      <trkpt lat="42.69218" lon="1.6511">
        <ele>1436.182</ele>
        <time>2021-06-13T14:19:19Z</time>
      </trkpt>
      <trkpt lat="42.69219" lon="1.65111">
        <ele>1435.929</ele>
        <time>2021-06-13T14:19:21Z</time>
      </trkpt>
      <trkpt lat="42.69221" lon="1.65112">
        <ele>1435.668</ele>
        <time>2021-06-13T14:19:23Z</time>
      </trkpt>
      <trkpt lat="42.69221" lon="1.65113">
        <ele>1434.751</ele>
        <time>2021-06-13T14:19:25Z</time>
      </trkpt>
      <trkpt lat="42.69223" lon="1.65114">
        <ele>1436.976</ele>
        <time>2021-06-13T14:19:27Z</time>
      </trkpt>
      <trkpt lat="42.69225" lon="1.65114">
        <ele>1436.454</ele>
        <time>2021-06-13T14:19:29Z</time>
      </trkpt>
      <trkpt lat="42.69226" lon="1.65115">
        <ele>1436.435</ele>
        <time>2021-06-13T14:19:31Z</time>
      </trkpt>
      <trkpt lat="42.69227" lon="1.65116">
        <ele>1434.618</ele>
        <time>2021-06-13T14:19:33Z</time>
      </trkpt>
      <trkpt lat="42.69228" lon="1.65117">
        <ele>1433.819</ele>
        <time>2021-06-13T14:19:35Z</time>
      </trkpt>
      <trkpt lat="42.69229" lon="1.65119">
        <ele>1432.522</ele>
        <time>2021-06-13T14:19:37Z</time>
      </trkpt>
      <trkpt lat="42.6923" lon="1.6512">
        <ele>1431.975</ele>
        <time>2021-06-13T14:19:39Z</time>
      </trkpt>
      <trkpt lat="42.69232" lon="1.65121">
        <ele>1431.777</ele>
        <time>2021-06-13T14:19:41Z</time>
      </trkpt>
      <trkpt lat="42.69234" lon="1.65122">
        <ele>1431.644</ele>
        <time>2021-06-13T14:19:43Z</time>
      </trkpt>
      <trkpt lat="42.69235" lon="1.65123">
        <ele>1432.32</ele>
        <time>2021-06-13T14:19:45Z</time>
      </trkpt>
      <trkpt lat="42.69237" lon="1.65125">
        <ele>1432.5</ele>
        <time>2021-06-13T14:19:47Z</time>
      </trkpt>
      <trkpt lat="42.69238" lon="1.65126">
        <ele>1433.023</ele>
        <time>2021-06-13T14:19:49Z</time>
      </trkpt>
      <trkpt lat="42.6924" lon="1.65127">
        <ele>1432.677</ele>
        <time>2021-06-13T14:19:51Z</time>
      </trkpt>
      <trkpt lat="42.69242" lon="1.65129">
        <ele>1431.558</ele>
        <time>2021-06-13T14:19:53Z</time>
      </trkpt>
      <trkpt lat="42.69244" lon="1.6513">
        <ele>1430.591</ele>
        <time>2021-06-13T14:19:55Z</time>
      </trkpt>
      <trkpt lat="42.69246" lon="1.6513">
        <ele>1429.818</ele>
        <time>2021-06-13T14:19:57Z</time>
      </trkpt>
      <trkpt lat="42.69248" lon="1.65131">
        <ele>1429.475</ele>
        <time>2021-06-13T14:19:59Z</time>
      </trkpt>
      <trkpt lat="42.6925" lon="1.65133">
        <ele>1430.021</ele>
        <time>2021-06-13T14:20:01Z</time>
      </trkpt>
      <trkpt lat="42.69251" lon="1.65134">
        <ele>1429.753</ele>
        <time>2021-06-13T14:20:03Z</time>
      </trkpt>
      <trkpt lat="42.69253" lon="1.65136">
        <ele>1429.884</ele>
        <time>2021-06-13T14:20:05Z</time>
      </trkpt>
      <trkpt lat="42.69254" lon="1.65138">
        <ele>1430.52</ele>
        <time>2021-06-13T14:20:07Z</time>
      </trkpt>
      <trkpt lat="42.69257" lon="1.65139">
        <ele>1430.575</ele>
        <time>2021-06-13T14:20:09Z</time>
      </trkpt>
      <trkpt lat="42.69259" lon="1.6514">
        <ele>1430.84</ele>
        <time>2021-06-13T14:20:11Z</time>
      </trkpt>
      <trkpt lat="42.6926" lon="1.6514">
        <ele>1430.344</ele>
        <time>2021-06-13T14:20:13Z</time>
      </trkpt>
      <trkpt lat="42.69262" lon="1.65141">
        <ele>1430.104</ele>
        <time>2021-06-13T14:20:15Z</time>
      </trkpt>
      <trkpt lat="42.69264" lon="1.65142">
        <ele>1430.621</ele>
        <time>2021-06-13T14:20:17Z</time>
      </trkpt>
      <trkpt lat="42.69266" lon="1.65144">
        <ele>1430.229</ele>
        <time>2021-06-13T14:20:19Z</time>
      </trkpt>
      <trkpt lat="42.69267" lon="1.65145">
        <ele>1430.072</ele>
        <time>2021-06-13T14:20:21Z</time>
      </trkpt>
      <trkpt lat="42.69269" lon="1.65145">
        <ele>1429.949</ele>
        <time>2021-06-13T14:20:23Z</time>
      </trkpt>
      <trkpt lat="42.6927" lon="1.65145">
        <ele>1429.842</ele>
        <time>2021-06-13T14:20:25Z</time>
      </trkpt>
      <trkpt lat="42.69272" lon="1.65144">
        <ele>1429.447</ele>
        <time>2021-06-13T14:20:27Z</time>
      </trkpt>
      <trkpt lat="42.69273" lon="1.65142">
        <ele>1428.587</ele>
        <time>2021-06-13T14:20:29Z</time>
      </trkpt>
      <trkpt lat="42.69274" lon="1.6514">
        <ele>1427.991</ele>
        <time>2021-06-13T14:20:31Z</time>
      </trkpt>
      <trkpt lat="42.69275" lon="1.6514">
        <ele>1427.438</ele>
        <time>2021-06-13T14:20:33Z</time>
      </trkpt>
      <trkpt lat="42.69277" lon="1.65139">
        <ele>1427.305</ele>
        <time>2021-06-13T14:20:35Z</time>
      </trkpt>
      <trkpt lat="42.69279" lon="1.6514">
        <ele>1427.024</ele>
        <time>2021-06-13T14:20:37Z</time>
      </trkpt>
      <trkpt lat="42.69279" lon="1.65141">
        <ele>1426.836</ele>
        <time>2021-06-13T14:20:39Z</time>
      </trkpt>
      <trkpt lat="42.69281" lon="1.65141">
        <ele>1426</ele>
        <time>2021-06-13T14:20:41Z</time>
      </trkpt>
      <trkpt lat="42.69282" lon="1.65142">
        <ele>1425.519</ele>
        <time>2021-06-13T14:20:43Z</time>
      </trkpt>
      <trkpt lat="42.69284" lon="1.65142">
        <ele>1425.209</ele>
        <time>2021-06-13T14:20:45Z</time>
      </trkpt>
      <trkpt lat="42.69285" lon="1.65142">
        <ele>1424.594</ele>
        <time>2021-06-13T14:20:47Z</time>
      </trkpt>
      <trkpt lat="42.69287" lon="1.65143">
        <ele>1425.011</ele>
        <time>2021-06-13T14:20:49Z</time>
      </trkpt>
      <trkpt lat="42.69289" lon="1.65144">
        <ele>1425.432</ele>
        <time>2021-06-13T14:20:51Z</time>
      </trkpt>
      <trkpt lat="42.69289" lon="1.65147">
        <ele>1423.559</ele>
        <time>2021-06-13T14:20:53Z</time>
      </trkpt>
      <trkpt lat="42.69288" lon="1.65148">
        <ele>1420.052</ele>
        <time>2021-06-13T14:20:55Z</time>
      </trkpt>
      <trkpt lat="42.69286" lon="1.65147">
        <ele>1421.909</ele>
        <time>2021-06-13T14:20:57Z</time>
      </trkpt>
      <trkpt lat="42.69284" lon="1.65147">
        <ele>1420.471</ele>
        <time>2021-06-13T14:20:59Z</time>
      </trkpt>
      <trkpt lat="42.69283" lon="1.65147">
        <ele>1419.038</ele>
        <time>2021-06-13T14:21:01Z</time>
      </trkpt>
      <trkpt lat="42.69282" lon="1.65148">
        <ele>1419.2</ele>
        <time>2021-06-13T14:21:03Z</time>
      </trkpt>
      <trkpt lat="42.6928" lon="1.65148">
        <ele>1419.102</ele>
        <time>2021-06-13T14:21:05Z</time>
      </trkpt>
      <trkpt lat="42.69279" lon="1.65147">
        <ele>1419.767</ele>
        <time>2021-06-13T14:21:07Z</time>
      </trkpt>
      <trkpt lat="42.69278" lon="1.65146">
        <ele>1419.845</ele>
        <time>2021-06-13T14:21:09Z</time>
      </trkpt>
      <trkpt lat="42.69277" lon="1.65146">
        <ele>1418.67</ele>
        <time>2021-06-13T14:21:11Z</time>
      </trkpt>
      <trkpt lat="42.69275" lon="1.65145">
        <ele>1419.086</ele>
        <time>2021-06-13T14:21:13Z</time>
      </trkpt>
      <trkpt lat="42.69275" lon="1.65147">
        <ele>1417.51</ele>
        <time>2021-06-13T14:21:15Z</time>
      </trkpt>
      <trkpt lat="42.69275" lon="1.6515">
        <ele>1417.364</ele>
        <time>2021-06-13T14:21:17Z</time>
      </trkpt>
      <trkpt lat="42.69276" lon="1.65151">
        <ele>1417.997</ele>
        <time>2021-06-13T14:21:19Z</time>
      </trkpt>
      <trkpt lat="42.69277" lon="1.65152">
        <ele>1418.139</ele>
        <time>2021-06-13T14:21:21Z</time>
      </trkpt>
      <trkpt lat="42.69278" lon="1.65153">
        <ele>1417.737</ele>
        <time>2021-06-13T14:21:23Z</time>
      </trkpt>
      <trkpt lat="42.69279" lon="1.65153">
        <ele>1417.976</ele>
        <time>2021-06-13T14:21:25Z</time>
      </trkpt>
      <trkpt lat="42.6928" lon="1.65153">
        <ele>1418.019</ele>
        <time>2021-06-13T14:21:27Z</time>
      </trkpt>
      <trkpt lat="42.69281" lon="1.65153">
        <ele>1417.203</ele>
        <time>2021-06-13T14:21:29Z</time>
      </trkpt>
      <trkpt lat="42.69281" lon="1.65156">
        <ele>1417.736</ele>
        <time>2021-06-13T14:21:31Z</time>
      </trkpt>
      <trkpt lat="42.69282" lon="1.65157">
        <ele>1417.926</ele>
        <time>2021-06-13T14:21:33Z</time>
      </trkpt>
      <trkpt lat="42.69283" lon="1.65159">
        <ele>1418.298</ele>
        <time>2021-06-13T14:21:35Z</time>
      </trkpt>
      <trkpt lat="42.69285" lon="1.6516">
        <ele>1418.885</ele>
        <time>2021-06-13T14:21:37Z</time>
      </trkpt>
      <trkpt lat="42.69286" lon="1.6516">
        <ele>1419.743</ele>
        <time>2021-06-13T14:21:39Z</time>
      </trkpt>
      <trkpt lat="42.69288" lon="1.6516">
        <ele>1419.59</ele>
        <time>2021-06-13T14:21:41Z</time>
      </trkpt>
      <trkpt lat="42.69289" lon="1.65162">
        <ele>1419.091</ele>
        <time>2021-06-13T14:21:43Z</time>
      </trkpt>
      <trkpt lat="42.6929" lon="1.65164">
        <ele>1419.439</ele>
        <time>2021-06-13T14:21:45Z</time>
      </trkpt>
      <trkpt lat="42.69291" lon="1.65164">
        <ele>1419.452</ele>
        <time>2021-06-13T14:21:47Z</time>
      </trkpt>
      <trkpt lat="42.69292" lon="1.65165">
        <ele>1419.152</ele>
        <time>2021-06-13T14:21:49Z</time>
      </trkpt>
      <trkpt lat="42.69293" lon="1.65165">
        <ele>1419.189</ele>
        <time>2021-06-13T14:21:51Z</time>
      </trkpt>
      <trkpt lat="42.69294" lon="1.65166">
        <ele>1420.053</ele>
        <time>2021-06-13T14:21:53Z</time>
      </trkpt>
      <trkpt lat="42.69296" lon="1.65166">
        <ele>1419.724</ele>
        <time>2021-06-13T14:21:55Z</time>
      </trkpt>
      <trkpt lat="42.69297" lon="1.65166">
        <ele>1420.063</ele>
        <time>2021-06-13T14:21:57Z</time>
      </trkpt>
      <trkpt lat="42.69298" lon="1.65167">
        <ele>1421.22</ele>
        <time>2021-06-13T14:21:59Z</time>
      </trkpt>
      <trkpt lat="42.693" lon="1.65167">
        <ele>1420.912</ele>
        <time>2021-06-13T14:22:01Z</time>
      </trkpt>
      <trkpt lat="42.69301" lon="1.65168">
        <ele>1420.335</ele>
        <time>2021-06-13T14:22:03Z</time>
      </trkpt>
      <trkpt lat="42.69302" lon="1.65169">
        <ele>1420.136</ele>
        <time>2021-06-13T14:22:05Z</time>
      </trkpt>
      <trkpt lat="42.69303" lon="1.6517">
        <ele>1419.19</ele>
        <time>2021-06-13T14:22:07Z</time>
      </trkpt>
      <trkpt lat="42.69304" lon="1.65172">
        <ele>1418.888</ele>
        <time>2021-06-13T14:22:09Z</time>
      </trkpt>
      <trkpt lat="42.69306" lon="1.65173">
        <ele>1418.203</ele>
        <time>2021-06-13T14:22:11Z</time>
      </trkpt>
      <trkpt lat="42.69306" lon="1.65174">
        <ele>1417.884</ele>
        <time>2021-06-13T14:22:13Z</time>
      </trkpt>
      <trkpt lat="42.69308" lon="1.65174">
        <ele>1418.347</ele>
        <time>2021-06-13T14:22:15Z</time>
      </trkpt>
      <trkpt lat="42.69309" lon="1.65175">
        <ele>1419.559</ele>
        <time>2021-06-13T14:22:17Z</time>
      </trkpt>
      <trkpt lat="42.6931" lon="1.65176">
        <ele>1420.494</ele>
        <time>2021-06-13T14:22:19Z</time>
      </trkpt>
      <trkpt lat="42.69312" lon="1.65178">
        <ele>1420.741</ele>
        <time>2021-06-13T14:22:21Z</time>
      </trkpt>
      <trkpt lat="42.69313" lon="1.65179">
        <ele>1420.43</ele>
        <time>2021-06-13T14:22:23Z</time>
      </trkpt>
      <trkpt lat="42.69314" lon="1.65179">
        <ele>1420.425</ele>
        <time>2021-06-13T14:22:25Z</time>
      </trkpt>
      <trkpt lat="42.69316" lon="1.6518">
        <ele>1419.43</ele>
        <time>2021-06-13T14:22:27Z</time>
      </trkpt>
      <trkpt lat="42.69318" lon="1.65181">
        <ele>1418.914</ele>
        <time>2021-06-13T14:22:29Z</time>
      </trkpt>
      <trkpt lat="42.6932" lon="1.65181">
        <ele>1418.186</ele>
        <time>2021-06-13T14:22:31Z</time>
      </trkpt>
      <trkpt lat="42.69322" lon="1.65182">
        <ele>1418.034</ele>
        <time>2021-06-13T14:22:33Z</time>
      </trkpt>
      <trkpt lat="42.69325" lon="1.65184">
        <ele>1419.033</ele>
        <time>2021-06-13T14:22:35Z</time>
      </trkpt>
      <trkpt lat="42.69326" lon="1.65186">
        <ele>1417.846</ele>
        <time>2021-06-13T14:22:37Z</time>
      </trkpt>
      <trkpt lat="42.69325" lon="1.65189">
        <ele>1416.706</ele>
        <time>2021-06-13T14:22:39Z</time>
      </trkpt>
      <trkpt lat="42.69325" lon="1.65191">
        <ele>1416.594</ele>
        <time>2021-06-13T14:22:41Z</time>
      </trkpt>
      <trkpt lat="42.69324" lon="1.65194">
        <ele>1414.983</ele>
        <time>2021-06-13T14:22:43Z</time>
      </trkpt>
      <trkpt lat="42.69325" lon="1.65195">
        <ele>1413.926</ele>
        <time>2021-06-13T14:22:45Z</time>
      </trkpt>
      <trkpt lat="42.69327" lon="1.65195">
        <ele>1413.749</ele>
        <time>2021-06-13T14:22:47Z</time>
      </trkpt>
      <trkpt lat="42.69328" lon="1.65196">
        <ele>1414.708</ele>
        <time>2021-06-13T14:22:49Z</time>
      </trkpt>
      <trkpt lat="42.6933" lon="1.65197">
        <ele>1413.987</ele>
        <time>2021-06-13T14:22:51Z</time>
      </trkpt>
      <trkpt lat="42.69332" lon="1.65198">
        <ele>1413.861</ele>
        <time>2021-06-13T14:22:53Z</time>
      </trkpt>
      <trkpt lat="42.69333" lon="1.65199">
        <ele>1413.749</ele>
        <time>2021-06-13T14:22:55Z</time>
      </trkpt>
      <trkpt lat="42.69333" lon="1.652">
        <ele>1413.317</ele>
        <time>2021-06-13T14:22:57Z</time>
      </trkpt>
      <trkpt lat="42.69334" lon="1.65201">
        <ele>1413.157</ele>
        <time>2021-06-13T14:22:59Z</time>
      </trkpt>
      <trkpt lat="42.69335" lon="1.65202">
        <ele>1412.021</ele>
        <time>2021-06-13T14:23:01Z</time>
      </trkpt>
      <trkpt lat="42.69336" lon="1.65203">
        <ele>1412.36</ele>
        <time>2021-06-13T14:23:03Z</time>
      </trkpt>
      <trkpt lat="42.69338" lon="1.65204">
        <ele>1412.339</ele>
        <time>2021-06-13T14:23:05Z</time>
      </trkpt>
      <trkpt lat="42.6934" lon="1.65206">
        <ele>1412.661</ele>
        <time>2021-06-13T14:23:07Z</time>
      </trkpt>
      <trkpt lat="42.69342" lon="1.65206">
        <ele>1412.658</ele>
        <time>2021-06-13T14:23:09Z</time>
      </trkpt>
      <trkpt lat="42.69343" lon="1.65206">
        <ele>1412.885</ele>
        <time>2021-06-13T14:23:11Z</time>
      </trkpt>
      <trkpt lat="42.69344" lon="1.65207">
        <ele>1412.37</ele>
        <time>2021-06-13T14:23:13Z</time>
      </trkpt>
      <trkpt lat="42.69345" lon="1.65207">
        <ele>1411.257</ele>
        <time>2021-06-13T14:23:15Z</time>
      </trkpt>
      <trkpt lat="42.69347" lon="1.65208">
        <ele>1411.354</ele>
        <time>2021-06-13T14:23:17Z</time>
      </trkpt>
      <trkpt lat="42.69349" lon="1.6521">
        <ele>1411.846</ele>
        <time>2021-06-13T14:23:19Z</time>
      </trkpt>
      <trkpt lat="42.6935" lon="1.6521">
        <ele>1412.258</ele>
        <time>2021-06-13T14:23:21Z</time>
      </trkpt>
      <trkpt lat="42.6935" lon="1.65212">
        <ele>1412.561</ele>
        <time>2021-06-13T14:23:23Z</time>
      </trkpt>
      <trkpt lat="42.6935" lon="1.65213">
        <ele>1412.642</ele>
        <time>2021-06-13T14:23:25Z</time>
      </trkpt>
      <trkpt lat="42.6935" lon="1.65214">
        <ele>1412.822</ele>
        <time>2021-06-13T14:23:27Z</time>
      </trkpt>
      <trkpt lat="42.69351" lon="1.65215">
        <ele>1412.194</ele>
        <time>2021-06-13T14:23:29Z</time>
      </trkpt>
      <trkpt lat="42.69352" lon="1.65216">
        <ele>1412.411</ele>
        <time>2021-06-13T14:23:31Z</time>
      </trkpt>
      <trkpt lat="42.69352" lon="1.65216">
        <ele>1413.447</ele>
        <time>2021-06-13T14:23:33Z</time>
      </trkpt>
      <trkpt lat="42.69353" lon="1.65217">
        <ele>1411.782</ele>
        <time>2021-06-13T14:23:35Z</time>
      </trkpt>
      <trkpt lat="42.69354" lon="1.65218">
        <ele>1412.051</ele>
        <time>2021-06-13T14:23:37Z</time>
      </trkpt>
      <trkpt lat="42.69355" lon="1.65218">
        <ele>1410.49</ele>
        <time>2021-06-13T14:23:39Z</time>
      </trkpt>
      <trkpt lat="42.69357" lon="1.6522">
        <ele>1411.927</ele>
        <time>2021-06-13T14:23:41Z</time>
      </trkpt>
      <trkpt lat="42.69358" lon="1.65222">
        <ele>1411.202</ele>
        <time>2021-06-13T14:23:43Z</time>
      </trkpt>
      <trkpt lat="42.6936" lon="1.65225">
        <ele>1409.352</ele>
        <time>2021-06-13T14:23:45Z</time>
      </trkpt>
      <trkpt lat="42.69361" lon="1.65225">
        <ele>1408.71</ele>
        <time>2021-06-13T14:23:47Z</time>
      </trkpt>
      <trkpt lat="42.69363" lon="1.65227">
        <ele>1409.702</ele>
        <time>2021-06-13T14:23:49Z</time>
      </trkpt>
      <trkpt lat="42.69365" lon="1.65225">
        <ele>1407.75</ele>
        <time>2021-06-13T14:23:51Z</time>
      </trkpt>
      <trkpt lat="42.69367" lon="1.65225">
        <ele>1408.289</ele>
        <time>2021-06-13T14:23:53Z</time>
      </trkpt>
      <trkpt lat="42.69369" lon="1.65225">
        <ele>1408.977</ele>
        <time>2021-06-13T14:23:55Z</time>
      </trkpt>
      <trkpt lat="42.69371" lon="1.65224">
        <ele>1408.525</ele>
        <time>2021-06-13T14:23:57Z</time>
      </trkpt>
      <trkpt lat="42.69372" lon="1.65224">
        <ele>1407.916</ele>
        <time>2021-06-13T14:23:59Z</time>
      </trkpt>
      <trkpt lat="42.69372" lon="1.65225">
        <ele>1407.797</ele>
        <time>2021-06-13T14:24:01Z</time>
      </trkpt>
      <trkpt lat="42.69374" lon="1.65225">
        <ele>1408.244</ele>
        <time>2021-06-13T14:24:03Z</time>
      </trkpt>
      <trkpt lat="42.69376" lon="1.65225">
        <ele>1407.698</ele>
        <time>2021-06-13T14:24:05Z</time>
      </trkpt>
      <trkpt lat="42.69377" lon="1.65226">
        <ele>1408.269</ele>
        <time>2021-06-13T14:24:07Z</time>
      </trkpt>
      <trkpt lat="42.69378" lon="1.65226">
        <ele>1408.097</ele>
        <time>2021-06-13T14:24:09Z</time>
      </trkpt>
      <trkpt lat="42.6938" lon="1.65227">
        <ele>1407.668</ele>
        <time>2021-06-13T14:24:11Z</time>
      </trkpt>
      <trkpt lat="42.69381" lon="1.65227">
        <ele>1408.299</ele>
        <time>2021-06-13T14:24:13Z</time>
      </trkpt>
      <trkpt lat="42.69382" lon="1.65227">
        <ele>1407.49</ele>
        <time>2021-06-13T14:24:15Z</time>
      </trkpt>
      <trkpt lat="42.69383" lon="1.65228">
        <ele>1406.56</ele>
        <time>2021-06-13T14:24:17Z</time>
      </trkpt>
      <trkpt lat="42.69384" lon="1.65228">
        <ele>1406.248</ele>
        <time>2021-06-13T14:24:19Z</time>
      </trkpt>
      <trkpt lat="42.69385" lon="1.65229">
        <ele>1405.891</ele>
        <time>2021-06-13T14:24:21Z</time>
      </trkpt>
      <trkpt lat="42.69387" lon="1.65229">
        <ele>1406.063</ele>
        <time>2021-06-13T14:24:23Z</time>
      </trkpt>
      <trkpt lat="42.69388" lon="1.65229">
        <ele>1406.352</ele>
        <time>2021-06-13T14:24:25Z</time>
      </trkpt>
      <trkpt lat="42.69391" lon="1.6523">
        <ele>1407.037</ele>
        <time>2021-06-13T14:24:27Z</time>
      </trkpt>
      <trkpt lat="42.69393" lon="1.6523">
        <ele>1405.563</ele>
        <time>2021-06-13T14:24:29Z</time>
      </trkpt>
      <trkpt lat="42.69394" lon="1.65232">
        <ele>1404.382</ele>
        <time>2021-06-13T14:24:31Z</time>
      </trkpt>
      <trkpt lat="42.69395" lon="1.65232">
        <ele>1403.316</ele>
        <time>2021-06-13T14:24:33Z</time>
      </trkpt>
      <trkpt lat="42.69397" lon="1.65233">
        <ele>1403.714</ele>
        <time>2021-06-13T14:24:35Z</time>
      </trkpt>
      <trkpt lat="42.69398" lon="1.65235">
        <ele>1403.708</ele>
        <time>2021-06-13T14:24:37Z</time>
      </trkpt>
      <trkpt lat="42.694" lon="1.65236">
        <ele>1403.571</ele>
        <time>2021-06-13T14:24:39Z</time>
      </trkpt>
      <trkpt lat="42.69401" lon="1.65238">
        <ele>1404.189</ele>
        <time>2021-06-13T14:24:41Z</time>
      </trkpt>
      <trkpt lat="42.69402" lon="1.65241">
        <ele>1405.628</ele>
        <time>2021-06-13T14:24:43Z</time>
      </trkpt>
      <trkpt lat="42.69402" lon="1.65242">
        <ele>1403.102</ele>
        <time>2021-06-13T14:24:45Z</time>
      </trkpt>
      <trkpt lat="42.69405" lon="1.65243">
        <ele>1406.599</ele>
        <time>2021-06-13T14:24:47Z</time>
      </trkpt>
      <trkpt lat="42.69405" lon="1.65243">
        <ele>1403.986</ele>
        <time>2021-06-13T14:24:49Z</time>
      </trkpt>
      <trkpt lat="42.69408" lon="1.65242">
        <ele>1407.584</ele>
        <time>2021-06-13T14:24:51Z</time>
      </trkpt>
      <trkpt lat="42.6941" lon="1.65242">
        <ele>1407.181</ele>
        <time>2021-06-13T14:24:53Z</time>
      </trkpt>
      <trkpt lat="42.69411" lon="1.65243">
        <ele>1406.972</ele>
        <time>2021-06-13T14:24:55Z</time>
      </trkpt>
      <trkpt lat="42.69412" lon="1.65244">
        <ele>1406.258</ele>
        <time>2021-06-13T14:24:57Z</time>
      </trkpt>
      <trkpt lat="42.69413" lon="1.65245">
        <ele>1405.443</ele>
        <time>2021-06-13T14:24:59Z</time>
      </trkpt>
      <trkpt lat="42.69413" lon="1.65248">
        <ele>1405.226</ele>
        <time>2021-06-13T14:25:01Z</time>
      </trkpt>
      <trkpt lat="42.69412" lon="1.6525">
        <ele>1403.402</ele>
        <time>2021-06-13T14:25:03Z</time>
      </trkpt>
      <trkpt lat="42.69413" lon="1.65252">
        <ele>1402.798</ele>
        <time>2021-06-13T14:25:05Z</time>
      </trkpt>
      <trkpt lat="42.69414" lon="1.65253">
        <ele>1401.487</ele>
        <time>2021-06-13T14:25:07Z</time>
      </trkpt>
      <trkpt lat="42.69415" lon="1.65254">
        <ele>1399.956</ele>
        <time>2021-06-13T14:25:09Z</time>
      </trkpt>
      <trkpt lat="42.69417" lon="1.65256">
        <ele>1400.687</ele>
        <time>2021-06-13T14:25:11Z</time>
      </trkpt>
      <trkpt lat="42.69418" lon="1.65258">
        <ele>1403.25</ele>
        <time>2021-06-13T14:25:13Z</time>
      </trkpt>
      <trkpt lat="42.6942" lon="1.65259">
        <ele>1403.448</ele>
        <time>2021-06-13T14:25:15Z</time>
      </trkpt>
      <trkpt lat="42.69421" lon="1.6526">
        <ele>1403.623</ele>
        <time>2021-06-13T14:25:17Z</time>
      </trkpt>
      <trkpt lat="42.69423" lon="1.65262">
        <ele>1403.578</ele>
        <time>2021-06-13T14:25:19Z</time>
      </trkpt>
      <trkpt lat="42.69424" lon="1.65264">
        <ele>1403.822</ele>
        <time>2021-06-13T14:25:21Z</time>
      </trkpt>
      <trkpt lat="42.69425" lon="1.65266">
        <ele>1404.107</ele>
        <time>2021-06-13T14:25:23Z</time>
      </trkpt>
      <trkpt lat="42.69426" lon="1.65267">
        <ele>1402.324</ele>
        <time>2021-06-13T14:25:25Z</time>
      </trkpt>
      <trkpt lat="42.69427" lon="1.65269">
        <ele>1402.742</ele>
        <time>2021-06-13T14:25:27Z</time>
      </trkpt>
      <trkpt lat="42.69428" lon="1.65271">
        <ele>1401.273</ele>
        <time>2021-06-13T14:25:29Z</time>
      </trkpt>
      <trkpt lat="42.69428" lon="1.65273">
        <ele>1401.094</ele>
        <time>2021-06-13T14:25:31Z</time>
      </trkpt>
      <trkpt lat="42.69429" lon="1.65275">
        <ele>1401.516</ele>
        <time>2021-06-13T14:25:33Z</time>
      </trkpt>
      <trkpt lat="42.69429" lon="1.65278">
        <ele>1401.671</ele>
        <time>2021-06-13T14:25:35Z</time>
      </trkpt>
      <trkpt lat="42.69429" lon="1.6528">
        <ele>1400.355</ele>
        <time>2021-06-13T14:25:37Z</time>
      </trkpt>
      <trkpt lat="42.6943" lon="1.65281">
        <ele>1398.747</ele>
        <time>2021-06-13T14:25:39Z</time>
      </trkpt>
      <trkpt lat="42.69431" lon="1.65282">
        <ele>1397.497</ele>
        <time>2021-06-13T14:25:41Z</time>
      </trkpt>
      <trkpt lat="42.69432" lon="1.65284">
        <ele>1396.939</ele>
        <time>2021-06-13T14:25:43Z</time>
      </trkpt>
      <trkpt lat="42.69433" lon="1.65285">
        <ele>1396.329</ele>
        <time>2021-06-13T14:25:45Z</time>
      </trkpt>
      <trkpt lat="42.69433" lon="1.65288">
        <ele>1397.544</ele>
        <time>2021-06-13T14:25:47Z</time>
      </trkpt>
      <trkpt lat="42.69434" lon="1.65289">
        <ele>1397.455</ele>
        <time>2021-06-13T14:25:49Z</time>
      </trkpt>
      <trkpt lat="42.69435" lon="1.6529">
        <ele>1398.041</ele>
        <time>2021-06-13T14:25:51Z</time>
      </trkpt>
      <trkpt lat="42.69436" lon="1.65291">
        <ele>1398.013</ele>
        <time>2021-06-13T14:25:53Z</time>
      </trkpt>
      <trkpt lat="42.69438" lon="1.65293">
        <ele>1399.489</ele>
        <time>2021-06-13T14:25:55Z</time>
      </trkpt>
      <trkpt lat="42.6944" lon="1.65295">
        <ele>1398.982</ele>
        <time>2021-06-13T14:25:57Z</time>
      </trkpt>
      <trkpt lat="42.69442" lon="1.65296">
        <ele>1398.424</ele>
        <time>2021-06-13T14:25:59Z</time>
      </trkpt>
      <trkpt lat="42.69443" lon="1.65298">
        <ele>1398.368</ele>
        <time>2021-06-13T14:26:01Z</time>
      </trkpt>
      <trkpt lat="42.69445" lon="1.65298">
        <ele>1398.215</ele>
        <time>2021-06-13T14:26:03Z</time>
      </trkpt>
      <trkpt lat="42.69447" lon="1.65299">
        <ele>1398.473</ele>
        <time>2021-06-13T14:26:05Z</time>
      </trkpt>
      <trkpt lat="42.69448" lon="1.653">
        <ele>1400.269</ele>
        <time>2021-06-13T14:26:07Z</time>
      </trkpt>
      <trkpt lat="42.6945" lon="1.653">
        <ele>1399.175</ele>
        <time>2021-06-13T14:26:09Z</time>
      </trkpt>
      <trkpt lat="42.69451" lon="1.65301">
        <ele>1400.634</ele>
        <time>2021-06-13T14:26:11Z</time>
      </trkpt>
      <trkpt lat="42.69453" lon="1.65302">
        <ele>1403.537</ele>
        <time>2021-06-13T14:26:13Z</time>
      </trkpt>
      <trkpt lat="42.69456" lon="1.65304">
        <ele>1403.514</ele>
        <time>2021-06-13T14:26:15Z</time>
      </trkpt>
      <trkpt lat="42.69458" lon="1.65305">
        <ele>1402.487</ele>
        <time>2021-06-13T14:26:17Z</time>
      </trkpt>
      <trkpt lat="42.6946" lon="1.65306">
        <ele>1401.264</ele>
        <time>2021-06-13T14:26:19Z</time>
      </trkpt>
      <trkpt lat="42.69462" lon="1.65307">
        <ele>1400.789</ele>
        <time>2021-06-13T14:26:21Z</time>
      </trkpt>
      <trkpt lat="42.69464" lon="1.65308">
        <ele>1401.733</ele>
        <time>2021-06-13T14:26:23Z</time>
      </trkpt>
      <trkpt lat="42.69466" lon="1.65308">
        <ele>1400.566</ele>
        <time>2021-06-13T14:26:25Z</time>
      </trkpt>
      <trkpt lat="42.69467" lon="1.65308">
        <ele>1400.986</ele>
        <time>2021-06-13T14:26:27Z</time>
      </trkpt>
      <trkpt lat="42.69469" lon="1.65309">
        <ele>1400.562</ele>
        <time>2021-06-13T14:26:29Z</time>
      </trkpt>
      <trkpt lat="42.6947" lon="1.65311">
        <ele>1400.424</ele>
        <time>2021-06-13T14:26:31Z</time>
      </trkpt>
      <trkpt lat="42.69472" lon="1.65311">
        <ele>1401.157</ele>
        <time>2021-06-13T14:26:33Z</time>
      </trkpt>
      <trkpt lat="42.69473" lon="1.65312">
        <ele>1399.763</ele>
        <time>2021-06-13T14:26:35Z</time>
      </trkpt>
      <trkpt lat="42.69475" lon="1.65311">
        <ele>1398.213</ele>
        <time>2021-06-13T14:26:37Z</time>
      </trkpt>
      <trkpt lat="42.69476" lon="1.6531">
        <ele>1398.655</ele>
        <time>2021-06-13T14:26:39Z</time>
      </trkpt>
      <trkpt lat="42.69478" lon="1.65311">
        <ele>1397.806</ele>
        <time>2021-06-13T14:26:41Z</time>
      </trkpt>
      <trkpt lat="42.6948" lon="1.65312">
        <ele>1396.683</ele>
        <time>2021-06-13T14:26:43Z</time>
      </trkpt>
      <trkpt lat="42.69481" lon="1.65313">
        <ele>1396.804</ele>
        <time>2021-06-13T14:26:45Z</time>
      </trkpt>
      <trkpt lat="42.69482" lon="1.65314">
        <ele>1395.126</ele>
        <time>2021-06-13T14:26:47Z</time>
      </trkpt>
      <trkpt lat="42.69483" lon="1.65316">
        <ele>1392.732</ele>
        <time>2021-06-13T14:26:49Z</time>
      </trkpt>
      <trkpt lat="42.69485" lon="1.65317">
        <ele>1391.305</ele>
        <time>2021-06-13T14:26:51Z</time>
      </trkpt>
      <trkpt lat="42.69486" lon="1.65318">
        <ele>1390.776</ele>
        <time>2021-06-13T14:26:53Z</time>
      </trkpt>
      <trkpt lat="42.69487" lon="1.6532">
        <ele>1390.172</ele>
        <time>2021-06-13T14:26:55Z</time>
      </trkpt>
      <trkpt lat="42.69489" lon="1.65321">
        <ele>1390.148</ele>
        <time>2021-06-13T14:26:57Z</time>
      </trkpt>
      <trkpt lat="42.6949" lon="1.65321">
        <ele>1389.326</ele>
        <time>2021-06-13T14:26:59Z</time>
      </trkpt>
      <trkpt lat="42.69491" lon="1.65323">
        <ele>1387.974</ele>
        <time>2021-06-13T14:27:01Z</time>
      </trkpt>
      <trkpt lat="42.69493" lon="1.65323">
        <ele>1386.488</ele>
        <time>2021-06-13T14:27:03Z</time>
      </trkpt>
      <trkpt lat="42.69495" lon="1.65324">
        <ele>1386.661</ele>
        <time>2021-06-13T14:27:05Z</time>
      </trkpt>
      <trkpt lat="42.69496" lon="1.65326">
        <ele>1385.866</ele>
        <time>2021-06-13T14:27:07Z</time>
      </trkpt>
      <trkpt lat="42.69498" lon="1.65327">
        <ele>1386.105</ele>
        <time>2021-06-13T14:27:09Z</time>
      </trkpt>
      <trkpt lat="42.695" lon="1.65328">
        <ele>1386.661</ele>
        <time>2021-06-13T14:27:11Z</time>
      </trkpt>
      <trkpt lat="42.69501" lon="1.6533">
        <ele>1386.757</ele>
        <time>2021-06-13T14:27:13Z</time>
      </trkpt>
      <trkpt lat="42.69502" lon="1.65332">
        <ele>1387.143</ele>
        <time>2021-06-13T14:27:15Z</time>
      </trkpt>
      <trkpt lat="42.69504" lon="1.65333">
        <ele>1386.262</ele>
        <time>2021-06-13T14:27:17Z</time>
      </trkpt>
      <trkpt lat="42.69506" lon="1.65335">
        <ele>1385.005</ele>
        <time>2021-06-13T14:27:19Z</time>
      </trkpt>
      <trkpt lat="42.69508" lon="1.65336">
        <ele>1384.219</ele>
        <time>2021-06-13T14:27:21Z</time>
      </trkpt>
      <trkpt lat="42.6951" lon="1.65337">
        <ele>1384.569</ele>
        <time>2021-06-13T14:27:23Z</time>
      </trkpt>
      <trkpt lat="42.69512" lon="1.65338">
        <ele>1384.606</ele>
        <time>2021-06-13T14:27:25Z</time>
      </trkpt>
      <trkpt lat="42.69513" lon="1.65339">
        <ele>1383.544</ele>
        <time>2021-06-13T14:27:27Z</time>
      </trkpt>
      <trkpt lat="42.69515" lon="1.6534">
        <ele>1382.456</ele>
        <time>2021-06-13T14:27:29Z</time>
      </trkpt>
      <trkpt lat="42.69516" lon="1.65342">
        <ele>1381.888</ele>
        <time>2021-06-13T14:27:31Z</time>
      </trkpt>
      <trkpt lat="42.69517" lon="1.65344">
        <ele>1381.711</ele>
        <time>2021-06-13T14:27:33Z</time>
      </trkpt>
      <trkpt lat="42.69518" lon="1.65346">
        <ele>1381.276</ele>
        <time>2021-06-13T14:27:35Z</time>
      </trkpt>
      <trkpt lat="42.69519" lon="1.65347">
        <ele>1380.289</ele>
        <time>2021-06-13T14:27:37Z</time>
      </trkpt>
      <trkpt lat="42.69521" lon="1.6535">
        <ele>1380.547</ele>
        <time>2021-06-13T14:27:39Z</time>
      </trkpt>
      <trkpt lat="42.69522" lon="1.65352">
        <ele>1380.642</ele>
        <time>2021-06-13T14:27:41Z</time>
      </trkpt>
      <trkpt lat="42.69525" lon="1.65353">
        <ele>1380.967</ele>
        <time>2021-06-13T14:27:43Z</time>
      </trkpt>
      <trkpt lat="42.69526" lon="1.65355">
        <ele>1379.833</ele>
        <time>2021-06-13T14:27:45Z</time>
      </trkpt>
      <trkpt lat="42.69529" lon="1.65357">
        <ele>1380.27</ele>
        <time>2021-06-13T14:27:47Z</time>
      </trkpt>
      <trkpt lat="42.6953" lon="1.65358">
        <ele>1379.706</ele>
        <time>2021-06-13T14:27:49Z</time>
      </trkpt>
      <trkpt lat="42.69532" lon="1.6536">
        <ele>1378.67</ele>
        <time>2021-06-13T14:27:51Z</time>
      </trkpt>
      <trkpt lat="42.69534" lon="1.65361">
        <ele>1379.034</ele>
        <time>2021-06-13T14:27:53Z</time>
      </trkpt>
      <trkpt lat="42.69535" lon="1.65363">
        <ele>1378.777</ele>
        <time>2021-06-13T14:27:55Z</time>
      </trkpt>
      <trkpt lat="42.69537" lon="1.65365">
        <ele>1379.922</ele>
        <time>2021-06-13T14:27:57Z</time>
      </trkpt>
      <trkpt lat="42.69539" lon="1.65366">
        <ele>1381.009</ele>
        <time>2021-06-13T14:27:59Z</time>
      </trkpt>
      <trkpt lat="42.6954" lon="1.65367">
        <ele>1380.927</ele>
        <time>2021-06-13T14:28:01Z</time>
      </trkpt>
      <trkpt lat="42.69542" lon="1.65368">
        <ele>1380.82</ele>
        <time>2021-06-13T14:28:03Z</time>
      </trkpt>
      <trkpt lat="42.69544" lon="1.65369">
        <ele>1381.114</ele>
        <time>2021-06-13T14:28:05Z</time>
      </trkpt>
      <trkpt lat="42.69546" lon="1.6537">
        <ele>1380.698</ele>
        <time>2021-06-13T14:28:07Z</time>
      </trkpt>
      <trkpt lat="42.69548" lon="1.6537">
        <ele>1381.922</ele>
        <time>2021-06-13T14:28:09Z</time>
      </trkpt>
      <trkpt lat="42.69549" lon="1.65371">
        <ele>1382.512</ele>
        <time>2021-06-13T14:28:11Z</time>
      </trkpt>
      <trkpt lat="42.69551" lon="1.65372">
        <ele>1380.372</ele>
        <time>2021-06-13T14:28:13Z</time>
      </trkpt>
      <trkpt lat="42.69552" lon="1.65374">
        <ele>1379.694</ele>
        <time>2021-06-13T14:28:15Z</time>
      </trkpt>
      <trkpt lat="42.69554" lon="1.65374">
        <ele>1378.275</ele>
        <time>2021-06-13T14:28:17Z</time>
      </trkpt>
      <trkpt lat="42.69555" lon="1.65375">
        <ele>1378.572</ele>
        <time>2021-06-13T14:28:19Z</time>
      </trkpt>
      <trkpt lat="42.69557" lon="1.65377">
        <ele>1377.824</ele>
        <time>2021-06-13T14:28:21Z</time>
      </trkpt>
      <trkpt lat="42.69558" lon="1.65379">
        <ele>1378.434</ele>
        <time>2021-06-13T14:28:23Z</time>
      </trkpt>
      <trkpt lat="42.69559" lon="1.65381">
        <ele>1378.868</ele>
        <time>2021-06-13T14:28:25Z</time>
      </trkpt>
      <trkpt lat="42.6956" lon="1.65382">
        <ele>1378.536</ele>
        <time>2021-06-13T14:28:26Z</time>
      </trkpt>
      <trkpt lat="42.69567" lon="1.6539">
        <ele>1379.346</ele>
        <time>2021-06-13T14:28:32Z</time>
      </trkpt>
      <trkpt lat="42.69568" lon="1.6539">
        <ele>1377.564</ele>
        <time>2021-06-13T14:28:34Z</time>
      </trkpt>
      <trkpt lat="42.69569" lon="1.65392">
        <ele>1377.033</ele>
        <time>2021-06-13T14:28:36Z</time>
      </trkpt>
      <trkpt lat="42.6957" lon="1.65395">
        <ele>1377.394</ele>
        <time>2021-06-13T14:28:38Z</time>
      </trkpt>
      <trkpt lat="42.69571" lon="1.65398">
        <ele>1377.257</ele>
        <time>2021-06-13T14:28:40Z</time>
      </trkpt>
      <trkpt lat="42.69571" lon="1.65402">
        <ele>1377.13</ele>
        <time>2021-06-13T14:28:42Z</time>
      </trkpt>
      <trkpt lat="42.69568" lon="1.65403">
        <ele>1373.369</ele>
        <time>2021-06-13T14:28:44Z</time>
      </trkpt>
      <trkpt lat="42.69569" lon="1.65404">
        <ele>1373.791</ele>
        <time>2021-06-13T14:28:46Z</time>
      </trkpt>
      <trkpt lat="42.69569" lon="1.65406">
        <ele>1374.039</ele>
        <time>2021-06-13T14:28:48Z</time>
      </trkpt>
      <trkpt lat="42.6957" lon="1.6541">
        <ele>1373.256</ele>
        <time>2021-06-13T14:28:50Z</time>
      </trkpt>
      <trkpt lat="42.69571" lon="1.65411">
        <ele>1370.962</ele>
        <time>2021-06-13T14:28:52Z</time>
      </trkpt>
      <trkpt lat="42.69573" lon="1.65411">
        <ele>1370.602</ele>
        <time>2021-06-13T14:28:54Z</time>
      </trkpt>
      <trkpt lat="42.69573" lon="1.65412">
        <ele>1369.52</ele>
        <time>2021-06-13T14:28:56Z</time>
      </trkpt>
      <trkpt lat="42.69575" lon="1.65414">
        <ele>1368.039</ele>
        <time>2021-06-13T14:28:58Z</time>
      </trkpt>
      <trkpt lat="42.69576" lon="1.65416">
        <ele>1368.746</ele>
        <time>2021-06-13T14:29:00Z</time>
      </trkpt>
      <trkpt lat="42.69578" lon="1.65419">
        <ele>1370.452</ele>
        <time>2021-06-13T14:29:02Z</time>
      </trkpt>
      <trkpt lat="42.69579" lon="1.65422">
        <ele>1371.208</ele>
        <time>2021-06-13T14:29:04Z</time>
      </trkpt>
      <trkpt lat="42.6958" lon="1.65426">
        <ele>1372.079</ele>
        <time>2021-06-13T14:29:06Z</time>
      </trkpt>
      <trkpt lat="42.69581" lon="1.65428">
        <ele>1372.532</ele>
        <time>2021-06-13T14:29:08Z</time>
      </trkpt>
      <trkpt lat="42.69583" lon="1.65428">
        <ele>1374.164</ele>
        <time>2021-06-13T14:29:10Z</time>
      </trkpt>
      <trkpt lat="42.69585" lon="1.6543">
        <ele>1373.439</ele>
        <time>2021-06-13T14:29:12Z</time>
      </trkpt>
      <trkpt lat="42.69587" lon="1.65431">
        <ele>1373.018</ele>
        <time>2021-06-13T14:29:14Z</time>
      </trkpt>
      <trkpt lat="42.69588" lon="1.65434">
        <ele>1371.637</ele>
        <time>2021-06-13T14:29:16Z</time>
      </trkpt>
      <trkpt lat="42.6959" lon="1.65436">
        <ele>1372.245</ele>
        <time>2021-06-13T14:29:18Z</time>
      </trkpt>
      <trkpt lat="42.69592" lon="1.65436">
        <ele>1370.342</ele>
        <time>2021-06-13T14:29:20Z</time>
      </trkpt>
      <trkpt lat="42.69594" lon="1.65436">
        <ele>1370.182</ele>
        <time>2021-06-13T14:29:22Z</time>
      </trkpt>
      <trkpt lat="42.69595" lon="1.65436">
        <ele>1371.311</ele>
        <time>2021-06-13T14:29:24Z</time>
      </trkpt>
      <trkpt lat="42.69597" lon="1.65437">
        <ele>1371.496</ele>
        <time>2021-06-13T14:29:26Z</time>
      </trkpt>
      <trkpt lat="42.696" lon="1.65438">
        <ele>1370.641</ele>
        <time>2021-06-13T14:29:28Z</time>
      </trkpt>
      <trkpt lat="42.69602" lon="1.65438">
        <ele>1369.865</ele>
        <time>2021-06-13T14:29:30Z</time>
      </trkpt>
      <trkpt lat="42.69604" lon="1.65439">
        <ele>1368.764</ele>
        <time>2021-06-13T14:29:32Z</time>
      </trkpt>
      <trkpt lat="42.69606" lon="1.6544">
        <ele>1366.849</ele>
        <time>2021-06-13T14:29:34Z</time>
      </trkpt>
      <trkpt lat="42.69607" lon="1.65441">
        <ele>1366.67</ele>
        <time>2021-06-13T14:29:36Z</time>
      </trkpt>
      <trkpt lat="42.69608" lon="1.65443">
        <ele>1365.568</ele>
        <time>2021-06-13T14:29:38Z</time>
      </trkpt>
      <trkpt lat="42.69609" lon="1.65445">
        <ele>1364.78</ele>
        <time>2021-06-13T14:29:40Z</time>
      </trkpt>
      <trkpt lat="42.6961" lon="1.65447">
        <ele>1363.622</ele>
        <time>2021-06-13T14:29:42Z</time>
      </trkpt>
      <trkpt lat="42.69611" lon="1.65449">
        <ele>1362.719</ele>
        <time>2021-06-13T14:29:44Z</time>
      </trkpt>
      <trkpt lat="42.69612" lon="1.65449">
        <ele>1362.879</ele>
        <time>2021-06-13T14:29:46Z</time>
      </trkpt>
      <trkpt lat="42.69614" lon="1.65451">
        <ele>1363.587</ele>
        <time>2021-06-13T14:29:48Z</time>
      </trkpt>
      <trkpt lat="42.69615" lon="1.65451">
        <ele>1365.047</ele>
        <time>2021-06-13T14:29:50Z</time>
      </trkpt>
      <trkpt lat="42.69617" lon="1.65452">
        <ele>1366.197</ele>
        <time>2021-06-13T14:29:52Z</time>
      </trkpt>
      <trkpt lat="42.69618" lon="1.65454">
        <ele>1367.949</ele>
        <time>2021-06-13T14:29:54Z</time>
      </trkpt>
      <trkpt lat="42.6962" lon="1.65454">
        <ele>1368.045</ele>
        <time>2021-06-13T14:29:56Z</time>
      </trkpt>
      <trkpt lat="42.69622" lon="1.65455">
        <ele>1367.884</ele>
        <time>2021-06-13T14:29:58Z</time>
      </trkpt>
      <trkpt lat="42.69623" lon="1.65457">
        <ele>1368.364</ele>
        <time>2021-06-13T14:30:00Z</time>
      </trkpt>
      <trkpt lat="42.69625" lon="1.65458">
        <ele>1367.606</ele>
        <time>2021-06-13T14:30:02Z</time>
      </trkpt>
      <trkpt lat="42.69627" lon="1.65459">
        <ele>1367.391</ele>
        <time>2021-06-13T14:30:04Z</time>
      </trkpt>
      <trkpt lat="42.69629" lon="1.65459">
        <ele>1366.825</ele>
        <time>2021-06-13T14:30:06Z</time>
      </trkpt>
      <trkpt lat="42.69632" lon="1.6546">
        <ele>1366.112</ele>
        <time>2021-06-13T14:30:08Z</time>
      </trkpt>
      <trkpt lat="42.69634" lon="1.6546">
        <ele>1367.24</ele>
        <time>2021-06-13T14:30:10Z</time>
      </trkpt>
      <trkpt lat="42.69636" lon="1.6546">
        <ele>1369.553</ele>
        <time>2021-06-13T14:30:12Z</time>
      </trkpt>
      <trkpt lat="42.69639" lon="1.65461">
        <ele>1369.278</ele>
        <time>2021-06-13T14:30:14Z</time>
      </trkpt>
      <trkpt lat="42.69641" lon="1.65462">
        <ele>1370.03</ele>
        <time>2021-06-13T14:30:16Z</time>
      </trkpt>
      <trkpt lat="42.69643" lon="1.65464">
        <ele>1369.476</ele>
        <time>2021-06-13T14:30:18Z</time>
      </trkpt>
      <trkpt lat="42.69645" lon="1.65465">
        <ele>1368.539</ele>
        <time>2021-06-13T14:30:20Z</time>
      </trkpt>
      <trkpt lat="42.69647" lon="1.65467">
        <ele>1367.789</ele>
        <time>2021-06-13T14:30:22Z</time>
      </trkpt>
      <trkpt lat="42.69649" lon="1.65469">
        <ele>1368.434</ele>
        <time>2021-06-13T14:30:24Z</time>
      </trkpt>
      <trkpt lat="42.69651" lon="1.65469">
        <ele>1367.937</ele>
        <time>2021-06-13T14:30:26Z</time>
      </trkpt>
      <trkpt lat="42.69653" lon="1.6547">
        <ele>1368.168</ele>
        <time>2021-06-13T14:30:28Z</time>
      </trkpt>
      <trkpt lat="42.69655" lon="1.65471">
        <ele>1366.379</ele>
        <time>2021-06-13T14:30:30Z</time>
      </trkpt>
      <trkpt lat="42.69657" lon="1.65473">
        <ele>1365.659</ele>
        <time>2021-06-13T14:30:32Z</time>
      </trkpt>
      <trkpt lat="42.69658" lon="1.65473">
        <ele>1365.635</ele>
        <time>2021-06-13T14:30:34Z</time>
      </trkpt>
      <trkpt lat="42.6966" lon="1.65475">
        <ele>1367.616</ele>
        <time>2021-06-13T14:30:36Z</time>
      </trkpt>
      <trkpt lat="42.69662" lon="1.65476">
        <ele>1367.509</ele>
        <time>2021-06-13T14:30:38Z</time>
      </trkpt>
      <trkpt lat="42.69664" lon="1.65477">
        <ele>1365.547</ele>
        <time>2021-06-13T14:30:40Z</time>
      </trkpt>
      <trkpt lat="42.69666" lon="1.65479">
        <ele>1363.503</ele>
        <time>2021-06-13T14:30:42Z</time>
      </trkpt>
      <trkpt lat="42.69668" lon="1.6548">
        <ele>1361.475</ele>
        <time>2021-06-13T14:30:44Z</time>
      </trkpt>
      <trkpt lat="42.6967" lon="1.65481">
        <ele>1360.757</ele>
        <time>2021-06-13T14:30:46Z</time>
      </trkpt>
      <trkpt lat="42.69672" lon="1.65482">
        <ele>1358.88</ele>
        <time>2021-06-13T14:30:48Z</time>
      </trkpt>
      <trkpt lat="42.69673" lon="1.65484">
        <ele>1359.633</ele>
        <time>2021-06-13T14:30:50Z</time>
      </trkpt>
      <trkpt lat="42.69675" lon="1.65485">
        <ele>1360.405</ele>
        <time>2021-06-13T14:30:52Z</time>
      </trkpt>
      <trkpt lat="42.69678" lon="1.65486">
        <ele>1361.204</ele>
        <time>2021-06-13T14:30:54Z</time>
      </trkpt>
      <trkpt lat="42.69679" lon="1.65487">
        <ele>1361.512</ele>
        <time>2021-06-13T14:30:56Z</time>
      </trkpt>
      <trkpt lat="42.69682" lon="1.65489">
        <ele>1360.426</ele>
        <time>2021-06-13T14:30:58Z</time>
      </trkpt>
      <trkpt lat="42.69684" lon="1.65489">
        <ele>1360.506</ele>
        <time>2021-06-13T14:31:00Z</time>
      </trkpt>
      <trkpt lat="42.69686" lon="1.6549">
        <ele>1359.676</ele>
        <time>2021-06-13T14:31:02Z</time>
      </trkpt>
      <trkpt lat="42.69689" lon="1.65492">
        <ele>1357.85</ele>
        <time>2021-06-13T14:31:04Z</time>
      </trkpt>
      <trkpt lat="42.69691" lon="1.65493">
        <ele>1357.797</ele>
        <time>2021-06-13T14:31:06Z</time>
      </trkpt>
      <trkpt lat="42.69694" lon="1.65493">
        <ele>1358.385</ele>
        <time>2021-06-13T14:31:08Z</time>
      </trkpt>
      <trkpt lat="42.69697" lon="1.65493">
        <ele>1359.581</ele>
        <time>2021-06-13T14:31:10Z</time>
      </trkpt>
      <trkpt lat="42.69699" lon="1.65492">
        <ele>1360.919</ele>
        <time>2021-06-13T14:31:12Z</time>
      </trkpt>
      <trkpt lat="42.69702" lon="1.65494">
        <ele>1360.464</ele>
        <time>2021-06-13T14:31:14Z</time>
      </trkpt>
      <trkpt lat="42.69705" lon="1.65496">
        <ele>1361.347</ele>
        <time>2021-06-13T14:31:16Z</time>
      </trkpt>
      <trkpt lat="42.69707" lon="1.65497">
        <ele>1362.697</ele>
        <time>2021-06-13T14:31:18Z</time>
      </trkpt>
      <trkpt lat="42.6971" lon="1.65499">
        <ele>1362.521</ele>
        <time>2021-06-13T14:31:20Z</time>
      </trkpt>
      <trkpt lat="42.69712" lon="1.65498">
        <ele>1362.485</ele>
        <time>2021-06-13T14:31:22Z</time>
      </trkpt>
      <trkpt lat="42.69714" lon="1.65498">
        <ele>1361.143</ele>
        <time>2021-06-13T14:31:24Z</time>
      </trkpt>
      <trkpt lat="42.69716" lon="1.655">
        <ele>1360.102</ele>
        <time>2021-06-13T14:31:26Z</time>
      </trkpt>
      <trkpt lat="42.69718" lon="1.65501">
        <ele>1361.396</ele>
        <time>2021-06-13T14:31:28Z</time>
      </trkpt>
      <trkpt lat="42.6972" lon="1.65503">
        <ele>1361.55</ele>
        <time>2021-06-13T14:31:30Z</time>
      </trkpt>
      <trkpt lat="42.69723" lon="1.65504">
        <ele>1359.958</ele>
        <time>2021-06-13T14:31:32Z</time>
      </trkpt>
      <trkpt lat="42.69724" lon="1.65506">
        <ele>1359.721</ele>
        <time>2021-06-13T14:31:34Z</time>
      </trkpt>
      <trkpt lat="42.69726" lon="1.65509">
        <ele>1359.83</ele>
        <time>2021-06-13T14:31:36Z</time>
      </trkpt>
      <trkpt lat="42.69729" lon="1.65509">
        <ele>1362.902</ele>
        <time>2021-06-13T14:31:38Z</time>
      </trkpt>
      <trkpt lat="42.69731" lon="1.6551">
        <ele>1362.233</ele>
        <time>2021-06-13T14:31:40Z</time>
      </trkpt>
      <trkpt lat="42.69734" lon="1.65511">
        <ele>1361.497</ele>
        <time>2021-06-13T14:31:42Z</time>
      </trkpt>
      <trkpt lat="42.69735" lon="1.65512">
        <ele>1361.594</ele>
        <time>2021-06-13T14:31:44Z</time>
      </trkpt>
      <trkpt lat="42.69737" lon="1.65513">
        <ele>1362.23</ele>
        <time>2021-06-13T14:31:46Z</time>
      </trkpt>
      <trkpt lat="42.69738" lon="1.65514">
        <ele>1362.08</ele>
        <time>2021-06-13T14:31:48Z</time>
      </trkpt>
      <trkpt lat="42.69738" lon="1.65514">
        <ele>1359.881</ele>
        <time>2021-06-13T14:31:50Z</time>
      </trkpt>
      <trkpt lat="42.69739" lon="1.65514">
        <ele>1360.158</ele>
        <time>2021-06-13T14:31:52Z</time>
      </trkpt>
      <trkpt lat="42.69741" lon="1.65515">
        <ele>1360.945</ele>
        <time>2021-06-13T14:31:54Z</time>
      </trkpt>
      <trkpt lat="42.69742" lon="1.65515">
        <ele>1360.816</ele>
        <time>2021-06-13T14:31:56Z</time>
      </trkpt>
      <trkpt lat="42.69742" lon="1.65515">
        <ele>1360.521</ele>
        <time>2021-06-13T14:31:58Z</time>
      </trkpt>
      <trkpt lat="42.69744" lon="1.65514">
        <ele>1360.496</ele>
        <time>2021-06-13T14:32:00Z</time>
      </trkpt>
      <trkpt lat="42.69744" lon="1.65514">
        <ele>1360.482</ele>
        <time>2021-06-13T14:32:02Z</time>
      </trkpt>
      <trkpt lat="42.69744" lon="1.65514">
        <ele>1360.478</ele>
        <time>2021-06-13T14:32:04Z</time>
      </trkpt>
      <trkpt lat="42.69744" lon="1.65514">
        <ele>1360.486</ele>
        <time>2021-06-13T14:32:06Z</time>
      </trkpt>
      <trkpt lat="42.69743" lon="1.65513">
        <ele>1359.708</ele>
        <time>2021-06-13T14:32:08Z</time>
      </trkpt>
      <trkpt lat="42.69743" lon="1.65513">
        <ele>1359.386</ele>
        <time>2021-06-13T14:32:10Z</time>
      </trkpt>
      <trkpt lat="42.69743" lon="1.65513">
        <ele>1359.353</ele>
        <time>2021-06-13T14:32:12Z</time>
      </trkpt>
      <trkpt lat="42.69743" lon="1.65513">
        <ele>1359.335</ele>
        <time>2021-06-13T14:32:14Z</time>
      </trkpt>
      <trkpt lat="42.69743" lon="1.65513">
        <ele>1359.325</ele>
        <time>2021-06-13T14:32:16Z</time>
      </trkpt>
      <trkpt lat="42.69743" lon="1.65513">
        <ele>1359.314</ele>
        <time>2021-06-13T14:32:18Z</time>
      </trkpt>
      <trkpt lat="42.69743" lon="1.65513">
        <ele>1359.278</ele>
        <time>2021-06-13T14:32:20Z</time>
      </trkpt>
      <trkpt lat="42.69743" lon="1.65513">
        <ele>1359.212</ele>
        <time>2021-06-13T14:32:22Z</time>
      </trkpt>
      <trkpt lat="42.69742" lon="1.65512">
        <ele>1358.105</ele>
        <time>2021-06-13T14:32:24Z</time>
      </trkpt>
      <trkpt lat="42.69742" lon="1.65512">
        <ele>1357.499</ele>
        <time>2021-06-13T14:32:26Z</time>
      </trkpt>
      <trkpt lat="42.69742" lon="1.65512">
        <ele>1357.221</ele>
        <time>2021-06-13T14:32:28Z</time>
      </trkpt>
      <trkpt lat="42.69742" lon="1.65511">
        <ele>1357.093</ele>
        <time>2021-06-13T14:32:30Z</time>
      </trkpt>
      <trkpt lat="42.69742" lon="1.6551">
        <ele>1356.244</ele>
        <time>2021-06-13T14:32:32Z</time>
      </trkpt>
      <trkpt lat="42.69741" lon="1.65511">
        <ele>1356.429</ele>
        <time>2021-06-13T14:32:33Z</time>
      </trkpt>
      <trkpt lat="42.69741" lon="1.65511">
        <ele>1356.356</ele>
        <time>2021-06-13T14:32:39Z</time>
      </trkpt>
      <trkpt lat="42.69741" lon="1.65511">
        <ele>1356.355</ele>
        <time>2021-06-13T14:32:41Z</time>
      </trkpt>
      <trkpt lat="42.69741" lon="1.65511">
        <ele>1356.326</ele>
        <time>2021-06-13T14:32:43Z</time>
      </trkpt>
      <trkpt lat="42.69741" lon="1.65511">
        <ele>1356.311</ele>
        <time>2021-06-13T14:32:45Z</time>
      </trkpt>
      <trkpt lat="42.69741" lon="1.65511">
        <ele>1356.307</ele>
        <time>2021-06-13T14:32:47Z</time>
      </trkpt>
      <trkpt lat="42.6974" lon="1.6551">
        <ele>1356.297</ele>
        <time>2021-06-13T14:32:49Z</time>
      </trkpt>
      <trkpt lat="42.69739" lon="1.65509">
        <ele>1356.612</ele>
        <time>2021-06-13T14:32:51Z</time>
      </trkpt>
      <trkpt lat="42.69738" lon="1.65508">
        <ele>1356.398</ele>
        <time>2021-06-13T14:32:53Z</time>
      </trkpt>
      <trkpt lat="42.69739" lon="1.65508">
        <ele>1357.393</ele>
        <time>2021-06-13T14:32:55Z</time>
      </trkpt>
      <trkpt lat="42.69741" lon="1.65509">
        <ele>1357.3</ele>
        <time>2021-06-13T14:32:57Z</time>
      </trkpt>
      <trkpt lat="42.69742" lon="1.65509">
        <ele>1357.323</ele>
        <time>2021-06-13T14:32:59Z</time>
      </trkpt>
      <trkpt lat="42.69742" lon="1.6551">
        <ele>1356.832</ele>
        <time>2021-06-13T14:33:01Z</time>
      </trkpt>
      <trkpt lat="42.69742" lon="1.6551">
        <ele>1357.041</ele>
        <time>2021-06-13T14:33:03Z</time>
      </trkpt>
      <trkpt lat="42.69743" lon="1.65509">
        <ele>1356.966</ele>
        <time>2021-06-13T14:33:05Z</time>
      </trkpt>
      <trkpt lat="42.69743" lon="1.65511">
        <ele>1354.891</ele>
        <time>2021-06-13T14:33:07Z</time>
      </trkpt>
      <trkpt lat="42.69744" lon="1.65513">
        <ele>1354.206</ele>
        <time>2021-06-13T14:33:09Z</time>
      </trkpt>
      <trkpt lat="42.69746" lon="1.65515">
        <ele>1354.336</ele>
        <time>2021-06-13T14:33:11Z</time>
      </trkpt>
      <trkpt lat="42.69748" lon="1.65516">
        <ele>1353.665</ele>
        <time>2021-06-13T14:33:13Z</time>
      </trkpt>
      <trkpt lat="42.69749" lon="1.65518">
        <ele>1353.925</ele>
        <time>2021-06-13T14:33:15Z</time>
      </trkpt>
      <trkpt lat="42.69751" lon="1.65519">
        <ele>1354.666</ele>
        <time>2021-06-13T14:33:17Z</time>
      </trkpt>
      <trkpt lat="42.69752" lon="1.65521">
        <ele>1355.005</ele>
        <time>2021-06-13T14:33:19Z</time>
      </trkpt>
      <trkpt lat="42.69754" lon="1.65522">
        <ele>1355.008</ele>
        <time>2021-06-13T14:33:21Z</time>
      </trkpt>
      <trkpt lat="42.69756" lon="1.65522">
        <ele>1353.647</ele>
        <time>2021-06-13T14:33:23Z</time>
      </trkpt>
      <trkpt lat="42.69758" lon="1.65522">
        <ele>1351.898</ele>
        <time>2021-06-13T14:33:25Z</time>
      </trkpt>
      <trkpt lat="42.69761" lon="1.65521">
        <ele>1352.381</ele>
        <time>2021-06-13T14:33:27Z</time>
      </trkpt>
      <trkpt lat="42.69761" lon="1.6552">
        <ele>1346.765</ele>
        <time>2021-06-13T14:33:29Z</time>
      </trkpt>
      <trkpt lat="42.69759" lon="1.65516">
        <ele>1345.026</ele>
        <time>2021-06-13T14:33:31Z</time>
      </trkpt>
      <trkpt lat="42.69757" lon="1.65513">
        <ele>1343.412</ele>
        <time>2021-06-13T14:33:33Z</time>
      </trkpt>
      <trkpt lat="42.69754" lon="1.6551">
        <ele>1341.978</ele>
        <time>2021-06-13T14:33:35Z</time>
      </trkpt>
      <trkpt lat="42.69754" lon="1.65507">
        <ele>1340.95</ele>
        <time>2021-06-13T14:33:37Z</time>
      </trkpt>
      <trkpt lat="42.69753" lon="1.65505">
        <ele>1341.156</ele>
        <time>2021-06-13T14:33:39Z</time>
      </trkpt>
      <trkpt lat="42.69752" lon="1.65503">
        <ele>1338.912</ele>
        <time>2021-06-13T14:33:41Z</time>
      </trkpt>
      <trkpt lat="42.6975" lon="1.65502">
        <ele>1338.244</ele>
        <time>2021-06-13T14:33:43Z</time>
      </trkpt>
      <trkpt lat="42.69748" lon="1.65499">
        <ele>1338.335</ele>
        <time>2021-06-13T14:33:45Z</time>
      </trkpt>
      <trkpt lat="42.69747" lon="1.65496">
        <ele>1338.394</ele>
        <time>2021-06-13T14:33:47Z</time>
      </trkpt>
      <trkpt lat="42.69747" lon="1.65494">
        <ele>1338.113</ele>
        <time>2021-06-13T14:33:49Z</time>
      </trkpt>
      <trkpt lat="42.69747" lon="1.65491">
        <ele>1338.848</ele>
        <time>2021-06-13T14:33:51Z</time>
      </trkpt>
      <trkpt lat="42.69748" lon="1.65491">
        <ele>1338.975</ele>
        <time>2021-06-13T14:33:53Z</time>
      </trkpt>
      <trkpt lat="42.69748" lon="1.6549">
        <ele>1338.811</ele>
        <time>2021-06-13T14:33:55Z</time>
      </trkpt>
      <trkpt lat="42.69748" lon="1.6549">
        <ele>1338.834</ele>
        <time>2021-06-13T14:33:57Z</time>
      </trkpt>
      <trkpt lat="42.69748" lon="1.6549">
        <ele>1338.848</ele>
        <time>2021-06-13T14:33:59Z</time>
      </trkpt>
      <trkpt lat="42.69748" lon="1.6549">
        <ele>1338.871</ele>
        <time>2021-06-13T14:34:01Z</time>
      </trkpt>
      <trkpt lat="42.69748" lon="1.6549">
        <ele>1338.891</ele>
        <time>2021-06-13T14:34:03Z</time>
      </trkpt>
      <trkpt lat="42.69748" lon="1.6549">
        <ele>1338.877</ele>
        <time>2021-06-13T14:34:05Z</time>
      </trkpt>
      <trkpt lat="42.69748" lon="1.6549">
        <ele>1338.531</ele>
        <time>2021-06-13T14:34:07Z</time>
      </trkpt>
      <trkpt lat="42.6975" lon="1.65489">
        <ele>1337.42</ele>
        <time>2021-06-13T14:34:09Z</time>
      </trkpt>
      <trkpt lat="42.69751" lon="1.65488">
        <ele>1334.661</ele>
        <time>2021-06-13T14:34:11Z</time>
      </trkpt>
      <trkpt lat="42.69753" lon="1.65486">
        <ele>1334.06</ele>
        <time>2021-06-13T14:34:13Z</time>
      </trkpt>
      <trkpt lat="42.69753" lon="1.65485">
        <ele>1333.181</ele>
        <time>2021-06-13T14:34:15Z</time>
      </trkpt>
      <trkpt lat="42.69754" lon="1.65484">
        <ele>1332.192</ele>
        <time>2021-06-13T14:34:17Z</time>
      </trkpt>
      <trkpt lat="42.69754" lon="1.65482">
        <ele>1331.25</ele>
        <time>2021-06-13T14:34:19Z</time>
      </trkpt>
      <trkpt lat="42.69751" lon="1.65482">
        <ele>1331.891</ele>
        <time>2021-06-13T14:34:21Z</time>
      </trkpt>
      <trkpt lat="42.6975" lon="1.65482">
        <ele>1331.881</ele>
        <time>2021-06-13T14:34:23Z</time>
      </trkpt>
      <trkpt lat="42.69748" lon="1.65478">
        <ele>1331.466</ele>
        <time>2021-06-13T14:34:25Z</time>
      </trkpt>
      <trkpt lat="42.6975" lon="1.65472">
        <ele>1330.781</ele>
        <time>2021-06-13T14:34:27Z</time>
      </trkpt>
      <trkpt lat="42.69754" lon="1.65477">
        <ele>1331.346</ele>
        <time>2021-06-13T14:34:29Z</time>
      </trkpt>
      <trkpt lat="42.69754" lon="1.65478">
        <ele>1331.374</ele>
        <time>2021-06-13T14:34:31Z</time>
      </trkpt>
      <trkpt lat="42.69754" lon="1.65478">
        <ele>1331.381</ele>
        <time>2021-06-13T14:34:33Z</time>
      </trkpt>
      <trkpt lat="42.69754" lon="1.6548">
        <ele>1332.091</ele>
        <time>2021-06-13T14:34:35Z</time>
      </trkpt>
      <trkpt lat="42.69756" lon="1.65481">
        <ele>1331.803</ele>
        <time>2021-06-13T14:34:37Z</time>
      </trkpt>
      <trkpt lat="42.69758" lon="1.65482">
        <ele>1331.958</ele>
        <time>2021-06-13T14:34:39Z</time>
      </trkpt>
      <trkpt lat="42.69759" lon="1.65484">
        <ele>1331.937</ele>
        <time>2021-06-13T14:34:41Z</time>
      </trkpt>
      <trkpt lat="42.69759" lon="1.65484">
        <ele>1332.043</ele>
        <time>2021-06-13T14:34:42Z</time>
      </trkpt>
      <trkpt lat="42.69759" lon="1.65484">
        <ele>1332.34</ele>
        <time>2021-06-13T14:34:48Z</time>
      </trkpt>
      <trkpt lat="42.69759" lon="1.65484">
        <ele>1332.363</ele>
        <time>2021-06-13T14:34:50Z</time>
      </trkpt>
      <trkpt lat="42.69759" lon="1.65484">
        <ele>1332.367</ele>
        <time>2021-06-13T14:34:52Z</time>
      </trkpt>
      <trkpt lat="42.69759" lon="1.65484">
        <ele>1333.55</ele>
        <time>2021-06-13T14:34:54Z</time>
      </trkpt>
      <trkpt lat="42.69759" lon="1.65484">
        <ele>1333.04</ele>
        <time>2021-06-13T14:34:56Z</time>
      </trkpt>
      <trkpt lat="42.69758" lon="1.65484">
        <ele>1332.975</ele>
        <time>2021-06-13T14:34:58Z</time>
      </trkpt>
      <trkpt lat="42.69758" lon="1.65484">
        <ele>1333.578</ele>
        <time>2021-06-13T14:35:00Z</time>
      </trkpt>
      <trkpt lat="42.69758" lon="1.65484">
        <ele>1333.652</ele>
        <time>2021-06-13T14:35:02Z</time>
      </trkpt>
      <trkpt lat="42.69758" lon="1.65484">
        <ele>1333.658</ele>
        <time>2021-06-13T14:35:04Z</time>
      </trkpt>
      <trkpt lat="42.69758" lon="1.65484">
        <ele>1334.356</ele>
        <time>2021-06-13T14:35:06Z</time>
      </trkpt>
      <trkpt lat="42.69758" lon="1.65484">
        <ele>1334.645</ele>
        <time>2021-06-13T14:35:08Z</time>
      </trkpt>
      <trkpt lat="42.69758" lon="1.65484">
        <ele>1335.244</ele>
        <time>2021-06-13T14:35:10Z</time>
      </trkpt>
      <trkpt lat="42.69758" lon="1.65483">
        <ele>1335.379</ele>
        <time>2021-06-13T14:35:12Z</time>
      </trkpt>
      <trkpt lat="42.69759" lon="1.65482">
        <ele>1334.866</ele>
        <time>2021-06-13T14:35:14Z</time>
      </trkpt>
      <trkpt lat="42.69761" lon="1.6548">
        <ele>1334.669</ele>
        <time>2021-06-13T14:35:16Z</time>
      </trkpt>
      <trkpt lat="42.69763" lon="1.65483">
        <ele>1335.486</ele>
        <time>2021-06-13T14:35:18Z</time>
      </trkpt>
      <trkpt lat="42.69764" lon="1.65484">
        <ele>1336.021</ele>
        <time>2021-06-13T14:35:20Z</time>
      </trkpt>
      <trkpt lat="42.69766" lon="1.65484">
        <ele>1336.938</ele>
        <time>2021-06-13T14:35:22Z</time>
      </trkpt>
      <trkpt lat="42.69767" lon="1.65485">
        <ele>1337.19</ele>
        <time>2021-06-13T14:35:24Z</time>
      </trkpt>
      <trkpt lat="42.69769" lon="1.65486">
        <ele>1337.078</ele>
        <time>2021-06-13T14:35:26Z</time>
      </trkpt>
      <trkpt lat="42.6977" lon="1.65485">
        <ele>1336.21</ele>
        <time>2021-06-13T14:35:28Z</time>
      </trkpt>
      <trkpt lat="42.69772" lon="1.65484">
        <ele>1334.765</ele>
        <time>2021-06-13T14:35:30Z</time>
      </trkpt>
      <trkpt lat="42.69775" lon="1.65486">
        <ele>1334.188</ele>
        <time>2021-06-13T14:35:32Z</time>
      </trkpt>
      <trkpt lat="42.69777" lon="1.65486">
        <ele>1335.016</ele>
        <time>2021-06-13T14:35:34Z</time>
      </trkpt>
      <trkpt lat="42.6978" lon="1.65486">
        <ele>1335.931</ele>
        <time>2021-06-13T14:35:36Z</time>
      </trkpt>
      <trkpt lat="42.69781" lon="1.65486">
        <ele>1337.347</ele>
        <time>2021-06-13T14:35:38Z</time>
      </trkpt>
      <trkpt lat="42.69783" lon="1.65486">
        <ele>1340.812</ele>
        <time>2021-06-13T14:35:40Z</time>
      </trkpt>
      <trkpt lat="42.69786" lon="1.65487">
        <ele>1342.373</ele>
        <time>2021-06-13T14:35:42Z</time>
      </trkpt>
      <trkpt lat="42.69787" lon="1.65487">
        <ele>1343.59</ele>
        <time>2021-06-13T14:35:44Z</time>
      </trkpt>
      <trkpt lat="42.69788" lon="1.65487">
        <ele>1342.799</ele>
        <time>2021-06-13T14:35:46Z</time>
      </trkpt>
      <trkpt lat="42.6979" lon="1.65487">
        <ele>1343.73</ele>
        <time>2021-06-13T14:35:48Z</time>
      </trkpt>
      <trkpt lat="42.69792" lon="1.65488">
        <ele>1343.311</ele>
        <time>2021-06-13T14:35:50Z</time>
      </trkpt>
      <trkpt lat="42.69793" lon="1.65489">
        <ele>1344.24</ele>
        <time>2021-06-13T14:35:52Z</time>
      </trkpt>
      <trkpt lat="42.69795" lon="1.6549">
        <ele>1345.895</ele>
        <time>2021-06-13T14:35:54Z</time>
      </trkpt>
      <trkpt lat="42.69798" lon="1.6549">
        <ele>1346.128</ele>
        <time>2021-06-13T14:35:56Z</time>
      </trkpt>
      <trkpt lat="42.69799" lon="1.6549">
        <ele>1345.717</ele>
        <time>2021-06-13T14:35:58Z</time>
      </trkpt>
      <trkpt lat="42.69801" lon="1.65491">
        <ele>1344.895</ele>
        <time>2021-06-13T14:36:00Z</time>
      </trkpt>
      <trkpt lat="42.69802" lon="1.65491">
        <ele>1344.624</ele>
        <time>2021-06-13T14:36:02Z</time>
      </trkpt>
      <trkpt lat="42.69804" lon="1.65491">
        <ele>1345.801</ele>
        <time>2021-06-13T14:36:04Z</time>
      </trkpt>
      <trkpt lat="42.69806" lon="1.65492">
        <ele>1345.519</ele>
        <time>2021-06-13T14:36:06Z</time>
      </trkpt>
      <trkpt lat="42.69808" lon="1.65493">
        <ele>1345.422</ele>
        <time>2021-06-13T14:36:08Z</time>
      </trkpt>
      <trkpt lat="42.69809" lon="1.65496">
        <ele>1346.363</ele>
        <time>2021-06-13T14:36:10Z</time>
      </trkpt>
      <trkpt lat="42.69811" lon="1.65495">
        <ele>1346.439</ele>
        <time>2021-06-13T14:36:12Z</time>
      </trkpt>
      <trkpt lat="42.69813" lon="1.65494">
        <ele>1344.387</ele>
        <time>2021-06-13T14:36:14Z</time>
      </trkpt>
      <trkpt lat="42.69813" lon="1.65495">
        <ele>1345.528</ele>
        <time>2021-06-13T14:36:16Z</time>
      </trkpt>
      <trkpt lat="42.69815" lon="1.65496">
        <ele>1347.115</ele>
        <time>2021-06-13T14:36:18Z</time>
      </trkpt>
      <trkpt lat="42.69815" lon="1.65496">
        <ele>1347.201</ele>
        <time>2021-06-13T14:36:20Z</time>
      </trkpt>
      <trkpt lat="42.69816" lon="1.65497">
        <ele>1347.354</ele>
        <time>2021-06-13T14:36:22Z</time>
      </trkpt>
      <trkpt lat="42.69818" lon="1.65498">
        <ele>1347.825</ele>
        <time>2021-06-13T14:36:24Z</time>
      </trkpt>
      <trkpt lat="42.69819" lon="1.65498">
        <ele>1350.062</ele>
        <time>2021-06-13T14:36:26Z</time>
      </trkpt>
      <trkpt lat="42.6982" lon="1.65499">
        <ele>1349.511</ele>
        <time>2021-06-13T14:36:28Z</time>
      </trkpt>
      <trkpt lat="42.69821" lon="1.655">
        <ele>1350.114</ele>
        <time>2021-06-13T14:36:30Z</time>
      </trkpt>
      <trkpt lat="42.69822" lon="1.65501">
        <ele>1348.74</ele>
        <time>2021-06-13T14:36:32Z</time>
      </trkpt>
      <trkpt lat="42.69823" lon="1.65502">
        <ele>1348.366</ele>
        <time>2021-06-13T14:36:34Z</time>
      </trkpt>
      <trkpt lat="42.69824" lon="1.65502">
        <ele>1349.306</ele>
        <time>2021-06-13T14:36:36Z</time>
      </trkpt>
      <trkpt lat="42.69826" lon="1.65504">
        <ele>1350.657</ele>
        <time>2021-06-13T14:36:38Z</time>
      </trkpt>
      <trkpt lat="42.69828" lon="1.65504">
        <ele>1349.945</ele>
        <time>2021-06-13T14:36:40Z</time>
      </trkpt>
      <trkpt lat="42.6983" lon="1.65504">
        <ele>1349.419</ele>
        <time>2021-06-13T14:36:42Z</time>
      </trkpt>
      <trkpt lat="42.69831" lon="1.65506">
        <ele>1349.899</ele>
        <time>2021-06-13T14:36:44Z</time>
      </trkpt>
      <trkpt lat="42.69832" lon="1.65508">
        <ele>1351.545</ele>
        <time>2021-06-13T14:36:46Z</time>
      </trkpt>
      <trkpt lat="42.69834" lon="1.65508">
        <ele>1354.131</ele>
        <time>2021-06-13T14:36:48Z</time>
      </trkpt>
      <trkpt lat="42.69836" lon="1.65507">
        <ele>1353.925</ele>
        <time>2021-06-13T14:36:50Z</time>
      </trkpt>
      <trkpt lat="42.69837" lon="1.65509">
        <ele>1354.665</ele>
        <time>2021-06-13T14:36:52Z</time>
      </trkpt>
      <trkpt lat="42.69838" lon="1.65511">
        <ele>1355.497</ele>
        <time>2021-06-13T14:36:54Z</time>
      </trkpt>
      <trkpt lat="42.69839" lon="1.65512">
        <ele>1356.051</ele>
        <time>2021-06-13T14:36:56Z</time>
      </trkpt>
      <trkpt lat="42.69841" lon="1.65513">
        <ele>1355.506</ele>
        <time>2021-06-13T14:36:58Z</time>
      </trkpt>
      <trkpt lat="42.69841" lon="1.65513">
        <ele>1353.973</ele>
        <time>2021-06-13T14:37:00Z</time>
      </trkpt>
      <trkpt lat="42.69842" lon="1.65515">
        <ele>1353.81</ele>
        <time>2021-06-13T14:37:02Z</time>
      </trkpt>
      <trkpt lat="42.69843" lon="1.65517">
        <ele>1354.365</ele>
        <time>2021-06-13T14:37:04Z</time>
      </trkpt>
      <trkpt lat="42.69843" lon="1.65518">
        <ele>1353.808</ele>
        <time>2021-06-13T14:37:06Z</time>
      </trkpt>
      <trkpt lat="42.69843" lon="1.65519">
        <ele>1353.399</ele>
        <time>2021-06-13T14:37:08Z</time>
      </trkpt>
      <trkpt lat="42.69844" lon="1.6552">
        <ele>1353.558</ele>
        <time>2021-06-13T14:37:10Z</time>
      </trkpt>
      <trkpt lat="42.69845" lon="1.65522">
        <ele>1355.438</ele>
        <time>2021-06-13T14:37:12Z</time>
      </trkpt>
      <trkpt lat="42.69845" lon="1.65523">
        <ele>1355.426</ele>
        <time>2021-06-13T14:37:14Z</time>
      </trkpt>
      <trkpt lat="42.69846" lon="1.65523">
        <ele>1356.108</ele>
        <time>2021-06-13T14:37:16Z</time>
      </trkpt>
      <trkpt lat="42.69848" lon="1.65524">
        <ele>1356.11</ele>
        <time>2021-06-13T14:37:18Z</time>
      </trkpt>
      <trkpt lat="42.69849" lon="1.65524">
        <ele>1356.172</ele>
        <time>2021-06-13T14:37:20Z</time>
      </trkpt>
      <trkpt lat="42.6985" lon="1.65526">
        <ele>1356.035</ele>
        <time>2021-06-13T14:37:22Z</time>
      </trkpt>
      <trkpt lat="42.69852" lon="1.65527">
        <ele>1355.298</ele>
        <time>2021-06-13T14:37:24Z</time>
      </trkpt>
      <trkpt lat="42.69853" lon="1.65529">
        <ele>1356</ele>
        <time>2021-06-13T14:37:26Z</time>
      </trkpt>
      <trkpt lat="42.69854" lon="1.6553">
        <ele>1357.874</ele>
        <time>2021-06-13T14:37:28Z</time>
      </trkpt>
      <trkpt lat="42.69856" lon="1.65531">
        <ele>1359.42</ele>
        <time>2021-06-13T14:37:30Z</time>
      </trkpt>
      <trkpt lat="42.69857" lon="1.65533">
        <ele>1359.943</ele>
        <time>2021-06-13T14:37:32Z</time>
      </trkpt>
      <trkpt lat="42.69858" lon="1.65534">
        <ele>1359.057</ele>
        <time>2021-06-13T14:37:34Z</time>
      </trkpt>
      <trkpt lat="42.69859" lon="1.65535">
        <ele>1360.036</ele>
        <time>2021-06-13T14:37:36Z</time>
      </trkpt>
      <trkpt lat="42.6986" lon="1.65535">
        <ele>1359.754</ele>
        <time>2021-06-13T14:37:38Z</time>
      </trkpt>
      <trkpt lat="42.69861" lon="1.65536">
        <ele>1359.302</ele>
        <time>2021-06-13T14:37:40Z</time>
      </trkpt>
      <trkpt lat="42.69862" lon="1.65536">
        <ele>1359.337</ele>
        <time>2021-06-13T14:37:42Z</time>
      </trkpt>
      <trkpt lat="42.69863" lon="1.65537">
        <ele>1358.604</ele>
        <time>2021-06-13T14:37:44Z</time>
      </trkpt>
      <trkpt lat="42.69863" lon="1.65538">
        <ele>1358.744</ele>
        <time>2021-06-13T14:37:46Z</time>
      </trkpt>
      <trkpt lat="42.69863" lon="1.6554">
        <ele>1360.062</ele>
        <time>2021-06-13T14:37:48Z</time>
      </trkpt>
      <trkpt lat="42.69863" lon="1.65541">
        <ele>1360.545</ele>
        <time>2021-06-13T14:37:50Z</time>
      </trkpt>
      <trkpt lat="42.69864" lon="1.65543">
        <ele>1360.421</ele>
        <time>2021-06-13T14:37:52Z</time>
      </trkpt>
      <trkpt lat="42.69865" lon="1.65544">
        <ele>1361.2</ele>
        <time>2021-06-13T14:37:54Z</time>
      </trkpt>
      <trkpt lat="42.69866" lon="1.65544">
        <ele>1362.328</ele>
        <time>2021-06-13T14:37:56Z</time>
      </trkpt>
      <trkpt lat="42.69866" lon="1.65546">
        <ele>1361.828</ele>
        <time>2021-06-13T14:37:58Z</time>
      </trkpt>
      <trkpt lat="42.69867" lon="1.65547">
        <ele>1362.645</ele>
        <time>2021-06-13T14:38:00Z</time>
      </trkpt>
      <trkpt lat="42.69868" lon="1.65548">
        <ele>1360.85</ele>
        <time>2021-06-13T14:38:02Z</time>
      </trkpt>
      <trkpt lat="42.69867" lon="1.65548">
        <ele>1361.468</ele>
        <time>2021-06-13T14:38:04Z</time>
      </trkpt>
      <trkpt lat="42.69868" lon="1.65549">
        <ele>1362.956</ele>
        <time>2021-06-13T14:38:06Z</time>
      </trkpt>
      <trkpt lat="42.69868" lon="1.6555">
        <ele>1362.792</ele>
        <time>2021-06-13T14:38:08Z</time>
      </trkpt>
      <trkpt lat="42.69868" lon="1.6555">
        <ele>1363.703</ele>
        <time>2021-06-13T14:38:10Z</time>
      </trkpt>
      <trkpt lat="42.69869" lon="1.6555">
        <ele>1363.454</ele>
        <time>2021-06-13T14:38:12Z</time>
      </trkpt>
      <trkpt lat="42.69869" lon="1.65552">
        <ele>1363.399</ele>
        <time>2021-06-13T14:38:14Z</time>
      </trkpt>
      <trkpt lat="42.69869" lon="1.65552">
        <ele>1364.251</ele>
        <time>2021-06-13T14:38:16Z</time>
      </trkpt>
      <trkpt lat="42.6987" lon="1.65553">
        <ele>1365.209</ele>
        <time>2021-06-13T14:38:18Z</time>
      </trkpt>
      <trkpt lat="42.6987" lon="1.65551">
        <ele>1366.589</ele>
        <time>2021-06-13T14:38:20Z</time>
      </trkpt>
      <trkpt lat="42.69871" lon="1.6555">
        <ele>1366.891</ele>
        <time>2021-06-13T14:38:22Z</time>
      </trkpt>
      <trkpt lat="42.69871" lon="1.65549">
        <ele>1368.502</ele>
        <time>2021-06-13T14:38:24Z</time>
      </trkpt>
      <trkpt lat="42.69872" lon="1.65548">
        <ele>1370.347</ele>
        <time>2021-06-13T14:38:26Z</time>
      </trkpt>
      <trkpt lat="42.69872" lon="1.65548">
        <ele>1371.036</ele>
        <time>2021-06-13T14:38:28Z</time>
      </trkpt>
      <trkpt lat="42.69872" lon="1.65546">
        <ele>1369.699</ele>
        <time>2021-06-13T14:38:30Z</time>
      </trkpt>
      <trkpt lat="42.69872" lon="1.65544">
        <ele>1369.241</ele>
        <time>2021-06-13T14:38:32Z</time>
      </trkpt>
      <trkpt lat="42.69873" lon="1.65543">
        <ele>1369.513</ele>
        <time>2021-06-13T14:38:34Z</time>
      </trkpt>
      <trkpt lat="42.69875" lon="1.65543">
        <ele>1370.535</ele>
        <time>2021-06-13T14:38:36Z</time>
      </trkpt>
      <trkpt lat="42.69876" lon="1.65543">
        <ele>1369.769</ele>
        <time>2021-06-13T14:38:38Z</time>
      </trkpt>
      <trkpt lat="42.69877" lon="1.65544">
        <ele>1371.478</ele>
        <time>2021-06-13T14:38:40Z</time>
      </trkpt>
      <trkpt lat="42.69878" lon="1.65544">
        <ele>1372.48</ele>
        <time>2021-06-13T14:38:42Z</time>
      </trkpt>
      <trkpt lat="42.69879" lon="1.65545">
        <ele>1373.103</ele>
        <time>2021-06-13T14:38:44Z</time>
      </trkpt>
      <trkpt lat="42.69879" lon="1.65547">
        <ele>1373.597</ele>
        <time>2021-06-13T14:38:46Z</time>
      </trkpt>
      <trkpt lat="42.69879" lon="1.65549">
        <ele>1374.301</ele>
        <time>2021-06-13T14:38:48Z</time>
      </trkpt>
      <trkpt lat="42.6988" lon="1.6555">
        <ele>1374.872</ele>
        <time>2021-06-13T14:38:50Z</time>
      </trkpt>
      <trkpt lat="42.69881" lon="1.65551">
        <ele>1375.853</ele>
        <time>2021-06-13T14:38:52Z</time>
      </trkpt>
      <trkpt lat="42.69881" lon="1.65553">
        <ele>1375.384</ele>
        <time>2021-06-13T14:38:54Z</time>
      </trkpt>
      <trkpt lat="42.69881" lon="1.65554">
        <ele>1373.859</ele>
        <time>2021-06-13T14:38:56Z</time>
      </trkpt>
      <trkpt lat="42.69881" lon="1.65555">
        <ele>1373.025</ele>
        <time>2021-06-13T14:38:58Z</time>
      </trkpt>
      <trkpt lat="42.69882" lon="1.65557">
        <ele>1374.535</ele>
        <time>2021-06-13T14:39:00Z</time>
      </trkpt>
      <trkpt lat="42.69882" lon="1.65559">
        <ele>1376.335</ele>
        <time>2021-06-13T14:39:02Z</time>
      </trkpt>
      <trkpt lat="42.69882" lon="1.6556">
        <ele>1376.114</ele>
        <time>2021-06-13T14:39:04Z</time>
      </trkpt>
      <trkpt lat="42.69883" lon="1.65561">
        <ele>1376.762</ele>
        <time>2021-06-13T14:39:06Z</time>
      </trkpt>
      <trkpt lat="42.69884" lon="1.65562">
        <ele>1376.804</ele>
        <time>2021-06-13T14:39:08Z</time>
      </trkpt>
      <trkpt lat="42.69885" lon="1.65562">
        <ele>1377.379</ele>
        <time>2021-06-13T14:39:10Z</time>
      </trkpt>
      <trkpt lat="42.69886" lon="1.65562">
        <ele>1377.896</ele>
        <time>2021-06-13T14:39:12Z</time>
      </trkpt>
      <trkpt lat="42.69888" lon="1.65562">
        <ele>1378.723</ele>
        <time>2021-06-13T14:39:14Z</time>
      </trkpt>
      <trkpt lat="42.69888" lon="1.65564">
        <ele>1379.701</ele>
        <time>2021-06-13T14:39:16Z</time>
      </trkpt>
      <trkpt lat="42.69888" lon="1.65565">
        <ele>1381.059</ele>
        <time>2021-06-13T14:39:18Z</time>
      </trkpt>
      <trkpt lat="42.69889" lon="1.65566">
        <ele>1380.675</ele>
        <time>2021-06-13T14:39:20Z</time>
      </trkpt>
      <trkpt lat="42.6989" lon="1.65567">
        <ele>1381.041</ele>
        <time>2021-06-13T14:39:22Z</time>
      </trkpt>
      <trkpt lat="42.69891" lon="1.65568">
        <ele>1381.868</ele>
        <time>2021-06-13T14:39:24Z</time>
      </trkpt>
      <trkpt lat="42.69892" lon="1.65569">
        <ele>1381.378</ele>
        <time>2021-06-13T14:39:26Z</time>
      </trkpt>
      <trkpt lat="42.69893" lon="1.65571">
        <ele>1381.326</ele>
        <time>2021-06-13T14:39:28Z</time>
      </trkpt>
      <trkpt lat="42.69894" lon="1.65572">
        <ele>1382.309</ele>
        <time>2021-06-13T14:39:30Z</time>
      </trkpt>
      <trkpt lat="42.69896" lon="1.65573">
        <ele>1383.142</ele>
        <time>2021-06-13T14:39:32Z</time>
      </trkpt>
      <trkpt lat="42.69897" lon="1.65573">
        <ele>1384.403</ele>
        <time>2021-06-13T14:39:34Z</time>
      </trkpt>
      <trkpt lat="42.699" lon="1.65574">
        <ele>1386.897</ele>
        <time>2021-06-13T14:39:36Z</time>
      </trkpt>
      <trkpt lat="42.69902" lon="1.65575">
        <ele>1387.193</ele>
        <time>2021-06-13T14:39:38Z</time>
      </trkpt>
      <trkpt lat="42.69904" lon="1.65577">
        <ele>1388.422</ele>
        <time>2021-06-13T14:39:40Z</time>
      </trkpt>
      <trkpt lat="42.69906" lon="1.65578">
        <ele>1389.037</ele>
        <time>2021-06-13T14:39:42Z</time>
      </trkpt>
      <trkpt lat="42.69908" lon="1.6558">
        <ele>1389.992</ele>
        <time>2021-06-13T14:39:44Z</time>
      </trkpt>
      <trkpt lat="42.6991" lon="1.6558">
        <ele>1388.546</ele>
        <time>2021-06-13T14:39:46Z</time>
      </trkpt>
      <trkpt lat="42.69912" lon="1.65581">
        <ele>1388.722</ele>
        <time>2021-06-13T14:39:48Z</time>
      </trkpt>
      <trkpt lat="42.69913" lon="1.65582">
        <ele>1388.793</ele>
        <time>2021-06-13T14:39:50Z</time>
      </trkpt>
      <trkpt lat="42.69915" lon="1.65583">
        <ele>1388.934</ele>
        <time>2021-06-13T14:39:52Z</time>
      </trkpt>
      <trkpt lat="42.69917" lon="1.65584">
        <ele>1388.472</ele>
        <time>2021-06-13T14:39:54Z</time>
      </trkpt>
      <trkpt lat="42.69919" lon="1.65584">
        <ele>1388.9</ele>
        <time>2021-06-13T14:39:56Z</time>
      </trkpt>
      <trkpt lat="42.6992" lon="1.65585">
        <ele>1387.235</ele>
        <time>2021-06-13T14:39:58Z</time>
      </trkpt>
      <trkpt lat="42.6992" lon="1.65586">
        <ele>1386.421</ele>
        <time>2021-06-13T14:40:00Z</time>
      </trkpt>
      <trkpt lat="42.69922" lon="1.65587">
        <ele>1386.417</ele>
        <time>2021-06-13T14:40:02Z</time>
      </trkpt>
      <trkpt lat="42.69924" lon="1.65589">
        <ele>1385.52</ele>
        <time>2021-06-13T14:40:04Z</time>
      </trkpt>
      <trkpt lat="42.69926" lon="1.65591">
        <ele>1385.215</ele>
        <time>2021-06-13T14:40:06Z</time>
      </trkpt>
      <trkpt lat="42.69927" lon="1.65593">
        <ele>1385.063</ele>
        <time>2021-06-13T14:40:08Z</time>
      </trkpt>
      <trkpt lat="42.69929" lon="1.65593">
        <ele>1384.248</ele>
        <time>2021-06-13T14:40:10Z</time>
      </trkpt>
      <trkpt lat="42.69932" lon="1.65594">
        <ele>1384.585</ele>
        <time>2021-06-13T14:40:12Z</time>
      </trkpt>
      <trkpt lat="42.69934" lon="1.65596">
        <ele>1384.261</ele>
        <time>2021-06-13T14:40:14Z</time>
      </trkpt>
      <trkpt lat="42.69937" lon="1.65598">
        <ele>1385.27</ele>
        <time>2021-06-13T14:40:16Z</time>
      </trkpt>
      <trkpt lat="42.69939" lon="1.65599">
        <ele>1385.585</ele>
        <time>2021-06-13T14:40:18Z</time>
      </trkpt>
      <trkpt lat="42.69941" lon="1.656">
        <ele>1385.908</ele>
        <time>2021-06-13T14:40:20Z</time>
      </trkpt>
      <trkpt lat="42.69943" lon="1.65602">
        <ele>1386.967</ele>
        <time>2021-06-13T14:40:22Z</time>
      </trkpt>
      <trkpt lat="42.69945" lon="1.65602">
        <ele>1386.797</ele>
        <time>2021-06-13T14:40:24Z</time>
      </trkpt>
      <trkpt lat="42.69947" lon="1.65604">
        <ele>1387.903</ele>
        <time>2021-06-13T14:40:26Z</time>
      </trkpt>
      <trkpt lat="42.69949" lon="1.65606">
        <ele>1387.908</ele>
        <time>2021-06-13T14:40:28Z</time>
      </trkpt>
      <trkpt lat="42.69951" lon="1.65607">
        <ele>1389.257</ele>
        <time>2021-06-13T14:40:30Z</time>
      </trkpt>
      <trkpt lat="42.69952" lon="1.65609">
        <ele>1388.221</ele>
        <time>2021-06-13T14:40:32Z</time>
      </trkpt>
      <trkpt lat="42.69954" lon="1.6561">
        <ele>1386.609</ele>
        <time>2021-06-13T14:40:34Z</time>
      </trkpt>
      <trkpt lat="42.69956" lon="1.6561">
        <ele>1386.797</ele>
        <time>2021-06-13T14:40:36Z</time>
      </trkpt>
      <trkpt lat="42.69957" lon="1.65611">
        <ele>1386.688</ele>
        <time>2021-06-13T14:40:38Z</time>
      </trkpt>
      <trkpt lat="42.69958" lon="1.65613">
        <ele>1386.62</ele>
        <time>2021-06-13T14:40:40Z</time>
      </trkpt>
      <trkpt lat="42.6996" lon="1.65614">
        <ele>1386.222</ele>
        <time>2021-06-13T14:40:42Z</time>
      </trkpt>
      <trkpt lat="42.69962" lon="1.65614">
        <ele>1386.182</ele>
        <time>2021-06-13T14:40:44Z</time>
      </trkpt>
      <trkpt lat="42.69963" lon="1.65616">
        <ele>1385.205</ele>
        <time>2021-06-13T14:40:46Z</time>
      </trkpt>
      <trkpt lat="42.69965" lon="1.65618">
        <ele>1385.022</ele>
        <time>2021-06-13T14:40:48Z</time>
      </trkpt>
      <trkpt lat="42.69966" lon="1.6562">
        <ele>1386.092</ele>
        <time>2021-06-13T14:40:50Z</time>
      </trkpt>
      <trkpt lat="42.69968" lon="1.6562">
        <ele>1385.989</ele>
        <time>2021-06-13T14:40:52Z</time>
      </trkpt>
      <trkpt lat="42.6997" lon="1.65621">
        <ele>1384.705</ele>
        <time>2021-06-13T14:40:54Z</time>
      </trkpt>
      <trkpt lat="42.69973" lon="1.65622">
        <ele>1384.573</ele>
        <time>2021-06-13T14:40:56Z</time>
      </trkpt>
      <trkpt lat="42.69975" lon="1.65623">
        <ele>1384.451</ele>
        <time>2021-06-13T14:40:58Z</time>
      </trkpt>
      <trkpt lat="42.69978" lon="1.65624">
        <ele>1385.648</ele>
        <time>2021-06-13T14:41:00Z</time>
      </trkpt>
      <trkpt lat="42.69979" lon="1.65626">
        <ele>1385.327</ele>
        <time>2021-06-13T14:41:02Z</time>
      </trkpt>
      <trkpt lat="42.69981" lon="1.65627">
        <ele>1384.989</ele>
        <time>2021-06-13T14:41:04Z</time>
      </trkpt>
      <trkpt lat="42.69983" lon="1.65628">
        <ele>1384.777</ele>
        <time>2021-06-13T14:41:06Z</time>
      </trkpt>
      <trkpt lat="42.69984" lon="1.6563">
        <ele>1383.419</ele>
        <time>2021-06-13T14:41:08Z</time>
      </trkpt>
      <trkpt lat="42.69986" lon="1.65631">
        <ele>1383.098</ele>
        <time>2021-06-13T14:41:10Z</time>
      </trkpt>
      <trkpt lat="42.69988" lon="1.65632">
        <ele>1382.719</ele>
        <time>2021-06-13T14:41:12Z</time>
      </trkpt>
      <trkpt lat="42.6999" lon="1.65632">
        <ele>1382.989</ele>
        <time>2021-06-13T14:41:14Z</time>
      </trkpt>
      <trkpt lat="42.69992" lon="1.65632">
        <ele>1381.603</ele>
        <time>2021-06-13T14:41:16Z</time>
      </trkpt>
      <trkpt lat="42.69994" lon="1.65632">
        <ele>1381.4</ele>
        <time>2021-06-13T14:41:18Z</time>
      </trkpt>
      <trkpt lat="42.69996" lon="1.65633">
        <ele>1381.24</ele>
        <time>2021-06-13T14:41:20Z</time>
      </trkpt>
      <trkpt lat="42.69997" lon="1.65635">
        <ele>1379.989</ele>
        <time>2021-06-13T14:41:22Z</time>
      </trkpt>
      <trkpt lat="42.69998" lon="1.65638">
        <ele>1380.611</ele>
        <time>2021-06-13T14:41:24Z</time>
      </trkpt>
      <trkpt lat="42.7" lon="1.65639">
        <ele>1381.335</ele>
        <time>2021-06-13T14:41:26Z</time>
      </trkpt>
      <trkpt lat="42.70002" lon="1.6564">
        <ele>1383.292</ele>
        <time>2021-06-13T14:41:28Z</time>
      </trkpt>
      <trkpt lat="42.70004" lon="1.6564">
        <ele>1383.584</ele>
        <time>2021-06-13T14:41:30Z</time>
      </trkpt>
      <trkpt lat="42.70005" lon="1.6564">
        <ele>1383.28</ele>
        <time>2021-06-13T14:41:32Z</time>
      </trkpt>
      <trkpt lat="42.70006" lon="1.65642">
        <ele>1384.682</ele>
        <time>2021-06-13T14:41:34Z</time>
      </trkpt>
      <trkpt lat="42.70007" lon="1.65642">
        <ele>1384.87</ele>
        <time>2021-06-13T14:41:36Z</time>
      </trkpt>
      <trkpt lat="42.70008" lon="1.65643">
        <ele>1384.957</ele>
        <time>2021-06-13T14:41:38Z</time>
      </trkpt>
      <trkpt lat="42.7001" lon="1.65642">
        <ele>1384.255</ele>
        <time>2021-06-13T14:41:40Z</time>
      </trkpt>
      <trkpt lat="42.70011" lon="1.65643">
        <ele>1384.664</ele>
        <time>2021-06-13T14:41:42Z</time>
      </trkpt>
      <trkpt lat="42.70013" lon="1.65644">
        <ele>1384.258</ele>
        <time>2021-06-13T14:41:44Z</time>
      </trkpt>
      <trkpt lat="42.70014" lon="1.65644">
        <ele>1383.178</ele>
        <time>2021-06-13T14:41:46Z</time>
      </trkpt>
      <trkpt lat="42.70016" lon="1.65645">
        <ele>1382.768</ele>
        <time>2021-06-13T14:41:48Z</time>
      </trkpt>
      <trkpt lat="42.70017" lon="1.65647">
        <ele>1382.861</ele>
        <time>2021-06-13T14:41:50Z</time>
      </trkpt>
      <trkpt lat="42.70019" lon="1.65649">
        <ele>1384.347</ele>
        <time>2021-06-13T14:41:52Z</time>
      </trkpt>
      <trkpt lat="42.7002" lon="1.65648">
        <ele>1385.241</ele>
        <time>2021-06-13T14:41:54Z</time>
      </trkpt>
      <trkpt lat="42.70022" lon="1.65647">
        <ele>1384.587</ele>
        <time>2021-06-13T14:41:56Z</time>
      </trkpt>
      <trkpt lat="42.70025" lon="1.65647">
        <ele>1384.404</ele>
        <time>2021-06-13T14:41:58Z</time>
      </trkpt>
      <trkpt lat="42.70027" lon="1.65646">
        <ele>1384.717</ele>
        <time>2021-06-13T14:42:00Z</time>
      </trkpt>
      <trkpt lat="42.70028" lon="1.65647">
        <ele>1382.915</ele>
        <time>2021-06-13T14:42:02Z</time>
      </trkpt>
      <trkpt lat="42.7003" lon="1.65647">
        <ele>1381.18</ele>
        <time>2021-06-13T14:42:04Z</time>
      </trkpt>
      <trkpt lat="42.70032" lon="1.65647">
        <ele>1380.651</ele>
        <time>2021-06-13T14:42:06Z</time>
      </trkpt>
      <trkpt lat="42.70034" lon="1.65648">
        <ele>1379.521</ele>
        <time>2021-06-13T14:42:08Z</time>
      </trkpt>
      <trkpt lat="42.70035" lon="1.65648">
        <ele>1377.016</ele>
        <time>2021-06-13T14:42:10Z</time>
      </trkpt>
      <trkpt lat="42.70037" lon="1.65649">
        <ele>1376.068</ele>
        <time>2021-06-13T14:42:12Z</time>
      </trkpt>
      <trkpt lat="42.70039" lon="1.6565">
        <ele>1375.25</ele>
        <time>2021-06-13T14:42:14Z</time>
      </trkpt>
      <trkpt lat="42.70041" lon="1.65651">
        <ele>1374.881</ele>
        <time>2021-06-13T14:42:16Z</time>
      </trkpt>
      <trkpt lat="42.70042" lon="1.65652">
        <ele>1374.454</ele>
        <time>2021-06-13T14:42:18Z</time>
      </trkpt>
      <trkpt lat="42.70044" lon="1.65652">
        <ele>1374.349</ele>
        <time>2021-06-13T14:42:20Z</time>
      </trkpt>
      <trkpt lat="42.70045" lon="1.65654">
        <ele>1373.605</ele>
        <time>2021-06-13T14:42:22Z</time>
      </trkpt>
      <trkpt lat="42.70046" lon="1.65655">
        <ele>1373.573</ele>
        <time>2021-06-13T14:42:24Z</time>
      </trkpt>
      <trkpt lat="42.70047" lon="1.65657">
        <ele>1372.44</ele>
        <time>2021-06-13T14:42:26Z</time>
      </trkpt>
      <trkpt lat="42.70049" lon="1.65658">
        <ele>1372.021</ele>
        <time>2021-06-13T14:42:28Z</time>
      </trkpt>
      <trkpt lat="42.70051" lon="1.6566">
        <ele>1371.489</ele>
        <time>2021-06-13T14:42:30Z</time>
      </trkpt>
      <trkpt lat="42.70054" lon="1.65661">
        <ele>1370.075</ele>
        <time>2021-06-13T14:42:32Z</time>
      </trkpt>
      <trkpt lat="42.70055" lon="1.65662">
        <ele>1369.001</ele>
        <time>2021-06-13T14:42:34Z</time>
      </trkpt>
      <trkpt lat="42.70056" lon="1.65663">
        <ele>1368.167</ele>
        <time>2021-06-13T14:42:36Z</time>
      </trkpt>
      <trkpt lat="42.70057" lon="1.65665">
        <ele>1367.883</ele>
        <time>2021-06-13T14:42:38Z</time>
      </trkpt>
      <trkpt lat="42.70059" lon="1.65666">
        <ele>1368.9</ele>
        <time>2021-06-13T14:42:40Z</time>
      </trkpt>
      <trkpt lat="42.70061" lon="1.65667">
        <ele>1368.188</ele>
        <time>2021-06-13T14:42:42Z</time>
      </trkpt>
      <trkpt lat="42.70064" lon="1.65668">
        <ele>1368.877</ele>
        <time>2021-06-13T14:42:44Z</time>
      </trkpt>
      <trkpt lat="42.70065" lon="1.6567">
        <ele>1369.152</ele>
        <time>2021-06-13T14:42:46Z</time>
      </trkpt>
      <trkpt lat="42.70067" lon="1.65671">
        <ele>1369.1</ele>
        <time>2021-06-13T14:42:48Z</time>
      </trkpt>
      <trkpt lat="42.70068" lon="1.65673">
        <ele>1369.334</ele>
        <time>2021-06-13T14:42:50Z</time>
      </trkpt>
      <trkpt lat="42.70069" lon="1.65675">
        <ele>1369.946</ele>
        <time>2021-06-13T14:42:52Z</time>
      </trkpt>
      <trkpt lat="42.70072" lon="1.65675">
        <ele>1368.898</ele>
        <time>2021-06-13T14:42:54Z</time>
      </trkpt>
      <trkpt lat="42.70073" lon="1.65676">
        <ele>1367.878</ele>
        <time>2021-06-13T14:42:56Z</time>
      </trkpt>
      <trkpt lat="42.70076" lon="1.65677">
        <ele>1368.927</ele>
        <time>2021-06-13T14:42:58Z</time>
      </trkpt>
      <trkpt lat="42.70077" lon="1.65678">
        <ele>1365.757</ele>
        <time>2021-06-13T14:43:00Z</time>
      </trkpt>
      <trkpt lat="42.70078" lon="1.6568">
        <ele>1363.818</ele>
        <time>2021-06-13T14:43:02Z</time>
      </trkpt>
      <trkpt lat="42.7008" lon="1.65681">
        <ele>1362.827</ele>
        <time>2021-06-13T14:43:04Z</time>
      </trkpt>
      <trkpt lat="42.7008" lon="1.65683">
        <ele>1360.546</ele>
        <time>2021-06-13T14:43:06Z</time>
      </trkpt>
      <trkpt lat="42.70081" lon="1.65685">
        <ele>1359.168</ele>
        <time>2021-06-13T14:43:08Z</time>
      </trkpt>
      <trkpt lat="42.70082" lon="1.65688">
        <ele>1357.804</ele>
        <time>2021-06-13T14:43:10Z</time>
      </trkpt>
      <trkpt lat="42.70084" lon="1.6569">
        <ele>1357.102</ele>
        <time>2021-06-13T14:43:12Z</time>
      </trkpt>
      <trkpt lat="42.70085" lon="1.65692">
        <ele>1354.127</ele>
        <time>2021-06-13T14:43:14Z</time>
      </trkpt>
      <trkpt lat="42.70086" lon="1.65694">
        <ele>1354.487</ele>
        <time>2021-06-13T14:43:16Z</time>
      </trkpt>
      <trkpt lat="42.70088" lon="1.65696">
        <ele>1354.258</ele>
        <time>2021-06-13T14:43:18Z</time>
      </trkpt>
      <trkpt lat="42.70089" lon="1.657">
        <ele>1351.976</ele>
        <time>2021-06-13T14:43:20Z</time>
      </trkpt>
      <trkpt lat="42.7009" lon="1.65701">
        <ele>1349.539</ele>
        <time>2021-06-13T14:43:22Z</time>
      </trkpt>
      <trkpt lat="42.70092" lon="1.65703">
        <ele>1350.219</ele>
        <time>2021-06-13T14:43:24Z</time>
      </trkpt>
      <trkpt lat="42.70094" lon="1.65705">
        <ele>1351.141</ele>
        <time>2021-06-13T14:43:26Z</time>
      </trkpt>
      <trkpt lat="42.70095" lon="1.65706">
        <ele>1350.882</ele>
        <time>2021-06-13T14:43:28Z</time>
      </trkpt>
      <trkpt lat="42.70097" lon="1.65707">
        <ele>1351.823</ele>
        <time>2021-06-13T14:43:30Z</time>
      </trkpt>
      <trkpt lat="42.70099" lon="1.65709">
        <ele>1351.449</ele>
        <time>2021-06-13T14:43:32Z</time>
      </trkpt>
      <trkpt lat="42.70102" lon="1.6571">
        <ele>1351.65</ele>
        <time>2021-06-13T14:43:34Z</time>
      </trkpt>
      <trkpt lat="42.70103" lon="1.65712">
        <ele>1350.973</ele>
        <time>2021-06-13T14:43:36Z</time>
      </trkpt>
      <trkpt lat="42.70103" lon="1.65714">
        <ele>1348.723</ele>
        <time>2021-06-13T14:43:38Z</time>
      </trkpt>
      <trkpt lat="42.70103" lon="1.65717">
        <ele>1348.206</ele>
        <time>2021-06-13T14:43:40Z</time>
      </trkpt>
      <trkpt lat="42.70104" lon="1.65719">
        <ele>1347.972</ele>
        <time>2021-06-13T14:43:42Z</time>
      </trkpt>
      <trkpt lat="42.70105" lon="1.65719">
        <ele>1345.102</ele>
        <time>2021-06-13T14:43:44Z</time>
      </trkpt>
      <trkpt lat="42.70106" lon="1.6572">
        <ele>1344.444</ele>
        <time>2021-06-13T14:43:46Z</time>
      </trkpt>
      <trkpt lat="42.70107" lon="1.65724">
        <ele>1344.679</ele>
        <time>2021-06-13T14:43:48Z</time>
      </trkpt>
      <trkpt lat="42.70107" lon="1.65725">
        <ele>1344.459</ele>
        <time>2021-06-13T14:43:50Z</time>
      </trkpt>
      <trkpt lat="42.7011" lon="1.65728">
        <ele>1345.464</ele>
        <time>2021-06-13T14:43:52Z</time>
      </trkpt>
      <trkpt lat="42.70109" lon="1.65729">
        <ele>1343.157</ele>
        <time>2021-06-13T14:43:54Z</time>
      </trkpt>
      <trkpt lat="42.70108" lon="1.65731">
        <ele>1342.972</ele>
        <time>2021-06-13T14:43:56Z</time>
      </trkpt>
      <trkpt lat="42.70107" lon="1.65733">
        <ele>1343.353</ele>
        <time>2021-06-13T14:43:58Z</time>
      </trkpt>
      <trkpt lat="42.70107" lon="1.65736">
        <ele>1343.207</ele>
        <time>2021-06-13T14:44:00Z</time>
      </trkpt>
      <trkpt lat="42.70109" lon="1.65737">
        <ele>1343.373</ele>
        <time>2021-06-13T14:44:02Z</time>
      </trkpt>
      <trkpt lat="42.7011" lon="1.6574">
        <ele>1343.513</ele>
        <time>2021-06-13T14:44:04Z</time>
      </trkpt>
      <trkpt lat="42.70112" lon="1.65741">
        <ele>1343.225</ele>
        <time>2021-06-13T14:44:06Z</time>
      </trkpt>
      <trkpt lat="42.70114" lon="1.6574">
        <ele>1342.707</ele>
        <time>2021-06-13T14:44:08Z</time>
      </trkpt>
      <trkpt lat="42.70116" lon="1.65739">
        <ele>1343.627</ele>
        <time>2021-06-13T14:44:10Z</time>
      </trkpt>
      <trkpt lat="42.70117" lon="1.65738">
        <ele>1344.373</ele>
        <time>2021-06-13T14:44:12Z</time>
      </trkpt>
      <trkpt lat="42.70118" lon="1.65739">
        <ele>1344.688</ele>
        <time>2021-06-13T14:44:14Z</time>
      </trkpt>
      <trkpt lat="42.7012" lon="1.6574">
        <ele>1345.107</ele>
        <time>2021-06-13T14:44:16Z</time>
      </trkpt>
      <trkpt lat="42.70121" lon="1.65739">
        <ele>1344.855</ele>
        <time>2021-06-13T14:44:18Z</time>
      </trkpt>
      <trkpt lat="42.70121" lon="1.6574">
        <ele>1342.439</ele>
        <time>2021-06-13T14:44:20Z</time>
      </trkpt>
      <trkpt lat="42.70122" lon="1.65741">
        <ele>1341.43</ele>
        <time>2021-06-13T14:44:22Z</time>
      </trkpt>
      <trkpt lat="42.70123" lon="1.65743">
        <ele>1341.692</ele>
        <time>2021-06-13T14:44:24Z</time>
      </trkpt>
      <trkpt lat="42.70124" lon="1.65744">
        <ele>1341.974</ele>
        <time>2021-06-13T14:44:26Z</time>
      </trkpt>
      <trkpt lat="42.70126" lon="1.65745">
        <ele>1341.31</ele>
        <time>2021-06-13T14:44:28Z</time>
      </trkpt>
      <trkpt lat="42.70127" lon="1.65747">
        <ele>1340.439</ele>
        <time>2021-06-13T14:44:30Z</time>
      </trkpt>
      <trkpt lat="42.70128" lon="1.65748">
        <ele>1340.572</ele>
        <time>2021-06-13T14:44:31Z</time>
      </trkpt>
      <trkpt lat="42.70131" lon="1.65749">
        <ele>1340.634</ele>
        <time>2021-06-13T14:44:34Z</time>
      </trkpt>
      <trkpt lat="42.70132" lon="1.6575">
        <ele>1339.919</ele>
        <time>2021-06-13T14:44:36Z</time>
      </trkpt>
      <trkpt lat="42.70133" lon="1.65752">
        <ele>1339.364</ele>
        <time>2021-06-13T14:44:38Z</time>
      </trkpt>
      <trkpt lat="42.70134" lon="1.65754">
        <ele>1337.741</ele>
        <time>2021-06-13T14:44:40Z</time>
      </trkpt>
      <trkpt lat="42.70135" lon="1.65756">
        <ele>1335.81</ele>
        <time>2021-06-13T14:44:42Z</time>
      </trkpt>
      <trkpt lat="42.70136" lon="1.65758">
        <ele>1335.427</ele>
        <time>2021-06-13T14:44:44Z</time>
      </trkpt>
      <trkpt lat="42.70138" lon="1.65761">
        <ele>1335.672</ele>
        <time>2021-06-13T14:44:46Z</time>
      </trkpt>
      <trkpt lat="42.70139" lon="1.65764">
        <ele>1334.543</ele>
        <time>2021-06-13T14:44:48Z</time>
      </trkpt>
      <trkpt lat="42.70141" lon="1.65766">
        <ele>1334.453</ele>
        <time>2021-06-13T14:44:50Z</time>
      </trkpt>
      <trkpt lat="42.70142" lon="1.65768">
        <ele>1334.232</ele>
        <time>2021-06-13T14:44:52Z</time>
      </trkpt>
      <trkpt lat="42.70142" lon="1.65771">
        <ele>1335.22</ele>
        <time>2021-06-13T14:44:54Z</time>
      </trkpt>
      <trkpt lat="42.70143" lon="1.65774">
        <ele>1335.158</ele>
        <time>2021-06-13T14:44:56Z</time>
      </trkpt>
      <trkpt lat="42.70145" lon="1.65776">
        <ele>1335.703</ele>
        <time>2021-06-13T14:44:58Z</time>
      </trkpt>
      <trkpt lat="42.70146" lon="1.65777">
        <ele>1336.632</ele>
        <time>2021-06-13T14:45:00Z</time>
      </trkpt>
      <trkpt lat="42.70147" lon="1.65778">
        <ele>1336.472</ele>
        <time>2021-06-13T14:45:01Z</time>
      </trkpt>
      <trkpt lat="42.70146" lon="1.65781">
        <ele>1335.543</ele>
        <time>2021-06-13T14:45:04Z</time>
      </trkpt>
      <trkpt lat="42.70147" lon="1.65784">
        <ele>1335.39</ele>
        <time>2021-06-13T14:45:06Z</time>
      </trkpt>
      <trkpt lat="42.70147" lon="1.65786">
        <ele>1333.828</ele>
        <time>2021-06-13T14:45:08Z</time>
      </trkpt>
      <trkpt lat="42.70147" lon="1.65789">
        <ele>1332.467</ele>
        <time>2021-06-13T14:45:10Z</time>
      </trkpt>
      <trkpt lat="42.70146" lon="1.65792">
        <ele>1332.908</ele>
        <time>2021-06-13T14:45:12Z</time>
      </trkpt>
      <trkpt lat="42.70147" lon="1.65795">
        <ele>1333.89</ele>
        <time>2021-06-13T14:45:14Z</time>
      </trkpt>
      <trkpt lat="42.70148" lon="1.65798">
        <ele>1333.585</ele>
        <time>2021-06-13T14:45:16Z</time>
      </trkpt>
      <trkpt lat="42.70148" lon="1.658">
        <ele>1331.663</ele>
        <time>2021-06-13T14:45:18Z</time>
      </trkpt>
      <trkpt lat="42.70149" lon="1.65802">
        <ele>1331.037</ele>
        <time>2021-06-13T14:45:20Z</time>
      </trkpt>
      <trkpt lat="42.70149" lon="1.65804">
        <ele>1330.132</ele>
        <time>2021-06-13T14:45:22Z</time>
      </trkpt>
      <trkpt lat="42.70149" lon="1.65806">
        <ele>1329.133</ele>
        <time>2021-06-13T14:45:24Z</time>
      </trkpt>
      <trkpt lat="42.70149" lon="1.65808">
        <ele>1328.551</ele>
        <time>2021-06-13T14:45:26Z</time>
      </trkpt>
      <trkpt lat="42.7015" lon="1.6581">
        <ele>1330.128</ele>
        <time>2021-06-13T14:45:28Z</time>
      </trkpt>
      <trkpt lat="42.70151" lon="1.65812">
        <ele>1330.714</ele>
        <time>2021-06-13T14:45:30Z</time>
      </trkpt>
      <trkpt lat="42.70152" lon="1.65813">
        <ele>1330.309</ele>
        <time>2021-06-13T14:45:32Z</time>
      </trkpt>
      <trkpt lat="42.70152" lon="1.65816">
        <ele>1330.945</ele>
        <time>2021-06-13T14:45:34Z</time>
      </trkpt>
      <trkpt lat="42.70152" lon="1.65817">
        <ele>1329.197</ele>
        <time>2021-06-13T14:45:36Z</time>
      </trkpt>
      <trkpt lat="42.70151" lon="1.65818">
        <ele>1327.765</ele>
        <time>2021-06-13T14:45:38Z</time>
      </trkpt>
      <trkpt lat="42.70151" lon="1.65819">
        <ele>1326.038</ele>
        <time>2021-06-13T14:45:40Z</time>
      </trkpt>
      <trkpt lat="42.70152" lon="1.6582">
        <ele>1323.474</ele>
        <time>2021-06-13T14:45:42Z</time>
      </trkpt>
      <trkpt lat="42.70152" lon="1.65823">
        <ele>1325.076</ele>
        <time>2021-06-13T14:45:44Z</time>
      </trkpt>
      <trkpt lat="42.70153" lon="1.65826">
        <ele>1325.656</ele>
        <time>2021-06-13T14:45:46Z</time>
      </trkpt>
      <trkpt lat="42.70153" lon="1.65828">
        <ele>1323.859</ele>
        <time>2021-06-13T14:45:48Z</time>
      </trkpt>
      <trkpt lat="42.70153" lon="1.6583">
        <ele>1323.29</ele>
        <time>2021-06-13T14:45:50Z</time>
      </trkpt>
      <trkpt lat="42.70152" lon="1.65831">
        <ele>1322.9</ele>
        <time>2021-06-13T14:45:51Z</time>
      </trkpt>
      <trkpt lat="42.70148" lon="1.65829">
        <ele>1323.833</ele>
        <time>2021-06-13T14:45:54Z</time>
      </trkpt>
      <trkpt lat="42.70146" lon="1.65828">
        <ele>1324.371</ele>
        <time>2021-06-13T14:45:56Z</time>
      </trkpt>
      <trkpt lat="42.70146" lon="1.6583">
        <ele>1323.055</ele>
        <time>2021-06-13T14:45:58Z</time>
      </trkpt>
      <trkpt lat="42.70147" lon="1.65832">
        <ele>1322.172</ele>
        <time>2021-06-13T14:46:00Z</time>
      </trkpt>
      <trkpt lat="42.70147" lon="1.65833">
        <ele>1321.758</ele>
        <time>2021-06-13T14:46:01Z</time>
      </trkpt>
      <trkpt lat="42.70148" lon="1.65836">
        <ele>1320.75</ele>
        <time>2021-06-13T14:46:04Z</time>
      </trkpt>
      <trkpt lat="42.70149" lon="1.65839">
        <ele>1320.251</ele>
        <time>2021-06-13T14:46:06Z</time>
      </trkpt>
      <trkpt lat="42.70148" lon="1.65845">
        <ele>1321.211</ele>
        <time>2021-06-13T14:46:08Z</time>
      </trkpt>
      <trkpt lat="42.70148" lon="1.65853">
        <ele>1320.656</ele>
        <time>2021-06-13T14:46:10Z</time>
      </trkpt>
      <trkpt lat="42.7015" lon="1.65854">
        <ele>1320.73</ele>
        <time>2021-06-13T14:46:12Z</time>
      </trkpt>
      <trkpt lat="42.70151" lon="1.65856">
        <ele>1321.022</ele>
        <time>2021-06-13T14:46:14Z</time>
      </trkpt>
      <trkpt lat="42.70151" lon="1.65858">
        <ele>1319.985</ele>
        <time>2021-06-13T14:46:16Z</time>
      </trkpt>
      <trkpt lat="42.70151" lon="1.65861">
        <ele>1320.271</ele>
        <time>2021-06-13T14:46:18Z</time>
      </trkpt>
      <trkpt lat="42.70152" lon="1.65862">
        <ele>1319.461</ele>
        <time>2021-06-13T14:46:20Z</time>
      </trkpt>
      <trkpt lat="42.70152" lon="1.65863">
        <ele>1319.894</ele>
        <time>2021-06-13T14:46:21Z</time>
      </trkpt>
      <trkpt lat="42.70154" lon="1.65865">
        <ele>1317.639</ele>
        <time>2021-06-13T14:46:24Z</time>
      </trkpt>
      <trkpt lat="42.70154" lon="1.65868">
        <ele>1316.865</ele>
        <time>2021-06-13T14:46:26Z</time>
      </trkpt>
      <trkpt lat="42.70155" lon="1.65871">
        <ele>1317.037</ele>
        <time>2021-06-13T14:46:28Z</time>
      </trkpt>
      <trkpt lat="42.70156" lon="1.65873">
        <ele>1316.966</ele>
        <time>2021-06-13T14:46:30Z</time>
      </trkpt>
      <trkpt lat="42.70157" lon="1.65874">
        <ele>1316.748</ele>
        <time>2021-06-13T14:46:32Z</time>
      </trkpt>
      <trkpt lat="42.70157" lon="1.65876">
        <ele>1314.895</ele>
        <time>2021-06-13T14:46:34Z</time>
      </trkpt>
      <trkpt lat="42.70157" lon="1.65878">
        <ele>1314.672</ele>
        <time>2021-06-13T14:46:36Z</time>
      </trkpt>
      <trkpt lat="42.70157" lon="1.65879">
        <ele>1313.771</ele>
        <time>2021-06-13T14:46:38Z</time>
      </trkpt>
      <trkpt lat="42.70157" lon="1.6588">
        <ele>1311.993</ele>
        <time>2021-06-13T14:46:40Z</time>
      </trkpt>
      <trkpt lat="42.70156" lon="1.6588">
        <ele>1311.286</ele>
        <time>2021-06-13T14:46:41Z</time>
      </trkpt>
      <trkpt lat="42.70153" lon="1.65877">
        <ele>1311.263</ele>
        <time>2021-06-13T14:46:44Z</time>
      </trkpt>
      <trkpt lat="42.70152" lon="1.65876">
        <ele>1309.122</ele>
        <time>2021-06-13T14:46:46Z</time>
      </trkpt>
      <trkpt lat="42.7015" lon="1.65874">
        <ele>1308.345</ele>
        <time>2021-06-13T14:46:48Z</time>
      </trkpt>
      <trkpt lat="42.7015" lon="1.65872">
        <ele>1307.716</ele>
        <time>2021-06-13T14:46:50Z</time>
      </trkpt>
      <trkpt lat="42.70149" lon="1.65871">
        <ele>1307.53</ele>
        <time>2021-06-13T14:46:51Z</time>
      </trkpt>
      <trkpt lat="42.70146" lon="1.65871">
        <ele>1307.444</ele>
        <time>2021-06-13T14:46:54Z</time>
      </trkpt>
      <trkpt lat="42.70144" lon="1.65871">
        <ele>1306.942</ele>
        <time>2021-06-13T14:46:56Z</time>
      </trkpt>
      <trkpt lat="42.70142" lon="1.65872">
        <ele>1307.445</ele>
        <time>2021-06-13T14:46:58Z</time>
      </trkpt>
      <trkpt lat="42.70143" lon="1.65874">
        <ele>1304.835</ele>
        <time>2021-06-13T14:47:00Z</time>
      </trkpt>
      <trkpt lat="42.70143" lon="1.65875">
        <ele>1305.383</ele>
        <time>2021-06-13T14:47:01Z</time>
      </trkpt>
      <trkpt lat="42.70146" lon="1.65878">
        <ele>1303.619</ele>
        <time>2021-06-13T14:47:04Z</time>
      </trkpt>
      <trkpt lat="42.70147" lon="1.6588">
        <ele>1300.989</ele>
        <time>2021-06-13T14:47:06Z</time>
      </trkpt>
      <trkpt lat="42.70148" lon="1.65882">
        <ele>1301.36</ele>
        <time>2021-06-13T14:47:08Z</time>
      </trkpt>
      <trkpt lat="42.70149" lon="1.65884">
        <ele>1301.488</ele>
        <time>2021-06-13T14:47:10Z</time>
      </trkpt>
      <trkpt lat="42.70149" lon="1.65887">
        <ele>1301.393</ele>
        <time>2021-06-13T14:47:12Z</time>
      </trkpt>
      <trkpt lat="42.7015" lon="1.65889">
        <ele>1300.08</ele>
        <time>2021-06-13T14:47:14Z</time>
      </trkpt>
      <trkpt lat="42.7015" lon="1.6589">
        <ele>1299.877</ele>
        <time>2021-06-13T14:47:16Z</time>
      </trkpt>
      <trkpt lat="42.70152" lon="1.65892">
        <ele>1300.515</ele>
        <time>2021-06-13T14:47:18Z</time>
      </trkpt>
      <trkpt lat="42.70152" lon="1.65894">
        <ele>1300.8</ele>
        <time>2021-06-13T14:47:20Z</time>
      </trkpt>
      <trkpt lat="42.70152" lon="1.65896">
        <ele>1301.62</ele>
        <time>2021-06-13T14:47:21Z</time>
      </trkpt>
      <trkpt lat="42.70152" lon="1.659">
        <ele>1301.596</ele>
        <time>2021-06-13T14:47:24Z</time>
      </trkpt>
      <trkpt lat="42.70153" lon="1.65903">
        <ele>1300.708</ele>
        <time>2021-06-13T14:47:26Z</time>
      </trkpt>
      <trkpt lat="42.70153" lon="1.65903">
        <ele>1300.925</ele>
        <time>2021-06-13T14:47:28Z</time>
      </trkpt>
      <trkpt lat="42.70152" lon="1.65905">
        <ele>1301.846</ele>
        <time>2021-06-13T14:47:30Z</time>
      </trkpt>
      <trkpt lat="42.70152" lon="1.65908">
        <ele>1301.158</ele>
        <time>2021-06-13T14:47:32Z</time>
      </trkpt>
      <trkpt lat="42.70153" lon="1.65911">
        <ele>1302.714</ele>
        <time>2021-06-13T14:47:34Z</time>
      </trkpt>
      <trkpt lat="42.70151" lon="1.65914">
        <ele>1303.944</ele>
        <time>2021-06-13T14:47:36Z</time>
      </trkpt>
      <trkpt lat="42.70151" lon="1.65917">
        <ele>1304.167</ele>
        <time>2021-06-13T14:47:38Z</time>
      </trkpt>
      <trkpt lat="42.70152" lon="1.65919">
        <ele>1302.503</ele>
        <time>2021-06-13T14:47:40Z</time>
      </trkpt>
      <trkpt lat="42.70152" lon="1.65921">
        <ele>1301.67</ele>
        <time>2021-06-13T14:47:41Z</time>
      </trkpt>
      <trkpt lat="42.70153" lon="1.65923">
        <ele>1299.479</ele>
        <time>2021-06-13T14:47:44Z</time>
      </trkpt>
      <trkpt lat="42.70153" lon="1.65925">
        <ele>1299.833</ele>
        <time>2021-06-13T14:47:46Z</time>
      </trkpt>
      <trkpt lat="42.70154" lon="1.65928">
        <ele>1299.144</ele>
        <time>2021-06-13T14:47:48Z</time>
      </trkpt>
      <trkpt lat="42.70154" lon="1.6593">
        <ele>1297.606</ele>
        <time>2021-06-13T14:47:50Z</time>
      </trkpt>
      <trkpt lat="42.70154" lon="1.65932">
        <ele>1297.332</ele>
        <time>2021-06-13T14:47:52Z</time>
      </trkpt>
      <trkpt lat="42.70155" lon="1.65934">
        <ele>1297.528</ele>
        <time>2021-06-13T14:47:54Z</time>
      </trkpt>
      <trkpt lat="42.70155" lon="1.65936">
        <ele>1296.308</ele>
        <time>2021-06-13T14:47:56Z</time>
      </trkpt>
      <trkpt lat="42.70155" lon="1.65938">
        <ele>1294.209</ele>
        <time>2021-06-13T14:47:58Z</time>
      </trkpt>
      <trkpt lat="42.70156" lon="1.65941">
        <ele>1292.833</ele>
        <time>2021-06-13T14:48:00Z</time>
      </trkpt>
      <trkpt lat="42.70157" lon="1.65944">
        <ele>1292.071</ele>
        <time>2021-06-13T14:48:02Z</time>
      </trkpt>
      <trkpt lat="42.70158" lon="1.65947">
        <ele>1291.296</ele>
        <time>2021-06-13T14:48:04Z</time>
      </trkpt>
      <trkpt lat="42.70158" lon="1.6595">
        <ele>1291.178</ele>
        <time>2021-06-13T14:48:06Z</time>
      </trkpt>
      <trkpt lat="42.70159" lon="1.65951">
        <ele>1289.161</ele>
        <time>2021-06-13T14:48:08Z</time>
      </trkpt>
      <trkpt lat="42.7016" lon="1.65952">
        <ele>1288.548</ele>
        <time>2021-06-13T14:48:10Z</time>
      </trkpt>
      <trkpt lat="42.70161" lon="1.65954">
        <ele>1288.221</ele>
        <time>2021-06-13T14:48:12Z</time>
      </trkpt>
      <trkpt lat="42.70162" lon="1.65956">
        <ele>1287.743</ele>
        <time>2021-06-13T14:48:14Z</time>
      </trkpt>
      <trkpt lat="42.70162" lon="1.65958">
        <ele>1287.008</ele>
        <time>2021-06-13T14:48:16Z</time>
      </trkpt>
      <trkpt lat="42.70163" lon="1.65959">
        <ele>1286.356</ele>
        <time>2021-06-13T14:48:18Z</time>
      </trkpt>
      <trkpt lat="42.70164" lon="1.65961">
        <ele>1285.432</ele>
        <time>2021-06-13T14:48:20Z</time>
      </trkpt>
      <trkpt lat="42.70165" lon="1.65961">
        <ele>1283.724</ele>
        <time>2021-06-13T14:48:21Z</time>
      </trkpt>
      <trkpt lat="42.70167" lon="1.65964">
        <ele>1284.958</ele>
        <time>2021-06-13T14:48:24Z</time>
      </trkpt>
      <trkpt lat="42.70167" lon="1.65966">
        <ele>1284.873</ele>
        <time>2021-06-13T14:48:26Z</time>
      </trkpt>
      <trkpt lat="42.70167" lon="1.65969">
        <ele>1284.845</ele>
        <time>2021-06-13T14:48:28Z</time>
      </trkpt>
      <trkpt lat="42.70166" lon="1.6597">
        <ele>1282.535</ele>
        <time>2021-06-13T14:48:30Z</time>
      </trkpt>
      <trkpt lat="42.70166" lon="1.65972">
        <ele>1282.162</ele>
        <time>2021-06-13T14:48:31Z</time>
      </trkpt>
      <trkpt lat="42.70166" lon="1.65977">
        <ele>1282.715</ele>
        <time>2021-06-13T14:48:34Z</time>
      </trkpt>
      <trkpt lat="42.70166" lon="1.6598">
        <ele>1282.252</ele>
        <time>2021-06-13T14:48:36Z</time>
      </trkpt>
      <trkpt lat="42.70164" lon="1.65981">
        <ele>1282.067</ele>
        <time>2021-06-13T14:48:38Z</time>
      </trkpt>
      <trkpt lat="42.70162" lon="1.65979">
        <ele>1281.753</ele>
        <time>2021-06-13T14:48:40Z</time>
      </trkpt>
      <trkpt lat="42.70162" lon="1.65978">
        <ele>1281.328</ele>
        <time>2021-06-13T14:48:41Z</time>
      </trkpt>
      <trkpt lat="42.70159" lon="1.65975">
        <ele>1281.724</ele>
        <time>2021-06-13T14:48:44Z</time>
      </trkpt>
      <trkpt lat="42.70158" lon="1.65973">
        <ele>1281.807</ele>
        <time>2021-06-13T14:48:46Z</time>
      </trkpt>
      <trkpt lat="42.70157" lon="1.6597">
        <ele>1281.417</ele>
        <time>2021-06-13T14:48:48Z</time>
      </trkpt>
      <trkpt lat="42.70155" lon="1.65968">
        <ele>1281.179</ele>
        <time>2021-06-13T14:48:50Z</time>
      </trkpt>
      <trkpt lat="42.70154" lon="1.65968">
        <ele>1281.771</ele>
        <time>2021-06-13T14:48:51Z</time>
      </trkpt>
      <trkpt lat="42.70151" lon="1.65969">
        <ele>1284.55</ele>
        <time>2021-06-13T14:48:54Z</time>
      </trkpt>
      <trkpt lat="42.70149" lon="1.65969">
        <ele>1284.428</ele>
        <time>2021-06-13T14:48:56Z</time>
      </trkpt>
      <trkpt lat="42.70147" lon="1.65969">
        <ele>1283.827</ele>
        <time>2021-06-13T14:48:58Z</time>
      </trkpt>
      <trkpt lat="42.70145" lon="1.65968">
        <ele>1283.793</ele>
        <time>2021-06-13T14:49:00Z</time>
      </trkpt>
      <trkpt lat="42.70145" lon="1.65968">
        <ele>1284.267</ele>
        <time>2021-06-13T14:49:01Z</time>
      </trkpt>
      <trkpt lat="42.70142" lon="1.65968">
        <ele>1284.945</ele>
        <time>2021-06-13T14:49:04Z</time>
      </trkpt>
      <trkpt lat="42.70139" lon="1.65968">
        <ele>1285.415</ele>
        <time>2021-06-13T14:49:06Z</time>
      </trkpt>
      <trkpt lat="42.70137" lon="1.65969">
        <ele>1285.473</ele>
        <time>2021-06-13T14:49:08Z</time>
      </trkpt>
      <trkpt lat="42.70135" lon="1.65968">
        <ele>1286.477</ele>
        <time>2021-06-13T14:49:10Z</time>
      </trkpt>
      <trkpt lat="42.70134" lon="1.65969">
        <ele>1286.465</ele>
        <time>2021-06-13T14:49:11Z</time>
      </trkpt>
      <trkpt lat="42.70132" lon="1.6597">
        <ele>1285.942</ele>
        <time>2021-06-13T14:49:14Z</time>
      </trkpt>
      <trkpt lat="42.7013" lon="1.65972">
        <ele>1285.339</ele>
        <time>2021-06-13T14:49:16Z</time>
      </trkpt>
      <trkpt lat="42.70129" lon="1.65974">
        <ele>1284.685</ele>
        <time>2021-06-13T14:49:18Z</time>
      </trkpt>
      <trkpt lat="42.70127" lon="1.65975">
        <ele>1284.401</ele>
        <time>2021-06-13T14:49:20Z</time>
      </trkpt>
      <trkpt lat="42.70125" lon="1.65976">
        <ele>1283.24</ele>
        <time>2021-06-13T14:49:22Z</time>
      </trkpt>
      <trkpt lat="42.70123" lon="1.65977">
        <ele>1283.151</ele>
        <time>2021-06-13T14:49:24Z</time>
      </trkpt>
      <trkpt lat="42.70121" lon="1.65977">
        <ele>1284.016</ele>
        <time>2021-06-13T14:49:26Z</time>
      </trkpt>
      <trkpt lat="42.70119" lon="1.65978">
        <ele>1282.169</ele>
        <time>2021-06-13T14:49:28Z</time>
      </trkpt>
      <trkpt lat="42.70118" lon="1.65979">
        <ele>1281.231</ele>
        <time>2021-06-13T14:49:30Z</time>
      </trkpt>
      <trkpt lat="42.70118" lon="1.65978">
        <ele>1278.978</ele>
        <time>2021-06-13T14:49:32Z</time>
      </trkpt>
      <trkpt lat="42.70118" lon="1.65978">
        <ele>1277.929</ele>
        <time>2021-06-13T14:49:34Z</time>
      </trkpt>
      <trkpt lat="42.70117" lon="1.65979">
        <ele>1276.925</ele>
        <time>2021-06-13T14:49:36Z</time>
      </trkpt>
      <trkpt lat="42.70116" lon="1.65979">
        <ele>1276.099</ele>
        <time>2021-06-13T14:49:38Z</time>
      </trkpt>
      <trkpt lat="42.70114" lon="1.6598">
        <ele>1278.017</ele>
        <time>2021-06-13T14:49:40Z</time>
      </trkpt>
      <trkpt lat="42.70113" lon="1.65981">
        <ele>1277.651</ele>
        <time>2021-06-13T14:49:41Z</time>
      </trkpt>
      <trkpt lat="42.70113" lon="1.65985">
        <ele>1273.529</ele>
        <time>2021-06-13T14:49:44Z</time>
      </trkpt>
      <trkpt lat="42.70114" lon="1.65987">
        <ele>1273.312</ele>
        <time>2021-06-13T14:49:46Z</time>
      </trkpt>
      <trkpt lat="42.70115" lon="1.65988">
        <ele>1272.187</ele>
        <time>2021-06-13T14:49:48Z</time>
      </trkpt>
      <trkpt lat="42.70117" lon="1.65989">
        <ele>1270.901</ele>
        <time>2021-06-13T14:49:50Z</time>
      </trkpt>
      <trkpt lat="42.70118" lon="1.65991">
        <ele>1272.569</ele>
        <time>2021-06-13T14:49:52Z</time>
      </trkpt>
      <trkpt lat="42.70119" lon="1.65991">
        <ele>1271.235</ele>
        <time>2021-06-13T14:49:54Z</time>
      </trkpt>
      <trkpt lat="42.7012" lon="1.65993">
        <ele>1270.572</ele>
        <time>2021-06-13T14:49:56Z</time>
      </trkpt>
      <trkpt lat="42.70121" lon="1.65994">
        <ele>1270.221</ele>
        <time>2021-06-13T14:49:58Z</time>
      </trkpt>
      <trkpt lat="42.70121" lon="1.65996">
        <ele>1270.105</ele>
        <time>2021-06-13T14:50:00Z</time>
      </trkpt>
      <trkpt lat="42.70121" lon="1.65997">
        <ele>1270.431</ele>
        <time>2021-06-13T14:50:01Z</time>
      </trkpt>
      <trkpt lat="42.7012" lon="1.65998">
        <ele>1268.899</ele>
        <time>2021-06-13T14:50:04Z</time>
      </trkpt>
      <trkpt lat="42.70119" lon="1.65999">
        <ele>1267.69</ele>
        <time>2021-06-13T14:50:06Z</time>
      </trkpt>
      <trkpt lat="42.7012" lon="1.66001">
        <ele>1266.96</ele>
        <time>2021-06-13T14:50:08Z</time>
      </trkpt>
      <trkpt lat="42.70123" lon="1.66001">
        <ele>1266.327</ele>
        <time>2021-06-13T14:50:10Z</time>
      </trkpt>
      <trkpt lat="42.70125" lon="1.66">
        <ele>1265.146</ele>
        <time>2021-06-13T14:50:12Z</time>
      </trkpt>
      <trkpt lat="42.70127" lon="1.66">
        <ele>1264.876</ele>
        <time>2021-06-13T14:50:14Z</time>
      </trkpt>
      <trkpt lat="42.70128" lon="1.66002">
        <ele>1263.731</ele>
        <time>2021-06-13T14:50:16Z</time>
      </trkpt>
      <trkpt lat="42.70129" lon="1.66004">
        <ele>1263.017</ele>
        <time>2021-06-13T14:50:18Z</time>
      </trkpt>
      <trkpt lat="42.70131" lon="1.66004">
        <ele>1261.29</ele>
        <time>2021-06-13T14:50:20Z</time>
      </trkpt>
      <trkpt lat="42.70132" lon="1.66004">
        <ele>1260.914</ele>
        <time>2021-06-13T14:50:22Z</time>
      </trkpt>
      <trkpt lat="42.70134" lon="1.66003">
        <ele>1260.203</ele>
        <time>2021-06-13T14:50:24Z</time>
      </trkpt>
      <trkpt lat="42.70135" lon="1.66002">
        <ele>1259.745</ele>
        <time>2021-06-13T14:50:26Z</time>
      </trkpt>
      <trkpt lat="42.70137" lon="1.66002">
        <ele>1259.375</ele>
        <time>2021-06-13T14:50:28Z</time>
      </trkpt>
      <trkpt lat="42.7014" lon="1.66003">
        <ele>1259.237</ele>
        <time>2021-06-13T14:50:30Z</time>
      </trkpt>
      <trkpt lat="42.70141" lon="1.66004">
        <ele>1259.852</ele>
        <time>2021-06-13T14:50:32Z</time>
      </trkpt>
      <trkpt lat="42.70143" lon="1.66005">
        <ele>1260.639</ele>
        <time>2021-06-13T14:50:34Z</time>
      </trkpt>
      <trkpt lat="42.70144" lon="1.66006">
        <ele>1261.271</ele>
        <time>2021-06-13T14:50:36Z</time>
      </trkpt>
      <trkpt lat="42.70144" lon="1.66009">
        <ele>1259.821</ele>
        <time>2021-06-13T14:50:38Z</time>
      </trkpt>
      <trkpt lat="42.70145" lon="1.66011">
        <ele>1259.43</ele>
        <time>2021-06-13T14:50:40Z</time>
      </trkpt>
      <trkpt lat="42.70146" lon="1.66013">
        <ele>1259.011</ele>
        <time>2021-06-13T14:50:42Z</time>
      </trkpt>
      <trkpt lat="42.70147" lon="1.66014">
        <ele>1256.972</ele>
        <time>2021-06-13T14:50:44Z</time>
      </trkpt>
      <trkpt lat="42.70148" lon="1.66016">
        <ele>1256.274</ele>
        <time>2021-06-13T14:50:46Z</time>
      </trkpt>
      <trkpt lat="42.70149" lon="1.66018">
        <ele>1256.43</ele>
        <time>2021-06-13T14:50:48Z</time>
      </trkpt>
      <trkpt lat="42.7015" lon="1.6602">
        <ele>1255.724</ele>
        <time>2021-06-13T14:50:50Z</time>
      </trkpt>
      <trkpt lat="42.70151" lon="1.66022">
        <ele>1253.846</ele>
        <time>2021-06-13T14:50:52Z</time>
      </trkpt>
      <trkpt lat="42.70153" lon="1.66023">
        <ele>1252.594</ele>
        <time>2021-06-13T14:50:54Z</time>
      </trkpt>
      <trkpt lat="42.70153" lon="1.66026">
        <ele>1253.526</ele>
        <time>2021-06-13T14:50:56Z</time>
      </trkpt>
      <trkpt lat="42.70154" lon="1.66028">
        <ele>1253.261</ele>
        <time>2021-06-13T14:50:58Z</time>
      </trkpt>
      <trkpt lat="42.70155" lon="1.6603">
        <ele>1252.898</ele>
        <time>2021-06-13T14:51:00Z</time>
      </trkpt>
      <trkpt lat="42.70157" lon="1.66031">
        <ele>1252.973</ele>
        <time>2021-06-13T14:51:02Z</time>
      </trkpt>
      <trkpt lat="42.70159" lon="1.66033">
        <ele>1252.518</ele>
        <time>2021-06-13T14:51:04Z</time>
      </trkpt>
      <trkpt lat="42.70159" lon="1.66036">
        <ele>1252.894</ele>
        <time>2021-06-13T14:51:06Z</time>
      </trkpt>
      <trkpt lat="42.70159" lon="1.66039">
        <ele>1253.053</ele>
        <time>2021-06-13T14:51:08Z</time>
      </trkpt>
      <trkpt lat="42.7016" lon="1.66041">
        <ele>1253</ele>
        <time>2021-06-13T14:51:10Z</time>
      </trkpt>
      <trkpt lat="42.7016" lon="1.66042">
        <ele>1253.029</ele>
        <time>2021-06-13T14:51:11Z</time>
      </trkpt>
      <trkpt lat="42.70161" lon="1.66046">
        <ele>1253.283</ele>
        <time>2021-06-13T14:51:14Z</time>
      </trkpt>
      <trkpt lat="42.70161" lon="1.66048">
        <ele>1252.272</ele>
        <time>2021-06-13T14:51:16Z</time>
      </trkpt>
      <trkpt lat="42.70161" lon="1.6605">
        <ele>1251.219</ele>
        <time>2021-06-13T14:51:18Z</time>
      </trkpt>
      <trkpt lat="42.70161" lon="1.66053">
        <ele>1249.837</ele>
        <time>2021-06-13T14:51:20Z</time>
      </trkpt>
      <trkpt lat="42.70161" lon="1.66055">
        <ele>1248.989</ele>
        <time>2021-06-13T14:51:22Z</time>
      </trkpt>
      <trkpt lat="42.70161" lon="1.66059">
        <ele>1247.789</ele>
        <time>2021-06-13T14:51:24Z</time>
      </trkpt>
      <trkpt lat="42.70162" lon="1.66062">
        <ele>1248.143</ele>
        <time>2021-06-13T14:51:26Z</time>
      </trkpt>
      <trkpt lat="42.70163" lon="1.66065">
        <ele>1249.782</ele>
        <time>2021-06-13T14:51:28Z</time>
      </trkpt>
      <trkpt lat="42.70164" lon="1.66068">
        <ele>1248.967</ele>
        <time>2021-06-13T14:51:30Z</time>
      </trkpt>
      <trkpt lat="42.70165" lon="1.66071">
        <ele>1248.211</ele>
        <time>2021-06-13T14:51:32Z</time>
      </trkpt>
      <trkpt lat="42.70166" lon="1.66074">
        <ele>1247.177</ele>
        <time>2021-06-13T14:51:34Z</time>
      </trkpt>
      <trkpt lat="42.70166" lon="1.66077">
        <ele>1246.128</ele>
        <time>2021-06-13T14:51:36Z</time>
      </trkpt>
      <trkpt lat="42.70167" lon="1.66079">
        <ele>1245.415</ele>
        <time>2021-06-13T14:51:38Z</time>
      </trkpt>
      <trkpt lat="42.70168" lon="1.6608">
        <ele>1244.125</ele>
        <time>2021-06-13T14:51:40Z</time>
      </trkpt>
      <trkpt lat="42.70169" lon="1.66081">
        <ele>1244.428</ele>
        <time>2021-06-13T14:51:41Z</time>
      </trkpt>
      <trkpt lat="42.70172" lon="1.66083">
        <ele>1243.043</ele>
        <time>2021-06-13T14:51:44Z</time>
      </trkpt>
      <trkpt lat="42.70174" lon="1.66084">
        <ele>1241.739</ele>
        <time>2021-06-13T14:51:46Z</time>
      </trkpt>
      <trkpt lat="42.70175" lon="1.66085">
        <ele>1239.717</ele>
        <time>2021-06-13T14:51:48Z</time>
      </trkpt>
      <trkpt lat="42.70176" lon="1.66086">
        <ele>1238.751</ele>
        <time>2021-06-13T14:51:50Z</time>
      </trkpt>
      <trkpt lat="42.70177" lon="1.66088">
        <ele>1238.489</ele>
        <time>2021-06-13T14:51:52Z</time>
      </trkpt>
      <trkpt lat="42.70178" lon="1.66091">
        <ele>1237.479</ele>
        <time>2021-06-13T14:51:54Z</time>
      </trkpt>
      <trkpt lat="42.70179" lon="1.66093">
        <ele>1238.507</ele>
        <time>2021-06-13T14:51:56Z</time>
      </trkpt>
      <trkpt lat="42.70181" lon="1.66096">
        <ele>1238.16</ele>
        <time>2021-06-13T14:51:58Z</time>
      </trkpt>
      <trkpt lat="42.70182" lon="1.66099">
        <ele>1237.243</ele>
        <time>2021-06-13T14:52:00Z</time>
      </trkpt>
      <trkpt lat="42.70184" lon="1.66102">
        <ele>1237.543</ele>
        <time>2021-06-13T14:52:02Z</time>
      </trkpt>
      <trkpt lat="42.70186" lon="1.66102">
        <ele>1236.102</ele>
        <time>2021-06-13T14:52:04Z</time>
      </trkpt>
      <trkpt lat="42.70188" lon="1.66103">
        <ele>1235.271</ele>
        <time>2021-06-13T14:52:06Z</time>
      </trkpt>
      <trkpt lat="42.7019" lon="1.66105">
        <ele>1235.405</ele>
        <time>2021-06-13T14:52:08Z</time>
      </trkpt>
      <trkpt lat="42.70191" lon="1.66107">
        <ele>1235.615</ele>
        <time>2021-06-13T14:52:10Z</time>
      </trkpt>
      <trkpt lat="42.70193" lon="1.66108">
        <ele>1235.704</ele>
        <time>2021-06-13T14:52:12Z</time>
      </trkpt>
      <trkpt lat="42.70195" lon="1.66109">
        <ele>1235.88</ele>
        <time>2021-06-13T14:52:14Z</time>
      </trkpt>
      <trkpt lat="42.70196" lon="1.66111">
        <ele>1235.711</ele>
        <time>2021-06-13T14:52:16Z</time>
      </trkpt>
      <trkpt lat="42.70197" lon="1.66114">
        <ele>1234.873</ele>
        <time>2021-06-13T14:52:18Z</time>
      </trkpt>
      <trkpt lat="42.70199" lon="1.66115">
        <ele>1235.581</ele>
        <time>2021-06-13T14:52:20Z</time>
      </trkpt>
      <trkpt lat="42.70201" lon="1.66116">
        <ele>1234.663</ele>
        <time>2021-06-13T14:52:22Z</time>
      </trkpt>
      <trkpt lat="42.70202" lon="1.66119">
        <ele>1233.709</ele>
        <time>2021-06-13T14:52:24Z</time>
      </trkpt>
      <trkpt lat="42.70204" lon="1.6612">
        <ele>1233.627</ele>
        <time>2021-06-13T14:52:26Z</time>
      </trkpt>
      <trkpt lat="42.70205" lon="1.66123">
        <ele>1232.67</ele>
        <time>2021-06-13T14:52:28Z</time>
      </trkpt>
      <trkpt lat="42.70206" lon="1.66125">
        <ele>1232.787</ele>
        <time>2021-06-13T14:52:30Z</time>
      </trkpt>
      <trkpt lat="42.70206" lon="1.66126">
        <ele>1232.542</ele>
        <time>2021-06-13T14:52:31Z</time>
      </trkpt>
      <trkpt lat="42.70209" lon="1.66129">
        <ele>1233.73</ele>
        <time>2021-06-13T14:52:34Z</time>
      </trkpt>
      <trkpt lat="42.70211" lon="1.66131">
        <ele>1234.62</ele>
        <time>2021-06-13T14:52:36Z</time>
      </trkpt>
      <trkpt lat="42.70213" lon="1.66132">
        <ele>1233.915</ele>
        <time>2021-06-13T14:52:38Z</time>
      </trkpt>
      <trkpt lat="42.70215" lon="1.66132">
        <ele>1233.792</ele>
        <time>2021-06-13T14:52:40Z</time>
      </trkpt>
      <trkpt lat="42.70216" lon="1.66133">
        <ele>1233.591</ele>
        <time>2021-06-13T14:52:41Z</time>
      </trkpt>
      <trkpt lat="42.70218" lon="1.66136">
        <ele>1233.237</ele>
        <time>2021-06-13T14:52:44Z</time>
      </trkpt>
      <trkpt lat="42.7022" lon="1.66137">
        <ele>1232.768</ele>
        <time>2021-06-13T14:52:46Z</time>
      </trkpt>
      <trkpt lat="42.70221" lon="1.66137">
        <ele>1232.736</ele>
        <time>2021-06-13T14:52:48Z</time>
      </trkpt>
      <trkpt lat="42.70224" lon="1.66138">
        <ele>1232.446</ele>
        <time>2021-06-13T14:52:50Z</time>
      </trkpt>
      <trkpt lat="42.70225" lon="1.66138">
        <ele>1233.216</ele>
        <time>2021-06-13T14:52:51Z</time>
      </trkpt>
      <trkpt lat="42.70227" lon="1.66138">
        <ele>1232.763</ele>
        <time>2021-06-13T14:52:54Z</time>
      </trkpt>
      <trkpt lat="42.70228" lon="1.6614">
        <ele>1232.799</ele>
        <time>2021-06-13T14:52:56Z</time>
      </trkpt>
      <trkpt lat="42.7023" lon="1.66141">
        <ele>1232.784</ele>
        <time>2021-06-13T14:52:58Z</time>
      </trkpt>
      <trkpt lat="42.70232" lon="1.66141">
        <ele>1232.179</ele>
        <time>2021-06-13T14:53:00Z</time>
      </trkpt>
      <trkpt lat="42.70233" lon="1.66142">
        <ele>1231.677</ele>
        <time>2021-06-13T14:53:01Z</time>
      </trkpt>
      <trkpt lat="42.70236" lon="1.66145">
        <ele>1231.209</ele>
        <time>2021-06-13T14:53:04Z</time>
      </trkpt>
      <trkpt lat="42.70238" lon="1.66146">
        <ele>1229.068</ele>
        <time>2021-06-13T14:53:06Z</time>
      </trkpt>
      <trkpt lat="42.7024" lon="1.66146">
        <ele>1228.676</ele>
        <time>2021-06-13T14:53:08Z</time>
      </trkpt>
      <trkpt lat="42.70242" lon="1.66146">
        <ele>1228.798</ele>
        <time>2021-06-13T14:53:10Z</time>
      </trkpt>
      <trkpt lat="42.70244" lon="1.66146">
        <ele>1228.521</ele>
        <time>2021-06-13T14:53:12Z</time>
      </trkpt>
      <trkpt lat="42.70246" lon="1.66147">
        <ele>1227.627</ele>
        <time>2021-06-13T14:53:14Z</time>
      </trkpt>
      <trkpt lat="42.70249" lon="1.66148">
        <ele>1226.675</ele>
        <time>2021-06-13T14:53:16Z</time>
      </trkpt>
      <trkpt lat="42.70251" lon="1.6615">
        <ele>1225.738</ele>
        <time>2021-06-13T14:53:18Z</time>
      </trkpt>
      <trkpt lat="42.70252" lon="1.66151">
        <ele>1225.981</ele>
        <time>2021-06-13T14:53:20Z</time>
      </trkpt>
      <trkpt lat="42.70254" lon="1.66152">
        <ele>1226.605</ele>
        <time>2021-06-13T14:53:22Z</time>
      </trkpt>
      <trkpt lat="42.70256" lon="1.66153">
        <ele>1226.345</ele>
        <time>2021-06-13T14:53:24Z</time>
      </trkpt>
      <trkpt lat="42.70258" lon="1.66154">
        <ele>1226.394</ele>
        <time>2021-06-13T14:53:26Z</time>
      </trkpt>
      <trkpt lat="42.7026" lon="1.66156">
        <ele>1226.983</ele>
        <time>2021-06-13T14:53:28Z</time>
      </trkpt>
      <trkpt lat="42.70262" lon="1.66157">
        <ele>1226.522</ele>
        <time>2021-06-13T14:53:30Z</time>
      </trkpt>
      <trkpt lat="42.70265" lon="1.66157">
        <ele>1225.184</ele>
        <time>2021-06-13T14:53:32Z</time>
      </trkpt>
      <trkpt lat="42.70267" lon="1.66159">
        <ele>1223.674</ele>
        <time>2021-06-13T14:53:34Z</time>
      </trkpt>
      <trkpt lat="42.70269" lon="1.66159">
        <ele>1222.073</ele>
        <time>2021-06-13T14:53:36Z</time>
      </trkpt>
      <trkpt lat="42.70271" lon="1.6616">
        <ele>1221.895</ele>
        <time>2021-06-13T14:53:38Z</time>
      </trkpt>
      <trkpt lat="42.70273" lon="1.66162">
        <ele>1220.697</ele>
        <time>2021-06-13T14:53:40Z</time>
      </trkpt>
      <trkpt lat="42.70275" lon="1.66163">
        <ele>1220.748</ele>
        <time>2021-06-13T14:53:42Z</time>
      </trkpt>
      <trkpt lat="42.70277" lon="1.66165">
        <ele>1220.756</ele>
        <time>2021-06-13T14:53:44Z</time>
      </trkpt>
      <trkpt lat="42.7028" lon="1.66165">
        <ele>1219.675</ele>
        <time>2021-06-13T14:53:46Z</time>
      </trkpt>
      <trkpt lat="42.70281" lon="1.66166">
        <ele>1218.917</ele>
        <time>2021-06-13T14:53:48Z</time>
      </trkpt>
      <trkpt lat="42.70283" lon="1.66167">
        <ele>1218.127</ele>
        <time>2021-06-13T14:53:50Z</time>
      </trkpt>
      <trkpt lat="42.70284" lon="1.66168">
        <ele>1217.901</ele>
        <time>2021-06-13T14:53:51Z</time>
      </trkpt>
      <trkpt lat="42.70287" lon="1.66169">
        <ele>1217.487</ele>
        <time>2021-06-13T14:53:54Z</time>
      </trkpt>
      <trkpt lat="42.70289" lon="1.6617">
        <ele>1216.257</ele>
        <time>2021-06-13T14:53:56Z</time>
      </trkpt>
      <trkpt lat="42.7029" lon="1.66171">
        <ele>1216.285</ele>
        <time>2021-06-13T14:53:58Z</time>
      </trkpt>
      <trkpt lat="42.70292" lon="1.66171">
        <ele>1215.871</ele>
        <time>2021-06-13T14:54:00Z</time>
      </trkpt>
      <trkpt lat="42.70293" lon="1.66173">
        <ele>1216.85</ele>
        <time>2021-06-13T14:54:01Z</time>
      </trkpt>
      <trkpt lat="42.70296" lon="1.66175">
        <ele>1215.016</ele>
        <time>2021-06-13T14:54:04Z</time>
      </trkpt>
      <trkpt lat="42.70297" lon="1.66176">
        <ele>1214.56</ele>
        <time>2021-06-13T14:54:06Z</time>
      </trkpt>
      <trkpt lat="42.703" lon="1.66177">
        <ele>1214.435</ele>
        <time>2021-06-13T14:54:08Z</time>
      </trkpt>
      <trkpt lat="42.70302" lon="1.66179">
        <ele>1213.487</ele>
        <time>2021-06-13T14:54:10Z</time>
      </trkpt>
      <trkpt lat="42.70303" lon="1.66179">
        <ele>1212.538</ele>
        <time>2021-06-13T14:54:11Z</time>
      </trkpt>
      <trkpt lat="42.70305" lon="1.66183">
        <ele>1214.536</ele>
        <time>2021-06-13T14:54:14Z</time>
      </trkpt>
      <trkpt lat="42.70307" lon="1.66185">
        <ele>1214.759</ele>
        <time>2021-06-13T14:54:16Z</time>
      </trkpt>
      <trkpt lat="42.7031" lon="1.66187">
        <ele>1214.068</ele>
        <time>2021-06-13T14:54:18Z</time>
      </trkpt>
      <trkpt lat="42.70312" lon="1.6619">
        <ele>1213.546</ele>
        <time>2021-06-13T14:54:20Z</time>
      </trkpt>
      <trkpt lat="42.70313" lon="1.66191">
        <ele>1212.477</ele>
        <time>2021-06-13T14:54:21Z</time>
      </trkpt>
      <trkpt lat="42.70317" lon="1.66192">
        <ele>1212.536</ele>
        <time>2021-06-13T14:54:24Z</time>
      </trkpt>
      <trkpt lat="42.70319" lon="1.66194">
        <ele>1212.732</ele>
        <time>2021-06-13T14:54:26Z</time>
      </trkpt>
      <trkpt lat="42.70321" lon="1.66195">
        <ele>1211.713</ele>
        <time>2021-06-13T14:54:28Z</time>
      </trkpt>
      <trkpt lat="42.70323" lon="1.66195">
        <ele>1211.084</ele>
        <time>2021-06-13T14:54:30Z</time>
      </trkpt>
      <trkpt lat="42.70324" lon="1.66196">
        <ele>1210.675</ele>
        <time>2021-06-13T14:54:31Z</time>
      </trkpt>
      <trkpt lat="42.70327" lon="1.66199">
        <ele>1210.855</ele>
        <time>2021-06-13T14:54:34Z</time>
      </trkpt>
      <trkpt lat="42.70329" lon="1.66201">
        <ele>1209.884</ele>
        <time>2021-06-13T14:54:36Z</time>
      </trkpt>
      <trkpt lat="42.70332" lon="1.66202">
        <ele>1208.95</ele>
        <time>2021-06-13T14:54:38Z</time>
      </trkpt>
      <trkpt lat="42.70334" lon="1.66202">
        <ele>1208.027</ele>
        <time>2021-06-13T14:54:40Z</time>
      </trkpt>
      <trkpt lat="42.70335" lon="1.66203">
        <ele>1207.519</ele>
        <time>2021-06-13T14:54:41Z</time>
      </trkpt>
      <trkpt lat="42.70338" lon="1.66203">
        <ele>1206.754</ele>
        <time>2021-06-13T14:54:44Z</time>
      </trkpt>
      <trkpt lat="42.7034" lon="1.66203">
        <ele>1206.46</ele>
        <time>2021-06-13T14:54:46Z</time>
      </trkpt>
      <trkpt lat="42.70343" lon="1.66203">
        <ele>1205.658</ele>
        <time>2021-06-13T14:54:48Z</time>
      </trkpt>
      <trkpt lat="42.70345" lon="1.66204">
        <ele>1206.424</ele>
        <time>2021-06-13T14:54:50Z</time>
      </trkpt>
      <trkpt lat="42.70347" lon="1.66204">
        <ele>1207.169</ele>
        <time>2021-06-13T14:54:51Z</time>
      </trkpt>
      <trkpt lat="42.7035" lon="1.66203">
        <ele>1206.346</ele>
        <time>2021-06-13T14:54:54Z</time>
      </trkpt>
      <trkpt lat="42.70352" lon="1.66203">
        <ele>1206.863</ele>
        <time>2021-06-13T14:54:56Z</time>
      </trkpt>
      <trkpt lat="42.70354" lon="1.66203">
        <ele>1206.965</ele>
        <time>2021-06-13T14:54:58Z</time>
      </trkpt>
      <trkpt lat="42.70356" lon="1.66203">
        <ele>1207.508</ele>
        <time>2021-06-13T14:55:00Z</time>
      </trkpt>
      <trkpt lat="42.70359" lon="1.66202">
        <ele>1208.044</ele>
        <time>2021-06-13T14:55:02Z</time>
      </trkpt>
      <trkpt lat="42.70361" lon="1.66202">
        <ele>1207.863</ele>
        <time>2021-06-13T14:55:04Z</time>
      </trkpt>
      <trkpt lat="42.70364" lon="1.66202">
        <ele>1206.006</ele>
        <time>2021-06-13T14:55:06Z</time>
      </trkpt>
      <trkpt lat="42.70366" lon="1.66201">
        <ele>1204.286</ele>
        <time>2021-06-13T14:55:08Z</time>
      </trkpt>
      <trkpt lat="42.70369" lon="1.66201">
        <ele>1204.843</ele>
        <time>2021-06-13T14:55:10Z</time>
      </trkpt>
      <trkpt lat="42.7037" lon="1.66201">
        <ele>1204.72</ele>
        <time>2021-06-13T14:55:11Z</time>
      </trkpt>
      <trkpt lat="42.70374" lon="1.66201">
        <ele>1204.024</ele>
        <time>2021-06-13T14:55:14Z</time>
      </trkpt>
      <trkpt lat="42.70377" lon="1.66201">
        <ele>1202.103</ele>
        <time>2021-06-13T14:55:16Z</time>
      </trkpt>
      <trkpt lat="42.70379" lon="1.662">
        <ele>1202.321</ele>
        <time>2021-06-13T14:55:18Z</time>
      </trkpt>
      <trkpt lat="42.70382" lon="1.66199">
        <ele>1202.727</ele>
        <time>2021-06-13T14:55:20Z</time>
      </trkpt>
      <trkpt lat="42.70383" lon="1.66199">
        <ele>1202.608</ele>
        <time>2021-06-13T14:55:21Z</time>
      </trkpt>
      <trkpt lat="42.70386" lon="1.66198">
        <ele>1200.753</ele>
        <time>2021-06-13T14:55:24Z</time>
      </trkpt>
      <trkpt lat="42.70389" lon="1.66198">
        <ele>1202.519</ele>
        <time>2021-06-13T14:55:26Z</time>
      </trkpt>
      <trkpt lat="42.70392" lon="1.66198">
        <ele>1203.19</ele>
        <time>2021-06-13T14:55:28Z</time>
      </trkpt>
      <trkpt lat="42.70394" lon="1.66198">
        <ele>1204.479</ele>
        <time>2021-06-13T14:55:30Z</time>
      </trkpt>
      <trkpt lat="42.70395" lon="1.66197">
        <ele>1204.309</ele>
        <time>2021-06-13T14:55:31Z</time>
      </trkpt>
      <trkpt lat="42.70398" lon="1.66196">
        <ele>1203.035</ele>
        <time>2021-06-13T14:55:34Z</time>
      </trkpt>
      <trkpt lat="42.704" lon="1.66195">
        <ele>1203.217</ele>
        <time>2021-06-13T14:55:36Z</time>
      </trkpt>
      <trkpt lat="42.70403" lon="1.66195">
        <ele>1203.578</ele>
        <time>2021-06-13T14:55:38Z</time>
      </trkpt>
      <trkpt lat="42.70405" lon="1.66195">
        <ele>1202.074</ele>
        <time>2021-06-13T14:55:40Z</time>
      </trkpt>
      <trkpt lat="42.70406" lon="1.66195">
        <ele>1202.505</ele>
        <time>2021-06-13T14:55:41Z</time>
      </trkpt>
      <trkpt lat="42.7041" lon="1.66195">
        <ele>1203.799</ele>
        <time>2021-06-13T14:55:44Z</time>
      </trkpt>
      <trkpt lat="42.70412" lon="1.66194">
        <ele>1202.547</ele>
        <time>2021-06-13T14:55:46Z</time>
      </trkpt>
      <trkpt lat="42.70414" lon="1.66191">
        <ele>1201.622</ele>
        <time>2021-06-13T14:55:48Z</time>
      </trkpt>
      <trkpt lat="42.70415" lon="1.66188">
        <ele>1199.174</ele>
        <time>2021-06-13T14:55:50Z</time>
      </trkpt>
      <trkpt lat="42.70417" lon="1.66186">
        <ele>1198.543</ele>
        <time>2021-06-13T14:55:52Z</time>
      </trkpt>
      <trkpt lat="42.70419" lon="1.66186">
        <ele>1198.442</ele>
        <time>2021-06-13T14:55:54Z</time>
      </trkpt>
      <trkpt lat="42.7042" lon="1.66187">
        <ele>1199.072</ele>
        <time>2021-06-13T14:55:56Z</time>
      </trkpt>
      <trkpt lat="42.70421" lon="1.66189">
        <ele>1199.88</ele>
        <time>2021-06-13T14:55:58Z</time>
      </trkpt>
      <trkpt lat="42.70421" lon="1.66191">
        <ele>1199.961</ele>
        <time>2021-06-13T14:56:00Z</time>
      </trkpt>
      <trkpt lat="42.70422" lon="1.66192">
        <ele>1200.169</ele>
        <time>2021-06-13T14:56:01Z</time>
      </trkpt>
      <trkpt lat="42.70425" lon="1.6619">
        <ele>1198.364</ele>
        <time>2021-06-13T14:56:04Z</time>
      </trkpt>
      <trkpt lat="42.70426" lon="1.66189">
        <ele>1196.968</ele>
        <time>2021-06-13T14:56:06Z</time>
      </trkpt>
      <trkpt lat="42.70428" lon="1.66189">
        <ele>1197.055</ele>
        <time>2021-06-13T14:56:08Z</time>
      </trkpt>
      <trkpt lat="42.7043" lon="1.66188">
        <ele>1195.651</ele>
        <time>2021-06-13T14:56:10Z</time>
      </trkpt>
      <trkpt lat="42.70432" lon="1.66188">
        <ele>1195.093</ele>
        <time>2021-06-13T14:56:12Z</time>
      </trkpt>
      <trkpt lat="42.70434" lon="1.66187">
        <ele>1194.474</ele>
        <time>2021-06-13T14:56:14Z</time>
      </trkpt>
      <trkpt lat="42.70435" lon="1.66186">
        <ele>1195.256</ele>
        <time>2021-06-13T14:56:16Z</time>
      </trkpt>
      <trkpt lat="42.70437" lon="1.66186">
        <ele>1195.563</ele>
        <time>2021-06-13T14:56:18Z</time>
      </trkpt>
      <trkpt lat="42.70439" lon="1.66186">
        <ele>1196.431</ele>
        <time>2021-06-13T14:56:20Z</time>
      </trkpt>
      <trkpt lat="42.7044" lon="1.66188">
        <ele>1198.002</ele>
        <time>2021-06-13T14:56:22Z</time>
      </trkpt>
      <trkpt lat="42.7044" lon="1.66189">
        <ele>1198.369</ele>
        <time>2021-06-13T14:56:24Z</time>
      </trkpt>
      <trkpt lat="42.70441" lon="1.66191">
        <ele>1200.479</ele>
        <time>2021-06-13T14:56:26Z</time>
      </trkpt>
      <trkpt lat="42.70443" lon="1.66191">
        <ele>1200.813</ele>
        <time>2021-06-13T14:56:28Z</time>
      </trkpt>
      <trkpt lat="42.70444" lon="1.6619">
        <ele>1198.392</ele>
        <time>2021-06-13T14:56:30Z</time>
      </trkpt>
      <trkpt lat="42.70445" lon="1.6619">
        <ele>1198.388</ele>
        <time>2021-06-13T14:56:32Z</time>
      </trkpt>
      <trkpt lat="42.70445" lon="1.66192">
        <ele>1196.924</ele>
        <time>2021-06-13T14:56:34Z</time>
      </trkpt>
      <trkpt lat="42.70445" lon="1.66194">
        <ele>1197.142</ele>
        <time>2021-06-13T14:56:36Z</time>
      </trkpt>
      <trkpt lat="42.70445" lon="1.66196">
        <ele>1197.251</ele>
        <time>2021-06-13T14:56:38Z</time>
      </trkpt>
      <trkpt lat="42.70445" lon="1.66199">
        <ele>1196.493</ele>
        <time>2021-06-13T14:56:40Z</time>
      </trkpt>
      <trkpt lat="42.70445" lon="1.66201">
        <ele>1196.178</ele>
        <time>2021-06-13T14:56:42Z</time>
      </trkpt>
      <trkpt lat="42.70446" lon="1.66204">
        <ele>1195.817</ele>
        <time>2021-06-13T14:56:44Z</time>
      </trkpt>
      <trkpt lat="42.70448" lon="1.66205">
        <ele>1197.651</ele>
        <time>2021-06-13T14:56:46Z</time>
      </trkpt>
      <trkpt lat="42.70449" lon="1.66206">
        <ele>1196.349</ele>
        <time>2021-06-13T14:56:48Z</time>
      </trkpt>
      <trkpt lat="42.70451" lon="1.66206">
        <ele>1196.623</ele>
        <time>2021-06-13T14:56:50Z</time>
      </trkpt>
      <trkpt lat="42.70452" lon="1.66205">
        <ele>1196.093</ele>
        <time>2021-06-13T14:56:52Z</time>
      </trkpt>
      <trkpt lat="42.70454" lon="1.66204">
        <ele>1196.77</ele>
        <time>2021-06-13T14:56:54Z</time>
      </trkpt>
      <trkpt lat="42.70455" lon="1.66203">
        <ele>1197.012</ele>
        <time>2021-06-13T14:56:56Z</time>
      </trkpt>
      <trkpt lat="42.70457" lon="1.66203">
        <ele>1196.771</ele>
        <time>2021-06-13T14:56:58Z</time>
      </trkpt>
      <trkpt lat="42.70458" lon="1.66203">
        <ele>1197.016</ele>
        <time>2021-06-13T14:57:00Z</time>
      </trkpt>
      <trkpt lat="42.70459" lon="1.66204">
        <ele>1197.172</ele>
        <time>2021-06-13T14:57:01Z</time>
      </trkpt>
      <trkpt lat="42.70458" lon="1.66208">
        <ele>1195.771</ele>
        <time>2021-06-13T14:57:04Z</time>
      </trkpt>
      <trkpt lat="42.70458" lon="1.6621">
        <ele>1194.419</ele>
        <time>2021-06-13T14:57:06Z</time>
      </trkpt>
      <trkpt lat="42.70457" lon="1.66212">
        <ele>1193.154</ele>
        <time>2021-06-13T14:57:08Z</time>
      </trkpt>
      <trkpt lat="42.70456" lon="1.66214">
        <ele>1192.066</ele>
        <time>2021-06-13T14:57:10Z</time>
      </trkpt>
      <trkpt lat="42.70455" lon="1.66215">
        <ele>1191.68</ele>
        <time>2021-06-13T14:57:11Z</time>
      </trkpt>
      <trkpt lat="42.70455" lon="1.66218">
        <ele>1191.474</ele>
        <time>2021-06-13T14:57:14Z</time>
      </trkpt>
      <trkpt lat="42.70455" lon="1.6622">
        <ele>1191.873</ele>
        <time>2021-06-13T14:57:16Z</time>
      </trkpt>
      <trkpt lat="42.70456" lon="1.66222">
        <ele>1191.213</ele>
        <time>2021-06-13T14:57:18Z</time>
      </trkpt>
      <trkpt lat="42.70456" lon="1.66224">
        <ele>1190.414</ele>
        <time>2021-06-13T14:57:20Z</time>
      </trkpt>
      <trkpt lat="42.70455" lon="1.66225">
        <ele>1189.368</ele>
        <time>2021-06-13T14:57:21Z</time>
      </trkpt>
      <trkpt lat="42.70455" lon="1.66228">
        <ele>1188.067</ele>
        <time>2021-06-13T14:57:24Z</time>
      </trkpt>
      <trkpt lat="42.70454" lon="1.66229">
        <ele>1186.482</ele>
        <time>2021-06-13T14:57:26Z</time>
      </trkpt>
      <trkpt lat="42.70455" lon="1.66231">
        <ele>1186.376</ele>
        <time>2021-06-13T14:57:28Z</time>
      </trkpt>
      <trkpt lat="42.70456" lon="1.66232">
        <ele>1186.089</ele>
        <time>2021-06-13T14:57:30Z</time>
      </trkpt>
      <trkpt lat="42.70456" lon="1.66233">
        <ele>1186.296</ele>
        <time>2021-06-13T14:57:31Z</time>
      </trkpt>
      <trkpt lat="42.70454" lon="1.66237">
        <ele>1184.926</ele>
        <time>2021-06-13T14:57:34Z</time>
      </trkpt>
      <trkpt lat="42.70453" lon="1.66239">
        <ele>1184.218</ele>
        <time>2021-06-13T14:57:36Z</time>
      </trkpt>
      <trkpt lat="42.70452" lon="1.66241">
        <ele>1182.619</ele>
        <time>2021-06-13T14:57:38Z</time>
      </trkpt>
      <trkpt lat="42.70451" lon="1.66243">
        <ele>1180.945</ele>
        <time>2021-06-13T14:57:40Z</time>
      </trkpt>
      <trkpt lat="42.70451" lon="1.66246">
        <ele>1179.874</ele>
        <time>2021-06-13T14:57:42Z</time>
      </trkpt>
      <trkpt lat="42.70453" lon="1.66249">
        <ele>1179.918</ele>
        <time>2021-06-13T14:57:44Z</time>
      </trkpt>
      <trkpt lat="42.70455" lon="1.66248">
        <ele>1180.048</ele>
        <time>2021-06-13T14:57:46Z</time>
      </trkpt>
      <trkpt lat="42.70458" lon="1.66246">
        <ele>1179.692</ele>
        <time>2021-06-13T14:57:48Z</time>
      </trkpt>
      <trkpt lat="42.70459" lon="1.66248">
        <ele>1180.558</ele>
        <time>2021-06-13T14:57:50Z</time>
      </trkpt>
      <trkpt lat="42.70461" lon="1.66248">
        <ele>1180.421</ele>
        <time>2021-06-13T14:57:52Z</time>
      </trkpt>
      <trkpt lat="42.70463" lon="1.66248">
        <ele>1180.208</ele>
        <time>2021-06-13T14:57:54Z</time>
      </trkpt>
      <trkpt lat="42.70464" lon="1.66248">
        <ele>1179.414</ele>
        <time>2021-06-13T14:57:56Z</time>
      </trkpt>
      <trkpt lat="42.70466" lon="1.66248">
        <ele>1176.505</ele>
        <time>2021-06-13T14:57:58Z</time>
      </trkpt>
      <trkpt lat="42.70468" lon="1.66248">
        <ele>1176.342</ele>
        <time>2021-06-13T14:58:00Z</time>
      </trkpt>
      <trkpt lat="42.7047" lon="1.66249">
        <ele>1175.516</ele>
        <time>2021-06-13T14:58:02Z</time>
      </trkpt>
      <trkpt lat="42.70471" lon="1.66251">
        <ele>1174.439</ele>
        <time>2021-06-13T14:58:04Z</time>
      </trkpt>
      <trkpt lat="42.70471" lon="1.66253">
        <ele>1173.723</ele>
        <time>2021-06-13T14:58:06Z</time>
      </trkpt>
      <trkpt lat="42.70472" lon="1.66254">
        <ele>1173.935</ele>
        <time>2021-06-13T14:58:08Z</time>
      </trkpt>
      <trkpt lat="42.70473" lon="1.66255">
        <ele>1173.245</ele>
        <time>2021-06-13T14:58:10Z</time>
      </trkpt>
      <trkpt lat="42.70472" lon="1.66257">
        <ele>1173.337</ele>
        <time>2021-06-13T14:58:12Z</time>
      </trkpt>
      <trkpt lat="42.7047" lon="1.66258">
        <ele>1172.682</ele>
        <time>2021-06-13T14:58:14Z</time>
      </trkpt>
      <trkpt lat="42.70469" lon="1.6626">
        <ele>1171.715</ele>
        <time>2021-06-13T14:58:16Z</time>
      </trkpt>
      <trkpt lat="42.70468" lon="1.66263">
        <ele>1171.138</ele>
        <time>2021-06-13T14:58:18Z</time>
      </trkpt>
      <trkpt lat="42.70468" lon="1.66265">
        <ele>1171.175</ele>
        <time>2021-06-13T14:58:20Z</time>
      </trkpt>
      <trkpt lat="42.70468" lon="1.66267">
        <ele>1170.358</ele>
        <time>2021-06-13T14:58:22Z</time>
      </trkpt>
      <trkpt lat="42.70467" lon="1.6627">
        <ele>1169.085</ele>
        <time>2021-06-13T14:58:24Z</time>
      </trkpt>
      <trkpt lat="42.70466" lon="1.66271">
        <ele>1168.847</ele>
        <time>2021-06-13T14:58:26Z</time>
      </trkpt>
      <trkpt lat="42.70465" lon="1.66274">
        <ele>1167.962</ele>
        <time>2021-06-13T14:58:28Z</time>
      </trkpt>
      <trkpt lat="42.70463" lon="1.66275">
        <ele>1167.116</ele>
        <time>2021-06-13T14:58:30Z</time>
      </trkpt>
      <trkpt lat="42.70461" lon="1.66276">
        <ele>1165.403</ele>
        <time>2021-06-13T14:58:32Z</time>
      </trkpt>
      <trkpt lat="42.70459" lon="1.66277">
        <ele>1165.2</ele>
        <time>2021-06-13T14:58:34Z</time>
      </trkpt>
      <trkpt lat="42.70458" lon="1.66279">
        <ele>1164.196</ele>
        <time>2021-06-13T14:58:36Z</time>
      </trkpt>
      <trkpt lat="42.70457" lon="1.66281">
        <ele>1163.791</ele>
        <time>2021-06-13T14:58:38Z</time>
      </trkpt>
      <trkpt lat="42.70457" lon="1.66283">
        <ele>1162.406</ele>
        <time>2021-06-13T14:58:40Z</time>
      </trkpt>
      <trkpt lat="42.70456" lon="1.66285">
        <ele>1161.508</ele>
        <time>2021-06-13T14:58:42Z</time>
      </trkpt>
      <trkpt lat="42.70456" lon="1.66288">
        <ele>1162.086</ele>
        <time>2021-06-13T14:58:44Z</time>
      </trkpt>
      <trkpt lat="42.70455" lon="1.6629">
        <ele>1161.956</ele>
        <time>2021-06-13T14:58:46Z</time>
      </trkpt>
      <trkpt lat="42.70454" lon="1.66291">
        <ele>1161.969</ele>
        <time>2021-06-13T14:58:48Z</time>
      </trkpt>
      <trkpt lat="42.70454" lon="1.66293">
        <ele>1162.075</ele>
        <time>2021-06-13T14:58:50Z</time>
      </trkpt>
      <trkpt lat="42.70454" lon="1.66295">
        <ele>1160.604</ele>
        <time>2021-06-13T14:58:52Z</time>
      </trkpt>
      <trkpt lat="42.70454" lon="1.66297">
        <ele>1159.809</ele>
        <time>2021-06-13T14:58:54Z</time>
      </trkpt>
      <trkpt lat="42.70453" lon="1.66298">
        <ele>1160.228</ele>
        <time>2021-06-13T14:58:56Z</time>
      </trkpt>
      <trkpt lat="42.70452" lon="1.663">
        <ele>1159.756</ele>
        <time>2021-06-13T14:58:58Z</time>
      </trkpt>
      <trkpt lat="42.70451" lon="1.66301">
        <ele>1160.044</ele>
        <time>2021-06-13T14:59:00Z</time>
      </trkpt>
      <trkpt lat="42.7045" lon="1.66304">
        <ele>1160.96</ele>
        <time>2021-06-13T14:59:02Z</time>
      </trkpt>
      <trkpt lat="42.70451" lon="1.66305">
        <ele>1160.101</ele>
        <time>2021-06-13T14:59:04Z</time>
      </trkpt>
      <trkpt lat="42.70452" lon="1.66306">
        <ele>1159.48</ele>
        <time>2021-06-13T14:59:06Z</time>
      </trkpt>
      <trkpt lat="42.70453" lon="1.66307">
        <ele>1158.05</ele>
        <time>2021-06-13T14:59:08Z</time>
      </trkpt>
      <trkpt lat="42.70453" lon="1.66309">
        <ele>1158.298</ele>
        <time>2021-06-13T14:59:10Z</time>
      </trkpt>
      <trkpt lat="42.70453" lon="1.6631">
        <ele>1157.556</ele>
        <time>2021-06-13T14:59:12Z</time>
      </trkpt>
      <trkpt lat="42.70453" lon="1.66312">
        <ele>1157.168</ele>
        <time>2021-06-13T14:59:14Z</time>
      </trkpt>
      <trkpt lat="42.70453" lon="1.66315">
        <ele>1154.435</ele>
        <time>2021-06-13T14:59:16Z</time>
      </trkpt>
      <trkpt lat="42.70451" lon="1.66316">
        <ele>1154.34</ele>
        <time>2021-06-13T14:59:18Z</time>
      </trkpt>
      <trkpt lat="42.70452" lon="1.66317">
        <ele>1153.313</ele>
        <time>2021-06-13T14:59:20Z</time>
      </trkpt>
      <trkpt lat="42.70451" lon="1.66319">
        <ele>1153.571</ele>
        <time>2021-06-13T14:59:22Z</time>
      </trkpt>
      <trkpt lat="42.7045" lon="1.66319">
        <ele>1152.912</ele>
        <time>2021-06-13T14:59:24Z</time>
      </trkpt>
      <trkpt lat="42.70447" lon="1.66319">
        <ele>1151.585</ele>
        <time>2021-06-13T14:59:26Z</time>
      </trkpt>
      <trkpt lat="42.70445" lon="1.6632">
        <ele>1150.805</ele>
        <time>2021-06-13T14:59:28Z</time>
      </trkpt>
      <trkpt lat="42.70444" lon="1.66321">
        <ele>1150.261</ele>
        <time>2021-06-13T14:59:30Z</time>
      </trkpt>
      <trkpt lat="42.70443" lon="1.66324">
        <ele>1150.147</ele>
        <time>2021-06-13T14:59:32Z</time>
      </trkpt>
      <trkpt lat="42.70441" lon="1.66325">
        <ele>1150.405</ele>
        <time>2021-06-13T14:59:34Z</time>
      </trkpt>
      <trkpt lat="42.7044" lon="1.66327">
        <ele>1149.711</ele>
        <time>2021-06-13T14:59:36Z</time>
      </trkpt>
      <trkpt lat="42.7044" lon="1.66329">
        <ele>1148.422</ele>
        <time>2021-06-13T14:59:38Z</time>
      </trkpt>
      <trkpt lat="42.70441" lon="1.66331">
        <ele>1149.484</ele>
        <time>2021-06-13T14:59:40Z</time>
      </trkpt>
      <trkpt lat="42.70443" lon="1.66333">
        <ele>1151.04</ele>
        <time>2021-06-13T14:59:42Z</time>
      </trkpt>
      <trkpt lat="42.70445" lon="1.66333">
        <ele>1152.171</ele>
        <time>2021-06-13T14:59:44Z</time>
      </trkpt>
      <trkpt lat="42.70446" lon="1.66333">
        <ele>1152.307</ele>
        <time>2021-06-13T14:59:46Z</time>
      </trkpt>
      <trkpt lat="42.70445" lon="1.66335">
        <ele>1150.032</ele>
        <time>2021-06-13T14:59:48Z</time>
      </trkpt>
      <trkpt lat="42.70446" lon="1.66336">
        <ele>1150.522</ele>
        <time>2021-06-13T14:59:50Z</time>
      </trkpt>
      <trkpt lat="42.70448" lon="1.66336">
        <ele>1150.28</ele>
        <time>2021-06-13T14:59:52Z</time>
      </trkpt>
      <trkpt lat="42.70449" lon="1.66337">
        <ele>1149.796</ele>
        <time>2021-06-13T14:59:54Z</time>
      </trkpt>
      <trkpt lat="42.70449" lon="1.66337">
        <ele>1148.082</ele>
        <time>2021-06-13T14:59:56Z</time>
      </trkpt>
      <trkpt lat="42.70451" lon="1.66338">
        <ele>1147.441</ele>
        <time>2021-06-13T14:59:58Z</time>
      </trkpt>
      <trkpt lat="42.70452" lon="1.66338">
        <ele>1147.499</ele>
        <time>2021-06-13T15:00:00Z</time>
      </trkpt>
      <trkpt lat="42.70452" lon="1.6634">
        <ele>1145.546</ele>
        <time>2021-06-13T15:00:02Z</time>
      </trkpt>
      <trkpt lat="42.70453" lon="1.66341">
        <ele>1144.688</ele>
        <time>2021-06-13T15:00:04Z</time>
      </trkpt>
      <trkpt lat="42.70455" lon="1.66341">
        <ele>1145.149</ele>
        <time>2021-06-13T15:00:06Z</time>
      </trkpt>
      <trkpt lat="42.70456" lon="1.66342">
        <ele>1144.039</ele>
        <time>2021-06-13T15:00:08Z</time>
      </trkpt>
      <trkpt lat="42.70457" lon="1.66343">
        <ele>1142.29</ele>
        <time>2021-06-13T15:00:10Z</time>
      </trkpt>
      <trkpt lat="42.70458" lon="1.66343">
        <ele>1142.348</ele>
        <time>2021-06-13T15:00:12Z</time>
      </trkpt>
      <trkpt lat="42.70459" lon="1.66345">
        <ele>1142.071</ele>
        <time>2021-06-13T15:00:14Z</time>
      </trkpt>
      <trkpt lat="42.7046" lon="1.66346">
        <ele>1141.831</ele>
        <time>2021-06-13T15:00:16Z</time>
      </trkpt>
      <trkpt lat="42.70462" lon="1.66347">
        <ele>1140.325</ele>
        <time>2021-06-13T15:00:18Z</time>
      </trkpt>
      <trkpt lat="42.70462" lon="1.66348">
        <ele>1139.004</ele>
        <time>2021-06-13T15:00:20Z</time>
      </trkpt>
      <trkpt lat="42.70463" lon="1.66349">
        <ele>1137.744</ele>
        <time>2021-06-13T15:00:22Z</time>
      </trkpt>
      <trkpt lat="42.70465" lon="1.66349">
        <ele>1137.108</ele>
        <time>2021-06-13T15:00:24Z</time>
      </trkpt>
      <trkpt lat="42.70467" lon="1.66348">
        <ele>1135.737</ele>
        <time>2021-06-13T15:00:26Z</time>
      </trkpt>
      <trkpt lat="42.70468" lon="1.66346">
        <ele>1132.961</ele>
        <time>2021-06-13T15:00:28Z</time>
      </trkpt>
      <trkpt lat="42.7047" lon="1.66345">
        <ele>1132.874</ele>
        <time>2021-06-13T15:00:30Z</time>
      </trkpt>
      <trkpt lat="42.70472" lon="1.66344">
        <ele>1132.941</ele>
        <time>2021-06-13T15:00:32Z</time>
      </trkpt>
      <trkpt lat="42.70474" lon="1.66344">
        <ele>1134.165</ele>
        <time>2021-06-13T15:00:34Z</time>
      </trkpt>
      <trkpt lat="42.70476" lon="1.66345">
        <ele>1134.842</ele>
        <time>2021-06-13T15:00:36Z</time>
      </trkpt>
      <trkpt lat="42.70475" lon="1.66347">
        <ele>1132.513</ele>
        <time>2021-06-13T15:00:38Z</time>
      </trkpt>
      <trkpt lat="42.70474" lon="1.66349">
        <ele>1132.573</ele>
        <time>2021-06-13T15:00:40Z</time>
      </trkpt>
      <trkpt lat="42.70473" lon="1.66351">
        <ele>1132.593</ele>
        <time>2021-06-13T15:00:42Z</time>
      </trkpt>
      <trkpt lat="42.70471" lon="1.66352">
        <ele>1131.836</ele>
        <time>2021-06-13T15:00:44Z</time>
      </trkpt>
      <trkpt lat="42.7047" lon="1.66354">
        <ele>1133.501</ele>
        <time>2021-06-13T15:00:46Z</time>
      </trkpt>
      <trkpt lat="42.70469" lon="1.66355">
        <ele>1133.66</ele>
        <time>2021-06-13T15:00:48Z</time>
      </trkpt>
      <trkpt lat="42.70468" lon="1.66357">
        <ele>1133.643</ele>
        <time>2021-06-13T15:00:50Z</time>
      </trkpt>
      <trkpt lat="42.7047" lon="1.66359">
        <ele>1132.063</ele>
        <time>2021-06-13T15:00:52Z</time>
      </trkpt>
      <trkpt lat="42.70472" lon="1.66361">
        <ele>1132.657</ele>
        <time>2021-06-13T15:00:54Z</time>
      </trkpt>
      <trkpt lat="42.70475" lon="1.66361">
        <ele>1131.281</ele>
        <time>2021-06-13T15:00:56Z</time>
      </trkpt>
      <trkpt lat="42.70477" lon="1.6636">
        <ele>1130.306</ele>
        <time>2021-06-13T15:00:58Z</time>
      </trkpt>
      <trkpt lat="42.70479" lon="1.66359">
        <ele>1128.902</ele>
        <time>2021-06-13T15:01:00Z</time>
      </trkpt>
      <trkpt lat="42.7048" lon="1.6636">
        <ele>1127.705</ele>
        <time>2021-06-13T15:01:02Z</time>
      </trkpt>
      <trkpt lat="42.7048" lon="1.6636">
        <ele>1127.228</ele>
        <time>2021-06-13T15:01:04Z</time>
      </trkpt>
      <trkpt lat="42.70482" lon="1.66361">
        <ele>1126.179</ele>
        <time>2021-06-13T15:01:06Z</time>
      </trkpt>
      <trkpt lat="42.70483" lon="1.66363">
        <ele>1126.307</ele>
        <time>2021-06-13T15:01:08Z</time>
      </trkpt>
      <trkpt lat="42.70485" lon="1.66363">
        <ele>1126.313</ele>
        <time>2021-06-13T15:01:10Z</time>
      </trkpt>
      <trkpt lat="42.70486" lon="1.66362">
        <ele>1126.417</ele>
        <time>2021-06-13T15:01:12Z</time>
      </trkpt>
      <trkpt lat="42.70487" lon="1.6636">
        <ele>1125.261</ele>
        <time>2021-06-13T15:01:14Z</time>
      </trkpt>
      <trkpt lat="42.70489" lon="1.66359">
        <ele>1125.175</ele>
        <time>2021-06-13T15:01:16Z</time>
      </trkpt>
      <trkpt lat="42.70491" lon="1.66358">
        <ele>1126.919</ele>
        <time>2021-06-13T15:01:18Z</time>
      </trkpt>
      <trkpt lat="42.70492" lon="1.66358">
        <ele>1126.103</ele>
        <time>2021-06-13T15:01:20Z</time>
      </trkpt>
      <trkpt lat="42.70494" lon="1.66359">
        <ele>1126.181</ele>
        <time>2021-06-13T15:01:22Z</time>
      </trkpt>
      <trkpt lat="42.70496" lon="1.6636">
        <ele>1125.669</ele>
        <time>2021-06-13T15:01:24Z</time>
      </trkpt>
      <trkpt lat="42.70497" lon="1.6636">
        <ele>1126.062</ele>
        <time>2021-06-13T15:01:26Z</time>
      </trkpt>
      <trkpt lat="42.70499" lon="1.66359">
        <ele>1125.422</ele>
        <time>2021-06-13T15:01:28Z</time>
      </trkpt>
      <trkpt lat="42.705" lon="1.66358">
        <ele>1124.984</ele>
        <time>2021-06-13T15:01:30Z</time>
      </trkpt>
      <trkpt lat="42.70502" lon="1.66357">
        <ele>1124.557</ele>
        <time>2021-06-13T15:01:32Z</time>
      </trkpt>
      <trkpt lat="42.70504" lon="1.66356">
        <ele>1124.487</ele>
        <time>2021-06-13T15:01:34Z</time>
      </trkpt>
      <trkpt lat="42.70505" lon="1.66353">
        <ele>1124.393</ele>
        <time>2021-06-13T15:01:36Z</time>
      </trkpt>
      <trkpt lat="42.70507" lon="1.66351">
        <ele>1122.361</ele>
        <time>2021-06-13T15:01:38Z</time>
      </trkpt>
      <trkpt lat="42.70509" lon="1.6635">
        <ele>1121.187</ele>
        <time>2021-06-13T15:01:40Z</time>
      </trkpt>
      <trkpt lat="42.7051" lon="1.66348">
        <ele>1119.458</ele>
        <time>2021-06-13T15:01:42Z</time>
      </trkpt>
      <trkpt lat="42.70513" lon="1.66348">
        <ele>1117.538</ele>
        <time>2021-06-13T15:01:44Z</time>
      </trkpt>
      <trkpt lat="42.70514" lon="1.6635">
        <ele>1116.94</ele>
        <time>2021-06-13T15:01:46Z</time>
      </trkpt>
      <trkpt lat="42.70514" lon="1.66353">
        <ele>1114.946</ele>
        <time>2021-06-13T15:01:48Z</time>
      </trkpt>
      <trkpt lat="42.70513" lon="1.66356">
        <ele>1114.857</ele>
        <time>2021-06-13T15:01:50Z</time>
      </trkpt>
      <trkpt lat="42.70513" lon="1.66358">
        <ele>1115.389</ele>
        <time>2021-06-13T15:01:51Z</time>
      </trkpt>
      <trkpt lat="42.70514" lon="1.66362">
        <ele>1113.412</ele>
        <time>2021-06-13T15:01:54Z</time>
      </trkpt>
      <trkpt lat="42.70516" lon="1.66365">
        <ele>1113.271</ele>
        <time>2021-06-13T15:01:56Z</time>
      </trkpt>
      <trkpt lat="42.70518" lon="1.66366">
        <ele>1112.473</ele>
        <time>2021-06-13T15:01:58Z</time>
      </trkpt>
      <trkpt lat="42.7052" lon="1.66365">
        <ele>1113.007</ele>
        <time>2021-06-13T15:02:00Z</time>
      </trkpt>
      <trkpt lat="42.70522" lon="1.66365">
        <ele>1113.77</ele>
        <time>2021-06-13T15:02:02Z</time>
      </trkpt>
      <trkpt lat="42.70524" lon="1.66368">
        <ele>1113.869</ele>
        <time>2021-06-13T15:02:04Z</time>
      </trkpt>
      <trkpt lat="42.70526" lon="1.6637">
        <ele>1112.573</ele>
        <time>2021-06-13T15:02:06Z</time>
      </trkpt>
      <trkpt lat="42.70528" lon="1.66371">
        <ele>1112.487</ele>
        <time>2021-06-13T15:02:08Z</time>
      </trkpt>
      <trkpt lat="42.70529" lon="1.66374">
        <ele>1112.221</ele>
        <time>2021-06-13T15:02:10Z</time>
      </trkpt>
      <trkpt lat="42.70531" lon="1.66375">
        <ele>1112.681</ele>
        <time>2021-06-13T15:02:12Z</time>
      </trkpt>
      <trkpt lat="42.70532" lon="1.66378">
        <ele>1113.606</ele>
        <time>2021-06-13T15:02:14Z</time>
      </trkpt>
      <trkpt lat="42.70534" lon="1.66379">
        <ele>1112.391</ele>
        <time>2021-06-13T15:02:16Z</time>
      </trkpt>
      <trkpt lat="42.70536" lon="1.6638">
        <ele>1112.134</ele>
        <time>2021-06-13T15:02:18Z</time>
      </trkpt>
      <trkpt lat="42.70537" lon="1.66382">
        <ele>1112.043</ele>
        <time>2021-06-13T15:02:20Z</time>
      </trkpt>
      <trkpt lat="42.70538" lon="1.66384">
        <ele>1110.052</ele>
        <time>2021-06-13T15:02:22Z</time>
      </trkpt>
      <trkpt lat="42.7054" lon="1.66386">
        <ele>1109.915</ele>
        <time>2021-06-13T15:02:24Z</time>
      </trkpt>
      <trkpt lat="42.70541" lon="1.66388">
        <ele>1108.953</ele>
        <time>2021-06-13T15:02:26Z</time>
      </trkpt>
      <trkpt lat="42.70542" lon="1.6639">
        <ele>1107.681</ele>
        <time>2021-06-13T15:02:28Z</time>
      </trkpt>
      <trkpt lat="42.70542" lon="1.66393">
        <ele>1106.918</ele>
        <time>2021-06-13T15:02:30Z</time>
      </trkpt>
      <trkpt lat="42.70543" lon="1.66395">
        <ele>1105.783</ele>
        <time>2021-06-13T15:02:32Z</time>
      </trkpt>
      <trkpt lat="42.70544" lon="1.66397">
        <ele>1105.23</ele>
        <time>2021-06-13T15:02:34Z</time>
      </trkpt>
      <trkpt lat="42.70546" lon="1.66398">
        <ele>1104.313</ele>
        <time>2021-06-13T15:02:36Z</time>
      </trkpt>
      <trkpt lat="42.70548" lon="1.66399">
        <ele>1104.222</ele>
        <time>2021-06-13T15:02:38Z</time>
      </trkpt>
      <trkpt lat="42.7055" lon="1.664">
        <ele>1104.333</ele>
        <time>2021-06-13T15:02:40Z</time>
      </trkpt>
      <trkpt lat="42.70553" lon="1.664">
        <ele>1104.254</ele>
        <time>2021-06-13T15:02:42Z</time>
      </trkpt>
      <trkpt lat="42.70554" lon="1.66402">
        <ele>1103.016</ele>
        <time>2021-06-13T15:02:44Z</time>
      </trkpt>
      <trkpt lat="42.70554" lon="1.66404">
        <ele>1103.093</ele>
        <time>2021-06-13T15:02:46Z</time>
      </trkpt>
      <trkpt lat="42.70555" lon="1.66407">
        <ele>1104.084</ele>
        <time>2021-06-13T15:02:48Z</time>
      </trkpt>
      <trkpt lat="42.70554" lon="1.66409">
        <ele>1103.413</ele>
        <time>2021-06-13T15:02:50Z</time>
      </trkpt>
      <trkpt lat="42.70553" lon="1.66411">
        <ele>1100.606</ele>
        <time>2021-06-13T15:02:52Z</time>
      </trkpt>
      <trkpt lat="42.70551" lon="1.66414">
        <ele>1100.294</ele>
        <time>2021-06-13T15:02:54Z</time>
      </trkpt>
      <trkpt lat="42.7055" lon="1.66416">
        <ele>1098.608</ele>
        <time>2021-06-13T15:02:56Z</time>
      </trkpt>
      <trkpt lat="42.70548" lon="1.66419">
        <ele>1098.555</ele>
        <time>2021-06-13T15:02:58Z</time>
      </trkpt>
      <trkpt lat="42.70547" lon="1.66421">
        <ele>1097.856</ele>
        <time>2021-06-13T15:03:00Z</time>
      </trkpt>
      <trkpt lat="42.70547" lon="1.66424">
        <ele>1097.001</ele>
        <time>2021-06-13T15:03:02Z</time>
      </trkpt>
      <trkpt lat="42.70546" lon="1.66426">
        <ele>1098.087</ele>
        <time>2021-06-13T15:03:04Z</time>
      </trkpt>
      <trkpt lat="42.70546" lon="1.66429">
        <ele>1098.672</ele>
        <time>2021-06-13T15:03:06Z</time>
      </trkpt>
      <trkpt lat="42.70546" lon="1.66431">
        <ele>1098.742</ele>
        <time>2021-06-13T15:03:08Z</time>
      </trkpt>
      <trkpt lat="42.70546" lon="1.66434">
        <ele>1099.145</ele>
        <time>2021-06-13T15:03:10Z</time>
      </trkpt>
      <trkpt lat="42.70546" lon="1.66436">
        <ele>1100.074</ele>
        <time>2021-06-13T15:03:12Z</time>
      </trkpt>
      <trkpt lat="42.70546" lon="1.66439">
        <ele>1102.009</ele>
        <time>2021-06-13T15:03:14Z</time>
      </trkpt>
      <trkpt lat="42.70547" lon="1.66438">
        <ele>1101.742</ele>
        <time>2021-06-13T15:03:16Z</time>
      </trkpt>
      <trkpt lat="42.70547" lon="1.66438">
        <ele>1101.732</ele>
        <time>2021-06-13T15:03:18Z</time>
      </trkpt>
      <trkpt lat="42.70547" lon="1.66438">
        <ele>1101.724</ele>
        <time>2021-06-13T15:03:20Z</time>
      </trkpt>
      <trkpt lat="42.70547" lon="1.66438">
        <ele>1101.722</ele>
        <time>2021-06-13T15:03:22Z</time>
      </trkpt>
      <trkpt lat="42.70547" lon="1.66439">
        <ele>1101.58</ele>
        <time>2021-06-13T15:03:24Z</time>
      </trkpt>
      <trkpt lat="42.70547" lon="1.66442">
        <ele>1101.835</ele>
        <time>2021-06-13T15:03:26Z</time>
      </trkpt>
      <trkpt lat="42.70547" lon="1.66445">
        <ele>1101.419</ele>
        <time>2021-06-13T15:03:28Z</time>
      </trkpt>
      <trkpt lat="42.70546" lon="1.66447">
        <ele>1101.937</ele>
        <time>2021-06-13T15:03:30Z</time>
      </trkpt>
      <trkpt lat="42.70546" lon="1.6645">
        <ele>1101.098</ele>
        <time>2021-06-13T15:03:32Z</time>
      </trkpt>
      <trkpt lat="42.70546" lon="1.66452">
        <ele>1101.154</ele>
        <time>2021-06-13T15:03:34Z</time>
      </trkpt>
      <trkpt lat="42.70546" lon="1.66454">
        <ele>1103.142</ele>
        <time>2021-06-13T15:03:36Z</time>
      </trkpt>
      <trkpt lat="42.70546" lon="1.66456">
        <ele>1104.266</ele>
        <time>2021-06-13T15:03:38Z</time>
      </trkpt>
      <trkpt lat="42.70546" lon="1.66458">
        <ele>1104.646</ele>
        <time>2021-06-13T15:03:40Z</time>
      </trkpt>
      <trkpt lat="42.70545" lon="1.6646">
        <ele>1103.901</ele>
        <time>2021-06-13T15:03:42Z</time>
      </trkpt>
      <trkpt lat="42.70544" lon="1.66461">
        <ele>1103.125</ele>
        <time>2021-06-13T15:03:44Z</time>
      </trkpt>
      <trkpt lat="42.70543" lon="1.66462">
        <ele>1103.462</ele>
        <time>2021-06-13T15:03:46Z</time>
      </trkpt>
      <trkpt lat="42.70542" lon="1.66461">
        <ele>1101.847</ele>
        <time>2021-06-13T15:03:48Z</time>
      </trkpt>
      <trkpt lat="42.70542" lon="1.6646">
        <ele>1101.841</ele>
        <time>2021-06-13T15:03:50Z</time>
      </trkpt>
      <trkpt lat="42.70542" lon="1.6646">
        <ele>1101.84</ele>
        <time>2021-06-13T15:03:52Z</time>
      </trkpt>
      <trkpt lat="42.70542" lon="1.6646">
        <ele>1101.842</ele>
        <time>2021-06-13T15:03:54Z</time>
      </trkpt>
      <trkpt lat="42.70542" lon="1.6646">
        <ele>1101.841</ele>
        <time>2021-06-13T15:03:56Z</time>
      </trkpt>
      <trkpt lat="42.70542" lon="1.6646">
        <ele>1101.849</ele>
        <time>2021-06-13T15:03:58Z</time>
      </trkpt>
      <trkpt lat="42.70542" lon="1.6646">
        <ele>1101.851</ele>
        <time>2021-06-13T15:04:00Z</time>
      </trkpt>
      <trkpt lat="42.70542" lon="1.6646">
        <ele>1101.846</ele>
        <time>2021-06-13T15:04:02Z</time>
      </trkpt>
      <trkpt lat="42.70542" lon="1.6646">
        <ele>1101.839</ele>
        <time>2021-06-13T15:04:04Z</time>
      </trkpt>
      <trkpt lat="42.70542" lon="1.6646">
        <ele>1101.844</ele>
        <time>2021-06-13T15:04:06Z</time>
      </trkpt>
      <trkpt lat="42.70542" lon="1.6646">
        <ele>1101.85</ele>
        <time>2021-06-13T15:04:08Z</time>
      </trkpt>
      <trkpt lat="42.70542" lon="1.6646">
        <ele>1101.849</ele>
        <time>2021-06-13T15:04:10Z</time>
      </trkpt>
      <trkpt lat="42.70542" lon="1.6646">
        <ele>1101.86</ele>
        <time>2021-06-13T15:04:12Z</time>
      </trkpt>
      <trkpt lat="42.70542" lon="1.6646">
        <ele>1101.875</ele>
        <time>2021-06-13T15:04:14Z</time>
      </trkpt>
      <trkpt lat="42.70542" lon="1.6646">
        <ele>1101.878</ele>
        <time>2021-06-13T15:04:16Z</time>
      </trkpt>
      <trkpt lat="42.70542" lon="1.6646">
        <ele>1101.885</ele>
        <time>2021-06-13T15:04:18Z</time>
      </trkpt>
      <trkpt lat="42.70542" lon="1.6646">
        <ele>1101.903</ele>
        <time>2021-06-13T15:04:20Z</time>
      </trkpt>
      <trkpt lat="42.70542" lon="1.6646">
        <ele>1101.904</ele>
        <time>2021-06-13T15:04:22Z</time>
      </trkpt>
      <trkpt lat="42.70542" lon="1.6646">
        <ele>1101.908</ele>
        <time>2021-06-13T15:04:24Z</time>
      </trkpt>
      <trkpt lat="42.70542" lon="1.6646">
        <ele>1101.91</ele>
        <time>2021-06-13T15:04:26Z</time>
      </trkpt>
      <trkpt lat="42.70542" lon="1.6646">
        <ele>1101.923</ele>
        <time>2021-06-13T15:04:28Z</time>
      </trkpt>
      <trkpt lat="42.70542" lon="1.6646">
        <ele>1101.936</ele>
        <time>2021-06-13T15:04:30Z</time>
      </trkpt>
      <trkpt lat="42.70542" lon="1.6646">
        <ele>1101.952</ele>
        <time>2021-06-13T15:04:32Z</time>
      </trkpt>
      <trkpt lat="42.70542" lon="1.6646">
        <ele>1101.966</ele>
        <time>2021-06-13T15:04:34Z</time>
      </trkpt>
      <trkpt lat="42.70541" lon="1.66462">
        <ele>1102.572</ele>
        <time>2021-06-13T15:04:36Z</time>
      </trkpt>
      <trkpt lat="42.70539" lon="1.66463">
        <ele>1101.742</ele>
        <time>2021-06-13T15:04:38Z</time>
      </trkpt>
      <trkpt lat="42.70537" lon="1.66464">
        <ele>1103.287</ele>
        <time>2021-06-13T15:04:40Z</time>
      </trkpt>
      <trkpt lat="42.70536" lon="1.66465">
        <ele>1102.193</ele>
        <time>2021-06-13T15:04:42Z</time>
      </trkpt>
      <trkpt lat="42.70535" lon="1.66467">
        <ele>1102.336</ele>
        <time>2021-06-13T15:04:44Z</time>
      </trkpt>
      <trkpt lat="42.70534" lon="1.66469">
        <ele>1101.72</ele>
        <time>2021-06-13T15:04:46Z</time>
      </trkpt>
      <trkpt lat="42.70532" lon="1.66471">
        <ele>1101.203</ele>
        <time>2021-06-13T15:04:48Z</time>
      </trkpt>
      <trkpt lat="42.7053" lon="1.66473">
        <ele>1101.891</ele>
        <time>2021-06-13T15:04:50Z</time>
      </trkpt>
      <trkpt lat="42.70529" lon="1.66476">
        <ele>1102.042</ele>
        <time>2021-06-13T15:04:52Z</time>
      </trkpt>
      <trkpt lat="42.70527" lon="1.66478">
        <ele>1100.655</ele>
        <time>2021-06-13T15:04:54Z</time>
      </trkpt>
      <trkpt lat="42.70525" lon="1.6648">
        <ele>1099.767</ele>
        <time>2021-06-13T15:04:56Z</time>
      </trkpt>
      <trkpt lat="42.70523" lon="1.66482">
        <ele>1099.992</ele>
        <time>2021-06-13T15:04:58Z</time>
      </trkpt>
      <trkpt lat="42.7052" lon="1.66484">
        <ele>1099.495</ele>
        <time>2021-06-13T15:05:00Z</time>
      </trkpt>
      <trkpt lat="42.70519" lon="1.66487">
        <ele>1098.632</ele>
        <time>2021-06-13T15:05:02Z</time>
      </trkpt>
      <trkpt lat="42.70516" lon="1.66489">
        <ele>1099.553</ele>
        <time>2021-06-13T15:05:04Z</time>
      </trkpt>
      <trkpt lat="42.70513" lon="1.66493">
        <ele>1100.472</ele>
        <time>2021-06-13T15:05:06Z</time>
      </trkpt>
      <trkpt lat="42.70512" lon="1.66496">
        <ele>1100.988</ele>
        <time>2021-06-13T15:05:08Z</time>
      </trkpt>
      <trkpt lat="42.7051" lon="1.66498">
        <ele>1101.205</ele>
        <time>2021-06-13T15:05:10Z</time>
      </trkpt>
      <trkpt lat="42.70508" lon="1.665">
        <ele>1101.191</ele>
        <time>2021-06-13T15:05:12Z</time>
      </trkpt>
      <trkpt lat="42.70507" lon="1.66503">
        <ele>1100.795</ele>
        <time>2021-06-13T15:05:14Z</time>
      </trkpt>
      <trkpt lat="42.70505" lon="1.66505">
        <ele>1099.364</ele>
        <time>2021-06-13T15:05:16Z</time>
      </trkpt>
      <trkpt lat="42.70504" lon="1.66507">
        <ele>1098.829</ele>
        <time>2021-06-13T15:05:18Z</time>
      </trkpt>
      <trkpt lat="42.70502" lon="1.66508">
        <ele>1099.26</ele>
        <time>2021-06-13T15:05:20Z</time>
      </trkpt>
      <trkpt lat="42.705" lon="1.66511">
        <ele>1098.573</ele>
        <time>2021-06-13T15:05:22Z</time>
      </trkpt>
      <trkpt lat="42.70499" lon="1.66512">
        <ele>1098.973</ele>
        <time>2021-06-13T15:05:24Z</time>
      </trkpt>
      <trkpt lat="42.70497" lon="1.66514">
        <ele>1098.276</ele>
        <time>2021-06-13T15:05:26Z</time>
      </trkpt>
      <trkpt lat="42.70496" lon="1.66517">
        <ele>1097.497</ele>
        <time>2021-06-13T15:05:28Z</time>
      </trkpt>
      <trkpt lat="42.70495" lon="1.66519">
        <ele>1096.666</ele>
        <time>2021-06-13T15:05:30Z</time>
      </trkpt>
      <trkpt lat="42.70493" lon="1.66521">
        <ele>1096.243</ele>
        <time>2021-06-13T15:05:32Z</time>
      </trkpt>
      <trkpt lat="42.70492" lon="1.66523">
        <ele>1096.266</ele>
        <time>2021-06-13T15:05:34Z</time>
      </trkpt>
      <trkpt lat="42.70491" lon="1.66526">
        <ele>1096.152</ele>
        <time>2021-06-13T15:05:36Z</time>
      </trkpt>
      <trkpt lat="42.70489" lon="1.66529">
        <ele>1096.379</ele>
        <time>2021-06-13T15:05:38Z</time>
      </trkpt>
      <trkpt lat="42.70488" lon="1.66533">
        <ele>1096.854</ele>
        <time>2021-06-13T15:05:40Z</time>
      </trkpt>
      <trkpt lat="42.70488" lon="1.66535">
        <ele>1096.961</ele>
        <time>2021-06-13T15:05:41Z</time>
      </trkpt>
      <trkpt lat="42.70488" lon="1.6654">
        <ele>1096.525</ele>
        <time>2021-06-13T15:05:44Z</time>
      </trkpt>
      <trkpt lat="42.70489" lon="1.66544">
        <ele>1096.856</ele>
        <time>2021-06-13T15:05:46Z</time>
      </trkpt>
      <trkpt lat="42.70491" lon="1.66547">
        <ele>1096.601</ele>
        <time>2021-06-13T15:05:48Z</time>
      </trkpt>
      <trkpt lat="42.70491" lon="1.66551">
        <ele>1096.512</ele>
        <time>2021-06-13T15:05:50Z</time>
      </trkpt>
      <trkpt lat="42.70491" lon="1.66555">
        <ele>1096.342</ele>
        <time>2021-06-13T15:05:52Z</time>
      </trkpt>
      <trkpt lat="42.70492" lon="1.66558">
        <ele>1096.422</ele>
        <time>2021-06-13T15:05:54Z</time>
      </trkpt>
      <trkpt lat="42.70492" lon="1.66562">
        <ele>1095.638</ele>
        <time>2021-06-13T15:05:56Z</time>
      </trkpt>
      <trkpt lat="42.70492" lon="1.66566">
        <ele>1096.019</ele>
        <time>2021-06-13T15:05:58Z</time>
      </trkpt>
      <trkpt lat="42.70492" lon="1.66569">
        <ele>1095.78</ele>
        <time>2021-06-13T15:06:00Z</time>
      </trkpt>
      <trkpt lat="42.70492" lon="1.66573">
        <ele>1095.156</ele>
        <time>2021-06-13T15:06:02Z</time>
      </trkpt>
      <trkpt lat="42.70493" lon="1.66576">
        <ele>1095.078</ele>
        <time>2021-06-13T15:06:04Z</time>
      </trkpt>
      <trkpt lat="42.70493" lon="1.6658">
        <ele>1094.602</ele>
        <time>2021-06-13T15:06:06Z</time>
      </trkpt>
      <trkpt lat="42.70493" lon="1.66583">
        <ele>1094.473</ele>
        <time>2021-06-13T15:06:08Z</time>
      </trkpt>
      <trkpt lat="42.70493" lon="1.66587">
        <ele>1093.939</ele>
        <time>2021-06-13T15:06:10Z</time>
      </trkpt>
      <trkpt lat="42.70493" lon="1.66589">
        <ele>1094.134</ele>
        <time>2021-06-13T15:06:11Z</time>
      </trkpt>
      <trkpt lat="42.70494" lon="1.66594">
        <ele>1093.797</ele>
        <time>2021-06-13T15:06:14Z</time>
      </trkpt>
      <trkpt lat="42.70494" lon="1.66598">
        <ele>1092.638</ele>
        <time>2021-06-13T15:06:16Z</time>
      </trkpt>
      <trkpt lat="42.70494" lon="1.66602">
        <ele>1092.892</ele>
        <time>2021-06-13T15:06:18Z</time>
      </trkpt>
      <trkpt lat="42.70494" lon="1.66605">
        <ele>1091.802</ele>
        <time>2021-06-13T15:06:20Z</time>
      </trkpt>
      <trkpt lat="42.70494" lon="1.66609">
        <ele>1091.803</ele>
        <time>2021-06-13T15:06:22Z</time>
      </trkpt>
      <trkpt lat="42.70494" lon="1.66613">
        <ele>1091.443</ele>
        <time>2021-06-13T15:06:24Z</time>
      </trkpt>
      <trkpt lat="42.70494" lon="1.66616">
        <ele>1091.2</ele>
        <time>2021-06-13T15:06:26Z</time>
      </trkpt>
      <trkpt lat="42.70494" lon="1.6662">
        <ele>1091.467</ele>
        <time>2021-06-13T15:06:28Z</time>
      </trkpt>
      <trkpt lat="42.70494" lon="1.66624">
        <ele>1091.167</ele>
        <time>2021-06-13T15:06:30Z</time>
      </trkpt>
      <trkpt lat="42.70495" lon="1.66625">
        <ele>1091.187</ele>
        <time>2021-06-13T15:06:31Z</time>
      </trkpt>
      <trkpt lat="42.70495" lon="1.6663">
        <ele>1091.171</ele>
        <time>2021-06-13T15:06:34Z</time>
      </trkpt>
      <trkpt lat="42.70494" lon="1.66634">
        <ele>1090.452</ele>
        <time>2021-06-13T15:06:36Z</time>
      </trkpt>
      <trkpt lat="42.70494" lon="1.66638">
        <ele>1090.439</ele>
        <time>2021-06-13T15:06:38Z</time>
      </trkpt>
      <trkpt lat="42.70495" lon="1.66641">
        <ele>1090.54</ele>
        <time>2021-06-13T15:06:40Z</time>
      </trkpt>
      <trkpt lat="42.70495" lon="1.66643">
        <ele>1090.608</ele>
        <time>2021-06-13T15:06:41Z</time>
      </trkpt>
      <trkpt lat="42.70497" lon="1.66648">
        <ele>1090.788</ele>
        <time>2021-06-13T15:06:44Z</time>
      </trkpt>
      <trkpt lat="42.70498" lon="1.66652">
        <ele>1091</ele>
        <time>2021-06-13T15:06:46Z</time>
      </trkpt>
      <trkpt lat="42.70498" lon="1.66656">
        <ele>1091.363</ele>
        <time>2021-06-13T15:06:48Z</time>
      </trkpt>
      <trkpt lat="42.705" lon="1.66659">
        <ele>1092.674</ele>
        <time>2021-06-13T15:06:50Z</time>
      </trkpt>
      <trkpt lat="42.70502" lon="1.66662">
        <ele>1092.365</ele>
        <time>2021-06-13T15:06:52Z</time>
      </trkpt>
      <trkpt lat="42.70504" lon="1.66663">
        <ele>1092.063</ele>
        <time>2021-06-13T15:06:54Z</time>
      </trkpt>
      <trkpt lat="42.70507" lon="1.66664">
        <ele>1091.455</ele>
        <time>2021-06-13T15:06:56Z</time>
      </trkpt>
      <trkpt lat="42.70509" lon="1.66666">
        <ele>1091.354</ele>
        <time>2021-06-13T15:06:58Z</time>
      </trkpt>
      <trkpt lat="42.70511" lon="1.66667">
        <ele>1090.095</ele>
        <time>2021-06-13T15:07:00Z</time>
      </trkpt>
      <trkpt lat="42.70513" lon="1.66668">
        <ele>1089.955</ele>
        <time>2021-06-13T15:07:01Z</time>
      </trkpt>
      <trkpt lat="42.70518" lon="1.66668">
        <ele>1091.556</ele>
        <time>2021-06-13T15:07:04Z</time>
      </trkpt>
      <trkpt lat="42.70521" lon="1.66667">
        <ele>1091.21</ele>
        <time>2021-06-13T15:07:06Z</time>
      </trkpt>
      <trkpt lat="42.70523" lon="1.66665">
        <ele>1090.953</ele>
        <time>2021-06-13T15:07:08Z</time>
      </trkpt>
      <trkpt lat="42.70525" lon="1.66664">
        <ele>1090.659</ele>
        <time>2021-06-13T15:07:10Z</time>
      </trkpt>
      <trkpt lat="42.70526" lon="1.66662">
        <ele>1090.504</ele>
        <time>2021-06-13T15:07:11Z</time>
      </trkpt>
      <trkpt lat="42.70529" lon="1.66658">
        <ele>1090.171</ele>
        <time>2021-06-13T15:07:14Z</time>
      </trkpt>
      <trkpt lat="42.70531" lon="1.66656">
        <ele>1090.084</ele>
        <time>2021-06-13T15:07:16Z</time>
      </trkpt>
      <trkpt lat="42.70533" lon="1.66653">
        <ele>1090.375</ele>
        <time>2021-06-13T15:07:18Z</time>
      </trkpt>
      <trkpt lat="42.70535" lon="1.66651">
        <ele>1090.069</ele>
        <time>2021-06-13T15:07:20Z</time>
      </trkpt>
      <trkpt lat="42.70536" lon="1.6665">
        <ele>1090.166</ele>
        <time>2021-06-13T15:07:21Z</time>
      </trkpt>
      <trkpt lat="42.70539" lon="1.66646">
        <ele>1089.595</ele>
        <time>2021-06-13T15:07:24Z</time>
      </trkpt>
      <trkpt lat="42.7054" lon="1.66644">
        <ele>1089.171</ele>
        <time>2021-06-13T15:07:26Z</time>
      </trkpt>
      <trkpt lat="42.70542" lon="1.66641">
        <ele>1089.438</ele>
        <time>2021-06-13T15:07:28Z</time>
      </trkpt>
      <trkpt lat="42.70544" lon="1.66638">
        <ele>1089.175</ele>
        <time>2021-06-13T15:07:30Z</time>
      </trkpt>
      <trkpt lat="42.70545" lon="1.66636">
        <ele>1088.868</ele>
        <time>2021-06-13T15:07:31Z</time>
      </trkpt>
      <trkpt lat="42.70548" lon="1.66632">
        <ele>1088.294</ele>
        <time>2021-06-13T15:07:34Z</time>
      </trkpt>
      <trkpt lat="42.70549" lon="1.6663">
        <ele>1087.738</ele>
        <time>2021-06-13T15:07:36Z</time>
      </trkpt>
      <trkpt lat="42.70551" lon="1.66627">
        <ele>1087.437</ele>
        <time>2021-06-13T15:07:38Z</time>
      </trkpt>
      <trkpt lat="42.70553" lon="1.66625">
        <ele>1086.918</ele>
        <time>2021-06-13T15:07:40Z</time>
      </trkpt>
      <trkpt lat="42.70554" lon="1.66623">
        <ele>1087.168</ele>
        <time>2021-06-13T15:07:41Z</time>
      </trkpt>
      <trkpt lat="42.70557" lon="1.6662">
        <ele>1087.757</ele>
        <time>2021-06-13T15:07:44Z</time>
      </trkpt>
      <trkpt lat="42.70558" lon="1.66616">
        <ele>1088.498</ele>
        <time>2021-06-13T15:07:46Z</time>
      </trkpt>
      <trkpt lat="42.70559" lon="1.66614">
        <ele>1087.699</ele>
        <time>2021-06-13T15:07:48Z</time>
      </trkpt>
      <trkpt lat="42.70561" lon="1.66611">
        <ele>1087.613</ele>
        <time>2021-06-13T15:07:50Z</time>
      </trkpt>
      <trkpt lat="42.70561" lon="1.6661">
        <ele>1087.876</ele>
        <time>2021-06-13T15:07:51Z</time>
      </trkpt>
      <trkpt lat="42.70564" lon="1.66606">
        <ele>1087.572</ele>
        <time>2021-06-13T15:07:54Z</time>
      </trkpt>
      <trkpt lat="42.70565" lon="1.66603">
        <ele>1087.61</ele>
        <time>2021-06-13T15:07:56Z</time>
      </trkpt>
      <trkpt lat="42.70567" lon="1.666">
        <ele>1087.064</ele>
        <time>2021-06-13T15:07:58Z</time>
      </trkpt>
      <trkpt lat="42.70569" lon="1.66598">
        <ele>1087.554</ele>
        <time>2021-06-13T15:08:00Z</time>
      </trkpt>
      <trkpt lat="42.7057" lon="1.66597">
        <ele>1088.116</ele>
        <time>2021-06-13T15:08:01Z</time>
      </trkpt>
      <trkpt lat="42.70573" lon="1.66594">
        <ele>1089.151</ele>
        <time>2021-06-13T15:08:04Z</time>
      </trkpt>
      <trkpt lat="42.70575" lon="1.66592">
        <ele>1089.712</ele>
        <time>2021-06-13T15:08:06Z</time>
      </trkpt>
      <trkpt lat="42.70578" lon="1.6659">
        <ele>1090.553</ele>
        <time>2021-06-13T15:08:08Z</time>
      </trkpt>
      <trkpt lat="42.7058" lon="1.66589">
        <ele>1090.102</ele>
        <time>2021-06-13T15:08:10Z</time>
      </trkpt>
      <trkpt lat="42.70582" lon="1.66588">
        <ele>1089.435</ele>
        <time>2021-06-13T15:08:12Z</time>
      </trkpt>
      <trkpt lat="42.70585" lon="1.66587">
        <ele>1088.829</ele>
        <time>2021-06-13T15:08:14Z</time>
      </trkpt>
      <trkpt lat="42.70588" lon="1.66586">
        <ele>1088.383</ele>
        <time>2021-06-13T15:08:16Z</time>
      </trkpt>
      <trkpt lat="42.70591" lon="1.66585">
        <ele>1088.248</ele>
        <time>2021-06-13T15:08:18Z</time>
      </trkpt>
      <trkpt lat="42.70593" lon="1.66584">
        <ele>1089.389</ele>
        <time>2021-06-13T15:08:20Z</time>
      </trkpt>
      <trkpt lat="42.70594" lon="1.66583">
        <ele>1088.648</ele>
        <time>2021-06-13T15:08:21Z</time>
      </trkpt>
      <trkpt lat="42.70598" lon="1.66581">
        <ele>1088.927</ele>
        <time>2021-06-13T15:08:24Z</time>
      </trkpt>
      <trkpt lat="42.70601" lon="1.6658">
        <ele>1088.839</ele>
        <time>2021-06-13T15:08:26Z</time>
      </trkpt>
      <trkpt lat="42.70604" lon="1.6658">
        <ele>1087.701</ele>
        <time>2021-06-13T15:08:28Z</time>
      </trkpt>
      <trkpt lat="42.70606" lon="1.66579">
        <ele>1086.207</ele>
        <time>2021-06-13T15:08:30Z</time>
      </trkpt>
      <trkpt lat="42.70609" lon="1.66577">
        <ele>1086.258</ele>
        <time>2021-06-13T15:08:32Z</time>
      </trkpt>
      <trkpt lat="42.70612" lon="1.66576">
        <ele>1086.521</ele>
        <time>2021-06-13T15:08:34Z</time>
      </trkpt>
      <trkpt lat="42.70615" lon="1.66573">
        <ele>1085.69</ele>
        <time>2021-06-13T15:08:36Z</time>
      </trkpt>
      <trkpt lat="42.70617" lon="1.66572">
        <ele>1085.856</ele>
        <time>2021-06-13T15:08:38Z</time>
      </trkpt>
      <trkpt lat="42.70619" lon="1.66569">
        <ele>1086.263</ele>
        <time>2021-06-13T15:08:40Z</time>
      </trkpt>
      <trkpt lat="42.70622" lon="1.66568">
        <ele>1086.638</ele>
        <time>2021-06-13T15:08:42Z</time>
      </trkpt>
      <trkpt lat="42.70624" lon="1.66566">
        <ele>1085.7</ele>
        <time>2021-06-13T15:08:44Z</time>
      </trkpt>
      <trkpt lat="42.70625" lon="1.66563">
        <ele>1086.35</ele>
        <time>2021-06-13T15:08:46Z</time>
      </trkpt>
      <trkpt lat="42.70626" lon="1.6656">
        <ele>1087.125</ele>
        <time>2021-06-13T15:08:48Z</time>
      </trkpt>
      <trkpt lat="42.70628" lon="1.66558">
        <ele>1089.021</ele>
        <time>2021-06-13T15:08:50Z</time>
      </trkpt>
      <trkpt lat="42.7063" lon="1.66555">
        <ele>1088.953</ele>
        <time>2021-06-13T15:08:52Z</time>
      </trkpt>
      <trkpt lat="42.70631" lon="1.66552">
        <ele>1089.746</ele>
        <time>2021-06-13T15:08:54Z</time>
      </trkpt>
      <trkpt lat="42.70633" lon="1.66549">
        <ele>1088.843</ele>
        <time>2021-06-13T15:08:56Z</time>
      </trkpt>
      <trkpt lat="42.70635" lon="1.66547">
        <ele>1088.983</ele>
        <time>2021-06-13T15:08:58Z</time>
      </trkpt>
      <trkpt lat="42.70638" lon="1.66545">
        <ele>1089.04</ele>
        <time>2021-06-13T15:09:00Z</time>
      </trkpt>
      <trkpt lat="42.7064" lon="1.66543">
        <ele>1089.337</ele>
        <time>2021-06-13T15:09:02Z</time>
      </trkpt>
      <trkpt lat="42.70643" lon="1.66541">
        <ele>1088.765</ele>
        <time>2021-06-13T15:09:04Z</time>
      </trkpt>
      <trkpt lat="42.70645" lon="1.66539">
        <ele>1089.657</ele>
        <time>2021-06-13T15:09:06Z</time>
      </trkpt>
      <trkpt lat="42.70648" lon="1.66537">
        <ele>1090.594</ele>
        <time>2021-06-13T15:09:08Z</time>
      </trkpt>
      <trkpt lat="42.70651" lon="1.66534">
        <ele>1091.35</ele>
        <time>2021-06-13T15:09:10Z</time>
      </trkpt>
      <trkpt lat="42.70653" lon="1.66532">
        <ele>1091.297</ele>
        <time>2021-06-13T15:09:12Z</time>
      </trkpt>
      <trkpt lat="42.70655" lon="1.66529">
        <ele>1091.049</ele>
        <time>2021-06-13T15:09:14Z</time>
      </trkpt>
      <trkpt lat="42.70658" lon="1.66528">
        <ele>1091.545</ele>
        <time>2021-06-13T15:09:16Z</time>
      </trkpt>
      <trkpt lat="42.7066" lon="1.66526">
        <ele>1093.767</ele>
        <time>2021-06-13T15:09:18Z</time>
      </trkpt>
      <trkpt lat="42.70662" lon="1.66524">
        <ele>1093.967</ele>
        <time>2021-06-13T15:09:20Z</time>
      </trkpt>
      <trkpt lat="42.70665" lon="1.66522">
        <ele>1092.561</ele>
        <time>2021-06-13T15:09:22Z</time>
      </trkpt>
      <trkpt lat="42.70667" lon="1.6652">
        <ele>1094.475</ele>
        <time>2021-06-13T15:09:24Z</time>
      </trkpt>
      <trkpt lat="42.70669" lon="1.66518">
        <ele>1094.682</ele>
        <time>2021-06-13T15:09:26Z</time>
      </trkpt>
      <trkpt lat="42.70671" lon="1.66516">
        <ele>1095.214</ele>
        <time>2021-06-13T15:09:28Z</time>
      </trkpt>
      <trkpt lat="42.70674" lon="1.66514">
        <ele>1094.013</ele>
        <time>2021-06-13T15:09:30Z</time>
      </trkpt>
      <trkpt lat="42.70677" lon="1.66512">
        <ele>1093.118</ele>
        <time>2021-06-13T15:09:32Z</time>
      </trkpt>
      <trkpt lat="42.70679" lon="1.6651">
        <ele>1094.196</ele>
        <time>2021-06-13T15:09:34Z</time>
      </trkpt>
      <trkpt lat="42.70682" lon="1.66509">
        <ele>1092.251</ele>
        <time>2021-06-13T15:09:36Z</time>
      </trkpt>
      <trkpt lat="42.70685" lon="1.66508">
        <ele>1090.915</ele>
        <time>2021-06-13T15:09:38Z</time>
      </trkpt>
      <trkpt lat="42.70687" lon="1.66507">
        <ele>1090.907</ele>
        <time>2021-06-13T15:09:40Z</time>
      </trkpt>
      <trkpt lat="42.70689" lon="1.66506">
        <ele>1091.801</ele>
        <time>2021-06-13T15:09:41Z</time>
      </trkpt>
      <trkpt lat="42.70693" lon="1.66506">
        <ele>1091.266</ele>
        <time>2021-06-13T15:09:44Z</time>
      </trkpt>
      <trkpt lat="42.70695" lon="1.66505">
        <ele>1090.831</ele>
        <time>2021-06-13T15:09:46Z</time>
      </trkpt>
      <trkpt lat="42.70698" lon="1.66504">
        <ele>1091.157</ele>
        <time>2021-06-13T15:09:48Z</time>
      </trkpt>
      <trkpt lat="42.70701" lon="1.66504">
        <ele>1090.133</ele>
        <time>2021-06-13T15:09:50Z</time>
      </trkpt>
      <trkpt lat="42.70702" lon="1.66504">
        <ele>1090.168</ele>
        <time>2021-06-13T15:09:51Z</time>
      </trkpt>
      <trkpt lat="42.70706" lon="1.66505">
        <ele>1090.073</ele>
        <time>2021-06-13T15:09:54Z</time>
      </trkpt>
      <trkpt lat="42.70709" lon="1.66506">
        <ele>1089.916</ele>
        <time>2021-06-13T15:09:56Z</time>
      </trkpt>
      <trkpt lat="42.70711" lon="1.66505">
        <ele>1090.702</ele>
        <time>2021-06-13T15:09:58Z</time>
      </trkpt>
      <trkpt lat="42.70714" lon="1.66504">
        <ele>1092.309</ele>
        <time>2021-06-13T15:10:00Z</time>
      </trkpt>
      <trkpt lat="42.70715" lon="1.66504">
        <ele>1093.159</ele>
        <time>2021-06-13T15:10:01Z</time>
      </trkpt>
      <trkpt lat="42.70719" lon="1.66502">
        <ele>1091.028</ele>
        <time>2021-06-13T15:10:04Z</time>
      </trkpt>
      <trkpt lat="42.70722" lon="1.66501">
        <ele>1091.478</ele>
        <time>2021-06-13T15:10:06Z</time>
      </trkpt>
      <trkpt lat="42.70724" lon="1.665">
        <ele>1090.38</ele>
        <time>2021-06-13T15:10:08Z</time>
      </trkpt>
      <trkpt lat="42.70726" lon="1.66498">
        <ele>1088.846</ele>
        <time>2021-06-13T15:10:10Z</time>
      </trkpt>
      <trkpt lat="42.70728" lon="1.66497">
        <ele>1088.237</ele>
        <time>2021-06-13T15:10:11Z</time>
      </trkpt>
      <trkpt lat="42.70732" lon="1.66495">
        <ele>1086.46</ele>
        <time>2021-06-13T15:10:14Z</time>
      </trkpt>
      <trkpt lat="42.70735" lon="1.66493">
        <ele>1085.534</ele>
        <time>2021-06-13T15:10:16Z</time>
      </trkpt>
      <trkpt lat="42.70737" lon="1.6649">
        <ele>1085.755</ele>
        <time>2021-06-13T15:10:18Z</time>
      </trkpt>
      <trkpt lat="42.70739" lon="1.66488">
        <ele>1085.842</ele>
        <time>2021-06-13T15:10:20Z</time>
      </trkpt>
      <trkpt lat="42.70741" lon="1.66488">
        <ele>1084.91</ele>
        <time>2021-06-13T15:10:21Z</time>
      </trkpt>
      <trkpt lat="42.70745" lon="1.66486">
        <ele>1086.09</ele>
        <time>2021-06-13T15:10:24Z</time>
      </trkpt>
      <trkpt lat="42.70747" lon="1.66485">
        <ele>1086.559</ele>
        <time>2021-06-13T15:10:26Z</time>
      </trkpt>
      <trkpt lat="42.7075" lon="1.66485">
        <ele>1087.349</ele>
        <time>2021-06-13T15:10:28Z</time>
      </trkpt>
      <trkpt lat="42.70753" lon="1.66485">
        <ele>1088.126</ele>
        <time>2021-06-13T15:10:30Z</time>
      </trkpt>
      <trkpt lat="42.70755" lon="1.66485">
        <ele>1087.406</ele>
        <time>2021-06-13T15:10:31Z</time>
      </trkpt>
      <trkpt lat="42.70759" lon="1.66486">
        <ele>1089.174</ele>
        <time>2021-06-13T15:10:34Z</time>
      </trkpt>
      <trkpt lat="42.70761" lon="1.66487">
        <ele>1089.684</ele>
        <time>2021-06-13T15:10:36Z</time>
      </trkpt>
      <trkpt lat="42.70763" lon="1.66488">
        <ele>1089.837</ele>
        <time>2021-06-13T15:10:38Z</time>
      </trkpt>
      <trkpt lat="42.70766" lon="1.6649">
        <ele>1091.047</ele>
        <time>2021-06-13T15:10:40Z</time>
      </trkpt>
      <trkpt lat="42.70767" lon="1.66491">
        <ele>1090.903</ele>
        <time>2021-06-13T15:10:41Z</time>
      </trkpt>
      <trkpt lat="42.7077" lon="1.66495">
        <ele>1092.352</ele>
        <time>2021-06-13T15:10:44Z</time>
      </trkpt>
      <trkpt lat="42.70772" lon="1.66497">
        <ele>1092.319</ele>
        <time>2021-06-13T15:10:46Z</time>
      </trkpt>
      <trkpt lat="42.70773" lon="1.66501">
        <ele>1092.049</ele>
        <time>2021-06-13T15:10:48Z</time>
      </trkpt>
      <trkpt lat="42.70774" lon="1.66504">
        <ele>1090.877</ele>
        <time>2021-06-13T15:10:50Z</time>
      </trkpt>
      <trkpt lat="42.70775" lon="1.66506">
        <ele>1091.173</ele>
        <time>2021-06-13T15:10:51Z</time>
      </trkpt>
      <trkpt lat="42.70776" lon="1.66511">
        <ele>1092.045</ele>
        <time>2021-06-13T15:10:54Z</time>
      </trkpt>
      <trkpt lat="42.70777" lon="1.66514">
        <ele>1091.983</ele>
        <time>2021-06-13T15:10:56Z</time>
      </trkpt>
      <trkpt lat="42.70778" lon="1.66518">
        <ele>1093.791</ele>
        <time>2021-06-13T15:10:58Z</time>
      </trkpt>
      <trkpt lat="42.70779" lon="1.66522">
        <ele>1093.438</ele>
        <time>2021-06-13T15:11:00Z</time>
      </trkpt>
      <trkpt lat="42.70779" lon="1.66524">
        <ele>1092.935</ele>
        <time>2021-06-13T15:11:01Z</time>
      </trkpt>
      <trkpt lat="42.70781" lon="1.66529">
        <ele>1092.688</ele>
        <time>2021-06-13T15:11:04Z</time>
      </trkpt>
      <trkpt lat="42.70782" lon="1.66533">
        <ele>1094.58</ele>
        <time>2021-06-13T15:11:06Z</time>
      </trkpt>
      <trkpt lat="42.70784" lon="1.66537">
        <ele>1094.698</ele>
        <time>2021-06-13T15:11:08Z</time>
      </trkpt>
      <trkpt lat="42.70785" lon="1.6654">
        <ele>1092.019</ele>
        <time>2021-06-13T15:11:10Z</time>
      </trkpt>
      <trkpt lat="42.70786" lon="1.66541">
        <ele>1092.528</ele>
        <time>2021-06-13T15:11:11Z</time>
      </trkpt>
      <trkpt lat="42.70788" lon="1.66545">
        <ele>1091.177</ele>
        <time>2021-06-13T15:11:14Z</time>
      </trkpt>
      <trkpt lat="42.7079" lon="1.66548">
        <ele>1091.166</ele>
        <time>2021-06-13T15:11:16Z</time>
      </trkpt>
      <trkpt lat="42.70792" lon="1.66551">
        <ele>1091.347</ele>
        <time>2021-06-13T15:11:18Z</time>
      </trkpt>
      <trkpt lat="42.70794" lon="1.66553">
        <ele>1090.722</ele>
        <time>2021-06-13T15:11:20Z</time>
      </trkpt>
      <trkpt lat="42.70795" lon="1.66554">
        <ele>1091.18</ele>
        <time>2021-06-13T15:11:21Z</time>
      </trkpt>
      <trkpt lat="42.70799" lon="1.66558">
        <ele>1090.49</ele>
        <time>2021-06-13T15:11:24Z</time>
      </trkpt>
      <trkpt lat="42.70801" lon="1.66561">
        <ele>1091.395</ele>
        <time>2021-06-13T15:11:26Z</time>
      </trkpt>
      <trkpt lat="42.70804" lon="1.66563">
        <ele>1089.646</ele>
        <time>2021-06-13T15:11:28Z</time>
      </trkpt>
      <trkpt lat="42.70807" lon="1.66564">
        <ele>1088.686</ele>
        <time>2021-06-13T15:11:30Z</time>
      </trkpt>
      <trkpt lat="42.70808" lon="1.66565">
        <ele>1088.587</ele>
        <time>2021-06-13T15:11:31Z</time>
      </trkpt>
      <trkpt lat="42.70812" lon="1.66568">
        <ele>1089.555</ele>
        <time>2021-06-13T15:11:34Z</time>
      </trkpt>
      <trkpt lat="42.70814" lon="1.66569">
        <ele>1089.438</ele>
        <time>2021-06-13T15:11:36Z</time>
      </trkpt>
      <trkpt lat="42.70817" lon="1.66571">
        <ele>1089.022</ele>
        <time>2021-06-13T15:11:38Z</time>
      </trkpt>
      <trkpt lat="42.70819" lon="1.66572">
        <ele>1089.404</ele>
        <time>2021-06-13T15:11:40Z</time>
      </trkpt>
      <trkpt lat="42.70822" lon="1.66574">
        <ele>1089.979</ele>
        <time>2021-06-13T15:11:42Z</time>
      </trkpt>
      <trkpt lat="42.70824" lon="1.66575">
        <ele>1090.432</ele>
        <time>2021-06-13T15:11:44Z</time>
      </trkpt>
      <trkpt lat="42.70827" lon="1.66577">
        <ele>1091.71</ele>
        <time>2021-06-13T15:11:46Z</time>
      </trkpt>
      <trkpt lat="42.7083" lon="1.6658">
        <ele>1092.504</ele>
        <time>2021-06-13T15:11:48Z</time>
      </trkpt>
      <trkpt lat="42.70832" lon="1.66582">
        <ele>1092.657</ele>
        <time>2021-06-13T15:11:50Z</time>
      </trkpt>
      <trkpt lat="42.70834" lon="1.66585">
        <ele>1093.019</ele>
        <time>2021-06-13T15:11:52Z</time>
      </trkpt>
      <trkpt lat="42.70837" lon="1.66587">
        <ele>1093.127</ele>
        <time>2021-06-13T15:11:54Z</time>
      </trkpt>
      <trkpt lat="42.70838" lon="1.66591">
        <ele>1093.486</ele>
        <time>2021-06-13T15:11:56Z</time>
      </trkpt>
      <trkpt lat="42.70841" lon="1.66593">
        <ele>1092.323</ele>
        <time>2021-06-13T15:11:58Z</time>
      </trkpt>
      <trkpt lat="42.70843" lon="1.66596">
        <ele>1092.536</ele>
        <time>2021-06-13T15:12:00Z</time>
      </trkpt>
      <trkpt lat="42.70845" lon="1.66599">
        <ele>1091.61</ele>
        <time>2021-06-13T15:12:02Z</time>
      </trkpt>
      <trkpt lat="42.70847" lon="1.666">
        <ele>1092.434</ele>
        <time>2021-06-13T15:12:04Z</time>
      </trkpt>
      <trkpt lat="42.7085" lon="1.66603">
        <ele>1091.748</ele>
        <time>2021-06-13T15:12:06Z</time>
      </trkpt>
      <trkpt lat="42.70853" lon="1.66603">
        <ele>1090.228</ele>
        <time>2021-06-13T15:12:08Z</time>
      </trkpt>
      <trkpt lat="42.70856" lon="1.66604">
        <ele>1088.272</ele>
        <time>2021-06-13T15:12:10Z</time>
      </trkpt>
      <trkpt lat="42.70859" lon="1.66606">
        <ele>1088.015</ele>
        <time>2021-06-13T15:12:12Z</time>
      </trkpt>
      <trkpt lat="42.70862" lon="1.66606">
        <ele>1086.703</ele>
        <time>2021-06-13T15:12:14Z</time>
      </trkpt>
      <trkpt lat="42.70865" lon="1.66606">
        <ele>1084.143</ele>
        <time>2021-06-13T15:12:16Z</time>
      </trkpt>
      <trkpt lat="42.70868" lon="1.66605">
        <ele>1083.288</ele>
        <time>2021-06-13T15:12:18Z</time>
      </trkpt>
      <trkpt lat="42.7087" lon="1.66604">
        <ele>1082.801</ele>
        <time>2021-06-13T15:12:20Z</time>
      </trkpt>
      <trkpt lat="42.70872" lon="1.66602">
        <ele>1081.996</ele>
        <time>2021-06-13T15:12:22Z</time>
      </trkpt>
      <trkpt lat="42.70875" lon="1.666">
        <ele>1081.515</ele>
        <time>2021-06-13T15:12:24Z</time>
      </trkpt>
      <trkpt lat="42.70877" lon="1.66598">
        <ele>1080.008</ele>
        <time>2021-06-13T15:12:26Z</time>
      </trkpt>
      <trkpt lat="42.70879" lon="1.66596">
        <ele>1078.23</ele>
        <time>2021-06-13T15:12:28Z</time>
      </trkpt>
      <trkpt lat="42.70882" lon="1.66594">
        <ele>1077.324</ele>
        <time>2021-06-13T15:12:30Z</time>
      </trkpt>
      <trkpt lat="42.70885" lon="1.66593">
        <ele>1077.866</ele>
        <time>2021-06-13T15:12:32Z</time>
      </trkpt>
      <trkpt lat="42.70887" lon="1.6659">
        <ele>1076.982</ele>
        <time>2021-06-13T15:12:34Z</time>
      </trkpt>
      <trkpt lat="42.70889" lon="1.66588">
        <ele>1076.539</ele>
        <time>2021-06-13T15:12:36Z</time>
      </trkpt>
      <trkpt lat="42.70891" lon="1.66586">
        <ele>1076.159</ele>
        <time>2021-06-13T15:12:38Z</time>
      </trkpt>
      <trkpt lat="42.70894" lon="1.66584">
        <ele>1076.929</ele>
        <time>2021-06-13T15:12:40Z</time>
      </trkpt>
      <trkpt lat="42.70896" lon="1.66581">
        <ele>1076.844</ele>
        <time>2021-06-13T15:12:42Z</time>
      </trkpt>
      <trkpt lat="42.70898" lon="1.6658">
        <ele>1076.671</ele>
        <time>2021-06-13T15:12:44Z</time>
      </trkpt>
      <trkpt lat="42.70901" lon="1.66578">
        <ele>1077.491</ele>
        <time>2021-06-13T15:12:46Z</time>
      </trkpt>
      <trkpt lat="42.70903" lon="1.66576">
        <ele>1076.911</ele>
        <time>2021-06-13T15:12:48Z</time>
      </trkpt>
      <trkpt lat="42.70906" lon="1.66573">
        <ele>1078.276</ele>
        <time>2021-06-13T15:12:50Z</time>
      </trkpt>
      <trkpt lat="42.70908" lon="1.6657">
        <ele>1079.125</ele>
        <time>2021-06-13T15:12:52Z</time>
      </trkpt>
      <trkpt lat="42.70911" lon="1.66568">
        <ele>1079.427</ele>
        <time>2021-06-13T15:12:54Z</time>
      </trkpt>
      <trkpt lat="42.70912" lon="1.66565">
        <ele>1080.335</ele>
        <time>2021-06-13T15:12:56Z</time>
      </trkpt>
      <trkpt lat="42.70915" lon="1.66563">
        <ele>1079.604</ele>
        <time>2021-06-13T15:12:58Z</time>
      </trkpt>
      <trkpt lat="42.70917" lon="1.66562">
        <ele>1078.346</ele>
        <time>2021-06-13T15:13:00Z</time>
      </trkpt>
      <trkpt lat="42.7092" lon="1.6656">
        <ele>1078.571</ele>
        <time>2021-06-13T15:13:02Z</time>
      </trkpt>
      <trkpt lat="42.70922" lon="1.66557">
        <ele>1079.114</ele>
        <time>2021-06-13T15:13:04Z</time>
      </trkpt>
      <trkpt lat="42.70924" lon="1.66555">
        <ele>1081.466</ele>
        <time>2021-06-13T15:13:06Z</time>
      </trkpt>
      <trkpt lat="42.70927" lon="1.66553">
        <ele>1082.862</ele>
        <time>2021-06-13T15:13:08Z</time>
      </trkpt>
      <trkpt lat="42.70929" lon="1.66551">
        <ele>1083.128</ele>
        <time>2021-06-13T15:13:10Z</time>
      </trkpt>
      <trkpt lat="42.70932" lon="1.66549">
        <ele>1083.698</ele>
        <time>2021-06-13T15:13:12Z</time>
      </trkpt>
      <trkpt lat="42.70934" lon="1.66548">
        <ele>1083.308</ele>
        <time>2021-06-13T15:13:14Z</time>
      </trkpt>
      <trkpt lat="42.70937" lon="1.66546">
        <ele>1082.978</ele>
        <time>2021-06-13T15:13:16Z</time>
      </trkpt>
      <trkpt lat="42.70946" lon="1.66541">
        <ele>1083.771</ele>
        <time>2021-06-13T15:13:23Z</time>
      </trkpt>
      <trkpt lat="42.70948" lon="1.6654">
        <ele>1083.511</ele>
        <time>2021-06-13T15:13:25Z</time>
      </trkpt>
      <trkpt lat="42.70956" lon="1.66534">
        <ele>1085.458</ele>
        <time>2021-06-13T15:13:31Z</time>
      </trkpt>
      <trkpt lat="42.70959" lon="1.66533">
        <ele>1085.459</ele>
        <time>2021-06-13T15:13:33Z</time>
      </trkpt>
      <trkpt lat="42.70961" lon="1.6653">
        <ele>1085.59</ele>
        <time>2021-06-13T15:13:35Z</time>
      </trkpt>
      <trkpt lat="42.70963" lon="1.66529">
        <ele>1085.444</ele>
        <time>2021-06-13T15:13:37Z</time>
      </trkpt>
      <trkpt lat="42.70966" lon="1.66528">
        <ele>1085.004</ele>
        <time>2021-06-13T15:13:39Z</time>
      </trkpt>
      <trkpt lat="42.70968" lon="1.66526">
        <ele>1084.735</ele>
        <time>2021-06-13T15:13:41Z</time>
      </trkpt>
      <trkpt lat="42.70971" lon="1.66523">
        <ele>1085.584</ele>
        <time>2021-06-13T15:13:43Z</time>
      </trkpt>
      <trkpt lat="42.70973" lon="1.66522">
        <ele>1085.549</ele>
        <time>2021-06-13T15:13:45Z</time>
      </trkpt>
      <trkpt lat="42.70976" lon="1.66521">
        <ele>1086.858</ele>
        <time>2021-06-13T15:13:47Z</time>
      </trkpt>
      <trkpt lat="42.70978" lon="1.66519">
        <ele>1086.424</ele>
        <time>2021-06-13T15:13:49Z</time>
      </trkpt>
      <trkpt lat="42.70981" lon="1.66518">
        <ele>1086.179</ele>
        <time>2021-06-13T15:13:51Z</time>
      </trkpt>
      <trkpt lat="42.70983" lon="1.66518">
        <ele>1085.686</ele>
        <time>2021-06-13T15:13:53Z</time>
      </trkpt>
      <trkpt lat="42.70986" lon="1.66516">
        <ele>1085.646</ele>
        <time>2021-06-13T15:13:55Z</time>
      </trkpt>
      <trkpt lat="42.70989" lon="1.66515">
        <ele>1085.264</ele>
        <time>2021-06-13T15:13:57Z</time>
      </trkpt>
      <trkpt lat="42.70991" lon="1.66514">
        <ele>1085.064</ele>
        <time>2021-06-13T15:13:59Z</time>
      </trkpt>
      <trkpt lat="42.70993" lon="1.66514">
        <ele>1084.573</ele>
        <time>2021-06-13T15:14:00Z</time>
      </trkpt>
      <trkpt lat="42.71001" lon="1.66513">
        <ele>1085.811</ele>
        <time>2021-06-13T15:14:06Z</time>
      </trkpt>
      <trkpt lat="42.71003" lon="1.66512">
        <ele>1086.674</ele>
        <time>2021-06-13T15:14:08Z</time>
      </trkpt>
      <trkpt lat="42.71005" lon="1.66512">
        <ele>1087.78</ele>
        <time>2021-06-13T15:14:10Z</time>
      </trkpt>
      <trkpt lat="42.71008" lon="1.66512">
        <ele>1087.405</ele>
        <time>2021-06-13T15:14:12Z</time>
      </trkpt>
      <trkpt lat="42.7101" lon="1.66511">
        <ele>1088.614</ele>
        <time>2021-06-13T15:14:14Z</time>
      </trkpt>
      <trkpt lat="42.71013" lon="1.66511">
        <ele>1087.768</ele>
        <time>2021-06-13T15:14:16Z</time>
      </trkpt>
      <trkpt lat="42.71016" lon="1.66511">
        <ele>1086.835</ele>
        <time>2021-06-13T15:14:18Z</time>
      </trkpt>
      <trkpt lat="42.71018" lon="1.66511">
        <ele>1086.737</ele>
        <time>2021-06-13T15:14:20Z</time>
      </trkpt>
      <trkpt lat="42.71021" lon="1.66512">
        <ele>1085.724</ele>
        <time>2021-06-13T15:14:22Z</time>
      </trkpt>
      <trkpt lat="42.71024" lon="1.66513">
        <ele>1084.942</ele>
        <time>2021-06-13T15:14:24Z</time>
      </trkpt>
      <trkpt lat="42.71026" lon="1.66513">
        <ele>1084.446</ele>
        <time>2021-06-13T15:14:26Z</time>
      </trkpt>
      <trkpt lat="42.71029" lon="1.66513">
        <ele>1082.836</ele>
        <time>2021-06-13T15:14:28Z</time>
      </trkpt>
      <trkpt lat="42.71031" lon="1.66512">
        <ele>1082.218</ele>
        <time>2021-06-13T15:14:30Z</time>
      </trkpt>
      <trkpt lat="42.71033" lon="1.66511">
        <ele>1080.694</ele>
        <time>2021-06-13T15:14:32Z</time>
      </trkpt>
      <trkpt lat="42.71034" lon="1.66509">
        <ele>1080.888</ele>
        <time>2021-06-13T15:14:34Z</time>
      </trkpt>
      <trkpt lat="42.71035" lon="1.66506">
        <ele>1081.107</ele>
        <time>2021-06-13T15:14:36Z</time>
      </trkpt>
      <trkpt lat="42.71035" lon="1.66503">
        <ele>1081.911</ele>
        <time>2021-06-13T15:14:38Z</time>
      </trkpt>
      <trkpt lat="42.71034" lon="1.66501">
        <ele>1082.783</ele>
        <time>2021-06-13T15:14:40Z</time>
      </trkpt>
      <trkpt lat="42.71034" lon="1.66501">
        <ele>1082.774</ele>
        <time>2021-06-13T15:14:42Z</time>
      </trkpt>
      <trkpt lat="42.71034" lon="1.66501">
        <ele>1082.738</ele>
        <time>2021-06-13T15:14:44Z</time>
      </trkpt>
    </trkseg>
  </trk>
</gpx>